<?xml version="1.0" encoding="UTF-8" standalone="no" ?>
<gpx xmlns="http://www.topografix.com/GPX/1/1" xmlns:xsi="http://www.w3.org/2001/XMLSchema-instance" xsi:schemaLocation="http://www.topografix.com/GPX/1/1 http://www.topografix.com/GPX/1/1/gpx.xsd" version="1.1" creator="VisuGPX - https://www.visugpx.com">
  <metadata>
    <name>Wallabies Tet Adriatique Juillet 2025/1</name>
    <desc><![CDATA[Les Wallabies Adriatique 2025]]></desc>
  </metadata>
  <trk>
    <name><![CDATA[2 ACT MNE_AL]]></name>
    <extensions>
      <line xmlns="http://www.topografix.com/GPX/gpx_style/0/2">
        <color>ff2600</color>
        <width>4</width>
      </line>
    </extensions>
    <trkseg>
      <trkpt lat="42.73305" lon="19.79317">
        <ele>788.90002441406</ele>
        <time>2024-09-23T08:40:46.000Z</time>
      </trkpt>
      <trkpt lat="42.73298" lon="19.79323">
        <ele>788.41998291016</ele>
        <time>2024-09-23T08:40:47.000Z</time>
      </trkpt>
      <trkpt lat="42.73291" lon="19.79329">
        <ele>787.94000244141</ele>
        <time>2024-09-23T08:40:48.000Z</time>
      </trkpt>
      <trkpt lat="42.73282" lon="19.79333">
        <ele>787.46002197266</ele>
        <time>2024-09-23T08:40:49.000Z</time>
      </trkpt>
      <trkpt lat="42.73268" lon="19.79337">
        <ele>786.5</ele>
        <time>2024-09-23T08:40:50.000Z</time>
      </trkpt>
      <trkpt lat="42.7326" lon="19.79338">
        <ele>786.02001953125</ele>
        <time>2024-09-23T08:40:51.000Z</time>
      </trkpt>
      <trkpt lat="42.73247" lon="19.79339">
        <ele>785.04998779297</ele>
        <time>2024-09-23T08:40:52.000Z</time>
      </trkpt>
      <trkpt lat="42.73241" lon="19.79339">
        <ele>785.04998779297</ele>
        <time>2024-09-23T08:40:53.000Z</time>
      </trkpt>
      <trkpt lat="42.73231" lon="19.79339">
        <ele>784.09002685547</ele>
        <time>2024-09-23T08:40:54.000Z</time>
      </trkpt>
      <trkpt lat="42.73215" lon="19.79339">
        <ele>783.13000488281</ele>
        <time>2024-09-23T08:40:55.000Z</time>
      </trkpt>
      <trkpt lat="42.7318" lon="19.79338">
        <ele>780.72998046875</ele>
        <time>2024-09-23T08:40:58.000Z</time>
      </trkpt>
      <trkpt lat="42.73177" lon="19.79338">
        <ele>780.72998046875</ele>
        <time>2024-09-23T08:40:59.000Z</time>
      </trkpt>
      <trkpt lat="42.73156" lon="19.79334">
        <ele>779.77001953125</ele>
        <time>2024-09-23T08:41:01.000Z</time>
      </trkpt>
      <trkpt lat="42.73147" lon="19.79332">
        <ele>779.28997802734</ele>
        <time>2024-09-23T08:41:02.000Z</time>
      </trkpt>
      <trkpt lat="42.73128" lon="19.79322">
        <ele>778.32000732422</ele>
        <time>2024-09-23T08:41:03.000Z</time>
      </trkpt>
      <trkpt lat="42.73126" lon="19.79321">
        <ele>778.32000732422</ele>
        <time>2024-09-23T08:41:04.000Z</time>
      </trkpt>
      <trkpt lat="42.73112" lon="19.79311">
        <ele>777.35998535156</ele>
        <time>2024-09-23T08:41:05.000Z</time>
      </trkpt>
      <trkpt lat="42.73105" lon="19.79306">
        <ele>777.35998535156</ele>
        <time>2024-09-23T08:41:06.000Z</time>
      </trkpt>
      <trkpt lat="42.7309" lon="19.79293">
        <ele>776.88000488281</ele>
        <time>2024-09-23T08:41:07.000Z</time>
      </trkpt>
      <trkpt lat="42.73069" lon="19.79275">
        <ele>776.88000488281</ele>
        <time>2024-09-23T08:41:10.000Z</time>
      </trkpt>
      <trkpt lat="42.73042" lon="19.79253">
        <ele>776.40002441406</ele>
        <time>2024-09-23T08:41:12.000Z</time>
      </trkpt>
      <trkpt lat="42.73035" lon="19.79249">
        <ele>776.88000488281</ele>
        <time>2024-09-23T08:41:13.000Z</time>
      </trkpt>
      <trkpt lat="42.73024" lon="19.79243">
        <ele>776.88000488281</ele>
        <time>2024-09-23T08:41:14.000Z</time>
      </trkpt>
      <trkpt lat="42.73012" lon="19.79239">
        <ele>776.88000488281</ele>
        <time>2024-09-23T08:41:15.000Z</time>
      </trkpt>
      <trkpt lat="42.72999" lon="19.79236">
        <ele>776.40002441406</ele>
        <time>2024-09-23T08:41:16.000Z</time>
      </trkpt>
      <trkpt lat="42.72986" lon="19.79236">
        <ele>775.91998291016</ele>
        <time>2024-09-23T08:41:17.000Z</time>
      </trkpt>
      <trkpt lat="42.7297" lon="19.79237">
        <ele>775.44000244141</ele>
        <time>2024-09-23T08:41:18.000Z</time>
      </trkpt>
      <trkpt lat="42.7296" lon="19.7924">
        <ele>774.96002197266</ele>
        <time>2024-09-23T08:41:19.000Z</time>
      </trkpt>
      <trkpt lat="42.72945" lon="19.79247">
        <ele>773.52001953125</ele>
        <time>2024-09-23T08:41:20.000Z</time>
      </trkpt>
      <trkpt lat="42.72934" lon="19.79254">
        <ele>773.03997802734</ele>
        <time>2024-09-23T08:41:21.000Z</time>
      </trkpt>
      <trkpt lat="42.72922" lon="19.79263">
        <ele>772.08001708984</ele>
        <time>2024-09-23T08:41:22.000Z</time>
      </trkpt>
      <trkpt lat="42.72912" lon="19.79275">
        <ele>770.63000488281</ele>
        <time>2024-09-23T08:41:23.000Z</time>
      </trkpt>
      <trkpt lat="42.72903" lon="19.79289">
        <ele>769.66998291016</ele>
        <time>2024-09-23T08:41:24.000Z</time>
      </trkpt>
      <trkpt lat="42.72895" lon="19.79304">
        <ele>768.71002197266</ele>
        <time>2024-09-23T08:41:25.000Z</time>
      </trkpt>
      <trkpt lat="42.72888" lon="19.79321">
        <ele>767.27001953125</ele>
        <time>2024-09-23T08:41:26.000Z</time>
      </trkpt>
      <trkpt lat="42.72883" lon="19.79338">
        <ele>766.30999755859</ele>
        <time>2024-09-23T08:41:27.000Z</time>
      </trkpt>
      <trkpt lat="42.7288" lon="19.79357">
        <ele>765.34997558594</ele>
        <time>2024-09-23T08:41:28.000Z</time>
      </trkpt>
      <trkpt lat="42.72878" lon="19.79374">
        <ele>764.86999511719</ele>
        <time>2024-09-23T08:41:29.000Z</time>
      </trkpt>
      <trkpt lat="42.72878" lon="19.79394">
        <ele>763.90002441406</ele>
        <time>2024-09-23T08:41:30.000Z</time>
      </trkpt>
      <trkpt lat="42.72881" lon="19.79413">
        <ele>762.94000244141</ele>
        <time>2024-09-23T08:41:31.000Z</time>
      </trkpt>
      <trkpt lat="42.72885" lon="19.79433">
        <ele>762.46002197266</ele>
        <time>2024-09-23T08:41:32.000Z</time>
      </trkpt>
      <trkpt lat="42.72891" lon="19.79451">
        <ele>761.97998046875</ele>
        <time>2024-09-23T08:41:33.000Z</time>
      </trkpt>
      <trkpt lat="42.72897" lon="19.79467">
        <ele>761.5</ele>
        <time>2024-09-23T08:41:34.000Z</time>
      </trkpt>
      <trkpt lat="42.72919" lon="19.79507">
        <ele>760.05999755859</ele>
        <time>2024-09-23T08:41:38.000Z</time>
      </trkpt>
      <trkpt lat="42.72921" lon="19.7951">
        <ele>760.05999755859</ele>
        <time>2024-09-23T08:41:39.000Z</time>
      </trkpt>
      <trkpt lat="42.72934" lon="19.79529">
        <ele>760.05999755859</ele>
        <time>2024-09-23T08:41:44.000Z</time>
      </trkpt>
      <trkpt lat="42.72934" lon="19.7953">
        <ele>760.05999755859</ele>
        <time>2024-09-23T08:41:45.000Z</time>
      </trkpt>
      <trkpt lat="42.72938" lon="19.79537">
        <ele>760.05999755859</ele>
        <time>2024-09-23T08:41:46.000Z</time>
      </trkpt>
      <trkpt lat="42.7296" lon="19.7957">
        <ele>759.58001708984</ele>
        <time>2024-09-23T08:41:50.000Z</time>
      </trkpt>
      <trkpt lat="42.72989" lon="19.79617">
        <ele>760.05999755859</ele>
        <time>2024-09-23T08:41:54.000Z</time>
      </trkpt>
      <trkpt lat="42.73059" lon="19.7973">
        <ele>762.46002197266</ele>
        <time>2024-09-23T08:42:02.000Z</time>
      </trkpt>
      <trkpt lat="42.73067" lon="19.79746">
        <ele>762.94000244141</ele>
        <time>2024-09-23T08:42:03.000Z</time>
      </trkpt>
      <trkpt lat="42.73075" lon="19.79765">
        <ele>763.41998291016</ele>
        <time>2024-09-23T08:42:04.000Z</time>
      </trkpt>
      <trkpt lat="42.73081" lon="19.79784">
        <ele>764.39001464844</ele>
        <time>2024-09-23T08:42:05.000Z</time>
      </trkpt>
      <trkpt lat="42.73086" lon="19.79801">
        <ele>764.86999511719</ele>
        <time>2024-09-23T08:42:06.000Z</time>
      </trkpt>
      <trkpt lat="42.73089" lon="19.79819">
        <ele>765.34997558594</ele>
        <time>2024-09-23T08:42:07.000Z</time>
      </trkpt>
      <trkpt lat="42.73093" lon="19.79848">
        <ele>766.78997802734</ele>
        <time>2024-09-23T08:42:08.000Z</time>
      </trkpt>
      <trkpt lat="42.73095" lon="19.79868">
        <ele>767.27001953125</ele>
        <time>2024-09-23T08:42:09.000Z</time>
      </trkpt>
      <trkpt lat="42.73095" lon="19.79887">
        <ele>768.22998046875</ele>
        <time>2024-09-23T08:42:10.000Z</time>
      </trkpt>
      <trkpt lat="42.73093" lon="19.79911">
        <ele>768.71002197266</ele>
        <time>2024-09-23T08:42:11.000Z</time>
      </trkpt>
      <trkpt lat="42.7309" lon="19.79935">
        <ele>769.66998291016</ele>
        <time>2024-09-23T08:42:12.000Z</time>
      </trkpt>
      <trkpt lat="42.73085" lon="19.79959">
        <ele>770.63000488281</ele>
        <time>2024-09-23T08:42:13.000Z</time>
      </trkpt>
      <trkpt lat="42.73078" lon="19.7998">
        <ele>771.10998535156</ele>
        <time>2024-09-23T08:42:14.000Z</time>
      </trkpt>
      <trkpt lat="42.73066" lon="19.80009">
        <ele>772.55999755859</ele>
        <time>2024-09-23T08:42:15.000Z</time>
      </trkpt>
      <trkpt lat="42.73008" lon="19.80125">
        <ele>777.35998535156</ele>
        <time>2024-09-23T08:42:20.000Z</time>
      </trkpt>
      <trkpt lat="42.72985" lon="19.80183">
        <ele>779.28997802734</ele>
        <time>2024-09-23T08:42:24.000Z</time>
      </trkpt>
      <trkpt lat="42.72976" lon="19.80214">
        <ele>779.28997802734</ele>
        <time>2024-09-23T08:42:25.000Z</time>
      </trkpt>
      <trkpt lat="42.72964" lon="19.80274">
        <ele>779.28997802734</ele>
        <time>2024-09-23T08:42:28.000Z</time>
      </trkpt>
      <trkpt lat="42.72961" lon="19.803">
        <ele>779.28997802734</ele>
        <time>2024-09-23T08:42:29.000Z</time>
      </trkpt>
      <trkpt lat="42.7296" lon="19.80324">
        <ele>779.77001953125</ele>
        <time>2024-09-23T08:42:30.000Z</time>
      </trkpt>
      <trkpt lat="42.72956" lon="19.80457">
        <ele>779.77001953125</ele>
        <time>2024-09-23T08:42:34.000Z</time>
      </trkpt>
      <trkpt lat="42.72955" lon="19.8047">
        <ele>779.77001953125</ele>
        <time>2024-09-23T08:42:35.000Z</time>
      </trkpt>
      <trkpt lat="42.72953" lon="19.80489">
        <ele>779.77001953125</ele>
        <time>2024-09-23T08:42:36.000Z</time>
      </trkpt>
      <trkpt lat="42.72944" lon="19.80535">
        <ele>780.25</ele>
        <time>2024-09-23T08:42:37.000Z</time>
      </trkpt>
      <trkpt lat="42.72914" lon="19.80658">
        <ele>781.21002197266</ele>
        <time>2024-09-23T08:42:42.000Z</time>
      </trkpt>
      <trkpt lat="42.72911" lon="19.80674">
        <ele>781.21002197266</ele>
        <time>2024-09-23T08:42:43.000Z</time>
      </trkpt>
      <trkpt lat="42.72909" lon="19.80698">
        <ele>781.21002197266</ele>
        <time>2024-09-23T08:42:44.000Z</time>
      </trkpt>
      <trkpt lat="42.72908" lon="19.80823">
        <ele>781.21002197266</ele>
        <time>2024-09-23T08:42:48.000Z</time>
      </trkpt>
      <trkpt lat="42.72906" lon="19.80844">
        <ele>781.21002197266</ele>
        <time>2024-09-23T08:42:49.000Z</time>
      </trkpt>
      <trkpt lat="42.729" lon="19.80922">
        <ele>781.69000244141</ele>
        <time>2024-09-23T08:42:52.000Z</time>
      </trkpt>
      <trkpt lat="42.729" lon="19.80952">
        <ele>781.69000244141</ele>
        <time>2024-09-23T08:42:53.000Z</time>
      </trkpt>
      <trkpt lat="42.729" lon="19.80971">
        <ele>781.69000244141</ele>
        <time>2024-09-23T08:42:54.000Z</time>
      </trkpt>
      <trkpt lat="42.72903" lon="19.80998">
        <ele>782.16998291016</ele>
        <time>2024-09-23T08:42:55.000Z</time>
      </trkpt>
      <trkpt lat="42.72908" lon="19.81021">
        <ele>782.65002441406</ele>
        <time>2024-09-23T08:42:56.000Z</time>
      </trkpt>
      <trkpt lat="42.7296" lon="19.81202">
        <ele>785.04998779297</ele>
        <time>2024-09-23T08:43:03.000Z</time>
      </trkpt>
      <trkpt lat="42.72986" lon="19.81284">
        <ele>785.53002929688</ele>
        <time>2024-09-23T08:43:06.000Z</time>
      </trkpt>
      <trkpt lat="42.73066" lon="19.8148">
        <ele>786.02001953125</ele>
        <time>2024-09-23T08:43:14.000Z</time>
      </trkpt>
      <trkpt lat="42.73074" lon="19.81502">
        <ele>786.02001953125</ele>
        <time>2024-09-23T08:43:15.000Z</time>
      </trkpt>
      <trkpt lat="42.73079" lon="19.81519">
        <ele>786.02001953125</ele>
        <time>2024-09-23T08:43:16.000Z</time>
      </trkpt>
      <trkpt lat="42.73087" lon="19.81551">
        <ele>785.53002929688</ele>
        <time>2024-09-23T08:43:17.000Z</time>
      </trkpt>
      <trkpt lat="42.7309" lon="19.81572">
        <ele>785.04998779297</ele>
        <time>2024-09-23T08:43:18.000Z</time>
      </trkpt>
      <trkpt lat="42.73103" lon="19.81647">
        <ele>784.57000732422</ele>
        <time>2024-09-23T08:43:21.000Z</time>
      </trkpt>
      <trkpt lat="42.73148" lon="19.81798">
        <ele>786.97998046875</ele>
        <time>2024-09-23T08:43:27.000Z</time>
      </trkpt>
      <trkpt lat="42.73152" lon="19.81819">
        <ele>786.97998046875</ele>
        <time>2024-09-23T08:43:28.000Z</time>
      </trkpt>
      <trkpt lat="42.73156" lon="19.81847">
        <ele>787.46002197266</ele>
        <time>2024-09-23T08:43:29.000Z</time>
      </trkpt>
      <trkpt lat="42.73157" lon="19.8187">
        <ele>787.46002197266</ele>
        <time>2024-09-23T08:43:30.000Z</time>
      </trkpt>
      <trkpt lat="42.73156" lon="19.81901">
        <ele>787.46002197266</ele>
        <time>2024-09-23T08:43:31.000Z</time>
      </trkpt>
      <trkpt lat="42.73154" lon="19.81921">
        <ele>787.46002197266</ele>
        <time>2024-09-23T08:43:32.000Z</time>
      </trkpt>
      <trkpt lat="42.73148" lon="19.81952">
        <ele>787.46002197266</ele>
        <time>2024-09-23T08:43:33.000Z</time>
      </trkpt>
      <trkpt lat="42.73142" lon="19.81972">
        <ele>787.46002197266</ele>
        <time>2024-09-23T08:43:34.000Z</time>
      </trkpt>
      <trkpt lat="42.73133" lon="19.81995">
        <ele>787.46002197266</ele>
        <time>2024-09-23T08:43:35.000Z</time>
      </trkpt>
      <trkpt lat="42.73071" lon="19.8211">
        <ele>788.41998291016</ele>
        <time>2024-09-23T08:43:40.000Z</time>
      </trkpt>
      <trkpt lat="42.73063" lon="19.82128">
        <ele>788.90002441406</ele>
        <time>2024-09-23T08:43:41.000Z</time>
      </trkpt>
      <trkpt lat="42.73055" lon="19.82152">
        <ele>789.38000488281</ele>
        <time>2024-09-23T08:43:42.000Z</time>
      </trkpt>
      <trkpt lat="42.73029" lon="19.82274">
        <ele>791.29998779297</ele>
        <time>2024-09-23T08:43:46.000Z</time>
      </trkpt>
      <trkpt lat="42.73027" lon="19.82279">
        <ele>791.29998779297</ele>
        <time>2024-09-23T08:43:47.000Z</time>
      </trkpt>
      <trkpt lat="42.73019" lon="19.82304">
        <ele>791.78002929688</ele>
        <time>2024-09-23T08:43:48.000Z</time>
      </trkpt>
      <trkpt lat="42.73009" lon="19.82327">
        <ele>791.78002929688</ele>
        <time>2024-09-23T08:43:49.000Z</time>
      </trkpt>
      <trkpt lat="42.72997" lon="19.82348">
        <ele>792.26000976562</ele>
        <time>2024-09-23T08:43:50.000Z</time>
      </trkpt>
      <trkpt lat="42.72982" lon="19.82367">
        <ele>792.26000976562</ele>
        <time>2024-09-23T08:43:51.000Z</time>
      </trkpt>
      <trkpt lat="42.72965" lon="19.82386">
        <ele>792.26000976562</ele>
        <time>2024-09-23T08:43:52.000Z</time>
      </trkpt>
      <trkpt lat="42.72875" lon="19.82477">
        <ele>796.10998535156</ele>
        <time>2024-09-23T08:43:57.000Z</time>
      </trkpt>
      <trkpt lat="42.72863" lon="19.82493">
        <ele>796.10998535156</ele>
        <time>2024-09-23T08:43:58.000Z</time>
      </trkpt>
      <trkpt lat="42.72755" lon="19.82656">
        <ele>798.51000976562</ele>
        <time>2024-09-23T08:44:05.000Z</time>
      </trkpt>
      <trkpt lat="42.72752" lon="19.8266">
        <ele>798.51000976562</ele>
        <time>2024-09-23T08:44:06.000Z</time>
      </trkpt>
      <trkpt lat="42.72736" lon="19.82677">
        <ele>798.51000976562</ele>
        <time>2024-09-23T08:44:07.000Z</time>
      </trkpt>
      <trkpt lat="42.72717" lon="19.82693">
        <ele>798.51000976562</ele>
        <time>2024-09-23T08:44:08.000Z</time>
      </trkpt>
      <trkpt lat="42.72698" lon="19.82705">
        <ele>798.51000976562</ele>
        <time>2024-09-23T08:44:09.000Z</time>
      </trkpt>
      <trkpt lat="42.72671" lon="19.82718">
        <ele>798.98999023438</ele>
        <time>2024-09-23T08:44:10.000Z</time>
      </trkpt>
      <trkpt lat="42.72504" lon="19.82777">
        <ele>801.40002441406</ele>
        <time>2024-09-23T08:44:18.000Z</time>
      </trkpt>
      <trkpt lat="42.72499" lon="19.8278">
        <ele>801.40002441406</ele>
        <time>2024-09-23T08:44:19.000Z</time>
      </trkpt>
      <trkpt lat="42.72481" lon="19.8279">
        <ele>801.88000488281</ele>
        <time>2024-09-23T08:44:20.000Z</time>
      </trkpt>
      <trkpt lat="42.72366" lon="19.82905">
        <ele>802.84002685547</ele>
        <time>2024-09-23T08:44:26.000Z</time>
      </trkpt>
      <trkpt lat="42.72346" lon="19.82926">
        <ele>803.32000732422</ele>
        <time>2024-09-23T08:44:28.000Z</time>
      </trkpt>
      <trkpt lat="42.72323" lon="19.82947">
        <ele>803.79998779297</ele>
        <time>2024-09-23T08:44:29.000Z</time>
      </trkpt>
      <trkpt lat="42.72261" lon="19.82991">
        <ele>804.28002929688</ele>
        <time>2024-09-23T08:44:32.000Z</time>
      </trkpt>
      <trkpt lat="42.72256" lon="19.82995">
        <ele>804.28002929688</ele>
        <time>2024-09-23T08:44:33.000Z</time>
      </trkpt>
      <trkpt lat="42.72239" lon="19.83011">
        <ele>804.28002929688</ele>
        <time>2024-09-23T08:44:34.000Z</time>
      </trkpt>
      <trkpt lat="42.72198" lon="19.83063">
        <ele>804.76000976562</ele>
        <time>2024-09-23T08:44:36.000Z</time>
      </trkpt>
      <trkpt lat="42.72062" lon="19.83244">
        <ele>806.67999267578</ele>
        <time>2024-09-23T08:44:46.000Z</time>
      </trkpt>
      <trkpt lat="42.72046" lon="19.83261">
        <ele>806.67999267578</ele>
        <time>2024-09-23T08:44:47.000Z</time>
      </trkpt>
      <trkpt lat="42.72029" lon="19.83275">
        <ele>807.15997314453</ele>
        <time>2024-09-23T08:44:48.000Z</time>
      </trkpt>
      <trkpt lat="42.72011" lon="19.83286">
        <ele>807.15997314453</ele>
        <time>2024-09-23T08:44:49.000Z</time>
      </trkpt>
      <trkpt lat="42.71991" lon="19.83293">
        <ele>807.15997314453</ele>
        <time>2024-09-23T08:44:50.000Z</time>
      </trkpt>
      <trkpt lat="42.71971" lon="19.83297">
        <ele>807.64001464844</ele>
        <time>2024-09-23T08:44:51.000Z</time>
      </trkpt>
      <trkpt lat="42.71909" lon="19.83298">
        <ele>808.60998535156</ele>
        <time>2024-09-23T08:44:54.000Z</time>
      </trkpt>
      <trkpt lat="42.71885" lon="19.833">
        <ele>809.09002685547</ele>
        <time>2024-09-23T08:44:55.000Z</time>
      </trkpt>
      <trkpt lat="42.71864" lon="19.83304">
        <ele>809.09002685547</ele>
        <time>2024-09-23T08:44:56.000Z</time>
      </trkpt>
      <trkpt lat="42.71844" lon="19.83312">
        <ele>809.57000732422</ele>
        <time>2024-09-23T08:44:57.000Z</time>
      </trkpt>
      <trkpt lat="42.71825" lon="19.83323">
        <ele>809.57000732422</ele>
        <time>2024-09-23T08:44:58.000Z</time>
      </trkpt>
      <trkpt lat="42.71808" lon="19.83338">
        <ele>810.04998779297</ele>
        <time>2024-09-23T08:44:59.000Z</time>
      </trkpt>
      <trkpt lat="42.71781" lon="19.8337">
        <ele>810.53002929688</ele>
        <time>2024-09-23T08:45:00.000Z</time>
      </trkpt>
      <trkpt lat="42.71737" lon="19.83435">
        <ele>811.01000976562</ele>
        <time>2024-09-23T08:45:03.000Z</time>
      </trkpt>
      <trkpt lat="42.71711" lon="19.83484">
        <ele>811.48999023438</ele>
        <time>2024-09-23T08:45:06.000Z</time>
      </trkpt>
      <trkpt lat="42.71701" lon="19.83507">
        <ele>811.96997070312</ele>
        <time>2024-09-23T08:45:07.000Z</time>
      </trkpt>
      <trkpt lat="42.71642" lon="19.83687">
        <ele>812.92999267578</ele>
        <time>2024-09-23T08:45:14.000Z</time>
      </trkpt>
      <trkpt lat="42.71636" lon="19.83701">
        <ele>812.92999267578</ele>
        <time>2024-09-23T08:45:15.000Z</time>
      </trkpt>
      <trkpt lat="42.71624" lon="19.83724">
        <ele>812.92999267578</ele>
        <time>2024-09-23T08:45:16.000Z</time>
      </trkpt>
      <trkpt lat="42.71612" lon="19.83743">
        <ele>813.40997314453</ele>
        <time>2024-09-23T08:45:17.000Z</time>
      </trkpt>
      <trkpt lat="42.71597" lon="19.83759">
        <ele>812.92999267578</ele>
        <time>2024-09-23T08:45:18.000Z</time>
      </trkpt>
      <trkpt lat="42.71583" lon="19.8377">
        <ele>812.92999267578</ele>
        <time>2024-09-23T08:45:19.000Z</time>
      </trkpt>
      <trkpt lat="42.71566" lon="19.8378">
        <ele>812.92999267578</ele>
        <time>2024-09-23T08:45:20.000Z</time>
      </trkpt>
      <trkpt lat="42.71545" lon="19.83788">
        <ele>812.45001220703</ele>
        <time>2024-09-23T08:45:21.000Z</time>
      </trkpt>
      <trkpt lat="42.71524" lon="19.83792">
        <ele>812.45001220703</ele>
        <time>2024-09-23T08:45:22.000Z</time>
      </trkpt>
      <trkpt lat="42.71417" lon="19.83796">
        <ele>812.92999267578</ele>
        <time>2024-09-23T08:45:27.000Z</time>
      </trkpt>
      <trkpt lat="42.71407" lon="19.83798">
        <ele>812.92999267578</ele>
        <time>2024-09-23T08:45:28.000Z</time>
      </trkpt>
      <trkpt lat="42.71383" lon="19.83804">
        <ele>812.92999267578</ele>
        <time>2024-09-23T08:45:29.000Z</time>
      </trkpt>
      <trkpt lat="42.71367" lon="19.8381">
        <ele>812.92999267578</ele>
        <time>2024-09-23T08:45:30.000Z</time>
      </trkpt>
      <trkpt lat="42.71342" lon="19.83822">
        <ele>812.45001220703</ele>
        <time>2024-09-23T08:45:31.000Z</time>
      </trkpt>
      <trkpt lat="42.71329" lon="19.8383">
        <ele>812.45001220703</ele>
        <time>2024-09-23T08:45:32.000Z</time>
      </trkpt>
      <trkpt lat="42.71303" lon="19.83848">
        <ele>811.96997070312</ele>
        <time>2024-09-23T08:45:33.000Z</time>
      </trkpt>
      <trkpt lat="42.71242" lon="19.83892">
        <ele>811.48999023438</ele>
        <time>2024-09-23T08:45:36.000Z</time>
      </trkpt>
      <trkpt lat="42.71229" lon="19.83901">
        <ele>811.01000976562</ele>
        <time>2024-09-23T08:45:37.000Z</time>
      </trkpt>
      <trkpt lat="42.71218" lon="19.83907">
        <ele>811.01000976562</ele>
        <time>2024-09-23T08:45:38.000Z</time>
      </trkpt>
      <trkpt lat="42.71199" lon="19.83914">
        <ele>811.01000976562</ele>
        <time>2024-09-23T08:45:39.000Z</time>
      </trkpt>
      <trkpt lat="42.71179" lon="19.83918">
        <ele>811.01000976562</ele>
        <time>2024-09-23T08:45:40.000Z</time>
      </trkpt>
      <trkpt lat="42.7116" lon="19.83917">
        <ele>811.01000976562</ele>
        <time>2024-09-23T08:45:41.000Z</time>
      </trkpt>
      <trkpt lat="42.7114" lon="19.83913">
        <ele>811.48999023438</ele>
        <time>2024-09-23T08:45:42.000Z</time>
      </trkpt>
      <trkpt lat="42.7112" lon="19.83903">
        <ele>811.96997070312</ele>
        <time>2024-09-23T08:45:43.000Z</time>
      </trkpt>
      <trkpt lat="42.711" lon="19.8389">
        <ele>812.45001220703</ele>
        <time>2024-09-23T08:45:44.000Z</time>
      </trkpt>
      <trkpt lat="42.7108" lon="19.83871">
        <ele>812.92999267578</ele>
        <time>2024-09-23T08:45:45.000Z</time>
      </trkpt>
      <trkpt lat="42.71031" lon="19.83821">
        <ele>814.84997558594</ele>
        <time>2024-09-23T08:45:48.000Z</time>
      </trkpt>
      <trkpt lat="42.71022" lon="19.83814">
        <ele>814.84997558594</ele>
        <time>2024-09-23T08:45:49.000Z</time>
      </trkpt>
      <trkpt lat="42.71004" lon="19.83801">
        <ele>815.82000732422</ele>
        <time>2024-09-23T08:45:50.000Z</time>
      </trkpt>
      <trkpt lat="42.70987" lon="19.83793">
        <ele>815.82000732422</ele>
        <time>2024-09-23T08:45:51.000Z</time>
      </trkpt>
      <trkpt lat="42.70901" lon="19.83754">
        <ele>817.26000976562</ele>
        <time>2024-09-23T08:45:56.000Z</time>
      </trkpt>
      <trkpt lat="42.70887" lon="19.83744">
        <ele>817.26000976562</ele>
        <time>2024-09-23T08:45:57.000Z</time>
      </trkpt>
      <trkpt lat="42.70871" lon="19.83729">
        <ele>817.73999023438</ele>
        <time>2024-09-23T08:45:58.000Z</time>
      </trkpt>
      <trkpt lat="42.70853" lon="19.83709">
        <ele>818.21997070312</ele>
        <time>2024-09-23T08:45:59.000Z</time>
      </trkpt>
      <trkpt lat="42.7078" lon="19.83624">
        <ele>820.61999511719</ele>
        <time>2024-09-23T08:46:04.000Z</time>
      </trkpt>
      <trkpt lat="42.70731" lon="19.83587">
        <ele>822.05999755859</ele>
        <time>2024-09-23T08:46:08.000Z</time>
      </trkpt>
      <trkpt lat="42.70665" lon="19.83533">
        <ele>823.03002929688</ele>
        <time>2024-09-23T08:46:12.000Z</time>
      </trkpt>
      <trkpt lat="42.70609" lon="19.83477">
        <ele>824.46997070312</ele>
        <time>2024-09-23T08:46:15.000Z</time>
      </trkpt>
      <trkpt lat="42.70604" lon="19.83472">
        <ele>824.46997070312</ele>
        <time>2024-09-23T08:46:16.000Z</time>
      </trkpt>
      <trkpt lat="42.70575" lon="19.83452">
        <ele>824.95001220703</ele>
        <time>2024-09-23T08:46:17.000Z</time>
      </trkpt>
      <trkpt lat="42.70538" lon="19.83433">
        <ele>825.90997314453</ele>
        <time>2024-09-23T08:46:19.000Z</time>
      </trkpt>
      <trkpt lat="42.70531" lon="19.8343">
        <ele>826.39001464844</ele>
        <time>2024-09-23T08:46:20.000Z</time>
      </trkpt>
      <trkpt lat="42.70514" lon="19.83425">
        <ele>826.39001464844</ele>
        <time>2024-09-23T08:46:21.000Z</time>
      </trkpt>
      <trkpt lat="42.70406" lon="19.83399">
        <ele>828.30999755859</ele>
        <time>2024-09-23T08:46:26.000Z</time>
      </trkpt>
      <trkpt lat="42.70399" lon="19.83396">
        <ele>828.30999755859</ele>
        <time>2024-09-23T08:46:27.000Z</time>
      </trkpt>
      <trkpt lat="42.70383" lon="19.83388">
        <ele>828.30999755859</ele>
        <time>2024-09-23T08:46:28.000Z</time>
      </trkpt>
      <trkpt lat="42.70364" lon="19.83376">
        <ele>828.78997802734</ele>
        <time>2024-09-23T08:46:29.000Z</time>
      </trkpt>
      <trkpt lat="42.70333" lon="19.83352">
        <ele>829.27001953125</ele>
        <time>2024-09-23T08:46:30.000Z</time>
      </trkpt>
      <trkpt lat="42.70201" lon="19.83234">
        <ele>833.11999511719</ele>
        <time>2024-09-23T08:46:39.000Z</time>
      </trkpt>
      <trkpt lat="42.70184" lon="19.83222">
        <ele>833.11999511719</ele>
        <time>2024-09-23T08:46:40.000Z</time>
      </trkpt>
      <trkpt lat="42.70146" lon="19.83202">
        <ele>834.08001708984</ele>
        <time>2024-09-23T08:46:42.000Z</time>
      </trkpt>
      <trkpt lat="42.70083" lon="19.83185">
        <ele>835.03997802734</ele>
        <time>2024-09-23T08:46:45.000Z</time>
      </trkpt>
      <trkpt lat="42.70067" lon="19.83183">
        <ele>835.03997802734</ele>
        <time>2024-09-23T08:46:46.000Z</time>
      </trkpt>
      <trkpt lat="42.70037" lon="19.83183">
        <ele>835.52001953125</ele>
        <time>2024-09-23T08:46:47.000Z</time>
      </trkpt>
      <trkpt lat="42.69879" lon="19.83216">
        <ele>839.84997558594</ele>
        <time>2024-09-23T08:46:55.000Z</time>
      </trkpt>
      <trkpt lat="42.69665" lon="19.83269">
        <ele>845.14001464844</ele>
        <time>2024-09-23T08:47:06.000Z</time>
      </trkpt>
      <trkpt lat="42.69653" lon="19.83273">
        <ele>845.61999511719</ele>
        <time>2024-09-23T08:47:07.000Z</time>
      </trkpt>
      <trkpt lat="42.6962" lon="19.83287">
        <ele>845.61999511719</ele>
        <time>2024-09-23T08:47:08.000Z</time>
      </trkpt>
      <trkpt lat="42.6961" lon="19.83291">
        <ele>845.61999511719</ele>
        <time>2024-09-23T08:47:09.000Z</time>
      </trkpt>
      <trkpt lat="42.69462" lon="19.83394">
        <ele>841.77001953125</ele>
        <time>2024-09-23T08:47:17.000Z</time>
      </trkpt>
      <trkpt lat="42.69274" lon="19.83505">
        <ele>837.45001220703</ele>
        <time>2024-09-23T08:47:26.000Z</time>
      </trkpt>
      <trkpt lat="42.69183" lon="19.83556">
        <ele>836.47998046875</ele>
        <time>2024-09-23T08:47:31.000Z</time>
      </trkpt>
      <trkpt lat="42.6913" lon="19.83597">
        <ele>836.47998046875</ele>
        <time>2024-09-23T08:47:34.000Z</time>
      </trkpt>
      <trkpt lat="42.69004" lon="19.83753">
        <ele>836.96002197266</ele>
        <time>2024-09-23T08:47:41.000Z</time>
      </trkpt>
      <trkpt lat="42.6888" lon="19.83948">
        <ele>837.92999267578</ele>
        <time>2024-09-23T08:47:50.000Z</time>
      </trkpt>
      <trkpt lat="42.68733" lon="19.84095">
        <ele>839.36999511719</ele>
        <time>2024-09-23T08:47:59.000Z</time>
      </trkpt>
      <trkpt lat="42.68675" lon="19.84154">
        <ele>840.80999755859</ele>
        <time>2024-09-23T08:48:02.000Z</time>
      </trkpt>
      <trkpt lat="42.68574" lon="19.84316">
        <ele>844.17999267578</ele>
        <time>2024-09-23T08:48:09.000Z</time>
      </trkpt>
      <trkpt lat="42.68521" lon="19.84489">
        <ele>846.09997558594</ele>
        <time>2024-09-23T08:48:16.000Z</time>
      </trkpt>
      <trkpt lat="42.68513" lon="19.84532">
        <ele>846.58001708984</ele>
        <time>2024-09-23T08:48:18.000Z</time>
      </trkpt>
      <trkpt lat="42.68493" lon="19.84665">
        <ele>846.09997558594</ele>
        <time>2024-09-23T08:48:23.000Z</time>
      </trkpt>
      <trkpt lat="42.68491" lon="19.84675">
        <ele>846.09997558594</ele>
        <time>2024-09-23T08:48:24.000Z</time>
      </trkpt>
      <trkpt lat="42.68449" lon="19.84811">
        <ele>845.61999511719</ele>
        <time>2024-09-23T08:48:29.000Z</time>
      </trkpt>
      <trkpt lat="42.68439" lon="19.84832">
        <ele>845.61999511719</ele>
        <time>2024-09-23T08:48:30.000Z</time>
      </trkpt>
      <trkpt lat="42.68346" lon="19.84974">
        <ele>845.14001464844</ele>
        <time>2024-09-23T08:48:36.000Z</time>
      </trkpt>
      <trkpt lat="42.68183" lon="19.85153">
        <ele>844.65997314453</ele>
        <time>2024-09-23T08:48:46.000Z</time>
      </trkpt>
      <trkpt lat="42.68072" lon="19.85343">
        <ele>846.58001708984</ele>
        <time>2024-09-23T08:48:55.000Z</time>
      </trkpt>
      <trkpt lat="42.67956" lon="19.85559">
        <ele>849.46002197266</ele>
        <time>2024-09-23T08:49:04.000Z</time>
      </trkpt>
      <trkpt lat="42.67824" lon="19.85704">
        <ele>855.22998046875</ele>
        <time>2024-09-23T08:49:12.000Z</time>
      </trkpt>
      <trkpt lat="42.67799" lon="19.85733">
        <ele>856.66998291016</ele>
        <time>2024-09-23T08:49:13.000Z</time>
      </trkpt>
      <trkpt lat="42.67709" lon="19.85883">
        <ele>862.44000244141</ele>
        <time>2024-09-23T08:49:20.000Z</time>
      </trkpt>
      <trkpt lat="42.67677" lon="19.85946">
        <ele>864.84002685547</ele>
        <time>2024-09-23T08:49:22.000Z</time>
      </trkpt>
      <trkpt lat="42.67668" lon="19.85959">
        <ele>865.32000732422</ele>
        <time>2024-09-23T08:49:23.000Z</time>
      </trkpt>
      <trkpt lat="42.67655" lon="19.85978">
        <ele>865.79998779297</ele>
        <time>2024-09-23T08:49:24.000Z</time>
      </trkpt>
      <trkpt lat="42.67641" lon="19.85995">
        <ele>866.77001953125</ele>
        <time>2024-09-23T08:49:25.000Z</time>
      </trkpt>
      <trkpt lat="42.67496" lon="19.86112">
        <ele>870.13000488281</ele>
        <time>2024-09-23T08:49:32.000Z</time>
      </trkpt>
      <trkpt lat="42.6744" lon="19.86171">
        <ele>870.13000488281</ele>
        <time>2024-09-23T08:49:35.000Z</time>
      </trkpt>
      <trkpt lat="42.67342" lon="19.86302">
        <ele>869.16998291016</ele>
        <time>2024-09-23T08:49:42.000Z</time>
      </trkpt>
      <trkpt lat="42.67212" lon="19.86433">
        <ele>869.16998291016</ele>
        <time>2024-09-23T08:49:49.000Z</time>
      </trkpt>
      <trkpt lat="42.67113" lon="19.86586">
        <ele>868.69000244141</ele>
        <time>2024-09-23T08:49:56.000Z</time>
      </trkpt>
      <trkpt lat="42.67082" lon="19.86646">
        <ele>868.21002197266</ele>
        <time>2024-09-23T08:49:59.000Z</time>
      </trkpt>
      <trkpt lat="42.67063" lon="19.86676">
        <ele>867.72998046875</ele>
        <time>2024-09-23T08:50:00.000Z</time>
      </trkpt>
      <trkpt lat="42.66972" lon="19.86798">
        <ele>866.28997802734</ele>
        <time>2024-09-23T08:50:08.000Z</time>
      </trkpt>
      <trkpt lat="42.66966" lon="19.86805">
        <ele>866.28997802734</ele>
        <time>2024-09-23T08:50:09.000Z</time>
      </trkpt>
      <trkpt lat="42.66928" lon="19.86849">
        <ele>865.79998779297</ele>
        <time>2024-09-23T08:50:12.000Z</time>
      </trkpt>
      <trkpt lat="42.6687" lon="19.86912">
        <ele>863.88000488281</ele>
        <time>2024-09-23T08:50:17.000Z</time>
      </trkpt>
      <trkpt lat="42.66768" lon="19.87">
        <ele>861</ele>
        <time>2024-09-23T08:50:24.000Z</time>
      </trkpt>
      <trkpt lat="42.66719" lon="19.87054">
        <ele>859.55999755859</ele>
        <time>2024-09-23T08:50:28.000Z</time>
      </trkpt>
      <trkpt lat="42.66701" lon="19.87079">
        <ele>858.59002685547</ele>
        <time>2024-09-23T08:50:29.000Z</time>
      </trkpt>
      <trkpt lat="42.66679" lon="19.87114">
        <ele>858.10998535156</ele>
        <time>2024-09-23T08:50:31.000Z</time>
      </trkpt>
      <trkpt lat="42.66666" lon="19.87138">
        <ele>858.10998535156</ele>
        <time>2024-09-23T08:50:32.000Z</time>
      </trkpt>
      <trkpt lat="42.66629" lon="19.87233">
        <ele>856.66998291016</ele>
        <time>2024-09-23T08:50:36.000Z</time>
      </trkpt>
      <trkpt lat="42.66599" lon="19.8735">
        <ele>855.71002197266</ele>
        <time>2024-09-23T08:50:40.000Z</time>
      </trkpt>
      <trkpt lat="42.66592" lon="19.8737">
        <ele>855.22998046875</ele>
        <time>2024-09-23T08:50:41.000Z</time>
      </trkpt>
      <trkpt lat="42.66582" lon="19.87395">
        <ele>854.75</ele>
        <time>2024-09-23T08:50:42.000Z</time>
      </trkpt>
      <trkpt lat="42.6647" lon="19.87596">
        <ele>851.38000488281</ele>
        <time>2024-09-23T08:50:50.000Z</time>
      </trkpt>
      <trkpt lat="42.66365" lon="19.87766">
        <ele>847.53997802734</ele>
        <time>2024-09-23T08:50:58.000Z</time>
      </trkpt>
      <trkpt lat="42.66355" lon="19.87783">
        <ele>847.05999755859</ele>
        <time>2024-09-23T08:50:59.000Z</time>
      </trkpt>
      <trkpt lat="42.66344" lon="19.87806">
        <ele>846.58001708984</ele>
        <time>2024-09-23T08:51:00.000Z</time>
      </trkpt>
      <trkpt lat="42.66336" lon="19.87831">
        <ele>846.58001708984</ele>
        <time>2024-09-23T08:51:01.000Z</time>
      </trkpt>
      <trkpt lat="42.66328" lon="19.8787">
        <ele>846.09997558594</ele>
        <time>2024-09-23T08:51:02.000Z</time>
      </trkpt>
      <trkpt lat="42.66326" lon="19.87883">
        <ele>845.61999511719</ele>
        <time>2024-09-23T08:51:03.000Z</time>
      </trkpt>
      <trkpt lat="42.66324" lon="19.8791">
        <ele>845.14001464844</ele>
        <time>2024-09-23T08:51:04.000Z</time>
      </trkpt>
      <trkpt lat="42.66325" lon="19.88003">
        <ele>843.21002197266</ele>
        <time>2024-09-23T08:51:07.000Z</time>
      </trkpt>
      <trkpt lat="42.66322" lon="19.88052">
        <ele>842.25</ele>
        <time>2024-09-23T08:51:09.000Z</time>
      </trkpt>
      <trkpt lat="42.66311" lon="19.88146">
        <ele>840.80999755859</ele>
        <time>2024-09-23T08:51:12.000Z</time>
      </trkpt>
      <trkpt lat="42.66286" lon="19.88281">
        <ele>840.33001708984</ele>
        <time>2024-09-23T08:51:18.000Z</time>
      </trkpt>
      <trkpt lat="42.66278" lon="19.88301">
        <ele>840.33001708984</ele>
        <time>2024-09-23T08:51:19.000Z</time>
      </trkpt>
      <trkpt lat="42.66268" lon="19.88319">
        <ele>839.84997558594</ele>
        <time>2024-09-23T08:51:20.000Z</time>
      </trkpt>
      <trkpt lat="42.6625" lon="19.88344">
        <ele>839.36999511719</ele>
        <time>2024-09-23T08:51:21.000Z</time>
      </trkpt>
      <trkpt lat="42.66246" lon="19.88351">
        <ele>839.36999511719</ele>
        <time>2024-09-23T08:51:22.000Z</time>
      </trkpt>
      <trkpt lat="42.66238" lon="19.88368">
        <ele>838.89001464844</ele>
        <time>2024-09-23T08:51:23.000Z</time>
      </trkpt>
      <trkpt lat="42.66232" lon="19.88386">
        <ele>838.89001464844</ele>
        <time>2024-09-23T08:51:24.000Z</time>
      </trkpt>
      <trkpt lat="42.66225" lon="19.88417">
        <ele>838.40997314453</ele>
        <time>2024-09-23T08:51:25.000Z</time>
      </trkpt>
      <trkpt lat="42.66224" lon="19.8842">
        <ele>838.40997314453</ele>
        <time>2024-09-23T08:51:26.000Z</time>
      </trkpt>
      <trkpt lat="42.66219" lon="19.88438">
        <ele>838.40997314453</ele>
        <time>2024-09-23T08:51:27.000Z</time>
      </trkpt>
      <trkpt lat="42.66212" lon="19.88455">
        <ele>837.92999267578</ele>
        <time>2024-09-23T08:51:28.000Z</time>
      </trkpt>
      <trkpt lat="42.66203" lon="19.88471">
        <ele>838.40997314453</ele>
        <time>2024-09-23T08:51:29.000Z</time>
      </trkpt>
      <trkpt lat="42.66192" lon="19.88485">
        <ele>838.40997314453</ele>
        <time>2024-09-23T08:51:30.000Z</time>
      </trkpt>
      <trkpt lat="42.66185" lon="19.88494">
        <ele>838.89001464844</ele>
        <time>2024-09-23T08:51:31.000Z</time>
      </trkpt>
      <trkpt lat="42.66181" lon="19.88502">
        <ele>838.89001464844</ele>
        <time>2024-09-23T08:51:32.000Z</time>
      </trkpt>
      <trkpt lat="42.66178" lon="19.88513">
        <ele>838.89001464844</ele>
        <time>2024-09-23T08:51:33.000Z</time>
      </trkpt>
      <trkpt lat="42.66178" lon="19.88523">
        <ele>839.36999511719</ele>
        <time>2024-09-23T08:51:34.000Z</time>
      </trkpt>
      <trkpt lat="42.6618" lon="19.88532">
        <ele>839.36999511719</ele>
        <time>2024-09-23T08:51:35.000Z</time>
      </trkpt>
      <trkpt lat="42.66183" lon="19.8854">
        <ele>839.36999511719</ele>
        <time>2024-09-23T08:51:36.000Z</time>
      </trkpt>
      <trkpt lat="42.66185" lon="19.88547">
        <ele>838.89001464844</ele>
        <time>2024-09-23T08:51:37.000Z</time>
      </trkpt>
      <trkpt lat="42.66186" lon="19.88555">
        <ele>838.89001464844</ele>
        <time>2024-09-23T08:51:38.000Z</time>
      </trkpt>
      <trkpt lat="42.66185" lon="19.88562">
        <ele>838.89001464844</ele>
        <time>2024-09-23T08:51:39.000Z</time>
      </trkpt>
      <trkpt lat="42.66185" lon="19.88572">
        <ele>838.89001464844</ele>
        <time>2024-09-23T08:51:40.000Z</time>
      </trkpt>
      <trkpt lat="42.66184" lon="19.88581">
        <ele>838.89001464844</ele>
        <time>2024-09-23T08:51:41.000Z</time>
      </trkpt>
      <trkpt lat="42.66183" lon="19.88586">
        <ele>838.89001464844</ele>
        <time>2024-09-23T08:51:42.000Z</time>
      </trkpt>
      <trkpt lat="42.66182" lon="19.88592">
        <ele>838.89001464844</ele>
        <time>2024-09-23T08:51:43.000Z</time>
      </trkpt>
      <trkpt lat="42.66179" lon="19.88602">
        <ele>838.89001464844</ele>
        <time>2024-09-23T08:51:44.000Z</time>
      </trkpt>
      <trkpt lat="42.66175" lon="19.88612">
        <ele>838.89001464844</ele>
        <time>2024-09-23T08:51:45.000Z</time>
      </trkpt>
      <trkpt lat="42.66153" lon="19.88647">
        <ele>840.80999755859</ele>
        <time>2024-09-23T08:51:48.000Z</time>
      </trkpt>
      <trkpt lat="42.66122" lon="19.88698">
        <ele>843.69000244141</ele>
        <time>2024-09-23T08:51:53.000Z</time>
      </trkpt>
      <trkpt lat="42.66113" lon="19.88713">
        <ele>844.17999267578</ele>
        <time>2024-09-23T08:51:54.000Z</time>
      </trkpt>
      <trkpt lat="42.66107" lon="19.88722">
        <ele>844.65997314453</ele>
        <time>2024-09-23T08:51:55.000Z</time>
      </trkpt>
      <trkpt lat="42.66095" lon="19.88739">
        <ele>845.61999511719</ele>
        <time>2024-09-23T08:51:57.000Z</time>
      </trkpt>
      <trkpt lat="42.66081" lon="19.88759">
        <ele>847.05999755859</ele>
        <time>2024-09-23T08:51:58.000Z</time>
      </trkpt>
      <trkpt lat="42.66078" lon="19.88762">
        <ele>847.05999755859</ele>
        <time>2024-09-23T08:51:59.000Z</time>
      </trkpt>
      <trkpt lat="42.66012" lon="19.88851">
        <ele>850.90002441406</ele>
        <time>2024-09-23T08:52:04.000Z</time>
      </trkpt>
      <trkpt lat="42.66005" lon="19.88861">
        <ele>851.38000488281</ele>
        <time>2024-09-23T08:52:05.000Z</time>
      </trkpt>
      <trkpt lat="42.65993" lon="19.88881">
        <ele>852.83001708984</ele>
        <time>2024-09-23T08:52:06.000Z</time>
      </trkpt>
      <trkpt lat="42.65982" lon="19.88903">
        <ele>853.78997802734</ele>
        <time>2024-09-23T08:52:07.000Z</time>
      </trkpt>
      <trkpt lat="42.6594" lon="19.89008">
        <ele>860.03997802734</ele>
        <time>2024-09-23T08:52:12.000Z</time>
      </trkpt>
      <trkpt lat="42.6593" lon="19.89027">
        <ele>861</ele>
        <time>2024-09-23T08:52:13.000Z</time>
      </trkpt>
      <trkpt lat="42.65919" lon="19.89047">
        <ele>861.96002197266</ele>
        <time>2024-09-23T08:52:14.000Z</time>
      </trkpt>
      <trkpt lat="42.65899" lon="19.89076">
        <ele>863.88000488281</ele>
        <time>2024-09-23T08:52:16.000Z</time>
      </trkpt>
      <trkpt lat="42.65887" lon="19.89094">
        <ele>865.79998779297</ele>
        <time>2024-09-23T08:52:17.000Z</time>
      </trkpt>
      <trkpt lat="42.6588" lon="19.89106">
        <ele>866.28997802734</ele>
        <time>2024-09-23T08:52:18.000Z</time>
      </trkpt>
      <trkpt lat="42.65872" lon="19.89125">
        <ele>867.72998046875</ele>
        <time>2024-09-23T08:52:19.000Z</time>
      </trkpt>
      <trkpt lat="42.65866" lon="19.89144">
        <ele>868.21002197266</ele>
        <time>2024-09-23T08:52:20.000Z</time>
      </trkpt>
      <trkpt lat="42.65862" lon="19.8916">
        <ele>869.16998291016</ele>
        <time>2024-09-23T08:52:21.000Z</time>
      </trkpt>
      <trkpt lat="42.6586" lon="19.89184">
        <ele>870.60998535156</ele>
        <time>2024-09-23T08:52:22.000Z</time>
      </trkpt>
      <trkpt lat="42.6586" lon="19.89204">
        <ele>871.57000732422</ele>
        <time>2024-09-23T08:52:23.000Z</time>
      </trkpt>
      <trkpt lat="42.65861" lon="19.89228">
        <ele>872.53002929688</ele>
        <time>2024-09-23T08:52:24.000Z</time>
      </trkpt>
      <trkpt lat="42.65865" lon="19.89247">
        <ele>873.5</ele>
        <time>2024-09-23T08:52:25.000Z</time>
      </trkpt>
      <trkpt lat="42.65871" lon="19.89269">
        <ele>874.94000244141</ele>
        <time>2024-09-23T08:52:26.000Z</time>
      </trkpt>
      <trkpt lat="42.65877" lon="19.89286">
        <ele>875.90002441406</ele>
        <time>2024-09-23T08:52:27.000Z</time>
      </trkpt>
      <trkpt lat="42.65905" lon="19.89341">
        <ele>877.82000732422</ele>
        <time>2024-09-23T08:52:30.000Z</time>
      </trkpt>
      <trkpt lat="42.6591" lon="19.89353">
        <ele>877.82000732422</ele>
        <time>2024-09-23T08:52:31.000Z</time>
      </trkpt>
      <trkpt lat="42.65915" lon="19.89371">
        <ele>878.29998779297</ele>
        <time>2024-09-23T08:52:32.000Z</time>
      </trkpt>
      <trkpt lat="42.65918" lon="19.89393">
        <ele>878.78002929688</ele>
        <time>2024-09-23T08:52:33.000Z</time>
      </trkpt>
      <trkpt lat="42.65924" lon="19.89588">
        <ele>879.73999023438</ele>
        <time>2024-09-23T08:52:41.000Z</time>
      </trkpt>
      <trkpt lat="42.65923" lon="19.89621">
        <ele>880.21997070312</ele>
        <time>2024-09-23T08:52:42.000Z</time>
      </trkpt>
      <trkpt lat="42.65923" lon="19.89628">
        <ele>880.21997070312</ele>
        <time>2024-09-23T08:52:43.000Z</time>
      </trkpt>
      <trkpt lat="42.65921" lon="19.8965">
        <ele>880.21997070312</ele>
        <time>2024-09-23T08:52:44.000Z</time>
      </trkpt>
      <trkpt lat="42.65917" lon="19.89673">
        <ele>880.21997070312</ele>
        <time>2024-09-23T08:52:45.000Z</time>
      </trkpt>
      <trkpt lat="42.65911" lon="19.89696">
        <ele>880.71002197266</ele>
        <time>2024-09-23T08:52:46.000Z</time>
      </trkpt>
      <trkpt lat="42.65865" lon="19.89823">
        <ele>884.54998779297</ele>
        <time>2024-09-23T08:52:52.000Z</time>
      </trkpt>
      <trkpt lat="42.65857" lon="19.89842">
        <ele>885.51000976562</ele>
        <time>2024-09-23T08:52:53.000Z</time>
      </trkpt>
      <trkpt lat="42.65847" lon="19.8986">
        <ele>885.98999023438</ele>
        <time>2024-09-23T08:52:54.000Z</time>
      </trkpt>
      <trkpt lat="42.65835" lon="19.89876">
        <ele>886.46997070312</ele>
        <time>2024-09-23T08:52:55.000Z</time>
      </trkpt>
      <trkpt lat="42.65792" lon="19.89924">
        <ele>888.40002441406</ele>
        <time>2024-09-23T08:52:58.000Z</time>
      </trkpt>
      <trkpt lat="42.65783" lon="19.89936">
        <ele>888.88000488281</ele>
        <time>2024-09-23T08:52:59.000Z</time>
      </trkpt>
      <trkpt lat="42.65774" lon="19.89953">
        <ele>889.35998535156</ele>
        <time>2024-09-23T08:53:00.000Z</time>
      </trkpt>
      <trkpt lat="42.65766" lon="19.89972">
        <ele>889.84002685547</ele>
        <time>2024-09-23T08:53:01.000Z</time>
      </trkpt>
      <trkpt lat="42.6576" lon="19.8999">
        <ele>889.84002685547</ele>
        <time>2024-09-23T08:53:02.000Z</time>
      </trkpt>
      <trkpt lat="42.65689" lon="19.90216">
        <ele>889.84002685547</ele>
        <time>2024-09-23T08:53:13.000Z</time>
      </trkpt>
      <trkpt lat="42.6561" lon="19.904">
        <ele>889.35998535156</ele>
        <time>2024-09-23T08:53:22.000Z</time>
      </trkpt>
      <trkpt lat="42.65566" lon="19.90531">
        <ele>888.88000488281</ele>
        <time>2024-09-23T08:53:28.000Z</time>
      </trkpt>
      <trkpt lat="42.6556" lon="19.90555">
        <ele>888.88000488281</ele>
        <time>2024-09-23T08:53:29.000Z</time>
      </trkpt>
      <trkpt lat="42.65558" lon="19.90566">
        <ele>888.88000488281</ele>
        <time>2024-09-23T08:53:30.000Z</time>
      </trkpt>
      <trkpt lat="42.65556" lon="19.90584">
        <ele>888.88000488281</ele>
        <time>2024-09-23T08:53:31.000Z</time>
      </trkpt>
      <trkpt lat="42.65555" lon="19.90608">
        <ele>888.88000488281</ele>
        <time>2024-09-23T08:53:32.000Z</time>
      </trkpt>
      <trkpt lat="42.65557" lon="19.90641">
        <ele>888.88000488281</ele>
        <time>2024-09-23T08:53:33.000Z</time>
      </trkpt>
      <trkpt lat="42.65572" lon="19.90771">
        <ele>888.88000488281</ele>
        <time>2024-09-23T08:53:39.000Z</time>
      </trkpt>
      <trkpt lat="42.65573" lon="19.90779">
        <ele>889.35998535156</ele>
        <time>2024-09-23T08:53:40.000Z</time>
      </trkpt>
      <trkpt lat="42.65573" lon="19.90794">
        <ele>889.35998535156</ele>
        <time>2024-09-23T08:53:41.000Z</time>
      </trkpt>
      <trkpt lat="42.65571" lon="19.9082">
        <ele>889.84002685547</ele>
        <time>2024-09-23T08:53:42.000Z</time>
      </trkpt>
      <trkpt lat="42.65553" lon="19.90971">
        <ele>889.84002685547</ele>
        <time>2024-09-23T08:53:49.000Z</time>
      </trkpt>
      <trkpt lat="42.65545" lon="19.91093">
        <ele>888.88000488281</ele>
        <time>2024-09-23T08:53:55.000Z</time>
      </trkpt>
      <trkpt lat="42.65542" lon="19.91109">
        <ele>888.40002441406</ele>
        <time>2024-09-23T08:53:56.000Z</time>
      </trkpt>
      <trkpt lat="42.65537" lon="19.91134">
        <ele>887.90997314453</ele>
        <time>2024-09-23T08:53:57.000Z</time>
      </trkpt>
      <trkpt lat="42.65511" lon="19.91235">
        <ele>887.90997314453</ele>
        <time>2024-09-23T08:54:02.000Z</time>
      </trkpt>
      <trkpt lat="42.65509" lon="19.91248">
        <ele>887.90997314453</ele>
        <time>2024-09-23T08:54:03.000Z</time>
      </trkpt>
      <trkpt lat="42.65494" lon="19.9145">
        <ele>891.28002929688</ele>
        <time>2024-09-23T08:54:12.000Z</time>
      </trkpt>
      <trkpt lat="42.6549" lon="19.91516">
        <ele>891.76000976562</ele>
        <time>2024-09-23T08:54:14.000Z</time>
      </trkpt>
      <trkpt lat="42.6549" lon="19.9152">
        <ele>891.76000976562</ele>
        <time>2024-09-23T08:54:15.000Z</time>
      </trkpt>
      <trkpt lat="42.65493" lon="19.91567">
        <ele>891.28002929688</ele>
        <time>2024-09-23T08:54:17.000Z</time>
      </trkpt>
      <trkpt lat="42.65497" lon="19.91644">
        <ele>890.32000732422</ele>
        <time>2024-09-23T08:54:21.000Z</time>
      </trkpt>
      <trkpt lat="42.65497" lon="19.91663">
        <ele>890.32000732422</ele>
        <time>2024-09-23T08:54:22.000Z</time>
      </trkpt>
      <trkpt lat="42.65495" lon="19.91687">
        <ele>889.84002685547</ele>
        <time>2024-09-23T08:54:23.000Z</time>
      </trkpt>
      <trkpt lat="42.65492" lon="19.91707">
        <ele>889.84002685547</ele>
        <time>2024-09-23T08:54:24.000Z</time>
      </trkpt>
      <trkpt lat="42.65484" lon="19.91742">
        <ele>889.84002685547</ele>
        <time>2024-09-23T08:54:26.000Z</time>
      </trkpt>
      <trkpt lat="42.65477" lon="19.91763">
        <ele>889.84002685547</ele>
        <time>2024-09-23T08:54:27.000Z</time>
      </trkpt>
      <trkpt lat="42.65469" lon="19.91782">
        <ele>890.32000732422</ele>
        <time>2024-09-23T08:54:28.000Z</time>
      </trkpt>
      <trkpt lat="42.65462" lon="19.91795">
        <ele>890.32000732422</ele>
        <time>2024-09-23T08:54:29.000Z</time>
      </trkpt>
      <trkpt lat="42.65451" lon="19.91813">
        <ele>890.79998779297</ele>
        <time>2024-09-23T08:54:30.000Z</time>
      </trkpt>
      <trkpt lat="42.65439" lon="19.9183">
        <ele>891.28002929688</ele>
        <time>2024-09-23T08:54:31.000Z</time>
      </trkpt>
      <trkpt lat="42.65431" lon="19.91839">
        <ele>890.79998779297</ele>
        <time>2024-09-23T08:54:32.000Z</time>
      </trkpt>
      <trkpt lat="42.65406" lon="19.91865">
        <ele>890.32000732422</ele>
        <time>2024-09-23T08:54:34.000Z</time>
      </trkpt>
      <trkpt lat="42.65353" lon="19.9192">
        <ele>891.76000976562</ele>
        <time>2024-09-23T08:54:38.000Z</time>
      </trkpt>
      <trkpt lat="42.65343" lon="19.91933">
        <ele>891.76000976562</ele>
        <time>2024-09-23T08:54:39.000Z</time>
      </trkpt>
      <trkpt lat="42.65329" lon="19.9195">
        <ele>892.23999023438</ele>
        <time>2024-09-23T08:54:40.000Z</time>
      </trkpt>
      <trkpt lat="42.65271" lon="19.92024">
        <ele>895.11999511719</ele>
        <time>2024-09-23T08:54:44.000Z</time>
      </trkpt>
      <trkpt lat="42.6514" lon="19.92165">
        <ele>903.78002929688</ele>
        <time>2024-09-23T08:54:53.000Z</time>
      </trkpt>
      <trkpt lat="42.65109" lon="19.92198">
        <ele>906.17999267578</ele>
        <time>2024-09-23T08:54:56.000Z</time>
      </trkpt>
      <trkpt lat="42.65101" lon="19.92206">
        <ele>906.65997314453</ele>
        <time>2024-09-23T08:54:57.000Z</time>
      </trkpt>
      <trkpt lat="42.65089" lon="19.92215">
        <ele>907.14001464844</ele>
        <time>2024-09-23T08:54:58.000Z</time>
      </trkpt>
      <trkpt lat="42.65073" lon="19.92227">
        <ele>907.61999511719</ele>
        <time>2024-09-23T08:54:59.000Z</time>
      </trkpt>
      <trkpt lat="42.65056" lon="19.92237">
        <ele>907.61999511719</ele>
        <time>2024-09-23T08:55:00.000Z</time>
      </trkpt>
      <trkpt lat="42.65007" lon="19.92265">
        <ele>907.61999511719</ele>
        <time>2024-09-23T08:55:04.000Z</time>
      </trkpt>
      <trkpt lat="42.64994" lon="19.92275">
        <ele>907.14001464844</ele>
        <time>2024-09-23T08:55:05.000Z</time>
      </trkpt>
      <trkpt lat="42.64981" lon="19.92287">
        <ele>906.65997314453</ele>
        <time>2024-09-23T08:55:06.000Z</time>
      </trkpt>
      <trkpt lat="42.64967" lon="19.92303">
        <ele>906.17999267578</ele>
        <time>2024-09-23T08:55:07.000Z</time>
      </trkpt>
      <trkpt lat="42.64958" lon="19.92317">
        <ele>905.70001220703</ele>
        <time>2024-09-23T08:55:08.000Z</time>
      </trkpt>
      <trkpt lat="42.64917" lon="19.92382">
        <ele>903.78002929688</ele>
        <time>2024-09-23T08:55:11.000Z</time>
      </trkpt>
      <trkpt lat="42.6489" lon="19.92417">
        <ele>903.29998779297</ele>
        <time>2024-09-23T08:55:13.000Z</time>
      </trkpt>
      <trkpt lat="42.64885" lon="19.92422">
        <ele>903.29998779297</ele>
        <time>2024-09-23T08:55:14.000Z</time>
      </trkpt>
      <trkpt lat="42.64867" lon="19.92439">
        <ele>903.29998779297</ele>
        <time>2024-09-23T08:55:15.000Z</time>
      </trkpt>
      <trkpt lat="42.64709" lon="19.92582">
        <ele>910.98999023438</ele>
        <time>2024-09-23T08:55:23.000Z</time>
      </trkpt>
      <trkpt lat="42.64622" lon="19.92661">
        <ele>912.42999267578</ele>
        <time>2024-09-23T08:55:27.000Z</time>
      </trkpt>
      <trkpt lat="42.64618" lon="19.92664">
        <ele>912.42999267578</ele>
        <time>2024-09-23T08:55:28.000Z</time>
      </trkpt>
      <trkpt lat="42.64599" lon="19.92676">
        <ele>911.95001220703</ele>
        <time>2024-09-23T08:55:29.000Z</time>
      </trkpt>
      <trkpt lat="42.64578" lon="19.92683">
        <ele>911.95001220703</ele>
        <time>2024-09-23T08:55:30.000Z</time>
      </trkpt>
      <trkpt lat="42.64556" lon="19.92688">
        <ele>911.95001220703</ele>
        <time>2024-09-23T08:55:31.000Z</time>
      </trkpt>
      <trkpt lat="42.64511" lon="19.92694">
        <ele>911.95001220703</ele>
        <time>2024-09-23T08:55:33.000Z</time>
      </trkpt>
      <trkpt lat="42.64497" lon="19.92697">
        <ele>911.46997070312</ele>
        <time>2024-09-23T08:55:34.000Z</time>
      </trkpt>
      <trkpt lat="42.64479" lon="19.92704">
        <ele>911.46997070312</ele>
        <time>2024-09-23T08:55:35.000Z</time>
      </trkpt>
      <trkpt lat="42.64462" lon="19.92715">
        <ele>911.46997070312</ele>
        <time>2024-09-23T08:55:36.000Z</time>
      </trkpt>
      <trkpt lat="42.64447" lon="19.9273">
        <ele>910.98999023438</ele>
        <time>2024-09-23T08:55:37.000Z</time>
      </trkpt>
      <trkpt lat="42.64343" lon="19.92887">
        <ele>910.03002929688</ele>
        <time>2024-09-23T08:55:45.000Z</time>
      </trkpt>
      <trkpt lat="42.64244" lon="19.93036">
        <ele>908.58001708984</ele>
        <time>2024-09-23T08:55:54.000Z</time>
      </trkpt>
      <trkpt lat="42.64197" lon="19.93086">
        <ele>909.05999755859</ele>
        <time>2024-09-23T08:55:57.000Z</time>
      </trkpt>
      <trkpt lat="42.64073" lon="19.93157">
        <ele>910.51000976562</ele>
        <time>2024-09-23T08:56:03.000Z</time>
      </trkpt>
      <trkpt lat="42.63895" lon="19.93229">
        <ele>912.90997314453</ele>
        <time>2024-09-23T08:56:13.000Z</time>
      </trkpt>
      <trkpt lat="42.63775" lon="19.93256">
        <ele>914.34997558594</ele>
        <time>2024-09-23T08:56:19.000Z</time>
      </trkpt>
      <trkpt lat="42.63594" lon="19.93244">
        <ele>917.23999023438</ele>
        <time>2024-09-23T08:56:28.000Z</time>
      </trkpt>
      <trkpt lat="42.63466" lon="19.93236">
        <ele>919.64001464844</ele>
        <time>2024-09-23T08:56:34.000Z</time>
      </trkpt>
      <trkpt lat="42.63203" lon="19.93266">
        <ele>923.47998046875</ele>
        <time>2024-09-23T08:56:46.000Z</time>
      </trkpt>
      <trkpt lat="42.62936" lon="19.93295">
        <ele>924.45001220703</ele>
        <time>2024-09-23T08:56:59.000Z</time>
      </trkpt>
      <trkpt lat="42.62919" lon="19.93296">
        <ele>924.45001220703</ele>
        <time>2024-09-23T08:57:00.000Z</time>
      </trkpt>
      <trkpt lat="42.62905" lon="19.93296">
        <ele>923.96002197266</ele>
        <time>2024-09-23T08:57:01.000Z</time>
      </trkpt>
      <trkpt lat="42.62886" lon="19.93293">
        <ele>923.96002197266</ele>
        <time>2024-09-23T08:57:02.000Z</time>
      </trkpt>
      <trkpt lat="42.62855" lon="19.93285">
        <ele>923.96002197266</ele>
        <time>2024-09-23T08:57:03.000Z</time>
      </trkpt>
      <trkpt lat="42.62842" lon="19.9328">
        <ele>923.47998046875</ele>
        <time>2024-09-23T08:57:04.000Z</time>
      </trkpt>
      <trkpt lat="42.62794" lon="19.9326">
        <ele>923.47998046875</ele>
        <time>2024-09-23T08:57:06.000Z</time>
      </trkpt>
      <trkpt lat="42.62686" lon="19.93213">
        <ele>924.45001220703</ele>
        <time>2024-09-23T08:57:12.000Z</time>
      </trkpt>
      <trkpt lat="42.62677" lon="19.93207">
        <ele>924.92999267578</ele>
        <time>2024-09-23T08:57:13.000Z</time>
      </trkpt>
      <trkpt lat="42.62663" lon="19.93198">
        <ele>924.92999267578</ele>
        <time>2024-09-23T08:57:14.000Z</time>
      </trkpt>
      <trkpt lat="42.62648" lon="19.93184">
        <ele>925.89001464844</ele>
        <time>2024-09-23T08:57:15.000Z</time>
      </trkpt>
      <trkpt lat="42.62637" lon="19.93168">
        <ele>926.36999511719</ele>
        <time>2024-09-23T08:57:16.000Z</time>
      </trkpt>
      <trkpt lat="42.62628" lon="19.9315">
        <ele>926.84997558594</ele>
        <time>2024-09-23T08:57:17.000Z</time>
      </trkpt>
      <trkpt lat="42.62586" lon="19.9303">
        <ele>930.69000244141</ele>
        <time>2024-09-23T08:57:23.000Z</time>
      </trkpt>
      <trkpt lat="42.62581" lon="19.9302">
        <ele>931.16998291016</ele>
        <time>2024-09-23T08:57:24.000Z</time>
      </trkpt>
      <trkpt lat="42.62573" lon="19.93003">
        <ele>931.65002441406</ele>
        <time>2024-09-23T08:57:25.000Z</time>
      </trkpt>
      <trkpt lat="42.62561" lon="19.92988">
        <ele>931.65002441406</ele>
        <time>2024-09-23T08:57:26.000Z</time>
      </trkpt>
      <trkpt lat="42.62548" lon="19.92975">
        <ele>932.14001464844</ele>
        <time>2024-09-23T08:57:27.000Z</time>
      </trkpt>
      <trkpt lat="42.62533" lon="19.92966">
        <ele>932.61999511719</ele>
        <time>2024-09-23T08:57:28.000Z</time>
      </trkpt>
      <trkpt lat="42.62517" lon="19.92961">
        <ele>932.61999511719</ele>
        <time>2024-09-23T08:57:29.000Z</time>
      </trkpt>
      <trkpt lat="42.62495" lon="19.92958">
        <ele>932.61999511719</ele>
        <time>2024-09-23T08:57:30.000Z</time>
      </trkpt>
      <trkpt lat="42.62346" lon="19.92948">
        <ele>931.65002441406</ele>
        <time>2024-09-23T08:57:39.000Z</time>
      </trkpt>
      <trkpt lat="42.62308" lon="19.92945">
        <ele>930.21002197266</ele>
        <time>2024-09-23T08:57:41.000Z</time>
      </trkpt>
      <trkpt lat="42.62299" lon="19.92943">
        <ele>929.72998046875</ele>
        <time>2024-09-23T08:57:42.000Z</time>
      </trkpt>
      <trkpt lat="42.62284" lon="19.92936">
        <ele>929.25</ele>
        <time>2024-09-23T08:57:43.000Z</time>
      </trkpt>
      <trkpt lat="42.6227" lon="19.92927">
        <ele>928.28997802734</ele>
        <time>2024-09-23T08:57:44.000Z</time>
      </trkpt>
      <trkpt lat="42.62257" lon="19.92915">
        <ele>927.33001708984</ele>
        <time>2024-09-23T08:57:45.000Z</time>
      </trkpt>
      <trkpt lat="42.62244" lon="19.929">
        <ele>926.36999511719</ele>
        <time>2024-09-23T08:57:46.000Z</time>
      </trkpt>
      <trkpt lat="42.62211" lon="19.92855">
        <ele>923.47998046875</ele>
        <time>2024-09-23T08:57:49.000Z</time>
      </trkpt>
      <trkpt lat="42.62201" lon="19.92843">
        <ele>923</ele>
        <time>2024-09-23T08:57:50.000Z</time>
      </trkpt>
      <trkpt lat="42.62188" lon="19.9283">
        <ele>922.03997802734</ele>
        <time>2024-09-23T08:57:51.000Z</time>
      </trkpt>
      <trkpt lat="42.62176" lon="19.92819">
        <ele>921.55999755859</ele>
        <time>2024-09-23T08:57:52.000Z</time>
      </trkpt>
      <trkpt lat="42.62159" lon="19.92809">
        <ele>921.08001708984</ele>
        <time>2024-09-23T08:57:53.000Z</time>
      </trkpt>
      <trkpt lat="42.62144" lon="19.92802">
        <ele>920.11999511719</ele>
        <time>2024-09-23T08:57:54.000Z</time>
      </trkpt>
      <trkpt lat="42.62127" lon="19.92798">
        <ele>919.64001464844</ele>
        <time>2024-09-23T08:57:55.000Z</time>
      </trkpt>
      <trkpt lat="42.6211" lon="19.92796">
        <ele>919.15997314453</ele>
        <time>2024-09-23T08:57:56.000Z</time>
      </trkpt>
      <trkpt lat="42.62091" lon="19.92797">
        <ele>918.67999267578</ele>
        <time>2024-09-23T08:57:57.000Z</time>
      </trkpt>
      <trkpt lat="42.61985" lon="19.92818">
        <ele>914.34997558594</ele>
        <time>2024-09-23T08:58:03.000Z</time>
      </trkpt>
      <trkpt lat="42.61979" lon="19.92819">
        <ele>914.34997558594</ele>
        <time>2024-09-23T08:58:04.000Z</time>
      </trkpt>
      <trkpt lat="42.61963" lon="19.92817">
        <ele>913.39001464844</ele>
        <time>2024-09-23T08:58:05.000Z</time>
      </trkpt>
      <trkpt lat="42.61948" lon="19.92812">
        <ele>911.46997070312</ele>
        <time>2024-09-23T08:58:06.000Z</time>
      </trkpt>
      <trkpt lat="42.61933" lon="19.92802">
        <ele>910.51000976562</ele>
        <time>2024-09-23T08:58:07.000Z</time>
      </trkpt>
      <trkpt lat="42.61874" lon="19.92751">
        <ele>910.51000976562</ele>
        <time>2024-09-23T08:58:11.000Z</time>
      </trkpt>
      <trkpt lat="42.6186" lon="19.92741">
        <ele>910.51000976562</ele>
        <time>2024-09-23T08:58:12.000Z</time>
      </trkpt>
      <trkpt lat="42.61844" lon="19.92733">
        <ele>910.51000976562</ele>
        <time>2024-09-23T08:58:13.000Z</time>
      </trkpt>
      <trkpt lat="42.61826" lon="19.92728">
        <ele>910.98999023438</ele>
        <time>2024-09-23T08:58:14.000Z</time>
      </trkpt>
      <trkpt lat="42.61768" lon="19.9272">
        <ele>912.42999267578</ele>
        <time>2024-09-23T08:58:17.000Z</time>
      </trkpt>
      <trkpt lat="42.6176" lon="19.92717">
        <ele>912.90997314453</ele>
        <time>2024-09-23T08:58:18.000Z</time>
      </trkpt>
      <trkpt lat="42.61731" lon="19.92707">
        <ele>913.39001464844</ele>
        <time>2024-09-23T08:58:19.000Z</time>
      </trkpt>
      <trkpt lat="42.61705" lon="19.92695">
        <ele>913.86999511719</ele>
        <time>2024-09-23T08:58:21.000Z</time>
      </trkpt>
      <trkpt lat="42.61623" lon="19.92659">
        <ele>914.34997558594</ele>
        <time>2024-09-23T08:58:28.000Z</time>
      </trkpt>
      <trkpt lat="42.61564" lon="19.9262">
        <ele>914.83001708984</ele>
        <time>2024-09-23T08:58:34.000Z</time>
      </trkpt>
      <trkpt lat="42.61555" lon="19.92614">
        <ele>915.30999755859</ele>
        <time>2024-09-23T08:58:35.000Z</time>
      </trkpt>
      <trkpt lat="42.61543" lon="19.92605">
        <ele>915.30999755859</ele>
        <time>2024-09-23T08:58:36.000Z</time>
      </trkpt>
      <trkpt lat="42.61519" lon="19.92589">
        <ele>915.78997802734</ele>
        <time>2024-09-23T08:58:39.000Z</time>
      </trkpt>
      <trkpt lat="42.61511" lon="19.92584">
        <ele>915.78997802734</ele>
        <time>2024-09-23T08:58:40.000Z</time>
      </trkpt>
      <trkpt lat="42.61502" lon="19.9258">
        <ele>915.78997802734</ele>
        <time>2024-09-23T08:58:41.000Z</time>
      </trkpt>
      <trkpt lat="42.61492" lon="19.92578">
        <ele>916.27001953125</ele>
        <time>2024-09-23T08:58:42.000Z</time>
      </trkpt>
      <trkpt lat="42.61481" lon="19.92577">
        <ele>916.27001953125</ele>
        <time>2024-09-23T08:58:43.000Z</time>
      </trkpt>
      <trkpt lat="42.61469" lon="19.92578">
        <ele>916.27001953125</ele>
        <time>2024-09-23T08:58:44.000Z</time>
      </trkpt>
      <trkpt lat="42.61455" lon="19.92581">
        <ele>916.27001953125</ele>
        <time>2024-09-23T08:58:45.000Z</time>
      </trkpt>
      <trkpt lat="42.61443" lon="19.92586">
        <ele>916.27001953125</ele>
        <time>2024-09-23T08:58:46.000Z</time>
      </trkpt>
      <trkpt lat="42.61335" lon="19.92643">
        <ele>915.30999755859</ele>
        <time>2024-09-23T08:58:55.000Z</time>
      </trkpt>
      <trkpt lat="42.61255" lon="19.92687">
        <ele>914.34997558594</ele>
        <time>2024-09-23T08:59:03.000Z</time>
      </trkpt>
      <trkpt lat="42.61225" lon="19.92702">
        <ele>914.34997558594</ele>
        <time>2024-09-23T08:59:06.000Z</time>
      </trkpt>
      <trkpt lat="42.61209" lon="19.92708">
        <ele>914.34997558594</ele>
        <time>2024-09-23T08:59:07.000Z</time>
      </trkpt>
      <trkpt lat="42.61205" lon="19.9271">
        <ele>914.34997558594</ele>
        <time>2024-09-23T08:59:08.000Z</time>
      </trkpt>
      <trkpt lat="42.61193" lon="19.92712">
        <ele>914.83001708984</ele>
        <time>2024-09-23T08:59:09.000Z</time>
      </trkpt>
      <trkpt lat="42.61183" lon="19.92711">
        <ele>914.83001708984</ele>
        <time>2024-09-23T08:59:10.000Z</time>
      </trkpt>
      <trkpt lat="42.6117" lon="19.92707">
        <ele>914.83001708984</ele>
        <time>2024-09-23T08:59:11.000Z</time>
      </trkpt>
      <trkpt lat="42.61159" lon="19.927">
        <ele>915.30999755859</ele>
        <time>2024-09-23T08:59:12.000Z</time>
      </trkpt>
      <trkpt lat="42.61127" lon="19.92679">
        <ele>916.27001953125</ele>
        <time>2024-09-23T08:59:14.000Z</time>
      </trkpt>
      <trkpt lat="42.61114" lon="19.9267">
        <ele>916.75</ele>
        <time>2024-09-23T08:59:15.000Z</time>
      </trkpt>
      <trkpt lat="42.61104" lon="19.92662">
        <ele>917.23999023438</ele>
        <time>2024-09-23T08:59:16.000Z</time>
      </trkpt>
      <trkpt lat="42.61088" lon="19.92651">
        <ele>917.71997070312</ele>
        <time>2024-09-23T08:59:18.000Z</time>
      </trkpt>
      <trkpt lat="42.61071" lon="19.9264">
        <ele>918.67999267578</ele>
        <time>2024-09-23T08:59:20.000Z</time>
      </trkpt>
      <trkpt lat="42.6106" lon="19.92634">
        <ele>918.67999267578</ele>
        <time>2024-09-23T08:59:21.000Z</time>
      </trkpt>
      <trkpt lat="42.61051" lon="19.9263">
        <ele>919.15997314453</ele>
        <time>2024-09-23T08:59:22.000Z</time>
      </trkpt>
      <trkpt lat="42.61035" lon="19.92626">
        <ele>919.64001464844</ele>
        <time>2024-09-23T08:59:23.000Z</time>
      </trkpt>
      <trkpt lat="42.61029" lon="19.92624">
        <ele>919.64001464844</ele>
        <time>2024-09-23T08:59:24.000Z</time>
      </trkpt>
      <trkpt lat="42.60947" lon="19.92612">
        <ele>921.08001708984</ele>
        <time>2024-09-23T08:59:31.000Z</time>
      </trkpt>
      <trkpt lat="42.60934" lon="19.9261">
        <ele>921.08001708984</ele>
        <time>2024-09-23T08:59:33.000Z</time>
      </trkpt>
      <trkpt lat="42.60926" lon="19.9261">
        <ele>921.08001708984</ele>
        <time>2024-09-23T08:59:34.000Z</time>
      </trkpt>
      <trkpt lat="42.60917" lon="19.92612">
        <ele>921.08001708984</ele>
        <time>2024-09-23T08:59:35.000Z</time>
      </trkpt>
      <trkpt lat="42.6091" lon="19.92615">
        <ele>921.08001708984</ele>
        <time>2024-09-23T08:59:36.000Z</time>
      </trkpt>
      <trkpt lat="42.60896" lon="19.92623">
        <ele>920.59997558594</ele>
        <time>2024-09-23T08:59:42.000Z</time>
      </trkpt>
      <trkpt lat="42.60885" lon="19.92631">
        <ele>919.64001464844</ele>
        <time>2024-09-23T08:59:53.000Z</time>
      </trkpt>
      <trkpt lat="42.60862" lon="19.92646">
        <ele>918.20001220703</ele>
        <time>2024-09-23T09:00:03.000Z</time>
      </trkpt>
      <trkpt lat="42.6084" lon="19.92646">
        <ele>916.27001953125</ele>
        <time>2024-09-23T09:00:14.000Z</time>
      </trkpt>
      <trkpt lat="42.6083" lon="19.92642">
        <ele>916.27001953125</ele>
        <time>2024-09-23T09:00:19.000Z</time>
      </trkpt>
      <trkpt lat="42.60826" lon="19.92639">
        <ele>916.27001953125</ele>
        <time>2024-09-23T09:00:20.000Z</time>
      </trkpt>
      <trkpt lat="42.60821" lon="19.92633">
        <ele>916.27001953125</ele>
        <time>2024-09-23T09:00:21.000Z</time>
      </trkpt>
      <trkpt lat="42.60816" lon="19.92626">
        <ele>916.75</ele>
        <time>2024-09-23T09:00:22.000Z</time>
      </trkpt>
      <trkpt lat="42.60809" lon="19.92614">
        <ele>916.75</ele>
        <time>2024-09-23T09:00:23.000Z</time>
      </trkpt>
      <trkpt lat="42.60807" lon="19.92611">
        <ele>916.75</ele>
        <time>2024-09-23T09:00:24.000Z</time>
      </trkpt>
      <trkpt lat="42.60802" lon="19.92602">
        <ele>917.23999023438</ele>
        <time>2024-09-23T09:00:25.000Z</time>
      </trkpt>
      <trkpt lat="42.60798" lon="19.92596">
        <ele>917.71997070312</ele>
        <time>2024-09-23T09:00:26.000Z</time>
      </trkpt>
      <trkpt lat="42.60788" lon="19.92582">
        <ele>918.20001220703</ele>
        <time>2024-09-23T09:00:27.000Z</time>
      </trkpt>
      <trkpt lat="42.60786" lon="19.9258">
        <ele>918.67999267578</ele>
        <time>2024-09-23T09:00:28.000Z</time>
      </trkpt>
      <trkpt lat="42.60778" lon="19.92571">
        <ele>919.15997314453</ele>
        <time>2024-09-23T09:00:29.000Z</time>
      </trkpt>
      <trkpt lat="42.60706" lon="19.925">
        <ele>921.08001708984</ele>
        <time>2024-09-23T09:00:36.000Z</time>
      </trkpt>
      <trkpt lat="42.60588" lon="19.92379">
        <ele>921.55999755859</ele>
        <time>2024-09-23T09:00:45.000Z</time>
      </trkpt>
      <trkpt lat="42.6042" lon="19.92204">
        <ele>920.59997558594</ele>
        <time>2024-09-23T09:00:57.000Z</time>
      </trkpt>
      <trkpt lat="42.60329" lon="19.9211">
        <ele>919.64001464844</ele>
        <time>2024-09-23T09:01:04.000Z</time>
      </trkpt>
      <trkpt lat="42.6031" lon="19.92089">
        <ele>919.64001464844</ele>
        <time>2024-09-23T09:01:05.000Z</time>
      </trkpt>
      <trkpt lat="42.60305" lon="19.92082">
        <ele>919.64001464844</ele>
        <time>2024-09-23T09:01:06.000Z</time>
      </trkpt>
      <trkpt lat="42.60275" lon="19.92037">
        <ele>919.15997314453</ele>
        <time>2024-09-23T09:01:09.000Z</time>
      </trkpt>
      <trkpt lat="42.6027" lon="19.92027">
        <ele>919.15997314453</ele>
        <time>2024-09-23T09:01:10.000Z</time>
      </trkpt>
      <trkpt lat="42.60229" lon="19.91955">
        <ele>919.64001464844</ele>
        <time>2024-09-23T09:01:14.000Z</time>
      </trkpt>
      <trkpt lat="42.60227" lon="19.91952">
        <ele>919.64001464844</ele>
        <time>2024-09-23T09:01:15.000Z</time>
      </trkpt>
      <trkpt lat="42.60216" lon="19.91938">
        <ele>919.64001464844</ele>
        <time>2024-09-23T09:01:16.000Z</time>
      </trkpt>
      <trkpt lat="42.60202" lon="19.91928">
        <ele>919.64001464844</ele>
        <time>2024-09-23T09:01:17.000Z</time>
      </trkpt>
      <trkpt lat="42.60187" lon="19.9192">
        <ele>919.64001464844</ele>
        <time>2024-09-23T09:01:18.000Z</time>
      </trkpt>
      <trkpt lat="42.60171" lon="19.91914">
        <ele>919.64001464844</ele>
        <time>2024-09-23T09:01:19.000Z</time>
      </trkpt>
      <trkpt lat="42.60154" lon="19.91911">
        <ele>919.64001464844</ele>
        <time>2024-09-23T09:01:20.000Z</time>
      </trkpt>
      <trkpt lat="42.60102" lon="19.91904">
        <ele>919.64001464844</ele>
        <time>2024-09-23T09:01:23.000Z</time>
      </trkpt>
      <trkpt lat="42.60064" lon="19.91895">
        <ele>920.11999511719</ele>
        <time>2024-09-23T09:01:26.000Z</time>
      </trkpt>
      <trkpt lat="42.6005" lon="19.91891">
        <ele>920.59997558594</ele>
        <time>2024-09-23T09:01:27.000Z</time>
      </trkpt>
      <trkpt lat="42.59923" lon="19.91825">
        <ele>922.52001953125</ele>
        <time>2024-09-23T09:01:36.000Z</time>
      </trkpt>
      <trkpt lat="42.59824" lon="19.91747">
        <ele>922.03997802734</ele>
        <time>2024-09-23T09:01:44.000Z</time>
      </trkpt>
      <trkpt lat="42.59745" lon="19.91664">
        <ele>923</ele>
        <time>2024-09-23T09:01:51.000Z</time>
      </trkpt>
      <trkpt lat="42.59705" lon="19.9162">
        <ele>923.47998046875</ele>
        <time>2024-09-23T09:01:54.000Z</time>
      </trkpt>
      <trkpt lat="42.59678" lon="19.91593">
        <ele>923.96002197266</ele>
        <time>2024-09-23T09:01:57.000Z</time>
      </trkpt>
      <trkpt lat="42.59676" lon="19.91591">
        <ele>923.96002197266</ele>
        <time>2024-09-23T09:01:58.000Z</time>
      </trkpt>
      <trkpt lat="42.59666" lon="19.91584">
        <ele>923.96002197266</ele>
        <time>2024-09-23T09:01:59.000Z</time>
      </trkpt>
      <trkpt lat="42.59655" lon="19.91579">
        <ele>923.96002197266</ele>
        <time>2024-09-23T09:02:00.000Z</time>
      </trkpt>
      <trkpt lat="42.59644" lon="19.91577">
        <ele>923.96002197266</ele>
        <time>2024-09-23T09:02:01.000Z</time>
      </trkpt>
      <trkpt lat="42.59634" lon="19.91577">
        <ele>923.96002197266</ele>
        <time>2024-09-23T09:02:02.000Z</time>
      </trkpt>
      <trkpt lat="42.59608" lon="19.91584">
        <ele>923.96002197266</ele>
        <time>2024-09-23T09:02:04.000Z</time>
      </trkpt>
      <trkpt lat="42.59606" lon="19.91584">
        <ele>923.96002197266</ele>
        <time>2024-09-23T09:02:05.000Z</time>
      </trkpt>
      <trkpt lat="42.59595" lon="19.91585">
        <ele>923.47998046875</ele>
        <time>2024-09-23T09:02:06.000Z</time>
      </trkpt>
      <trkpt lat="42.59585" lon="19.91585">
        <ele>923.47998046875</ele>
        <time>2024-09-23T09:02:07.000Z</time>
      </trkpt>
      <trkpt lat="42.59575" lon="19.91584">
        <ele>923.47998046875</ele>
        <time>2024-09-23T09:02:08.000Z</time>
      </trkpt>
      <trkpt lat="42.59565" lon="19.91582">
        <ele>923</ele>
        <time>2024-09-23T09:02:09.000Z</time>
      </trkpt>
      <trkpt lat="42.59554" lon="19.91578">
        <ele>923</ele>
        <time>2024-09-23T09:02:10.000Z</time>
      </trkpt>
      <trkpt lat="42.59543" lon="19.91571">
        <ele>923</ele>
        <time>2024-09-23T09:02:11.000Z</time>
      </trkpt>
      <trkpt lat="42.59531" lon="19.91562">
        <ele>923</ele>
        <time>2024-09-23T09:02:12.000Z</time>
      </trkpt>
      <trkpt lat="42.59521" lon="19.91552">
        <ele>923</ele>
        <time>2024-09-23T09:02:13.000Z</time>
      </trkpt>
      <trkpt lat="42.59512" lon="19.91541">
        <ele>922.52001953125</ele>
        <time>2024-09-23T09:02:14.000Z</time>
      </trkpt>
      <trkpt lat="42.59502" lon="19.91527">
        <ele>922.52001953125</ele>
        <time>2024-09-23T09:02:15.000Z</time>
      </trkpt>
      <trkpt lat="42.59495" lon="19.91515">
        <ele>922.52001953125</ele>
        <time>2024-09-23T09:02:16.000Z</time>
      </trkpt>
      <trkpt lat="42.59488" lon="19.915">
        <ele>922.52001953125</ele>
        <time>2024-09-23T09:02:17.000Z</time>
      </trkpt>
      <trkpt lat="42.59483" lon="19.91487">
        <ele>922.52001953125</ele>
        <time>2024-09-23T09:02:18.000Z</time>
      </trkpt>
      <trkpt lat="42.59463" lon="19.91413">
        <ele>920.59997558594</ele>
        <time>2024-09-23T09:02:23.000Z</time>
      </trkpt>
      <trkpt lat="42.59458" lon="19.91398">
        <ele>920.11999511719</ele>
        <time>2024-09-23T09:02:24.000Z</time>
      </trkpt>
      <trkpt lat="42.59451" lon="19.91384">
        <ele>919.64001464844</ele>
        <time>2024-09-23T09:02:25.000Z</time>
      </trkpt>
      <trkpt lat="42.59441" lon="19.91372">
        <ele>918.67999267578</ele>
        <time>2024-09-23T09:02:26.000Z</time>
      </trkpt>
      <trkpt lat="42.59429" lon="19.91362">
        <ele>918.20001220703</ele>
        <time>2024-09-23T09:02:27.000Z</time>
      </trkpt>
      <trkpt lat="42.59371" lon="19.91324">
        <ele>915.30999755859</ele>
        <time>2024-09-23T09:02:31.000Z</time>
      </trkpt>
      <trkpt lat="42.59362" lon="19.91316">
        <ele>915.30999755859</ele>
        <time>2024-09-23T09:02:32.000Z</time>
      </trkpt>
      <trkpt lat="42.59341" lon="19.91296">
        <ele>914.83001708984</ele>
        <time>2024-09-23T09:02:34.000Z</time>
      </trkpt>
      <trkpt lat="42.59325" lon="19.91276">
        <ele>914.83001708984</ele>
        <time>2024-09-23T09:02:35.000Z</time>
      </trkpt>
      <trkpt lat="42.5932" lon="19.91271">
        <ele>914.34997558594</ele>
        <time>2024-09-23T09:02:36.000Z</time>
      </trkpt>
      <trkpt lat="42.59306" lon="19.91259">
        <ele>914.83001708984</ele>
        <time>2024-09-23T09:02:37.000Z</time>
      </trkpt>
      <trkpt lat="42.59266" lon="19.91235">
        <ele>916.27001953125</ele>
        <time>2024-09-23T09:02:40.000Z</time>
      </trkpt>
      <trkpt lat="42.5919" lon="19.91204">
        <ele>919.15997314453</ele>
        <time>2024-09-23T09:02:44.000Z</time>
      </trkpt>
      <trkpt lat="42.59137" lon="19.91186">
        <ele>921.55999755859</ele>
        <time>2024-09-23T09:02:47.000Z</time>
      </trkpt>
      <trkpt lat="42.59121" lon="19.91181">
        <ele>922.52001953125</ele>
        <time>2024-09-23T09:02:48.000Z</time>
      </trkpt>
      <trkpt lat="42.59106" lon="19.91175">
        <ele>923</ele>
        <time>2024-09-23T09:02:49.000Z</time>
      </trkpt>
      <trkpt lat="42.59043" lon="19.91145">
        <ele>925.89001464844</ele>
        <time>2024-09-23T09:02:52.000Z</time>
      </trkpt>
      <trkpt lat="42.59034" lon="19.9114">
        <ele>925.89001464844</ele>
        <time>2024-09-23T09:02:53.000Z</time>
      </trkpt>
      <trkpt lat="42.59022" lon="19.91131">
        <ele>926.84997558594</ele>
        <time>2024-09-23T09:02:54.000Z</time>
      </trkpt>
      <trkpt lat="42.58907" lon="19.9102">
        <ele>928.77001953125</ele>
        <time>2024-09-23T09:03:01.000Z</time>
      </trkpt>
      <trkpt lat="42.58887" lon="19.90996">
        <ele>928.77001953125</ele>
        <time>2024-09-23T09:03:02.000Z</time>
      </trkpt>
      <trkpt lat="42.58869" lon="19.90971">
        <ele>928.28997802734</ele>
        <time>2024-09-23T09:03:04.000Z</time>
      </trkpt>
      <trkpt lat="42.58765" lon="19.90786">
        <ele>923.47998046875</ele>
        <time>2024-09-23T09:03:12.000Z</time>
      </trkpt>
      <trkpt lat="42.58673" lon="19.90635">
        <ele>915.78997802734</ele>
        <time>2024-09-23T09:03:19.000Z</time>
      </trkpt>
      <trkpt lat="42.58656" lon="19.90613">
        <ele>915.78997802734</ele>
        <time>2024-09-23T09:03:20.000Z</time>
      </trkpt>
      <trkpt lat="42.58639" lon="19.90596">
        <ele>916.27001953125</ele>
        <time>2024-09-23T09:03:21.000Z</time>
      </trkpt>
      <trkpt lat="42.58608" lon="19.90569">
        <ele>918.20001220703</ele>
        <time>2024-09-23T09:03:22.000Z</time>
      </trkpt>
      <trkpt lat="42.58599" lon="19.90561">
        <ele>918.20001220703</ele>
        <time>2024-09-23T09:03:23.000Z</time>
      </trkpt>
      <trkpt lat="42.58589" lon="19.9055">
        <ele>919.15997314453</ele>
        <time>2024-09-23T09:03:24.000Z</time>
      </trkpt>
      <trkpt lat="42.58572" lon="19.90529">
        <ele>920.11999511719</ele>
        <time>2024-09-23T09:03:25.000Z</time>
      </trkpt>
      <trkpt lat="42.58562" lon="19.90513">
        <ele>920.59997558594</ele>
        <time>2024-09-23T09:03:26.000Z</time>
      </trkpt>
      <trkpt lat="42.58529" lon="19.90449">
        <ele>920.59997558594</ele>
        <time>2024-09-23T09:03:29.000Z</time>
      </trkpt>
      <trkpt lat="42.5846" lon="19.90257">
        <ele>918.67999267578</ele>
        <time>2024-09-23T09:03:36.000Z</time>
      </trkpt>
      <trkpt lat="42.58424" lon="19.901">
        <ele>919.15997314453</ele>
        <time>2024-09-23T09:03:41.000Z</time>
      </trkpt>
      <trkpt lat="42.58422" lon="19.90089">
        <ele>919.15997314453</ele>
        <time>2024-09-23T09:03:42.000Z</time>
      </trkpt>
      <trkpt lat="42.58384" lon="19.89964">
        <ele>918.20001220703</ele>
        <time>2024-09-23T09:03:47.000Z</time>
      </trkpt>
      <trkpt lat="42.58374" lon="19.89942">
        <ele>918.20001220703</ele>
        <time>2024-09-23T09:03:48.000Z</time>
      </trkpt>
      <trkpt lat="42.58361" lon="19.89923">
        <ele>917.71997070312</ele>
        <time>2024-09-23T09:03:49.000Z</time>
      </trkpt>
      <trkpt lat="42.58346" lon="19.89906">
        <ele>917.71997070312</ele>
        <time>2024-09-23T09:03:50.000Z</time>
      </trkpt>
      <trkpt lat="42.58272" lon="19.8985">
        <ele>917.71997070312</ele>
        <time>2024-09-23T09:03:54.000Z</time>
      </trkpt>
      <trkpt lat="42.58251" lon="19.89833">
        <ele>917.71997070312</ele>
        <time>2024-09-23T09:03:55.000Z</time>
      </trkpt>
      <trkpt lat="42.58239" lon="19.89823">
        <ele>917.71997070312</ele>
        <time>2024-09-23T09:03:56.000Z</time>
      </trkpt>
      <trkpt lat="42.58225" lon="19.89807">
        <ele>917.71997070312</ele>
        <time>2024-09-23T09:03:57.000Z</time>
      </trkpt>
      <trkpt lat="42.58211" lon="19.89788">
        <ele>917.71997070312</ele>
        <time>2024-09-23T09:03:58.000Z</time>
      </trkpt>
      <trkpt lat="42.582" lon="19.89767">
        <ele>917.71997070312</ele>
        <time>2024-09-23T09:03:59.000Z</time>
      </trkpt>
      <trkpt lat="42.58188" lon="19.89735">
        <ele>917.71997070312</ele>
        <time>2024-09-23T09:04:00.000Z</time>
      </trkpt>
      <trkpt lat="42.58167" lon="19.89657">
        <ele>917.23999023438</ele>
        <time>2024-09-23T09:04:03.000Z</time>
      </trkpt>
      <trkpt lat="42.58154" lon="19.89592">
        <ele>917.23999023438</ele>
        <time>2024-09-23T09:04:05.000Z</time>
      </trkpt>
      <trkpt lat="42.58151" lon="19.89578">
        <ele>917.23999023438</ele>
        <time>2024-09-23T09:04:06.000Z</time>
      </trkpt>
      <trkpt lat="42.58143" lon="19.89552">
        <ele>917.23999023438</ele>
        <time>2024-09-23T09:04:07.000Z</time>
      </trkpt>
      <trkpt lat="42.58132" lon="19.89525">
        <ele>917.23999023438</ele>
        <time>2024-09-23T09:04:08.000Z</time>
      </trkpt>
      <trkpt lat="42.58111" lon="19.8948">
        <ele>917.23999023438</ele>
        <time>2024-09-23T09:04:10.000Z</time>
      </trkpt>
      <trkpt lat="42.58102" lon="19.89455">
        <ele>917.23999023438</ele>
        <time>2024-09-23T09:04:11.000Z</time>
      </trkpt>
      <trkpt lat="42.58094" lon="19.89422">
        <ele>917.23999023438</ele>
        <time>2024-09-23T09:04:12.000Z</time>
      </trkpt>
      <trkpt lat="42.58091" lon="19.89403">
        <ele>917.23999023438</ele>
        <time>2024-09-23T09:04:13.000Z</time>
      </trkpt>
      <trkpt lat="42.58084" lon="19.89367">
        <ele>916.75</ele>
        <time>2024-09-23T09:04:14.000Z</time>
      </trkpt>
      <trkpt lat="42.58041" lon="19.89158">
        <ele>917.23999023438</ele>
        <time>2024-09-23T09:04:21.000Z</time>
      </trkpt>
      <trkpt lat="42.5804" lon="19.89153">
        <ele>917.23999023438</ele>
        <time>2024-09-23T09:04:22.000Z</time>
      </trkpt>
      <trkpt lat="42.58036" lon="19.89123">
        <ele>917.71997070312</ele>
        <time>2024-09-23T09:04:23.000Z</time>
      </trkpt>
      <trkpt lat="42.58032" lon="19.8904">
        <ele>917.71997070312</ele>
        <time>2024-09-23T09:04:26.000Z</time>
      </trkpt>
      <trkpt lat="42.58029" lon="19.89014">
        <ele>918.20001220703</ele>
        <time>2024-09-23T09:04:27.000Z</time>
      </trkpt>
      <trkpt lat="42.58024" lon="19.88986">
        <ele>918.20001220703</ele>
        <time>2024-09-23T09:04:28.000Z</time>
      </trkpt>
      <trkpt lat="42.58016" lon="19.88958">
        <ele>918.20001220703</ele>
        <time>2024-09-23T09:04:29.000Z</time>
      </trkpt>
      <trkpt lat="42.57949" lon="19.88759">
        <ele>916.75</ele>
        <time>2024-09-23T09:04:36.000Z</time>
      </trkpt>
      <trkpt lat="42.57945" lon="19.88744">
        <ele>916.75</ele>
        <time>2024-09-23T09:04:37.000Z</time>
      </trkpt>
      <trkpt lat="42.5794" lon="19.8872">
        <ele>916.75</ele>
        <time>2024-09-23T09:04:38.000Z</time>
      </trkpt>
      <trkpt lat="42.57935" lon="19.88687">
        <ele>916.75</ele>
        <time>2024-09-23T09:04:39.000Z</time>
      </trkpt>
      <trkpt lat="42.57922" lon="19.88583">
        <ele>917.71997070312</ele>
        <time>2024-09-23T09:04:42.000Z</time>
      </trkpt>
      <trkpt lat="42.5792" lon="19.88568">
        <ele>918.20001220703</ele>
        <time>2024-09-23T09:04:43.000Z</time>
      </trkpt>
      <trkpt lat="42.57915" lon="19.88543">
        <ele>919.15997314453</ele>
        <time>2024-09-23T09:04:44.000Z</time>
      </trkpt>
      <trkpt lat="42.57905" lon="19.88504">
        <ele>921.08001708984</ele>
        <time>2024-09-23T09:04:45.000Z</time>
      </trkpt>
      <trkpt lat="42.57902" lon="19.88495">
        <ele>921.55999755859</ele>
        <time>2024-09-23T09:04:46.000Z</time>
      </trkpt>
      <trkpt lat="42.57817" lon="19.88278">
        <ele>935.5</ele>
        <time>2024-09-23T09:04:54.000Z</time>
      </trkpt>
      <trkpt lat="42.57769" lon="19.88174">
        <ele>937.90002441406</ele>
        <time>2024-09-23T09:04:58.000Z</time>
      </trkpt>
      <trkpt lat="42.57763" lon="19.88162">
        <ele>937.41998291016</ele>
        <time>2024-09-23T09:04:59.000Z</time>
      </trkpt>
      <trkpt lat="42.57745" lon="19.88135">
        <ele>936.46002197266</ele>
        <time>2024-09-23T09:05:01.000Z</time>
      </trkpt>
      <trkpt lat="42.5772" lon="19.88099">
        <ele>934.53997802734</ele>
        <time>2024-09-23T09:05:03.000Z</time>
      </trkpt>
      <trkpt lat="42.57707" lon="19.88078">
        <ele>933.58001708984</ele>
        <time>2024-09-23T09:05:04.000Z</time>
      </trkpt>
      <trkpt lat="42.57699" lon="19.88058">
        <ele>932.61999511719</ele>
        <time>2024-09-23T09:05:05.000Z</time>
      </trkpt>
      <trkpt lat="42.57693" lon="19.88036">
        <ele>932.61999511719</ele>
        <time>2024-09-23T09:05:06.000Z</time>
      </trkpt>
      <trkpt lat="42.57685" lon="19.87985">
        <ele>933.09997558594</ele>
        <time>2024-09-23T09:05:08.000Z</time>
      </trkpt>
      <trkpt lat="42.57679" lon="19.87957">
        <ele>933.58001708984</ele>
        <time>2024-09-23T09:05:09.000Z</time>
      </trkpt>
      <trkpt lat="42.57676" lon="19.87948">
        <ele>933.58001708984</ele>
        <time>2024-09-23T09:05:10.000Z</time>
      </trkpt>
      <trkpt lat="42.57608" lon="19.87748">
        <ele>929.25</ele>
        <time>2024-09-23T09:05:19.000Z</time>
      </trkpt>
      <trkpt lat="42.57578" lon="19.87667">
        <ele>926.84997558594</ele>
        <time>2024-09-23T09:05:22.000Z</time>
      </trkpt>
      <trkpt lat="42.57573" lon="19.87655">
        <ele>926.36999511719</ele>
        <time>2024-09-23T09:05:23.000Z</time>
      </trkpt>
      <trkpt lat="42.5756" lon="19.87632">
        <ele>925.89001464844</ele>
        <time>2024-09-23T09:05:24.000Z</time>
      </trkpt>
      <trkpt lat="42.57548" lon="19.87613">
        <ele>925.40997314453</ele>
        <time>2024-09-23T09:05:25.000Z</time>
      </trkpt>
      <trkpt lat="42.57493" lon="19.87531">
        <ele>923</ele>
        <time>2024-09-23T09:05:29.000Z</time>
      </trkpt>
      <trkpt lat="42.57481" lon="19.87508">
        <ele>922.52001953125</ele>
        <time>2024-09-23T09:05:30.000Z</time>
      </trkpt>
      <trkpt lat="42.57385" lon="19.87255">
        <ele>919.64001464844</ele>
        <time>2024-09-23T09:05:40.000Z</time>
      </trkpt>
      <trkpt lat="42.57326" lon="19.87135">
        <ele>919.15997314453</ele>
        <time>2024-09-23T09:05:44.000Z</time>
      </trkpt>
      <trkpt lat="42.57299" lon="19.87062">
        <ele>919.64001464844</ele>
        <time>2024-09-23T09:05:47.000Z</time>
      </trkpt>
      <trkpt lat="42.5725" lon="19.86918">
        <ele>922.52001953125</ele>
        <time>2024-09-23T09:05:53.000Z</time>
      </trkpt>
      <trkpt lat="42.57233" lon="19.86876">
        <ele>922.03997802734</ele>
        <time>2024-09-23T09:05:54.000Z</time>
      </trkpt>
      <trkpt lat="42.57229" lon="19.86866">
        <ele>922.03997802734</ele>
        <time>2024-09-23T09:05:55.000Z</time>
      </trkpt>
      <trkpt lat="42.57222" lon="19.8684">
        <ele>921.55999755859</ele>
        <time>2024-09-23T09:05:56.000Z</time>
      </trkpt>
      <trkpt lat="42.57216" lon="19.86814">
        <ele>921.55999755859</ele>
        <time>2024-09-23T09:05:57.000Z</time>
      </trkpt>
      <trkpt lat="42.57213" lon="19.86782">
        <ele>921.55999755859</ele>
        <time>2024-09-23T09:05:58.000Z</time>
      </trkpt>
      <trkpt lat="42.57209" lon="19.8671">
        <ele>922.52001953125</ele>
        <time>2024-09-23T09:06:01.000Z</time>
      </trkpt>
      <trkpt lat="42.57208" lon="19.86702">
        <ele>922.52001953125</ele>
        <time>2024-09-23T09:06:02.000Z</time>
      </trkpt>
      <trkpt lat="42.57181" lon="19.86591">
        <ele>924.45001220703</ele>
        <time>2024-09-23T09:06:07.000Z</time>
      </trkpt>
      <trkpt lat="42.57179" lon="19.86584">
        <ele>924.92999267578</ele>
        <time>2024-09-23T09:06:08.000Z</time>
      </trkpt>
      <trkpt lat="42.57165" lon="19.86528">
        <ele>926.84997558594</ele>
        <time>2024-09-23T09:06:11.000Z</time>
      </trkpt>
      <trkpt lat="42.57141" lon="19.86384">
        <ele>931.65002441406</ele>
        <time>2024-09-23T09:06:18.000Z</time>
      </trkpt>
      <trkpt lat="42.57133" lon="19.86322">
        <ele>931.65002441406</ele>
        <time>2024-09-23T09:06:21.000Z</time>
      </trkpt>
      <trkpt lat="42.57122" lon="19.86189">
        <ele>930.69000244141</ele>
        <time>2024-09-23T09:06:26.000Z</time>
      </trkpt>
      <trkpt lat="42.57119" lon="19.86166">
        <ele>930.21002197266</ele>
        <time>2024-09-23T09:06:27.000Z</time>
      </trkpt>
      <trkpt lat="42.57118" lon="19.86156">
        <ele>930.21002197266</ele>
        <time>2024-09-23T09:06:28.000Z</time>
      </trkpt>
      <trkpt lat="42.57072" lon="19.85979">
        <ele>924.45001220703</ele>
        <time>2024-09-23T09:06:35.000Z</time>
      </trkpt>
      <trkpt lat="42.57065" lon="19.85961">
        <ele>924.45001220703</ele>
        <time>2024-09-23T09:06:36.000Z</time>
      </trkpt>
      <trkpt lat="42.57048" lon="19.8593">
        <ele>923.96002197266</ele>
        <time>2024-09-23T09:06:37.000Z</time>
      </trkpt>
      <trkpt lat="42.57044" lon="19.85922">
        <ele>923.96002197266</ele>
        <time>2024-09-23T09:06:38.000Z</time>
      </trkpt>
      <trkpt lat="42.57037" lon="19.85901">
        <ele>923.96002197266</ele>
        <time>2024-09-23T09:06:39.000Z</time>
      </trkpt>
      <trkpt lat="42.57032" lon="19.85879">
        <ele>923.96002197266</ele>
        <time>2024-09-23T09:06:40.000Z</time>
      </trkpt>
      <trkpt lat="42.5703" lon="19.85855">
        <ele>923.96002197266</ele>
        <time>2024-09-23T09:06:41.000Z</time>
      </trkpt>
      <trkpt lat="42.57037" lon="19.85683">
        <ele>923.47998046875</ele>
        <time>2024-09-23T09:06:47.000Z</time>
      </trkpt>
      <trkpt lat="42.57041" lon="19.85473">
        <ele>923</ele>
        <time>2024-09-23T09:06:54.000Z</time>
      </trkpt>
      <trkpt lat="42.57029" lon="19.8517">
        <ele>922.03997802734</ele>
        <time>2024-09-23T09:07:05.000Z</time>
      </trkpt>
      <trkpt lat="42.56999" lon="19.84887">
        <ele>922.52001953125</ele>
        <time>2024-09-23T09:07:15.000Z</time>
      </trkpt>
      <trkpt lat="42.57008" lon="19.84658">
        <ele>923.47998046875</ele>
        <time>2024-09-23T09:07:23.000Z</time>
      </trkpt>
      <trkpt lat="42.57003" lon="19.84439">
        <ele>924.45001220703</ele>
        <time>2024-09-23T09:07:30.000Z</time>
      </trkpt>
      <trkpt lat="42.57" lon="19.84307">
        <ele>924.92999267578</ele>
        <time>2024-09-23T09:07:36.000Z</time>
      </trkpt>
      <trkpt lat="42.57003" lon="19.84282">
        <ele>925.40997314453</ele>
        <time>2024-09-23T09:07:37.000Z</time>
      </trkpt>
      <trkpt lat="42.57045" lon="19.8405">
        <ele>926.36999511719</ele>
        <time>2024-09-23T09:07:46.000Z</time>
      </trkpt>
      <trkpt lat="42.57097" lon="19.83796">
        <ele>927.33001708984</ele>
        <time>2024-09-23T09:07:56.000Z</time>
      </trkpt>
      <trkpt lat="42.57115" lon="19.83701">
        <ele>927.80999755859</ele>
        <time>2024-09-23T09:08:00.000Z</time>
      </trkpt>
      <trkpt lat="42.57116" lon="19.83695">
        <ele>927.80999755859</ele>
        <time>2024-09-23T09:08:01.000Z</time>
      </trkpt>
      <trkpt lat="42.57117" lon="19.83676">
        <ele>927.80999755859</ele>
        <time>2024-09-23T09:08:02.000Z</time>
      </trkpt>
      <trkpt lat="42.57117" lon="19.83657">
        <ele>927.80999755859</ele>
        <time>2024-09-23T09:08:03.000Z</time>
      </trkpt>
      <trkpt lat="42.57114" lon="19.8363">
        <ele>927.80999755859</ele>
        <time>2024-09-23T09:08:05.000Z</time>
      </trkpt>
      <trkpt lat="42.57113" lon="19.83621">
        <ele>927.80999755859</ele>
        <time>2024-09-23T09:08:06.000Z</time>
      </trkpt>
      <trkpt lat="42.57115" lon="19.83614">
        <ele>927.80999755859</ele>
        <time>2024-09-23T09:08:07.000Z</time>
      </trkpt>
      <trkpt lat="42.57119" lon="19.83607">
        <ele>928.28997802734</ele>
        <time>2024-09-23T09:08:08.000Z</time>
      </trkpt>
      <trkpt lat="42.57124" lon="19.83602">
        <ele>928.28997802734</ele>
        <time>2024-09-23T09:08:09.000Z</time>
      </trkpt>
      <trkpt lat="42.57131" lon="19.836">
        <ele>928.28997802734</ele>
        <time>2024-09-23T09:08:10.000Z</time>
      </trkpt>
      <trkpt lat="42.57169" lon="19.83598">
        <ele>928.28997802734</ele>
        <time>2024-09-23T09:08:15.000Z</time>
      </trkpt>
      <trkpt lat="42.57238" lon="19.83605">
        <ele>928.77001953125</ele>
        <time>2024-09-23T09:08:21.000Z</time>
      </trkpt>
      <trkpt lat="42.57249" lon="19.83606">
        <ele>928.77001953125</ele>
        <time>2024-09-23T09:08:22.000Z</time>
      </trkpt>
      <trkpt lat="42.57262" lon="19.83605">
        <ele>928.77001953125</ele>
        <time>2024-09-23T09:08:23.000Z</time>
      </trkpt>
      <trkpt lat="42.57272" lon="19.836">
        <ele>928.77001953125</ele>
        <time>2024-09-23T09:08:24.000Z</time>
      </trkpt>
      <trkpt lat="42.5728" lon="19.83591">
        <ele>928.77001953125</ele>
        <time>2024-09-23T09:08:25.000Z</time>
      </trkpt>
      <trkpt lat="42.57286" lon="19.83578">
        <ele>929.25</ele>
        <time>2024-09-23T09:08:26.000Z</time>
      </trkpt>
      <trkpt lat="42.57313" lon="19.83487">
        <ele>929.25</ele>
        <time>2024-09-23T09:08:30.000Z</time>
      </trkpt>
      <trkpt lat="42.57374" lon="19.83326">
        <ele>930.21002197266</ele>
        <time>2024-09-23T09:08:35.000Z</time>
      </trkpt>
      <trkpt lat="42.5743" lon="19.83185">
        <ele>938.85998535156</ele>
        <time>2024-09-23T09:08:39.000Z</time>
      </trkpt>
      <trkpt lat="42.57436" lon="19.83165">
        <ele>939.34997558594</ele>
        <time>2024-09-23T09:08:40.000Z</time>
      </trkpt>
      <trkpt lat="42.57449" lon="19.83106">
        <ele>941.75</ele>
        <time>2024-09-23T09:08:42.000Z</time>
      </trkpt>
      <trkpt lat="42.57455" lon="19.83083">
        <ele>942.22998046875</ele>
        <time>2024-09-23T09:08:43.000Z</time>
      </trkpt>
      <trkpt lat="42.57479" lon="19.83013">
        <ele>944.63000488281</ele>
        <time>2024-09-23T09:08:45.000Z</time>
      </trkpt>
      <trkpt lat="42.5749" lon="19.82969">
        <ele>946.07000732422</ele>
        <time>2024-09-23T09:08:47.000Z</time>
      </trkpt>
      <trkpt lat="42.57525" lon="19.82738">
        <ele>954.72998046875</ele>
        <time>2024-09-23T09:08:54.000Z</time>
      </trkpt>
      <trkpt lat="42.57536" lon="19.82617">
        <ele>960.01000976562</ele>
        <time>2024-09-23T09:08:58.000Z</time>
      </trkpt>
      <trkpt lat="42.5757" lon="19.8241">
        <ele>959.04998779297</ele>
        <time>2024-09-23T09:09:04.000Z</time>
      </trkpt>
      <trkpt lat="42.57574" lon="19.82378">
        <ele>958.57000732422</ele>
        <time>2024-09-23T09:09:05.000Z</time>
      </trkpt>
      <trkpt lat="42.57576" lon="19.82368">
        <ele>958.09002685547</ele>
        <time>2024-09-23T09:09:06.000Z</time>
      </trkpt>
      <trkpt lat="42.57611" lon="19.82192">
        <ele>956.65002441406</ele>
        <time>2024-09-23T09:09:11.000Z</time>
      </trkpt>
      <trkpt lat="42.57614" lon="19.82179">
        <ele>956.65002441406</ele>
        <time>2024-09-23T09:09:12.000Z</time>
      </trkpt>
      <trkpt lat="42.57664" lon="19.81986">
        <ele>957.13000488281</ele>
        <time>2024-09-23T09:09:18.000Z</time>
      </trkpt>
      <trkpt lat="42.57687" lon="19.81837">
        <ele>957.13000488281</ele>
        <time>2024-09-23T09:09:23.000Z</time>
      </trkpt>
      <trkpt lat="42.57694" lon="19.81806">
        <ele>956.65002441406</ele>
        <time>2024-09-23T09:09:24.000Z</time>
      </trkpt>
      <trkpt lat="42.57716" lon="19.81732">
        <ele>956.65002441406</ele>
        <time>2024-09-23T09:09:26.000Z</time>
      </trkpt>
      <trkpt lat="42.57722" lon="19.81711">
        <ele>957.13000488281</ele>
        <time>2024-09-23T09:09:27.000Z</time>
      </trkpt>
      <trkpt lat="42.57728" lon="19.81694">
        <ele>957.13000488281</ele>
        <time>2024-09-23T09:09:28.000Z</time>
      </trkpt>
      <trkpt lat="42.57743" lon="19.81658">
        <ele>957.13000488281</ele>
        <time>2024-09-23T09:09:29.000Z</time>
      </trkpt>
      <trkpt lat="42.5779" lon="19.81567">
        <ele>958.57000732422</ele>
        <time>2024-09-23T09:09:32.000Z</time>
      </trkpt>
      <trkpt lat="42.5787" lon="19.81366">
        <ele>962.90002441406</ele>
        <time>2024-09-23T09:09:39.000Z</time>
      </trkpt>
      <trkpt lat="42.5793" lon="19.81152">
        <ele>962.90002441406</ele>
        <time>2024-09-23T09:09:46.000Z</time>
      </trkpt>
      <trkpt lat="42.57967" lon="19.80905">
        <ele>960.01000976562</ele>
        <time>2024-09-23T09:09:54.000Z</time>
      </trkpt>
      <trkpt lat="42.57978" lon="19.80822">
        <ele>959.53002929688</ele>
        <time>2024-09-23T09:09:57.000Z</time>
      </trkpt>
      <trkpt lat="42.57996" lon="19.80742">
        <ele>959.53002929688</ele>
        <time>2024-09-23T09:10:00.000Z</time>
      </trkpt>
      <trkpt lat="42.58011" lon="19.80687">
        <ele>959.53002929688</ele>
        <time>2024-09-23T09:10:02.000Z</time>
      </trkpt>
      <trkpt lat="42.58017" lon="19.80661">
        <ele>959.04998779297</ele>
        <time>2024-09-23T09:10:03.000Z</time>
      </trkpt>
      <trkpt lat="42.5802" lon="19.80633">
        <ele>959.04998779297</ele>
        <time>2024-09-23T09:10:04.000Z</time>
      </trkpt>
      <trkpt lat="42.58021" lon="19.80607">
        <ele>959.53002929688</ele>
        <time>2024-09-23T09:10:05.000Z</time>
      </trkpt>
      <trkpt lat="42.58019" lon="19.80529">
        <ele>959.53002929688</ele>
        <time>2024-09-23T09:10:07.000Z</time>
      </trkpt>
      <trkpt lat="42.58018" lon="19.80517">
        <ele>959.53002929688</ele>
        <time>2024-09-23T09:10:08.000Z</time>
      </trkpt>
      <trkpt lat="42.58014" lon="19.8049">
        <ele>959.53002929688</ele>
        <time>2024-09-23T09:10:09.000Z</time>
      </trkpt>
      <trkpt lat="42.57993" lon="19.80416">
        <ele>960.01000976562</ele>
        <time>2024-09-23T09:10:12.000Z</time>
      </trkpt>
      <trkpt lat="42.57988" lon="19.8039">
        <ele>960.01000976562</ele>
        <time>2024-09-23T09:10:13.000Z</time>
      </trkpt>
      <trkpt lat="42.57986" lon="19.80363">
        <ele>960.01000976562</ele>
        <time>2024-09-23T09:10:14.000Z</time>
      </trkpt>
      <trkpt lat="42.57988" lon="19.80336">
        <ele>960.01000976562</ele>
        <time>2024-09-23T09:10:15.000Z</time>
      </trkpt>
      <trkpt lat="42.57993" lon="19.8031">
        <ele>960.01000976562</ele>
        <time>2024-09-23T09:10:16.000Z</time>
      </trkpt>
      <trkpt lat="42.58002" lon="19.80286">
        <ele>960.48999023438</ele>
        <time>2024-09-23T09:10:17.000Z</time>
      </trkpt>
      <trkpt lat="42.58027" lon="19.8023">
        <ele>960.97998046875</ele>
        <time>2024-09-23T09:10:19.000Z</time>
      </trkpt>
      <trkpt lat="42.58032" lon="19.80215">
        <ele>960.97998046875</ele>
        <time>2024-09-23T09:10:20.000Z</time>
      </trkpt>
      <trkpt lat="42.58088" lon="19.80015">
        <ele>961.46002197266</ele>
        <time>2024-09-23T09:10:27.000Z</time>
      </trkpt>
      <trkpt lat="42.58114" lon="19.79903">
        <ele>960.48999023438</ele>
        <time>2024-09-23T09:10:31.000Z</time>
      </trkpt>
      <trkpt lat="42.58124" lon="19.79856">
        <ele>959.53002929688</ele>
        <time>2024-09-23T09:10:32.000Z</time>
      </trkpt>
      <trkpt lat="42.58176" lon="19.79668">
        <ele>958.09002685547</ele>
        <time>2024-09-23T09:10:39.000Z</time>
      </trkpt>
      <trkpt lat="42.58181" lon="19.79645">
        <ele>958.57000732422</ele>
        <time>2024-09-23T09:10:40.000Z</time>
      </trkpt>
      <trkpt lat="42.58185" lon="19.79615">
        <ele>958.57000732422</ele>
        <time>2024-09-23T09:10:41.000Z</time>
      </trkpt>
      <trkpt lat="42.58204" lon="19.7938">
        <ele>960.97998046875</ele>
        <time>2024-09-23T09:10:48.000Z</time>
      </trkpt>
      <trkpt lat="42.5822" lon="19.79265">
        <ele>961.46002197266</ele>
        <time>2024-09-23T09:10:52.000Z</time>
      </trkpt>
      <trkpt lat="42.58224" lon="19.79244">
        <ele>961.46002197266</ele>
        <time>2024-09-23T09:10:53.000Z</time>
      </trkpt>
      <trkpt lat="42.58232" lon="19.79214">
        <ele>961.46002197266</ele>
        <time>2024-09-23T09:10:54.000Z</time>
      </trkpt>
      <trkpt lat="42.5824" lon="19.79185">
        <ele>961.46002197266</ele>
        <time>2024-09-23T09:10:55.000Z</time>
      </trkpt>
      <trkpt lat="42.58246" lon="19.79158">
        <ele>961.46002197266</ele>
        <time>2024-09-23T09:10:56.000Z</time>
      </trkpt>
      <trkpt lat="42.58248" lon="19.79132">
        <ele>961.46002197266</ele>
        <time>2024-09-23T09:10:57.000Z</time>
      </trkpt>
      <trkpt lat="42.58246" lon="19.79107">
        <ele>961.46002197266</ele>
        <time>2024-09-23T09:10:58.000Z</time>
      </trkpt>
      <trkpt lat="42.5824" lon="19.79083">
        <ele>961.94000244141</ele>
        <time>2024-09-23T09:10:59.000Z</time>
      </trkpt>
      <trkpt lat="42.58223" lon="19.79037">
        <ele>961.94000244141</ele>
        <time>2024-09-23T09:11:00.000Z</time>
      </trkpt>
      <trkpt lat="42.58221" lon="19.79032">
        <ele>961.94000244141</ele>
        <time>2024-09-23T09:11:01.000Z</time>
      </trkpt>
      <trkpt lat="42.58215" lon="19.79008">
        <ele>961.46002197266</ele>
        <time>2024-09-23T09:11:02.000Z</time>
      </trkpt>
      <trkpt lat="42.58212" lon="19.78984">
        <ele>961.46002197266</ele>
        <time>2024-09-23T09:11:03.000Z</time>
      </trkpt>
      <trkpt lat="42.58214" lon="19.78958">
        <ele>961.94000244141</ele>
        <time>2024-09-23T09:11:04.000Z</time>
      </trkpt>
      <trkpt lat="42.58218" lon="19.78932">
        <ele>962.41998291016</ele>
        <time>2024-09-23T09:11:05.000Z</time>
      </trkpt>
      <trkpt lat="42.58246" lon="19.78816">
        <ele>962.90002441406</ele>
        <time>2024-09-23T09:11:10.000Z</time>
      </trkpt>
      <trkpt lat="42.58249" lon="19.78805">
        <ele>962.90002441406</ele>
        <time>2024-09-23T09:11:11.000Z</time>
      </trkpt>
      <trkpt lat="42.58256" lon="19.78783">
        <ele>962.41998291016</ele>
        <time>2024-09-23T09:11:12.000Z</time>
      </trkpt>
      <trkpt lat="42.58266" lon="19.78762">
        <ele>961.94000244141</ele>
        <time>2024-09-23T09:11:13.000Z</time>
      </trkpt>
      <trkpt lat="42.58278" lon="19.78742">
        <ele>961.94000244141</ele>
        <time>2024-09-23T09:11:14.000Z</time>
      </trkpt>
      <trkpt lat="42.58291" lon="19.78725">
        <ele>961.94000244141</ele>
        <time>2024-09-23T09:11:15.000Z</time>
      </trkpt>
      <trkpt lat="42.58331" lon="19.78675">
        <ele>962.41998291016</ele>
        <time>2024-09-23T09:11:17.000Z</time>
      </trkpt>
      <trkpt lat="42.58337" lon="19.78667">
        <ele>962.41998291016</ele>
        <time>2024-09-23T09:11:18.000Z</time>
      </trkpt>
      <trkpt lat="42.58349" lon="19.78646">
        <ele>962.41998291016</ele>
        <time>2024-09-23T09:11:19.000Z</time>
      </trkpt>
      <trkpt lat="42.5836" lon="19.78623">
        <ele>962.41998291016</ele>
        <time>2024-09-23T09:11:20.000Z</time>
      </trkpt>
      <trkpt lat="42.58367" lon="19.78597">
        <ele>962.41998291016</ele>
        <time>2024-09-23T09:11:21.000Z</time>
      </trkpt>
      <trkpt lat="42.58372" lon="19.78572">
        <ele>962.41998291016</ele>
        <time>2024-09-23T09:11:22.000Z</time>
      </trkpt>
      <trkpt lat="42.58382" lon="19.78498">
        <ele>962.90002441406</ele>
        <time>2024-09-23T09:11:24.000Z</time>
      </trkpt>
      <trkpt lat="42.58417" lon="19.78301">
        <ele>961.46002197266</ele>
        <time>2024-09-23T09:11:32.000Z</time>
      </trkpt>
      <trkpt lat="42.5843" lon="19.78184">
        <ele>960.01000976562</ele>
        <time>2024-09-23T09:11:36.000Z</time>
      </trkpt>
      <trkpt lat="42.58435" lon="19.78159">
        <ele>960.01000976562</ele>
        <time>2024-09-23T09:11:37.000Z</time>
      </trkpt>
      <trkpt lat="42.58437" lon="19.78149">
        <ele>960.01000976562</ele>
        <time>2024-09-23T09:11:38.000Z</time>
      </trkpt>
      <trkpt lat="42.58444" lon="19.78126">
        <ele>960.01000976562</ele>
        <time>2024-09-23T09:11:39.000Z</time>
      </trkpt>
      <trkpt lat="42.58453" lon="19.78103">
        <ele>960.48999023438</ele>
        <time>2024-09-23T09:11:40.000Z</time>
      </trkpt>
      <trkpt lat="42.58468" lon="19.78068">
        <ele>960.01000976562</ele>
        <time>2024-09-23T09:11:41.000Z</time>
      </trkpt>
      <trkpt lat="42.58472" lon="19.78058">
        <ele>960.01000976562</ele>
        <time>2024-09-23T09:11:42.000Z</time>
      </trkpt>
      <trkpt lat="42.58479" lon="19.78034">
        <ele>960.01000976562</ele>
        <time>2024-09-23T09:11:43.000Z</time>
      </trkpt>
      <trkpt lat="42.58484" lon="19.78009">
        <ele>960.48999023438</ele>
        <time>2024-09-23T09:11:44.000Z</time>
      </trkpt>
      <trkpt lat="42.58486" lon="19.77983">
        <ele>960.97998046875</ele>
        <time>2024-09-23T09:11:45.000Z</time>
      </trkpt>
      <trkpt lat="42.58484" lon="19.77953">
        <ele>960.97998046875</ele>
        <time>2024-09-23T09:11:46.000Z</time>
      </trkpt>
      <trkpt lat="42.58469" lon="19.77879">
        <ele>961.94000244141</ele>
        <time>2024-09-23T09:11:48.000Z</time>
      </trkpt>
      <trkpt lat="42.58467" lon="19.77872">
        <ele>961.94000244141</ele>
        <time>2024-09-23T09:11:49.000Z</time>
      </trkpt>
      <trkpt lat="42.5846" lon="19.77851">
        <ele>962.41998291016</ele>
        <time>2024-09-23T09:11:50.000Z</time>
      </trkpt>
      <trkpt lat="42.58431" lon="19.77784">
        <ele>962.90002441406</ele>
        <time>2024-09-23T09:11:52.000Z</time>
      </trkpt>
      <trkpt lat="42.58428" lon="19.77777">
        <ele>962.90002441406</ele>
        <time>2024-09-23T09:11:53.000Z</time>
      </trkpt>
      <trkpt lat="42.5842" lon="19.77752">
        <ele>962.41998291016</ele>
        <time>2024-09-23T09:11:54.000Z</time>
      </trkpt>
      <trkpt lat="42.58414" lon="19.77725">
        <ele>960.97998046875</ele>
        <time>2024-09-23T09:11:55.000Z</time>
      </trkpt>
      <trkpt lat="42.58411" lon="19.77698">
        <ele>960.01000976562</ele>
        <time>2024-09-23T09:11:56.000Z</time>
      </trkpt>
      <trkpt lat="42.5841" lon="19.7766">
        <ele>958.57000732422</ele>
        <time>2024-09-23T09:11:58.000Z</time>
      </trkpt>
      <trkpt lat="42.58409" lon="19.77647">
        <ele>958.09002685547</ele>
        <time>2024-09-23T09:11:59.000Z</time>
      </trkpt>
      <trkpt lat="42.58408" lon="19.77633">
        <ele>957.60998535156</ele>
        <time>2024-09-23T09:12:00.000Z</time>
      </trkpt>
      <trkpt lat="42.58402" lon="19.77598">
        <ele>957.13000488281</ele>
        <time>2024-09-23T09:12:05.000Z</time>
      </trkpt>
      <trkpt lat="42.58398" lon="19.77579">
        <ele>958.09002685547</ele>
        <time>2024-09-23T09:12:15.000Z</time>
      </trkpt>
      <trkpt lat="42.58398" lon="19.77579">
        <ele>958.09002685547</ele>
        <time>2024-09-23T09:13:14.000Z</time>
      </trkpt>
      <trkpt lat="42.58395" lon="19.77561">
        <ele>959.53002929688</ele>
        <time>2024-09-23T09:14:40.000Z</time>
      </trkpt>
      <trkpt lat="42.58394" lon="19.77558">
        <ele>959.53002929688</ele>
        <time>2024-09-23T09:14:41.000Z</time>
      </trkpt>
      <trkpt lat="42.58393" lon="19.77553">
        <ele>959.53002929688</ele>
        <time>2024-09-23T09:14:42.000Z</time>
      </trkpt>
      <trkpt lat="42.58391" lon="19.77544">
        <ele>959.53002929688</ele>
        <time>2024-09-23T09:14:43.000Z</time>
      </trkpt>
      <trkpt lat="42.58391" lon="19.77539">
        <ele>959.53002929688</ele>
        <time>2024-09-23T09:14:44.000Z</time>
      </trkpt>
      <trkpt lat="42.58388" lon="19.77525">
        <ele>959.53002929688</ele>
        <time>2024-09-23T09:14:45.000Z</time>
      </trkpt>
      <trkpt lat="42.58388" lon="19.77524">
        <ele>959.53002929688</ele>
        <time>2024-09-23T09:14:46.000Z</time>
      </trkpt>
      <trkpt lat="42.58386" lon="19.77516">
        <ele>959.04998779297</ele>
        <time>2024-09-23T09:14:47.000Z</time>
      </trkpt>
      <trkpt lat="42.58384" lon="19.77509">
        <ele>959.04998779297</ele>
        <time>2024-09-23T09:14:48.000Z</time>
      </trkpt>
      <trkpt lat="42.5838" lon="19.77503">
        <ele>958.57000732422</ele>
        <time>2024-09-23T09:14:49.000Z</time>
      </trkpt>
      <trkpt lat="42.58376" lon="19.77497">
        <ele>958.09002685547</ele>
        <time>2024-09-23T09:14:50.000Z</time>
      </trkpt>
      <trkpt lat="42.58358" lon="19.77484">
        <ele>956.65002441406</ele>
        <time>2024-09-23T09:14:53.000Z</time>
      </trkpt>
      <trkpt lat="42.58354" lon="19.77481">
        <ele>956.65002441406</ele>
        <time>2024-09-23T09:14:54.000Z</time>
      </trkpt>
      <trkpt lat="42.58345" lon="19.77473">
        <ele>956.16998291016</ele>
        <time>2024-09-23T09:15:02.000Z</time>
      </trkpt>
      <trkpt lat="42.58329" lon="19.77462">
        <ele>965.78002929688</ele>
        <time>2024-09-23T09:20:28.000Z</time>
      </trkpt>
      <trkpt lat="42.58311" lon="19.77438">
        <ele>962.41998291016</ele>
        <time>2024-09-23T09:20:39.000Z</time>
      </trkpt>
      <trkpt lat="42.58311" lon="19.77437">
        <ele>961.94000244141</ele>
        <time>2024-09-23T09:21:00.000Z</time>
      </trkpt>
      <trkpt lat="42.58313" lon="19.77432">
        <ele>953.77001953125</ele>
        <time>2024-09-23T09:34:51.000Z</time>
      </trkpt>
      <trkpt lat="42.58306" lon="19.77405">
        <ele>953.77001953125</ele>
        <time>2024-09-23T09:35:00.000Z</time>
      </trkpt>
      <trkpt lat="42.583" lon="19.77375">
        <ele>953.77001953125</ele>
        <time>2024-09-23T09:35:11.000Z</time>
      </trkpt>
      <trkpt lat="42.58299" lon="19.77374">
        <ele>953.77001953125</ele>
        <time>2024-09-23T09:35:28.000Z</time>
      </trkpt>
      <trkpt lat="42.58299" lon="19.77371">
        <ele>955.21002197266</ele>
        <time>2024-09-23T09:35:53.000Z</time>
      </trkpt>
      <trkpt lat="42.58298" lon="19.77367">
        <ele>955.21002197266</ele>
        <time>2024-09-23T09:36:05.000Z</time>
      </trkpt>
      <trkpt lat="42.58292" lon="19.77347">
        <ele>951.84002685547</ele>
        <time>2024-09-23T09:40:58.000Z</time>
      </trkpt>
      <trkpt lat="42.58289" lon="19.77336">
        <ele>951.84002685547</ele>
        <time>2024-09-23T09:40:59.000Z</time>
      </trkpt>
      <trkpt lat="42.58287" lon="19.77332">
        <ele>951.84002685547</ele>
        <time>2024-09-23T09:41:00.000Z</time>
      </trkpt>
      <trkpt lat="42.58285" lon="19.77324">
        <ele>951.84002685547</ele>
        <time>2024-09-23T09:41:01.000Z</time>
      </trkpt>
      <trkpt lat="42.58284" lon="19.77319">
        <ele>951.84002685547</ele>
        <time>2024-09-23T09:41:02.000Z</time>
      </trkpt>
      <trkpt lat="42.58281" lon="19.77299">
        <ele>952.32000732422</ele>
        <time>2024-09-23T09:41:04.000Z</time>
      </trkpt>
      <trkpt lat="42.58281" lon="19.77288">
        <ele>952.32000732422</ele>
        <time>2024-09-23T09:41:05.000Z</time>
      </trkpt>
      <trkpt lat="42.58281" lon="19.7728">
        <ele>952.79998779297</ele>
        <time>2024-09-23T09:41:06.000Z</time>
      </trkpt>
      <trkpt lat="42.58281" lon="19.77271">
        <ele>952.79998779297</ele>
        <time>2024-09-23T09:41:07.000Z</time>
      </trkpt>
      <trkpt lat="42.58283" lon="19.7726">
        <ele>952.79998779297</ele>
        <time>2024-09-23T09:41:08.000Z</time>
      </trkpt>
      <trkpt lat="42.58286" lon="19.77248">
        <ele>952.79998779297</ele>
        <time>2024-09-23T09:41:09.000Z</time>
      </trkpt>
      <trkpt lat="42.58288" lon="19.77239">
        <ele>952.79998779297</ele>
        <time>2024-09-23T09:41:10.000Z</time>
      </trkpt>
      <trkpt lat="42.58296" lon="19.77219">
        <ele>953.28002929688</ele>
        <time>2024-09-23T09:41:11.000Z</time>
      </trkpt>
      <trkpt lat="42.58298" lon="19.77215">
        <ele>953.28002929688</ele>
        <time>2024-09-23T09:41:12.000Z</time>
      </trkpt>
      <trkpt lat="42.5831" lon="19.77189">
        <ele>953.28002929688</ele>
        <time>2024-09-23T09:41:13.000Z</time>
      </trkpt>
      <trkpt lat="42.58313" lon="19.77182">
        <ele>953.28002929688</ele>
        <time>2024-09-23T09:41:14.000Z</time>
      </trkpt>
      <trkpt lat="42.58316" lon="19.77173">
        <ele>953.28002929688</ele>
        <time>2024-09-23T09:41:15.000Z</time>
      </trkpt>
      <trkpt lat="42.5832" lon="19.77159">
        <ele>953.77001953125</ele>
        <time>2024-09-23T09:41:16.000Z</time>
      </trkpt>
      <trkpt lat="42.58323" lon="19.77142">
        <ele>953.77001953125</ele>
        <time>2024-09-23T09:41:17.000Z</time>
      </trkpt>
      <trkpt lat="42.58324" lon="19.77126">
        <ele>954.25</ele>
        <time>2024-09-23T09:41:18.000Z</time>
      </trkpt>
      <trkpt lat="42.58325" lon="19.7711">
        <ele>954.25</ele>
        <time>2024-09-23T09:41:19.000Z</time>
      </trkpt>
      <trkpt lat="42.58315" lon="19.76996">
        <ele>955.69000244141</ele>
        <time>2024-09-23T09:41:26.000Z</time>
      </trkpt>
      <trkpt lat="42.58315" lon="19.76993">
        <ele>955.69000244141</ele>
        <time>2024-09-23T09:41:27.000Z</time>
      </trkpt>
      <trkpt lat="42.58309" lon="19.76868">
        <ele>957.13000488281</ele>
        <time>2024-09-23T09:41:35.000Z</time>
      </trkpt>
      <trkpt lat="42.5831" lon="19.76856">
        <ele>957.13000488281</ele>
        <time>2024-09-23T09:41:36.000Z</time>
      </trkpt>
      <trkpt lat="42.58311" lon="19.76846">
        <ele>957.13000488281</ele>
        <time>2024-09-23T09:41:37.000Z</time>
      </trkpt>
      <trkpt lat="42.58319" lon="19.76802">
        <ele>958.09002685547</ele>
        <time>2024-09-23T09:41:40.000Z</time>
      </trkpt>
      <trkpt lat="42.58342" lon="19.7673">
        <ele>962.41998291016</ele>
        <time>2024-09-23T09:41:45.000Z</time>
      </trkpt>
      <trkpt lat="42.58346" lon="19.7672">
        <ele>962.90002441406</ele>
        <time>2024-09-23T09:41:46.000Z</time>
      </trkpt>
      <trkpt lat="42.58359" lon="19.7669">
        <ele>963.85998535156</ele>
        <time>2024-09-23T09:41:48.000Z</time>
      </trkpt>
      <trkpt lat="42.58362" lon="19.76684">
        <ele>963.85998535156</ele>
        <time>2024-09-23T09:41:49.000Z</time>
      </trkpt>
      <trkpt lat="42.58366" lon="19.7667">
        <ele>963.85998535156</ele>
        <time>2024-09-23T09:41:50.000Z</time>
      </trkpt>
      <trkpt lat="42.5837" lon="19.76648">
        <ele>964.82000732422</ele>
        <time>2024-09-23T09:41:51.000Z</time>
      </trkpt>
      <trkpt lat="42.58376" lon="19.76611">
        <ele>966.26000976562</ele>
        <time>2024-09-23T09:41:54.000Z</time>
      </trkpt>
      <trkpt lat="42.584" lon="19.76483">
        <ele>972.03002929688</ele>
        <time>2024-09-23T09:42:02.000Z</time>
      </trkpt>
      <trkpt lat="42.58406" lon="19.76443">
        <ele>972.98999023438</ele>
        <time>2024-09-23T09:42:05.000Z</time>
      </trkpt>
      <trkpt lat="42.58407" lon="19.76427">
        <ele>972.98999023438</ele>
        <time>2024-09-23T09:42:06.000Z</time>
      </trkpt>
      <trkpt lat="42.58405" lon="19.76409">
        <ele>972.98999023438</ele>
        <time>2024-09-23T09:42:07.000Z</time>
      </trkpt>
      <trkpt lat="42.58403" lon="19.76394">
        <ele>972.98999023438</ele>
        <time>2024-09-23T09:42:08.000Z</time>
      </trkpt>
      <trkpt lat="42.58397" lon="19.76368">
        <ele>973.46997070312</ele>
        <time>2024-09-23T09:42:09.000Z</time>
      </trkpt>
      <trkpt lat="42.58387" lon="19.76311">
        <ele>973.95001220703</ele>
        <time>2024-09-23T09:42:12.000Z</time>
      </trkpt>
      <trkpt lat="42.58385" lon="19.76298">
        <ele>974.42999267578</ele>
        <time>2024-09-23T09:42:13.000Z</time>
      </trkpt>
      <trkpt lat="42.5838" lon="19.76263">
        <ele>974.42999267578</ele>
        <time>2024-09-23T09:42:15.000Z</time>
      </trkpt>
      <trkpt lat="42.58374" lon="19.76213">
        <ele>974.42999267578</ele>
        <time>2024-09-23T09:42:17.000Z</time>
      </trkpt>
      <trkpt lat="42.58373" lon="19.76204">
        <ele>974.42999267578</ele>
        <time>2024-09-23T09:42:18.000Z</time>
      </trkpt>
      <trkpt lat="42.58372" lon="19.76192">
        <ele>974.42999267578</ele>
        <time>2024-09-23T09:42:19.000Z</time>
      </trkpt>
      <trkpt lat="42.58373" lon="19.76174">
        <ele>974.42999267578</ele>
        <time>2024-09-23T09:42:20.000Z</time>
      </trkpt>
      <trkpt lat="42.58376" lon="19.76153">
        <ele>973.95001220703</ele>
        <time>2024-09-23T09:42:21.000Z</time>
      </trkpt>
      <trkpt lat="42.58381" lon="19.76111">
        <ele>972.51000976562</ele>
        <time>2024-09-23T09:42:23.000Z</time>
      </trkpt>
      <trkpt lat="42.58382" lon="19.76104">
        <ele>972.51000976562</ele>
        <time>2024-09-23T09:42:24.000Z</time>
      </trkpt>
      <trkpt lat="42.58384" lon="19.7608">
        <ele>973.46997070312</ele>
        <time>2024-09-23T09:42:25.000Z</time>
      </trkpt>
      <trkpt lat="42.58384" lon="19.76067">
        <ele>974.42999267578</ele>
        <time>2024-09-23T09:42:26.000Z</time>
      </trkpt>
      <trkpt lat="42.58384" lon="19.76048">
        <ele>976.35998535156</ele>
        <time>2024-09-23T09:42:27.000Z</time>
      </trkpt>
      <trkpt lat="42.58382" lon="19.75986">
        <ele>981.64001464844</ele>
        <time>2024-09-23T09:42:30.000Z</time>
      </trkpt>
      <trkpt lat="42.5838" lon="19.75972">
        <ele>983.09002685547</ele>
        <time>2024-09-23T09:42:31.000Z</time>
      </trkpt>
      <trkpt lat="42.58378" lon="19.75959">
        <ele>985.01000976562</ele>
        <time>2024-09-23T09:42:32.000Z</time>
      </trkpt>
      <trkpt lat="42.58373" lon="19.75938">
        <ele>986.92999267578</ele>
        <time>2024-09-23T09:42:33.000Z</time>
      </trkpt>
      <trkpt lat="42.5837" lon="19.75922">
        <ele>988.36999511719</ele>
        <time>2024-09-23T09:42:34.000Z</time>
      </trkpt>
      <trkpt lat="42.58368" lon="19.7591">
        <ele>989.33001708984</ele>
        <time>2024-09-23T09:42:35.000Z</time>
      </trkpt>
      <trkpt lat="42.58358" lon="19.75822">
        <ele>996.05999755859</ele>
        <time>2024-09-23T09:42:40.000Z</time>
      </trkpt>
      <trkpt lat="42.58357" lon="19.75814">
        <ele>997.02001953125</ele>
        <time>2024-09-23T09:42:41.000Z</time>
      </trkpt>
      <trkpt lat="42.58359" lon="19.75808">
        <ele>997.98999023438</ele>
        <time>2024-09-23T09:42:42.000Z</time>
      </trkpt>
      <trkpt lat="42.58363" lon="19.75807">
        <ele>998.95001220703</ele>
        <time>2024-09-23T09:42:43.000Z</time>
      </trkpt>
      <trkpt lat="42.58368" lon="19.7581">
        <ele>999.42999267578</ele>
        <time>2024-09-23T09:42:44.000Z</time>
      </trkpt>
      <trkpt lat="42.58372" lon="19.75818">
        <ele>999.90997314453</ele>
        <time>2024-09-23T09:42:45.000Z</time>
      </trkpt>
      <trkpt lat="42.58377" lon="19.75833">
        <ele>1000.8699951172</ele>
        <time>2024-09-23T09:42:46.000Z</time>
      </trkpt>
      <trkpt lat="42.58381" lon="19.75844">
        <ele>1000.8699951172</ele>
        <time>2024-09-23T09:42:47.000Z</time>
      </trkpt>
      <trkpt lat="42.58388" lon="19.7586">
        <ele>1000.8699951172</ele>
        <time>2024-09-23T09:42:48.000Z</time>
      </trkpt>
      <trkpt lat="42.58394" lon="19.75877">
        <ele>1001.3499755859</ele>
        <time>2024-09-23T09:42:50.000Z</time>
      </trkpt>
      <trkpt lat="42.58398" lon="19.75884">
        <ele>1001.8300170898</ele>
        <time>2024-09-23T09:42:51.000Z</time>
      </trkpt>
      <trkpt lat="42.58402" lon="19.75888">
        <ele>1002.7899780273</ele>
        <time>2024-09-23T09:42:52.000Z</time>
      </trkpt>
      <trkpt lat="42.58406" lon="19.75886">
        <ele>1003.2700195312</ele>
        <time>2024-09-23T09:42:53.000Z</time>
      </trkpt>
      <trkpt lat="42.58409" lon="19.75881">
        <ele>1003.75</ele>
        <time>2024-09-23T09:42:54.000Z</time>
      </trkpt>
      <trkpt lat="42.58409" lon="19.75873">
        <ele>1004.7199707031</ele>
        <time>2024-09-23T09:42:55.000Z</time>
      </trkpt>
      <trkpt lat="42.58407" lon="19.75848">
        <ele>1006.1599731445</ele>
        <time>2024-09-23T09:42:56.000Z</time>
      </trkpt>
      <trkpt lat="42.58405" lon="19.75821">
        <ele>1007.5999755859</ele>
        <time>2024-09-23T09:42:58.000Z</time>
      </trkpt>
      <trkpt lat="42.58403" lon="19.75779">
        <ele>1011.4400024414</ele>
        <time>2024-09-23T09:43:00.000Z</time>
      </trkpt>
      <trkpt lat="42.58401" lon="19.75761">
        <ele>1012.8900146484</ele>
        <time>2024-09-23T09:43:01.000Z</time>
      </trkpt>
      <trkpt lat="42.58397" lon="19.75733">
        <ele>1015.7700195312</ele>
        <time>2024-09-23T09:43:02.000Z</time>
      </trkpt>
      <trkpt lat="42.58391" lon="19.75699">
        <ele>1018.6500244141</ele>
        <time>2024-09-23T09:43:04.000Z</time>
      </trkpt>
      <trkpt lat="42.58388" lon="19.75682">
        <ele>1020.0999755859</ele>
        <time>2024-09-23T09:43:05.000Z</time>
      </trkpt>
      <trkpt lat="42.58385" lon="19.75651">
        <ele>1021.5399780273</ele>
        <time>2024-09-23T09:43:06.000Z</time>
      </trkpt>
      <trkpt lat="42.58384" lon="19.75645">
        <ele>1022.0200195312</ele>
        <time>2024-09-23T09:43:07.000Z</time>
      </trkpt>
      <trkpt lat="42.58381" lon="19.75632">
        <ele>1022.0200195312</ele>
        <time>2024-09-23T09:43:08.000Z</time>
      </trkpt>
      <trkpt lat="42.58375" lon="19.7562">
        <ele>1022.0200195312</ele>
        <time>2024-09-23T09:43:09.000Z</time>
      </trkpt>
      <trkpt lat="42.58363" lon="19.75602">
        <ele>1022.9799804688</ele>
        <time>2024-09-23T09:43:10.000Z</time>
      </trkpt>
      <trkpt lat="42.5836" lon="19.75595">
        <ele>1022.9799804688</ele>
        <time>2024-09-23T09:43:11.000Z</time>
      </trkpt>
      <trkpt lat="42.58353" lon="19.75578">
        <ele>1023.4600219727</ele>
        <time>2024-09-23T09:43:12.000Z</time>
      </trkpt>
      <trkpt lat="42.5835" lon="19.75566">
        <ele>1023.4600219727</ele>
        <time>2024-09-23T09:43:13.000Z</time>
      </trkpt>
      <trkpt lat="42.58349" lon="19.75552">
        <ele>1023.4600219727</ele>
        <time>2024-09-23T09:43:14.000Z</time>
      </trkpt>
      <trkpt lat="42.5835" lon="19.75537">
        <ele>1023.4600219727</ele>
        <time>2024-09-23T09:43:15.000Z</time>
      </trkpt>
      <trkpt lat="42.58354" lon="19.75509">
        <ele>1023.4600219727</ele>
        <time>2024-09-23T09:43:16.000Z</time>
      </trkpt>
      <trkpt lat="42.58356" lon="19.75493">
        <ele>1023.4600219727</ele>
        <time>2024-09-23T09:43:17.000Z</time>
      </trkpt>
      <trkpt lat="42.58357" lon="19.75473">
        <ele>1023.9400024414</ele>
        <time>2024-09-23T09:43:18.000Z</time>
      </trkpt>
      <trkpt lat="42.58356" lon="19.75451">
        <ele>1024.4200439453</ele>
        <time>2024-09-23T09:43:19.000Z</time>
      </trkpt>
      <trkpt lat="42.58353" lon="19.75406">
        <ele>1024.4200439453</ele>
        <time>2024-09-23T09:43:21.000Z</time>
      </trkpt>
      <trkpt lat="42.58352" lon="19.75396">
        <ele>1024.4200439453</ele>
        <time>2024-09-23T09:43:22.000Z</time>
      </trkpt>
      <trkpt lat="42.58348" lon="19.75376">
        <ele>1024.4200439453</ele>
        <time>2024-09-23T09:43:23.000Z</time>
      </trkpt>
      <trkpt lat="42.58317" lon="19.75273">
        <ele>1026.8299560547</ele>
        <time>2024-09-23T09:43:28.000Z</time>
      </trkpt>
      <trkpt lat="42.58307" lon="19.75247">
        <ele>1028.2700195312</ele>
        <time>2024-09-23T09:43:29.000Z</time>
      </trkpt>
      <trkpt lat="42.58304" lon="19.75238">
        <ele>1028.75</ele>
        <time>2024-09-23T09:43:30.000Z</time>
      </trkpt>
      <trkpt lat="42.58282" lon="19.75173">
        <ele>1032.1099853516</ele>
        <time>2024-09-23T09:43:33.000Z</time>
      </trkpt>
      <trkpt lat="42.5828" lon="19.75166">
        <ele>1032.5899658203</ele>
        <time>2024-09-23T09:43:34.000Z</time>
      </trkpt>
      <trkpt lat="42.58277" lon="19.75149">
        <ele>1033.5500488281</ele>
        <time>2024-09-23T09:43:35.000Z</time>
      </trkpt>
      <trkpt lat="42.58278" lon="19.75133">
        <ele>1034.5200195312</ele>
        <time>2024-09-23T09:43:36.000Z</time>
      </trkpt>
      <trkpt lat="42.58285" lon="19.75114">
        <ele>1036.9200439453</ele>
        <time>2024-09-23T09:43:37.000Z</time>
      </trkpt>
      <trkpt lat="42.58287" lon="19.75105">
        <ele>1037.8800048828</ele>
        <time>2024-09-23T09:43:38.000Z</time>
      </trkpt>
      <trkpt lat="42.5829" lon="19.75089">
        <ele>1038.8399658203</ele>
        <time>2024-09-23T09:43:39.000Z</time>
      </trkpt>
      <trkpt lat="42.58291" lon="19.75074">
        <ele>1039.3199462891</ele>
        <time>2024-09-23T09:43:40.000Z</time>
      </trkpt>
      <trkpt lat="42.58291" lon="19.75057">
        <ele>1039.3199462891</ele>
        <time>2024-09-23T09:43:41.000Z</time>
      </trkpt>
      <trkpt lat="42.58289" lon="19.75029">
        <ele>1037.4000244141</ele>
        <time>2024-09-23T09:43:42.000Z</time>
      </trkpt>
      <trkpt lat="42.58288" lon="19.75021">
        <ele>1036.9200439453</ele>
        <time>2024-09-23T09:43:43.000Z</time>
      </trkpt>
      <trkpt lat="42.58286" lon="19.74994">
        <ele>1034.5200195312</ele>
        <time>2024-09-23T09:43:44.000Z</time>
      </trkpt>
      <trkpt lat="42.58286" lon="19.7498">
        <ele>1033.5500488281</ele>
        <time>2024-09-23T09:43:45.000Z</time>
      </trkpt>
      <trkpt lat="42.58286" lon="19.74973">
        <ele>1033.0699462891</ele>
        <time>2024-09-23T09:43:46.000Z</time>
      </trkpt>
      <trkpt lat="42.58289" lon="19.74958">
        <ele>1031.6300048828</ele>
        <time>2024-09-23T09:43:47.000Z</time>
      </trkpt>
      <trkpt lat="42.58294" lon="19.74946">
        <ele>1030.1899414062</ele>
        <time>2024-09-23T09:43:48.000Z</time>
      </trkpt>
      <trkpt lat="42.583" lon="19.74935">
        <ele>1029.2299804688</ele>
        <time>2024-09-23T09:43:49.000Z</time>
      </trkpt>
      <trkpt lat="42.58305" lon="19.74923">
        <ele>1026.8299560547</ele>
        <time>2024-09-23T09:43:50.000Z</time>
      </trkpt>
      <trkpt lat="42.58308" lon="19.74908">
        <ele>1024.9000244141</ele>
        <time>2024-09-23T09:43:51.000Z</time>
      </trkpt>
      <trkpt lat="42.58309" lon="19.74889">
        <ele>1022.9799804688</ele>
        <time>2024-09-23T09:43:52.000Z</time>
      </trkpt>
      <trkpt lat="42.5831" lon="19.74869">
        <ele>1020.0999755859</ele>
        <time>2024-09-23T09:43:53.000Z</time>
      </trkpt>
      <trkpt lat="42.58311" lon="19.74856">
        <ele>1018.1699829102</ele>
        <time>2024-09-23T09:43:54.000Z</time>
      </trkpt>
      <trkpt lat="42.58312" lon="19.74843">
        <ele>1016.25</ele>
        <time>2024-09-23T09:43:55.000Z</time>
      </trkpt>
      <trkpt lat="42.58316" lon="19.74828">
        <ele>1014.3300170898</ele>
        <time>2024-09-23T09:43:56.000Z</time>
      </trkpt>
      <trkpt lat="42.58323" lon="19.7481">
        <ele>1012.4099731445</ele>
        <time>2024-09-23T09:43:57.000Z</time>
      </trkpt>
      <trkpt lat="42.58325" lon="19.74804">
        <ele>1011.4400024414</ele>
        <time>2024-09-23T09:43:58.000Z</time>
      </trkpt>
      <trkpt lat="42.58324" lon="19.74795">
        <ele>1010.9600219727</ele>
        <time>2024-09-23T09:43:59.000Z</time>
      </trkpt>
      <trkpt lat="42.58321" lon="19.74787">
        <ele>1010</ele>
        <time>2024-09-23T09:44:00.000Z</time>
      </trkpt>
      <trkpt lat="42.5831" lon="19.74775">
        <ele>1009.0399780273</ele>
        <time>2024-09-23T09:44:01.000Z</time>
      </trkpt>
      <trkpt lat="42.58298" lon="19.74759">
        <ele>1007.5999755859</ele>
        <time>2024-09-23T09:44:03.000Z</time>
      </trkpt>
      <trkpt lat="42.58294" lon="19.74753">
        <ele>1007.5999755859</ele>
        <time>2024-09-23T09:44:04.000Z</time>
      </trkpt>
      <trkpt lat="42.58278" lon="19.74732">
        <ele>1007.5999755859</ele>
        <time>2024-09-23T09:44:07.000Z</time>
      </trkpt>
      <trkpt lat="42.58273" lon="19.74726">
        <ele>1007.5999755859</ele>
        <time>2024-09-23T09:44:08.000Z</time>
      </trkpt>
      <trkpt lat="42.58265" lon="19.74718">
        <ele>1007.5999755859</ele>
        <time>2024-09-23T09:44:09.000Z</time>
      </trkpt>
      <trkpt lat="42.58261" lon="19.74716">
        <ele>1007.5999755859</ele>
        <time>2024-09-23T09:44:10.000Z</time>
      </trkpt>
      <trkpt lat="42.58257" lon="19.74715">
        <ele>1008.0800170898</ele>
        <time>2024-09-23T09:44:11.000Z</time>
      </trkpt>
      <trkpt lat="42.58253" lon="19.74717">
        <ele>1008.5599975586</ele>
        <time>2024-09-23T09:44:12.000Z</time>
      </trkpt>
      <trkpt lat="42.58253" lon="19.74746">
        <ele>1010.4799804688</ele>
        <time>2024-09-23T09:44:18.000Z</time>
      </trkpt>
      <trkpt lat="42.58251" lon="19.74751">
        <ele>1010.9600219727</ele>
        <time>2024-09-23T09:44:19.000Z</time>
      </trkpt>
      <trkpt lat="42.58247" lon="19.74754">
        <ele>1010.9600219727</ele>
        <time>2024-09-23T09:44:20.000Z</time>
      </trkpt>
      <trkpt lat="42.58241" lon="19.74754">
        <ele>1011.4400024414</ele>
        <time>2024-09-23T09:44:21.000Z</time>
      </trkpt>
      <trkpt lat="42.58235" lon="19.74751">
        <ele>1011.9299926758</ele>
        <time>2024-09-23T09:44:22.000Z</time>
      </trkpt>
      <trkpt lat="42.58229" lon="19.74746">
        <ele>1011.9299926758</ele>
        <time>2024-09-23T09:44:23.000Z</time>
      </trkpt>
      <trkpt lat="42.58224" lon="19.7474">
        <ele>1012.4099731445</ele>
        <time>2024-09-23T09:44:24.000Z</time>
      </trkpt>
      <trkpt lat="42.58219" lon="19.74734">
        <ele>1012.8900146484</ele>
        <time>2024-09-23T09:44:25.000Z</time>
      </trkpt>
      <trkpt lat="42.58217" lon="19.7473">
        <ele>1013.8499755859</ele>
        <time>2024-09-23T09:44:30.000Z</time>
      </trkpt>
      <trkpt lat="42.58213" lon="19.74727">
        <ele>1015.2899780273</ele>
        <time>2024-09-23T09:45:21.000Z</time>
      </trkpt>
      <trkpt lat="42.58208" lon="19.74723">
        <ele>1015.2899780273</ele>
        <time>2024-09-23T09:45:22.000Z</time>
      </trkpt>
      <trkpt lat="42.58203" lon="19.74721">
        <ele>1015.7700195312</ele>
        <time>2024-09-23T09:45:23.000Z</time>
      </trkpt>
      <trkpt lat="42.58195" lon="19.74718">
        <ele>1016.25</ele>
        <time>2024-09-23T09:45:24.000Z</time>
      </trkpt>
      <trkpt lat="42.58187" lon="19.74717">
        <ele>1017.6900024414</ele>
        <time>2024-09-23T09:45:25.000Z</time>
      </trkpt>
      <trkpt lat="42.58179" lon="19.74718">
        <ele>1018.6500244141</ele>
        <time>2024-09-23T09:45:26.000Z</time>
      </trkpt>
      <trkpt lat="42.5816" lon="19.74722">
        <ele>1021.0599975586</ele>
        <time>2024-09-23T09:45:28.000Z</time>
      </trkpt>
      <trkpt lat="42.58153" lon="19.74723">
        <ele>1022.0200195312</ele>
        <time>2024-09-23T09:45:29.000Z</time>
      </trkpt>
      <trkpt lat="42.58143" lon="19.74723">
        <ele>1022.9799804688</ele>
        <time>2024-09-23T09:45:30.000Z</time>
      </trkpt>
      <trkpt lat="42.58122" lon="19.74719">
        <ele>1023.9400024414</ele>
        <time>2024-09-23T09:45:32.000Z</time>
      </trkpt>
      <trkpt lat="42.58111" lon="19.74717">
        <ele>1024.9000244141</ele>
        <time>2024-09-23T09:45:33.000Z</time>
      </trkpt>
      <trkpt lat="42.58102" lon="19.74714">
        <ele>1024.9000244141</ele>
        <time>2024-09-23T09:45:34.000Z</time>
      </trkpt>
      <trkpt lat="42.58097" lon="19.74712">
        <ele>1024.9000244141</ele>
        <time>2024-09-23T09:45:35.000Z</time>
      </trkpt>
      <trkpt lat="42.58088" lon="19.74707">
        <ele>1024.9000244141</ele>
        <time>2024-09-23T09:45:36.000Z</time>
      </trkpt>
      <trkpt lat="42.58079" lon="19.74701">
        <ele>1024.9000244141</ele>
        <time>2024-09-23T09:45:37.000Z</time>
      </trkpt>
      <trkpt lat="42.58073" lon="19.74694">
        <ele>1024.9000244141</ele>
        <time>2024-09-23T09:45:38.000Z</time>
      </trkpt>
      <trkpt lat="42.58068" lon="19.74684">
        <ele>1024.9000244141</ele>
        <time>2024-09-23T09:45:39.000Z</time>
      </trkpt>
      <trkpt lat="42.58066" lon="19.74672">
        <ele>1024.9000244141</ele>
        <time>2024-09-23T09:45:40.000Z</time>
      </trkpt>
      <trkpt lat="42.58066" lon="19.7466">
        <ele>1024.9000244141</ele>
        <time>2024-09-23T09:45:41.000Z</time>
      </trkpt>
      <trkpt lat="42.58067" lon="19.74646">
        <ele>1024.9000244141</ele>
        <time>2024-09-23T09:45:42.000Z</time>
      </trkpt>
      <trkpt lat="42.58068" lon="19.74636">
        <ele>1024.9000244141</ele>
        <time>2024-09-23T09:45:43.000Z</time>
      </trkpt>
      <trkpt lat="42.58068" lon="19.74627">
        <ele>1024.9000244141</ele>
        <time>2024-09-23T09:45:44.000Z</time>
      </trkpt>
      <trkpt lat="42.58065" lon="19.74616">
        <ele>1024.9000244141</ele>
        <time>2024-09-23T09:45:45.000Z</time>
      </trkpt>
      <trkpt lat="42.5806" lon="19.74606">
        <ele>1024.4200439453</ele>
        <time>2024-09-23T09:45:46.000Z</time>
      </trkpt>
      <trkpt lat="42.58053" lon="19.74598">
        <ele>1024.4200439453</ele>
        <time>2024-09-23T09:45:47.000Z</time>
      </trkpt>
      <trkpt lat="42.58046" lon="19.74593">
        <ele>1023.9400024414</ele>
        <time>2024-09-23T09:45:48.000Z</time>
      </trkpt>
      <trkpt lat="42.58038" lon="19.74592">
        <ele>1023.9400024414</ele>
        <time>2024-09-23T09:45:49.000Z</time>
      </trkpt>
      <trkpt lat="42.58031" lon="19.74596">
        <ele>1023.9400024414</ele>
        <time>2024-09-23T09:45:50.000Z</time>
      </trkpt>
      <trkpt lat="42.58024" lon="19.74601">
        <ele>1023.9400024414</ele>
        <time>2024-09-23T09:45:51.000Z</time>
      </trkpt>
      <trkpt lat="42.58017" lon="19.74605">
        <ele>1023.4600219727</ele>
        <time>2024-09-23T09:45:52.000Z</time>
      </trkpt>
      <trkpt lat="42.58011" lon="19.74603">
        <ele>1023.4600219727</ele>
        <time>2024-09-23T09:45:53.000Z</time>
      </trkpt>
      <trkpt lat="42.58005" lon="19.74598">
        <ele>1023.4600219727</ele>
        <time>2024-09-23T09:45:54.000Z</time>
      </trkpt>
      <trkpt lat="42.58001" lon="19.74589">
        <ele>1023.9400024414</ele>
        <time>2024-09-23T09:45:55.000Z</time>
      </trkpt>
      <trkpt lat="42.57994" lon="19.74571">
        <ele>1025.3800048828</ele>
        <time>2024-09-23T09:45:56.000Z</time>
      </trkpt>
      <trkpt lat="42.57986" lon="19.74553">
        <ele>1026.3399658203</ele>
        <time>2024-09-23T09:45:57.000Z</time>
      </trkpt>
      <trkpt lat="42.57984" lon="19.74548">
        <ele>1026.8299560547</ele>
        <time>2024-09-23T09:45:58.000Z</time>
      </trkpt>
      <trkpt lat="42.5798" lon="19.74535">
        <ele>1027.3100585938</ele>
        <time>2024-09-23T09:45:59.000Z</time>
      </trkpt>
      <trkpt lat="42.57976" lon="19.74517">
        <ele>1028.75</ele>
        <time>2024-09-23T09:46:00.000Z</time>
      </trkpt>
      <trkpt lat="42.57974" lon="19.74506">
        <ele>1029.2299804688</ele>
        <time>2024-09-23T09:46:01.000Z</time>
      </trkpt>
      <trkpt lat="42.5797" lon="19.74466">
        <ele>1028.2700195312</ele>
        <time>2024-09-23T09:46:03.000Z</time>
      </trkpt>
      <trkpt lat="42.57951" lon="19.7437">
        <ele>1029.7099609375</ele>
        <time>2024-09-23T09:46:10.000Z</time>
      </trkpt>
      <trkpt lat="42.57946" lon="19.74334">
        <ele>1031.1500244141</ele>
        <time>2024-09-23T09:46:11.000Z</time>
      </trkpt>
      <trkpt lat="42.57945" lon="19.74323">
        <ele>1031.6300048828</ele>
        <time>2024-09-23T09:46:12.000Z</time>
      </trkpt>
      <trkpt lat="42.57943" lon="19.74299">
        <ele>1033.5500488281</ele>
        <time>2024-09-23T09:46:13.000Z</time>
      </trkpt>
      <trkpt lat="42.57942" lon="19.74288">
        <ele>1035</ele>
        <time>2024-09-23T09:46:14.000Z</time>
      </trkpt>
      <trkpt lat="42.57942" lon="19.74281">
        <ele>1035.9599609375</ele>
        <time>2024-09-23T09:46:15.000Z</time>
      </trkpt>
      <trkpt lat="42.57944" lon="19.74267">
        <ele>1037.4000244141</ele>
        <time>2024-09-23T09:46:16.000Z</time>
      </trkpt>
      <trkpt lat="42.57947" lon="19.74256">
        <ele>1038.3599853516</ele>
        <time>2024-09-23T09:46:17.000Z</time>
      </trkpt>
      <trkpt lat="42.57949" lon="19.74246">
        <ele>1039.3199462891</ele>
        <time>2024-09-23T09:46:18.000Z</time>
      </trkpt>
      <trkpt lat="42.57951" lon="19.7424">
        <ele>1038.8399658203</ele>
        <time>2024-09-23T09:46:19.000Z</time>
      </trkpt>
      <trkpt lat="42.57941" lon="19.74233">
        <ele>1040.2800292969</ele>
        <time>2024-09-23T09:46:22.000Z</time>
      </trkpt>
      <trkpt lat="42.5794" lon="19.74235">
        <ele>1040.2800292969</ele>
        <time>2024-09-23T09:46:23.000Z</time>
      </trkpt>
      <trkpt lat="42.57936" lon="19.74241">
        <ele>1040.7600097656</ele>
        <time>2024-09-23T09:46:24.000Z</time>
      </trkpt>
      <trkpt lat="42.57933" lon="19.74252">
        <ele>1041.25</ele>
        <time>2024-09-23T09:46:25.000Z</time>
      </trkpt>
      <trkpt lat="42.57931" lon="19.74258">
        <ele>1041.25</ele>
        <time>2024-09-23T09:46:26.000Z</time>
      </trkpt>
      <trkpt lat="42.57929" lon="19.74268">
        <ele>1041.25</ele>
        <time>2024-09-23T09:46:27.000Z</time>
      </trkpt>
      <trkpt lat="42.57927" lon="19.74282">
        <ele>1041.7299804688</ele>
        <time>2024-09-23T09:46:28.000Z</time>
      </trkpt>
      <trkpt lat="42.57925" lon="19.74307">
        <ele>1042.2099609375</ele>
        <time>2024-09-23T09:46:30.000Z</time>
      </trkpt>
      <trkpt lat="42.57925" lon="19.74335">
        <ele>1042.6899414062</ele>
        <time>2024-09-23T09:46:32.000Z</time>
      </trkpt>
      <trkpt lat="42.57925" lon="19.74349">
        <ele>1043.1700439453</ele>
        <time>2024-09-23T09:46:33.000Z</time>
      </trkpt>
      <trkpt lat="42.57926" lon="19.74369">
        <ele>1043.6500244141</ele>
        <time>2024-09-23T09:46:34.000Z</time>
      </trkpt>
      <trkpt lat="42.57925" lon="19.74424">
        <ele>1045.0899658203</ele>
        <time>2024-09-23T09:46:38.000Z</time>
      </trkpt>
      <trkpt lat="42.57925" lon="19.74436">
        <ele>1045.5699462891</ele>
        <time>2024-09-23T09:46:39.000Z</time>
      </trkpt>
      <trkpt lat="42.57923" lon="19.74451">
        <ele>1046.5300292969</ele>
        <time>2024-09-23T09:46:40.000Z</time>
      </trkpt>
      <trkpt lat="42.57918" lon="19.74466">
        <ele>1047.9699707031</ele>
        <time>2024-09-23T09:46:41.000Z</time>
      </trkpt>
      <trkpt lat="42.57912" lon="19.74477">
        <ele>1049.4200439453</ele>
        <time>2024-09-23T09:46:42.000Z</time>
      </trkpt>
      <trkpt lat="42.57903" lon="19.74487">
        <ele>1050.3800048828</ele>
        <time>2024-09-23T09:46:43.000Z</time>
      </trkpt>
      <trkpt lat="42.5789" lon="19.74495">
        <ele>1051.8199462891</ele>
        <time>2024-09-23T09:46:44.000Z</time>
      </trkpt>
      <trkpt lat="42.5788" lon="19.745">
        <ele>1052.3000488281</ele>
        <time>2024-09-23T09:46:45.000Z</time>
      </trkpt>
      <trkpt lat="42.57845" lon="19.74513">
        <ele>1054.6999511719</ele>
        <time>2024-09-23T09:46:47.000Z</time>
      </trkpt>
      <trkpt lat="42.5784" lon="19.74514">
        <ele>1055.1800537109</ele>
        <time>2024-09-23T09:46:48.000Z</time>
      </trkpt>
      <trkpt lat="42.57829" lon="19.74513">
        <ele>1056.1500244141</ele>
        <time>2024-09-23T09:46:49.000Z</time>
      </trkpt>
      <trkpt lat="42.57819" lon="19.74507">
        <ele>1057.5899658203</ele>
        <time>2024-09-23T09:46:50.000Z</time>
      </trkpt>
      <trkpt lat="42.5781" lon="19.74497">
        <ele>1059.5100097656</ele>
        <time>2024-09-23T09:46:51.000Z</time>
      </trkpt>
      <trkpt lat="42.57799" lon="19.74482">
        <ele>1061.4300537109</ele>
        <time>2024-09-23T09:46:52.000Z</time>
      </trkpt>
      <trkpt lat="42.57791" lon="19.74472">
        <ele>1062.3900146484</ele>
        <time>2024-09-23T09:46:53.000Z</time>
      </trkpt>
      <trkpt lat="42.5778" lon="19.74463">
        <ele>1063.3599853516</ele>
        <time>2024-09-23T09:46:54.000Z</time>
      </trkpt>
      <trkpt lat="42.57764" lon="19.74454">
        <ele>1064.8000488281</ele>
        <time>2024-09-23T09:46:55.000Z</time>
      </trkpt>
      <trkpt lat="42.57752" lon="19.74449">
        <ele>1065.7600097656</ele>
        <time>2024-09-23T09:46:56.000Z</time>
      </trkpt>
      <trkpt lat="42.57736" lon="19.74441">
        <ele>1066.2399902344</ele>
        <time>2024-09-23T09:46:57.000Z</time>
      </trkpt>
      <trkpt lat="42.57723" lon="19.74436">
        <ele>1066.7199707031</ele>
        <time>2024-09-23T09:46:58.000Z</time>
      </trkpt>
      <trkpt lat="42.57709" lon="19.74433">
        <ele>1067.6800537109</ele>
        <time>2024-09-23T09:46:59.000Z</time>
      </trkpt>
      <trkpt lat="42.57692" lon="19.74431">
        <ele>1069.5999755859</ele>
        <time>2024-09-23T09:47:00.000Z</time>
      </trkpt>
      <trkpt lat="42.57667" lon="19.74428">
        <ele>1072.9699707031</ele>
        <time>2024-09-23T09:47:01.000Z</time>
      </trkpt>
      <trkpt lat="42.57637" lon="19.74421">
        <ele>1076.3299560547</ele>
        <time>2024-09-23T09:47:03.000Z</time>
      </trkpt>
      <trkpt lat="42.57631" lon="19.7442">
        <ele>1076.8100585938</ele>
        <time>2024-09-23T09:47:04.000Z</time>
      </trkpt>
      <trkpt lat="42.57618" lon="19.74416">
        <ele>1078.2600097656</ele>
        <time>2024-09-23T09:47:05.000Z</time>
      </trkpt>
      <trkpt lat="42.57605" lon="19.74409">
        <ele>1078.7399902344</ele>
        <time>2024-09-23T09:47:06.000Z</time>
      </trkpt>
      <trkpt lat="42.57592" lon="19.74401">
        <ele>1079.2199707031</ele>
        <time>2024-09-23T09:47:07.000Z</time>
      </trkpt>
      <trkpt lat="42.57582" lon="19.74389">
        <ele>1079.6999511719</ele>
        <time>2024-09-23T09:47:08.000Z</time>
      </trkpt>
      <trkpt lat="42.57572" lon="19.74372">
        <ele>1080.6600341797</ele>
        <time>2024-09-23T09:47:09.000Z</time>
      </trkpt>
      <trkpt lat="42.57563" lon="19.74356">
        <ele>1081.1400146484</ele>
        <time>2024-09-23T09:47:10.000Z</time>
      </trkpt>
      <trkpt lat="42.57555" lon="19.74345">
        <ele>1081.1400146484</ele>
        <time>2024-09-23T09:47:11.000Z</time>
      </trkpt>
      <trkpt lat="42.57547" lon="19.74334">
        <ele>1081.1400146484</ele>
        <time>2024-09-23T09:47:12.000Z</time>
      </trkpt>
      <trkpt lat="42.57537" lon="19.74327">
        <ele>1080.1800537109</ele>
        <time>2024-09-23T09:47:13.000Z</time>
      </trkpt>
      <trkpt lat="42.57526" lon="19.74323">
        <ele>1079.2199707031</ele>
        <time>2024-09-23T09:47:14.000Z</time>
      </trkpt>
      <trkpt lat="42.57514" lon="19.74321">
        <ele>1078.7399902344</ele>
        <time>2024-09-23T09:47:15.000Z</time>
      </trkpt>
      <trkpt lat="42.57503" lon="19.74314">
        <ele>1077.7800292969</ele>
        <time>2024-09-23T09:47:16.000Z</time>
      </trkpt>
      <trkpt lat="42.57493" lon="19.74302">
        <ele>1077.2900390625</ele>
        <time>2024-09-23T09:47:17.000Z</time>
      </trkpt>
      <trkpt lat="42.57483" lon="19.74288">
        <ele>1076.3299560547</ele>
        <time>2024-09-23T09:47:18.000Z</time>
      </trkpt>
      <trkpt lat="42.57476" lon="19.74276">
        <ele>1075.8499755859</ele>
        <time>2024-09-23T09:47:19.000Z</time>
      </trkpt>
      <trkpt lat="42.57472" lon="19.74263">
        <ele>1075.8499755859</ele>
        <time>2024-09-23T09:47:20.000Z</time>
      </trkpt>
      <trkpt lat="42.57471" lon="19.74249">
        <ele>1075.3699951172</ele>
        <time>2024-09-23T09:47:21.000Z</time>
      </trkpt>
      <trkpt lat="42.57471" lon="19.74218">
        <ele>1074.4100341797</ele>
        <time>2024-09-23T09:47:22.000Z</time>
      </trkpt>
      <trkpt lat="42.5747" lon="19.74214">
        <ele>1074.4100341797</ele>
        <time>2024-09-23T09:47:23.000Z</time>
      </trkpt>
      <trkpt lat="42.5747" lon="19.74196">
        <ele>1073.9300537109</ele>
        <time>2024-09-23T09:47:24.000Z</time>
      </trkpt>
      <trkpt lat="42.57468" lon="19.74175">
        <ele>1073.4499511719</ele>
        <time>2024-09-23T09:47:25.000Z</time>
      </trkpt>
      <trkpt lat="42.57467" lon="19.74162">
        <ele>1072.9699707031</ele>
        <time>2024-09-23T09:47:26.000Z</time>
      </trkpt>
      <trkpt lat="42.57464" lon="19.74146">
        <ele>1072.4899902344</ele>
        <time>2024-09-23T09:47:27.000Z</time>
      </trkpt>
      <trkpt lat="42.57457" lon="19.74131">
        <ele>1072.0100097656</ele>
        <time>2024-09-23T09:47:28.000Z</time>
      </trkpt>
      <trkpt lat="42.57449" lon="19.74119">
        <ele>1072.0100097656</ele>
        <time>2024-09-23T09:47:29.000Z</time>
      </trkpt>
      <trkpt lat="42.57438" lon="19.74109">
        <ele>1072.0100097656</ele>
        <time>2024-09-23T09:47:30.000Z</time>
      </trkpt>
      <trkpt lat="42.57425" lon="19.74101">
        <ele>1072.4899902344</ele>
        <time>2024-09-23T09:47:31.000Z</time>
      </trkpt>
      <trkpt lat="42.57413" lon="19.74096">
        <ele>1072.4899902344</ele>
        <time>2024-09-23T09:47:32.000Z</time>
      </trkpt>
      <trkpt lat="42.57406" lon="19.74089">
        <ele>1072.0100097656</ele>
        <time>2024-09-23T09:47:33.000Z</time>
      </trkpt>
      <trkpt lat="42.574" lon="19.74081">
        <ele>1071.5300292969</ele>
        <time>2024-09-23T09:47:34.000Z</time>
      </trkpt>
      <trkpt lat="42.57399" lon="19.74074">
        <ele>1071.5300292969</ele>
        <time>2024-09-23T09:47:35.000Z</time>
      </trkpt>
      <trkpt lat="42.57402" lon="19.74064">
        <ele>1071.5300292969</ele>
        <time>2024-09-23T09:47:36.000Z</time>
      </trkpt>
      <trkpt lat="42.57401" lon="19.74053">
        <ele>1072.4899902344</ele>
        <time>2024-09-23T09:47:37.000Z</time>
      </trkpt>
      <trkpt lat="42.57398" lon="19.74046">
        <ele>1072.9699707031</ele>
        <time>2024-09-23T09:47:38.000Z</time>
      </trkpt>
      <trkpt lat="42.5739" lon="19.7404">
        <ele>1073.4499511719</ele>
        <time>2024-09-23T09:47:39.000Z</time>
      </trkpt>
      <trkpt lat="42.57382" lon="19.74035">
        <ele>1073.9300537109</ele>
        <time>2024-09-23T09:47:40.000Z</time>
      </trkpt>
      <trkpt lat="42.57368" lon="19.74028">
        <ele>1074.8900146484</ele>
        <time>2024-09-23T09:47:41.000Z</time>
      </trkpt>
      <trkpt lat="42.5736" lon="19.74024">
        <ele>1075.3699951172</ele>
        <time>2024-09-23T09:47:42.000Z</time>
      </trkpt>
      <trkpt lat="42.57349" lon="19.74022">
        <ele>1075.8499755859</ele>
        <time>2024-09-23T09:47:43.000Z</time>
      </trkpt>
      <trkpt lat="42.57336" lon="19.74021">
        <ele>1076.3299560547</ele>
        <time>2024-09-23T09:47:44.000Z</time>
      </trkpt>
      <trkpt lat="42.57329" lon="19.74018">
        <ele>1075.8499755859</ele>
        <time>2024-09-23T09:47:45.000Z</time>
      </trkpt>
      <trkpt lat="42.57322" lon="19.74012">
        <ele>1075.3699951172</ele>
        <time>2024-09-23T09:47:46.000Z</time>
      </trkpt>
      <trkpt lat="42.57316" lon="19.74004">
        <ele>1075.3699951172</ele>
        <time>2024-09-23T09:47:47.000Z</time>
      </trkpt>
      <trkpt lat="42.57314" lon="19.73993">
        <ele>1075.3699951172</ele>
        <time>2024-09-23T09:47:48.000Z</time>
      </trkpt>
      <trkpt lat="42.57309" lon="19.73985">
        <ele>1075.3699951172</ele>
        <time>2024-09-23T09:47:49.000Z</time>
      </trkpt>
      <trkpt lat="42.57302" lon="19.73979">
        <ele>1075.3699951172</ele>
        <time>2024-09-23T09:47:50.000Z</time>
      </trkpt>
      <trkpt lat="42.57292" lon="19.73974">
        <ele>1075.3699951172</ele>
        <time>2024-09-23T09:47:51.000Z</time>
      </trkpt>
      <trkpt lat="42.57277" lon="19.7397">
        <ele>1074.8900146484</ele>
        <time>2024-09-23T09:47:52.000Z</time>
      </trkpt>
      <trkpt lat="42.57266" lon="19.73968">
        <ele>1074.8900146484</ele>
        <time>2024-09-23T09:47:53.000Z</time>
      </trkpt>
      <trkpt lat="42.5725" lon="19.73967">
        <ele>1075.3699951172</ele>
        <time>2024-09-23T09:47:54.000Z</time>
      </trkpt>
      <trkpt lat="42.57235" lon="19.73968">
        <ele>1075.3699951172</ele>
        <time>2024-09-23T09:47:55.000Z</time>
      </trkpt>
      <trkpt lat="42.57209" lon="19.73973">
        <ele>1077.2900390625</ele>
        <time>2024-09-23T09:47:56.000Z</time>
      </trkpt>
      <trkpt lat="42.57193" lon="19.73977">
        <ele>1078.7399902344</ele>
        <time>2024-09-23T09:47:57.000Z</time>
      </trkpt>
      <trkpt lat="42.57187" lon="19.73978">
        <ele>1079.2199707031</ele>
        <time>2024-09-23T09:47:58.000Z</time>
      </trkpt>
      <trkpt lat="42.57173" lon="19.73984">
        <ele>1081.1400146484</ele>
        <time>2024-09-23T09:47:59.000Z</time>
      </trkpt>
      <trkpt lat="42.57161" lon="19.73992">
        <ele>1082.0999755859</ele>
        <time>2024-09-23T09:48:00.000Z</time>
      </trkpt>
      <trkpt lat="42.57129" lon="19.74026">
        <ele>1083.5400390625</ele>
        <time>2024-09-23T09:48:02.000Z</time>
      </trkpt>
      <trkpt lat="42.57126" lon="19.7403">
        <ele>1083.5400390625</ele>
        <time>2024-09-23T09:48:03.000Z</time>
      </trkpt>
      <trkpt lat="42.57113" lon="19.74041">
        <ele>1083.5400390625</ele>
        <time>2024-09-23T09:48:04.000Z</time>
      </trkpt>
      <trkpt lat="42.57103" lon="19.74046">
        <ele>1083.0600585938</ele>
        <time>2024-09-23T09:48:05.000Z</time>
      </trkpt>
      <trkpt lat="42.57092" lon="19.74049">
        <ele>1084.5</ele>
        <time>2024-09-23T09:48:06.000Z</time>
      </trkpt>
      <trkpt lat="42.5708" lon="19.74048">
        <ele>1084.9899902344</ele>
        <time>2024-09-23T09:48:07.000Z</time>
      </trkpt>
      <trkpt lat="42.57067" lon="19.74043">
        <ele>1085.4699707031</ele>
        <time>2024-09-23T09:48:08.000Z</time>
      </trkpt>
      <trkpt lat="42.57051" lon="19.74041">
        <ele>1087.3900146484</ele>
        <time>2024-09-23T09:48:09.000Z</time>
      </trkpt>
      <trkpt lat="42.57027" lon="19.74038">
        <ele>1089.7900390625</ele>
        <time>2024-09-23T09:48:11.000Z</time>
      </trkpt>
      <trkpt lat="42.57009" lon="19.74037">
        <ele>1091.7099609375</ele>
        <time>2024-09-23T09:48:12.000Z</time>
      </trkpt>
      <trkpt lat="42.56996" lon="19.74037">
        <ele>1094.1199951172</ele>
        <time>2024-09-23T09:48:13.000Z</time>
      </trkpt>
      <trkpt lat="42.56983" lon="19.74037">
        <ele>1095.5600585938</ele>
        <time>2024-09-23T09:48:14.000Z</time>
      </trkpt>
      <trkpt lat="42.56973" lon="19.74032">
        <ele>1096.5200195312</ele>
        <time>2024-09-23T09:48:15.000Z</time>
      </trkpt>
      <trkpt lat="42.56958" lon="19.74023">
        <ele>1097.9599609375</ele>
        <time>2024-09-23T09:48:16.000Z</time>
      </trkpt>
      <trkpt lat="42.56946" lon="19.74018">
        <ele>1098.9200439453</ele>
        <time>2024-09-23T09:48:17.000Z</time>
      </trkpt>
      <trkpt lat="42.56932" lon="19.74015">
        <ele>1100.3699951172</ele>
        <time>2024-09-23T09:48:18.000Z</time>
      </trkpt>
      <trkpt lat="42.56917" lon="19.74015">
        <ele>1100.8499755859</ele>
        <time>2024-09-23T09:48:19.000Z</time>
      </trkpt>
      <trkpt lat="42.56902" lon="19.7401">
        <ele>1101.8100585938</ele>
        <time>2024-09-23T09:48:20.000Z</time>
      </trkpt>
      <trkpt lat="42.56888" lon="19.74003">
        <ele>1101.8100585938</ele>
        <time>2024-09-23T09:48:21.000Z</time>
      </trkpt>
      <trkpt lat="42.56877" lon="19.73991">
        <ele>1103.25</ele>
        <time>2024-09-23T09:48:22.000Z</time>
      </trkpt>
      <trkpt lat="42.56867" lon="19.73978">
        <ele>1104.6899414062</ele>
        <time>2024-09-23T09:48:23.000Z</time>
      </trkpt>
      <trkpt lat="42.56859" lon="19.73964">
        <ele>1105.6500244141</ele>
        <time>2024-09-23T09:48:24.000Z</time>
      </trkpt>
      <trkpt lat="42.56852" lon="19.73951">
        <ele>1106.6099853516</ele>
        <time>2024-09-23T09:48:25.000Z</time>
      </trkpt>
      <trkpt lat="42.56847" lon="19.73945">
        <ele>1107.0999755859</ele>
        <time>2024-09-23T09:48:26.000Z</time>
      </trkpt>
      <trkpt lat="42.56843" lon="19.73941">
        <ele>1107.5799560547</ele>
        <time>2024-09-23T09:48:27.000Z</time>
      </trkpt>
      <trkpt lat="42.56834" lon="19.73941">
        <ele>1108.5400390625</ele>
        <time>2024-09-23T09:48:28.000Z</time>
      </trkpt>
      <trkpt lat="42.56829" lon="19.7394">
        <ele>1109.0200195312</ele>
        <time>2024-09-23T09:48:29.000Z</time>
      </trkpt>
      <trkpt lat="42.56821" lon="19.73938">
        <ele>1109.5</ele>
        <time>2024-09-23T09:48:30.000Z</time>
      </trkpt>
      <trkpt lat="42.56813" lon="19.73932">
        <ele>1109.9799804688</ele>
        <time>2024-09-23T09:48:31.000Z</time>
      </trkpt>
      <trkpt lat="42.568" lon="19.73924">
        <ele>1110.9399414062</ele>
        <time>2024-09-23T09:48:32.000Z</time>
      </trkpt>
      <trkpt lat="42.56788" lon="19.73917">
        <ele>1111.9000244141</ele>
        <time>2024-09-23T09:48:33.000Z</time>
      </trkpt>
      <trkpt lat="42.56769" lon="19.73907">
        <ele>1113.8199462891</ele>
        <time>2024-09-23T09:48:35.000Z</time>
      </trkpt>
      <trkpt lat="42.56756" lon="19.73898">
        <ele>1115.2700195312</ele>
        <time>2024-09-23T09:48:36.000Z</time>
      </trkpt>
      <trkpt lat="42.56746" lon="19.73887">
        <ele>1116.7099609375</ele>
        <time>2024-09-23T09:48:37.000Z</time>
      </trkpt>
      <trkpt lat="42.56738" lon="19.73878">
        <ele>1117.6700439453</ele>
        <time>2024-09-23T09:48:38.000Z</time>
      </trkpt>
      <trkpt lat="42.56721" lon="19.73855">
        <ele>1120.5500488281</ele>
        <time>2024-09-23T09:48:40.000Z</time>
      </trkpt>
      <trkpt lat="42.56714" lon="19.73848">
        <ele>1121.0300292969</ele>
        <time>2024-09-23T09:48:41.000Z</time>
      </trkpt>
      <trkpt lat="42.56695" lon="19.73833">
        <ele>1122.9599609375</ele>
        <time>2024-09-23T09:48:43.000Z</time>
      </trkpt>
      <trkpt lat="42.56691" lon="19.73829">
        <ele>1123.4399414062</ele>
        <time>2024-09-23T09:48:44.000Z</time>
      </trkpt>
      <trkpt lat="42.56685" lon="19.73822">
        <ele>1123.9200439453</ele>
        <time>2024-09-23T09:48:45.000Z</time>
      </trkpt>
      <trkpt lat="42.56678" lon="19.73814">
        <ele>1124.8800048828</ele>
        <time>2024-09-23T09:48:46.000Z</time>
      </trkpt>
      <trkpt lat="42.56658" lon="19.73786">
        <ele>1127.7600097656</ele>
        <time>2024-09-23T09:48:49.000Z</time>
      </trkpt>
      <trkpt lat="42.56653" lon="19.73778">
        <ele>1128.2399902344</ele>
        <time>2024-09-23T09:48:50.000Z</time>
      </trkpt>
      <trkpt lat="42.56647" lon="19.73766">
        <ele>1128.7299804688</ele>
        <time>2024-09-23T09:48:51.000Z</time>
      </trkpt>
      <trkpt lat="42.56625" lon="19.73715">
        <ele>1130.6500244141</ele>
        <time>2024-09-23T09:48:54.000Z</time>
      </trkpt>
      <trkpt lat="42.5662" lon="19.73706">
        <ele>1131.1300048828</ele>
        <time>2024-09-23T09:48:55.000Z</time>
      </trkpt>
      <trkpt lat="42.56611" lon="19.7369">
        <ele>1132.0899658203</ele>
        <time>2024-09-23T09:48:56.000Z</time>
      </trkpt>
      <trkpt lat="42.566" lon="19.73674">
        <ele>1133.0500488281</ele>
        <time>2024-09-23T09:48:57.000Z</time>
      </trkpt>
      <trkpt lat="42.56495" lon="19.73541">
        <ele>1142.6600341797</ele>
        <time>2024-09-23T09:49:05.000Z</time>
      </trkpt>
      <trkpt lat="42.56473" lon="19.73517">
        <ele>1146.5100097656</ele>
        <time>2024-09-23T09:49:07.000Z</time>
      </trkpt>
      <trkpt lat="42.56418" lon="19.7346">
        <ele>1153.7199707031</ele>
        <time>2024-09-23T09:49:11.000Z</time>
      </trkpt>
      <trkpt lat="42.56407" lon="19.73445">
        <ele>1154.6800537109</ele>
        <time>2024-09-23T09:49:12.000Z</time>
      </trkpt>
      <trkpt lat="42.56384" lon="19.73402">
        <ele>1153.7199707031</ele>
        <time>2024-09-23T09:49:14.000Z</time>
      </trkpt>
      <trkpt lat="42.56378" lon="19.7339">
        <ele>1153.2399902344</ele>
        <time>2024-09-23T09:49:15.000Z</time>
      </trkpt>
      <trkpt lat="42.56369" lon="19.73377">
        <ele>1152.7600097656</ele>
        <time>2024-09-23T09:49:16.000Z</time>
      </trkpt>
      <trkpt lat="42.56356" lon="19.73366">
        <ele>1152.2800292969</ele>
        <time>2024-09-23T09:49:17.000Z</time>
      </trkpt>
      <trkpt lat="42.5634" lon="19.73358">
        <ele>1151.8000488281</ele>
        <time>2024-09-23T09:49:18.000Z</time>
      </trkpt>
      <trkpt lat="42.56323" lon="19.73351">
        <ele>1151.3199462891</ele>
        <time>2024-09-23T09:49:19.000Z</time>
      </trkpt>
      <trkpt lat="42.56311" lon="19.73341">
        <ele>1150.8399658203</ele>
        <time>2024-09-23T09:49:20.000Z</time>
      </trkpt>
      <trkpt lat="42.56299" lon="19.73325">
        <ele>1150.3499755859</ele>
        <time>2024-09-23T09:49:21.000Z</time>
      </trkpt>
      <trkpt lat="42.5629" lon="19.73312">
        <ele>1150.3499755859</ele>
        <time>2024-09-23T09:49:22.000Z</time>
      </trkpt>
      <trkpt lat="42.56277" lon="19.73301">
        <ele>1150.3499755859</ele>
        <time>2024-09-23T09:49:23.000Z</time>
      </trkpt>
      <trkpt lat="42.5626" lon="19.73293">
        <ele>1150.3499755859</ele>
        <time>2024-09-23T09:49:24.000Z</time>
      </trkpt>
      <trkpt lat="42.56246" lon="19.73287">
        <ele>1150.3499755859</ele>
        <time>2024-09-23T09:49:25.000Z</time>
      </trkpt>
      <trkpt lat="42.56237" lon="19.7328">
        <ele>1150.3499755859</ele>
        <time>2024-09-23T09:49:26.000Z</time>
      </trkpt>
      <trkpt lat="42.56227" lon="19.73271">
        <ele>1150.3499755859</ele>
        <time>2024-09-23T09:49:27.000Z</time>
      </trkpt>
      <trkpt lat="42.56218" lon="19.73258">
        <ele>1149.8699951172</ele>
        <time>2024-09-23T09:49:28.000Z</time>
      </trkpt>
      <trkpt lat="42.56217" lon="19.73243">
        <ele>1150.3499755859</ele>
        <time>2024-09-23T09:49:29.000Z</time>
      </trkpt>
      <trkpt lat="42.56211" lon="19.73229">
        <ele>1150.8399658203</ele>
        <time>2024-09-23T09:49:30.000Z</time>
      </trkpt>
      <trkpt lat="42.56201" lon="19.73215">
        <ele>1152.2800292969</ele>
        <time>2024-09-23T09:49:31.000Z</time>
      </trkpt>
      <trkpt lat="42.56189" lon="19.73203">
        <ele>1153.7199707031</ele>
        <time>2024-09-23T09:49:32.000Z</time>
      </trkpt>
      <trkpt lat="42.56173" lon="19.73188">
        <ele>1155.6400146484</ele>
        <time>2024-09-23T09:49:33.000Z</time>
      </trkpt>
      <trkpt lat="42.56161" lon="19.73177">
        <ele>1157.0799560547</ele>
        <time>2024-09-23T09:49:34.000Z</time>
      </trkpt>
      <trkpt lat="42.56152" lon="19.73167">
        <ele>1158.0500488281</ele>
        <time>2024-09-23T09:49:35.000Z</time>
      </trkpt>
      <trkpt lat="42.56143" lon="19.73158">
        <ele>1159.0100097656</ele>
        <time>2024-09-23T09:49:36.000Z</time>
      </trkpt>
      <trkpt lat="42.56134" lon="19.73151">
        <ele>1159.9699707031</ele>
        <time>2024-09-23T09:49:37.000Z</time>
      </trkpt>
      <trkpt lat="42.56125" lon="19.73147">
        <ele>1160.9300537109</ele>
        <time>2024-09-23T09:49:38.000Z</time>
      </trkpt>
      <trkpt lat="42.56116" lon="19.73146">
        <ele>1161.8900146484</ele>
        <time>2024-09-23T09:49:39.000Z</time>
      </trkpt>
      <trkpt lat="42.56108" lon="19.73146">
        <ele>1162.8499755859</ele>
        <time>2024-09-23T09:49:40.000Z</time>
      </trkpt>
      <trkpt lat="42.561" lon="19.73148">
        <ele>1163.3299560547</ele>
        <time>2024-09-23T09:49:41.000Z</time>
      </trkpt>
      <trkpt lat="42.56088" lon="19.73153">
        <ele>1165.2600097656</ele>
        <time>2024-09-23T09:49:42.000Z</time>
      </trkpt>
      <trkpt lat="42.56084" lon="19.73154">
        <ele>1166.2199707031</ele>
        <time>2024-09-23T09:49:43.000Z</time>
      </trkpt>
      <trkpt lat="42.56079" lon="19.73154">
        <ele>1167.1800537109</ele>
        <time>2024-09-23T09:49:44.000Z</time>
      </trkpt>
      <trkpt lat="42.56071" lon="19.73153">
        <ele>1167.6600341797</ele>
        <time>2024-09-23T09:49:45.000Z</time>
      </trkpt>
      <trkpt lat="42.56065" lon="19.73151">
        <ele>1168.1400146484</ele>
        <time>2024-09-23T09:49:46.000Z</time>
      </trkpt>
      <trkpt lat="42.56059" lon="19.73145">
        <ele>1168.6199951172</ele>
        <time>2024-09-23T09:49:47.000Z</time>
      </trkpt>
      <trkpt lat="42.5605" lon="19.73137">
        <ele>1170.0600585938</ele>
        <time>2024-09-23T09:49:48.000Z</time>
      </trkpt>
      <trkpt lat="42.56045" lon="19.73134">
        <ele>1170.5400390625</ele>
        <time>2024-09-23T09:49:49.000Z</time>
      </trkpt>
      <trkpt lat="42.56013" lon="19.73115">
        <ele>1173.4300537109</ele>
        <time>2024-09-23T09:49:53.000Z</time>
      </trkpt>
      <trkpt lat="42.56007" lon="19.73113">
        <ele>1173.9100341797</ele>
        <time>2024-09-23T09:49:54.000Z</time>
      </trkpt>
      <trkpt lat="42.55999" lon="19.73111">
        <ele>1174.3900146484</ele>
        <time>2024-09-23T09:49:55.000Z</time>
      </trkpt>
      <trkpt lat="42.55991" lon="19.73112">
        <ele>1174.8699951172</ele>
        <time>2024-09-23T09:49:56.000Z</time>
      </trkpt>
      <trkpt lat="42.55954" lon="19.7312">
        <ele>1175.8299560547</ele>
        <time>2024-09-23T09:50:00.000Z</time>
      </trkpt>
      <trkpt lat="42.55949" lon="19.73121">
        <ele>1175.8299560547</ele>
        <time>2024-09-23T09:50:01.000Z</time>
      </trkpt>
      <trkpt lat="42.55941" lon="19.73121">
        <ele>1175.8299560547</ele>
        <time>2024-09-23T09:50:02.000Z</time>
      </trkpt>
      <trkpt lat="42.55922" lon="19.73118">
        <ele>1175.8299560547</ele>
        <time>2024-09-23T09:50:03.000Z</time>
      </trkpt>
      <trkpt lat="42.55918" lon="19.73117">
        <ele>1175.8299560547</ele>
        <time>2024-09-23T09:50:04.000Z</time>
      </trkpt>
      <trkpt lat="42.55906" lon="19.73112">
        <ele>1175.3499755859</ele>
        <time>2024-09-23T09:50:05.000Z</time>
      </trkpt>
      <trkpt lat="42.55872" lon="19.73093">
        <ele>1173.4300537109</ele>
        <time>2024-09-23T09:50:07.000Z</time>
      </trkpt>
      <trkpt lat="42.55859" lon="19.73086">
        <ele>1173.4300537109</ele>
        <time>2024-09-23T09:50:08.000Z</time>
      </trkpt>
      <trkpt lat="42.55844" lon="19.7308">
        <ele>1173.4300537109</ele>
        <time>2024-09-23T09:50:09.000Z</time>
      </trkpt>
      <trkpt lat="42.55812" lon="19.73068">
        <ele>1173.9100341797</ele>
        <time>2024-09-23T09:50:11.000Z</time>
      </trkpt>
      <trkpt lat="42.55799" lon="19.7306">
        <ele>1174.3900146484</ele>
        <time>2024-09-23T09:50:12.000Z</time>
      </trkpt>
      <trkpt lat="42.55789" lon="19.73047">
        <ele>1175.3499755859</ele>
        <time>2024-09-23T09:50:13.000Z</time>
      </trkpt>
      <trkpt lat="42.55779" lon="19.73033">
        <ele>1175.8299560547</ele>
        <time>2024-09-23T09:50:14.000Z</time>
      </trkpt>
      <trkpt lat="42.55768" lon="19.73019">
        <ele>1175.3499755859</ele>
        <time>2024-09-23T09:50:15.000Z</time>
      </trkpt>
      <trkpt lat="42.55755" lon="19.73007">
        <ele>1175.3499755859</ele>
        <time>2024-09-23T09:50:16.000Z</time>
      </trkpt>
      <trkpt lat="42.55747" lon="19.72998">
        <ele>1175.3499755859</ele>
        <time>2024-09-23T09:50:17.000Z</time>
      </trkpt>
      <trkpt lat="42.55735" lon="19.72974">
        <ele>1174.8699951172</ele>
        <time>2024-09-23T09:50:18.000Z</time>
      </trkpt>
      <trkpt lat="42.5573" lon="19.72964">
        <ele>1174.8699951172</ele>
        <time>2024-09-23T09:50:19.000Z</time>
      </trkpt>
      <trkpt lat="42.55718" lon="19.72952">
        <ele>1174.8699951172</ele>
        <time>2024-09-23T09:50:20.000Z</time>
      </trkpt>
      <trkpt lat="42.55706" lon="19.72942">
        <ele>1174.3900146484</ele>
        <time>2024-09-23T09:50:21.000Z</time>
      </trkpt>
      <trkpt lat="42.55692" lon="19.72932">
        <ele>1173.9100341797</ele>
        <time>2024-09-23T09:50:22.000Z</time>
      </trkpt>
      <trkpt lat="42.55661" lon="19.72921">
        <ele>1172.9499511719</ele>
        <time>2024-09-23T09:50:23.000Z</time>
      </trkpt>
      <trkpt lat="42.55658" lon="19.7292">
        <ele>1172.9499511719</ele>
        <time>2024-09-23T09:50:24.000Z</time>
      </trkpt>
      <trkpt lat="42.55643" lon="19.72914">
        <ele>1172.9499511719</ele>
        <time>2024-09-23T09:50:25.000Z</time>
      </trkpt>
      <trkpt lat="42.55623" lon="19.72903">
        <ele>1172.9499511719</ele>
        <time>2024-09-23T09:50:26.000Z</time>
      </trkpt>
      <trkpt lat="42.55611" lon="19.72894">
        <ele>1172.9499511719</ele>
        <time>2024-09-23T09:50:27.000Z</time>
      </trkpt>
      <trkpt lat="42.55597" lon="19.7288">
        <ele>1173.4300537109</ele>
        <time>2024-09-23T09:50:28.000Z</time>
      </trkpt>
      <trkpt lat="42.55481" lon="19.72706">
        <ele>1178.7099609375</ele>
        <time>2024-09-23T09:50:37.000Z</time>
      </trkpt>
      <trkpt lat="42.55381" lon="19.72565">
        <ele>1182.0799560547</ele>
        <time>2024-09-23T09:50:45.000Z</time>
      </trkpt>
      <trkpt lat="42.55369" lon="19.72545">
        <ele>1183.5200195312</ele>
        <time>2024-09-23T09:50:46.000Z</time>
      </trkpt>
      <trkpt lat="42.55359" lon="19.72525">
        <ele>1185.4399414062</ele>
        <time>2024-09-23T09:50:47.000Z</time>
      </trkpt>
      <trkpt lat="42.55348" lon="19.72508">
        <ele>1186.8800048828</ele>
        <time>2024-09-23T09:50:48.000Z</time>
      </trkpt>
      <trkpt lat="42.55324" lon="19.72481">
        <ele>1188.8100585938</ele>
        <time>2024-09-23T09:50:49.000Z</time>
      </trkpt>
      <trkpt lat="42.55314" lon="19.72469">
        <ele>1189.7700195312</ele>
        <time>2024-09-23T09:50:50.000Z</time>
      </trkpt>
      <trkpt lat="42.55308" lon="19.72464">
        <ele>1190.7299804688</ele>
        <time>2024-09-23T09:50:51.000Z</time>
      </trkpt>
      <trkpt lat="42.55296" lon="19.72454">
        <ele>1191.2099609375</ele>
        <time>2024-09-23T09:50:52.000Z</time>
      </trkpt>
      <trkpt lat="42.55278" lon="19.72444">
        <ele>1193.1300048828</ele>
        <time>2024-09-23T09:50:53.000Z</time>
      </trkpt>
      <trkpt lat="42.55239" lon="19.72427">
        <ele>1196.5</ele>
        <time>2024-09-23T09:50:55.000Z</time>
      </trkpt>
      <trkpt lat="42.55232" lon="19.72424">
        <ele>1196.9799804688</ele>
        <time>2024-09-23T09:50:56.000Z</time>
      </trkpt>
      <trkpt lat="42.55216" lon="19.72419">
        <ele>1197.9399414062</ele>
        <time>2024-09-23T09:50:57.000Z</time>
      </trkpt>
      <trkpt lat="42.55188" lon="19.72411">
        <ele>1198.9000244141</ele>
        <time>2024-09-23T09:50:59.000Z</time>
      </trkpt>
      <trkpt lat="42.55175" lon="19.72406">
        <ele>1199.8599853516</ele>
        <time>2024-09-23T09:51:00.000Z</time>
      </trkpt>
      <trkpt lat="42.55162" lon="19.72398">
        <ele>1200.8199462891</ele>
        <time>2024-09-23T09:51:01.000Z</time>
      </trkpt>
      <trkpt lat="42.5515" lon="19.72388">
        <ele>1201.7900390625</ele>
        <time>2024-09-23T09:51:02.000Z</time>
      </trkpt>
      <trkpt lat="42.55127" lon="19.72365">
        <ele>1202.75</ele>
        <time>2024-09-23T09:51:04.000Z</time>
      </trkpt>
      <trkpt lat="42.55115" lon="19.72355">
        <ele>1203.7099609375</ele>
        <time>2024-09-23T09:51:05.000Z</time>
      </trkpt>
      <trkpt lat="42.55103" lon="19.72345">
        <ele>1204.6700439453</ele>
        <time>2024-09-23T09:51:06.000Z</time>
      </trkpt>
      <trkpt lat="42.55091" lon="19.72335">
        <ele>1205.6300048828</ele>
        <time>2024-09-23T09:51:07.000Z</time>
      </trkpt>
      <trkpt lat="42.5508" lon="19.72323">
        <ele>1206.5899658203</ele>
        <time>2024-09-23T09:51:08.000Z</time>
      </trkpt>
      <trkpt lat="42.55071" lon="19.72317">
        <ele>1206.5899658203</ele>
        <time>2024-09-23T09:51:09.000Z</time>
      </trkpt>
      <trkpt lat="42.55062" lon="19.72316">
        <ele>1207.0699462891</ele>
        <time>2024-09-23T09:51:10.000Z</time>
      </trkpt>
      <trkpt lat="42.55047" lon="19.72317">
        <ele>1207.5500488281</ele>
        <time>2024-09-23T09:51:11.000Z</time>
      </trkpt>
      <trkpt lat="42.55041" lon="19.72316">
        <ele>1207.5500488281</ele>
        <time>2024-09-23T09:51:12.000Z</time>
      </trkpt>
      <trkpt lat="42.5503" lon="19.72314">
        <ele>1208.0300292969</ele>
        <time>2024-09-23T09:51:13.000Z</time>
      </trkpt>
      <trkpt lat="42.55019" lon="19.72309">
        <ele>1208.5100097656</ele>
        <time>2024-09-23T09:51:14.000Z</time>
      </trkpt>
      <trkpt lat="42.54992" lon="19.72291">
        <ele>1210.9200439453</ele>
        <time>2024-09-23T09:51:16.000Z</time>
      </trkpt>
      <trkpt lat="42.54985" lon="19.72286">
        <ele>1211.4000244141</ele>
        <time>2024-09-23T09:51:17.000Z</time>
      </trkpt>
      <trkpt lat="42.54974" lon="19.72276">
        <ele>1211.8800048828</ele>
        <time>2024-09-23T09:51:18.000Z</time>
      </trkpt>
      <trkpt lat="42.54953" lon="19.72253">
        <ele>1213.8000488281</ele>
        <time>2024-09-23T09:51:19.000Z</time>
      </trkpt>
      <trkpt lat="42.5495" lon="19.72249">
        <ele>1214.2800292969</ele>
        <time>2024-09-23T09:51:20.000Z</time>
      </trkpt>
      <trkpt lat="42.5494" lon="19.72234">
        <ele>1215.7199707031</ele>
        <time>2024-09-23T09:51:21.000Z</time>
      </trkpt>
      <trkpt lat="42.54932" lon="19.72217">
        <ele>1217.6500244141</ele>
        <time>2024-09-23T09:51:22.000Z</time>
      </trkpt>
      <trkpt lat="42.5492" lon="19.72195">
        <ele>1219.0899658203</ele>
        <time>2024-09-23T09:51:23.000Z</time>
      </trkpt>
      <trkpt lat="42.54916" lon="19.72186">
        <ele>1220.0500488281</ele>
        <time>2024-09-23T09:51:24.000Z</time>
      </trkpt>
      <trkpt lat="42.5491" lon="19.72161">
        <ele>1221.4899902344</ele>
        <time>2024-09-23T09:51:25.000Z</time>
      </trkpt>
      <trkpt lat="42.54909" lon="19.72156">
        <ele>1221.4899902344</ele>
        <time>2024-09-23T09:51:26.000Z</time>
      </trkpt>
      <trkpt lat="42.54903" lon="19.72147">
        <ele>1221.0100097656</ele>
        <time>2024-09-23T09:51:27.000Z</time>
      </trkpt>
      <trkpt lat="42.54895" lon="19.72142">
        <ele>1221.0100097656</ele>
        <time>2024-09-23T09:51:28.000Z</time>
      </trkpt>
      <trkpt lat="42.5488" lon="19.72139">
        <ele>1222.4499511719</ele>
        <time>2024-09-23T09:51:29.000Z</time>
      </trkpt>
      <trkpt lat="42.54871" lon="19.72139">
        <ele>1222.9300537109</ele>
        <time>2024-09-23T09:51:30.000Z</time>
      </trkpt>
      <trkpt lat="42.54824" lon="19.72138">
        <ele>1226.7800292969</ele>
        <time>2024-09-23T09:51:33.000Z</time>
      </trkpt>
      <trkpt lat="42.54816" lon="19.72137">
        <ele>1227.7399902344</ele>
        <time>2024-09-23T09:51:34.000Z</time>
      </trkpt>
      <trkpt lat="42.54803" lon="19.72131">
        <ele>1229.1800537109</ele>
        <time>2024-09-23T09:51:35.000Z</time>
      </trkpt>
      <trkpt lat="42.5479" lon="19.72123">
        <ele>1231.1099853516</ele>
        <time>2024-09-23T09:51:36.000Z</time>
      </trkpt>
      <trkpt lat="42.54778" lon="19.7212">
        <ele>1233.0300292969</ele>
        <time>2024-09-23T09:51:37.000Z</time>
      </trkpt>
      <trkpt lat="42.54768" lon="19.7212">
        <ele>1233.9899902344</ele>
        <time>2024-09-23T09:51:38.000Z</time>
      </trkpt>
      <trkpt lat="42.54756" lon="19.72117">
        <ele>1235.4300537109</ele>
        <time>2024-09-23T09:51:39.000Z</time>
      </trkpt>
      <trkpt lat="42.54737" lon="19.72107">
        <ele>1237.3499755859</ele>
        <time>2024-09-23T09:51:40.000Z</time>
      </trkpt>
      <trkpt lat="42.5473" lon="19.72102">
        <ele>1237.8299560547</ele>
        <time>2024-09-23T09:51:41.000Z</time>
      </trkpt>
      <trkpt lat="42.5472" lon="19.72092">
        <ele>1239.2800292969</ele>
        <time>2024-09-23T09:51:42.000Z</time>
      </trkpt>
      <trkpt lat="42.54711" lon="19.72083">
        <ele>1240.7199707031</ele>
        <time>2024-09-23T09:51:43.000Z</time>
      </trkpt>
      <trkpt lat="42.54703" lon="19.72079">
        <ele>1240.7199707031</ele>
        <time>2024-09-23T09:51:44.000Z</time>
      </trkpt>
      <trkpt lat="42.54694" lon="19.72079">
        <ele>1241.1999511719</ele>
        <time>2024-09-23T09:51:45.000Z</time>
      </trkpt>
      <trkpt lat="42.54684" lon="19.72082">
        <ele>1242.1600341797</ele>
        <time>2024-09-23T09:51:46.000Z</time>
      </trkpt>
      <trkpt lat="42.54672" lon="19.72082">
        <ele>1242.1600341797</ele>
        <time>2024-09-23T09:51:47.000Z</time>
      </trkpt>
      <trkpt lat="42.54658" lon="19.72079">
        <ele>1242.6400146484</ele>
        <time>2024-09-23T09:51:48.000Z</time>
      </trkpt>
      <trkpt lat="42.54615" lon="19.7206">
        <ele>1246.0100097656</ele>
        <time>2024-09-23T09:51:51.000Z</time>
      </trkpt>
      <trkpt lat="42.54602" lon="19.72054">
        <ele>1246.9699707031</ele>
        <time>2024-09-23T09:51:52.000Z</time>
      </trkpt>
      <trkpt lat="42.5459" lon="19.72052">
        <ele>1247.9300537109</ele>
        <time>2024-09-23T09:51:53.000Z</time>
      </trkpt>
      <trkpt lat="42.54576" lon="19.72056">
        <ele>1248.8900146484</ele>
        <time>2024-09-23T09:51:54.000Z</time>
      </trkpt>
      <trkpt lat="42.54565" lon="19.7206">
        <ele>1249.3699951172</ele>
        <time>2024-09-23T09:51:55.000Z</time>
      </trkpt>
      <trkpt lat="42.54553" lon="19.72061">
        <ele>1250.3299560547</ele>
        <time>2024-09-23T09:51:56.000Z</time>
      </trkpt>
      <trkpt lat="42.54542" lon="19.72057">
        <ele>1251.7700195312</ele>
        <time>2024-09-23T09:51:57.000Z</time>
      </trkpt>
      <trkpt lat="42.54534" lon="19.72046">
        <ele>1253.2199707031</ele>
        <time>2024-09-23T09:51:58.000Z</time>
      </trkpt>
      <trkpt lat="42.54527" lon="19.72037">
        <ele>1253.6999511719</ele>
        <time>2024-09-23T09:51:59.000Z</time>
      </trkpt>
      <trkpt lat="42.54517" lon="19.72031">
        <ele>1253.6999511719</ele>
        <time>2024-09-23T09:52:00.000Z</time>
      </trkpt>
      <trkpt lat="42.54507" lon="19.72031">
        <ele>1254.6600341797</ele>
        <time>2024-09-23T09:52:01.000Z</time>
      </trkpt>
      <trkpt lat="42.54493" lon="19.72035">
        <ele>1255.6199951172</ele>
        <time>2024-09-23T09:52:02.000Z</time>
      </trkpt>
      <trkpt lat="42.54482" lon="19.72037">
        <ele>1255.6199951172</ele>
        <time>2024-09-23T09:52:03.000Z</time>
      </trkpt>
      <trkpt lat="42.54469" lon="19.72035">
        <ele>1256.0999755859</ele>
        <time>2024-09-23T09:52:04.000Z</time>
      </trkpt>
      <trkpt lat="42.54455" lon="19.72029">
        <ele>1257.0600585938</ele>
        <time>2024-09-23T09:52:05.000Z</time>
      </trkpt>
      <trkpt lat="42.54443" lon="19.72023">
        <ele>1258.0200195312</ele>
        <time>2024-09-23T09:52:06.000Z</time>
      </trkpt>
      <trkpt lat="42.54428" lon="19.72018">
        <ele>1259.4599609375</ele>
        <time>2024-09-23T09:52:07.000Z</time>
      </trkpt>
      <trkpt lat="42.54393" lon="19.72016">
        <ele>1262.8299560547</ele>
        <time>2024-09-23T09:52:09.000Z</time>
      </trkpt>
      <trkpt lat="42.54371" lon="19.72014">
        <ele>1264.2700195312</ele>
        <time>2024-09-23T09:52:10.000Z</time>
      </trkpt>
      <trkpt lat="42.54355" lon="19.72011">
        <ele>1265.7099609375</ele>
        <time>2024-09-23T09:52:11.000Z</time>
      </trkpt>
      <trkpt lat="42.54349" lon="19.72009">
        <ele>1266.1899414062</ele>
        <time>2024-09-23T09:52:12.000Z</time>
      </trkpt>
      <trkpt lat="42.54336" lon="19.72008">
        <ele>1265.7099609375</ele>
        <time>2024-09-23T09:52:13.000Z</time>
      </trkpt>
      <trkpt lat="42.54323" lon="19.72012">
        <ele>1266.6700439453</ele>
        <time>2024-09-23T09:52:14.000Z</time>
      </trkpt>
      <trkpt lat="42.5431" lon="19.72018">
        <ele>1266.6700439453</ele>
        <time>2024-09-23T09:52:15.000Z</time>
      </trkpt>
      <trkpt lat="42.54298" lon="19.72022">
        <ele>1267.1600341797</ele>
        <time>2024-09-23T09:52:16.000Z</time>
      </trkpt>
      <trkpt lat="42.54284" lon="19.7202">
        <ele>1266.1899414062</ele>
        <time>2024-09-23T09:52:17.000Z</time>
      </trkpt>
      <trkpt lat="42.54274" lon="19.72013">
        <ele>1266.6700439453</ele>
        <time>2024-09-23T09:52:18.000Z</time>
      </trkpt>
      <trkpt lat="42.54265" lon="19.72007">
        <ele>1266.1899414062</ele>
        <time>2024-09-23T09:52:19.000Z</time>
      </trkpt>
      <trkpt lat="42.54254" lon="19.72007">
        <ele>1267.1600341797</ele>
        <time>2024-09-23T09:52:20.000Z</time>
      </trkpt>
      <trkpt lat="42.54239" lon="19.72013">
        <ele>1267.6400146484</ele>
        <time>2024-09-23T09:52:21.000Z</time>
      </trkpt>
      <trkpt lat="42.54227" lon="19.72018">
        <ele>1268.1199951172</ele>
        <time>2024-09-23T09:52:22.000Z</time>
      </trkpt>
      <trkpt lat="42.54212" lon="19.7202">
        <ele>1268.5999755859</ele>
        <time>2024-09-23T09:52:23.000Z</time>
      </trkpt>
      <trkpt lat="42.5417" lon="19.7202">
        <ele>1273.4000244141</ele>
        <time>2024-09-23T09:52:25.000Z</time>
      </trkpt>
      <trkpt lat="42.5414" lon="19.72019">
        <ele>1276.2900390625</ele>
        <time>2024-09-23T09:52:27.000Z</time>
      </trkpt>
      <trkpt lat="42.54117" lon="19.72021">
        <ele>1277.7299804688</ele>
        <time>2024-09-23T09:52:28.000Z</time>
      </trkpt>
      <trkpt lat="42.54107" lon="19.72022">
        <ele>1278.2099609375</ele>
        <time>2024-09-23T09:52:29.000Z</time>
      </trkpt>
      <trkpt lat="42.54095" lon="19.72022">
        <ele>1279.1700439453</ele>
        <time>2024-09-23T09:52:30.000Z</time>
      </trkpt>
      <trkpt lat="42.54084" lon="19.72019">
        <ele>1280.6099853516</ele>
        <time>2024-09-23T09:52:31.000Z</time>
      </trkpt>
      <trkpt lat="42.54073" lon="19.72015">
        <ele>1281.0899658203</ele>
        <time>2024-09-23T09:52:32.000Z</time>
      </trkpt>
      <trkpt lat="42.54062" lon="19.72016">
        <ele>1282.0600585938</ele>
        <time>2024-09-23T09:52:33.000Z</time>
      </trkpt>
      <trkpt lat="42.54047" lon="19.72025">
        <ele>1282.5400390625</ele>
        <time>2024-09-23T09:52:34.000Z</time>
      </trkpt>
      <trkpt lat="42.54036" lon="19.72031">
        <ele>1283.5</ele>
        <time>2024-09-23T09:52:35.000Z</time>
      </trkpt>
      <trkpt lat="42.54022" lon="19.72035">
        <ele>1284.4599609375</ele>
        <time>2024-09-23T09:52:36.000Z</time>
      </trkpt>
      <trkpt lat="42.54007" lon="19.72035">
        <ele>1285.9000244141</ele>
        <time>2024-09-23T09:52:37.000Z</time>
      </trkpt>
      <trkpt lat="42.53967" lon="19.72024">
        <ele>1292.1500244141</ele>
        <time>2024-09-23T09:52:39.000Z</time>
      </trkpt>
      <trkpt lat="42.53961" lon="19.72022">
        <ele>1292.6300048828</ele>
        <time>2024-09-23T09:52:40.000Z</time>
      </trkpt>
      <trkpt lat="42.53944" lon="19.72012">
        <ele>1295.0300292969</ele>
        <time>2024-09-23T09:52:41.000Z</time>
      </trkpt>
      <trkpt lat="42.53931" lon="19.72002">
        <ele>1296.9599609375</ele>
        <time>2024-09-23T09:52:42.000Z</time>
      </trkpt>
      <trkpt lat="42.53923" lon="19.71997">
        <ele>1297.9200439453</ele>
        <time>2024-09-23T09:52:43.000Z</time>
      </trkpt>
      <trkpt lat="42.53913" lon="19.71996">
        <ele>1298.8800048828</ele>
        <time>2024-09-23T09:52:44.000Z</time>
      </trkpt>
      <trkpt lat="42.53905" lon="19.72">
        <ele>1299.8399658203</ele>
        <time>2024-09-23T09:52:45.000Z</time>
      </trkpt>
      <trkpt lat="42.53898" lon="19.7201">
        <ele>1301.2800292969</ele>
        <time>2024-09-23T09:52:46.000Z</time>
      </trkpt>
      <trkpt lat="42.53891" lon="19.72022">
        <ele>1302.2399902344</ele>
        <time>2024-09-23T09:52:47.000Z</time>
      </trkpt>
      <trkpt lat="42.53882" lon="19.72032">
        <ele>1303.6899414062</ele>
        <time>2024-09-23T09:52:48.000Z</time>
      </trkpt>
      <trkpt lat="42.53871" lon="19.72038">
        <ele>1305.1300048828</ele>
        <time>2024-09-23T09:52:49.000Z</time>
      </trkpt>
      <trkpt lat="42.53857" lon="19.72043">
        <ele>1306.0899658203</ele>
        <time>2024-09-23T09:52:50.000Z</time>
      </trkpt>
      <trkpt lat="42.53844" lon="19.72043">
        <ele>1306.5699462891</ele>
        <time>2024-09-23T09:52:51.000Z</time>
      </trkpt>
      <trkpt lat="42.53831" lon="19.7204">
        <ele>1307.5300292969</ele>
        <time>2024-09-23T09:52:52.000Z</time>
      </trkpt>
      <trkpt lat="42.53819" lon="19.72037">
        <ele>1308.0100097656</ele>
        <time>2024-09-23T09:52:53.000Z</time>
      </trkpt>
      <trkpt lat="42.53807" lon="19.7204">
        <ele>1308.9699707031</ele>
        <time>2024-09-23T09:52:54.000Z</time>
      </trkpt>
      <trkpt lat="42.53794" lon="19.72049">
        <ele>1310.4100341797</ele>
        <time>2024-09-23T09:52:55.000Z</time>
      </trkpt>
      <trkpt lat="42.53783" lon="19.72057">
        <ele>1310.9000244141</ele>
        <time>2024-09-23T09:52:56.000Z</time>
      </trkpt>
      <trkpt lat="42.53768" lon="19.72066">
        <ele>1311.8599853516</ele>
        <time>2024-09-23T09:52:57.000Z</time>
      </trkpt>
      <trkpt lat="42.53751" lon="19.72072">
        <ele>1313.3000488281</ele>
        <time>2024-09-23T09:52:58.000Z</time>
      </trkpt>
      <trkpt lat="42.53699" lon="19.72083">
        <ele>1317.6199951172</ele>
        <time>2024-09-23T09:53:01.000Z</time>
      </trkpt>
      <trkpt lat="42.53668" lon="19.72093">
        <ele>1320.0300292969</ele>
        <time>2024-09-23T09:53:03.000Z</time>
      </trkpt>
      <trkpt lat="42.53654" lon="19.72096">
        <ele>1321.4699707031</ele>
        <time>2024-09-23T09:53:04.000Z</time>
      </trkpt>
      <trkpt lat="42.53629" lon="19.72095">
        <ele>1323.3900146484</ele>
        <time>2024-09-23T09:53:05.000Z</time>
      </trkpt>
      <trkpt lat="42.53619" lon="19.72096">
        <ele>1324.3499755859</ele>
        <time>2024-09-23T09:53:06.000Z</time>
      </trkpt>
      <trkpt lat="42.53603" lon="19.721">
        <ele>1326.7600097656</ele>
        <time>2024-09-23T09:53:07.000Z</time>
      </trkpt>
      <trkpt lat="42.53589" lon="19.72105">
        <ele>1328.1999511719</ele>
        <time>2024-09-23T09:53:08.000Z</time>
      </trkpt>
      <trkpt lat="42.53573" lon="19.72108">
        <ele>1330.1199951172</ele>
        <time>2024-09-23T09:53:09.000Z</time>
      </trkpt>
      <trkpt lat="42.53556" lon="19.72106">
        <ele>1332.0400390625</ele>
        <time>2024-09-23T09:53:10.000Z</time>
      </trkpt>
      <trkpt lat="42.53541" lon="19.72102">
        <ele>1333.9699707031</ele>
        <time>2024-09-23T09:53:11.000Z</time>
      </trkpt>
      <trkpt lat="42.53481" lon="19.72069">
        <ele>1339.7299804688</ele>
        <time>2024-09-23T09:53:14.000Z</time>
      </trkpt>
      <trkpt lat="42.53454" lon="19.72056">
        <ele>1340.2199707031</ele>
        <time>2024-09-23T09:53:16.000Z</time>
      </trkpt>
      <trkpt lat="42.53447" lon="19.72052">
        <ele>1340.2199707031</ele>
        <time>2024-09-23T09:53:17.000Z</time>
      </trkpt>
      <trkpt lat="42.53434" lon="19.7204">
        <ele>1341.1800537109</ele>
        <time>2024-09-23T09:53:18.000Z</time>
      </trkpt>
      <trkpt lat="42.53422" lon="19.72027">
        <ele>1341.1800537109</ele>
        <time>2024-09-23T09:53:19.000Z</time>
      </trkpt>
      <trkpt lat="42.53411" lon="19.7202">
        <ele>1342.1400146484</ele>
        <time>2024-09-23T09:53:20.000Z</time>
      </trkpt>
      <trkpt lat="42.53398" lon="19.72016">
        <ele>1343.0999755859</ele>
        <time>2024-09-23T09:53:21.000Z</time>
      </trkpt>
      <trkpt lat="42.53367" lon="19.72011">
        <ele>1344.5400390625</ele>
        <time>2024-09-23T09:53:23.000Z</time>
      </trkpt>
      <trkpt lat="42.53354" lon="19.72007">
        <ele>1345.5</ele>
        <time>2024-09-23T09:53:24.000Z</time>
      </trkpt>
      <trkpt lat="42.53341" lon="19.71999">
        <ele>1346.9399414062</ele>
        <time>2024-09-23T09:53:25.000Z</time>
      </trkpt>
      <trkpt lat="42.5333" lon="19.71988">
        <ele>1348.3900146484</ele>
        <time>2024-09-23T09:53:26.000Z</time>
      </trkpt>
      <trkpt lat="42.5332" lon="19.71975">
        <ele>1349.3499755859</ele>
        <time>2024-09-23T09:53:27.000Z</time>
      </trkpt>
      <trkpt lat="42.53308" lon="19.71956">
        <ele>1351.2700195312</ele>
        <time>2024-09-23T09:53:28.000Z</time>
      </trkpt>
      <trkpt lat="42.53299" lon="19.71946">
        <ele>1352.2299804688</ele>
        <time>2024-09-23T09:53:29.000Z</time>
      </trkpt>
      <trkpt lat="42.53273" lon="19.71927">
        <ele>1355.5999755859</ele>
        <time>2024-09-23T09:53:31.000Z</time>
      </trkpt>
      <trkpt lat="42.5326" lon="19.71916">
        <ele>1357.0400390625</ele>
        <time>2024-09-23T09:53:32.000Z</time>
      </trkpt>
      <trkpt lat="42.53252" lon="19.71907">
        <ele>1358</ele>
        <time>2024-09-23T09:53:33.000Z</time>
      </trkpt>
      <trkpt lat="42.53243" lon="19.71896">
        <ele>1358.4799804688</ele>
        <time>2024-09-23T09:53:34.000Z</time>
      </trkpt>
      <trkpt lat="42.53234" lon="19.71883">
        <ele>1358.4799804688</ele>
        <time>2024-09-23T09:53:35.000Z</time>
      </trkpt>
      <trkpt lat="42.53228" lon="19.71872">
        <ele>1358.4799804688</ele>
        <time>2024-09-23T09:53:36.000Z</time>
      </trkpt>
      <trkpt lat="42.53224" lon="19.7186">
        <ele>1358.9599609375</ele>
        <time>2024-09-23T09:53:37.000Z</time>
      </trkpt>
      <trkpt lat="42.53222" lon="19.71845">
        <ele>1359.4399414062</ele>
        <time>2024-09-23T09:53:38.000Z</time>
      </trkpt>
      <trkpt lat="42.53227" lon="19.71777">
        <ele>1358.4799804688</ele>
        <time>2024-09-23T09:53:42.000Z</time>
      </trkpt>
      <trkpt lat="42.53229" lon="19.71763">
        <ele>1358</ele>
        <time>2024-09-23T09:53:43.000Z</time>
      </trkpt>
      <trkpt lat="42.53232" lon="19.71745">
        <ele>1358</ele>
        <time>2024-09-23T09:53:44.000Z</time>
      </trkpt>
      <trkpt lat="42.53236" lon="19.71722">
        <ele>1357.5200195312</ele>
        <time>2024-09-23T09:53:45.000Z</time>
      </trkpt>
      <trkpt lat="42.53239" lon="19.71702">
        <ele>1357.0400390625</ele>
        <time>2024-09-23T09:53:46.000Z</time>
      </trkpt>
      <trkpt lat="42.5324" lon="19.71697">
        <ele>1357.0400390625</ele>
        <time>2024-09-23T09:53:47.000Z</time>
      </trkpt>
      <trkpt lat="42.53243" lon="19.71675">
        <ele>1356.0799560547</ele>
        <time>2024-09-23T09:53:48.000Z</time>
      </trkpt>
      <trkpt lat="42.53247" lon="19.71633">
        <ele>1354.6300048828</ele>
        <time>2024-09-23T09:53:50.000Z</time>
      </trkpt>
      <trkpt lat="42.53249" lon="19.71609">
        <ele>1353.6700439453</ele>
        <time>2024-09-23T09:53:52.000Z</time>
      </trkpt>
      <trkpt lat="42.5325" lon="19.71597">
        <ele>1352.7099609375</ele>
        <time>2024-09-23T09:53:53.000Z</time>
      </trkpt>
      <trkpt lat="42.53255" lon="19.71584">
        <ele>1352.7099609375</ele>
        <time>2024-09-23T09:53:54.000Z</time>
      </trkpt>
      <trkpt lat="42.53263" lon="19.71572">
        <ele>1352.2299804688</ele>
        <time>2024-09-23T09:53:55.000Z</time>
      </trkpt>
      <trkpt lat="42.53271" lon="19.71562">
        <ele>1351.2700195312</ele>
        <time>2024-09-23T09:53:56.000Z</time>
      </trkpt>
      <trkpt lat="42.53283" lon="19.71551">
        <ele>1350.3100585938</ele>
        <time>2024-09-23T09:53:57.000Z</time>
      </trkpt>
      <trkpt lat="42.53289" lon="19.71542">
        <ele>1349.3499755859</ele>
        <time>2024-09-23T09:53:58.000Z</time>
      </trkpt>
      <trkpt lat="42.53293" lon="19.71531">
        <ele>1347.9100341797</ele>
        <time>2024-09-23T09:53:59.000Z</time>
      </trkpt>
      <trkpt lat="42.53294" lon="19.71504">
        <ele>1345.0200195312</ele>
        <time>2024-09-23T09:54:00.000Z</time>
      </trkpt>
      <trkpt lat="42.53295" lon="19.71497">
        <ele>1344.0600585938</ele>
        <time>2024-09-23T09:54:01.000Z</time>
      </trkpt>
      <trkpt lat="42.53298" lon="19.71481">
        <ele>1341.6600341797</ele>
        <time>2024-09-23T09:54:02.000Z</time>
      </trkpt>
      <trkpt lat="42.53305" lon="19.71466">
        <ele>1339.7299804688</ele>
        <time>2024-09-23T09:54:03.000Z</time>
      </trkpt>
      <trkpt lat="42.53316" lon="19.7145">
        <ele>1337.3299560547</ele>
        <time>2024-09-23T09:54:04.000Z</time>
      </trkpt>
      <trkpt lat="42.53323" lon="19.71439">
        <ele>1335.4100341797</ele>
        <time>2024-09-23T09:54:05.000Z</time>
      </trkpt>
      <trkpt lat="42.5333" lon="19.71424">
        <ele>1333.0100097656</ele>
        <time>2024-09-23T09:54:06.000Z</time>
      </trkpt>
      <trkpt lat="42.53334" lon="19.71408">
        <ele>1331.0799560547</ele>
        <time>2024-09-23T09:54:07.000Z</time>
      </trkpt>
      <trkpt lat="42.5334" lon="19.71391">
        <ele>1328.6800537109</ele>
        <time>2024-09-23T09:54:08.000Z</time>
      </trkpt>
      <trkpt lat="42.53349" lon="19.71376">
        <ele>1326.7600097656</ele>
        <time>2024-09-23T09:54:09.000Z</time>
      </trkpt>
      <trkpt lat="42.53362" lon="19.71363">
        <ele>1325.8000488281</ele>
        <time>2024-09-23T09:54:10.000Z</time>
      </trkpt>
      <trkpt lat="42.53374" lon="19.7135">
        <ele>1324.8299560547</ele>
        <time>2024-09-23T09:54:11.000Z</time>
      </trkpt>
      <trkpt lat="42.53383" lon="19.71337">
        <ele>1323.3900146484</ele>
        <time>2024-09-23T09:54:12.000Z</time>
      </trkpt>
      <trkpt lat="42.53392" lon="19.7132">
        <ele>1321.4699707031</ele>
        <time>2024-09-23T09:54:13.000Z</time>
      </trkpt>
      <trkpt lat="42.53401" lon="19.71308">
        <ele>1320.0300292969</ele>
        <time>2024-09-23T09:54:14.000Z</time>
      </trkpt>
      <trkpt lat="42.53411" lon="19.71302">
        <ele>1319.5500488281</ele>
        <time>2024-09-23T09:54:15.000Z</time>
      </trkpt>
      <trkpt lat="42.53421" lon="19.71296">
        <ele>1318.5899658203</ele>
        <time>2024-09-23T09:54:16.000Z</time>
      </trkpt>
      <trkpt lat="42.53427" lon="19.71285">
        <ele>1318.5899658203</ele>
        <time>2024-09-23T09:54:17.000Z</time>
      </trkpt>
      <trkpt lat="42.53432" lon="19.71272">
        <ele>1316.6600341797</ele>
        <time>2024-09-23T09:54:18.000Z</time>
      </trkpt>
      <trkpt lat="42.53433" lon="19.71255">
        <ele>1315.2199707031</ele>
        <time>2024-09-23T09:54:19.000Z</time>
      </trkpt>
      <trkpt lat="42.53435" lon="19.71236">
        <ele>1313.7800292969</ele>
        <time>2024-09-23T09:54:20.000Z</time>
      </trkpt>
      <trkpt lat="42.53462" lon="19.7105">
        <ele>1304.6500244141</ele>
        <time>2024-09-23T09:54:29.000Z</time>
      </trkpt>
      <trkpt lat="42.53478" lon="19.70928">
        <ele>1297.9200439453</ele>
        <time>2024-09-23T09:54:35.000Z</time>
      </trkpt>
      <trkpt lat="42.535" lon="19.7082">
        <ele>1291.6700439453</ele>
        <time>2024-09-23T09:54:40.000Z</time>
      </trkpt>
      <trkpt lat="42.53504" lon="19.70803">
        <ele>1290.7099609375</ele>
        <time>2024-09-23T09:54:41.000Z</time>
      </trkpt>
      <trkpt lat="42.53506" lon="19.70788">
        <ele>1289.75</ele>
        <time>2024-09-23T09:54:42.000Z</time>
      </trkpt>
      <trkpt lat="42.53509" lon="19.70748">
        <ele>1286.8599853516</ele>
        <time>2024-09-23T09:54:44.000Z</time>
      </trkpt>
      <trkpt lat="42.53513" lon="19.70725">
        <ele>1284.9399414062</ele>
        <time>2024-09-23T09:54:45.000Z</time>
      </trkpt>
      <trkpt lat="42.53518" lon="19.70705">
        <ele>1283.9799804688</ele>
        <time>2024-09-23T09:54:46.000Z</time>
      </trkpt>
      <trkpt lat="42.53539" lon="19.70659">
        <ele>1281.0899658203</ele>
        <time>2024-09-23T09:54:48.000Z</time>
      </trkpt>
      <trkpt lat="42.53544" lon="19.70648">
        <ele>1280.1300048828</ele>
        <time>2024-09-23T09:54:49.000Z</time>
      </trkpt>
      <trkpt lat="42.53554" lon="19.7062">
        <ele>1278.2099609375</ele>
        <time>2024-09-23T09:54:50.000Z</time>
      </trkpt>
      <trkpt lat="42.5356" lon="19.70607">
        <ele>1277.25</ele>
        <time>2024-09-23T09:54:51.000Z</time>
      </trkpt>
      <trkpt lat="42.53567" lon="19.70592">
        <ele>1276.2900390625</ele>
        <time>2024-09-23T09:54:52.000Z</time>
      </trkpt>
      <trkpt lat="42.5358" lon="19.70569">
        <ele>1275.3299560547</ele>
        <time>2024-09-23T09:54:53.000Z</time>
      </trkpt>
      <trkpt lat="42.53587" lon="19.70557">
        <ele>1274.8499755859</ele>
        <time>2024-09-23T09:54:54.000Z</time>
      </trkpt>
      <trkpt lat="42.53596" lon="19.70538">
        <ele>1273.4000244141</ele>
        <time>2024-09-23T09:54:55.000Z</time>
      </trkpt>
      <trkpt lat="42.53605" lon="19.70523">
        <ele>1272.9200439453</ele>
        <time>2024-09-23T09:54:56.000Z</time>
      </trkpt>
      <trkpt lat="42.53614" lon="19.70512">
        <ele>1272.9200439453</ele>
        <time>2024-09-23T09:54:57.000Z</time>
      </trkpt>
      <trkpt lat="42.53621" lon="19.70499">
        <ele>1272.4399414062</ele>
        <time>2024-09-23T09:54:58.000Z</time>
      </trkpt>
      <trkpt lat="42.53624" lon="19.70484">
        <ele>1271.9599609375</ele>
        <time>2024-09-23T09:54:59.000Z</time>
      </trkpt>
      <trkpt lat="42.53625" lon="19.70468">
        <ele>1270.5200195312</ele>
        <time>2024-09-23T09:55:00.000Z</time>
      </trkpt>
      <trkpt lat="42.53628" lon="19.70452">
        <ele>1269.0799560547</ele>
        <time>2024-09-23T09:55:01.000Z</time>
      </trkpt>
      <trkpt lat="42.53636" lon="19.70439">
        <ele>1267.6400146484</ele>
        <time>2024-09-23T09:55:02.000Z</time>
      </trkpt>
      <trkpt lat="42.53649" lon="19.70426">
        <ele>1267.1600341797</ele>
        <time>2024-09-23T09:55:03.000Z</time>
      </trkpt>
      <trkpt lat="42.53658" lon="19.70416">
        <ele>1265.7099609375</ele>
        <time>2024-09-23T09:55:04.000Z</time>
      </trkpt>
      <trkpt lat="42.53666" lon="19.70404">
        <ele>1264.75</ele>
        <time>2024-09-23T09:55:05.000Z</time>
      </trkpt>
      <trkpt lat="42.53674" lon="19.70375">
        <ele>1261.8699951172</ele>
        <time>2024-09-23T09:55:06.000Z</time>
      </trkpt>
      <trkpt lat="42.53675" lon="19.70372">
        <ele>1261.3900146484</ele>
        <time>2024-09-23T09:55:07.000Z</time>
      </trkpt>
      <trkpt lat="42.53682" lon="19.70357">
        <ele>1259.9399414062</ele>
        <time>2024-09-23T09:55:08.000Z</time>
      </trkpt>
      <trkpt lat="42.53691" lon="19.70342">
        <ele>1258.5</ele>
        <time>2024-09-23T09:55:09.000Z</time>
      </trkpt>
      <trkpt lat="42.53699" lon="19.7033">
        <ele>1257.0600585938</ele>
        <time>2024-09-23T09:55:10.000Z</time>
      </trkpt>
      <trkpt lat="42.53708" lon="19.70321">
        <ele>1256.5799560547</ele>
        <time>2024-09-23T09:55:11.000Z</time>
      </trkpt>
      <trkpt lat="42.53719" lon="19.70315">
        <ele>1255.6199951172</ele>
        <time>2024-09-23T09:55:12.000Z</time>
      </trkpt>
      <trkpt lat="42.53725" lon="19.70306">
        <ele>1254.6600341797</ele>
        <time>2024-09-23T09:55:13.000Z</time>
      </trkpt>
      <trkpt lat="42.5373" lon="19.70291">
        <ele>1252.7399902344</ele>
        <time>2024-09-23T09:55:14.000Z</time>
      </trkpt>
      <trkpt lat="42.53737" lon="19.70256">
        <ele>1249.3699951172</ele>
        <time>2024-09-23T09:55:16.000Z</time>
      </trkpt>
      <trkpt lat="42.5374" lon="19.70242">
        <ele>1248.8900146484</ele>
        <time>2024-09-23T09:55:17.000Z</time>
      </trkpt>
      <trkpt lat="42.53745" lon="19.70222">
        <ele>1247.4499511719</ele>
        <time>2024-09-23T09:55:18.000Z</time>
      </trkpt>
      <trkpt lat="42.53748" lon="19.70208">
        <ele>1246.0100097656</ele>
        <time>2024-09-23T09:55:19.000Z</time>
      </trkpt>
      <trkpt lat="42.53749" lon="19.70179">
        <ele>1244.5600585938</ele>
        <time>2024-09-23T09:55:20.000Z</time>
      </trkpt>
      <trkpt lat="42.53751" lon="19.70169">
        <ele>1243.5999755859</ele>
        <time>2024-09-23T09:55:21.000Z</time>
      </trkpt>
      <trkpt lat="42.53755" lon="19.70152">
        <ele>1243.1199951172</ele>
        <time>2024-09-23T09:55:22.000Z</time>
      </trkpt>
      <trkpt lat="42.53761" lon="19.7014">
        <ele>1243.1199951172</ele>
        <time>2024-09-23T09:55:23.000Z</time>
      </trkpt>
      <trkpt lat="42.5377" lon="19.70133">
        <ele>1243.1199951172</ele>
        <time>2024-09-23T09:55:24.000Z</time>
      </trkpt>
      <trkpt lat="42.53778" lon="19.70131">
        <ele>1243.5999755859</ele>
        <time>2024-09-23T09:55:25.000Z</time>
      </trkpt>
      <trkpt lat="42.53785" lon="19.70132">
        <ele>1242.6400146484</ele>
        <time>2024-09-23T09:55:26.000Z</time>
      </trkpt>
      <trkpt lat="42.5379" lon="19.70135">
        <ele>1241.6800537109</ele>
        <time>2024-09-23T09:55:27.000Z</time>
      </trkpt>
      <trkpt lat="42.53795" lon="19.70144">
        <ele>1241.1999511719</ele>
        <time>2024-09-23T09:55:28.000Z</time>
      </trkpt>
      <trkpt lat="42.53802" lon="19.70156">
        <ele>1240.2399902344</ele>
        <time>2024-09-23T09:55:29.000Z</time>
      </trkpt>
      <trkpt lat="42.5381" lon="19.70164">
        <ele>1240.2399902344</ele>
        <time>2024-09-23T09:55:30.000Z</time>
      </trkpt>
      <trkpt lat="42.53819" lon="19.7017">
        <ele>1239.7600097656</ele>
        <time>2024-09-23T09:55:31.000Z</time>
      </trkpt>
      <trkpt lat="42.53829" lon="19.70175">
        <ele>1239.7600097656</ele>
        <time>2024-09-23T09:55:32.000Z</time>
      </trkpt>
      <trkpt lat="42.53838" lon="19.70178">
        <ele>1239.2800292969</ele>
        <time>2024-09-23T09:55:33.000Z</time>
      </trkpt>
      <trkpt lat="42.53848" lon="19.70179">
        <ele>1238.8000488281</ele>
        <time>2024-09-23T09:55:34.000Z</time>
      </trkpt>
      <trkpt lat="42.53858" lon="19.70176">
        <ele>1237.8299560547</ele>
        <time>2024-09-23T09:55:35.000Z</time>
      </trkpt>
      <trkpt lat="42.53867" lon="19.70169">
        <ele>1236.8699951172</ele>
        <time>2024-09-23T09:55:36.000Z</time>
      </trkpt>
      <trkpt lat="42.53873" lon="19.70161">
        <ele>1235.9100341797</ele>
        <time>2024-09-23T09:55:37.000Z</time>
      </trkpt>
      <trkpt lat="42.53874" lon="19.70152">
        <ele>1237.8299560547</ele>
        <time>2024-09-23T09:55:38.000Z</time>
      </trkpt>
      <trkpt lat="42.53871" lon="19.70142">
        <ele>1238.3199462891</ele>
        <time>2024-09-23T09:55:39.000Z</time>
      </trkpt>
      <trkpt lat="42.53866" lon="19.70135">
        <ele>1238.8000488281</ele>
        <time>2024-09-23T09:55:40.000Z</time>
      </trkpt>
      <trkpt lat="42.53859" lon="19.70125">
        <ele>1238.8000488281</ele>
        <time>2024-09-23T09:55:41.000Z</time>
      </trkpt>
      <trkpt lat="42.53856" lon="19.70121">
        <ele>1238.8000488281</ele>
        <time>2024-09-23T09:55:42.000Z</time>
      </trkpt>
      <trkpt lat="42.5385" lon="19.70111">
        <ele>1239.2800292969</ele>
        <time>2024-09-23T09:55:43.000Z</time>
      </trkpt>
      <trkpt lat="42.53848" lon="19.70106">
        <ele>1239.2800292969</ele>
        <time>2024-09-23T09:55:44.000Z</time>
      </trkpt>
      <trkpt lat="42.53846" lon="19.70099">
        <ele>1239.2800292969</ele>
        <time>2024-09-23T09:55:45.000Z</time>
      </trkpt>
      <trkpt lat="42.53844" lon="19.70091">
        <ele>1239.2800292969</ele>
        <time>2024-09-23T09:55:46.000Z</time>
      </trkpt>
      <trkpt lat="42.53843" lon="19.70082">
        <ele>1239.2800292969</ele>
        <time>2024-09-23T09:55:47.000Z</time>
      </trkpt>
      <trkpt lat="42.53844" lon="19.70076">
        <ele>1238.8000488281</ele>
        <time>2024-09-23T09:55:48.000Z</time>
      </trkpt>
      <trkpt lat="42.53844" lon="19.70068">
        <ele>1237.8299560547</ele>
        <time>2024-09-23T09:55:49.000Z</time>
      </trkpt>
      <trkpt lat="42.53842" lon="19.70058">
        <ele>1236.8699951172</ele>
        <time>2024-09-23T09:55:50.000Z</time>
      </trkpt>
      <trkpt lat="42.53839" lon="19.70039">
        <ele>1234.9499511719</ele>
        <time>2024-09-23T09:55:52.000Z</time>
      </trkpt>
      <trkpt lat="42.53837" lon="19.70023">
        <ele>1233.5100097656</ele>
        <time>2024-09-23T09:55:54.000Z</time>
      </trkpt>
      <trkpt lat="42.53835" lon="19.70013">
        <ele>1233.0300292969</ele>
        <time>2024-09-23T09:55:55.000Z</time>
      </trkpt>
      <trkpt lat="42.53829" lon="19.69994">
        <ele>1231.5899658203</ele>
        <time>2024-09-23T09:55:56.000Z</time>
      </trkpt>
      <trkpt lat="42.53827" lon="19.69987">
        <ele>1231.1099853516</ele>
        <time>2024-09-23T09:55:57.000Z</time>
      </trkpt>
      <trkpt lat="42.53826" lon="19.69979">
        <ele>1230.1400146484</ele>
        <time>2024-09-23T09:55:58.000Z</time>
      </trkpt>
      <trkpt lat="42.53825" lon="19.6996">
        <ele>1228.6999511719</ele>
        <time>2024-09-23T09:55:59.000Z</time>
      </trkpt>
      <trkpt lat="42.53826" lon="19.69948">
        <ele>1228.2199707031</ele>
        <time>2024-09-23T09:56:00.000Z</time>
      </trkpt>
      <trkpt lat="42.5383" lon="19.69924">
        <ele>1226.7800292969</ele>
        <time>2024-09-23T09:56:01.000Z</time>
      </trkpt>
      <trkpt lat="42.53832" lon="19.69915">
        <ele>1226.3000488281</ele>
        <time>2024-09-23T09:56:02.000Z</time>
      </trkpt>
      <trkpt lat="42.53838" lon="19.699">
        <ele>1225.3399658203</ele>
        <time>2024-09-23T09:56:03.000Z</time>
      </trkpt>
      <trkpt lat="42.53844" lon="19.69889">
        <ele>1225.3399658203</ele>
        <time>2024-09-23T09:56:04.000Z</time>
      </trkpt>
      <trkpt lat="42.53849" lon="19.69879">
        <ele>1224.3800048828</ele>
        <time>2024-09-23T09:56:05.000Z</time>
      </trkpt>
      <trkpt lat="42.53851" lon="19.69866">
        <ele>1224.3800048828</ele>
        <time>2024-09-23T09:56:06.000Z</time>
      </trkpt>
      <trkpt lat="42.5385" lon="19.69851">
        <ele>1222.9300537109</ele>
        <time>2024-09-23T09:56:07.000Z</time>
      </trkpt>
      <trkpt lat="42.53848" lon="19.69836">
        <ele>1221.4899902344</ele>
        <time>2024-09-23T09:56:08.000Z</time>
      </trkpt>
      <trkpt lat="42.5385" lon="19.69822">
        <ele>1221.0100097656</ele>
        <time>2024-09-23T09:56:09.000Z</time>
      </trkpt>
      <trkpt lat="42.53856" lon="19.69797">
        <ele>1219.0899658203</ele>
        <time>2024-09-23T09:56:11.000Z</time>
      </trkpt>
      <trkpt lat="42.53866" lon="19.69756">
        <ele>1216.2099609375</ele>
        <time>2024-09-23T09:56:14.000Z</time>
      </trkpt>
      <trkpt lat="42.53871" lon="19.69738">
        <ele>1214.7600097656</ele>
        <time>2024-09-23T09:56:16.000Z</time>
      </trkpt>
      <trkpt lat="42.53873" lon="19.69732">
        <ele>1214.2800292969</ele>
        <time>2024-09-23T09:56:17.000Z</time>
      </trkpt>
      <trkpt lat="42.53877" lon="19.69723">
        <ele>1213.3199462891</ele>
        <time>2024-09-23T09:56:18.000Z</time>
      </trkpt>
      <trkpt lat="42.53885" lon="19.69715">
        <ele>1212.8399658203</ele>
        <time>2024-09-23T09:56:19.000Z</time>
      </trkpt>
      <trkpt lat="42.53893" lon="19.69708">
        <ele>1211.8800048828</ele>
        <time>2024-09-23T09:56:20.000Z</time>
      </trkpt>
      <trkpt lat="42.53901" lon="19.69705">
        <ele>1211.4000244141</ele>
        <time>2024-09-23T09:56:21.000Z</time>
      </trkpt>
      <trkpt lat="42.53916" lon="19.69707">
        <ele>1209.9599609375</ele>
        <time>2024-09-23T09:56:22.000Z</time>
      </trkpt>
      <trkpt lat="42.53926" lon="19.69709">
        <ele>1209</ele>
        <time>2024-09-23T09:56:23.000Z</time>
      </trkpt>
      <trkpt lat="42.53938" lon="19.69711">
        <ele>1208.5100097656</ele>
        <time>2024-09-23T09:56:24.000Z</time>
      </trkpt>
      <trkpt lat="42.5396" lon="19.69716">
        <ele>1207.0699462891</ele>
        <time>2024-09-23T09:56:26.000Z</time>
      </trkpt>
      <trkpt lat="42.53979" lon="19.69719">
        <ele>1206.1099853516</ele>
        <time>2024-09-23T09:56:27.000Z</time>
      </trkpt>
      <trkpt lat="42.53988" lon="19.69721">
        <ele>1205.6300048828</ele>
        <time>2024-09-23T09:56:28.000Z</time>
      </trkpt>
      <trkpt lat="42.53996" lon="19.69723">
        <ele>1205.1500244141</ele>
        <time>2024-09-23T09:56:29.000Z</time>
      </trkpt>
      <trkpt lat="42.54006" lon="19.69722">
        <ele>1204.6700439453</ele>
        <time>2024-09-23T09:56:30.000Z</time>
      </trkpt>
      <trkpt lat="42.54014" lon="19.69718">
        <ele>1204.6700439453</ele>
        <time>2024-09-23T09:56:31.000Z</time>
      </trkpt>
      <trkpt lat="42.54021" lon="19.69709">
        <ele>1204.1899414062</ele>
        <time>2024-09-23T09:56:32.000Z</time>
      </trkpt>
      <trkpt lat="42.54024" lon="19.69698">
        <ele>1202.75</ele>
        <time>2024-09-23T09:56:33.000Z</time>
      </trkpt>
      <trkpt lat="42.54022" lon="19.69685">
        <ele>1202.75</ele>
        <time>2024-09-23T09:56:34.000Z</time>
      </trkpt>
      <trkpt lat="42.54014" lon="19.6967">
        <ele>1203.2299804688</ele>
        <time>2024-09-23T09:56:35.000Z</time>
      </trkpt>
      <trkpt lat="42.5399" lon="19.69624">
        <ele>1199.3800048828</ele>
        <time>2024-09-23T09:56:38.000Z</time>
      </trkpt>
      <trkpt lat="42.53987" lon="19.69617">
        <ele>1198.4200439453</ele>
        <time>2024-09-23T09:56:39.000Z</time>
      </trkpt>
      <trkpt lat="42.53981" lon="19.69609">
        <ele>1197.9399414062</ele>
        <time>2024-09-23T09:56:40.000Z</time>
      </trkpt>
      <trkpt lat="42.53975" lon="19.69606">
        <ele>1196.9799804688</ele>
        <time>2024-09-23T09:56:41.000Z</time>
      </trkpt>
      <trkpt lat="42.5397" lon="19.69609">
        <ele>1196.5</ele>
        <time>2024-09-23T09:56:42.000Z</time>
      </trkpt>
      <trkpt lat="42.53968" lon="19.69616">
        <ele>1195.0600585938</ele>
        <time>2024-09-23T09:56:43.000Z</time>
      </trkpt>
      <trkpt lat="42.53969" lon="19.69626">
        <ele>1194.0899658203</ele>
        <time>2024-09-23T09:56:44.000Z</time>
      </trkpt>
      <trkpt lat="42.53971" lon="19.69637">
        <ele>1193.6099853516</ele>
        <time>2024-09-23T09:56:45.000Z</time>
      </trkpt>
      <trkpt lat="42.53973" lon="19.69649">
        <ele>1192.6500244141</ele>
        <time>2024-09-23T09:56:46.000Z</time>
      </trkpt>
      <trkpt lat="42.53972" lon="19.69662">
        <ele>1192.1700439453</ele>
        <time>2024-09-23T09:56:47.000Z</time>
      </trkpt>
      <trkpt lat="42.53969" lon="19.69673">
        <ele>1191.6899414062</ele>
        <time>2024-09-23T09:56:48.000Z</time>
      </trkpt>
      <trkpt lat="42.53964" lon="19.69681">
        <ele>1191.2099609375</ele>
        <time>2024-09-23T09:56:49.000Z</time>
      </trkpt>
      <trkpt lat="42.53958" lon="19.69684">
        <ele>1190.25</ele>
        <time>2024-09-23T09:56:50.000Z</time>
      </trkpt>
      <trkpt lat="42.53949" lon="19.69683">
        <ele>1189.2900390625</ele>
        <time>2024-09-23T09:56:51.000Z</time>
      </trkpt>
      <trkpt lat="42.53921" lon="19.69671">
        <ele>1186.8800048828</ele>
        <time>2024-09-23T09:56:53.000Z</time>
      </trkpt>
      <trkpt lat="42.53916" lon="19.6967">
        <ele>1186.4000244141</ele>
        <time>2024-09-23T09:56:54.000Z</time>
      </trkpt>
      <trkpt lat="42.53905" lon="19.69668">
        <ele>1185.9200439453</ele>
        <time>2024-09-23T09:56:55.000Z</time>
      </trkpt>
      <trkpt lat="42.53893" lon="19.69669">
        <ele>1184.4799804688</ele>
        <time>2024-09-23T09:56:56.000Z</time>
      </trkpt>
      <trkpt lat="42.53857" lon="19.6968">
        <ele>1182.0799560547</ele>
        <time>2024-09-23T09:56:58.000Z</time>
      </trkpt>
      <trkpt lat="42.53855" lon="19.69681">
        <ele>1181.5999755859</ele>
        <time>2024-09-23T09:56:59.000Z</time>
      </trkpt>
      <trkpt lat="42.53841" lon="19.69682">
        <ele>1180.6400146484</ele>
        <time>2024-09-23T09:57:00.000Z</time>
      </trkpt>
      <trkpt lat="42.53827" lon="19.6968">
        <ele>1178.7099609375</ele>
        <time>2024-09-23T09:57:01.000Z</time>
      </trkpt>
      <trkpt lat="42.53814" lon="19.69679">
        <ele>1177.75</ele>
        <time>2024-09-23T09:57:02.000Z</time>
      </trkpt>
      <trkpt lat="42.53803" lon="19.69683">
        <ele>1176.7900390625</ele>
        <time>2024-09-23T09:57:03.000Z</time>
      </trkpt>
      <trkpt lat="42.53795" lon="19.69692">
        <ele>1176.7900390625</ele>
        <time>2024-09-23T09:57:04.000Z</time>
      </trkpt>
      <trkpt lat="42.5379" lon="19.69705">
        <ele>1176.7900390625</ele>
        <time>2024-09-23T09:57:05.000Z</time>
      </trkpt>
      <trkpt lat="42.53789" lon="19.6972">
        <ele>1176.3100585938</ele>
        <time>2024-09-23T09:57:06.000Z</time>
      </trkpt>
      <trkpt lat="42.5379" lon="19.69737">
        <ele>1176.3100585938</ele>
        <time>2024-09-23T09:57:07.000Z</time>
      </trkpt>
      <trkpt lat="42.53793" lon="19.69784">
        <ele>1174.8699951172</ele>
        <time>2024-09-23T09:57:09.000Z</time>
      </trkpt>
      <trkpt lat="42.53794" lon="19.69796">
        <ele>1174.3900146484</ele>
        <time>2024-09-23T09:57:10.000Z</time>
      </trkpt>
      <trkpt lat="42.53793" lon="19.69811">
        <ele>1173.4300537109</ele>
        <time>2024-09-23T09:57:11.000Z</time>
      </trkpt>
      <trkpt lat="42.53789" lon="19.69828">
        <ele>1172.4699707031</ele>
        <time>2024-09-23T09:57:12.000Z</time>
      </trkpt>
      <trkpt lat="42.53783" lon="19.69844">
        <ele>1171.5</ele>
        <time>2024-09-23T09:57:13.000Z</time>
      </trkpt>
      <trkpt lat="42.53773" lon="19.69857">
        <ele>1170.5400390625</ele>
        <time>2024-09-23T09:57:14.000Z</time>
      </trkpt>
      <trkpt lat="42.5376" lon="19.6987">
        <ele>1170.0600585938</ele>
        <time>2024-09-23T09:57:15.000Z</time>
      </trkpt>
      <trkpt lat="42.53752" lon="19.69879">
        <ele>1170.0600585938</ele>
        <time>2024-09-23T09:57:16.000Z</time>
      </trkpt>
      <trkpt lat="42.53743" lon="19.69893">
        <ele>1170.0600585938</ele>
        <time>2024-09-23T09:57:17.000Z</time>
      </trkpt>
      <trkpt lat="42.53736" lon="19.69908">
        <ele>1169.5799560547</ele>
        <time>2024-09-23T09:57:18.000Z</time>
      </trkpt>
      <trkpt lat="42.53731" lon="19.69925">
        <ele>1168.1400146484</ele>
        <time>2024-09-23T09:57:19.000Z</time>
      </trkpt>
      <trkpt lat="42.53727" lon="19.69937">
        <ele>1167.6600341797</ele>
        <time>2024-09-23T09:57:20.000Z</time>
      </trkpt>
      <trkpt lat="42.53723" lon="19.69948">
        <ele>1166.2199707031</ele>
        <time>2024-09-23T09:57:21.000Z</time>
      </trkpt>
      <trkpt lat="42.53717" lon="19.69954">
        <ele>1164.7700195312</ele>
        <time>2024-09-23T09:57:22.000Z</time>
      </trkpt>
      <trkpt lat="42.5371" lon="19.69955">
        <ele>1163.3299560547</ele>
        <time>2024-09-23T09:57:23.000Z</time>
      </trkpt>
      <trkpt lat="42.53702" lon="19.69951">
        <ele>1161.8900146484</ele>
        <time>2024-09-23T09:57:24.000Z</time>
      </trkpt>
      <trkpt lat="42.53695" lon="19.69938">
        <ele>1159.9699707031</ele>
        <time>2024-09-23T09:57:25.000Z</time>
      </trkpt>
      <trkpt lat="42.5368" lon="19.69911">
        <ele>1156.5999755859</ele>
        <time>2024-09-23T09:57:27.000Z</time>
      </trkpt>
      <trkpt lat="42.53674" lon="19.69897">
        <ele>1155.1600341797</ele>
        <time>2024-09-23T09:57:28.000Z</time>
      </trkpt>
      <trkpt lat="42.53671" lon="19.6988">
        <ele>1153.7199707031</ele>
        <time>2024-09-23T09:57:29.000Z</time>
      </trkpt>
      <trkpt lat="42.53672" lon="19.6986">
        <ele>1152.2800292969</ele>
        <time>2024-09-23T09:57:30.000Z</time>
      </trkpt>
      <trkpt lat="42.53675" lon="19.69841">
        <ele>1152.2800292969</ele>
        <time>2024-09-23T09:57:31.000Z</time>
      </trkpt>
      <trkpt lat="42.53678" lon="19.69822">
        <ele>1151.8000488281</ele>
        <time>2024-09-23T09:57:32.000Z</time>
      </trkpt>
      <trkpt lat="42.53678" lon="19.69802">
        <ele>1151.8000488281</ele>
        <time>2024-09-23T09:57:33.000Z</time>
      </trkpt>
      <trkpt lat="42.53677" lon="19.69776">
        <ele>1151.8000488281</ele>
        <time>2024-09-23T09:57:34.000Z</time>
      </trkpt>
      <trkpt lat="42.53676" lon="19.69765">
        <ele>1151.8000488281</ele>
        <time>2024-09-23T09:57:35.000Z</time>
      </trkpt>
      <trkpt lat="42.53673" lon="19.69746">
        <ele>1151.3199462891</ele>
        <time>2024-09-23T09:57:36.000Z</time>
      </trkpt>
      <trkpt lat="42.53656" lon="19.69692">
        <ele>1149.8699951172</ele>
        <time>2024-09-23T09:57:38.000Z</time>
      </trkpt>
      <trkpt lat="42.53648" lon="19.6966">
        <ele>1147.9499511719</ele>
        <time>2024-09-23T09:57:40.000Z</time>
      </trkpt>
      <trkpt lat="42.53645" lon="19.69647">
        <ele>1147.4699707031</ele>
        <time>2024-09-23T09:57:41.000Z</time>
      </trkpt>
      <trkpt lat="42.5363" lon="19.69473">
        <ele>1135.9399414062</ele>
        <time>2024-09-23T09:57:49.000Z</time>
      </trkpt>
      <trkpt lat="42.5363" lon="19.69453">
        <ele>1134.9699707031</ele>
        <time>2024-09-23T09:57:50.000Z</time>
      </trkpt>
      <trkpt lat="42.53631" lon="19.69444">
        <ele>1134.4899902344</ele>
        <time>2024-09-23T09:57:51.000Z</time>
      </trkpt>
      <trkpt lat="42.53633" lon="19.69402">
        <ele>1133.5300292969</ele>
        <time>2024-09-23T09:57:52.000Z</time>
      </trkpt>
      <trkpt lat="42.53633" lon="19.69393">
        <ele>1133.5300292969</ele>
        <time>2024-09-23T09:57:53.000Z</time>
      </trkpt>
      <trkpt lat="42.53631" lon="19.69202">
        <ele>1128.2399902344</ele>
        <time>2024-09-23T09:58:01.000Z</time>
      </trkpt>
      <trkpt lat="42.53631" lon="19.69193">
        <ele>1127.7600097656</ele>
        <time>2024-09-23T09:58:02.000Z</time>
      </trkpt>
      <trkpt lat="42.53626" lon="19.69161">
        <ele>1126.3199462891</ele>
        <time>2024-09-23T09:58:03.000Z</time>
      </trkpt>
      <trkpt lat="42.53625" lon="19.69152">
        <ele>1126.3199462891</ele>
        <time>2024-09-23T09:58:04.000Z</time>
      </trkpt>
      <trkpt lat="42.53627" lon="19.69127">
        <ele>1125.8399658203</ele>
        <time>2024-09-23T09:58:05.000Z</time>
      </trkpt>
      <trkpt lat="42.53628" lon="19.69106">
        <ele>1125.8399658203</ele>
        <time>2024-09-23T09:58:06.000Z</time>
      </trkpt>
      <trkpt lat="42.53626" lon="19.69036">
        <ele>1125.3599853516</ele>
        <time>2024-09-23T09:58:09.000Z</time>
      </trkpt>
      <trkpt lat="42.53614" lon="19.68915">
        <ele>1124.4000244141</ele>
        <time>2024-09-23T09:58:15.000Z</time>
      </trkpt>
      <trkpt lat="42.53612" lon="19.68888">
        <ele>1122.9599609375</ele>
        <time>2024-09-23T09:58:16.000Z</time>
      </trkpt>
      <trkpt lat="42.53612" lon="19.68886">
        <ele>1122.9599609375</ele>
        <time>2024-09-23T09:58:17.000Z</time>
      </trkpt>
      <trkpt lat="42.53613" lon="19.68873">
        <ele>1122</ele>
        <time>2024-09-23T09:58:18.000Z</time>
      </trkpt>
      <trkpt lat="42.53617" lon="19.68862">
        <ele>1121.0300292969</ele>
        <time>2024-09-23T09:58:19.000Z</time>
      </trkpt>
      <trkpt lat="42.53625" lon="19.68852">
        <ele>1120.0699462891</ele>
        <time>2024-09-23T09:58:20.000Z</time>
      </trkpt>
      <trkpt lat="42.53634" lon="19.68846">
        <ele>1120.0699462891</ele>
        <time>2024-09-23T09:58:21.000Z</time>
      </trkpt>
      <trkpt lat="42.53645" lon="19.68841">
        <ele>1120.5500488281</ele>
        <time>2024-09-23T09:58:22.000Z</time>
      </trkpt>
      <trkpt lat="42.53652" lon="19.68835">
        <ele>1121.0300292969</ele>
        <time>2024-09-23T09:58:23.000Z</time>
      </trkpt>
      <trkpt lat="42.53657" lon="19.68826">
        <ele>1121.0300292969</ele>
        <time>2024-09-23T09:58:24.000Z</time>
      </trkpt>
      <trkpt lat="42.53666" lon="19.68776">
        <ele>1119.5899658203</ele>
        <time>2024-09-23T09:58:27.000Z</time>
      </trkpt>
      <trkpt lat="42.53668" lon="19.68764">
        <ele>1119.1099853516</ele>
        <time>2024-09-23T09:58:28.000Z</time>
      </trkpt>
      <trkpt lat="42.53668" lon="19.6875">
        <ele>1119.1099853516</ele>
        <time>2024-09-23T09:58:29.000Z</time>
      </trkpt>
      <trkpt lat="42.53664" lon="19.68698">
        <ele>1117.1899414062</ele>
        <time>2024-09-23T09:58:31.000Z</time>
      </trkpt>
      <trkpt lat="42.53662" lon="19.68673">
        <ele>1117.1899414062</ele>
        <time>2024-09-23T09:58:32.000Z</time>
      </trkpt>
      <trkpt lat="42.5366" lon="19.68661">
        <ele>1116.7099609375</ele>
        <time>2024-09-23T09:58:33.000Z</time>
      </trkpt>
      <trkpt lat="42.53652" lon="19.68609">
        <ele>1118.6300048828</ele>
        <time>2024-09-23T09:58:35.000Z</time>
      </trkpt>
      <trkpt lat="42.5365" lon="19.6859">
        <ele>1119.1099853516</ele>
        <time>2024-09-23T09:58:36.000Z</time>
      </trkpt>
      <trkpt lat="42.5365" lon="19.68568">
        <ele>1119.1099853516</ele>
        <time>2024-09-23T09:58:37.000Z</time>
      </trkpt>
      <trkpt lat="42.5365" lon="19.68548">
        <ele>1119.1099853516</ele>
        <time>2024-09-23T09:58:38.000Z</time>
      </trkpt>
      <trkpt lat="42.53652" lon="19.68532">
        <ele>1119.5899658203</ele>
        <time>2024-09-23T09:58:39.000Z</time>
      </trkpt>
      <trkpt lat="42.53656" lon="19.68514">
        <ele>1119.5899658203</ele>
        <time>2024-09-23T09:58:40.000Z</time>
      </trkpt>
      <trkpt lat="42.53662" lon="19.68496">
        <ele>1119.5899658203</ele>
        <time>2024-09-23T09:58:41.000Z</time>
      </trkpt>
      <trkpt lat="42.53671" lon="19.68473">
        <ele>1119.1099853516</ele>
        <time>2024-09-23T09:58:42.000Z</time>
      </trkpt>
      <trkpt lat="42.53675" lon="19.68459">
        <ele>1118.6300048828</ele>
        <time>2024-09-23T09:58:43.000Z</time>
      </trkpt>
      <trkpt lat="42.53683" lon="19.68433">
        <ele>1118.1500244141</ele>
        <time>2024-09-23T09:58:44.000Z</time>
      </trkpt>
      <trkpt lat="42.53692" lon="19.684">
        <ele>1117.1899414062</ele>
        <time>2024-09-23T09:58:46.000Z</time>
      </trkpt>
      <trkpt lat="42.53694" lon="19.68386">
        <ele>1116.2299804688</ele>
        <time>2024-09-23T09:58:47.000Z</time>
      </trkpt>
      <trkpt lat="42.53693" lon="19.68369">
        <ele>1116.2299804688</ele>
        <time>2024-09-23T09:58:48.000Z</time>
      </trkpt>
      <trkpt lat="42.5369" lon="19.68351">
        <ele>1115.2700195312</ele>
        <time>2024-09-23T09:58:49.000Z</time>
      </trkpt>
      <trkpt lat="42.53685" lon="19.68329">
        <ele>1114.7900390625</ele>
        <time>2024-09-23T09:58:50.000Z</time>
      </trkpt>
      <trkpt lat="42.5368" lon="19.68316">
        <ele>1114.7900390625</ele>
        <time>2024-09-23T09:58:51.000Z</time>
      </trkpt>
      <trkpt lat="42.53671" lon="19.68303">
        <ele>1114.7900390625</ele>
        <time>2024-09-23T09:58:52.000Z</time>
      </trkpt>
      <trkpt lat="42.53658" lon="19.68291">
        <ele>1115.75</ele>
        <time>2024-09-23T09:58:53.000Z</time>
      </trkpt>
      <trkpt lat="42.53649" lon="19.68281">
        <ele>1115.75</ele>
        <time>2024-09-23T09:58:54.000Z</time>
      </trkpt>
      <trkpt lat="42.5364" lon="19.68266">
        <ele>1114.7900390625</ele>
        <time>2024-09-23T09:58:55.000Z</time>
      </trkpt>
      <trkpt lat="42.53568" lon="19.68132">
        <ele>1102.7700195312</ele>
        <time>2024-09-23T09:59:02.000Z</time>
      </trkpt>
      <trkpt lat="42.53561" lon="19.68118">
        <ele>1101.8100585938</ele>
        <time>2024-09-23T09:59:03.000Z</time>
      </trkpt>
      <trkpt lat="42.53557" lon="19.68105">
        <ele>1100.8499755859</ele>
        <time>2024-09-23T09:59:04.000Z</time>
      </trkpt>
      <trkpt lat="42.53553" lon="19.68079">
        <ele>1098.4399414062</ele>
        <time>2024-09-23T09:59:05.000Z</time>
      </trkpt>
      <trkpt lat="42.53548" lon="19.6806">
        <ele>1096.5200195312</ele>
        <time>2024-09-23T09:59:06.000Z</time>
      </trkpt>
      <trkpt lat="42.53543" lon="19.68044">
        <ele>1094.5999755859</ele>
        <time>2024-09-23T09:59:07.000Z</time>
      </trkpt>
      <trkpt lat="42.53542" lon="19.68023">
        <ele>1092.1999511719</ele>
        <time>2024-09-23T09:59:08.000Z</time>
      </trkpt>
      <trkpt lat="42.53542" lon="19.68005">
        <ele>1090.2700195312</ele>
        <time>2024-09-23T09:59:09.000Z</time>
      </trkpt>
      <trkpt lat="42.5354" lon="19.67987">
        <ele>1088.3499755859</ele>
        <time>2024-09-23T09:59:10.000Z</time>
      </trkpt>
      <trkpt lat="42.53532" lon="19.6797">
        <ele>1086.9100341797</ele>
        <time>2024-09-23T09:59:11.000Z</time>
      </trkpt>
      <trkpt lat="42.53522" lon="19.6796">
        <ele>1085.9499511719</ele>
        <time>2024-09-23T09:59:12.000Z</time>
      </trkpt>
      <trkpt lat="42.53504" lon="19.67949">
        <ele>1084.9899902344</ele>
        <time>2024-09-23T09:59:13.000Z</time>
      </trkpt>
      <trkpt lat="42.53497" lon="19.67943">
        <ele>1084.5</ele>
        <time>2024-09-23T09:59:14.000Z</time>
      </trkpt>
      <trkpt lat="42.53487" lon="19.67935">
        <ele>1084.0200195312</ele>
        <time>2024-09-23T09:59:15.000Z</time>
      </trkpt>
      <trkpt lat="42.53477" lon="19.67924">
        <ele>1083.0600585938</ele>
        <time>2024-09-23T09:59:16.000Z</time>
      </trkpt>
      <trkpt lat="42.53469" lon="19.6791">
        <ele>1082.0999755859</ele>
        <time>2024-09-23T09:59:17.000Z</time>
      </trkpt>
      <trkpt lat="42.53461" lon="19.67893">
        <ele>1080.1800537109</ele>
        <time>2024-09-23T09:59:18.000Z</time>
      </trkpt>
      <trkpt lat="42.53456" lon="19.67876">
        <ele>1078.7399902344</ele>
        <time>2024-09-23T09:59:19.000Z</time>
      </trkpt>
      <trkpt lat="42.53455" lon="19.67858">
        <ele>1077.2900390625</ele>
        <time>2024-09-23T09:59:20.000Z</time>
      </trkpt>
      <trkpt lat="42.53458" lon="19.67837">
        <ele>1076.3299560547</ele>
        <time>2024-09-23T09:59:21.000Z</time>
      </trkpt>
      <trkpt lat="42.53459" lon="19.67824">
        <ele>1075.3699951172</ele>
        <time>2024-09-23T09:59:22.000Z</time>
      </trkpt>
      <trkpt lat="42.53457" lon="19.67807">
        <ele>1074.8900146484</ele>
        <time>2024-09-23T09:59:23.000Z</time>
      </trkpt>
      <trkpt lat="42.53455" lon="19.67794">
        <ele>1074.4100341797</ele>
        <time>2024-09-23T09:59:24.000Z</time>
      </trkpt>
      <trkpt lat="42.53456" lon="19.67779">
        <ele>1073.4499511719</ele>
        <time>2024-09-23T09:59:25.000Z</time>
      </trkpt>
      <trkpt lat="42.53462" lon="19.67766">
        <ele>1072.9699707031</ele>
        <time>2024-09-23T09:59:26.000Z</time>
      </trkpt>
      <trkpt lat="42.53467" lon="19.67752">
        <ele>1071.5300292969</ele>
        <time>2024-09-23T09:59:27.000Z</time>
      </trkpt>
      <trkpt lat="42.5347" lon="19.67736">
        <ele>1071.0500488281</ele>
        <time>2024-09-23T09:59:28.000Z</time>
      </trkpt>
      <trkpt lat="42.53471" lon="19.6772">
        <ele>1070.0799560547</ele>
        <time>2024-09-23T09:59:29.000Z</time>
      </trkpt>
      <trkpt lat="42.53475" lon="19.67706">
        <ele>1069.5999755859</ele>
        <time>2024-09-23T09:59:30.000Z</time>
      </trkpt>
      <trkpt lat="42.53483" lon="19.67691">
        <ele>1068.1600341797</ele>
        <time>2024-09-23T09:59:31.000Z</time>
      </trkpt>
      <trkpt lat="42.53489" lon="19.67676">
        <ele>1067.1999511719</ele>
        <time>2024-09-23T09:59:32.000Z</time>
      </trkpt>
      <trkpt lat="42.53502" lon="19.67639">
        <ele>1065.7600097656</ele>
        <time>2024-09-23T09:59:34.000Z</time>
      </trkpt>
      <trkpt lat="42.53506" lon="19.67627">
        <ele>1065.2800292969</ele>
        <time>2024-09-23T09:59:35.000Z</time>
      </trkpt>
      <trkpt lat="42.5351" lon="19.67612">
        <ele>1063.8399658203</ele>
        <time>2024-09-23T09:59:36.000Z</time>
      </trkpt>
      <trkpt lat="42.5351" lon="19.67597">
        <ele>1062.3900146484</ele>
        <time>2024-09-23T09:59:37.000Z</time>
      </trkpt>
      <trkpt lat="42.53506" lon="19.6758">
        <ele>1060.4699707031</ele>
        <time>2024-09-23T09:59:38.000Z</time>
      </trkpt>
      <trkpt lat="42.5348" lon="19.6749">
        <ele>1050.8599853516</ele>
        <time>2024-09-23T09:59:42.000Z</time>
      </trkpt>
      <trkpt lat="42.53472" lon="19.67469">
        <ele>1049.4200439453</ele>
        <time>2024-09-23T09:59:43.000Z</time>
      </trkpt>
      <trkpt lat="42.53469" lon="19.67461">
        <ele>1048.4499511719</ele>
        <time>2024-09-23T09:59:44.000Z</time>
      </trkpt>
      <trkpt lat="42.53456" lon="19.67438">
        <ele>1046.5300292969</ele>
        <time>2024-09-23T09:59:45.000Z</time>
      </trkpt>
      <trkpt lat="42.5337" lon="19.6731">
        <ele>1034.5200195312</ele>
        <time>2024-09-23T09:59:52.000Z</time>
      </trkpt>
      <trkpt lat="42.53358" lon="19.67296">
        <ele>1034.0400390625</ele>
        <time>2024-09-23T09:59:53.000Z</time>
      </trkpt>
      <trkpt lat="42.53342" lon="19.67283">
        <ele>1034.0400390625</ele>
        <time>2024-09-23T09:59:54.000Z</time>
      </trkpt>
      <trkpt lat="42.53334" lon="19.67274">
        <ele>1033.0699462891</ele>
        <time>2024-09-23T09:59:55.000Z</time>
      </trkpt>
      <trkpt lat="42.53326" lon="19.67259">
        <ele>1032.5899658203</ele>
        <time>2024-09-23T09:59:56.000Z</time>
      </trkpt>
      <trkpt lat="42.53321" lon="19.6724">
        <ele>1031.1500244141</ele>
        <time>2024-09-23T09:59:57.000Z</time>
      </trkpt>
      <trkpt lat="42.53313" lon="19.672">
        <ele>1027.7900390625</ele>
        <time>2024-09-23T09:59:58.000Z</time>
      </trkpt>
      <trkpt lat="42.53309" lon="19.67185">
        <ele>1026.3399658203</ele>
        <time>2024-09-23T09:59:59.000Z</time>
      </trkpt>
      <trkpt lat="42.53306" lon="19.67172">
        <ele>1025.3800048828</ele>
        <time>2024-09-23T10:00:00.000Z</time>
      </trkpt>
      <trkpt lat="42.533" lon="19.67155">
        <ele>1023.9400024414</ele>
        <time>2024-09-23T10:00:01.000Z</time>
      </trkpt>
      <trkpt lat="42.5329" lon="19.67131">
        <ele>1022.0200195312</ele>
        <time>2024-09-23T10:00:02.000Z</time>
      </trkpt>
      <trkpt lat="42.53285" lon="19.67119">
        <ele>1021.0599975586</ele>
        <time>2024-09-23T10:00:03.000Z</time>
      </trkpt>
      <trkpt lat="42.53281" lon="19.671">
        <ele>1018.6500244141</ele>
        <time>2024-09-23T10:00:04.000Z</time>
      </trkpt>
      <trkpt lat="42.5328" lon="19.67078">
        <ele>1016.25</ele>
        <time>2024-09-23T10:00:05.000Z</time>
      </trkpt>
      <trkpt lat="42.53278" lon="19.67052">
        <ele>1012.8900146484</ele>
        <time>2024-09-23T10:00:06.000Z</time>
      </trkpt>
      <trkpt lat="42.53271" lon="19.66995">
        <ele>1007.1199951172</ele>
        <time>2024-09-23T10:00:09.000Z</time>
      </trkpt>
      <trkpt lat="42.53271" lon="19.66976">
        <ele>1005.200012207</ele>
        <time>2024-09-23T10:00:10.000Z</time>
      </trkpt>
      <trkpt lat="42.53275" lon="19.66958">
        <ele>1003.75</ele>
        <time>2024-09-23T10:00:11.000Z</time>
      </trkpt>
      <trkpt lat="42.53287" lon="19.6693">
        <ele>1000.8699951172</ele>
        <time>2024-09-23T10:00:12.000Z</time>
      </trkpt>
      <trkpt lat="42.53288" lon="19.66927">
        <ele>1000.3900146484</ele>
        <time>2024-09-23T10:00:13.000Z</time>
      </trkpt>
      <trkpt lat="42.53291" lon="19.66911">
        <ele>999.42999267578</ele>
        <time>2024-09-23T10:00:14.000Z</time>
      </trkpt>
      <trkpt lat="42.5329" lon="19.66896">
        <ele>998.46997070312</ele>
        <time>2024-09-23T10:00:15.000Z</time>
      </trkpt>
      <trkpt lat="42.53287" lon="19.6688">
        <ele>997.51000976562</ele>
        <time>2024-09-23T10:00:16.000Z</time>
      </trkpt>
      <trkpt lat="42.53283" lon="19.66863">
        <ele>995.58001708984</ele>
        <time>2024-09-23T10:00:17.000Z</time>
      </trkpt>
      <trkpt lat="42.53282" lon="19.66845">
        <ele>994.14001464844</ele>
        <time>2024-09-23T10:00:18.000Z</time>
      </trkpt>
      <trkpt lat="42.5328" lon="19.66812">
        <ele>991.26000976562</ele>
        <time>2024-09-23T10:00:19.000Z</time>
      </trkpt>
      <trkpt lat="42.5328" lon="19.66804">
        <ele>990.29998779297</ele>
        <time>2024-09-23T10:00:20.000Z</time>
      </trkpt>
      <trkpt lat="42.53284" lon="19.66786">
        <ele>989.33001708984</ele>
        <time>2024-09-23T10:00:21.000Z</time>
      </trkpt>
      <trkpt lat="42.53292" lon="19.66765">
        <ele>987.89001464844</ele>
        <time>2024-09-23T10:00:22.000Z</time>
      </trkpt>
      <trkpt lat="42.53296" lon="19.66751">
        <ele>987.40997314453</ele>
        <time>2024-09-23T10:00:23.000Z</time>
      </trkpt>
      <trkpt lat="42.53298" lon="19.66734">
        <ele>986.45001220703</ele>
        <time>2024-09-23T10:00:24.000Z</time>
      </trkpt>
      <trkpt lat="42.53296" lon="19.66716">
        <ele>985.96997070312</ele>
        <time>2024-09-23T10:00:25.000Z</time>
      </trkpt>
      <trkpt lat="42.53291" lon="19.66697">
        <ele>985.01000976562</ele>
        <time>2024-09-23T10:00:26.000Z</time>
      </trkpt>
      <trkpt lat="42.5329" lon="19.66685">
        <ele>984.53002929688</ele>
        <time>2024-09-23T10:00:27.000Z</time>
      </trkpt>
      <trkpt lat="42.53293" lon="19.66671">
        <ele>984.53002929688</ele>
        <time>2024-09-23T10:00:28.000Z</time>
      </trkpt>
      <trkpt lat="42.53298" lon="19.66658">
        <ele>983.57000732422</ele>
        <time>2024-09-23T10:00:29.000Z</time>
      </trkpt>
      <trkpt lat="42.53299" lon="19.66642">
        <ele>982.59997558594</ele>
        <time>2024-09-23T10:00:30.000Z</time>
      </trkpt>
      <trkpt lat="42.53298" lon="19.66627">
        <ele>981.64001464844</ele>
        <time>2024-09-23T10:00:31.000Z</time>
      </trkpt>
      <trkpt lat="42.53297" lon="19.66607">
        <ele>979.71997070312</ele>
        <time>2024-09-23T10:00:32.000Z</time>
      </trkpt>
      <trkpt lat="42.53297" lon="19.66587">
        <ele>977.79998779297</ele>
        <time>2024-09-23T10:00:33.000Z</time>
      </trkpt>
      <trkpt lat="42.53301" lon="19.66536">
        <ele>973.95001220703</ele>
        <time>2024-09-23T10:00:35.000Z</time>
      </trkpt>
      <trkpt lat="42.53304" lon="19.66519">
        <ele>972.51000976562</ele>
        <time>2024-09-23T10:00:36.000Z</time>
      </trkpt>
      <trkpt lat="42.53319" lon="19.66429">
        <ele>966.26000976562</ele>
        <time>2024-09-23T10:00:40.000Z</time>
      </trkpt>
      <trkpt lat="42.53322" lon="19.66274">
        <ele>956.65002441406</ele>
        <time>2024-09-23T10:00:47.000Z</time>
      </trkpt>
      <trkpt lat="42.53324" lon="19.66253">
        <ele>955.69000244141</ele>
        <time>2024-09-23T10:00:48.000Z</time>
      </trkpt>
      <trkpt lat="42.53329" lon="19.66228">
        <ele>954.72998046875</ele>
        <time>2024-09-23T10:00:49.000Z</time>
      </trkpt>
      <trkpt lat="42.53338" lon="19.66179">
        <ele>951.84002685547</ele>
        <time>2024-09-23T10:00:51.000Z</time>
      </trkpt>
      <trkpt lat="42.5334" lon="19.66161">
        <ele>950.88000488281</ele>
        <time>2024-09-23T10:00:52.000Z</time>
      </trkpt>
      <trkpt lat="42.53341" lon="19.66131">
        <ele>949.44000244141</ele>
        <time>2024-09-23T10:00:53.000Z</time>
      </trkpt>
      <trkpt lat="42.5334" lon="19.66088">
        <ele>946.55999755859</ele>
        <time>2024-09-23T10:00:55.000Z</time>
      </trkpt>
      <trkpt lat="42.5334" lon="19.66074">
        <ele>945.59002685547</ele>
        <time>2024-09-23T10:00:56.000Z</time>
      </trkpt>
      <trkpt lat="42.53336" lon="19.66054">
        <ele>944.63000488281</ele>
        <time>2024-09-23T10:00:57.000Z</time>
      </trkpt>
      <trkpt lat="42.5333" lon="19.66034">
        <ele>942.71002197266</ele>
        <time>2024-09-23T10:00:58.000Z</time>
      </trkpt>
      <trkpt lat="42.5332" lon="19.6601">
        <ele>940.78997802734</ele>
        <time>2024-09-23T10:00:59.000Z</time>
      </trkpt>
      <trkpt lat="42.5331" lon="19.65993">
        <ele>938.85998535156</ele>
        <time>2024-09-23T10:01:00.000Z</time>
      </trkpt>
      <trkpt lat="42.53293" lon="19.65969">
        <ele>936.94000244141</ele>
        <time>2024-09-23T10:01:01.000Z</time>
      </trkpt>
      <trkpt lat="42.53287" lon="19.6596">
        <ele>935.97998046875</ele>
        <time>2024-09-23T10:01:02.000Z</time>
      </trkpt>
      <trkpt lat="42.53277" lon="19.65941">
        <ele>934.05999755859</ele>
        <time>2024-09-23T10:01:03.000Z</time>
      </trkpt>
      <trkpt lat="42.53269" lon="19.6592">
        <ele>932.14001464844</ele>
        <time>2024-09-23T10:01:04.000Z</time>
      </trkpt>
      <trkpt lat="42.53264" lon="19.65897">
        <ele>929.72998046875</ele>
        <time>2024-09-23T10:01:05.000Z</time>
      </trkpt>
      <trkpt lat="42.5326" lon="19.65854">
        <ele>925.40997314453</ele>
        <time>2024-09-23T10:01:06.000Z</time>
      </trkpt>
      <trkpt lat="42.53258" lon="19.65843">
        <ele>924.45001220703</ele>
        <time>2024-09-23T10:01:07.000Z</time>
      </trkpt>
      <trkpt lat="42.53255" lon="19.65829">
        <ele>923</ele>
        <time>2024-09-23T10:01:08.000Z</time>
      </trkpt>
      <trkpt lat="42.53249" lon="19.65805">
        <ele>920.59997558594</ele>
        <time>2024-09-23T10:01:09.000Z</time>
      </trkpt>
      <trkpt lat="42.53247" lon="19.65794">
        <ele>919.15997314453</ele>
        <time>2024-09-23T10:01:10.000Z</time>
      </trkpt>
      <trkpt lat="42.53246" lon="19.65775">
        <ele>917.23999023438</ele>
        <time>2024-09-23T10:01:11.000Z</time>
      </trkpt>
      <trkpt lat="42.53247" lon="19.65756">
        <ele>915.78997802734</ele>
        <time>2024-09-23T10:01:12.000Z</time>
      </trkpt>
      <trkpt lat="42.53249" lon="19.65742">
        <ele>914.34997558594</ele>
        <time>2024-09-23T10:01:13.000Z</time>
      </trkpt>
      <trkpt lat="42.53252" lon="19.65731">
        <ele>913.86999511719</ele>
        <time>2024-09-23T10:01:14.000Z</time>
      </trkpt>
      <trkpt lat="42.53257" lon="19.65725">
        <ele>912.42999267578</ele>
        <time>2024-09-23T10:01:15.000Z</time>
      </trkpt>
      <trkpt lat="42.53262" lon="19.65724">
        <ele>911.46997070312</ele>
        <time>2024-09-23T10:01:16.000Z</time>
      </trkpt>
      <trkpt lat="42.53267" lon="19.65727">
        <ele>910.51000976562</ele>
        <time>2024-09-23T10:01:17.000Z</time>
      </trkpt>
      <trkpt lat="42.5327" lon="19.65736">
        <ele>909.05999755859</ele>
        <time>2024-09-23T10:01:18.000Z</time>
      </trkpt>
      <trkpt lat="42.5327" lon="19.65748">
        <ele>908.09997558594</ele>
        <time>2024-09-23T10:01:19.000Z</time>
      </trkpt>
      <trkpt lat="42.53268" lon="19.65768">
        <ele>906.17999267578</ele>
        <time>2024-09-23T10:01:20.000Z</time>
      </trkpt>
      <trkpt lat="42.53271" lon="19.65779">
        <ele>905.70001220703</ele>
        <time>2024-09-23T10:01:21.000Z</time>
      </trkpt>
      <trkpt lat="42.53276" lon="19.65791">
        <ele>904.73999023438</ele>
        <time>2024-09-23T10:01:22.000Z</time>
      </trkpt>
      <trkpt lat="42.53285" lon="19.65799">
        <ele>904.26000976562</ele>
        <time>2024-09-23T10:01:23.000Z</time>
      </trkpt>
      <trkpt lat="42.53293" lon="19.65799">
        <ele>903.78002929688</ele>
        <time>2024-09-23T10:01:24.000Z</time>
      </trkpt>
      <trkpt lat="42.53299" lon="19.65792">
        <ele>903.29998779297</ele>
        <time>2024-09-23T10:01:25.000Z</time>
      </trkpt>
      <trkpt lat="42.53303" lon="19.65781">
        <ele>902.33001708984</ele>
        <time>2024-09-23T10:01:26.000Z</time>
      </trkpt>
      <trkpt lat="42.53304" lon="19.65765">
        <ele>901.36999511719</ele>
        <time>2024-09-23T10:01:27.000Z</time>
      </trkpt>
      <trkpt lat="42.53311" lon="19.65672">
        <ele>895.11999511719</ele>
        <time>2024-09-23T10:01:31.000Z</time>
      </trkpt>
      <trkpt lat="42.53311" lon="19.65664">
        <ele>894.64001464844</ele>
        <time>2024-09-23T10:01:32.000Z</time>
      </trkpt>
      <trkpt lat="42.5331" lon="19.65643">
        <ele>894.15997314453</ele>
        <time>2024-09-23T10:01:33.000Z</time>
      </trkpt>
      <trkpt lat="42.53307" lon="19.65624">
        <ele>893.20001220703</ele>
        <time>2024-09-23T10:01:34.000Z</time>
      </trkpt>
      <trkpt lat="42.53303" lon="19.65608">
        <ele>891.76000976562</ele>
        <time>2024-09-23T10:01:35.000Z</time>
      </trkpt>
      <trkpt lat="42.53288" lon="19.65589">
        <ele>890.79998779297</ele>
        <time>2024-09-23T10:01:36.000Z</time>
      </trkpt>
      <trkpt lat="42.53284" lon="19.65583">
        <ele>890.79998779297</ele>
        <time>2024-09-23T10:01:37.000Z</time>
      </trkpt>
      <trkpt lat="42.53276" lon="19.65568">
        <ele>889.35998535156</ele>
        <time>2024-09-23T10:01:38.000Z</time>
      </trkpt>
      <trkpt lat="42.53264" lon="19.65535">
        <ele>889.35998535156</ele>
        <time>2024-09-23T10:01:39.000Z</time>
      </trkpt>
      <trkpt lat="42.53262" lon="19.65528">
        <ele>888.88000488281</ele>
        <time>2024-09-23T10:01:40.000Z</time>
      </trkpt>
      <trkpt lat="42.53259" lon="19.65512">
        <ele>888.88000488281</ele>
        <time>2024-09-23T10:01:41.000Z</time>
      </trkpt>
      <trkpt lat="42.53256" lon="19.65493">
        <ele>888.40002441406</ele>
        <time>2024-09-23T10:01:42.000Z</time>
      </trkpt>
      <trkpt lat="42.53251" lon="19.65473">
        <ele>888.40002441406</ele>
        <time>2024-09-23T10:01:43.000Z</time>
      </trkpt>
      <trkpt lat="42.53243" lon="19.65454">
        <ele>887.90997314453</ele>
        <time>2024-09-23T10:01:44.000Z</time>
      </trkpt>
      <trkpt lat="42.53231" lon="19.65432">
        <ele>887.90997314453</ele>
        <time>2024-09-23T10:01:45.000Z</time>
      </trkpt>
      <trkpt lat="42.53213" lon="19.65402">
        <ele>887.42999267578</ele>
        <time>2024-09-23T10:01:47.000Z</time>
      </trkpt>
      <trkpt lat="42.53203" lon="19.65383">
        <ele>886.95001220703</ele>
        <time>2024-09-23T10:01:48.000Z</time>
      </trkpt>
      <trkpt lat="42.53196" lon="19.65364">
        <ele>885.98999023438</ele>
        <time>2024-09-23T10:01:49.000Z</time>
      </trkpt>
      <trkpt lat="42.53186" lon="19.65325">
        <ele>885.03002929688</ele>
        <time>2024-09-23T10:01:51.000Z</time>
      </trkpt>
      <trkpt lat="42.53183" lon="19.65304">
        <ele>884.54998779297</ele>
        <time>2024-09-23T10:01:52.000Z</time>
      </trkpt>
      <trkpt lat="42.53179" lon="19.6524">
        <ele>885.03002929688</ele>
        <time>2024-09-23T10:01:54.000Z</time>
      </trkpt>
      <trkpt lat="42.53179" lon="19.65236">
        <ele>885.03002929688</ele>
        <time>2024-09-23T10:01:55.000Z</time>
      </trkpt>
      <trkpt lat="42.53182" lon="19.65218">
        <ele>885.03002929688</ele>
        <time>2024-09-23T10:01:56.000Z</time>
      </trkpt>
      <trkpt lat="42.53188" lon="19.652">
        <ele>883.59002685547</ele>
        <time>2024-09-23T10:01:57.000Z</time>
      </trkpt>
      <trkpt lat="42.53218" lon="19.65123">
        <ele>879.73999023438</ele>
        <time>2024-09-23T10:02:01.000Z</time>
      </trkpt>
      <trkpt lat="42.5322" lon="19.65115">
        <ele>879.73999023438</ele>
        <time>2024-09-23T10:02:02.000Z</time>
      </trkpt>
      <trkpt lat="42.53225" lon="19.65095">
        <ele>879.26000976562</ele>
        <time>2024-09-23T10:02:03.000Z</time>
      </trkpt>
      <trkpt lat="42.53236" lon="19.65003">
        <ele>877.82000732422</ele>
        <time>2024-09-23T10:02:07.000Z</time>
      </trkpt>
      <trkpt lat="42.53237" lon="19.64991">
        <ele>877.82000732422</ele>
        <time>2024-09-23T10:02:08.000Z</time>
      </trkpt>
      <trkpt lat="42.53235" lon="19.64972">
        <ele>877.82000732422</ele>
        <time>2024-09-23T10:02:09.000Z</time>
      </trkpt>
      <trkpt lat="42.53226" lon="19.64943">
        <ele>877.82000732422</ele>
        <time>2024-09-23T10:02:10.000Z</time>
      </trkpt>
      <trkpt lat="42.53223" lon="19.6493">
        <ele>877.82000732422</ele>
        <time>2024-09-23T10:02:11.000Z</time>
      </trkpt>
      <trkpt lat="42.53219" lon="19.64899">
        <ele>877.34002685547</ele>
        <time>2024-09-23T10:02:12.000Z</time>
      </trkpt>
      <trkpt lat="42.53218" lon="19.64891">
        <ele>877.34002685547</ele>
        <time>2024-09-23T10:02:13.000Z</time>
      </trkpt>
      <trkpt lat="42.53212" lon="19.64872">
        <ele>877.34002685547</ele>
        <time>2024-09-23T10:02:14.000Z</time>
      </trkpt>
      <trkpt lat="42.532" lon="19.64849">
        <ele>877.82000732422</ele>
        <time>2024-09-23T10:02:15.000Z</time>
      </trkpt>
      <trkpt lat="42.53189" lon="19.64832">
        <ele>877.82000732422</ele>
        <time>2024-09-23T10:02:16.000Z</time>
      </trkpt>
      <trkpt lat="42.5318" lon="19.6482">
        <ele>878.29998779297</ele>
        <time>2024-09-23T10:02:17.000Z</time>
      </trkpt>
      <trkpt lat="42.53167" lon="19.64805">
        <ele>878.78002929688</ele>
        <time>2024-09-23T10:02:18.000Z</time>
      </trkpt>
      <trkpt lat="42.53137" lon="19.64777">
        <ele>878.78002929688</ele>
        <time>2024-09-23T10:02:20.000Z</time>
      </trkpt>
      <trkpt lat="42.53127" lon="19.64766">
        <ele>878.78002929688</ele>
        <time>2024-09-23T10:02:21.000Z</time>
      </trkpt>
      <trkpt lat="42.53118" lon="19.64749">
        <ele>878.78002929688</ele>
        <time>2024-09-23T10:02:22.000Z</time>
      </trkpt>
      <trkpt lat="42.53111" lon="19.64731">
        <ele>878.78002929688</ele>
        <time>2024-09-23T10:02:23.000Z</time>
      </trkpt>
      <trkpt lat="42.53107" lon="19.64711">
        <ele>878.78002929688</ele>
        <time>2024-09-23T10:02:24.000Z</time>
      </trkpt>
      <trkpt lat="42.53104" lon="19.64682">
        <ele>878.29998779297</ele>
        <time>2024-09-23T10:02:25.000Z</time>
      </trkpt>
      <trkpt lat="42.53103" lon="19.64672">
        <ele>878.29998779297</ele>
        <time>2024-09-23T10:02:26.000Z</time>
      </trkpt>
      <trkpt lat="42.53099" lon="19.64657">
        <ele>877.82000732422</ele>
        <time>2024-09-23T10:02:27.000Z</time>
      </trkpt>
      <trkpt lat="42.53092" lon="19.64647">
        <ele>877.34002685547</ele>
        <time>2024-09-23T10:02:28.000Z</time>
      </trkpt>
      <trkpt lat="42.53082" lon="19.6464">
        <ele>877.34002685547</ele>
        <time>2024-09-23T10:02:29.000Z</time>
      </trkpt>
      <trkpt lat="42.53073" lon="19.64631">
        <ele>877.34002685547</ele>
        <time>2024-09-23T10:02:30.000Z</time>
      </trkpt>
      <trkpt lat="42.53067" lon="19.6462">
        <ele>877.34002685547</ele>
        <time>2024-09-23T10:02:31.000Z</time>
      </trkpt>
      <trkpt lat="42.53065" lon="19.64605">
        <ele>877.34002685547</ele>
        <time>2024-09-23T10:02:32.000Z</time>
      </trkpt>
      <trkpt lat="42.53065" lon="19.64585">
        <ele>878.78002929688</ele>
        <time>2024-09-23T10:02:33.000Z</time>
      </trkpt>
      <trkpt lat="42.53063" lon="19.64571">
        <ele>879.73999023438</ele>
        <time>2024-09-23T10:02:34.000Z</time>
      </trkpt>
      <trkpt lat="42.53058" lon="19.64553">
        <ele>880.71002197266</ele>
        <time>2024-09-23T10:02:35.000Z</time>
      </trkpt>
      <trkpt lat="42.53049" lon="19.64527">
        <ele>881.66998291016</ele>
        <time>2024-09-23T10:02:36.000Z</time>
      </trkpt>
      <trkpt lat="42.53045" lon="19.64516">
        <ele>882.63000488281</ele>
        <time>2024-09-23T10:02:37.000Z</time>
      </trkpt>
      <trkpt lat="42.53037" lon="19.64488">
        <ele>884.54998779297</ele>
        <time>2024-09-23T10:02:38.000Z</time>
      </trkpt>
      <trkpt lat="42.53033" lon="19.64477">
        <ele>885.03002929688</ele>
        <time>2024-09-23T10:02:39.000Z</time>
      </trkpt>
      <trkpt lat="42.53024" lon="19.64459">
        <ele>886.95001220703</ele>
        <time>2024-09-23T10:02:40.000Z</time>
      </trkpt>
      <trkpt lat="42.53012" lon="19.64441">
        <ele>888.40002441406</ele>
        <time>2024-09-23T10:02:41.000Z</time>
      </trkpt>
      <trkpt lat="42.53001" lon="19.64428">
        <ele>889.35998535156</ele>
        <time>2024-09-23T10:02:42.000Z</time>
      </trkpt>
      <trkpt lat="42.52988" lon="19.64413">
        <ele>890.32000732422</ele>
        <time>2024-09-23T10:02:43.000Z</time>
      </trkpt>
      <trkpt lat="42.52974" lon="19.64401">
        <ele>890.79998779297</ele>
        <time>2024-09-23T10:02:44.000Z</time>
      </trkpt>
      <trkpt lat="42.52958" lon="19.64391">
        <ele>891.28002929688</ele>
        <time>2024-09-23T10:02:45.000Z</time>
      </trkpt>
      <trkpt lat="42.52942" lon="19.64383">
        <ele>891.76000976562</ele>
        <time>2024-09-23T10:02:46.000Z</time>
      </trkpt>
      <trkpt lat="42.52921" lon="19.64377">
        <ele>892.71997070312</ele>
        <time>2024-09-23T10:02:47.000Z</time>
      </trkpt>
      <trkpt lat="42.52908" lon="19.64375">
        <ele>892.71997070312</ele>
        <time>2024-09-23T10:02:48.000Z</time>
      </trkpt>
      <trkpt lat="42.52894" lon="19.64371">
        <ele>893.20001220703</ele>
        <time>2024-09-23T10:02:49.000Z</time>
      </trkpt>
      <trkpt lat="42.52861" lon="19.64358">
        <ele>895.11999511719</ele>
        <time>2024-09-23T10:02:51.000Z</time>
      </trkpt>
      <trkpt lat="42.52852" lon="19.64356">
        <ele>895.60998535156</ele>
        <time>2024-09-23T10:02:52.000Z</time>
      </trkpt>
      <trkpt lat="42.52838" lon="19.64354">
        <ele>896.57000732422</ele>
        <time>2024-09-23T10:02:53.000Z</time>
      </trkpt>
      <trkpt lat="42.52825" lon="19.64356">
        <ele>898.01000976562</ele>
        <time>2024-09-23T10:02:54.000Z</time>
      </trkpt>
      <trkpt lat="42.52809" lon="19.6436">
        <ele>899.92999267578</ele>
        <time>2024-09-23T10:02:55.000Z</time>
      </trkpt>
      <trkpt lat="42.52798" lon="19.64363">
        <ele>900.89001464844</ele>
        <time>2024-09-23T10:02:56.000Z</time>
      </trkpt>
      <trkpt lat="42.52784" lon="19.64363">
        <ele>901.84997558594</ele>
        <time>2024-09-23T10:02:57.000Z</time>
      </trkpt>
      <trkpt lat="42.52769" lon="19.64359">
        <ele>902.33001708984</ele>
        <time>2024-09-23T10:02:58.000Z</time>
      </trkpt>
      <trkpt lat="42.52749" lon="19.64348">
        <ele>903.78002929688</ele>
        <time>2024-09-23T10:02:59.000Z</time>
      </trkpt>
      <trkpt lat="42.52741" lon="19.64343">
        <ele>904.26000976562</ele>
        <time>2024-09-23T10:03:00.000Z</time>
      </trkpt>
      <trkpt lat="42.52728" lon="19.64332">
        <ele>905.21997070312</ele>
        <time>2024-09-23T10:03:01.000Z</time>
      </trkpt>
      <trkpt lat="42.52717" lon="19.64318">
        <ele>907.14001464844</ele>
        <time>2024-09-23T10:03:02.000Z</time>
      </trkpt>
      <trkpt lat="42.5267" lon="19.6424">
        <ele>911.95001220703</ele>
        <time>2024-09-23T10:03:06.000Z</time>
      </trkpt>
      <trkpt lat="42.52665" lon="19.64234">
        <ele>912.42999267578</ele>
        <time>2024-09-23T10:03:07.000Z</time>
      </trkpt>
      <trkpt lat="42.52654" lon="19.64223">
        <ele>913.39001464844</ele>
        <time>2024-09-23T10:03:08.000Z</time>
      </trkpt>
      <trkpt lat="42.52636" lon="19.64212">
        <ele>915.78997802734</ele>
        <time>2024-09-23T10:03:09.000Z</time>
      </trkpt>
      <trkpt lat="42.52631" lon="19.64209">
        <ele>916.27001953125</ele>
        <time>2024-09-23T10:03:10.000Z</time>
      </trkpt>
      <trkpt lat="42.5262" lon="19.64198">
        <ele>916.75</ele>
        <time>2024-09-23T10:03:11.000Z</time>
      </trkpt>
      <trkpt lat="42.52613" lon="19.64183">
        <ele>917.71997070312</ele>
        <time>2024-09-23T10:03:12.000Z</time>
      </trkpt>
      <trkpt lat="42.52608" lon="19.64166">
        <ele>918.20001220703</ele>
        <time>2024-09-23T10:03:13.000Z</time>
      </trkpt>
      <trkpt lat="42.52601" lon="19.64131">
        <ele>919.64001464844</ele>
        <time>2024-09-23T10:03:15.000Z</time>
      </trkpt>
      <trkpt lat="42.52595" lon="19.64105">
        <ele>921.08001708984</ele>
        <time>2024-09-23T10:03:16.000Z</time>
      </trkpt>
      <trkpt lat="42.52592" lon="19.64094">
        <ele>921.55999755859</ele>
        <time>2024-09-23T10:03:17.000Z</time>
      </trkpt>
      <trkpt lat="42.52588" lon="19.6408">
        <ele>921.55999755859</ele>
        <time>2024-09-23T10:03:18.000Z</time>
      </trkpt>
      <trkpt lat="42.52582" lon="19.64066">
        <ele>921.55999755859</ele>
        <time>2024-09-23T10:03:19.000Z</time>
      </trkpt>
      <trkpt lat="42.52574" lon="19.64054">
        <ele>921.08001708984</ele>
        <time>2024-09-23T10:03:20.000Z</time>
      </trkpt>
      <trkpt lat="42.52553" lon="19.64029">
        <ele>918.67999267578</ele>
        <time>2024-09-23T10:03:22.000Z</time>
      </trkpt>
      <trkpt lat="42.52501" lon="19.63968">
        <ele>909.53997802734</ele>
        <time>2024-09-23T10:03:27.000Z</time>
      </trkpt>
      <trkpt lat="42.52492" lon="19.63953">
        <ele>907.14001464844</ele>
        <time>2024-09-23T10:03:28.000Z</time>
      </trkpt>
      <trkpt lat="42.52486" lon="19.63938">
        <ele>905.70001220703</ele>
        <time>2024-09-23T10:03:29.000Z</time>
      </trkpt>
      <trkpt lat="42.52482" lon="19.63921">
        <ele>903.78002929688</ele>
        <time>2024-09-23T10:03:30.000Z</time>
      </trkpt>
      <trkpt lat="42.52474" lon="19.6388">
        <ele>899.92999267578</ele>
        <time>2024-09-23T10:03:32.000Z</time>
      </trkpt>
      <trkpt lat="42.52471" lon="19.63863">
        <ele>898.48999023438</ele>
        <time>2024-09-23T10:03:33.000Z</time>
      </trkpt>
      <trkpt lat="42.52469" lon="19.63839">
        <ele>896.09002685547</ele>
        <time>2024-09-23T10:03:34.000Z</time>
      </trkpt>
      <trkpt lat="42.52467" lon="19.63829">
        <ele>894.64001464844</ele>
        <time>2024-09-23T10:03:35.000Z</time>
      </trkpt>
      <trkpt lat="42.52465" lon="19.63816">
        <ele>893.20001220703</ele>
        <time>2024-09-23T10:03:36.000Z</time>
      </trkpt>
      <trkpt lat="42.5246" lon="19.63803">
        <ele>891.76000976562</ele>
        <time>2024-09-23T10:03:37.000Z</time>
      </trkpt>
      <trkpt lat="42.52452" lon="19.63795">
        <ele>890.79998779297</ele>
        <time>2024-09-23T10:03:38.000Z</time>
      </trkpt>
      <trkpt lat="42.52441" lon="19.6379">
        <ele>889.84002685547</ele>
        <time>2024-09-23T10:03:39.000Z</time>
      </trkpt>
      <trkpt lat="42.52433" lon="19.63787">
        <ele>889.35998535156</ele>
        <time>2024-09-23T10:03:40.000Z</time>
      </trkpt>
      <trkpt lat="42.52421" lon="19.63781">
        <ele>888.40002441406</ele>
        <time>2024-09-23T10:03:41.000Z</time>
      </trkpt>
      <trkpt lat="42.52414" lon="19.63776">
        <ele>886.95001220703</ele>
        <time>2024-09-23T10:03:42.000Z</time>
      </trkpt>
      <trkpt lat="42.52406" lon="19.63766">
        <ele>885.98999023438</ele>
        <time>2024-09-23T10:03:43.000Z</time>
      </trkpt>
      <trkpt lat="42.52401" lon="19.63753">
        <ele>884.54998779297</ele>
        <time>2024-09-23T10:03:44.000Z</time>
      </trkpt>
      <trkpt lat="42.52399" lon="19.63738">
        <ele>882.63000488281</ele>
        <time>2024-09-23T10:03:45.000Z</time>
      </trkpt>
      <trkpt lat="42.52399" lon="19.63722">
        <ele>881.19000244141</ele>
        <time>2024-09-23T10:03:46.000Z</time>
      </trkpt>
      <trkpt lat="42.524" lon="19.63702">
        <ele>879.26000976562</ele>
        <time>2024-09-23T10:03:47.000Z</time>
      </trkpt>
      <trkpt lat="42.52401" lon="19.63676">
        <ele>877.34002685547</ele>
        <time>2024-09-23T10:03:48.000Z</time>
      </trkpt>
      <trkpt lat="42.52402" lon="19.6367">
        <ele>876.85998535156</ele>
        <time>2024-09-23T10:03:49.000Z</time>
      </trkpt>
      <trkpt lat="42.52405" lon="19.63642">
        <ele>874.46002197266</ele>
        <time>2024-09-23T10:03:50.000Z</time>
      </trkpt>
      <trkpt lat="42.52406" lon="19.63637">
        <ele>873.97998046875</ele>
        <time>2024-09-23T10:03:51.000Z</time>
      </trkpt>
      <trkpt lat="42.52407" lon="19.63622">
        <ele>872.53002929688</ele>
        <time>2024-09-23T10:03:52.000Z</time>
      </trkpt>
      <trkpt lat="42.52407" lon="19.63603">
        <ele>870.60998535156</ele>
        <time>2024-09-23T10:03:53.000Z</time>
      </trkpt>
      <trkpt lat="42.52404" lon="19.6357">
        <ele>866.77001953125</ele>
        <time>2024-09-23T10:03:55.000Z</time>
      </trkpt>
      <trkpt lat="42.52403" lon="19.63552">
        <ele>864.84002685547</ele>
        <time>2024-09-23T10:03:57.000Z</time>
      </trkpt>
      <trkpt lat="42.52402" lon="19.63541">
        <ele>863.40002441406</ele>
        <time>2024-09-23T10:03:58.000Z</time>
      </trkpt>
      <trkpt lat="42.52402" lon="19.63529">
        <ele>861.96002197266</ele>
        <time>2024-09-23T10:03:59.000Z</time>
      </trkpt>
      <trkpt lat="42.52406" lon="19.63512">
        <ele>859.55999755859</ele>
        <time>2024-09-23T10:04:00.000Z</time>
      </trkpt>
      <trkpt lat="42.52407" lon="19.63508">
        <ele>858.59002685547</ele>
        <time>2024-09-23T10:04:01.000Z</time>
      </trkpt>
      <trkpt lat="42.52407" lon="19.63498">
        <ele>857.15002441406</ele>
        <time>2024-09-23T10:04:02.000Z</time>
      </trkpt>
      <trkpt lat="42.52407" lon="19.63491">
        <ele>856.19000244141</ele>
        <time>2024-09-23T10:04:03.000Z</time>
      </trkpt>
      <trkpt lat="42.52405" lon="19.63482">
        <ele>854.75</ele>
        <time>2024-09-23T10:04:04.000Z</time>
      </trkpt>
      <trkpt lat="42.52401" lon="19.63474">
        <ele>853.78997802734</ele>
        <time>2024-09-23T10:04:05.000Z</time>
      </trkpt>
      <trkpt lat="42.52396" lon="19.63466">
        <ele>852.34997558594</ele>
        <time>2024-09-23T10:04:06.000Z</time>
      </trkpt>
      <trkpt lat="42.52391" lon="19.63459">
        <ele>851.38000488281</ele>
        <time>2024-09-23T10:04:07.000Z</time>
      </trkpt>
      <trkpt lat="42.52386" lon="19.63453">
        <ele>850.41998291016</ele>
        <time>2024-09-23T10:04:08.000Z</time>
      </trkpt>
      <trkpt lat="42.52364" lon="19.63434">
        <ele>847.53997802734</ele>
        <time>2024-09-23T10:04:11.000Z</time>
      </trkpt>
      <trkpt lat="42.52356" lon="19.63429">
        <ele>847.05999755859</ele>
        <time>2024-09-23T10:04:12.000Z</time>
      </trkpt>
      <trkpt lat="42.52347" lon="19.63425">
        <ele>847.05999755859</ele>
        <time>2024-09-23T10:04:13.000Z</time>
      </trkpt>
      <trkpt lat="42.52341" lon="19.63421">
        <ele>846.58001708984</ele>
        <time>2024-09-23T10:04:14.000Z</time>
      </trkpt>
      <trkpt lat="42.52338" lon="19.63415">
        <ele>845.61999511719</ele>
        <time>2024-09-23T10:04:15.000Z</time>
      </trkpt>
      <trkpt lat="42.52338" lon="19.63407">
        <ele>844.65997314453</ele>
        <time>2024-09-23T10:04:16.000Z</time>
      </trkpt>
      <trkpt lat="42.5234" lon="19.63401">
        <ele>843.21002197266</ele>
        <time>2024-09-23T10:04:17.000Z</time>
      </trkpt>
      <trkpt lat="42.52357" lon="19.63404">
        <ele>843.21002197266</ele>
        <time>2024-09-23T10:37:09.000Z</time>
      </trkpt>
      <trkpt lat="42.52365" lon="19.63406">
        <ele>842.72998046875</ele>
        <time>2024-09-23T10:37:10.000Z</time>
      </trkpt>
      <trkpt lat="42.52379" lon="19.63409">
        <ele>841.77001953125</ele>
        <time>2024-09-23T10:37:12.000Z</time>
      </trkpt>
      <trkpt lat="42.5238" lon="19.6341">
        <ele>841.77001953125</ele>
        <time>2024-09-23T10:37:13.000Z</time>
      </trkpt>
      <trkpt lat="42.52387" lon="19.6341">
        <ele>840.80999755859</ele>
        <time>2024-09-23T10:37:14.000Z</time>
      </trkpt>
      <trkpt lat="42.52393" lon="19.63407">
        <ele>840.33001708984</ele>
        <time>2024-09-23T10:37:15.000Z</time>
      </trkpt>
      <trkpt lat="42.52398" lon="19.634">
        <ele>839.84997558594</ele>
        <time>2024-09-23T10:37:16.000Z</time>
      </trkpt>
      <trkpt lat="42.52403" lon="19.63391">
        <ele>838.40997314453</ele>
        <time>2024-09-23T10:37:17.000Z</time>
      </trkpt>
      <trkpt lat="42.52403" lon="19.6338">
        <ele>837.45001220703</ele>
        <time>2024-09-23T10:37:18.000Z</time>
      </trkpt>
      <trkpt lat="42.52399" lon="19.6337">
        <ele>836.47998046875</ele>
        <time>2024-09-23T10:37:19.000Z</time>
      </trkpt>
      <trkpt lat="42.52392" lon="19.63363">
        <ele>836</ele>
        <time>2024-09-23T10:37:20.000Z</time>
      </trkpt>
      <trkpt lat="42.5236" lon="19.63336">
        <ele>832.64001464844</ele>
        <time>2024-09-23T10:37:23.000Z</time>
      </trkpt>
      <trkpt lat="42.5235" lon="19.63328">
        <ele>831.20001220703</ele>
        <time>2024-09-23T10:37:24.000Z</time>
      </trkpt>
      <trkpt lat="42.52346" lon="19.6332">
        <ele>829.76000976562</ele>
        <time>2024-09-23T10:37:25.000Z</time>
      </trkpt>
      <trkpt lat="42.52345" lon="19.63309">
        <ele>828.30999755859</ele>
        <time>2024-09-23T10:37:26.000Z</time>
      </trkpt>
      <trkpt lat="42.52349" lon="19.633">
        <ele>826.39001464844</ele>
        <time>2024-09-23T10:37:27.000Z</time>
      </trkpt>
      <trkpt lat="42.52353" lon="19.63294">
        <ele>824.95001220703</ele>
        <time>2024-09-23T10:37:28.000Z</time>
      </trkpt>
      <trkpt lat="42.5236" lon="19.63292">
        <ele>824.95001220703</ele>
        <time>2024-09-23T10:37:29.000Z</time>
      </trkpt>
      <trkpt lat="42.52367" lon="19.63292">
        <ele>823.03002929688</ele>
        <time>2024-09-23T10:37:30.000Z</time>
      </trkpt>
      <trkpt lat="42.52385" lon="19.63306">
        <ele>820.61999511719</ele>
        <time>2024-09-23T10:37:31.000Z</time>
      </trkpt>
      <trkpt lat="42.52395" lon="19.63309">
        <ele>819.17999267578</ele>
        <time>2024-09-23T10:37:32.000Z</time>
      </trkpt>
      <trkpt lat="42.52406" lon="19.63308">
        <ele>817.73999023438</ele>
        <time>2024-09-23T10:37:33.000Z</time>
      </trkpt>
      <trkpt lat="42.52415" lon="19.633">
        <ele>815.82000732422</ele>
        <time>2024-09-23T10:37:34.000Z</time>
      </trkpt>
      <trkpt lat="42.52418" lon="19.63287">
        <ele>814.36999511719</ele>
        <time>2024-09-23T10:37:35.000Z</time>
      </trkpt>
      <trkpt lat="42.52415" lon="19.63272">
        <ele>812.45001220703</ele>
        <time>2024-09-23T10:37:36.000Z</time>
      </trkpt>
      <trkpt lat="42.5241" lon="19.6326">
        <ele>811.01000976562</ele>
        <time>2024-09-23T10:37:37.000Z</time>
      </trkpt>
      <trkpt lat="42.524" lon="19.63253">
        <ele>810.04998779297</ele>
        <time>2024-09-23T10:37:38.000Z</time>
      </trkpt>
      <trkpt lat="42.52367" lon="19.63241">
        <ele>806.20001220703</ele>
        <time>2024-09-23T10:37:39.000Z</time>
      </trkpt>
      <trkpt lat="42.52362" lon="19.6324">
        <ele>805.71997070312</ele>
        <time>2024-09-23T10:37:40.000Z</time>
      </trkpt>
      <trkpt lat="42.52335" lon="19.63231">
        <ele>802.84002685547</ele>
        <time>2024-09-23T10:37:41.000Z</time>
      </trkpt>
      <trkpt lat="42.52308" lon="19.63213">
        <ele>798.98999023438</ele>
        <time>2024-09-23T10:37:42.000Z</time>
      </trkpt>
      <trkpt lat="42.52292" lon="19.63196">
        <ele>796.10998535156</ele>
        <time>2024-09-23T10:37:43.000Z</time>
      </trkpt>
      <trkpt lat="42.52268" lon="19.63164">
        <ele>791.78002929688</ele>
        <time>2024-09-23T10:37:44.000Z</time>
      </trkpt>
      <trkpt lat="42.52227" lon="19.63103">
        <ele>783.13000488281</ele>
        <time>2024-09-23T10:37:46.000Z</time>
      </trkpt>
      <trkpt lat="42.52211" lon="19.63081">
        <ele>780.72998046875</ele>
        <time>2024-09-23T10:37:47.000Z</time>
      </trkpt>
      <trkpt lat="42.52203" lon="19.63069">
        <ele>779.28997802734</ele>
        <time>2024-09-23T10:37:48.000Z</time>
      </trkpt>
      <trkpt lat="42.52189" lon="19.63043">
        <ele>775.91998291016</ele>
        <time>2024-09-23T10:37:49.000Z</time>
      </trkpt>
      <trkpt lat="42.5215" lon="19.62888">
        <ele>761.02001953125</ele>
        <time>2024-09-23T10:37:54.000Z</time>
      </trkpt>
      <trkpt lat="42.52146" lon="19.62874">
        <ele>760.05999755859</ele>
        <time>2024-09-23T10:37:55.000Z</time>
      </trkpt>
      <trkpt lat="42.52139" lon="19.62861">
        <ele>759.09997558594</ele>
        <time>2024-09-23T10:37:56.000Z</time>
      </trkpt>
      <trkpt lat="42.5213" lon="19.62854">
        <ele>757.65997314453</ele>
        <time>2024-09-23T10:37:57.000Z</time>
      </trkpt>
      <trkpt lat="42.52119" lon="19.62853">
        <ele>756.69000244141</ele>
        <time>2024-09-23T10:37:58.000Z</time>
      </trkpt>
      <trkpt lat="42.521" lon="19.62856">
        <ele>755.72998046875</ele>
        <time>2024-09-23T10:37:59.000Z</time>
      </trkpt>
      <trkpt lat="42.52085" lon="19.62857">
        <ele>753.80999755859</ele>
        <time>2024-09-23T10:38:00.000Z</time>
      </trkpt>
      <trkpt lat="42.52064" lon="19.62855">
        <ele>752.84997558594</ele>
        <time>2024-09-23T10:38:01.000Z</time>
      </trkpt>
      <trkpt lat="42.52042" lon="19.62843">
        <ele>750.92999267578</ele>
        <time>2024-09-23T10:38:02.000Z</time>
      </trkpt>
      <trkpt lat="42.52022" lon="19.62826">
        <ele>748.03997802734</ele>
        <time>2024-09-23T10:38:03.000Z</time>
      </trkpt>
      <trkpt lat="42.52003" lon="19.62802">
        <ele>745.64001464844</ele>
        <time>2024-09-23T10:38:04.000Z</time>
      </trkpt>
      <trkpt lat="42.51989" lon="19.62778">
        <ele>741.78997802734</ele>
        <time>2024-09-23T10:38:05.000Z</time>
      </trkpt>
      <trkpt lat="42.51977" lon="19.62761">
        <ele>741.30999755859</ele>
        <time>2024-09-23T10:38:06.000Z</time>
      </trkpt>
      <trkpt lat="42.5196" lon="19.62743">
        <ele>740.34997558594</ele>
        <time>2024-09-23T10:38:07.000Z</time>
      </trkpt>
      <trkpt lat="42.51923" lon="19.62715">
        <ele>738.42999267578</ele>
        <time>2024-09-23T10:38:08.000Z</time>
      </trkpt>
      <trkpt lat="42.51918" lon="19.62711">
        <ele>737.95001220703</ele>
        <time>2024-09-23T10:38:09.000Z</time>
      </trkpt>
      <trkpt lat="42.51904" lon="19.62697">
        <ele>736.98999023438</ele>
        <time>2024-09-23T10:38:10.000Z</time>
      </trkpt>
      <trkpt lat="42.51893" lon="19.62681">
        <ele>736.03002929688</ele>
        <time>2024-09-23T10:38:11.000Z</time>
      </trkpt>
      <trkpt lat="42.51879" lon="19.62657">
        <ele>735.07000732422</ele>
        <time>2024-09-23T10:38:12.000Z</time>
      </trkpt>
      <trkpt lat="42.51833" lon="19.62599">
        <ele>732.65997314453</ele>
        <time>2024-09-23T10:38:15.000Z</time>
      </trkpt>
      <trkpt lat="42.51818" lon="19.62584">
        <ele>732.17999267578</ele>
        <time>2024-09-23T10:38:16.000Z</time>
      </trkpt>
      <trkpt lat="42.51803" lon="19.62573">
        <ele>731.70001220703</ele>
        <time>2024-09-23T10:38:17.000Z</time>
      </trkpt>
      <trkpt lat="42.51754" lon="19.62554">
        <ele>732.17999267578</ele>
        <time>2024-09-23T10:38:19.000Z</time>
      </trkpt>
      <trkpt lat="42.5175" lon="19.62552">
        <ele>732.17999267578</ele>
        <time>2024-09-23T10:38:20.000Z</time>
      </trkpt>
      <trkpt lat="42.51721" lon="19.62538">
        <ele>733.14001464844</ele>
        <time>2024-09-23T10:38:21.000Z</time>
      </trkpt>
      <trkpt lat="42.51709" lon="19.6253">
        <ele>733.14001464844</ele>
        <time>2024-09-23T10:38:22.000Z</time>
      </trkpt>
      <trkpt lat="42.51695" lon="19.6252">
        <ele>733.14001464844</ele>
        <time>2024-09-23T10:38:23.000Z</time>
      </trkpt>
      <trkpt lat="42.51682" lon="19.6251">
        <ele>733.14001464844</ele>
        <time>2024-09-23T10:38:24.000Z</time>
      </trkpt>
      <trkpt lat="42.51667" lon="19.62503">
        <ele>732.65997314453</ele>
        <time>2024-09-23T10:38:25.000Z</time>
      </trkpt>
      <trkpt lat="42.51652" lon="19.62501">
        <ele>732.65997314453</ele>
        <time>2024-09-23T10:38:26.000Z</time>
      </trkpt>
      <trkpt lat="42.51639" lon="19.62497">
        <ele>732.17999267578</ele>
        <time>2024-09-23T10:38:27.000Z</time>
      </trkpt>
      <trkpt lat="42.51627" lon="19.62487">
        <ele>731.21997070312</ele>
        <time>2024-09-23T10:38:28.000Z</time>
      </trkpt>
      <trkpt lat="42.5162" lon="19.62472">
        <ele>730.26000976562</ele>
        <time>2024-09-23T10:38:29.000Z</time>
      </trkpt>
      <trkpt lat="42.51612" lon="19.62438">
        <ele>727.36999511719</ele>
        <time>2024-09-23T10:38:30.000Z</time>
      </trkpt>
      <trkpt lat="42.51609" lon="19.62427">
        <ele>726.89001464844</ele>
        <time>2024-09-23T10:38:31.000Z</time>
      </trkpt>
      <trkpt lat="42.51601" lon="19.62407">
        <ele>725.45001220703</ele>
        <time>2024-09-23T10:38:32.000Z</time>
      </trkpt>
      <trkpt lat="42.51587" lon="19.6239">
        <ele>724.48999023438</ele>
        <time>2024-09-23T10:38:33.000Z</time>
      </trkpt>
      <trkpt lat="42.51569" lon="19.62374">
        <ele>724.01000976562</ele>
        <time>2024-09-23T10:38:34.000Z</time>
      </trkpt>
      <trkpt lat="42.51555" lon="19.62357">
        <ele>722.57000732422</ele>
        <time>2024-09-23T10:38:35.000Z</time>
      </trkpt>
      <trkpt lat="42.51544" lon="19.62336">
        <ele>721.13000488281</ele>
        <time>2024-09-23T10:38:36.000Z</time>
      </trkpt>
      <trkpt lat="42.51535" lon="19.6231">
        <ele>719.20001220703</ele>
        <time>2024-09-23T10:38:37.000Z</time>
      </trkpt>
      <trkpt lat="42.51498" lon="19.62236">
        <ele>715.84002685547</ele>
        <time>2024-09-23T10:38:39.000Z</time>
      </trkpt>
      <trkpt lat="42.51492" lon="19.62223">
        <ele>715.35998535156</ele>
        <time>2024-09-23T10:38:40.000Z</time>
      </trkpt>
      <trkpt lat="42.51476" lon="19.62181">
        <ele>713.44000244141</ele>
        <time>2024-09-23T10:38:41.000Z</time>
      </trkpt>
      <trkpt lat="42.5147" lon="19.62168">
        <ele>712.95001220703</ele>
        <time>2024-09-23T10:38:42.000Z</time>
      </trkpt>
      <trkpt lat="42.51459" lon="19.62149">
        <ele>712.95001220703</ele>
        <time>2024-09-23T10:38:43.000Z</time>
      </trkpt>
      <trkpt lat="42.51376" lon="19.62034">
        <ele>709.10998535156</ele>
        <time>2024-09-23T10:38:50.000Z</time>
      </trkpt>
      <trkpt lat="42.51351" lon="19.62004">
        <ele>706.71002197266</ele>
        <time>2024-09-23T10:38:53.000Z</time>
      </trkpt>
      <trkpt lat="42.51308" lon="19.6196">
        <ele>704.78002929688</ele>
        <time>2024-09-23T10:38:57.000Z</time>
      </trkpt>
      <trkpt lat="42.51306" lon="19.61958">
        <ele>704.78002929688</ele>
        <time>2024-09-23T10:38:58.000Z</time>
      </trkpt>
      <trkpt lat="42.51299" lon="19.61949">
        <ele>704.29998779297</ele>
        <time>2024-09-23T10:38:59.000Z</time>
      </trkpt>
      <trkpt lat="42.51274" lon="19.61915">
        <ele>702.38000488281</ele>
        <time>2024-09-23T10:39:01.000Z</time>
      </trkpt>
      <trkpt lat="42.51217" lon="19.61841">
        <ele>698.04998779297</ele>
        <time>2024-09-23T10:39:06.000Z</time>
      </trkpt>
      <trkpt lat="42.51185" lon="19.61794">
        <ele>697.57000732422</ele>
        <time>2024-09-23T10:39:10.000Z</time>
      </trkpt>
      <trkpt lat="42.51177" lon="19.61785">
        <ele>697.09002685547</ele>
        <time>2024-09-23T10:39:11.000Z</time>
      </trkpt>
      <trkpt lat="42.51171" lon="19.61782">
        <ele>697.09002685547</ele>
        <time>2024-09-23T10:39:12.000Z</time>
      </trkpt>
      <trkpt lat="42.51163" lon="19.61786">
        <ele>696.60998535156</ele>
        <time>2024-09-23T10:39:13.000Z</time>
      </trkpt>
      <trkpt lat="42.5115" lon="19.61799">
        <ele>696.13000488281</ele>
        <time>2024-09-23T10:39:14.000Z</time>
      </trkpt>
      <trkpt lat="42.51147" lon="19.61803">
        <ele>695.65002441406</ele>
        <time>2024-09-23T10:39:15.000Z</time>
      </trkpt>
      <trkpt lat="42.51136" lon="19.61809">
        <ele>695.16998291016</ele>
        <time>2024-09-23T10:39:16.000Z</time>
      </trkpt>
      <trkpt lat="42.51124" lon="19.61812">
        <ele>694.69000244141</ele>
        <time>2024-09-23T10:39:17.000Z</time>
      </trkpt>
      <trkpt lat="42.51052" lon="19.61803">
        <ele>685.08001708984</ele>
        <time>2024-09-23T10:39:22.000Z</time>
      </trkpt>
      <trkpt lat="42.51044" lon="19.618">
        <ele>684.59997558594</ele>
        <time>2024-09-23T10:39:23.000Z</time>
      </trkpt>
      <trkpt lat="42.51032" lon="19.61792">
        <ele>683.15002441406</ele>
        <time>2024-09-23T10:39:24.000Z</time>
      </trkpt>
      <trkpt lat="42.51021" lon="19.61782">
        <ele>681.71002197266</ele>
        <time>2024-09-23T10:39:25.000Z</time>
      </trkpt>
      <trkpt lat="42.51009" lon="19.61775">
        <ele>680.27001953125</ele>
        <time>2024-09-23T10:39:26.000Z</time>
      </trkpt>
      <trkpt lat="42.50995" lon="19.61771">
        <ele>679.30999755859</ele>
        <time>2024-09-23T10:39:27.000Z</time>
      </trkpt>
      <trkpt lat="42.5098" lon="19.6177">
        <ele>678.83001708984</ele>
        <time>2024-09-23T10:39:28.000Z</time>
      </trkpt>
      <trkpt lat="42.50966" lon="19.61767">
        <ele>677.86999511719</ele>
        <time>2024-09-23T10:39:29.000Z</time>
      </trkpt>
      <trkpt lat="42.50952" lon="19.61757">
        <ele>676.41998291016</ele>
        <time>2024-09-23T10:39:30.000Z</time>
      </trkpt>
      <trkpt lat="42.5094" lon="19.61742">
        <ele>674.97998046875</ele>
        <time>2024-09-23T10:39:31.000Z</time>
      </trkpt>
      <trkpt lat="42.50892" lon="19.61668">
        <ele>665.36999511719</ele>
        <time>2024-09-23T10:39:35.000Z</time>
      </trkpt>
      <trkpt lat="42.5088" lon="19.61647">
        <ele>662.96997070312</ele>
        <time>2024-09-23T10:39:36.000Z</time>
      </trkpt>
      <trkpt lat="42.50875" lon="19.61638">
        <ele>662.01000976562</ele>
        <time>2024-09-23T10:39:37.000Z</time>
      </trkpt>
      <trkpt lat="42.50868" lon="19.61629">
        <ele>661.03997802734</ele>
        <time>2024-09-23T10:39:38.000Z</time>
      </trkpt>
      <trkpt lat="42.50858" lon="19.61624">
        <ele>659.59997558594</ele>
        <time>2024-09-23T10:39:39.000Z</time>
      </trkpt>
      <trkpt lat="42.50844" lon="19.61626">
        <ele>658.15997314453</ele>
        <time>2024-09-23T10:39:40.000Z</time>
      </trkpt>
      <trkpt lat="42.5083" lon="19.61631">
        <ele>656.71997070312</ele>
        <time>2024-09-23T10:39:41.000Z</time>
      </trkpt>
      <trkpt lat="42.50816" lon="19.61633">
        <ele>654.79998779297</ele>
        <time>2024-09-23T10:39:42.000Z</time>
      </trkpt>
      <trkpt lat="42.50802" lon="19.61631">
        <ele>653.34997558594</ele>
        <time>2024-09-23T10:39:43.000Z</time>
      </trkpt>
      <trkpt lat="42.50788" lon="19.61625">
        <ele>652.39001464844</ele>
        <time>2024-09-23T10:39:44.000Z</time>
      </trkpt>
      <trkpt lat="42.50775" lon="19.61614">
        <ele>650.95001220703</ele>
        <time>2024-09-23T10:39:45.000Z</time>
      </trkpt>
      <trkpt lat="42.50762" lon="19.616">
        <ele>650.46997070312</ele>
        <time>2024-09-23T10:39:46.000Z</time>
      </trkpt>
      <trkpt lat="42.50751" lon="19.61584">
        <ele>649.51000976562</ele>
        <time>2024-09-23T10:39:47.000Z</time>
      </trkpt>
      <trkpt lat="42.50722" lon="19.61535">
        <ele>647.09997558594</ele>
        <time>2024-09-23T10:39:49.000Z</time>
      </trkpt>
      <trkpt lat="42.5068" lon="19.61475">
        <ele>645.17999267578</ele>
        <time>2024-09-23T10:39:53.000Z</time>
      </trkpt>
      <trkpt lat="42.50614" lon="19.61397">
        <ele>636.04998779297</ele>
        <time>2024-09-23T10:39:57.000Z</time>
      </trkpt>
      <trkpt lat="42.50604" lon="19.61388">
        <ele>634.60998535156</ele>
        <time>2024-09-23T10:39:58.000Z</time>
      </trkpt>
      <trkpt lat="42.50588" lon="19.61375">
        <ele>633.16998291016</ele>
        <time>2024-09-23T10:39:59.000Z</time>
      </trkpt>
      <trkpt lat="42.50568" lon="19.61363">
        <ele>630.28002929688</ele>
        <time>2024-09-23T10:40:00.000Z</time>
      </trkpt>
      <trkpt lat="42.50556" lon="19.61352">
        <ele>628.84002685547</ele>
        <time>2024-09-23T10:40:01.000Z</time>
      </trkpt>
      <trkpt lat="42.50545" lon="19.61337">
        <ele>626.44000244141</ele>
        <time>2024-09-23T10:40:02.000Z</time>
      </trkpt>
      <trkpt lat="42.50536" lon="19.61318">
        <ele>624.51000976562</ele>
        <time>2024-09-23T10:40:03.000Z</time>
      </trkpt>
      <trkpt lat="42.50534" lon="19.613">
        <ele>623.54998779297</ele>
        <time>2024-09-23T10:40:04.000Z</time>
      </trkpt>
      <trkpt lat="42.50533" lon="19.61282">
        <ele>621.63000488281</ele>
        <time>2024-09-23T10:40:05.000Z</time>
      </trkpt>
      <trkpt lat="42.50526" lon="19.61262">
        <ele>619.22998046875</ele>
        <time>2024-09-23T10:40:06.000Z</time>
      </trkpt>
      <trkpt lat="42.50516" lon="19.61239">
        <ele>617.29998779297</ele>
        <time>2024-09-23T10:40:07.000Z</time>
      </trkpt>
      <trkpt lat="42.505" lon="19.61202">
        <ele>613.46002197266</ele>
        <time>2024-09-23T10:40:08.000Z</time>
      </trkpt>
      <trkpt lat="42.50495" lon="19.61185">
        <ele>612.5</ele>
        <time>2024-09-23T10:40:09.000Z</time>
      </trkpt>
      <trkpt lat="42.50492" lon="19.61173">
        <ele>611.53997802734</ele>
        <time>2024-09-23T10:40:10.000Z</time>
      </trkpt>
      <trkpt lat="42.5049" lon="19.61154">
        <ele>611.05999755859</ele>
        <time>2024-09-23T10:40:11.000Z</time>
      </trkpt>
      <trkpt lat="42.50493" lon="19.61138">
        <ele>611.05999755859</ele>
        <time>2024-09-23T10:40:12.000Z</time>
      </trkpt>
      <trkpt lat="42.50499" lon="19.61124">
        <ele>610.57000732422</ele>
        <time>2024-09-23T10:40:13.000Z</time>
      </trkpt>
      <trkpt lat="42.50505" lon="19.61115">
        <ele>609.60998535156</ele>
        <time>2024-09-23T10:40:14.000Z</time>
      </trkpt>
      <trkpt lat="42.50511" lon="19.61109">
        <ele>609.13000488281</ele>
        <time>2024-09-23T10:40:15.000Z</time>
      </trkpt>
      <trkpt lat="42.50516" lon="19.61108">
        <ele>609.13000488281</ele>
        <time>2024-09-23T10:40:16.000Z</time>
      </trkpt>
      <trkpt lat="42.50521" lon="19.61109">
        <ele>608.16998291016</ele>
        <time>2024-09-23T10:40:17.000Z</time>
      </trkpt>
      <trkpt lat="42.50521" lon="19.61126">
        <ele>606.25</ele>
        <time>2024-09-23T10:40:19.000Z</time>
      </trkpt>
      <trkpt lat="42.50518" lon="19.61136">
        <ele>605.28997802734</ele>
        <time>2024-09-23T10:40:20.000Z</time>
      </trkpt>
      <trkpt lat="42.50514" lon="19.6116">
        <ele>604.80999755859</ele>
        <time>2024-09-23T10:40:21.000Z</time>
      </trkpt>
      <trkpt lat="42.50515" lon="19.61178">
        <ele>604.33001708984</ele>
        <time>2024-09-23T10:40:22.000Z</time>
      </trkpt>
      <trkpt lat="42.50522" lon="19.61202">
        <ele>603.35998535156</ele>
        <time>2024-09-23T10:40:23.000Z</time>
      </trkpt>
      <trkpt lat="42.50537" lon="19.61245">
        <ele>601.44000244141</ele>
        <time>2024-09-23T10:40:24.000Z</time>
      </trkpt>
      <trkpt lat="42.50539" lon="19.6125">
        <ele>601.44000244141</ele>
        <time>2024-09-23T10:40:25.000Z</time>
      </trkpt>
      <trkpt lat="42.50547" lon="19.61262">
        <ele>600</ele>
        <time>2024-09-23T10:40:26.000Z</time>
      </trkpt>
      <trkpt lat="42.50558" lon="19.61271">
        <ele>599.52001953125</ele>
        <time>2024-09-23T10:40:27.000Z</time>
      </trkpt>
      <trkpt lat="42.50574" lon="19.61275">
        <ele>598.55999755859</ele>
        <time>2024-09-23T10:40:28.000Z</time>
      </trkpt>
      <trkpt lat="42.50591" lon="19.61275">
        <ele>597.59997558594</ele>
        <time>2024-09-23T10:40:29.000Z</time>
      </trkpt>
      <trkpt lat="42.50607" lon="19.61278">
        <ele>596.64001464844</ele>
        <time>2024-09-23T10:40:30.000Z</time>
      </trkpt>
      <trkpt lat="42.5062" lon="19.61285">
        <ele>595.66998291016</ele>
        <time>2024-09-23T10:40:31.000Z</time>
      </trkpt>
      <trkpt lat="42.50634" lon="19.61299">
        <ele>593.75</ele>
        <time>2024-09-23T10:40:32.000Z</time>
      </trkpt>
      <trkpt lat="42.5065" lon="19.61315">
        <ele>591.83001708984</ele>
        <time>2024-09-23T10:40:33.000Z</time>
      </trkpt>
      <trkpt lat="42.50668" lon="19.6133">
        <ele>589.42999267578</ele>
        <time>2024-09-23T10:40:34.000Z</time>
      </trkpt>
      <trkpt lat="42.50692" lon="19.61346">
        <ele>586.05999755859</ele>
        <time>2024-09-23T10:40:35.000Z</time>
      </trkpt>
      <trkpt lat="42.50716" lon="19.61357">
        <ele>583.65997314453</ele>
        <time>2024-09-23T10:40:36.000Z</time>
      </trkpt>
      <trkpt lat="42.50761" lon="19.61368">
        <ele>577.89001464844</ele>
        <time>2024-09-23T10:40:38.000Z</time>
      </trkpt>
      <trkpt lat="42.50778" lon="19.61371">
        <ele>575.48999023438</ele>
        <time>2024-09-23T10:40:39.000Z</time>
      </trkpt>
      <trkpt lat="42.50789" lon="19.61373">
        <ele>574.03997802734</ele>
        <time>2024-09-23T10:40:40.000Z</time>
      </trkpt>
      <trkpt lat="42.50799" lon="19.6137">
        <ele>573.55999755859</ele>
        <time>2024-09-23T10:40:41.000Z</time>
      </trkpt>
      <trkpt lat="42.50809" lon="19.6136">
        <ele>573.55999755859</ele>
        <time>2024-09-23T10:40:42.000Z</time>
      </trkpt>
      <trkpt lat="42.50813" lon="19.61347">
        <ele>573.55999755859</ele>
        <time>2024-09-23T10:40:43.000Z</time>
      </trkpt>
      <trkpt lat="42.50814" lon="19.61331">
        <ele>574.53002929688</ele>
        <time>2024-09-23T10:40:44.000Z</time>
      </trkpt>
      <trkpt lat="42.50812" lon="19.61318">
        <ele>575.01000976562</ele>
        <time>2024-09-23T10:40:45.000Z</time>
      </trkpt>
      <trkpt lat="42.50807" lon="19.61308">
        <ele>575.01000976562</ele>
        <time>2024-09-23T10:40:46.000Z</time>
      </trkpt>
      <trkpt lat="42.508" lon="19.61297">
        <ele>575.01000976562</ele>
        <time>2024-09-23T10:40:47.000Z</time>
      </trkpt>
      <trkpt lat="42.50786" lon="19.61287">
        <ele>575.48999023438</ele>
        <time>2024-09-23T10:40:48.000Z</time>
      </trkpt>
      <trkpt lat="42.50777" lon="19.61277">
        <ele>576.45001220703</ele>
        <time>2024-09-23T10:40:49.000Z</time>
      </trkpt>
      <trkpt lat="42.50769" lon="19.61265">
        <ele>576.92999267578</ele>
        <time>2024-09-23T10:40:50.000Z</time>
      </trkpt>
      <trkpt lat="42.50763" lon="19.61254">
        <ele>577.40997314453</ele>
        <time>2024-09-23T10:40:51.000Z</time>
      </trkpt>
      <trkpt lat="42.50733" lon="19.61171">
        <ele>580.28997802734</ele>
        <time>2024-09-23T10:40:57.000Z</time>
      </trkpt>
      <trkpt lat="42.50728" lon="19.61159">
        <ele>580.77001953125</ele>
        <time>2024-09-23T10:40:58.000Z</time>
      </trkpt>
      <trkpt lat="42.50719" lon="19.61144">
        <ele>581.72998046875</ele>
        <time>2024-09-23T10:40:59.000Z</time>
      </trkpt>
      <trkpt lat="42.50711" lon="19.61132">
        <ele>582.21997070312</ele>
        <time>2024-09-23T10:41:00.000Z</time>
      </trkpt>
      <trkpt lat="42.50702" lon="19.61121">
        <ele>582.21997070312</ele>
        <time>2024-09-23T10:41:01.000Z</time>
      </trkpt>
      <trkpt lat="42.50699" lon="19.61108">
        <ele>581.72998046875</ele>
        <time>2024-09-23T10:41:02.000Z</time>
      </trkpt>
      <trkpt lat="42.507" lon="19.61097">
        <ele>581.25</ele>
        <time>2024-09-23T10:41:03.000Z</time>
      </trkpt>
      <trkpt lat="42.50706" lon="19.61078">
        <ele>580.77001953125</ele>
        <time>2024-09-23T10:41:04.000Z</time>
      </trkpt>
      <trkpt lat="42.5073" lon="19.60988">
        <ele>573.55999755859</ele>
        <time>2024-09-23T10:41:09.000Z</time>
      </trkpt>
      <trkpt lat="42.50731" lon="19.60981">
        <ele>572.59997558594</ele>
        <time>2024-09-23T10:41:10.000Z</time>
      </trkpt>
      <trkpt lat="42.50745" lon="19.60947">
        <ele>568.76000976562</ele>
        <time>2024-09-23T10:41:12.000Z</time>
      </trkpt>
      <trkpt lat="42.50751" lon="19.6093">
        <ele>566.83001708984</ele>
        <time>2024-09-23T10:41:13.000Z</time>
      </trkpt>
      <trkpt lat="42.50756" lon="19.60915">
        <ele>565.39001464844</ele>
        <time>2024-09-23T10:41:14.000Z</time>
      </trkpt>
      <trkpt lat="42.50759" lon="19.60897">
        <ele>564.42999267578</ele>
        <time>2024-09-23T10:41:15.000Z</time>
      </trkpt>
      <trkpt lat="42.50758" lon="19.6088">
        <ele>563.46997070312</ele>
        <time>2024-09-23T10:41:16.000Z</time>
      </trkpt>
      <trkpt lat="42.50754" lon="19.60856">
        <ele>562.03002929688</ele>
        <time>2024-09-23T10:41:17.000Z</time>
      </trkpt>
      <trkpt lat="42.50752" lon="19.60844">
        <ele>561.07000732422</ele>
        <time>2024-09-23T10:41:18.000Z</time>
      </trkpt>
      <trkpt lat="42.50752" lon="19.60826">
        <ele>559.61999511719</ele>
        <time>2024-09-23T10:41:19.000Z</time>
      </trkpt>
      <trkpt lat="42.50752" lon="19.60807">
        <ele>558.17999267578</ele>
        <time>2024-09-23T10:41:20.000Z</time>
      </trkpt>
      <trkpt lat="42.50754" lon="19.60795">
        <ele>557.21997070312</ele>
        <time>2024-09-23T10:41:21.000Z</time>
      </trkpt>
      <trkpt lat="42.50759" lon="19.60784">
        <ele>556.26000976562</ele>
        <time>2024-09-23T10:41:22.000Z</time>
      </trkpt>
      <trkpt lat="42.50769" lon="19.60774">
        <ele>555.78002929688</ele>
        <time>2024-09-23T10:41:23.000Z</time>
      </trkpt>
      <trkpt lat="42.50776" lon="19.60765">
        <ele>555.29998779297</ele>
        <time>2024-09-23T10:41:24.000Z</time>
      </trkpt>
      <trkpt lat="42.50785" lon="19.60745">
        <ele>554.34002685547</ele>
        <time>2024-09-23T10:41:25.000Z</time>
      </trkpt>
      <trkpt lat="42.50792" lon="19.60732">
        <ele>553.85998535156</ele>
        <time>2024-09-23T10:41:26.000Z</time>
      </trkpt>
      <trkpt lat="42.50801" lon="19.60715">
        <ele>553.38000488281</ele>
        <time>2024-09-23T10:41:27.000Z</time>
      </trkpt>
      <trkpt lat="42.50808" lon="19.60697">
        <ele>552.90002441406</ele>
        <time>2024-09-23T10:41:28.000Z</time>
      </trkpt>
      <trkpt lat="42.5081" lon="19.60679">
        <ele>552.40997314453</ele>
        <time>2024-09-23T10:41:29.000Z</time>
      </trkpt>
      <trkpt lat="42.50807" lon="19.60658">
        <ele>551.92999267578</ele>
        <time>2024-09-23T10:41:30.000Z</time>
      </trkpt>
      <trkpt lat="42.508" lon="19.60632">
        <ele>550.48999023438</ele>
        <time>2024-09-23T10:41:31.000Z</time>
      </trkpt>
      <trkpt lat="42.50795" lon="19.6061">
        <ele>549.53002929688</ele>
        <time>2024-09-23T10:41:32.000Z</time>
      </trkpt>
      <trkpt lat="42.50791" lon="19.60584">
        <ele>547.13000488281</ele>
        <time>2024-09-23T10:41:33.000Z</time>
      </trkpt>
      <trkpt lat="42.50791" lon="19.60549">
        <ele>544.23999023438</ele>
        <time>2024-09-23T10:41:34.000Z</time>
      </trkpt>
      <trkpt lat="42.50789" lon="19.60526">
        <ele>542.32000732422</ele>
        <time>2024-09-23T10:41:35.000Z</time>
      </trkpt>
      <trkpt lat="42.50779" lon="19.60481">
        <ele>539.44000244141</ele>
        <time>2024-09-23T10:41:37.000Z</time>
      </trkpt>
      <trkpt lat="42.50778" lon="19.60456">
        <ele>536.54998779297</ele>
        <time>2024-09-23T10:41:38.000Z</time>
      </trkpt>
      <trkpt lat="42.50779" lon="19.60454">
        <ele>536.54998779297</ele>
        <time>2024-09-23T10:41:39.000Z</time>
      </trkpt>
      <trkpt lat="42.50785" lon="19.60441">
        <ele>535.10998535156</ele>
        <time>2024-09-23T10:41:40.000Z</time>
      </trkpt>
      <trkpt lat="42.50792" lon="19.60424">
        <ele>534.63000488281</ele>
        <time>2024-09-23T10:41:41.000Z</time>
      </trkpt>
      <trkpt lat="42.50794" lon="19.60404">
        <ele>533.66998291016</ele>
        <time>2024-09-23T10:41:42.000Z</time>
      </trkpt>
      <trkpt lat="42.50787" lon="19.60368">
        <ele>532.22998046875</ele>
        <time>2024-09-23T10:41:43.000Z</time>
      </trkpt>
      <trkpt lat="42.50786" lon="19.6036">
        <ele>531.75</ele>
        <time>2024-09-23T10:41:44.000Z</time>
      </trkpt>
      <trkpt lat="42.50787" lon="19.60342">
        <ele>530.78997802734</ele>
        <time>2024-09-23T10:41:45.000Z</time>
      </trkpt>
      <trkpt lat="42.50791" lon="19.60316">
        <ele>529.82000732422</ele>
        <time>2024-09-23T10:41:46.000Z</time>
      </trkpt>
      <trkpt lat="42.50795" lon="19.60294">
        <ele>528.38000488281</ele>
        <time>2024-09-23T10:41:47.000Z</time>
      </trkpt>
      <trkpt lat="42.50802" lon="19.6027">
        <ele>527.41998291016</ele>
        <time>2024-09-23T10:41:48.000Z</time>
      </trkpt>
      <trkpt lat="42.50814" lon="19.60241">
        <ele>525.5</ele>
        <time>2024-09-23T10:41:49.000Z</time>
      </trkpt>
      <trkpt lat="42.50838" lon="19.60169">
        <ele>518.77001953125</ele>
        <time>2024-09-23T10:41:51.000Z</time>
      </trkpt>
      <trkpt lat="42.50843" lon="19.60148">
        <ele>517.33001708984</ele>
        <time>2024-09-23T10:41:52.000Z</time>
      </trkpt>
      <trkpt lat="42.5085" lon="19.60117">
        <ele>514.91998291016</ele>
        <time>2024-09-23T10:41:53.000Z</time>
      </trkpt>
      <trkpt lat="42.50856" lon="19.60087">
        <ele>512.03997802734</ele>
        <time>2024-09-23T10:41:54.000Z</time>
      </trkpt>
      <trkpt lat="42.50873" lon="19.60043">
        <ele>507.70999145508</ele>
        <time>2024-09-23T10:41:55.000Z</time>
      </trkpt>
      <trkpt lat="42.50876" lon="19.60033">
        <ele>507.23001098633</ele>
        <time>2024-09-23T10:41:56.000Z</time>
      </trkpt>
      <trkpt lat="42.50882" lon="19.60008">
        <ele>504.82998657227</ele>
        <time>2024-09-23T10:41:57.000Z</time>
      </trkpt>
      <trkpt lat="42.50882" lon="19.59979">
        <ele>501.95001220703</ele>
        <time>2024-09-23T10:41:58.000Z</time>
      </trkpt>
      <trkpt lat="42.50879" lon="19.59947">
        <ele>498.57998657227</ele>
        <time>2024-09-23T10:41:59.000Z</time>
      </trkpt>
      <trkpt lat="42.50873" lon="19.59917">
        <ele>496.17999267578</ele>
        <time>2024-09-23T10:42:00.000Z</time>
      </trkpt>
      <trkpt lat="42.50867" lon="19.59891">
        <ele>493.29000854492</ele>
        <time>2024-09-23T10:42:01.000Z</time>
      </trkpt>
      <trkpt lat="42.50864" lon="19.59866">
        <ele>490.41000366211</ele>
        <time>2024-09-23T10:42:02.000Z</time>
      </trkpt>
      <trkpt lat="42.50866" lon="19.59817">
        <ele>486.55999755859</ele>
        <time>2024-09-23T10:42:04.000Z</time>
      </trkpt>
      <trkpt lat="42.50869" lon="19.59797">
        <ele>484.64001464844</ele>
        <time>2024-09-23T10:42:05.000Z</time>
      </trkpt>
      <trkpt lat="42.50873" lon="19.59783">
        <ele>483.20001220703</ele>
        <time>2024-09-23T10:42:06.000Z</time>
      </trkpt>
      <trkpt lat="42.50875" lon="19.5977">
        <ele>480.79998779297</ele>
        <time>2024-09-23T10:42:07.000Z</time>
      </trkpt>
      <trkpt lat="42.50874" lon="19.59761">
        <ele>479.83999633789</ele>
        <time>2024-09-23T10:42:08.000Z</time>
      </trkpt>
      <trkpt lat="42.50869" lon="19.59756">
        <ele>478.39001464844</ele>
        <time>2024-09-23T10:42:09.000Z</time>
      </trkpt>
      <trkpt lat="42.50858" lon="19.59756">
        <ele>476.4700012207</ele>
        <time>2024-09-23T10:42:10.000Z</time>
      </trkpt>
      <trkpt lat="42.50844" lon="19.59762">
        <ele>477.42999267578</ele>
        <time>2024-09-23T10:42:11.000Z</time>
      </trkpt>
      <trkpt lat="42.50827" lon="19.59774">
        <ele>476.95001220703</ele>
        <time>2024-09-23T10:42:12.000Z</time>
      </trkpt>
      <trkpt lat="42.50803" lon="19.59792">
        <ele>475.0299987793</ele>
        <time>2024-09-23T10:42:15.000Z</time>
      </trkpt>
      <trkpt lat="42.50797" lon="19.59799">
        <ele>474.07000732422</ele>
        <time>2024-09-23T10:42:16.000Z</time>
      </trkpt>
      <trkpt lat="42.50791" lon="19.59808">
        <ele>473.58999633789</ele>
        <time>2024-09-23T10:42:17.000Z</time>
      </trkpt>
      <trkpt lat="42.50788" lon="19.59816">
        <ele>472.63000488281</ele>
        <time>2024-09-23T10:42:18.000Z</time>
      </trkpt>
      <trkpt lat="42.50785" lon="19.59825">
        <ele>471.66000366211</ele>
        <time>2024-09-23T10:42:19.000Z</time>
      </trkpt>
      <trkpt lat="42.50783" lon="19.59834">
        <ele>471.17999267578</ele>
        <time>2024-09-23T10:42:20.000Z</time>
      </trkpt>
      <trkpt lat="42.50782" lon="19.59848">
        <ele>470.70001220703</ele>
        <time>2024-09-23T10:42:21.000Z</time>
      </trkpt>
      <trkpt lat="42.50781" lon="19.59853">
        <ele>470.70001220703</ele>
        <time>2024-09-23T10:42:22.000Z</time>
      </trkpt>
      <trkpt lat="42.50778" lon="19.59862">
        <ele>469.73999023438</ele>
        <time>2024-09-23T10:42:23.000Z</time>
      </trkpt>
      <trkpt lat="42.50774" lon="19.5987">
        <ele>469.73999023438</ele>
        <time>2024-09-23T10:42:24.000Z</time>
      </trkpt>
      <trkpt lat="42.50769" lon="19.59876">
        <ele>469.26000976562</ele>
        <time>2024-09-23T10:42:25.000Z</time>
      </trkpt>
      <trkpt lat="42.50762" lon="19.59881">
        <ele>468.29998779297</ele>
        <time>2024-09-23T10:42:26.000Z</time>
      </trkpt>
      <trkpt lat="42.50753" lon="19.59881">
        <ele>467.82000732422</ele>
        <time>2024-09-23T10:42:27.000Z</time>
      </trkpt>
      <trkpt lat="42.50744" lon="19.59877">
        <ele>466.85998535156</ele>
        <time>2024-09-23T10:42:28.000Z</time>
      </trkpt>
      <trkpt lat="42.50735" lon="19.59871">
        <ele>466.38000488281</ele>
        <time>2024-09-23T10:42:29.000Z</time>
      </trkpt>
      <trkpt lat="42.50724" lon="19.59862">
        <ele>464.92999267578</ele>
        <time>2024-09-23T10:42:30.000Z</time>
      </trkpt>
      <trkpt lat="42.50716" lon="19.59857">
        <ele>464.45001220703</ele>
        <time>2024-09-23T10:42:31.000Z</time>
      </trkpt>
      <trkpt lat="42.50705" lon="19.59853">
        <ele>463.01000976562</ele>
        <time>2024-09-23T10:42:32.000Z</time>
      </trkpt>
      <trkpt lat="42.50694" lon="19.59853">
        <ele>462.04998779297</ele>
        <time>2024-09-23T10:42:33.000Z</time>
      </trkpt>
      <trkpt lat="42.50672" lon="19.59856">
        <ele>459.17001342773</ele>
        <time>2024-09-23T10:42:35.000Z</time>
      </trkpt>
      <trkpt lat="42.50659" lon="19.59857">
        <ele>456.76000976562</ele>
        <time>2024-09-23T10:42:36.000Z</time>
      </trkpt>
      <trkpt lat="42.50651" lon="19.59855">
        <ele>456.2799987793</ele>
        <time>2024-09-23T10:42:37.000Z</time>
      </trkpt>
      <trkpt lat="42.50641" lon="19.59849">
        <ele>454.35998535156</ele>
        <time>2024-09-23T10:42:38.000Z</time>
      </trkpt>
      <trkpt lat="42.50632" lon="19.5984">
        <ele>453.88000488281</ele>
        <time>2024-09-23T10:42:39.000Z</time>
      </trkpt>
      <trkpt lat="42.5062" lon="19.59827">
        <ele>452.44000244141</ele>
        <time>2024-09-23T10:42:40.000Z</time>
      </trkpt>
      <trkpt lat="42.5061" lon="19.59818">
        <ele>451</ele>
        <time>2024-09-23T10:42:41.000Z</time>
      </trkpt>
      <trkpt lat="42.50584" lon="19.59798">
        <ele>448.10998535156</ele>
        <time>2024-09-23T10:42:43.000Z</time>
      </trkpt>
      <trkpt lat="42.50582" lon="19.59797">
        <ele>448.10998535156</ele>
        <time>2024-09-23T10:42:44.000Z</time>
      </trkpt>
      <trkpt lat="42.50571" lon="19.59791">
        <ele>446.67001342773</ele>
        <time>2024-09-23T10:42:45.000Z</time>
      </trkpt>
      <trkpt lat="42.50543" lon="19.59778">
        <ele>443.79000854492</ele>
        <time>2024-09-23T10:42:47.000Z</time>
      </trkpt>
      <trkpt lat="42.50508" lon="19.59768">
        <ele>441.85998535156</ele>
        <time>2024-09-23T10:42:50.000Z</time>
      </trkpt>
      <trkpt lat="42.50499" lon="19.59764">
        <ele>440.89999389648</ele>
        <time>2024-09-23T10:42:51.000Z</time>
      </trkpt>
      <trkpt lat="42.5049" lon="19.59759">
        <ele>439.94000244141</ele>
        <time>2024-09-23T10:42:52.000Z</time>
      </trkpt>
      <trkpt lat="42.5048" lon="19.59751">
        <ele>438.98001098633</ele>
        <time>2024-09-23T10:42:53.000Z</time>
      </trkpt>
      <trkpt lat="42.50473" lon="19.59741">
        <ele>437.54000854492</ele>
        <time>2024-09-23T10:42:54.000Z</time>
      </trkpt>
      <trkpt lat="42.50467" lon="19.59729">
        <ele>436.57998657227</ele>
        <time>2024-09-23T10:42:55.000Z</time>
      </trkpt>
      <trkpt lat="42.50457" lon="19.597">
        <ele>434.64999389648</ele>
        <time>2024-09-23T10:42:57.000Z</time>
      </trkpt>
      <trkpt lat="42.5045" lon="19.59669">
        <ele>432.25</ele>
        <time>2024-09-23T10:42:59.000Z</time>
      </trkpt>
      <trkpt lat="42.50444" lon="19.59651">
        <ele>429.85000610352</ele>
        <time>2024-09-23T10:43:00.000Z</time>
      </trkpt>
      <trkpt lat="42.50435" lon="19.59634">
        <ele>428.89001464844</ele>
        <time>2024-09-23T10:43:01.000Z</time>
      </trkpt>
      <trkpt lat="42.5042" lon="19.59616">
        <ele>427.44000244141</ele>
        <time>2024-09-23T10:43:02.000Z</time>
      </trkpt>
      <trkpt lat="42.50309" lon="19.59483">
        <ele>419.75</ele>
        <time>2024-09-23T10:43:09.000Z</time>
      </trkpt>
      <trkpt lat="42.50267" lon="19.59424">
        <ele>417.35000610352</ele>
        <time>2024-09-23T10:43:12.000Z</time>
      </trkpt>
      <trkpt lat="42.50246" lon="19.59399">
        <ele>416.39001464844</ele>
        <time>2024-09-23T10:43:14.000Z</time>
      </trkpt>
      <trkpt lat="42.50179" lon="19.59333">
        <ele>415.42999267578</ele>
        <time>2024-09-23T10:43:17.000Z</time>
      </trkpt>
      <trkpt lat="42.50138" lon="19.59297">
        <ele>413.5</ele>
        <time>2024-09-23T10:43:20.000Z</time>
      </trkpt>
      <trkpt lat="42.50129" lon="19.59288">
        <ele>413.01998901367</ele>
        <time>2024-09-23T10:43:21.000Z</time>
      </trkpt>
      <trkpt lat="42.5006" lon="19.59195">
        <ele>412.05999755859</ele>
        <time>2024-09-23T10:43:27.000Z</time>
      </trkpt>
      <trkpt lat="42.50054" lon="19.59186">
        <ele>412.54000854492</ele>
        <time>2024-09-23T10:43:28.000Z</time>
      </trkpt>
      <trkpt lat="42.50048" lon="19.59177">
        <ele>412.54000854492</ele>
        <time>2024-09-23T10:43:29.000Z</time>
      </trkpt>
      <trkpt lat="42.50044" lon="19.59171">
        <ele>412.54000854492</ele>
        <time>2024-09-23T10:43:30.000Z</time>
      </trkpt>
      <trkpt lat="42.50039" lon="19.59163">
        <ele>413.01998901367</ele>
        <time>2024-09-23T10:43:31.000Z</time>
      </trkpt>
      <trkpt lat="42.50035" lon="19.59155">
        <ele>413.01998901367</ele>
        <time>2024-09-23T10:43:32.000Z</time>
      </trkpt>
      <trkpt lat="42.50032" lon="19.59144">
        <ele>413.5</ele>
        <time>2024-09-23T10:43:33.000Z</time>
      </trkpt>
      <trkpt lat="42.50023" lon="19.591">
        <ele>415.91000366211</ele>
        <time>2024-09-23T10:43:36.000Z</time>
      </trkpt>
      <trkpt lat="42.50021" lon="19.59085">
        <ele>416.86999511719</ele>
        <time>2024-09-23T10:43:37.000Z</time>
      </trkpt>
      <trkpt lat="42.5002" lon="19.59055">
        <ele>418.30999755859</ele>
        <time>2024-09-23T10:43:38.000Z</time>
      </trkpt>
      <trkpt lat="42.50019" lon="19.59043">
        <ele>419.26998901367</ele>
        <time>2024-09-23T10:43:39.000Z</time>
      </trkpt>
      <trkpt lat="42.50014" lon="19.59025">
        <ele>420.70999145508</ele>
        <time>2024-09-23T10:43:40.000Z</time>
      </trkpt>
      <trkpt lat="42.49995" lon="19.58984">
        <ele>424.55999755859</ele>
        <time>2024-09-23T10:43:42.000Z</time>
      </trkpt>
      <trkpt lat="42.4999" lon="19.58974">
        <ele>425.51998901367</ele>
        <time>2024-09-23T10:43:43.000Z</time>
      </trkpt>
      <trkpt lat="42.49979" lon="19.58935">
        <ele>428.89001464844</ele>
        <time>2024-09-23T10:43:46.000Z</time>
      </trkpt>
      <trkpt lat="42.49978" lon="19.58934">
        <ele>428.89001464844</ele>
        <time>2024-09-23T10:43:47.000Z</time>
      </trkpt>
      <trkpt lat="42.49974" lon="19.58922">
        <ele>429.85000610352</ele>
        <time>2024-09-23T10:43:49.000Z</time>
      </trkpt>
      <trkpt lat="42.49972" lon="19.58916">
        <ele>429.85000610352</ele>
        <time>2024-09-23T10:43:50.000Z</time>
      </trkpt>
      <trkpt lat="42.49964" lon="19.58901">
        <ele>430.80999755859</ele>
        <time>2024-09-23T10:43:52.000Z</time>
      </trkpt>
      <trkpt lat="42.4996" lon="19.58894">
        <ele>431.29000854492</ele>
        <time>2024-09-23T10:43:53.000Z</time>
      </trkpt>
      <trkpt lat="42.49955" lon="19.58888">
        <ele>431.76998901367</ele>
        <time>2024-09-23T10:43:54.000Z</time>
      </trkpt>
      <trkpt lat="42.49949" lon="19.58882">
        <ele>432.73001098633</ele>
        <time>2024-09-23T10:43:55.000Z</time>
      </trkpt>
      <trkpt lat="42.49935" lon="19.5887">
        <ele>434.17001342773</ele>
        <time>2024-09-23T10:43:56.000Z</time>
      </trkpt>
      <trkpt lat="42.49932" lon="19.58868">
        <ele>434.64999389648</ele>
        <time>2024-09-23T10:43:57.000Z</time>
      </trkpt>
      <trkpt lat="42.49917" lon="19.58856">
        <ele>435.60998535156</ele>
        <time>2024-09-23T10:43:59.000Z</time>
      </trkpt>
      <trkpt lat="42.49912" lon="19.58852">
        <ele>436.10000610352</ele>
        <time>2024-09-23T10:44:00.000Z</time>
      </trkpt>
      <trkpt lat="42.49906" lon="19.58844">
        <ele>436.57998657227</ele>
        <time>2024-09-23T10:44:01.000Z</time>
      </trkpt>
      <trkpt lat="42.49898" lon="19.5883">
        <ele>438.01998901367</ele>
        <time>2024-09-23T10:44:02.000Z</time>
      </trkpt>
      <trkpt lat="42.49895" lon="19.58824">
        <ele>438.5</ele>
        <time>2024-09-23T10:44:03.000Z</time>
      </trkpt>
      <trkpt lat="42.49891" lon="19.58813">
        <ele>438.98001098633</ele>
        <time>2024-09-23T10:44:04.000Z</time>
      </trkpt>
      <trkpt lat="42.49881" lon="19.58763">
        <ele>438.98001098633</ele>
        <time>2024-09-23T10:44:07.000Z</time>
      </trkpt>
      <trkpt lat="42.49879" lon="19.58754">
        <ele>438.98001098633</ele>
        <time>2024-09-23T10:44:08.000Z</time>
      </trkpt>
      <trkpt lat="42.49877" lon="19.58735">
        <ele>438.5</ele>
        <time>2024-09-23T10:44:09.000Z</time>
      </trkpt>
      <trkpt lat="42.49877" lon="19.58713">
        <ele>437.54000854492</ele>
        <time>2024-09-23T10:44:10.000Z</time>
      </trkpt>
      <trkpt lat="42.49878" lon="19.58698">
        <ele>436.57998657227</ele>
        <time>2024-09-23T10:44:11.000Z</time>
      </trkpt>
      <trkpt lat="42.4988" lon="19.58679">
        <ele>435.60998535156</ele>
        <time>2024-09-23T10:44:12.000Z</time>
      </trkpt>
      <trkpt lat="42.49885" lon="19.58663">
        <ele>434.64999389648</ele>
        <time>2024-09-23T10:44:13.000Z</time>
      </trkpt>
      <trkpt lat="42.4989" lon="19.58649">
        <ele>434.17001342773</ele>
        <time>2024-09-23T10:44:14.000Z</time>
      </trkpt>
      <trkpt lat="42.49893" lon="19.58632">
        <ele>434.17001342773</ele>
        <time>2024-09-23T10:44:15.000Z</time>
      </trkpt>
      <trkpt lat="42.49892" lon="19.58615">
        <ele>434.64999389648</ele>
        <time>2024-09-23T10:44:16.000Z</time>
      </trkpt>
      <trkpt lat="42.49886" lon="19.58597">
        <ele>434.64999389648</ele>
        <time>2024-09-23T10:44:17.000Z</time>
      </trkpt>
      <trkpt lat="42.4988" lon="19.58582">
        <ele>434.64999389648</ele>
        <time>2024-09-23T10:44:18.000Z</time>
      </trkpt>
      <trkpt lat="42.49874" lon="19.58563">
        <ele>434.64999389648</ele>
        <time>2024-09-23T10:44:19.000Z</time>
      </trkpt>
      <trkpt lat="42.49859" lon="19.58474">
        <ele>430.80999755859</ele>
        <time>2024-09-23T10:44:24.000Z</time>
      </trkpt>
      <trkpt lat="42.49858" lon="19.58459">
        <ele>429.36999511719</ele>
        <time>2024-09-23T10:44:25.000Z</time>
      </trkpt>
      <trkpt lat="42.4986" lon="19.58441">
        <ele>428.39999389648</ele>
        <time>2024-09-23T10:44:26.000Z</time>
      </trkpt>
      <trkpt lat="42.49865" lon="19.58418">
        <ele>425.51998901367</ele>
        <time>2024-09-23T10:44:27.000Z</time>
      </trkpt>
      <trkpt lat="42.49866" lon="19.58396">
        <ele>424.07998657227</ele>
        <time>2024-09-23T10:44:28.000Z</time>
      </trkpt>
      <trkpt lat="42.49862" lon="19.58375">
        <ele>423.60000610352</ele>
        <time>2024-09-23T10:44:29.000Z</time>
      </trkpt>
      <trkpt lat="42.49859" lon="19.58357">
        <ele>422.64001464844</ele>
        <time>2024-09-23T10:44:30.000Z</time>
      </trkpt>
      <trkpt lat="42.49857" lon="19.5834">
        <ele>421.19000244141</ele>
        <time>2024-09-23T10:44:31.000Z</time>
      </trkpt>
      <trkpt lat="42.49859" lon="19.58325">
        <ele>420.23001098633</ele>
        <time>2024-09-23T10:44:32.000Z</time>
      </trkpt>
      <trkpt lat="42.49865" lon="19.58308">
        <ele>418.79000854492</ele>
        <time>2024-09-23T10:44:33.000Z</time>
      </trkpt>
      <trkpt lat="42.49869" lon="19.58286">
        <ele>417.35000610352</ele>
        <time>2024-09-23T10:44:34.000Z</time>
      </trkpt>
      <trkpt lat="42.49872" lon="19.58273">
        <ele>415.91000366211</ele>
        <time>2024-09-23T10:44:35.000Z</time>
      </trkpt>
      <trkpt lat="42.49876" lon="19.58264">
        <ele>414.95001220703</ele>
        <time>2024-09-23T10:44:36.000Z</time>
      </trkpt>
      <trkpt lat="42.49883" lon="19.58259">
        <ele>413.98001098633</ele>
        <time>2024-09-23T10:44:37.000Z</time>
      </trkpt>
      <trkpt lat="42.49894" lon="19.58259">
        <ele>413.01998901367</ele>
        <time>2024-09-23T10:44:38.000Z</time>
      </trkpt>
      <trkpt lat="42.49907" lon="19.58257">
        <ele>412.54000854492</ele>
        <time>2024-09-23T10:44:39.000Z</time>
      </trkpt>
      <trkpt lat="42.49916" lon="19.58248">
        <ele>411.57998657227</ele>
        <time>2024-09-23T10:44:40.000Z</time>
      </trkpt>
      <trkpt lat="42.49921" lon="19.58232">
        <ele>410.14001464844</ele>
        <time>2024-09-23T10:44:41.000Z</time>
      </trkpt>
      <trkpt lat="42.49921" lon="19.58216">
        <ele>410.14001464844</ele>
        <time>2024-09-23T10:44:42.000Z</time>
      </trkpt>
      <trkpt lat="42.49918" lon="19.582">
        <ele>409.17999267578</ele>
        <time>2024-09-23T10:44:43.000Z</time>
      </trkpt>
      <trkpt lat="42.49912" lon="19.58186">
        <ele>408.70001220703</ele>
        <time>2024-09-23T10:44:44.000Z</time>
      </trkpt>
      <trkpt lat="42.49905" lon="19.58179">
        <ele>407.73999023438</ele>
        <time>2024-09-23T10:44:45.000Z</time>
      </trkpt>
      <trkpt lat="42.49896" lon="19.58177">
        <ele>407.73999023438</ele>
        <time>2024-09-23T10:44:46.000Z</time>
      </trkpt>
      <trkpt lat="42.49886" lon="19.58177">
        <ele>406.76998901367</ele>
        <time>2024-09-23T10:44:47.000Z</time>
      </trkpt>
      <trkpt lat="42.49872" lon="19.58176">
        <ele>406.76998901367</ele>
        <time>2024-09-23T10:44:48.000Z</time>
      </trkpt>
      <trkpt lat="42.49862" lon="19.58175">
        <ele>405.80999755859</ele>
        <time>2024-09-23T10:44:49.000Z</time>
      </trkpt>
      <trkpt lat="42.49856" lon="19.58173">
        <ele>405.80999755859</ele>
        <time>2024-09-23T10:44:50.000Z</time>
      </trkpt>
      <trkpt lat="42.49847" lon="19.58169">
        <ele>405.32998657227</ele>
        <time>2024-09-23T10:44:51.000Z</time>
      </trkpt>
      <trkpt lat="42.49824" lon="19.5815">
        <ele>403.41000366211</ele>
        <time>2024-09-23T10:44:53.000Z</time>
      </trkpt>
      <trkpt lat="42.49822" lon="19.58148">
        <ele>403.41000366211</ele>
        <time>2024-09-23T10:44:54.000Z</time>
      </trkpt>
      <trkpt lat="42.49811" lon="19.58142">
        <ele>402.45001220703</ele>
        <time>2024-09-23T10:44:55.000Z</time>
      </trkpt>
      <trkpt lat="42.498" lon="19.58137">
        <ele>401.9700012207</ele>
        <time>2024-09-23T10:44:56.000Z</time>
      </trkpt>
      <trkpt lat="42.49728" lon="19.58133">
        <ele>399.07998657227</ele>
        <time>2024-09-23T10:45:01.000Z</time>
      </trkpt>
      <trkpt lat="42.49722" lon="19.58133">
        <ele>398.60000610352</ele>
        <time>2024-09-23T10:45:02.000Z</time>
      </trkpt>
      <trkpt lat="42.49712" lon="19.58131">
        <ele>398.60000610352</ele>
        <time>2024-09-23T10:45:03.000Z</time>
      </trkpt>
      <trkpt lat="42.49602" lon="19.58099">
        <ele>395.23999023438</ele>
        <time>2024-09-23T10:45:11.000Z</time>
      </trkpt>
      <trkpt lat="42.49591" lon="19.58096">
        <ele>395.23999023438</ele>
        <time>2024-09-23T10:45:12.000Z</time>
      </trkpt>
      <trkpt lat="42.49575" lon="19.58095">
        <ele>395.23999023438</ele>
        <time>2024-09-23T10:45:13.000Z</time>
      </trkpt>
      <trkpt lat="42.49559" lon="19.58097">
        <ele>396.20001220703</ele>
        <time>2024-09-23T10:45:14.000Z</time>
      </trkpt>
      <trkpt lat="42.49536" lon="19.58103">
        <ele>395.7200012207</ele>
        <time>2024-09-23T10:45:15.000Z</time>
      </trkpt>
      <trkpt lat="42.49527" lon="19.58104">
        <ele>395.7200012207</ele>
        <time>2024-09-23T10:45:16.000Z</time>
      </trkpt>
      <trkpt lat="42.49515" lon="19.58101">
        <ele>395.7200012207</ele>
        <time>2024-09-23T10:45:17.000Z</time>
      </trkpt>
      <trkpt lat="42.49504" lon="19.58095">
        <ele>395.23999023438</ele>
        <time>2024-09-23T10:45:18.000Z</time>
      </trkpt>
      <trkpt lat="42.49492" lon="19.58085">
        <ele>394.2799987793</ele>
        <time>2024-09-23T10:45:19.000Z</time>
      </trkpt>
      <trkpt lat="42.49484" lon="19.58078">
        <ele>393.79998779297</ele>
        <time>2024-09-23T10:45:20.000Z</time>
      </trkpt>
      <trkpt lat="42.49476" lon="19.58067">
        <ele>393.32000732422</ele>
        <time>2024-09-23T10:45:21.000Z</time>
      </trkpt>
      <trkpt lat="42.49465" lon="19.58049">
        <ele>392.83999633789</ele>
        <time>2024-09-23T10:45:22.000Z</time>
      </trkpt>
      <trkpt lat="42.4946" lon="19.58042">
        <ele>392.83999633789</ele>
        <time>2024-09-23T10:45:23.000Z</time>
      </trkpt>
      <trkpt lat="42.49449" lon="19.58029">
        <ele>392.83999633789</ele>
        <time>2024-09-23T10:45:24.000Z</time>
      </trkpt>
      <trkpt lat="42.49412" lon="19.58001">
        <ele>392.35998535156</ele>
        <time>2024-09-23T10:45:27.000Z</time>
      </trkpt>
      <trkpt lat="42.49388" lon="19.57981">
        <ele>392.83999633789</ele>
        <time>2024-09-23T10:45:28.000Z</time>
      </trkpt>
      <trkpt lat="42.49375" lon="19.5797">
        <ele>392.83999633789</ele>
        <time>2024-09-23T10:45:29.000Z</time>
      </trkpt>
      <trkpt lat="42.49373" lon="19.57968">
        <ele>392.83999633789</ele>
        <time>2024-09-23T10:45:30.000Z</time>
      </trkpt>
      <trkpt lat="42.49361" lon="19.57961">
        <ele>392.83999633789</ele>
        <time>2024-09-23T10:45:31.000Z</time>
      </trkpt>
      <trkpt lat="42.49348" lon="19.57956">
        <ele>393.32000732422</ele>
        <time>2024-09-23T10:45:32.000Z</time>
      </trkpt>
      <trkpt lat="42.49334" lon="19.57955">
        <ele>393.32000732422</ele>
        <time>2024-09-23T10:45:33.000Z</time>
      </trkpt>
      <trkpt lat="42.4932" lon="19.57959">
        <ele>393.32000732422</ele>
        <time>2024-09-23T10:45:34.000Z</time>
      </trkpt>
      <trkpt lat="42.49235" lon="19.58018">
        <ele>391.39001464844</ele>
        <time>2024-09-23T10:45:40.000Z</time>
      </trkpt>
      <trkpt lat="42.4922" lon="19.58027">
        <ele>390.91000366211</ele>
        <time>2024-09-23T10:45:41.000Z</time>
      </trkpt>
      <trkpt lat="42.49164" lon="19.58052">
        <ele>390.91000366211</ele>
        <time>2024-09-23T10:45:44.000Z</time>
      </trkpt>
      <trkpt lat="42.4916" lon="19.58054">
        <ele>390.91000366211</ele>
        <time>2024-09-23T10:45:45.000Z</time>
      </trkpt>
      <trkpt lat="42.49146" lon="19.58063">
        <ele>390.42999267578</ele>
        <time>2024-09-23T10:45:46.000Z</time>
      </trkpt>
      <trkpt lat="42.49135" lon="19.58071">
        <ele>390.42999267578</ele>
        <time>2024-09-23T10:45:47.000Z</time>
      </trkpt>
      <trkpt lat="42.49125" lon="19.58082">
        <ele>390.42999267578</ele>
        <time>2024-09-23T10:45:48.000Z</time>
      </trkpt>
      <trkpt lat="42.49117" lon="19.58095">
        <ele>390.42999267578</ele>
        <time>2024-09-23T10:45:49.000Z</time>
      </trkpt>
      <trkpt lat="42.49112" lon="19.58111">
        <ele>390.91000366211</ele>
        <time>2024-09-23T10:45:50.000Z</time>
      </trkpt>
      <trkpt lat="42.4911" lon="19.58127">
        <ele>390.91000366211</ele>
        <time>2024-09-23T10:45:51.000Z</time>
      </trkpt>
      <trkpt lat="42.49108" lon="19.58148">
        <ele>390.91000366211</ele>
        <time>2024-09-23T10:45:52.000Z</time>
      </trkpt>
      <trkpt lat="42.49107" lon="19.58157">
        <ele>391.39001464844</ele>
        <time>2024-09-23T10:45:53.000Z</time>
      </trkpt>
      <trkpt lat="42.49102" lon="19.58171">
        <ele>390.91000366211</ele>
        <time>2024-09-23T10:45:54.000Z</time>
      </trkpt>
      <trkpt lat="42.49082" lon="19.58206">
        <ele>390.91000366211</ele>
        <time>2024-09-23T10:45:57.000Z</time>
      </trkpt>
      <trkpt lat="42.49074" lon="19.58219">
        <ele>390.42999267578</ele>
        <time>2024-09-23T10:45:58.000Z</time>
      </trkpt>
      <trkpt lat="42.49052" lon="19.58263">
        <ele>389.95001220703</ele>
        <time>2024-09-23T10:46:01.000Z</time>
      </trkpt>
      <trkpt lat="42.49051" lon="19.58268">
        <ele>389.95001220703</ele>
        <time>2024-09-23T10:46:02.000Z</time>
      </trkpt>
      <trkpt lat="42.49045" lon="19.58284">
        <ele>388.98999023438</ele>
        <time>2024-09-23T10:46:03.000Z</time>
      </trkpt>
      <trkpt lat="42.49038" lon="19.58301">
        <ele>388.51000976562</ele>
        <time>2024-09-23T10:46:05.000Z</time>
      </trkpt>
      <trkpt lat="42.49036" lon="19.58307">
        <ele>388.0299987793</ele>
        <time>2024-09-23T10:46:06.000Z</time>
      </trkpt>
      <trkpt lat="42.49029" lon="19.58317">
        <ele>387.54998779297</ele>
        <time>2024-09-23T10:46:07.000Z</time>
      </trkpt>
      <trkpt lat="42.49026" lon="19.58321">
        <ele>387.54998779297</ele>
        <time>2024-09-23T10:46:08.000Z</time>
      </trkpt>
      <trkpt lat="42.49019" lon="19.58329">
        <ele>386.58999633789</ele>
        <time>2024-09-23T10:46:09.000Z</time>
      </trkpt>
      <trkpt lat="42.4901" lon="19.58335">
        <ele>386.10998535156</ele>
        <time>2024-09-23T10:46:10.000Z</time>
      </trkpt>
      <trkpt lat="42.48987" lon="19.5835">
        <ele>385.14999389648</ele>
        <time>2024-09-23T10:46:12.000Z</time>
      </trkpt>
      <trkpt lat="42.48896" lon="19.58404">
        <ele>385.14999389648</ele>
        <time>2024-09-23T10:46:19.000Z</time>
      </trkpt>
      <trkpt lat="42.48888" lon="19.58411">
        <ele>385.63000488281</ele>
        <time>2024-09-23T10:46:20.000Z</time>
      </trkpt>
      <trkpt lat="42.48872" lon="19.58419">
        <ele>385.14999389648</ele>
        <time>2024-09-23T10:46:21.000Z</time>
      </trkpt>
      <trkpt lat="42.48859" lon="19.58424">
        <ele>385.63000488281</ele>
        <time>2024-09-23T10:46:22.000Z</time>
      </trkpt>
      <trkpt lat="42.48766" lon="19.58453">
        <ele>385.14999389648</ele>
        <time>2024-09-23T10:46:29.000Z</time>
      </trkpt>
      <trkpt lat="42.48754" lon="19.5846">
        <ele>384.17999267578</ele>
        <time>2024-09-23T10:46:30.000Z</time>
      </trkpt>
      <trkpt lat="42.48743" lon="19.58469">
        <ele>383.70001220703</ele>
        <time>2024-09-23T10:46:31.000Z</time>
      </trkpt>
      <trkpt lat="42.4873" lon="19.58487">
        <ele>382.73999023438</ele>
        <time>2024-09-23T10:46:32.000Z</time>
      </trkpt>
      <trkpt lat="42.48697" lon="19.58536">
        <ele>382.73999023438</ele>
        <time>2024-09-23T10:46:36.000Z</time>
      </trkpt>
      <trkpt lat="42.48692" lon="19.58545">
        <ele>382.73999023438</ele>
        <time>2024-09-23T10:46:37.000Z</time>
      </trkpt>
      <trkpt lat="42.48689" lon="19.58548">
        <ele>383.2200012207</ele>
        <time>2024-09-23T10:46:38.000Z</time>
      </trkpt>
      <trkpt lat="42.48684" lon="19.58553">
        <ele>383.2200012207</ele>
        <time>2024-09-23T10:46:39.000Z</time>
      </trkpt>
      <trkpt lat="42.48678" lon="19.58558">
        <ele>382.26000976562</ele>
        <time>2024-09-23T10:46:40.000Z</time>
      </trkpt>
      <trkpt lat="42.4867" lon="19.5856">
        <ele>381.7799987793</ele>
        <time>2024-09-23T10:46:41.000Z</time>
      </trkpt>
      <trkpt lat="42.48662" lon="19.5856">
        <ele>381.29998779297</ele>
        <time>2024-09-23T10:46:42.000Z</time>
      </trkpt>
      <trkpt lat="42.48652" lon="19.58559">
        <ele>380.82000732422</ele>
        <time>2024-09-23T10:46:43.000Z</time>
      </trkpt>
      <trkpt lat="42.48636" lon="19.58554">
        <ele>379.85998535156</ele>
        <time>2024-09-23T10:46:44.000Z</time>
      </trkpt>
      <trkpt lat="42.48632" lon="19.58553">
        <ele>379.85998535156</ele>
        <time>2024-09-23T10:46:45.000Z</time>
      </trkpt>
      <trkpt lat="42.4862" lon="19.58548">
        <ele>378.89999389648</ele>
        <time>2024-09-23T10:46:46.000Z</time>
      </trkpt>
      <trkpt lat="42.48535" lon="19.58489">
        <ele>374.08999633789</ele>
        <time>2024-09-23T10:46:53.000Z</time>
      </trkpt>
      <trkpt lat="42.48528" lon="19.58485">
        <ele>374.08999633789</ele>
        <time>2024-09-23T10:46:54.000Z</time>
      </trkpt>
      <trkpt lat="42.48516" lon="19.58479">
        <ele>373.60998535156</ele>
        <time>2024-09-23T10:46:55.000Z</time>
      </trkpt>
      <trkpt lat="42.48504" lon="19.58477">
        <ele>372.17001342773</ele>
        <time>2024-09-23T10:46:56.000Z</time>
      </trkpt>
      <trkpt lat="42.48467" lon="19.58473">
        <ele>368.32000732422</ele>
        <time>2024-09-23T10:46:58.000Z</time>
      </trkpt>
      <trkpt lat="42.48414" lon="19.58465">
        <ele>363.04000854492</ele>
        <time>2024-09-23T10:47:02.000Z</time>
      </trkpt>
      <trkpt lat="42.484" lon="19.5846">
        <ele>361.10998535156</ele>
        <time>2024-09-23T10:47:03.000Z</time>
      </trkpt>
      <trkpt lat="42.48386" lon="19.58451">
        <ele>359.19000244141</ele>
        <time>2024-09-23T10:47:04.000Z</time>
      </trkpt>
      <trkpt lat="42.48307" lon="19.58377">
        <ele>356.30999755859</ele>
        <time>2024-09-23T10:47:10.000Z</time>
      </trkpt>
      <trkpt lat="42.48297" lon="19.58364">
        <ele>355.82998657227</ele>
        <time>2024-09-23T10:47:11.000Z</time>
      </trkpt>
      <trkpt lat="42.48245" lon="19.58281">
        <ele>357.75</ele>
        <time>2024-09-23T10:47:16.000Z</time>
      </trkpt>
      <trkpt lat="42.48243" lon="19.58278">
        <ele>357.75</ele>
        <time>2024-09-23T10:47:17.000Z</time>
      </trkpt>
      <trkpt lat="42.48234" lon="19.58267">
        <ele>357.75</ele>
        <time>2024-09-23T10:47:18.000Z</time>
      </trkpt>
      <trkpt lat="42.48156" lon="19.58198">
        <ele>354.38000488281</ele>
        <time>2024-09-23T10:47:25.000Z</time>
      </trkpt>
      <trkpt lat="42.48152" lon="19.58195">
        <ele>353.89999389648</ele>
        <time>2024-09-23T10:47:26.000Z</time>
      </trkpt>
      <trkpt lat="42.48142" lon="19.5819">
        <ele>353.42001342773</ele>
        <time>2024-09-23T10:47:27.000Z</time>
      </trkpt>
      <trkpt lat="42.48131" lon="19.58187">
        <ele>352.45999145508</ele>
        <time>2024-09-23T10:47:28.000Z</time>
      </trkpt>
      <trkpt lat="42.48121" lon="19.58188">
        <ele>351.5</ele>
        <time>2024-09-23T10:47:29.000Z</time>
      </trkpt>
      <trkpt lat="42.48111" lon="19.58193">
        <ele>350.54000854492</ele>
        <time>2024-09-23T10:47:30.000Z</time>
      </trkpt>
      <trkpt lat="42.48095" lon="19.58204">
        <ele>349.10000610352</ele>
        <time>2024-09-23T10:47:31.000Z</time>
      </trkpt>
      <trkpt lat="42.48091" lon="19.58207">
        <ele>349.10000610352</ele>
        <time>2024-09-23T10:47:32.000Z</time>
      </trkpt>
      <trkpt lat="42.48084" lon="19.58215">
        <ele>348.13000488281</ele>
        <time>2024-09-23T10:47:33.000Z</time>
      </trkpt>
      <trkpt lat="42.48078" lon="19.58224">
        <ele>348.13000488281</ele>
        <time>2024-09-23T10:47:34.000Z</time>
      </trkpt>
      <trkpt lat="42.48075" lon="19.58234">
        <ele>347.17001342773</ele>
        <time>2024-09-23T10:47:35.000Z</time>
      </trkpt>
      <trkpt lat="42.48076" lon="19.58245">
        <ele>346.69000244141</ele>
        <time>2024-09-23T10:47:36.000Z</time>
      </trkpt>
      <trkpt lat="42.48082" lon="19.58255">
        <ele>346.20999145508</ele>
        <time>2024-09-23T10:47:37.000Z</time>
      </trkpt>
      <trkpt lat="42.48085" lon="19.58266">
        <ele>346.20999145508</ele>
        <time>2024-09-23T10:47:38.000Z</time>
      </trkpt>
      <trkpt lat="42.48086" lon="19.58277">
        <ele>345.73001098633</ele>
        <time>2024-09-23T10:47:39.000Z</time>
      </trkpt>
      <trkpt lat="42.48084" lon="19.5829">
        <ele>345.25</ele>
        <time>2024-09-23T10:47:40.000Z</time>
      </trkpt>
      <trkpt lat="42.48079" lon="19.583">
        <ele>344.29000854492</ele>
        <time>2024-09-23T10:47:41.000Z</time>
      </trkpt>
      <trkpt lat="42.48071" lon="19.58307">
        <ele>343.32998657227</ele>
        <time>2024-09-23T10:47:42.000Z</time>
      </trkpt>
      <trkpt lat="42.48063" lon="19.58311">
        <ele>342.36999511719</ele>
        <time>2024-09-23T10:47:43.000Z</time>
      </trkpt>
      <trkpt lat="42.48054" lon="19.58312">
        <ele>341.41000366211</ele>
        <time>2024-09-23T10:47:44.000Z</time>
      </trkpt>
      <trkpt lat="42.48044" lon="19.58311">
        <ele>340.92001342773</ele>
        <time>2024-09-23T10:47:45.000Z</time>
      </trkpt>
      <trkpt lat="42.48015" lon="19.58302">
        <ele>340.92001342773</ele>
        <time>2024-09-23T10:47:48.000Z</time>
      </trkpt>
      <trkpt lat="42.48004" lon="19.58297">
        <ele>340.92001342773</ele>
        <time>2024-09-23T10:47:49.000Z</time>
      </trkpt>
      <trkpt lat="42.47954" lon="19.58276">
        <ele>340.92001342773</ele>
        <time>2024-09-23T10:47:53.000Z</time>
      </trkpt>
      <trkpt lat="42.47944" lon="19.5827">
        <ele>340.92001342773</ele>
        <time>2024-09-23T10:47:54.000Z</time>
      </trkpt>
      <trkpt lat="42.47926" lon="19.58263">
        <ele>340.92001342773</ele>
        <time>2024-09-23T10:47:56.000Z</time>
      </trkpt>
      <trkpt lat="42.47894" lon="19.58253">
        <ele>341.41000366211</ele>
        <time>2024-09-23T10:47:58.000Z</time>
      </trkpt>
      <trkpt lat="42.47892" lon="19.58252">
        <ele>341.41000366211</ele>
        <time>2024-09-23T10:47:59.000Z</time>
      </trkpt>
      <trkpt lat="42.47882" lon="19.58248">
        <ele>341.41000366211</ele>
        <time>2024-09-23T10:48:00.000Z</time>
      </trkpt>
      <trkpt lat="42.47871" lon="19.58242">
        <ele>341.89001464844</ele>
        <time>2024-09-23T10:48:01.000Z</time>
      </trkpt>
      <trkpt lat="42.47862" lon="19.58235">
        <ele>340.92001342773</ele>
        <time>2024-09-23T10:48:02.000Z</time>
      </trkpt>
      <trkpt lat="42.47854" lon="19.58226">
        <ele>340.92001342773</ele>
        <time>2024-09-23T10:48:03.000Z</time>
      </trkpt>
      <trkpt lat="42.47847" lon="19.58216">
        <ele>341.41000366211</ele>
        <time>2024-09-23T10:48:04.000Z</time>
      </trkpt>
      <trkpt lat="42.47841" lon="19.58206">
        <ele>341.41000366211</ele>
        <time>2024-09-23T10:48:05.000Z</time>
      </trkpt>
      <trkpt lat="42.47837" lon="19.58196">
        <ele>341.41000366211</ele>
        <time>2024-09-23T10:48:06.000Z</time>
      </trkpt>
      <trkpt lat="42.47836" lon="19.58181">
        <ele>341.41000366211</ele>
        <time>2024-09-23T10:48:07.000Z</time>
      </trkpt>
      <trkpt lat="42.47836" lon="19.58169">
        <ele>341.89001464844</ele>
        <time>2024-09-23T10:48:08.000Z</time>
      </trkpt>
      <trkpt lat="42.47836" lon="19.58158">
        <ele>341.41000366211</ele>
        <time>2024-09-23T10:48:09.000Z</time>
      </trkpt>
      <trkpt lat="42.47835" lon="19.5815">
        <ele>340.44000244141</ele>
        <time>2024-09-23T10:48:10.000Z</time>
      </trkpt>
      <trkpt lat="42.47835" lon="19.58138">
        <ele>339.48001098633</ele>
        <time>2024-09-23T10:48:11.000Z</time>
      </trkpt>
      <trkpt lat="42.47835" lon="19.58124">
        <ele>339.95999145508</ele>
        <time>2024-09-23T10:48:12.000Z</time>
      </trkpt>
      <trkpt lat="42.47835" lon="19.58116">
        <ele>340.44000244141</ele>
        <time>2024-09-23T10:48:13.000Z</time>
      </trkpt>
      <trkpt lat="42.47836" lon="19.58107">
        <ele>340.44000244141</ele>
        <time>2024-09-23T10:48:14.000Z</time>
      </trkpt>
      <trkpt lat="42.47837" lon="19.581">
        <ele>339.95999145508</ele>
        <time>2024-09-23T10:48:15.000Z</time>
      </trkpt>
      <trkpt lat="42.47798" lon="19.58015">
        <ele>346.20999145508</ele>
        <time>2024-09-23T11:46:36.000Z</time>
      </trkpt>
      <trkpt lat="42.47795" lon="19.5801">
        <ele>346.20999145508</ele>
        <time>2024-09-23T11:46:37.000Z</time>
      </trkpt>
      <trkpt lat="42.47787" lon="19.57996">
        <ele>345.73001098633</ele>
        <time>2024-09-23T11:46:38.000Z</time>
      </trkpt>
      <trkpt lat="42.47778" lon="19.57985">
        <ele>345.73001098633</ele>
        <time>2024-09-23T11:46:40.000Z</time>
      </trkpt>
      <trkpt lat="42.4777" lon="19.57977">
        <ele>345.73001098633</ele>
        <time>2024-09-23T11:46:41.000Z</time>
      </trkpt>
      <trkpt lat="42.4776" lon="19.5797">
        <ele>346.20999145508</ele>
        <time>2024-09-23T11:46:42.000Z</time>
      </trkpt>
      <trkpt lat="42.47733" lon="19.57957">
        <ele>346.20999145508</ele>
        <time>2024-09-23T11:46:44.000Z</time>
      </trkpt>
      <trkpt lat="42.47723" lon="19.57951">
        <ele>346.20999145508</ele>
        <time>2024-09-23T11:46:45.000Z</time>
      </trkpt>
      <trkpt lat="42.47713" lon="19.57947">
        <ele>346.20999145508</ele>
        <time>2024-09-23T11:46:46.000Z</time>
      </trkpt>
      <trkpt lat="42.47699" lon="19.57942">
        <ele>345.73001098633</ele>
        <time>2024-09-23T11:46:47.000Z</time>
      </trkpt>
      <trkpt lat="42.47688" lon="19.5794">
        <ele>345.25</ele>
        <time>2024-09-23T11:46:48.000Z</time>
      </trkpt>
      <trkpt lat="42.47673" lon="19.57938">
        <ele>344.29000854492</ele>
        <time>2024-09-23T11:46:49.000Z</time>
      </trkpt>
      <trkpt lat="42.47665" lon="19.57937">
        <ele>344.29000854492</ele>
        <time>2024-09-23T11:46:50.000Z</time>
      </trkpt>
      <trkpt lat="42.47661" lon="19.57936">
        <ele>343.80999755859</ele>
        <time>2024-09-23T11:46:51.000Z</time>
      </trkpt>
      <trkpt lat="42.4765" lon="19.57932">
        <ele>343.32998657227</ele>
        <time>2024-09-23T11:46:52.000Z</time>
      </trkpt>
      <trkpt lat="42.47636" lon="19.57925">
        <ele>342.85000610352</ele>
        <time>2024-09-23T11:46:53.000Z</time>
      </trkpt>
      <trkpt lat="42.47626" lon="19.5792">
        <ele>342.36999511719</ele>
        <time>2024-09-23T11:46:54.000Z</time>
      </trkpt>
      <trkpt lat="42.47618" lon="19.57914">
        <ele>341.89001464844</ele>
        <time>2024-09-23T11:46:55.000Z</time>
      </trkpt>
      <trkpt lat="42.47608" lon="19.57905">
        <ele>341.41000366211</ele>
        <time>2024-09-23T11:46:56.000Z</time>
      </trkpt>
      <trkpt lat="42.47597" lon="19.57891">
        <ele>340.44000244141</ele>
        <time>2024-09-23T11:46:57.000Z</time>
      </trkpt>
      <trkpt lat="42.47555" lon="19.57823">
        <ele>334.67999267578</ele>
        <time>2024-09-23T11:47:01.000Z</time>
      </trkpt>
      <trkpt lat="42.47548" lon="19.57815">
        <ele>334.20001220703</ele>
        <time>2024-09-23T11:47:02.000Z</time>
      </trkpt>
      <trkpt lat="42.47487" lon="19.57747">
        <ele>330.82998657227</ele>
        <time>2024-09-23T11:47:07.000Z</time>
      </trkpt>
      <trkpt lat="42.4748" lon="19.5774">
        <ele>329.86999511719</ele>
        <time>2024-09-23T11:47:08.000Z</time>
      </trkpt>
      <trkpt lat="42.4747" lon="19.57732">
        <ele>328.91000366211</ele>
        <time>2024-09-23T11:47:09.000Z</time>
      </trkpt>
      <trkpt lat="42.47459" lon="19.57721">
        <ele>327.95001220703</ele>
        <time>2024-09-23T11:47:10.000Z</time>
      </trkpt>
      <trkpt lat="42.47447" lon="19.57709">
        <ele>326.5</ele>
        <time>2024-09-23T11:47:11.000Z</time>
      </trkpt>
      <trkpt lat="42.47441" lon="19.57701">
        <ele>325.05999755859</ele>
        <time>2024-09-23T11:47:12.000Z</time>
      </trkpt>
      <trkpt lat="42.47433" lon="19.57688">
        <ele>324.10000610352</ele>
        <time>2024-09-23T11:47:13.000Z</time>
      </trkpt>
      <trkpt lat="42.47427" lon="19.57672">
        <ele>323.14001464844</ele>
        <time>2024-09-23T11:47:14.000Z</time>
      </trkpt>
      <trkpt lat="42.47421" lon="19.5765">
        <ele>322.17999267578</ele>
        <time>2024-09-23T11:47:15.000Z</time>
      </trkpt>
      <trkpt lat="42.47415" lon="19.57608">
        <ele>320.73999023438</ele>
        <time>2024-09-23T11:47:17.000Z</time>
      </trkpt>
      <trkpt lat="42.47408" lon="19.57532">
        <ele>318.80999755859</ele>
        <time>2024-09-23T11:47:21.000Z</time>
      </trkpt>
      <trkpt lat="42.47407" lon="19.57521">
        <ele>318.80999755859</ele>
        <time>2024-09-23T11:47:22.000Z</time>
      </trkpt>
      <trkpt lat="42.47404" lon="19.57508">
        <ele>318.32998657227</ele>
        <time>2024-09-23T11:47:23.000Z</time>
      </trkpt>
      <trkpt lat="42.47366" lon="19.57395">
        <ele>318.32998657227</ele>
        <time>2024-09-23T11:47:29.000Z</time>
      </trkpt>
      <trkpt lat="42.47362" lon="19.57383">
        <ele>318.32998657227</ele>
        <time>2024-09-23T11:47:30.000Z</time>
      </trkpt>
      <trkpt lat="42.47357" lon="19.57369">
        <ele>317.85000610352</ele>
        <time>2024-09-23T11:47:31.000Z</time>
      </trkpt>
      <trkpt lat="42.4735" lon="19.57351">
        <ele>317.85000610352</ele>
        <time>2024-09-23T11:47:32.000Z</time>
      </trkpt>
      <trkpt lat="42.47345" lon="19.57337">
        <ele>317.36999511719</ele>
        <time>2024-09-23T11:47:33.000Z</time>
      </trkpt>
      <trkpt lat="42.47339" lon="19.57325">
        <ele>317.85000610352</ele>
        <time>2024-09-23T11:47:34.000Z</time>
      </trkpt>
      <trkpt lat="42.47332" lon="19.5731">
        <ele>317.85000610352</ele>
        <time>2024-09-23T11:47:35.000Z</time>
      </trkpt>
      <trkpt lat="42.47328" lon="19.573">
        <ele>317.85000610352</ele>
        <time>2024-09-23T11:47:36.000Z</time>
      </trkpt>
      <trkpt lat="42.47324" lon="19.57287">
        <ele>317.85000610352</ele>
        <time>2024-09-23T11:47:37.000Z</time>
      </trkpt>
      <trkpt lat="42.47322" lon="19.57271">
        <ele>318.32998657227</ele>
        <time>2024-09-23T11:47:38.000Z</time>
      </trkpt>
      <trkpt lat="42.4732" lon="19.57254">
        <ele>317.85000610352</ele>
        <time>2024-09-23T11:47:39.000Z</time>
      </trkpt>
      <trkpt lat="42.47319" lon="19.57245">
        <ele>317.36999511719</ele>
        <time>2024-09-23T11:47:40.000Z</time>
      </trkpt>
      <trkpt lat="42.47316" lon="19.57235">
        <ele>316.41000366211</ele>
        <time>2024-09-23T11:47:41.000Z</time>
      </trkpt>
      <trkpt lat="42.47311" lon="19.57226">
        <ele>314.9700012207</ele>
        <time>2024-09-23T11:47:42.000Z</time>
      </trkpt>
      <trkpt lat="42.47305" lon="19.57216">
        <ele>314.01000976562</ele>
        <time>2024-09-23T11:47:43.000Z</time>
      </trkpt>
      <trkpt lat="42.47282" lon="19.57187">
        <ele>310.16000366211</ele>
        <time>2024-09-23T11:47:46.000Z</time>
      </trkpt>
      <trkpt lat="42.47279" lon="19.57181">
        <ele>309.67999267578</ele>
        <time>2024-09-23T11:47:47.000Z</time>
      </trkpt>
      <trkpt lat="42.47268" lon="19.57162">
        <ele>308.7200012207</ele>
        <time>2024-09-23T11:47:48.000Z</time>
      </trkpt>
      <trkpt lat="42.47252" lon="19.57124">
        <ele>306.79998779297</ele>
        <time>2024-09-23T11:47:51.000Z</time>
      </trkpt>
      <trkpt lat="42.47247" lon="19.57106">
        <ele>305.83999633789</ele>
        <time>2024-09-23T11:47:52.000Z</time>
      </trkpt>
      <trkpt lat="42.47244" lon="19.57095">
        <ele>305.83999633789</ele>
        <time>2024-09-23T11:47:53.000Z</time>
      </trkpt>
      <trkpt lat="42.47243" lon="19.57092">
        <ele>305.35998535156</ele>
        <time>2024-09-23T11:47:54.000Z</time>
      </trkpt>
      <trkpt lat="42.47239" lon="19.57069">
        <ele>304.88000488281</ele>
        <time>2024-09-23T11:47:56.000Z</time>
      </trkpt>
      <trkpt lat="42.47237" lon="19.57063">
        <ele>304.88000488281</ele>
        <time>2024-09-23T11:47:57.000Z</time>
      </trkpt>
      <trkpt lat="42.47234" lon="19.57049">
        <ele>304.39001464844</ele>
        <time>2024-09-23T11:47:59.000Z</time>
      </trkpt>
      <trkpt lat="42.47233" lon="19.57045">
        <ele>304.39001464844</ele>
        <time>2024-09-23T11:48:00.000Z</time>
      </trkpt>
      <trkpt lat="42.47229" lon="19.57038">
        <ele>303.42999267578</ele>
        <time>2024-09-23T11:48:01.000Z</time>
      </trkpt>
      <trkpt lat="42.47216" lon="19.57017">
        <ele>302.4700012207</ele>
        <time>2024-09-23T11:48:07.000Z</time>
      </trkpt>
      <trkpt lat="42.47204" lon="19.56999">
        <ele>301.51000976562</ele>
        <time>2024-09-23T11:48:10.000Z</time>
      </trkpt>
      <trkpt lat="42.4719" lon="19.56983">
        <ele>302.4700012207</ele>
        <time>2024-09-23T11:48:11.000Z</time>
      </trkpt>
      <trkpt lat="42.47188" lon="19.5698">
        <ele>302.4700012207</ele>
        <time>2024-09-23T11:48:12.000Z</time>
      </trkpt>
      <trkpt lat="42.47179" lon="19.56972">
        <ele>302.95001220703</ele>
        <time>2024-09-23T11:48:13.000Z</time>
      </trkpt>
      <trkpt lat="42.47168" lon="19.56964">
        <ele>303.42999267578</ele>
        <time>2024-09-23T11:48:14.000Z</time>
      </trkpt>
      <trkpt lat="42.47162" lon="19.56961">
        <ele>303.91000366211</ele>
        <time>2024-09-23T11:48:15.000Z</time>
      </trkpt>
      <trkpt lat="42.47152" lon="19.56958">
        <ele>304.88000488281</ele>
        <time>2024-09-23T11:48:16.000Z</time>
      </trkpt>
      <trkpt lat="42.47119" lon="19.56956">
        <ele>308.23999023438</ele>
        <time>2024-09-23T11:48:18.000Z</time>
      </trkpt>
      <trkpt lat="42.47117" lon="19.56956">
        <ele>308.23999023438</ele>
        <time>2024-09-23T11:48:19.000Z</time>
      </trkpt>
      <trkpt lat="42.47106" lon="19.56954">
        <ele>309.20001220703</ele>
        <time>2024-09-23T11:48:20.000Z</time>
      </trkpt>
      <trkpt lat="42.4709" lon="19.56948">
        <ele>310.64001464844</ele>
        <time>2024-09-23T11:48:21.000Z</time>
      </trkpt>
      <trkpt lat="42.46993" lon="19.56892">
        <ele>309.67999267578</ele>
        <time>2024-09-23T11:48:28.000Z</time>
      </trkpt>
      <trkpt lat="42.46878" lon="19.56822">
        <ele>304.39001464844</ele>
        <time>2024-09-23T11:48:36.000Z</time>
      </trkpt>
      <trkpt lat="42.46862" lon="19.56812">
        <ele>304.39001464844</ele>
        <time>2024-09-23T11:48:38.000Z</time>
      </trkpt>
      <trkpt lat="42.4685" lon="19.56806">
        <ele>303.91000366211</ele>
        <time>2024-09-23T11:48:39.000Z</time>
      </trkpt>
      <trkpt lat="42.46827" lon="19.56798">
        <ele>302.4700012207</ele>
        <time>2024-09-23T11:48:40.000Z</time>
      </trkpt>
      <trkpt lat="42.4678" lon="19.56784">
        <ele>299.58999633789</ele>
        <time>2024-09-23T11:48:43.000Z</time>
      </trkpt>
      <trkpt lat="42.46769" lon="19.5678">
        <ele>299.10998535156</ele>
        <time>2024-09-23T11:48:44.000Z</time>
      </trkpt>
      <trkpt lat="42.46763" lon="19.56778">
        <ele>298.63000488281</ele>
        <time>2024-09-23T11:48:45.000Z</time>
      </trkpt>
      <trkpt lat="42.4674" lon="19.56764">
        <ele>297.17999267578</ele>
        <time>2024-09-23T11:48:47.000Z</time>
      </trkpt>
      <trkpt lat="42.46728" lon="19.56753">
        <ele>296.2200012207</ele>
        <time>2024-09-23T11:48:48.000Z</time>
      </trkpt>
      <trkpt lat="42.46689" lon="19.56702">
        <ele>293.33999633789</ele>
        <time>2024-09-23T11:48:51.000Z</time>
      </trkpt>
      <trkpt lat="42.46667" lon="19.56677">
        <ele>291.89999389648</ele>
        <time>2024-09-23T11:48:52.000Z</time>
      </trkpt>
      <trkpt lat="42.46665" lon="19.56674">
        <ele>291.89999389648</ele>
        <time>2024-09-23T11:48:53.000Z</time>
      </trkpt>
      <trkpt lat="42.46655" lon="19.56661">
        <ele>290.45999145508</ele>
        <time>2024-09-23T11:48:54.000Z</time>
      </trkpt>
      <trkpt lat="42.46648" lon="19.56647">
        <ele>288.5299987793</ele>
        <time>2024-09-23T11:48:55.000Z</time>
      </trkpt>
      <trkpt lat="42.46643" lon="19.5663">
        <ele>287.57000732422</ele>
        <time>2024-09-23T11:48:56.000Z</time>
      </trkpt>
      <trkpt lat="42.46638" lon="19.56609">
        <ele>287.08999633789</ele>
        <time>2024-09-23T11:48:57.000Z</time>
      </trkpt>
      <trkpt lat="42.46637" lon="19.56596">
        <ele>286.13000488281</ele>
        <time>2024-09-23T11:48:58.000Z</time>
      </trkpt>
      <trkpt lat="42.46639" lon="19.56578">
        <ele>285.64999389648</ele>
        <time>2024-09-23T11:48:59.000Z</time>
      </trkpt>
      <trkpt lat="42.46642" lon="19.56558">
        <ele>285.17001342773</ele>
        <time>2024-09-23T11:49:00.000Z</time>
      </trkpt>
      <trkpt lat="42.46643" lon="19.56545">
        <ele>284.69000244141</ele>
        <time>2024-09-23T11:49:01.000Z</time>
      </trkpt>
      <trkpt lat="42.46642" lon="19.5653">
        <ele>284.20999145508</ele>
        <time>2024-09-23T11:49:02.000Z</time>
      </trkpt>
      <trkpt lat="42.46639" lon="19.56515">
        <ele>283.73001098633</ele>
        <time>2024-09-23T11:49:03.000Z</time>
      </trkpt>
      <trkpt lat="42.46634" lon="19.56504">
        <ele>283.73001098633</ele>
        <time>2024-09-23T11:49:04.000Z</time>
      </trkpt>
      <trkpt lat="42.46626" lon="19.56493">
        <ele>283.25</ele>
        <time>2024-09-23T11:49:05.000Z</time>
      </trkpt>
      <trkpt lat="42.46569" lon="19.56446">
        <ele>277.95999145508</ele>
        <time>2024-09-23T11:49:10.000Z</time>
      </trkpt>
      <trkpt lat="42.46557" lon="19.56435">
        <ele>276.51998901367</ele>
        <time>2024-09-23T11:49:11.000Z</time>
      </trkpt>
      <trkpt lat="42.46547" lon="19.56423">
        <ele>276.04000854492</ele>
        <time>2024-09-23T11:49:12.000Z</time>
      </trkpt>
      <trkpt lat="42.46529" lon="19.56396">
        <ele>274.10998535156</ele>
        <time>2024-09-23T11:49:13.000Z</time>
      </trkpt>
      <trkpt lat="42.46523" lon="19.56385">
        <ele>273.63000488281</ele>
        <time>2024-09-23T11:49:14.000Z</time>
      </trkpt>
      <trkpt lat="42.46519" lon="19.56377">
        <ele>273.14999389648</ele>
        <time>2024-09-23T11:49:15.000Z</time>
      </trkpt>
      <trkpt lat="42.46502" lon="19.56339">
        <ele>271.70999145508</ele>
        <time>2024-09-23T11:49:17.000Z</time>
      </trkpt>
      <trkpt lat="42.4645" lon="19.56253">
        <ele>267.85998535156</ele>
        <time>2024-09-23T11:49:24.000Z</time>
      </trkpt>
      <trkpt lat="42.46411" lon="19.56212">
        <ele>264.98001098633</ele>
        <time>2024-09-23T11:49:29.000Z</time>
      </trkpt>
      <trkpt lat="42.4641" lon="19.56211">
        <ele>264.98001098633</ele>
        <time>2024-09-23T11:49:30.000Z</time>
      </trkpt>
      <trkpt lat="42.46402" lon="19.56205">
        <ele>264.98001098633</ele>
        <time>2024-09-23T11:49:31.000Z</time>
      </trkpt>
      <trkpt lat="42.4639" lon="19.56199">
        <ele>264.01998901367</ele>
        <time>2024-09-23T11:49:32.000Z</time>
      </trkpt>
      <trkpt lat="42.46383" lon="19.56195">
        <ele>263.54000854492</ele>
        <time>2024-09-23T11:49:33.000Z</time>
      </trkpt>
      <trkpt lat="42.46376" lon="19.56193">
        <ele>263.05999755859</ele>
        <time>2024-09-23T11:49:34.000Z</time>
      </trkpt>
      <trkpt lat="42.46357" lon="19.56192">
        <ele>261.61999511719</ele>
        <time>2024-09-23T11:49:36.000Z</time>
      </trkpt>
      <trkpt lat="42.46348" lon="19.56192">
        <ele>261.14001464844</ele>
        <time>2024-09-23T11:49:37.000Z</time>
      </trkpt>
      <trkpt lat="42.46328" lon="19.56195">
        <ele>260.17001342773</ele>
        <time>2024-09-23T11:49:39.000Z</time>
      </trkpt>
      <trkpt lat="42.4628" lon="19.56196">
        <ele>257.76998901367</ele>
        <time>2024-09-23T11:49:44.000Z</time>
      </trkpt>
      <trkpt lat="42.46272" lon="19.56195">
        <ele>257.29000854492</ele>
        <time>2024-09-23T11:49:45.000Z</time>
      </trkpt>
      <trkpt lat="42.46262" lon="19.56192">
        <ele>257.29000854492</ele>
        <time>2024-09-23T11:49:46.000Z</time>
      </trkpt>
      <trkpt lat="42.46251" lon="19.56185">
        <ele>256.80999755859</ele>
        <time>2024-09-23T11:49:47.000Z</time>
      </trkpt>
      <trkpt lat="42.46221" lon="19.56166">
        <ele>255.36999511719</ele>
        <time>2024-09-23T11:49:50.000Z</time>
      </trkpt>
      <trkpt lat="42.46203" lon="19.5615">
        <ele>254.41000366211</ele>
        <time>2024-09-23T11:49:52.000Z</time>
      </trkpt>
      <trkpt lat="42.46193" lon="19.56143">
        <ele>253.92999267578</ele>
        <time>2024-09-23T11:49:53.000Z</time>
      </trkpt>
      <trkpt lat="42.46182" lon="19.56138">
        <ele>253.44000244141</ele>
        <time>2024-09-23T11:49:54.000Z</time>
      </trkpt>
      <trkpt lat="42.46161" lon="19.56132">
        <ele>252.96000671387</ele>
        <time>2024-09-23T11:49:55.000Z</time>
      </trkpt>
      <trkpt lat="42.46049" lon="19.56129">
        <ele>246.7200012207</ele>
        <time>2024-09-23T11:50:04.000Z</time>
      </trkpt>
      <trkpt lat="42.46039" lon="19.56128">
        <ele>245.75</ele>
        <time>2024-09-23T11:50:05.000Z</time>
      </trkpt>
      <trkpt lat="42.46023" lon="19.56124">
        <ele>244.30999755859</ele>
        <time>2024-09-23T11:50:06.000Z</time>
      </trkpt>
      <trkpt lat="42.45973" lon="19.56104">
        <ele>242.38999938965</ele>
        <time>2024-09-23T11:50:09.000Z</time>
      </trkpt>
      <trkpt lat="42.45956" lon="19.56099">
        <ele>242.38999938965</ele>
        <time>2024-09-23T11:50:10.000Z</time>
      </trkpt>
      <trkpt lat="42.45861" lon="19.56095">
        <ele>242.86999511719</ele>
        <time>2024-09-23T11:50:15.000Z</time>
      </trkpt>
      <trkpt lat="42.45855" lon="19.56096">
        <ele>243.35000610352</ele>
        <time>2024-09-23T11:50:16.000Z</time>
      </trkpt>
      <trkpt lat="42.4584" lon="19.56101">
        <ele>243.35000610352</ele>
        <time>2024-09-23T11:50:17.000Z</time>
      </trkpt>
      <trkpt lat="42.45812" lon="19.56112">
        <ele>243.35000610352</ele>
        <time>2024-09-23T11:50:18.000Z</time>
      </trkpt>
      <trkpt lat="42.45809" lon="19.56114">
        <ele>243.35000610352</ele>
        <time>2024-09-23T11:50:19.000Z</time>
      </trkpt>
      <trkpt lat="42.45737" lon="19.56127">
        <ele>242.38999938965</ele>
        <time>2024-09-23T11:50:23.000Z</time>
      </trkpt>
      <trkpt lat="42.45731" lon="19.56127">
        <ele>241.91000366211</ele>
        <time>2024-09-23T11:50:24.000Z</time>
      </trkpt>
      <trkpt lat="42.45717" lon="19.56126">
        <ele>241.42999267578</ele>
        <time>2024-09-23T11:50:25.000Z</time>
      </trkpt>
      <trkpt lat="42.45702" lon="19.56121">
        <ele>240.4700012207</ele>
        <time>2024-09-23T11:50:26.000Z</time>
      </trkpt>
      <trkpt lat="42.45689" lon="19.56113">
        <ele>239.50999450684</ele>
        <time>2024-09-23T11:50:27.000Z</time>
      </trkpt>
      <trkpt lat="42.45675" lon="19.56102">
        <ele>238.53999328613</ele>
        <time>2024-09-23T11:50:28.000Z</time>
      </trkpt>
      <trkpt lat="42.45665" lon="19.56096">
        <ele>238.05999755859</ele>
        <time>2024-09-23T11:50:29.000Z</time>
      </trkpt>
      <trkpt lat="42.45652" lon="19.56091">
        <ele>237.58000183105</ele>
        <time>2024-09-23T11:50:30.000Z</time>
      </trkpt>
      <trkpt lat="42.45638" lon="19.56089">
        <ele>236.61999511719</ele>
        <time>2024-09-23T11:50:31.000Z</time>
      </trkpt>
      <trkpt lat="42.45622" lon="19.56089">
        <ele>236.13999938965</ele>
        <time>2024-09-23T11:50:32.000Z</time>
      </trkpt>
      <trkpt lat="42.45557" lon="19.56086">
        <ele>234.2200012207</ele>
        <time>2024-09-23T11:50:36.000Z</time>
      </trkpt>
      <trkpt lat="42.45555" lon="19.56085">
        <ele>234.2200012207</ele>
        <time>2024-09-23T11:50:37.000Z</time>
      </trkpt>
      <trkpt lat="42.45544" lon="19.56087">
        <ele>233.74000549316</ele>
        <time>2024-09-23T11:50:38.000Z</time>
      </trkpt>
      <trkpt lat="42.45535" lon="19.56092">
        <ele>233.25999450684</ele>
        <time>2024-09-23T11:50:39.000Z</time>
      </trkpt>
      <trkpt lat="42.45528" lon="19.561">
        <ele>233.74000549316</ele>
        <time>2024-09-23T11:50:40.000Z</time>
      </trkpt>
      <trkpt lat="42.45523" lon="19.56111">
        <ele>233.25999450684</ele>
        <time>2024-09-23T11:50:41.000Z</time>
      </trkpt>
      <trkpt lat="42.45516" lon="19.5612">
        <ele>233.74000549316</ele>
        <time>2024-09-23T11:50:42.000Z</time>
      </trkpt>
      <trkpt lat="42.45507" lon="19.56126">
        <ele>233.25999450684</ele>
        <time>2024-09-23T11:50:43.000Z</time>
      </trkpt>
      <trkpt lat="42.45497" lon="19.56128">
        <ele>233.74000549316</ele>
        <time>2024-09-23T11:50:44.000Z</time>
      </trkpt>
      <trkpt lat="42.45486" lon="19.56128">
        <ele>234.2200012207</ele>
        <time>2024-09-23T11:50:45.000Z</time>
      </trkpt>
      <trkpt lat="42.45471" lon="19.56125">
        <ele>234.2200012207</ele>
        <time>2024-09-23T11:50:46.000Z</time>
      </trkpt>
      <trkpt lat="42.45464" lon="19.56122">
        <ele>234.2200012207</ele>
        <time>2024-09-23T11:50:47.000Z</time>
      </trkpt>
      <trkpt lat="42.45453" lon="19.56117">
        <ele>233.74000549316</ele>
        <time>2024-09-23T11:50:48.000Z</time>
      </trkpt>
      <trkpt lat="42.45443" lon="19.56109">
        <ele>233.74000549316</ele>
        <time>2024-09-23T11:50:49.000Z</time>
      </trkpt>
      <trkpt lat="42.45434" lon="19.56098">
        <ele>233.74000549316</ele>
        <time>2024-09-23T11:50:50.000Z</time>
      </trkpt>
      <trkpt lat="42.45427" lon="19.56083">
        <ele>234.2200012207</ele>
        <time>2024-09-23T11:50:51.000Z</time>
      </trkpt>
      <trkpt lat="42.45421" lon="19.56065">
        <ele>234.2200012207</ele>
        <time>2024-09-23T11:50:52.000Z</time>
      </trkpt>
      <trkpt lat="42.45412" lon="19.56031">
        <ele>234.69999694824</ele>
        <time>2024-09-23T11:50:53.000Z</time>
      </trkpt>
      <trkpt lat="42.45409" lon="19.56019">
        <ele>235.17999267578</ele>
        <time>2024-09-23T11:50:54.000Z</time>
      </trkpt>
      <trkpt lat="42.45404" lon="19.56004">
        <ele>236.13999938965</ele>
        <time>2024-09-23T11:50:55.000Z</time>
      </trkpt>
      <trkpt lat="42.45395" lon="19.55984">
        <ele>237.58000183105</ele>
        <time>2024-09-23T11:50:56.000Z</time>
      </trkpt>
      <trkpt lat="42.45382" lon="19.55959">
        <ele>239.02000427246</ele>
        <time>2024-09-23T11:50:57.000Z</time>
      </trkpt>
      <trkpt lat="42.45371" lon="19.55942">
        <ele>239.99000549316</ele>
        <time>2024-09-23T11:50:58.000Z</time>
      </trkpt>
      <trkpt lat="42.45367" lon="19.55936">
        <ele>240.4700012207</ele>
        <time>2024-09-23T11:50:59.000Z</time>
      </trkpt>
      <trkpt lat="42.45359" lon="19.55919">
        <ele>241.42999267578</ele>
        <time>2024-09-23T11:51:00.000Z</time>
      </trkpt>
      <trkpt lat="42.45354" lon="19.559">
        <ele>242.38999938965</ele>
        <time>2024-09-23T11:51:01.000Z</time>
      </trkpt>
      <trkpt lat="42.45349" lon="19.55879">
        <ele>242.38999938965</ele>
        <time>2024-09-23T11:51:02.000Z</time>
      </trkpt>
      <trkpt lat="42.45342" lon="19.5584">
        <ele>242.86999511719</ele>
        <time>2024-09-23T11:51:04.000Z</time>
      </trkpt>
      <trkpt lat="42.45341" lon="19.5582">
        <ele>243.35000610352</ele>
        <time>2024-09-23T11:51:05.000Z</time>
      </trkpt>
      <trkpt lat="42.45341" lon="19.558">
        <ele>243.35000610352</ele>
        <time>2024-09-23T11:51:06.000Z</time>
      </trkpt>
      <trkpt lat="42.45356" lon="19.55692">
        <ele>244.78999328613</ele>
        <time>2024-09-23T11:51:11.000Z</time>
      </trkpt>
      <trkpt lat="42.45357" lon="19.55679">
        <ele>244.78999328613</ele>
        <time>2024-09-23T11:51:12.000Z</time>
      </trkpt>
      <trkpt lat="42.45357" lon="19.55658">
        <ele>243.83000183105</ele>
        <time>2024-09-23T11:51:13.000Z</time>
      </trkpt>
      <trkpt lat="42.45355" lon="19.5563">
        <ele>242.38999938965</ele>
        <time>2024-09-23T11:51:14.000Z</time>
      </trkpt>
      <trkpt lat="42.45352" lon="19.55607">
        <ele>241.42999267578</ele>
        <time>2024-09-23T11:51:15.000Z</time>
      </trkpt>
      <trkpt lat="42.45348" lon="19.55583">
        <ele>240.4700012207</ele>
        <time>2024-09-23T11:51:16.000Z</time>
      </trkpt>
      <trkpt lat="42.45302" lon="19.55406">
        <ele>232.7799987793</ele>
        <time>2024-09-23T11:51:23.000Z</time>
      </trkpt>
      <trkpt lat="42.45297" lon="19.55384">
        <ele>232.30000305176</ele>
        <time>2024-09-23T11:51:24.000Z</time>
      </trkpt>
      <trkpt lat="42.45289" lon="19.55327">
        <ele>231.80999755859</ele>
        <time>2024-09-23T11:51:26.000Z</time>
      </trkpt>
      <trkpt lat="42.45288" lon="19.5532">
        <ele>231.80999755859</ele>
        <time>2024-09-23T11:51:27.000Z</time>
      </trkpt>
      <trkpt lat="42.45284" lon="19.55301">
        <ele>231.80999755859</ele>
        <time>2024-09-23T11:51:28.000Z</time>
      </trkpt>
      <trkpt lat="42.45276" lon="19.55278">
        <ele>232.30000305176</ele>
        <time>2024-09-23T11:51:29.000Z</time>
      </trkpt>
      <trkpt lat="42.45224" lon="19.55143">
        <ele>232.30000305176</ele>
        <time>2024-09-23T11:51:35.000Z</time>
      </trkpt>
      <trkpt lat="42.45214" lon="19.55124">
        <ele>232.7799987793</ele>
        <time>2024-09-23T11:51:36.000Z</time>
      </trkpt>
      <trkpt lat="42.45201" lon="19.55103">
        <ele>232.7799987793</ele>
        <time>2024-09-23T11:51:37.000Z</time>
      </trkpt>
      <trkpt lat="42.45087" lon="19.54978">
        <ele>233.74000549316</ele>
        <time>2024-09-23T11:51:44.000Z</time>
      </trkpt>
      <trkpt lat="42.4508" lon="19.54973">
        <ele>233.25999450684</ele>
        <time>2024-09-23T11:51:45.000Z</time>
      </trkpt>
      <trkpt lat="42.45067" lon="19.54955">
        <ele>232.7799987793</ele>
        <time>2024-09-23T11:51:46.000Z</time>
      </trkpt>
      <trkpt lat="42.45044" lon="19.54914">
        <ele>231.33000183105</ele>
        <time>2024-09-23T11:51:48.000Z</time>
      </trkpt>
      <trkpt lat="42.45034" lon="19.54901">
        <ele>230.36999511719</ele>
        <time>2024-09-23T11:51:49.000Z</time>
      </trkpt>
      <trkpt lat="42.45021" lon="19.54888">
        <ele>229.88999938965</ele>
        <time>2024-09-23T11:51:50.000Z</time>
      </trkpt>
      <trkpt lat="42.45006" lon="19.54878">
        <ele>229.41000366211</ele>
        <time>2024-09-23T11:51:51.000Z</time>
      </trkpt>
      <trkpt lat="42.4499" lon="19.54871">
        <ele>228.44999694824</ele>
        <time>2024-09-23T11:51:52.000Z</time>
      </trkpt>
      <trkpt lat="42.44974" lon="19.54861">
        <ele>227.9700012207</ele>
        <time>2024-09-23T11:51:53.000Z</time>
      </trkpt>
      <trkpt lat="42.4496" lon="19.54846">
        <ele>227.00999450684</ele>
        <time>2024-09-23T11:51:54.000Z</time>
      </trkpt>
      <trkpt lat="42.44885" lon="19.54735">
        <ele>222.67999267578</ele>
        <time>2024-09-23T11:51:59.000Z</time>
      </trkpt>
      <trkpt lat="42.44773" lon="19.54574">
        <ele>221.7200012207</ele>
        <time>2024-09-23T11:52:07.000Z</time>
      </trkpt>
      <trkpt lat="42.44738" lon="19.54531">
        <ele>221.7200012207</ele>
        <time>2024-09-23T11:52:10.000Z</time>
      </trkpt>
      <trkpt lat="42.4473" lon="19.54519">
        <ele>222.19999694824</ele>
        <time>2024-09-23T11:52:11.000Z</time>
      </trkpt>
      <trkpt lat="42.44612" lon="19.54322">
        <ele>221.24000549316</ele>
        <time>2024-09-23T11:52:20.000Z</time>
      </trkpt>
      <trkpt lat="42.44606" lon="19.54315">
        <ele>220.75999450684</ele>
        <time>2024-09-23T11:52:21.000Z</time>
      </trkpt>
      <trkpt lat="42.44469" lon="19.54178">
        <ele>219.32000732422</ele>
        <time>2024-09-23T11:52:29.000Z</time>
      </trkpt>
      <trkpt lat="42.44448" lon="19.54159">
        <ele>218.83999633789</ele>
        <time>2024-09-23T11:52:31.000Z</time>
      </trkpt>
      <trkpt lat="42.4443" lon="19.54147">
        <ele>218.83999633789</ele>
        <time>2024-09-23T11:52:32.000Z</time>
      </trkpt>
      <trkpt lat="42.44396" lon="19.54128">
        <ele>218.36000061035</ele>
        <time>2024-09-23T11:52:34.000Z</time>
      </trkpt>
      <trkpt lat="42.44381" lon="19.54117">
        <ele>218.36000061035</ele>
        <time>2024-09-23T11:52:35.000Z</time>
      </trkpt>
      <trkpt lat="42.4437" lon="19.54103">
        <ele>217.88000488281</ele>
        <time>2024-09-23T11:52:36.000Z</time>
      </trkpt>
      <trkpt lat="42.4436" lon="19.54087">
        <ele>217.39999389648</ele>
        <time>2024-09-23T11:52:37.000Z</time>
      </trkpt>
      <trkpt lat="42.44351" lon="19.54072">
        <ele>216.91000366211</ele>
        <time>2024-09-23T11:52:38.000Z</time>
      </trkpt>
      <trkpt lat="42.44344" lon="19.54061">
        <ele>216.42999267578</ele>
        <time>2024-09-23T11:52:39.000Z</time>
      </trkpt>
      <trkpt lat="42.44332" lon="19.5405">
        <ele>215.94999694824</ele>
        <time>2024-09-23T11:52:40.000Z</time>
      </trkpt>
      <trkpt lat="42.443" lon="19.54031">
        <ele>215.4700012207</ele>
        <time>2024-09-23T11:52:42.000Z</time>
      </trkpt>
      <trkpt lat="42.44293" lon="19.54025">
        <ele>215.4700012207</ele>
        <time>2024-09-23T11:52:43.000Z</time>
      </trkpt>
      <trkpt lat="42.44282" lon="19.54013">
        <ele>215.4700012207</ele>
        <time>2024-09-23T11:52:44.000Z</time>
      </trkpt>
      <trkpt lat="42.44268" lon="19.53989">
        <ele>214.50999450684</ele>
        <time>2024-09-23T11:52:45.000Z</time>
      </trkpt>
      <trkpt lat="42.44264" lon="19.53983">
        <ele>214.0299987793</ele>
        <time>2024-09-23T11:52:46.000Z</time>
      </trkpt>
      <trkpt lat="42.44154" lon="19.53893">
        <ele>212.58999633789</ele>
        <time>2024-09-23T11:52:53.000Z</time>
      </trkpt>
      <trkpt lat="42.44138" lon="19.53884">
        <ele>212.58999633789</ele>
        <time>2024-09-23T11:52:54.000Z</time>
      </trkpt>
      <trkpt lat="42.4401" lon="19.53842">
        <ele>216.91000366211</ele>
        <time>2024-09-23T11:53:01.000Z</time>
      </trkpt>
      <trkpt lat="42.43988" lon="19.53838">
        <ele>218.83999633789</ele>
        <time>2024-09-23T11:53:02.000Z</time>
      </trkpt>
      <trkpt lat="42.43986" lon="19.53837">
        <ele>218.83999633789</ele>
        <time>2024-09-23T11:53:03.000Z</time>
      </trkpt>
      <trkpt lat="42.43974" lon="19.53838">
        <ele>219.80000305176</ele>
        <time>2024-09-23T11:53:04.000Z</time>
      </trkpt>
      <trkpt lat="42.43964" lon="19.53842">
        <ele>220.2799987793</ele>
        <time>2024-09-23T11:53:05.000Z</time>
      </trkpt>
      <trkpt lat="42.43951" lon="19.53852">
        <ele>221.24000549316</ele>
        <time>2024-09-23T11:53:06.000Z</time>
      </trkpt>
      <trkpt lat="42.43942" lon="19.53857">
        <ele>221.7200012207</ele>
        <time>2024-09-23T11:53:07.000Z</time>
      </trkpt>
      <trkpt lat="42.43929" lon="19.5386">
        <ele>221.7200012207</ele>
        <time>2024-09-23T11:53:08.000Z</time>
      </trkpt>
      <trkpt lat="42.43915" lon="19.53858">
        <ele>221.24000549316</ele>
        <time>2024-09-23T11:53:09.000Z</time>
      </trkpt>
      <trkpt lat="42.43896" lon="19.53851">
        <ele>220.2799987793</ele>
        <time>2024-09-23T11:53:10.000Z</time>
      </trkpt>
      <trkpt lat="42.43888" lon="19.53849">
        <ele>219.80000305176</ele>
        <time>2024-09-23T11:53:11.000Z</time>
      </trkpt>
      <trkpt lat="42.43874" lon="19.53848">
        <ele>219.32000732422</ele>
        <time>2024-09-23T11:53:12.000Z</time>
      </trkpt>
      <trkpt lat="42.43792" lon="19.53857">
        <ele>215.94999694824</ele>
        <time>2024-09-23T11:53:17.000Z</time>
      </trkpt>
      <trkpt lat="42.43774" lon="19.53855">
        <ele>214.99000549316</ele>
        <time>2024-09-23T11:53:18.000Z</time>
      </trkpt>
      <trkpt lat="42.43756" lon="19.5385">
        <ele>214.0299987793</ele>
        <time>2024-09-23T11:53:19.000Z</time>
      </trkpt>
      <trkpt lat="42.43687" lon="19.53816">
        <ele>211.63000488281</ele>
        <time>2024-09-23T11:53:23.000Z</time>
      </trkpt>
      <trkpt lat="42.43517" lon="19.53667">
        <ele>214.99000549316</ele>
        <time>2024-09-23T11:53:33.000Z</time>
      </trkpt>
      <trkpt lat="42.43425" lon="19.53583">
        <ele>213.55000305176</ele>
        <time>2024-09-23T11:53:39.000Z</time>
      </trkpt>
      <trkpt lat="42.43408" lon="19.53566">
        <ele>212.58999633789</ele>
        <time>2024-09-23T11:53:40.000Z</time>
      </trkpt>
      <trkpt lat="42.43385" lon="19.53542">
        <ele>211.63000488281</ele>
        <time>2024-09-23T11:53:42.000Z</time>
      </trkpt>
      <trkpt lat="42.43251" lon="19.53435">
        <ele>205.86000061035</ele>
        <time>2024-09-23T11:53:50.000Z</time>
      </trkpt>
      <trkpt lat="42.432" lon="19.53394">
        <ele>204.41999816895</ele>
        <time>2024-09-23T11:53:53.000Z</time>
      </trkpt>
      <trkpt lat="42.43186" lon="19.53384">
        <ele>204.41999816895</ele>
        <time>2024-09-23T11:53:54.000Z</time>
      </trkpt>
      <trkpt lat="42.43171" lon="19.53377">
        <ele>204.41999816895</ele>
        <time>2024-09-23T11:53:55.000Z</time>
      </trkpt>
      <trkpt lat="42.43158" lon="19.53371">
        <ele>204.89999389648</ele>
        <time>2024-09-23T11:53:56.000Z</time>
      </trkpt>
      <trkpt lat="42.43143" lon="19.53369">
        <ele>205.38000488281</ele>
        <time>2024-09-23T11:53:57.000Z</time>
      </trkpt>
      <trkpt lat="42.43131" lon="19.53371">
        <ele>206.33999633789</ele>
        <time>2024-09-23T11:53:58.000Z</time>
      </trkpt>
      <trkpt lat="42.43114" lon="19.53382">
        <ele>207.30000305176</ele>
        <time>2024-09-23T11:53:59.000Z</time>
      </trkpt>
      <trkpt lat="42.43107" lon="19.53386">
        <ele>207.7799987793</ele>
        <time>2024-09-23T11:54:00.000Z</time>
      </trkpt>
      <trkpt lat="42.43095" lon="19.53389">
        <ele>208.25999450684</ele>
        <time>2024-09-23T11:54:01.000Z</time>
      </trkpt>
      <trkpt lat="42.43084" lon="19.53388">
        <ele>208.74000549316</ele>
        <time>2024-09-23T11:54:02.000Z</time>
      </trkpt>
      <trkpt lat="42.43075" lon="19.53383">
        <ele>209.2200012207</ele>
        <time>2024-09-23T11:54:03.000Z</time>
      </trkpt>
      <trkpt lat="42.43066" lon="19.53374">
        <ele>209.2200012207</ele>
        <time>2024-09-23T11:54:04.000Z</time>
      </trkpt>
      <trkpt lat="42.43058" lon="19.53369">
        <ele>209.69999694824</ele>
        <time>2024-09-23T11:54:05.000Z</time>
      </trkpt>
      <trkpt lat="42.43046" lon="19.53367">
        <ele>209.2200012207</ele>
        <time>2024-09-23T11:54:06.000Z</time>
      </trkpt>
      <trkpt lat="42.43013" lon="19.53368">
        <ele>209.69999694824</ele>
        <time>2024-09-23T11:54:08.000Z</time>
      </trkpt>
      <trkpt lat="42.43008" lon="19.53367">
        <ele>209.69999694824</ele>
        <time>2024-09-23T11:54:09.000Z</time>
      </trkpt>
      <trkpt lat="42.42994" lon="19.53364">
        <ele>209.2200012207</ele>
        <time>2024-09-23T11:54:10.000Z</time>
      </trkpt>
      <trkpt lat="42.4298" lon="19.53358">
        <ele>209.2200012207</ele>
        <time>2024-09-23T11:54:11.000Z</time>
      </trkpt>
      <trkpt lat="42.42966" lon="19.5335">
        <ele>208.74000549316</ele>
        <time>2024-09-23T11:54:12.000Z</time>
      </trkpt>
      <trkpt lat="42.42951" lon="19.53338">
        <ele>208.25999450684</ele>
        <time>2024-09-23T11:54:13.000Z</time>
      </trkpt>
      <trkpt lat="42.42943" lon="19.53333">
        <ele>207.7799987793</ele>
        <time>2024-09-23T11:54:14.000Z</time>
      </trkpt>
      <trkpt lat="42.42933" lon="19.53328">
        <ele>208.25999450684</ele>
        <time>2024-09-23T11:54:15.000Z</time>
      </trkpt>
      <trkpt lat="42.42923" lon="19.53327">
        <ele>207.7799987793</ele>
        <time>2024-09-23T11:54:16.000Z</time>
      </trkpt>
      <trkpt lat="42.42914" lon="19.53332">
        <ele>207.7799987793</ele>
        <time>2024-09-23T11:54:17.000Z</time>
      </trkpt>
      <trkpt lat="42.42905" lon="19.5334">
        <ele>207.30000305176</ele>
        <time>2024-09-23T11:54:18.000Z</time>
      </trkpt>
      <trkpt lat="42.42897" lon="19.53353">
        <ele>207.30000305176</ele>
        <time>2024-09-23T11:54:19.000Z</time>
      </trkpt>
      <trkpt lat="42.42889" lon="19.53367">
        <ele>207.30000305176</ele>
        <time>2024-09-23T11:54:20.000Z</time>
      </trkpt>
      <trkpt lat="42.42881" lon="19.53377">
        <ele>206.82000732422</ele>
        <time>2024-09-23T11:54:21.000Z</time>
      </trkpt>
      <trkpt lat="42.42873" lon="19.53383">
        <ele>206.82000732422</ele>
        <time>2024-09-23T11:54:22.000Z</time>
      </trkpt>
      <trkpt lat="42.42865" lon="19.53384">
        <ele>206.82000732422</ele>
        <time>2024-09-23T11:54:23.000Z</time>
      </trkpt>
      <trkpt lat="42.42858" lon="19.53379">
        <ele>206.33999633789</ele>
        <time>2024-09-23T11:54:24.000Z</time>
      </trkpt>
      <trkpt lat="42.42851" lon="19.53372">
        <ele>206.33999633789</ele>
        <time>2024-09-23T11:54:25.000Z</time>
      </trkpt>
      <trkpt lat="42.42846" lon="19.53362">
        <ele>206.82000732422</ele>
        <time>2024-09-23T11:54:26.000Z</time>
      </trkpt>
      <trkpt lat="42.42845" lon="19.53347">
        <ele>206.82000732422</ele>
        <time>2024-09-23T11:54:27.000Z</time>
      </trkpt>
      <trkpt lat="42.42848" lon="19.53328">
        <ele>206.33999633789</ele>
        <time>2024-09-23T11:54:28.000Z</time>
      </trkpt>
      <trkpt lat="42.42852" lon="19.53306">
        <ele>205.38000488281</ele>
        <time>2024-09-23T11:54:29.000Z</time>
      </trkpt>
      <trkpt lat="42.42851" lon="19.53288">
        <ele>204.89999389648</ele>
        <time>2024-09-23T11:54:30.000Z</time>
      </trkpt>
      <trkpt lat="42.42846" lon="19.53272">
        <ele>204.41999816895</ele>
        <time>2024-09-23T11:54:31.000Z</time>
      </trkpt>
      <trkpt lat="42.42838" lon="19.53258">
        <ele>203.94000244141</ele>
        <time>2024-09-23T11:54:32.000Z</time>
      </trkpt>
      <trkpt lat="42.42827" lon="19.53244">
        <ele>203.46000671387</ele>
        <time>2024-09-23T11:54:33.000Z</time>
      </trkpt>
      <trkpt lat="42.42816" lon="19.53228">
        <ele>202.97999572754</ele>
        <time>2024-09-23T11:54:34.000Z</time>
      </trkpt>
      <trkpt lat="42.42805" lon="19.53207">
        <ele>202.49000549316</ele>
        <time>2024-09-23T11:54:35.000Z</time>
      </trkpt>
      <trkpt lat="42.42774" lon="19.5313">
        <ele>199.61000061035</ele>
        <time>2024-09-23T11:54:38.000Z</time>
      </trkpt>
      <trkpt lat="42.4276" lon="19.531">
        <ele>198.16999816895</ele>
        <time>2024-09-23T11:54:40.000Z</time>
      </trkpt>
      <trkpt lat="42.42683" lon="19.52958">
        <ele>192.88000488281</ele>
        <time>2024-09-23T11:54:47.000Z</time>
      </trkpt>
      <trkpt lat="42.42669" lon="19.52924">
        <ele>191.91999816895</ele>
        <time>2024-09-23T11:54:48.000Z</time>
      </trkpt>
      <trkpt lat="42.42666" lon="19.52916">
        <ele>191.44000244141</ele>
        <time>2024-09-23T11:54:49.000Z</time>
      </trkpt>
      <trkpt lat="42.42653" lon="19.52889">
        <ele>190</ele>
        <time>2024-09-23T11:54:50.000Z</time>
      </trkpt>
      <trkpt lat="42.42647" lon="19.52872">
        <ele>189.03999328613</ele>
        <time>2024-09-23T11:54:51.000Z</time>
      </trkpt>
      <trkpt lat="42.42642" lon="19.52849">
        <ele>187.58999633789</ele>
        <time>2024-09-23T11:54:52.000Z</time>
      </trkpt>
      <trkpt lat="42.42628" lon="19.52752">
        <ele>182.30999755859</ele>
        <time>2024-09-23T11:54:55.000Z</time>
      </trkpt>
      <trkpt lat="42.42627" lon="19.52741">
        <ele>181.83000183105</ele>
        <time>2024-09-23T11:54:56.000Z</time>
      </trkpt>
      <trkpt lat="42.42627" lon="19.52711">
        <ele>181.35000610352</ele>
        <time>2024-09-23T11:54:57.000Z</time>
      </trkpt>
      <trkpt lat="42.42633" lon="19.5265">
        <ele>180.38000488281</ele>
        <time>2024-09-23T11:54:59.000Z</time>
      </trkpt>
      <trkpt lat="42.42642" lon="19.5244">
        <ele>184.22999572754</ele>
        <time>2024-09-23T11:55:06.000Z</time>
      </trkpt>
      <trkpt lat="42.42644" lon="19.52412">
        <ele>184.71000671387</ele>
        <time>2024-09-23T11:55:07.000Z</time>
      </trkpt>
      <trkpt lat="42.42647" lon="19.52392">
        <ele>185.66999816895</ele>
        <time>2024-09-23T11:55:08.000Z</time>
      </trkpt>
      <trkpt lat="42.42653" lon="19.52363">
        <ele>186.14999389648</ele>
        <time>2024-09-23T11:55:09.000Z</time>
      </trkpt>
      <trkpt lat="42.4268" lon="19.52277">
        <ele>189.03999328613</ele>
        <time>2024-09-23T11:55:12.000Z</time>
      </trkpt>
      <trkpt lat="42.42684" lon="19.52266">
        <ele>189.52000427246</ele>
        <time>2024-09-23T11:55:13.000Z</time>
      </trkpt>
      <trkpt lat="42.42689" lon="19.52254">
        <ele>190</ele>
        <time>2024-09-23T11:55:14.000Z</time>
      </trkpt>
      <trkpt lat="42.42699" lon="19.52237">
        <ele>190.96000671387</ele>
        <time>2024-09-23T11:55:15.000Z</time>
      </trkpt>
      <trkpt lat="42.42711" lon="19.52219">
        <ele>191.91999816895</ele>
        <time>2024-09-23T11:55:16.000Z</time>
      </trkpt>
      <trkpt lat="42.42771" lon="19.52092">
        <ele>197.21000671387</ele>
        <time>2024-09-23T11:55:22.000Z</time>
      </trkpt>
      <trkpt lat="42.42803" lon="19.52013">
        <ele>203.46000671387</ele>
        <time>2024-09-23T11:55:26.000Z</time>
      </trkpt>
      <trkpt lat="42.42807" lon="19.52001">
        <ele>204.41999816895</ele>
        <time>2024-09-23T11:55:27.000Z</time>
      </trkpt>
      <trkpt lat="42.42812" lon="19.51981">
        <ele>206.33999633789</ele>
        <time>2024-09-23T11:55:28.000Z</time>
      </trkpt>
      <trkpt lat="42.42817" lon="19.51927">
        <ele>210.66999816895</ele>
        <time>2024-09-23T11:55:30.000Z</time>
      </trkpt>
      <trkpt lat="42.42819" lon="19.51904">
        <ele>213.07000732422</ele>
        <time>2024-09-23T11:55:31.000Z</time>
      </trkpt>
      <trkpt lat="42.42819" lon="19.5189">
        <ele>214.0299987793</ele>
        <time>2024-09-23T11:55:32.000Z</time>
      </trkpt>
      <trkpt lat="42.42818" lon="19.51867">
        <ele>216.42999267578</ele>
        <time>2024-09-23T11:55:33.000Z</time>
      </trkpt>
      <trkpt lat="42.42815" lon="19.51845">
        <ele>218.36000061035</ele>
        <time>2024-09-23T11:55:34.000Z</time>
      </trkpt>
      <trkpt lat="42.428" lon="19.51799">
        <ele>222.67999267578</ele>
        <time>2024-09-23T11:55:36.000Z</time>
      </trkpt>
      <trkpt lat="42.42793" lon="19.51778">
        <ele>224.61000061035</ele>
        <time>2024-09-23T11:55:37.000Z</time>
      </trkpt>
      <trkpt lat="42.42788" lon="19.51767">
        <ele>225.08999633789</ele>
        <time>2024-09-23T11:55:38.000Z</time>
      </trkpt>
      <trkpt lat="42.42781" lon="19.51755">
        <ele>226.05000305176</ele>
        <time>2024-09-23T11:55:39.000Z</time>
      </trkpt>
      <trkpt lat="42.4277" lon="19.51741">
        <ele>226.5299987793</ele>
        <time>2024-09-23T11:55:40.000Z</time>
      </trkpt>
      <trkpt lat="42.42751" lon="19.51724">
        <ele>228.44999694824</ele>
        <time>2024-09-23T11:55:41.000Z</time>
      </trkpt>
      <trkpt lat="42.42746" lon="19.5172">
        <ele>228.92999267578</ele>
        <time>2024-09-23T11:55:42.000Z</time>
      </trkpt>
      <trkpt lat="42.42736" lon="19.51707">
        <ele>229.88999938965</ele>
        <time>2024-09-23T11:55:43.000Z</time>
      </trkpt>
      <trkpt lat="42.42728" lon="19.51692">
        <ele>231.33000183105</ele>
        <time>2024-09-23T11:55:44.000Z</time>
      </trkpt>
      <trkpt lat="42.42724" lon="19.51674">
        <ele>232.7799987793</ele>
        <time>2024-09-23T11:55:45.000Z</time>
      </trkpt>
      <trkpt lat="42.42723" lon="19.51652">
        <ele>234.2200012207</ele>
        <time>2024-09-23T11:55:46.000Z</time>
      </trkpt>
      <trkpt lat="42.42723" lon="19.51629">
        <ele>235.66000366211</ele>
        <time>2024-09-23T11:55:47.000Z</time>
      </trkpt>
      <trkpt lat="42.42722" lon="19.51609">
        <ele>237.10000610352</ele>
        <time>2024-09-23T11:55:48.000Z</time>
      </trkpt>
      <trkpt lat="42.42718" lon="19.51587">
        <ele>238.05999755859</ele>
        <time>2024-09-23T11:55:49.000Z</time>
      </trkpt>
      <trkpt lat="42.42706" lon="19.51537">
        <ele>240.4700012207</ele>
        <time>2024-09-23T11:55:51.000Z</time>
      </trkpt>
      <trkpt lat="42.42702" lon="19.51522">
        <ele>241.42999267578</ele>
        <time>2024-09-23T11:55:52.000Z</time>
      </trkpt>
      <trkpt lat="42.42694" lon="19.51501">
        <ele>241.91000366211</ele>
        <time>2024-09-23T11:55:53.000Z</time>
      </trkpt>
      <trkpt lat="42.42683" lon="19.51478">
        <ele>242.38999938965</ele>
        <time>2024-09-23T11:55:54.000Z</time>
      </trkpt>
      <trkpt lat="42.42657" lon="19.51427">
        <ele>243.35000610352</ele>
        <time>2024-09-23T11:55:57.000Z</time>
      </trkpt>
      <trkpt lat="42.42642" lon="19.5139">
        <ele>243.83000183105</ele>
        <time>2024-09-23T11:55:59.000Z</time>
      </trkpt>
      <trkpt lat="42.42634" lon="19.51374">
        <ele>243.83000183105</ele>
        <time>2024-09-23T11:56:00.000Z</time>
      </trkpt>
      <trkpt lat="42.42623" lon="19.51359">
        <ele>244.30999755859</ele>
        <time>2024-09-23T11:56:01.000Z</time>
      </trkpt>
      <trkpt lat="42.4259" lon="19.5133">
        <ele>245.27000427246</ele>
        <time>2024-09-23T11:56:03.000Z</time>
      </trkpt>
      <trkpt lat="42.42585" lon="19.51325">
        <ele>245.75</ele>
        <time>2024-09-23T11:56:04.000Z</time>
      </trkpt>
      <trkpt lat="42.42574" lon="19.51312">
        <ele>246.22999572754</ele>
        <time>2024-09-23T11:56:05.000Z</time>
      </trkpt>
      <trkpt lat="42.42561" lon="19.51293">
        <ele>246.7200012207</ele>
        <time>2024-09-23T11:56:06.000Z</time>
      </trkpt>
      <trkpt lat="42.42554" lon="19.51285">
        <ele>246.7200012207</ele>
        <time>2024-09-23T11:56:07.000Z</time>
      </trkpt>
      <trkpt lat="42.42543" lon="19.51275">
        <ele>246.7200012207</ele>
        <time>2024-09-23T11:56:08.000Z</time>
      </trkpt>
      <trkpt lat="42.42531" lon="19.51269">
        <ele>247.19999694824</ele>
        <time>2024-09-23T11:56:09.000Z</time>
      </trkpt>
      <trkpt lat="42.42518" lon="19.51265">
        <ele>247.19999694824</ele>
        <time>2024-09-23T11:56:10.000Z</time>
      </trkpt>
      <trkpt lat="42.42505" lon="19.51265">
        <ele>247.67999267578</ele>
        <time>2024-09-23T11:56:11.000Z</time>
      </trkpt>
      <trkpt lat="42.42459" lon="19.51277">
        <ele>248.63999938965</ele>
        <time>2024-09-23T11:56:14.000Z</time>
      </trkpt>
      <trkpt lat="42.42456" lon="19.51277">
        <ele>248.63999938965</ele>
        <time>2024-09-23T11:56:15.000Z</time>
      </trkpt>
      <trkpt lat="42.42445" lon="19.51277">
        <ele>248.63999938965</ele>
        <time>2024-09-23T11:56:16.000Z</time>
      </trkpt>
      <trkpt lat="42.42435" lon="19.51272">
        <ele>248.63999938965</ele>
        <time>2024-09-23T11:56:17.000Z</time>
      </trkpt>
      <trkpt lat="42.42427" lon="19.51263">
        <ele>248.63999938965</ele>
        <time>2024-09-23T11:56:18.000Z</time>
      </trkpt>
      <trkpt lat="42.42421" lon="19.5125">
        <ele>249.60000610352</ele>
        <time>2024-09-23T11:56:19.000Z</time>
      </trkpt>
      <trkpt lat="42.42418" lon="19.51235">
        <ele>250.55999755859</ele>
        <time>2024-09-23T11:56:20.000Z</time>
      </trkpt>
      <trkpt lat="42.42418" lon="19.51219">
        <ele>250.08000183105</ele>
        <time>2024-09-23T11:56:21.000Z</time>
      </trkpt>
      <trkpt lat="42.42421" lon="19.51202">
        <ele>249.60000610352</ele>
        <time>2024-09-23T11:56:22.000Z</time>
      </trkpt>
      <trkpt lat="42.42423" lon="19.51187">
        <ele>248.63999938965</ele>
        <time>2024-09-23T11:56:23.000Z</time>
      </trkpt>
      <trkpt lat="42.4242" lon="19.51174">
        <ele>248.63999938965</ele>
        <time>2024-09-23T11:56:24.000Z</time>
      </trkpt>
      <trkpt lat="42.42413" lon="19.51162">
        <ele>248.16000366211</ele>
        <time>2024-09-23T11:56:25.000Z</time>
      </trkpt>
      <trkpt lat="42.42403" lon="19.51148">
        <ele>248.63999938965</ele>
        <time>2024-09-23T11:56:26.000Z</time>
      </trkpt>
      <trkpt lat="42.42366" lon="19.51088">
        <ele>249.60000610352</ele>
        <time>2024-09-23T11:56:30.000Z</time>
      </trkpt>
      <trkpt lat="42.4236" lon="19.5108">
        <ele>250.08000183105</ele>
        <time>2024-09-23T11:56:31.000Z</time>
      </trkpt>
      <trkpt lat="42.4235" lon="19.51069">
        <ele>251.52000427246</ele>
        <time>2024-09-23T11:56:32.000Z</time>
      </trkpt>
      <trkpt lat="42.42337" lon="19.5106">
        <ele>252.47999572754</ele>
        <time>2024-09-23T11:56:33.000Z</time>
      </trkpt>
      <trkpt lat="42.42323" lon="19.51055">
        <ele>253.92999267578</ele>
        <time>2024-09-23T11:56:34.000Z</time>
      </trkpt>
      <trkpt lat="42.42309" lon="19.51053">
        <ele>255.36999511719</ele>
        <time>2024-09-23T11:56:35.000Z</time>
      </trkpt>
      <trkpt lat="42.42232" lon="19.51047">
        <ele>263.54000854492</ele>
        <time>2024-09-23T11:56:40.000Z</time>
      </trkpt>
      <trkpt lat="42.42219" lon="19.51049">
        <ele>264.98001098633</ele>
        <time>2024-09-23T11:56:41.000Z</time>
      </trkpt>
      <trkpt lat="42.42092" lon="19.51077">
        <ele>280.83999633789</ele>
        <time>2024-09-23T11:56:49.000Z</time>
      </trkpt>
      <trkpt lat="42.42072" lon="19.5108">
        <ele>282.2799987793</ele>
        <time>2024-09-23T11:56:50.000Z</time>
      </trkpt>
      <trkpt lat="42.42064" lon="19.5108">
        <ele>283.25</ele>
        <time>2024-09-23T11:56:51.000Z</time>
      </trkpt>
      <trkpt lat="42.42053" lon="19.51078">
        <ele>284.69000244141</ele>
        <time>2024-09-23T11:56:52.000Z</time>
      </trkpt>
      <trkpt lat="42.42042" lon="19.51072">
        <ele>286.13000488281</ele>
        <time>2024-09-23T11:56:53.000Z</time>
      </trkpt>
      <trkpt lat="42.42027" lon="19.51056">
        <ele>287.57000732422</ele>
        <time>2024-09-23T11:56:54.000Z</time>
      </trkpt>
      <trkpt lat="42.42023" lon="19.51052">
        <ele>288.04998779297</ele>
        <time>2024-09-23T11:56:55.000Z</time>
      </trkpt>
      <trkpt lat="42.42012" lon="19.51046">
        <ele>289.01000976562</ele>
        <time>2024-09-23T11:56:56.000Z</time>
      </trkpt>
      <trkpt lat="42.41999" lon="19.51043">
        <ele>290.45999145508</ele>
        <time>2024-09-23T11:56:57.000Z</time>
      </trkpt>
      <trkpt lat="42.41916" lon="19.51041">
        <ele>298.14999389648</ele>
        <time>2024-09-23T11:57:02.000Z</time>
      </trkpt>
      <trkpt lat="42.41903" lon="19.51039">
        <ele>299.10998535156</ele>
        <time>2024-09-23T11:57:03.000Z</time>
      </trkpt>
      <trkpt lat="42.41832" lon="19.5101">
        <ele>305.35998535156</ele>
        <time>2024-09-23T11:57:07.000Z</time>
      </trkpt>
      <trkpt lat="42.41822" lon="19.51006">
        <ele>306.32000732422</ele>
        <time>2024-09-23T11:57:08.000Z</time>
      </trkpt>
      <trkpt lat="42.41808" lon="19.51004">
        <ele>307.76000976562</ele>
        <time>2024-09-23T11:57:09.000Z</time>
      </trkpt>
      <trkpt lat="42.41791" lon="19.51003">
        <ele>308.7200012207</ele>
        <time>2024-09-23T11:57:10.000Z</time>
      </trkpt>
      <trkpt lat="42.41776" lon="19.51005">
        <ele>309.67999267578</ele>
        <time>2024-09-23T11:57:11.000Z</time>
      </trkpt>
      <trkpt lat="42.41723" lon="19.51022">
        <ele>312.08999633789</ele>
        <time>2024-09-23T11:57:14.000Z</time>
      </trkpt>
      <trkpt lat="42.41717" lon="19.51023">
        <ele>312.08999633789</ele>
        <time>2024-09-23T11:57:15.000Z</time>
      </trkpt>
      <trkpt lat="42.41705" lon="19.51025">
        <ele>312.57000732422</ele>
        <time>2024-09-23T11:57:16.000Z</time>
      </trkpt>
      <trkpt lat="42.41692" lon="19.51025">
        <ele>312.57000732422</ele>
        <time>2024-09-23T11:57:17.000Z</time>
      </trkpt>
      <trkpt lat="42.41678" lon="19.51021">
        <ele>312.57000732422</ele>
        <time>2024-09-23T11:57:18.000Z</time>
      </trkpt>
      <trkpt lat="42.41661" lon="19.51014">
        <ele>312.57000732422</ele>
        <time>2024-09-23T11:57:19.000Z</time>
      </trkpt>
      <trkpt lat="42.41658" lon="19.51013">
        <ele>312.57000732422</ele>
        <time>2024-09-23T11:57:20.000Z</time>
      </trkpt>
      <trkpt lat="42.41647" lon="19.5101">
        <ele>313.04998779297</ele>
        <time>2024-09-23T11:57:21.000Z</time>
      </trkpt>
      <trkpt lat="42.41635" lon="19.51012">
        <ele>313.5299987793</ele>
        <time>2024-09-23T11:57:22.000Z</time>
      </trkpt>
      <trkpt lat="42.41623" lon="19.51021">
        <ele>313.5299987793</ele>
        <time>2024-09-23T11:57:23.000Z</time>
      </trkpt>
      <trkpt lat="42.41613" lon="19.51034">
        <ele>313.5299987793</ele>
        <time>2024-09-23T11:57:24.000Z</time>
      </trkpt>
      <trkpt lat="42.41583" lon="19.51076">
        <ele>313.5299987793</ele>
        <time>2024-09-23T11:57:26.000Z</time>
      </trkpt>
      <trkpt lat="42.41578" lon="19.51082">
        <ele>313.5299987793</ele>
        <time>2024-09-23T11:57:27.000Z</time>
      </trkpt>
      <trkpt lat="42.41565" lon="19.51095">
        <ele>313.5299987793</ele>
        <time>2024-09-23T11:57:28.000Z</time>
      </trkpt>
      <trkpt lat="42.41551" lon="19.51102">
        <ele>313.04998779297</ele>
        <time>2024-09-23T11:57:29.000Z</time>
      </trkpt>
      <trkpt lat="42.41535" lon="19.51105">
        <ele>314.01000976562</ele>
        <time>2024-09-23T11:57:30.000Z</time>
      </trkpt>
      <trkpt lat="42.41485" lon="19.51106">
        <ele>315.92999267578</ele>
        <time>2024-09-23T11:57:33.000Z</time>
      </trkpt>
      <trkpt lat="42.4147" lon="19.51103">
        <ele>316.89001464844</ele>
        <time>2024-09-23T11:57:34.000Z</time>
      </trkpt>
      <trkpt lat="42.41455" lon="19.51097">
        <ele>318.32998657227</ele>
        <time>2024-09-23T11:57:35.000Z</time>
      </trkpt>
      <trkpt lat="42.41439" lon="19.51089">
        <ele>319.29998779297</ele>
        <time>2024-09-23T11:57:36.000Z</time>
      </trkpt>
      <trkpt lat="42.41429" lon="19.51084">
        <ele>320.73999023438</ele>
        <time>2024-09-23T11:57:37.000Z</time>
      </trkpt>
      <trkpt lat="42.41417" lon="19.5108">
        <ele>321.70001220703</ele>
        <time>2024-09-23T11:57:38.000Z</time>
      </trkpt>
      <trkpt lat="42.41405" lon="19.5108">
        <ele>322.66000366211</ele>
        <time>2024-09-23T11:57:39.000Z</time>
      </trkpt>
      <trkpt lat="42.41394" lon="19.51086">
        <ele>323.61999511719</ele>
        <time>2024-09-23T11:57:40.000Z</time>
      </trkpt>
      <trkpt lat="42.41383" lon="19.51096">
        <ele>324.57998657227</ele>
        <time>2024-09-23T11:57:41.000Z</time>
      </trkpt>
      <trkpt lat="42.41369" lon="19.51109">
        <ele>326.01998901367</ele>
        <time>2024-09-23T11:57:42.000Z</time>
      </trkpt>
      <trkpt lat="42.4136" lon="19.51115">
        <ele>326.5</ele>
        <time>2024-09-23T11:57:43.000Z</time>
      </trkpt>
      <trkpt lat="42.4135" lon="19.51118">
        <ele>327.4700012207</ele>
        <time>2024-09-23T11:57:44.000Z</time>
      </trkpt>
      <trkpt lat="42.41339" lon="19.51117">
        <ele>327.95001220703</ele>
        <time>2024-09-23T11:57:45.000Z</time>
      </trkpt>
      <trkpt lat="42.41331" lon="19.51112">
        <ele>328.42999267578</ele>
        <time>2024-09-23T11:57:46.000Z</time>
      </trkpt>
      <trkpt lat="42.41326" lon="19.51105">
        <ele>329.39001464844</ele>
        <time>2024-09-23T11:57:47.000Z</time>
      </trkpt>
      <trkpt lat="42.41321" lon="19.51093">
        <ele>328.42999267578</ele>
        <time>2024-09-23T11:57:48.000Z</time>
      </trkpt>
      <trkpt lat="42.41318" lon="19.51077">
        <ele>328.42999267578</ele>
        <time>2024-09-23T11:57:49.000Z</time>
      </trkpt>
      <trkpt lat="42.41312" lon="19.51063">
        <ele>328.42999267578</ele>
        <time>2024-09-23T11:57:50.000Z</time>
      </trkpt>
      <trkpt lat="42.41304" lon="19.51049">
        <ele>328.91000366211</ele>
        <time>2024-09-23T11:57:51.000Z</time>
      </trkpt>
      <trkpt lat="42.41295" lon="19.51036">
        <ele>329.39001464844</ele>
        <time>2024-09-23T11:57:52.000Z</time>
      </trkpt>
      <trkpt lat="42.41283" lon="19.51027">
        <ele>329.86999511719</ele>
        <time>2024-09-23T11:57:53.000Z</time>
      </trkpt>
      <trkpt lat="42.41271" lon="19.51023">
        <ele>330.82998657227</ele>
        <time>2024-09-23T11:57:54.000Z</time>
      </trkpt>
      <trkpt lat="42.41258" lon="19.51023">
        <ele>331.30999755859</ele>
        <time>2024-09-23T11:57:55.000Z</time>
      </trkpt>
      <trkpt lat="42.41248" lon="19.51024">
        <ele>331.79000854492</ele>
        <time>2024-09-23T11:57:56.000Z</time>
      </trkpt>
      <trkpt lat="42.41238" lon="19.51023">
        <ele>332.75</ele>
        <time>2024-09-23T11:57:57.000Z</time>
      </trkpt>
      <trkpt lat="42.41215" lon="19.51008">
        <ele>335.16000366211</ele>
        <time>2024-09-23T11:57:59.000Z</time>
      </trkpt>
      <trkpt lat="42.41215" lon="19.51007">
        <ele>335.64001464844</ele>
        <time>2024-09-23T11:58:00.000Z</time>
      </trkpt>
      <trkpt lat="42.41212" lon="19.51">
        <ele>336.60000610352</ele>
        <time>2024-09-23T11:58:01.000Z</time>
      </trkpt>
      <trkpt lat="42.41215" lon="19.50994">
        <ele>338.04000854492</ele>
        <time>2024-09-23T11:58:02.000Z</time>
      </trkpt>
      <trkpt lat="42.41225" lon="19.50989">
        <ele>339.95999145508</ele>
        <time>2024-09-23T11:58:03.000Z</time>
      </trkpt>
      <trkpt lat="42.41239" lon="19.50989">
        <ele>341.41000366211</ele>
        <time>2024-09-23T11:58:04.000Z</time>
      </trkpt>
      <trkpt lat="42.41275" lon="19.51001">
        <ele>342.36999511719</ele>
        <time>2024-09-23T11:58:05.000Z</time>
      </trkpt>
      <trkpt lat="42.41278" lon="19.51001">
        <ele>342.36999511719</ele>
        <time>2024-09-23T11:58:06.000Z</time>
      </trkpt>
      <trkpt lat="42.41291" lon="19.51001">
        <ele>343.32998657227</ele>
        <time>2024-09-23T11:58:07.000Z</time>
      </trkpt>
      <trkpt lat="42.41304" lon="19.50998">
        <ele>343.80999755859</ele>
        <time>2024-09-23T11:58:08.000Z</time>
      </trkpt>
      <trkpt lat="42.41315" lon="19.50991">
        <ele>345.73001098633</ele>
        <time>2024-09-23T11:58:09.000Z</time>
      </trkpt>
      <trkpt lat="42.41328" lon="19.50977">
        <ele>345.25</ele>
        <time>2024-09-23T11:58:10.000Z</time>
      </trkpt>
      <trkpt lat="42.41335" lon="19.50968">
        <ele>345.25</ele>
        <time>2024-09-23T11:58:11.000Z</time>
      </trkpt>
      <trkpt lat="42.41347" lon="19.50957">
        <ele>345.73001098633</ele>
        <time>2024-09-23T11:58:12.000Z</time>
      </trkpt>
      <trkpt lat="42.41361" lon="19.50946">
        <ele>346.20999145508</ele>
        <time>2024-09-23T11:58:13.000Z</time>
      </trkpt>
      <trkpt lat="42.41377" lon="19.50937">
        <ele>347.17001342773</ele>
        <time>2024-09-23T11:58:14.000Z</time>
      </trkpt>
      <trkpt lat="42.41391" lon="19.5093">
        <ele>348.13000488281</ele>
        <time>2024-09-23T11:58:15.000Z</time>
      </trkpt>
      <trkpt lat="42.41407" lon="19.50925">
        <ele>349.10000610352</ele>
        <time>2024-09-23T11:58:16.000Z</time>
      </trkpt>
      <trkpt lat="42.41442" lon="19.5092">
        <ele>352.45999145508</ele>
        <time>2024-09-23T11:58:18.000Z</time>
      </trkpt>
      <trkpt lat="42.41453" lon="19.50917">
        <ele>353.89999389648</ele>
        <time>2024-09-23T11:58:19.000Z</time>
      </trkpt>
      <trkpt lat="42.41467" lon="19.50911">
        <ele>355.33999633789</ele>
        <time>2024-09-23T11:58:20.000Z</time>
      </trkpt>
      <trkpt lat="42.4148" lon="19.50899">
        <ele>356.79000854492</ele>
        <time>2024-09-23T11:58:21.000Z</time>
      </trkpt>
      <trkpt lat="42.41491" lon="19.50887">
        <ele>358.23001098633</ele>
        <time>2024-09-23T11:58:22.000Z</time>
      </trkpt>
      <trkpt lat="42.41502" lon="19.50871">
        <ele>359.67001342773</ele>
        <time>2024-09-23T11:58:23.000Z</time>
      </trkpt>
      <trkpt lat="42.4151" lon="19.50854">
        <ele>361.10998535156</ele>
        <time>2024-09-23T11:58:24.000Z</time>
      </trkpt>
      <trkpt lat="42.41519" lon="19.50823">
        <ele>363.51998901367</ele>
        <time>2024-09-23T11:58:25.000Z</time>
      </trkpt>
      <trkpt lat="42.41521" lon="19.50818">
        <ele>364</ele>
        <time>2024-09-23T11:58:26.000Z</time>
      </trkpt>
      <trkpt lat="42.41563" lon="19.50724">
        <ele>370.73001098633</ele>
        <time>2024-09-23T11:58:31.000Z</time>
      </trkpt>
      <trkpt lat="42.41571" lon="19.50709">
        <ele>371.69000244141</ele>
        <time>2024-09-23T11:58:32.000Z</time>
      </trkpt>
      <trkpt lat="42.41582" lon="19.50693">
        <ele>373.13000488281</ele>
        <time>2024-09-23T11:58:33.000Z</time>
      </trkpt>
      <trkpt lat="42.41594" lon="19.50682">
        <ele>374.57000732422</ele>
        <time>2024-09-23T11:58:34.000Z</time>
      </trkpt>
      <trkpt lat="42.41613" lon="19.50668">
        <ele>376.01000976562</ele>
        <time>2024-09-23T11:58:35.000Z</time>
      </trkpt>
      <trkpt lat="42.41621" lon="19.50662">
        <ele>376.9700012207</ele>
        <time>2024-09-23T11:58:36.000Z</time>
      </trkpt>
      <trkpt lat="42.41633" lon="19.50648">
        <ele>378.42001342773</ele>
        <time>2024-09-23T11:58:37.000Z</time>
      </trkpt>
      <trkpt lat="42.41742" lon="19.50486">
        <ele>394.2799987793</ele>
        <time>2024-09-23T11:58:46.000Z</time>
      </trkpt>
      <trkpt lat="42.41771" lon="19.50441">
        <ele>399.57000732422</ele>
        <time>2024-09-23T11:58:49.000Z</time>
      </trkpt>
      <trkpt lat="42.41781" lon="19.50429">
        <ele>401.48999023438</ele>
        <time>2024-09-23T11:58:50.000Z</time>
      </trkpt>
      <trkpt lat="42.41787" lon="19.50421">
        <ele>402.45001220703</ele>
        <time>2024-09-23T11:58:51.000Z</time>
      </trkpt>
      <trkpt lat="42.418" lon="19.50408">
        <ele>404.85000610352</ele>
        <time>2024-09-23T11:58:52.000Z</time>
      </trkpt>
      <trkpt lat="42.41813" lon="19.50399">
        <ele>406.29000854492</ele>
        <time>2024-09-23T11:58:53.000Z</time>
      </trkpt>
      <trkpt lat="42.41827" lon="19.50393">
        <ele>408.2200012207</ele>
        <time>2024-09-23T11:58:54.000Z</time>
      </trkpt>
      <trkpt lat="42.41841" lon="19.50391">
        <ele>409.66000366211</ele>
        <time>2024-09-23T11:58:55.000Z</time>
      </trkpt>
      <trkpt lat="42.41863" lon="19.50392">
        <ele>411.57998657227</ele>
        <time>2024-09-23T11:58:56.000Z</time>
      </trkpt>
      <trkpt lat="42.41872" lon="19.50392">
        <ele>412.54000854492</ele>
        <time>2024-09-23T11:58:57.000Z</time>
      </trkpt>
      <trkpt lat="42.41888" lon="19.50392">
        <ele>413.5</ele>
        <time>2024-09-23T11:58:58.000Z</time>
      </trkpt>
      <trkpt lat="42.41909" lon="19.50393">
        <ele>414.95001220703</ele>
        <time>2024-09-23T11:58:59.000Z</time>
      </trkpt>
      <trkpt lat="42.41922" lon="19.50395">
        <ele>415.91000366211</ele>
        <time>2024-09-23T11:59:00.000Z</time>
      </trkpt>
      <trkpt lat="42.41936" lon="19.50398">
        <ele>416.86999511719</ele>
        <time>2024-09-23T11:59:01.000Z</time>
      </trkpt>
      <trkpt lat="42.4195" lon="19.50404">
        <ele>418.30999755859</ele>
        <time>2024-09-23T11:59:02.000Z</time>
      </trkpt>
      <trkpt lat="42.4196" lon="19.50414">
        <ele>419.26998901367</ele>
        <time>2024-09-23T11:59:03.000Z</time>
      </trkpt>
      <trkpt lat="42.41965" lon="19.50426">
        <ele>420.23001098633</ele>
        <time>2024-09-23T11:59:04.000Z</time>
      </trkpt>
      <trkpt lat="42.41969" lon="19.50439">
        <ele>421.19000244141</ele>
        <time>2024-09-23T11:59:05.000Z</time>
      </trkpt>
      <trkpt lat="42.41973" lon="19.50452">
        <ele>422.64001464844</ele>
        <time>2024-09-23T11:59:06.000Z</time>
      </trkpt>
      <trkpt lat="42.41978" lon="19.50462">
        <ele>423.60000610352</ele>
        <time>2024-09-23T11:59:07.000Z</time>
      </trkpt>
      <trkpt lat="42.41985" lon="19.50469">
        <ele>424.55999755859</ele>
        <time>2024-09-23T11:59:08.000Z</time>
      </trkpt>
      <trkpt lat="42.41994" lon="19.50475">
        <ele>425.04000854492</ele>
        <time>2024-09-23T11:59:09.000Z</time>
      </trkpt>
      <trkpt lat="42.42028" lon="19.50495">
        <ele>426.95999145508</ele>
        <time>2024-09-23T11:59:12.000Z</time>
      </trkpt>
      <trkpt lat="42.42036" lon="19.50498">
        <ele>427.44000244141</ele>
        <time>2024-09-23T11:59:13.000Z</time>
      </trkpt>
      <trkpt lat="42.42045" lon="19.50499">
        <ele>427.92001342773</ele>
        <time>2024-09-23T11:59:14.000Z</time>
      </trkpt>
      <trkpt lat="42.42054" lon="19.50494">
        <ele>428.89001464844</ele>
        <time>2024-09-23T11:59:15.000Z</time>
      </trkpt>
      <trkpt lat="42.42064" lon="19.50485">
        <ele>429.36999511719</ele>
        <time>2024-09-23T11:59:16.000Z</time>
      </trkpt>
      <trkpt lat="42.42075" lon="19.50472">
        <ele>430.32998657227</ele>
        <time>2024-09-23T11:59:17.000Z</time>
      </trkpt>
      <trkpt lat="42.42081" lon="19.50465">
        <ele>430.80999755859</ele>
        <time>2024-09-23T11:59:18.000Z</time>
      </trkpt>
      <trkpt lat="42.42087" lon="19.50453">
        <ele>431.29000854492</ele>
        <time>2024-09-23T11:59:19.000Z</time>
      </trkpt>
      <trkpt lat="42.4209" lon="19.50439">
        <ele>432.25</ele>
        <time>2024-09-23T11:59:20.000Z</time>
      </trkpt>
      <trkpt lat="42.42094" lon="19.50411">
        <ele>433.69000244141</ele>
        <time>2024-09-23T11:59:21.000Z</time>
      </trkpt>
      <trkpt lat="42.42094" lon="19.50408">
        <ele>433.69000244141</ele>
        <time>2024-09-23T11:59:22.000Z</time>
      </trkpt>
      <trkpt lat="42.42094" lon="19.50396">
        <ele>434.17001342773</ele>
        <time>2024-09-23T11:59:23.000Z</time>
      </trkpt>
      <trkpt lat="42.42091" lon="19.50385">
        <ele>434.17001342773</ele>
        <time>2024-09-23T11:59:24.000Z</time>
      </trkpt>
      <trkpt lat="42.42084" lon="19.50378">
        <ele>434.64999389648</ele>
        <time>2024-09-23T11:59:25.000Z</time>
      </trkpt>
      <trkpt lat="42.42014" lon="19.50351">
        <ele>438.98001098633</ele>
        <time>2024-09-23T11:59:31.000Z</time>
      </trkpt>
      <trkpt lat="42.42" lon="19.50342">
        <ele>439.94000244141</ele>
        <time>2024-09-23T11:59:32.000Z</time>
      </trkpt>
      <trkpt lat="42.41978" lon="19.50324">
        <ele>442.82000732422</ele>
        <time>2024-09-23T11:59:33.000Z</time>
      </trkpt>
      <trkpt lat="42.41969" lon="19.50318">
        <ele>443.79000854492</ele>
        <time>2024-09-23T11:59:34.000Z</time>
      </trkpt>
      <trkpt lat="42.41859" lon="19.50231">
        <ele>456.2799987793</ele>
        <time>2024-09-23T11:59:41.000Z</time>
      </trkpt>
      <trkpt lat="42.4176" lon="19.50107">
        <ele>467.82000732422</ele>
        <time>2024-09-23T11:59:48.000Z</time>
      </trkpt>
      <trkpt lat="42.41751" lon="19.50097">
        <ele>468.7799987793</ele>
        <time>2024-09-23T11:59:49.000Z</time>
      </trkpt>
      <trkpt lat="42.41733" lon="19.5008">
        <ele>471.17999267578</ele>
        <time>2024-09-23T11:59:50.000Z</time>
      </trkpt>
      <trkpt lat="42.41655" lon="19.50023">
        <ele>478.39001464844</ele>
        <time>2024-09-23T11:59:55.000Z</time>
      </trkpt>
      <trkpt lat="42.41645" lon="19.50013">
        <ele>479.35000610352</ele>
        <time>2024-09-23T11:59:56.000Z</time>
      </trkpt>
      <trkpt lat="42.41635" lon="19.49999">
        <ele>480.79998779297</ele>
        <time>2024-09-23T11:59:57.000Z</time>
      </trkpt>
      <trkpt lat="42.41627" lon="19.49982">
        <ele>482.23999023438</ele>
        <time>2024-09-23T11:59:58.000Z</time>
      </trkpt>
      <trkpt lat="42.41617" lon="19.49951">
        <ele>484.16000366211</ele>
        <time>2024-09-23T11:59:59.000Z</time>
      </trkpt>
      <trkpt lat="42.4161" lon="19.49917">
        <ele>486.07998657227</ele>
        <time>2024-09-23T12:00:01.000Z</time>
      </trkpt>
      <trkpt lat="42.41606" lon="19.49892">
        <ele>487.04998779297</ele>
        <time>2024-09-23T12:00:02.000Z</time>
      </trkpt>
      <trkpt lat="42.41604" lon="19.49869">
        <ele>488.01000976562</ele>
        <time>2024-09-23T12:00:03.000Z</time>
      </trkpt>
      <trkpt lat="42.41606" lon="19.49844">
        <ele>488.48999023438</ele>
        <time>2024-09-23T12:00:04.000Z</time>
      </trkpt>
      <trkpt lat="42.41618" lon="19.49784">
        <ele>489.45001220703</ele>
        <time>2024-09-23T12:00:09.000Z</time>
      </trkpt>
      <trkpt lat="42.41623" lon="19.49755">
        <ele>489.45001220703</ele>
        <time>2024-09-23T12:00:18.000Z</time>
      </trkpt>
      <trkpt lat="42.41623" lon="19.49754">
        <ele>489.45001220703</ele>
        <time>2024-09-23T12:00:35.000Z</time>
      </trkpt>
      <trkpt lat="42.41625" lon="19.49738">
        <ele>489.45001220703</ele>
        <time>2024-09-23T12:00:44.000Z</time>
      </trkpt>
      <trkpt lat="42.41626" lon="19.4973">
        <ele>489.92999267578</ele>
        <time>2024-09-23T12:00:55.000Z</time>
      </trkpt>
      <trkpt lat="42.41628" lon="19.49718">
        <ele>490.41000366211</ele>
        <time>2024-09-23T12:01:00.000Z</time>
      </trkpt>
      <trkpt lat="42.41634" lon="19.49701">
        <ele>490.89001464844</ele>
        <time>2024-09-23T12:01:02.000Z</time>
      </trkpt>
      <trkpt lat="42.41637" lon="19.49687">
        <ele>491.85000610352</ele>
        <time>2024-09-23T12:01:03.000Z</time>
      </trkpt>
      <trkpt lat="42.41638" lon="19.49683">
        <ele>491.85000610352</ele>
        <time>2024-09-23T12:01:04.000Z</time>
      </trkpt>
      <trkpt lat="42.41642" lon="19.49674">
        <ele>492.32998657227</ele>
        <time>2024-09-23T12:01:05.000Z</time>
      </trkpt>
      <trkpt lat="42.41648" lon="19.49665">
        <ele>493.29000854492</ele>
        <time>2024-09-23T12:01:06.000Z</time>
      </trkpt>
      <trkpt lat="42.41653" lon="19.49658">
        <ele>494.26000976562</ele>
        <time>2024-09-23T12:01:07.000Z</time>
      </trkpt>
      <trkpt lat="42.41658" lon="19.4965">
        <ele>494.73999023438</ele>
        <time>2024-09-23T12:01:08.000Z</time>
      </trkpt>
      <trkpt lat="42.41661" lon="19.49642">
        <ele>495.2200012207</ele>
        <time>2024-09-23T12:01:09.000Z</time>
      </trkpt>
      <trkpt lat="42.41662" lon="19.49634">
        <ele>495.70001220703</ele>
        <time>2024-09-23T12:01:10.000Z</time>
      </trkpt>
      <trkpt lat="42.4166" lon="19.49627">
        <ele>496.17999267578</ele>
        <time>2024-09-23T12:01:11.000Z</time>
      </trkpt>
      <trkpt lat="42.41655" lon="19.49621">
        <ele>496.66000366211</ele>
        <time>2024-09-23T12:01:12.000Z</time>
      </trkpt>
      <trkpt lat="42.41648" lon="19.49619">
        <ele>497.61999511719</ele>
        <time>2024-09-23T12:01:13.000Z</time>
      </trkpt>
      <trkpt lat="42.41641" lon="19.49621">
        <ele>497.14001464844</ele>
        <time>2024-09-23T12:01:14.000Z</time>
      </trkpt>
      <trkpt lat="42.41635" lon="19.49627">
        <ele>497.61999511719</ele>
        <time>2024-09-23T12:01:15.000Z</time>
      </trkpt>
      <trkpt lat="42.41631" lon="19.49638">
        <ele>498.57998657227</ele>
        <time>2024-09-23T12:01:16.000Z</time>
      </trkpt>
      <trkpt lat="42.4162" lon="19.49667">
        <ele>499.54000854492</ele>
        <time>2024-09-23T12:01:18.000Z</time>
      </trkpt>
      <trkpt lat="42.41617" lon="19.49677">
        <ele>500.01998901367</ele>
        <time>2024-09-23T12:01:19.000Z</time>
      </trkpt>
      <trkpt lat="42.41614" lon="19.4969">
        <ele>500.5</ele>
        <time>2024-09-23T12:01:20.000Z</time>
      </trkpt>
      <trkpt lat="42.41611" lon="19.49711">
        <ele>501.95001220703</ele>
        <time>2024-09-23T12:01:21.000Z</time>
      </trkpt>
      <trkpt lat="42.4161" lon="19.49718">
        <ele>502.42999267578</ele>
        <time>2024-09-23T12:01:22.000Z</time>
      </trkpt>
      <trkpt lat="42.41606" lon="19.49731">
        <ele>502.91000366211</ele>
        <time>2024-09-23T12:01:23.000Z</time>
      </trkpt>
      <trkpt lat="42.41598" lon="19.49745">
        <ele>504.35000610352</ele>
        <time>2024-09-23T12:01:24.000Z</time>
      </trkpt>
      <trkpt lat="42.41585" lon="19.49765">
        <ele>506.26998901367</ele>
        <time>2024-09-23T12:01:25.000Z</time>
      </trkpt>
      <trkpt lat="42.41568" lon="19.49795">
        <ele>507.70999145508</ele>
        <time>2024-09-23T12:01:27.000Z</time>
      </trkpt>
      <trkpt lat="42.41559" lon="19.49814">
        <ele>508.67001342773</ele>
        <time>2024-09-23T12:01:28.000Z</time>
      </trkpt>
      <trkpt lat="42.41553" lon="19.49829">
        <ele>509.16000366211</ele>
        <time>2024-09-23T12:01:29.000Z</time>
      </trkpt>
      <trkpt lat="42.41546" lon="19.49853">
        <ele>511.07998657227</ele>
        <time>2024-09-23T12:01:30.000Z</time>
      </trkpt>
      <trkpt lat="42.41544" lon="19.49864">
        <ele>511.55999755859</ele>
        <time>2024-09-23T12:01:31.000Z</time>
      </trkpt>
      <trkpt lat="42.41542" lon="19.49883">
        <ele>513</ele>
        <time>2024-09-23T12:01:32.000Z</time>
      </trkpt>
      <trkpt lat="42.41542" lon="19.499">
        <ele>514.44000244141</ele>
        <time>2024-09-23T12:01:33.000Z</time>
      </trkpt>
      <trkpt lat="42.41546" lon="19.49929">
        <ele>515.40002441406</ele>
        <time>2024-09-23T12:01:34.000Z</time>
      </trkpt>
      <trkpt lat="42.41547" lon="19.49937">
        <ele>515.88000488281</ele>
        <time>2024-09-23T12:01:35.000Z</time>
      </trkpt>
      <trkpt lat="42.41546" lon="19.49959">
        <ele>516.84997558594</ele>
        <time>2024-09-23T12:01:36.000Z</time>
      </trkpt>
      <trkpt lat="42.41545" lon="19.49984">
        <ele>517.80999755859</ele>
        <time>2024-09-23T12:01:37.000Z</time>
      </trkpt>
      <trkpt lat="42.41546" lon="19.50008">
        <ele>519.72998046875</ele>
        <time>2024-09-23T12:01:38.000Z</time>
      </trkpt>
      <trkpt lat="42.41556" lon="19.50061">
        <ele>524.05999755859</ele>
        <time>2024-09-23T12:01:40.000Z</time>
      </trkpt>
      <trkpt lat="42.41558" lon="19.50068">
        <ele>525.02001953125</ele>
        <time>2024-09-23T12:01:41.000Z</time>
      </trkpt>
      <trkpt lat="42.41564" lon="19.50085">
        <ele>526.46002197266</ele>
        <time>2024-09-23T12:01:42.000Z</time>
      </trkpt>
      <trkpt lat="42.41574" lon="19.50101">
        <ele>527.90002441406</ele>
        <time>2024-09-23T12:01:43.000Z</time>
      </trkpt>
      <trkpt lat="42.41602" lon="19.50136">
        <ele>532.71002197266</ele>
        <time>2024-09-23T12:01:45.000Z</time>
      </trkpt>
      <trkpt lat="42.41609" lon="19.50143">
        <ele>533.66998291016</ele>
        <time>2024-09-23T12:01:46.000Z</time>
      </trkpt>
      <trkpt lat="42.4162" lon="19.50153">
        <ele>535.10998535156</ele>
        <time>2024-09-23T12:01:47.000Z</time>
      </trkpt>
      <trkpt lat="42.41643" lon="19.5017">
        <ele>537.98999023438</ele>
        <time>2024-09-23T12:01:49.000Z</time>
      </trkpt>
      <trkpt lat="42.41652" lon="19.50175">
        <ele>539.44000244141</ele>
        <time>2024-09-23T12:01:50.000Z</time>
      </trkpt>
      <trkpt lat="42.41663" lon="19.50177">
        <ele>540.88000488281</ele>
        <time>2024-09-23T12:01:51.000Z</time>
      </trkpt>
      <trkpt lat="42.41668" lon="19.50179">
        <ele>541.84002685547</ele>
        <time>2024-09-23T12:01:52.000Z</time>
      </trkpt>
      <trkpt lat="42.41672" lon="19.50184">
        <ele>542.32000732422</ele>
        <time>2024-09-23T12:01:53.000Z</time>
      </trkpt>
      <trkpt lat="42.41673" lon="19.50191">
        <ele>543.28002929688</ele>
        <time>2024-09-23T12:01:54.000Z</time>
      </trkpt>
      <trkpt lat="42.4167" lon="19.50198">
        <ele>543.76000976562</ele>
        <time>2024-09-23T12:01:55.000Z</time>
      </trkpt>
      <trkpt lat="42.41665" lon="19.50202">
        <ele>542.79998779297</ele>
        <time>2024-09-23T12:01:56.000Z</time>
      </trkpt>
      <trkpt lat="42.41658" lon="19.50201">
        <ele>541.84002685547</ele>
        <time>2024-09-23T12:01:57.000Z</time>
      </trkpt>
      <trkpt lat="42.41649" lon="19.50196">
        <ele>541.35998535156</ele>
        <time>2024-09-23T12:01:58.000Z</time>
      </trkpt>
      <trkpt lat="42.41622" lon="19.50171">
        <ele>542.32000732422</ele>
        <time>2024-09-23T12:02:00.000Z</time>
      </trkpt>
      <trkpt lat="42.41613" lon="19.50163">
        <ele>542.79998779297</ele>
        <time>2024-09-23T12:02:01.000Z</time>
      </trkpt>
      <trkpt lat="42.41597" lon="19.50151">
        <ele>544.23999023438</ele>
        <time>2024-09-23T12:02:02.000Z</time>
      </trkpt>
      <trkpt lat="42.41558" lon="19.50124">
        <ele>546.16998291016</ele>
        <time>2024-09-23T12:02:04.000Z</time>
      </trkpt>
      <trkpt lat="42.41554" lon="19.5012">
        <ele>546.65002441406</ele>
        <time>2024-09-23T12:02:05.000Z</time>
      </trkpt>
      <trkpt lat="42.41541" lon="19.50108">
        <ele>547.13000488281</ele>
        <time>2024-09-23T12:02:06.000Z</time>
      </trkpt>
      <trkpt lat="42.41529" lon="19.50092">
        <ele>548.09002685547</ele>
        <time>2024-09-23T12:02:07.000Z</time>
      </trkpt>
      <trkpt lat="42.41519" lon="19.50071">
        <ele>548.57000732422</ele>
        <time>2024-09-23T12:02:08.000Z</time>
      </trkpt>
      <trkpt lat="42.41498" lon="19.50014">
        <ele>552.90002441406</ele>
        <time>2024-09-23T12:02:10.000Z</time>
      </trkpt>
      <trkpt lat="42.41497" lon="19.5001">
        <ele>553.38000488281</ele>
        <time>2024-09-23T12:02:11.000Z</time>
      </trkpt>
      <trkpt lat="42.41493" lon="19.49991">
        <ele>555.29998779297</ele>
        <time>2024-09-23T12:02:12.000Z</time>
      </trkpt>
      <trkpt lat="42.41492" lon="19.49969">
        <ele>556.73999023438</ele>
        <time>2024-09-23T12:02:13.000Z</time>
      </trkpt>
      <trkpt lat="42.41491" lon="19.49956">
        <ele>557.21997070312</ele>
        <time>2024-09-23T12:02:14.000Z</time>
      </trkpt>
      <trkpt lat="42.41486" lon="19.49941">
        <ele>558.65997314453</ele>
        <time>2024-09-23T12:02:15.000Z</time>
      </trkpt>
      <trkpt lat="42.41478" lon="19.49926">
        <ele>560.10998535156</ele>
        <time>2024-09-23T12:02:16.000Z</time>
      </trkpt>
      <trkpt lat="42.41474" lon="19.49916">
        <ele>561.07000732422</ele>
        <time>2024-09-23T12:02:17.000Z</time>
      </trkpt>
      <trkpt lat="42.4147" lon="19.49901">
        <ele>562.03002929688</ele>
        <time>2024-09-23T12:02:18.000Z</time>
      </trkpt>
      <trkpt lat="42.4147" lon="19.49885">
        <ele>562.51000976562</ele>
        <time>2024-09-23T12:02:19.000Z</time>
      </trkpt>
      <trkpt lat="42.41472" lon="19.4987">
        <ele>562.98999023438</ele>
        <time>2024-09-23T12:02:20.000Z</time>
      </trkpt>
      <trkpt lat="42.41476" lon="19.49854">
        <ele>562.98999023438</ele>
        <time>2024-09-23T12:02:21.000Z</time>
      </trkpt>
      <trkpt lat="42.41478" lon="19.49837">
        <ele>562.98999023438</ele>
        <time>2024-09-23T12:02:22.000Z</time>
      </trkpt>
      <trkpt lat="42.41481" lon="19.49793">
        <ele>562.98999023438</ele>
        <time>2024-09-23T12:02:24.000Z</time>
      </trkpt>
      <trkpt lat="42.41484" lon="19.49776">
        <ele>563.46997070312</ele>
        <time>2024-09-23T12:02:25.000Z</time>
      </trkpt>
      <trkpt lat="42.41489" lon="19.49756">
        <ele>564.42999267578</ele>
        <time>2024-09-23T12:02:26.000Z</time>
      </trkpt>
      <trkpt lat="42.41497" lon="19.49738">
        <ele>565.39001464844</ele>
        <time>2024-09-23T12:02:27.000Z</time>
      </trkpt>
      <trkpt lat="42.41504" lon="19.49726">
        <ele>565.86999511719</ele>
        <time>2024-09-23T12:02:28.000Z</time>
      </trkpt>
      <trkpt lat="42.41515" lon="19.49709">
        <ele>567.79998779297</ele>
        <time>2024-09-23T12:02:29.000Z</time>
      </trkpt>
      <trkpt lat="42.41517" lon="19.49706">
        <ele>567.79998779297</ele>
        <time>2024-09-23T12:02:30.000Z</time>
      </trkpt>
      <trkpt lat="42.4152" lon="19.49697">
        <ele>568.76000976562</ele>
        <time>2024-09-23T12:02:31.000Z</time>
      </trkpt>
      <trkpt lat="42.41519" lon="19.4969">
        <ele>568.76000976562</ele>
        <time>2024-09-23T12:02:32.000Z</time>
      </trkpt>
      <trkpt lat="42.41515" lon="19.49683">
        <ele>569.71997070312</ele>
        <time>2024-09-23T12:02:33.000Z</time>
      </trkpt>
      <trkpt lat="42.41507" lon="19.49682">
        <ele>570.20001220703</ele>
        <time>2024-09-23T12:02:34.000Z</time>
      </trkpt>
      <trkpt lat="42.41499" lon="19.49687">
        <ele>571.15997314453</ele>
        <time>2024-09-23T12:02:35.000Z</time>
      </trkpt>
      <trkpt lat="42.41492" lon="19.49696">
        <ele>571.64001464844</ele>
        <time>2024-09-23T12:02:36.000Z</time>
      </trkpt>
      <trkpt lat="42.41475" lon="19.49732">
        <ele>573.08001708984</ele>
        <time>2024-09-23T12:02:38.000Z</time>
      </trkpt>
      <trkpt lat="42.41471" lon="19.49743">
        <ele>573.55999755859</ele>
        <time>2024-09-23T12:02:39.000Z</time>
      </trkpt>
      <trkpt lat="42.41461" lon="19.49778">
        <ele>575.48999023438</ele>
        <time>2024-09-23T12:02:40.000Z</time>
      </trkpt>
      <trkpt lat="42.41456" lon="19.49802">
        <ele>577.40997314453</ele>
        <time>2024-09-23T12:02:42.000Z</time>
      </trkpt>
      <trkpt lat="42.41449" lon="19.49837">
        <ele>579.80999755859</ele>
        <time>2024-09-23T12:02:44.000Z</time>
      </trkpt>
      <trkpt lat="42.41445" lon="19.4985">
        <ele>580.77001953125</ele>
        <time>2024-09-23T12:02:45.000Z</time>
      </trkpt>
      <trkpt lat="42.41434" lon="19.4987">
        <ele>582.21997070312</ele>
        <time>2024-09-23T12:02:46.000Z</time>
      </trkpt>
      <trkpt lat="42.41431" lon="19.49878">
        <ele>582.70001220703</ele>
        <time>2024-09-23T12:02:47.000Z</time>
      </trkpt>
      <trkpt lat="42.41428" lon="19.4989">
        <ele>583.17999267578</ele>
        <time>2024-09-23T12:02:48.000Z</time>
      </trkpt>
      <trkpt lat="42.41429" lon="19.49905">
        <ele>583.65997314453</ele>
        <time>2024-09-23T12:02:49.000Z</time>
      </trkpt>
      <trkpt lat="42.41433" lon="19.49919">
        <ele>584.61999511719</ele>
        <time>2024-09-23T12:02:50.000Z</time>
      </trkpt>
      <trkpt lat="42.41439" lon="19.49935">
        <ele>585.09997558594</ele>
        <time>2024-09-23T12:02:51.000Z</time>
      </trkpt>
      <trkpt lat="42.41444" lon="19.49952">
        <ele>585.58001708984</ele>
        <time>2024-09-23T12:02:52.000Z</time>
      </trkpt>
      <trkpt lat="42.41445" lon="19.49971">
        <ele>586.53997802734</ele>
        <time>2024-09-23T12:02:53.000Z</time>
      </trkpt>
      <trkpt lat="42.41445" lon="19.49994">
        <ele>587.02001953125</ele>
        <time>2024-09-23T12:02:54.000Z</time>
      </trkpt>
      <trkpt lat="42.41447" lon="19.5002">
        <ele>587.97998046875</ele>
        <time>2024-09-23T12:02:55.000Z</time>
      </trkpt>
      <trkpt lat="42.41448" lon="19.50033">
        <ele>588.46002197266</ele>
        <time>2024-09-23T12:02:56.000Z</time>
      </trkpt>
      <trkpt lat="42.41456" lon="19.50085">
        <ele>590.86999511719</ele>
        <time>2024-09-23T12:02:58.000Z</time>
      </trkpt>
      <trkpt lat="42.41461" lon="19.50112">
        <ele>592.78997802734</ele>
        <time>2024-09-23T12:02:59.000Z</time>
      </trkpt>
      <trkpt lat="42.41462" lon="19.5012">
        <ele>593.27001953125</ele>
        <time>2024-09-23T12:03:00.000Z</time>
      </trkpt>
      <trkpt lat="42.41467" lon="19.50137">
        <ele>594.71002197266</ele>
        <time>2024-09-23T12:03:01.000Z</time>
      </trkpt>
      <trkpt lat="42.41474" lon="19.50152">
        <ele>595.66998291016</ele>
        <time>2024-09-23T12:03:02.000Z</time>
      </trkpt>
      <trkpt lat="42.41486" lon="19.50168">
        <ele>597.59997558594</ele>
        <time>2024-09-23T12:03:03.000Z</time>
      </trkpt>
      <trkpt lat="42.41488" lon="19.50172">
        <ele>598.08001708984</ele>
        <time>2024-09-23T12:03:04.000Z</time>
      </trkpt>
      <trkpt lat="42.41492" lon="19.5018">
        <ele>599.03997802734</ele>
        <time>2024-09-23T12:03:05.000Z</time>
      </trkpt>
      <trkpt lat="42.41492" lon="19.50188">
        <ele>600</ele>
        <time>2024-09-23T12:03:06.000Z</time>
      </trkpt>
      <trkpt lat="42.41487" lon="19.50195">
        <ele>600.47998046875</ele>
        <time>2024-09-23T12:03:07.000Z</time>
      </trkpt>
      <trkpt lat="42.41481" lon="19.50197">
        <ele>600.47998046875</ele>
        <time>2024-09-23T12:03:08.000Z</time>
      </trkpt>
      <trkpt lat="42.41473" lon="19.50195">
        <ele>601.44000244141</ele>
        <time>2024-09-23T12:03:09.000Z</time>
      </trkpt>
      <trkpt lat="42.41467" lon="19.50189">
        <ele>602.40002441406</ele>
        <time>2024-09-23T12:03:10.000Z</time>
      </trkpt>
      <trkpt lat="42.41461" lon="19.50179">
        <ele>602.40002441406</ele>
        <time>2024-09-23T12:03:11.000Z</time>
      </trkpt>
      <trkpt lat="42.41455" lon="19.50163">
        <ele>603.84997558594</ele>
        <time>2024-09-23T12:03:12.000Z</time>
      </trkpt>
      <trkpt lat="42.41424" lon="19.50057">
        <ele>611.53997802734</ele>
        <time>2024-09-23T12:03:18.000Z</time>
      </trkpt>
      <trkpt lat="42.41384" lon="19.49936">
        <ele>623.07000732422</ele>
        <time>2024-09-23T12:03:24.000Z</time>
      </trkpt>
      <trkpt lat="42.41376" lon="19.49913">
        <ele>624.98999023438</ele>
        <time>2024-09-23T12:03:25.000Z</time>
      </trkpt>
      <trkpt lat="42.41375" lon="19.4991">
        <ele>624.98999023438</ele>
        <time>2024-09-23T12:03:26.000Z</time>
      </trkpt>
      <trkpt lat="42.41371" lon="19.49895">
        <ele>626.44000244141</ele>
        <time>2024-09-23T12:03:27.000Z</time>
      </trkpt>
      <trkpt lat="42.41372" lon="19.49879">
        <ele>627.88000488281</ele>
        <time>2024-09-23T12:03:28.000Z</time>
      </trkpt>
      <trkpt lat="42.41376" lon="19.49863">
        <ele>628.84002685547</ele>
        <time>2024-09-23T12:03:29.000Z</time>
      </trkpt>
      <trkpt lat="42.41382" lon="19.49847">
        <ele>629.79998779297</ele>
        <time>2024-09-23T12:03:30.000Z</time>
      </trkpt>
      <trkpt lat="42.41391" lon="19.49831">
        <ele>630.76000976562</ele>
        <time>2024-09-23T12:03:31.000Z</time>
      </trkpt>
      <trkpt lat="42.41395" lon="19.49821">
        <ele>631.23999023438</ele>
        <time>2024-09-23T12:03:32.000Z</time>
      </trkpt>
      <trkpt lat="42.41397" lon="19.49807">
        <ele>631.71997070312</ele>
        <time>2024-09-23T12:03:33.000Z</time>
      </trkpt>
      <trkpt lat="42.41397" lon="19.49793">
        <ele>632.67999267578</ele>
        <time>2024-09-23T12:03:34.000Z</time>
      </trkpt>
      <trkpt lat="42.41392" lon="19.49777">
        <ele>633.65002441406</ele>
        <time>2024-09-23T12:03:35.000Z</time>
      </trkpt>
      <trkpt lat="42.41386" lon="19.49755">
        <ele>634.60998535156</ele>
        <time>2024-09-23T12:03:36.000Z</time>
      </trkpt>
      <trkpt lat="42.41383" lon="19.49741">
        <ele>635.57000732422</ele>
        <time>2024-09-23T12:03:37.000Z</time>
      </trkpt>
      <trkpt lat="42.4138" lon="19.49722">
        <ele>636.04998779297</ele>
        <time>2024-09-23T12:03:38.000Z</time>
      </trkpt>
      <trkpt lat="42.41382" lon="19.49704">
        <ele>637.48999023438</ele>
        <time>2024-09-23T12:03:39.000Z</time>
      </trkpt>
      <trkpt lat="42.41386" lon="19.49686">
        <ele>638.45001220703</ele>
        <time>2024-09-23T12:03:40.000Z</time>
      </trkpt>
      <trkpt lat="42.41393" lon="19.49666">
        <ele>639.89001464844</ele>
        <time>2024-09-23T12:03:41.000Z</time>
      </trkpt>
      <trkpt lat="42.41399" lon="19.49653">
        <ele>640.85998535156</ele>
        <time>2024-09-23T12:03:42.000Z</time>
      </trkpt>
      <trkpt lat="42.41408" lon="19.49637">
        <ele>642.78002929688</ele>
        <time>2024-09-23T12:03:43.000Z</time>
      </trkpt>
      <trkpt lat="42.41414" lon="19.49628">
        <ele>643.73999023438</ele>
        <time>2024-09-23T12:03:44.000Z</time>
      </trkpt>
      <trkpt lat="42.41417" lon="19.49623">
        <ele>644.21997070312</ele>
        <time>2024-09-23T12:03:45.000Z</time>
      </trkpt>
      <trkpt lat="42.41419" lon="19.49616">
        <ele>644.70001220703</ele>
        <time>2024-09-23T12:03:46.000Z</time>
      </trkpt>
      <trkpt lat="42.41418" lon="19.4961">
        <ele>644.70001220703</ele>
        <time>2024-09-23T12:03:47.000Z</time>
      </trkpt>
      <trkpt lat="42.41414" lon="19.49605">
        <ele>645.17999267578</ele>
        <time>2024-09-23T12:03:48.000Z</time>
      </trkpt>
      <trkpt lat="42.41408" lon="19.49604">
        <ele>646.14001464844</ele>
        <time>2024-09-23T12:03:49.000Z</time>
      </trkpt>
      <trkpt lat="42.41401" lon="19.4961">
        <ele>647.09997558594</ele>
        <time>2024-09-23T12:03:50.000Z</time>
      </trkpt>
      <trkpt lat="42.41363" lon="19.49674">
        <ele>651.42999267578</ele>
        <time>2024-09-23T12:03:55.000Z</time>
      </trkpt>
      <trkpt lat="42.41358" lon="19.49685">
        <ele>652.39001464844</ele>
        <time>2024-09-23T12:03:56.000Z</time>
      </trkpt>
      <trkpt lat="42.41352" lon="19.49701">
        <ele>653.34997558594</ele>
        <time>2024-09-23T12:03:57.000Z</time>
      </trkpt>
      <trkpt lat="42.41349" lon="19.49719">
        <ele>654.30999755859</ele>
        <time>2024-09-23T12:03:58.000Z</time>
      </trkpt>
      <trkpt lat="42.41351" lon="19.49749">
        <ele>656.71997070312</ele>
        <time>2024-09-23T12:03:59.000Z</time>
      </trkpt>
      <trkpt lat="42.41352" lon="19.49758">
        <ele>657.67999267578</ele>
        <time>2024-09-23T12:04:00.000Z</time>
      </trkpt>
      <trkpt lat="42.41355" lon="19.49781">
        <ele>659.59997558594</ele>
        <time>2024-09-23T12:04:01.000Z</time>
      </trkpt>
      <trkpt lat="42.41356" lon="19.49786">
        <ele>659.59997558594</ele>
        <time>2024-09-23T12:04:02.000Z</time>
      </trkpt>
      <trkpt lat="42.41355" lon="19.498">
        <ele>660.55999755859</ele>
        <time>2024-09-23T12:04:03.000Z</time>
      </trkpt>
      <trkpt lat="42.41349" lon="19.49813">
        <ele>661.52001953125</ele>
        <time>2024-09-23T12:04:04.000Z</time>
      </trkpt>
      <trkpt lat="42.41338" lon="19.49832">
        <ele>662.96997070312</ele>
        <time>2024-09-23T12:04:05.000Z</time>
      </trkpt>
      <trkpt lat="42.41334" lon="19.49841">
        <ele>663.92999267578</ele>
        <time>2024-09-23T12:04:06.000Z</time>
      </trkpt>
      <trkpt lat="42.41327" lon="19.49859">
        <ele>664.89001464844</ele>
        <time>2024-09-23T12:04:07.000Z</time>
      </trkpt>
      <trkpt lat="42.41322" lon="19.49878">
        <ele>665.84997558594</ele>
        <time>2024-09-23T12:04:08.000Z</time>
      </trkpt>
      <trkpt lat="42.41321" lon="19.49897">
        <ele>667.28997802734</ele>
        <time>2024-09-23T12:04:09.000Z</time>
      </trkpt>
      <trkpt lat="42.41322" lon="19.4993">
        <ele>669.21997070312</ele>
        <time>2024-09-23T12:04:10.000Z</time>
      </trkpt>
      <trkpt lat="42.41325" lon="19.49977">
        <ele>670.65997314453</ele>
        <time>2024-09-23T12:04:13.000Z</time>
      </trkpt>
      <trkpt lat="42.41325" lon="19.49994">
        <ele>671.14001464844</ele>
        <time>2024-09-23T12:04:14.000Z</time>
      </trkpt>
      <trkpt lat="42.41324" lon="19.50015">
        <ele>673.53997802734</ele>
        <time>2024-09-23T12:04:15.000Z</time>
      </trkpt>
      <trkpt lat="42.41324" lon="19.50029">
        <ele>675.46002197266</ele>
        <time>2024-09-23T12:04:16.000Z</time>
      </trkpt>
      <trkpt lat="42.41327" lon="19.50048">
        <ele>677.86999511719</ele>
        <time>2024-09-23T12:04:17.000Z</time>
      </trkpt>
      <trkpt lat="42.41331" lon="19.50067">
        <ele>680.75</ele>
        <time>2024-09-23T12:04:18.000Z</time>
      </trkpt>
      <trkpt lat="42.41338" lon="19.50086">
        <ele>684.11999511719</ele>
        <time>2024-09-23T12:04:19.000Z</time>
      </trkpt>
      <trkpt lat="42.41342" lon="19.50097">
        <ele>685.55999755859</ele>
        <time>2024-09-23T12:04:20.000Z</time>
      </trkpt>
      <trkpt lat="42.41346" lon="19.5011">
        <ele>687.47998046875</ele>
        <time>2024-09-23T12:04:21.000Z</time>
      </trkpt>
      <trkpt lat="42.41346" lon="19.50124">
        <ele>688.91998291016</ele>
        <time>2024-09-23T12:04:22.000Z</time>
      </trkpt>
      <trkpt lat="42.41344" lon="19.50138">
        <ele>690.84002685547</ele>
        <time>2024-09-23T12:04:23.000Z</time>
      </trkpt>
      <trkpt lat="42.4134" lon="19.50154">
        <ele>691.80999755859</ele>
        <time>2024-09-23T12:04:24.000Z</time>
      </trkpt>
      <trkpt lat="42.41338" lon="19.50174">
        <ele>693.25</ele>
        <time>2024-09-23T12:04:25.000Z</time>
      </trkpt>
      <trkpt lat="42.41336" lon="19.50204">
        <ele>696.13000488281</ele>
        <time>2024-09-23T12:04:26.000Z</time>
      </trkpt>
      <trkpt lat="42.41336" lon="19.50232">
        <ele>698.53002929688</ele>
        <time>2024-09-23T12:04:27.000Z</time>
      </trkpt>
      <trkpt lat="42.41337" lon="19.50238">
        <ele>699.02001953125</ele>
        <time>2024-09-23T12:04:28.000Z</time>
      </trkpt>
      <trkpt lat="42.4134" lon="19.50275">
        <ele>702.38000488281</ele>
        <time>2024-09-23T12:04:30.000Z</time>
      </trkpt>
      <trkpt lat="42.41342" lon="19.50295">
        <ele>704.29998779297</ele>
        <time>2024-09-23T12:04:31.000Z</time>
      </trkpt>
      <trkpt lat="42.41345" lon="19.50308">
        <ele>706.22998046875</ele>
        <time>2024-09-23T12:04:32.000Z</time>
      </trkpt>
      <trkpt lat="42.4135" lon="19.50325">
        <ele>707.66998291016</ele>
        <time>2024-09-23T12:04:33.000Z</time>
      </trkpt>
      <trkpt lat="42.41356" lon="19.50341">
        <ele>709.59002685547</ele>
        <time>2024-09-23T12:04:34.000Z</time>
      </trkpt>
      <trkpt lat="42.41366" lon="19.50354">
        <ele>711.51000976562</ele>
        <time>2024-09-23T12:04:35.000Z</time>
      </trkpt>
      <trkpt lat="42.41377" lon="19.50366">
        <ele>713.44000244141</ele>
        <time>2024-09-23T12:04:36.000Z</time>
      </trkpt>
      <trkpt lat="42.41389" lon="19.50374">
        <ele>715.35998535156</ele>
        <time>2024-09-23T12:04:37.000Z</time>
      </trkpt>
      <trkpt lat="42.41403" lon="19.50379">
        <ele>715.84002685547</ele>
        <time>2024-09-23T12:04:38.000Z</time>
      </trkpt>
      <trkpt lat="42.41439" lon="19.50379">
        <ele>719.20001220703</ele>
        <time>2024-09-23T12:04:40.000Z</time>
      </trkpt>
      <trkpt lat="42.41451" lon="19.50378">
        <ele>720.15997314453</ele>
        <time>2024-09-23T12:04:41.000Z</time>
      </trkpt>
      <trkpt lat="42.41465" lon="19.50374">
        <ele>721.60998535156</ele>
        <time>2024-09-23T12:04:42.000Z</time>
      </trkpt>
      <trkpt lat="42.41479" lon="19.50367">
        <ele>723.53002929688</ele>
        <time>2024-09-23T12:04:43.000Z</time>
      </trkpt>
      <trkpt lat="42.41486" lon="19.50364">
        <ele>724.01000976562</ele>
        <time>2024-09-23T12:04:44.000Z</time>
      </trkpt>
      <trkpt lat="42.41501" lon="19.50355">
        <ele>724.96997070312</ele>
        <time>2024-09-23T12:04:46.000Z</time>
      </trkpt>
      <trkpt lat="42.41508" lon="19.50352">
        <ele>725.92999267578</ele>
        <time>2024-09-23T12:04:47.000Z</time>
      </trkpt>
      <trkpt lat="42.4152" lon="19.50355">
        <ele>728.34002685547</ele>
        <time>2024-09-23T12:04:51.000Z</time>
      </trkpt>
      <trkpt lat="42.41521" lon="19.50357">
        <ele>728.82000732422</ele>
        <time>2024-09-23T12:04:52.000Z</time>
      </trkpt>
      <trkpt lat="42.41522" lon="19.50362">
        <ele>729.78002929688</ele>
        <time>2024-09-23T12:04:53.000Z</time>
      </trkpt>
      <trkpt lat="42.4152" lon="19.50369">
        <ele>729.78002929688</ele>
        <time>2024-09-23T12:04:54.000Z</time>
      </trkpt>
      <trkpt lat="42.41515" lon="19.50374">
        <ele>730.73999023438</ele>
        <time>2024-09-23T12:04:55.000Z</time>
      </trkpt>
      <trkpt lat="42.41508" lon="19.50376">
        <ele>732.65997314453</ele>
        <time>2024-09-23T12:04:56.000Z</time>
      </trkpt>
      <trkpt lat="42.41497" lon="19.50376">
        <ele>733.14001464844</ele>
        <time>2024-09-23T12:04:57.000Z</time>
      </trkpt>
      <trkpt lat="42.4149" lon="19.50377">
        <ele>734.09997558594</ele>
        <time>2024-09-23T12:04:58.000Z</time>
      </trkpt>
      <trkpt lat="42.41438" lon="19.50398">
        <ele>737.95001220703</ele>
        <time>2024-09-23T12:05:02.000Z</time>
      </trkpt>
      <trkpt lat="42.41433" lon="19.50399">
        <ele>738.42999267578</ele>
        <time>2024-09-23T12:05:03.000Z</time>
      </trkpt>
      <trkpt lat="42.4142" lon="19.50402">
        <ele>739.39001464844</ele>
        <time>2024-09-23T12:05:04.000Z</time>
      </trkpt>
      <trkpt lat="42.41405" lon="19.50404">
        <ele>739.86999511719</ele>
        <time>2024-09-23T12:05:05.000Z</time>
      </trkpt>
      <trkpt lat="42.41389" lon="19.50403">
        <ele>740.83001708984</ele>
        <time>2024-09-23T12:05:06.000Z</time>
      </trkpt>
      <trkpt lat="42.41374" lon="19.50399">
        <ele>741.30999755859</ele>
        <time>2024-09-23T12:05:07.000Z</time>
      </trkpt>
      <trkpt lat="42.41337" lon="19.50383">
        <ele>743.71997070312</ele>
        <time>2024-09-23T12:05:09.000Z</time>
      </trkpt>
      <trkpt lat="42.41327" lon="19.50379">
        <ele>744.67999267578</ele>
        <time>2024-09-23T12:05:10.000Z</time>
      </trkpt>
      <trkpt lat="42.41262" lon="19.50367">
        <ele>746.11999511719</ele>
        <time>2024-09-23T12:05:13.000Z</time>
      </trkpt>
      <trkpt lat="42.41239" lon="19.5036">
        <ele>747.08001708984</ele>
        <time>2024-09-23T12:05:15.000Z</time>
      </trkpt>
      <trkpt lat="42.41222" lon="19.50358">
        <ele>747.08001708984</ele>
        <time>2024-09-23T12:05:16.000Z</time>
      </trkpt>
      <trkpt lat="42.41205" lon="19.50359">
        <ele>748.03997802734</ele>
        <time>2024-09-23T12:05:17.000Z</time>
      </trkpt>
      <trkpt lat="42.41189" lon="19.50364">
        <ele>749</ele>
        <time>2024-09-23T12:05:18.000Z</time>
      </trkpt>
      <trkpt lat="42.41174" lon="19.50373">
        <ele>749.48999023438</ele>
        <time>2024-09-23T12:05:19.000Z</time>
      </trkpt>
      <trkpt lat="42.41148" lon="19.50393">
        <ele>750.45001220703</ele>
        <time>2024-09-23T12:05:21.000Z</time>
      </trkpt>
      <trkpt lat="42.41135" lon="19.50404">
        <ele>751.40997314453</ele>
        <time>2024-09-23T12:05:22.000Z</time>
      </trkpt>
      <trkpt lat="42.41125" lon="19.50418">
        <ele>752.36999511719</ele>
        <time>2024-09-23T12:05:23.000Z</time>
      </trkpt>
      <trkpt lat="42.41111" lon="19.5045">
        <ele>753.33001708984</ele>
        <time>2024-09-23T12:05:25.000Z</time>
      </trkpt>
      <trkpt lat="42.41106" lon="19.5046">
        <ele>753.33001708984</ele>
        <time>2024-09-23T12:05:26.000Z</time>
      </trkpt>
      <trkpt lat="42.41098" lon="19.50467">
        <ele>753.33001708984</ele>
        <time>2024-09-23T12:05:27.000Z</time>
      </trkpt>
      <trkpt lat="42.41089" lon="19.5047">
        <ele>752.84997558594</ele>
        <time>2024-09-23T12:05:28.000Z</time>
      </trkpt>
      <trkpt lat="42.41079" lon="19.50469">
        <ele>752.36999511719</ele>
        <time>2024-09-23T12:05:29.000Z</time>
      </trkpt>
      <trkpt lat="42.41069" lon="19.50464">
        <ele>751.89001464844</ele>
        <time>2024-09-23T12:05:30.000Z</time>
      </trkpt>
      <trkpt lat="42.40991" lon="19.50419">
        <ele>748.03997802734</ele>
        <time>2024-09-23T12:05:35.000Z</time>
      </trkpt>
      <trkpt lat="42.40982" lon="19.50413">
        <ele>747.55999755859</ele>
        <time>2024-09-23T12:05:36.000Z</time>
      </trkpt>
      <trkpt lat="42.40971" lon="19.50403">
        <ele>746.59997558594</ele>
        <time>2024-09-23T12:05:37.000Z</time>
      </trkpt>
      <trkpt lat="42.40962" lon="19.50387">
        <ele>745.64001464844</ele>
        <time>2024-09-23T12:05:38.000Z</time>
      </trkpt>
      <trkpt lat="42.40953" lon="19.50363">
        <ele>744.20001220703</ele>
        <time>2024-09-23T12:05:39.000Z</time>
      </trkpt>
      <trkpt lat="42.40948" lon="19.50352">
        <ele>743.71997070312</ele>
        <time>2024-09-23T12:05:40.000Z</time>
      </trkpt>
      <trkpt lat="42.40938" lon="19.50335">
        <ele>742.76000976562</ele>
        <time>2024-09-23T12:05:41.000Z</time>
      </trkpt>
      <trkpt lat="42.4091" lon="19.50306">
        <ele>740.83001708984</ele>
        <time>2024-09-23T12:05:43.000Z</time>
      </trkpt>
      <trkpt lat="42.4082" lon="19.50196">
        <ele>731.70001220703</ele>
        <time>2024-09-23T12:05:49.000Z</time>
      </trkpt>
      <trkpt lat="42.40779" lon="19.5014">
        <ele>728.34002685547</ele>
        <time>2024-09-23T12:05:53.000Z</time>
      </trkpt>
      <trkpt lat="42.40771" lon="19.50125">
        <ele>727.36999511719</ele>
        <time>2024-09-23T12:05:54.000Z</time>
      </trkpt>
      <trkpt lat="42.40769" lon="19.50109">
        <ele>726.89001464844</ele>
        <time>2024-09-23T12:05:55.000Z</time>
      </trkpt>
      <trkpt lat="42.4077" lon="19.50093">
        <ele>727.36999511719</ele>
        <time>2024-09-23T12:05:56.000Z</time>
      </trkpt>
      <trkpt lat="42.40778" lon="19.5006">
        <ele>728.34002685547</ele>
        <time>2024-09-23T12:05:57.000Z</time>
      </trkpt>
      <trkpt lat="42.40779" lon="19.50056">
        <ele>728.34002685547</ele>
        <time>2024-09-23T12:05:58.000Z</time>
      </trkpt>
      <trkpt lat="42.40781" lon="19.50039">
        <ele>727.85998535156</ele>
        <time>2024-09-23T12:05:59.000Z</time>
      </trkpt>
      <trkpt lat="42.4078" lon="19.50021">
        <ele>727.85998535156</ele>
        <time>2024-09-23T12:06:00.000Z</time>
      </trkpt>
      <trkpt lat="42.40776" lon="19.50003">
        <ele>727.36999511719</ele>
        <time>2024-09-23T12:06:01.000Z</time>
      </trkpt>
      <trkpt lat="42.40767" lon="19.49978">
        <ele>726.40997314453</ele>
        <time>2024-09-23T12:06:02.000Z</time>
      </trkpt>
      <trkpt lat="42.40761" lon="19.49964">
        <ele>725.92999267578</ele>
        <time>2024-09-23T12:06:03.000Z</time>
      </trkpt>
      <trkpt lat="42.4075" lon="19.49943">
        <ele>724.96997070312</ele>
        <time>2024-09-23T12:06:04.000Z</time>
      </trkpt>
      <trkpt lat="42.40713" lon="19.49893">
        <ele>723.53002929688</ele>
        <time>2024-09-23T12:06:06.000Z</time>
      </trkpt>
      <trkpt lat="42.40692" lon="19.49871">
        <ele>723.53002929688</ele>
        <time>2024-09-23T12:06:07.000Z</time>
      </trkpt>
      <trkpt lat="42.40574" lon="19.49776">
        <ele>724.01000976562</ele>
        <time>2024-09-23T12:06:14.000Z</time>
      </trkpt>
      <trkpt lat="42.40563" lon="19.49766">
        <ele>724.01000976562</ele>
        <time>2024-09-23T12:06:15.000Z</time>
      </trkpt>
      <trkpt lat="42.40552" lon="19.49753">
        <ele>724.01000976562</ele>
        <time>2024-09-23T12:06:16.000Z</time>
      </trkpt>
      <trkpt lat="42.40541" lon="19.49735">
        <ele>724.48999023438</ele>
        <time>2024-09-23T12:06:17.000Z</time>
      </trkpt>
      <trkpt lat="42.40517" lon="19.49685">
        <ele>724.96997070312</ele>
        <time>2024-09-23T12:06:19.000Z</time>
      </trkpt>
      <trkpt lat="42.40511" lon="19.49674">
        <ele>725.45001220703</ele>
        <time>2024-09-23T12:06:20.000Z</time>
      </trkpt>
      <trkpt lat="42.405" lon="19.49657">
        <ele>725.92999267578</ele>
        <time>2024-09-23T12:06:21.000Z</time>
      </trkpt>
      <trkpt lat="42.40487" lon="19.49641">
        <ele>725.92999267578</ele>
        <time>2024-09-23T12:06:22.000Z</time>
      </trkpt>
      <trkpt lat="42.40473" lon="19.49628">
        <ele>725.92999267578</ele>
        <time>2024-09-23T12:06:23.000Z</time>
      </trkpt>
      <trkpt lat="42.40457" lon="19.49616">
        <ele>725.92999267578</ele>
        <time>2024-09-23T12:06:24.000Z</time>
      </trkpt>
      <trkpt lat="42.40441" lon="19.49607">
        <ele>725.92999267578</ele>
        <time>2024-09-23T12:06:25.000Z</time>
      </trkpt>
      <trkpt lat="42.40427" lon="19.49602">
        <ele>726.40997314453</ele>
        <time>2024-09-23T12:06:26.000Z</time>
      </trkpt>
      <trkpt lat="42.40412" lon="19.49598">
        <ele>726.40997314453</ele>
        <time>2024-09-23T12:06:27.000Z</time>
      </trkpt>
      <trkpt lat="42.40393" lon="19.49596">
        <ele>726.89001464844</ele>
        <time>2024-09-23T12:06:28.000Z</time>
      </trkpt>
      <trkpt lat="42.4028" lon="19.496">
        <ele>728.82000732422</ele>
        <time>2024-09-23T12:06:34.000Z</time>
      </trkpt>
      <trkpt lat="42.40151" lon="19.49568">
        <ele>730.26000976562</ele>
        <time>2024-09-23T12:06:42.000Z</time>
      </trkpt>
      <trkpt lat="42.40134" lon="19.49562">
        <ele>730.73999023438</ele>
        <time>2024-09-23T12:06:43.000Z</time>
      </trkpt>
      <trkpt lat="42.39979" lon="19.495">
        <ele>734.58001708984</ele>
        <time>2024-09-23T12:06:53.000Z</time>
      </trkpt>
      <trkpt lat="42.39881" lon="19.4946">
        <ele>738.42999267578</ele>
        <time>2024-09-23T12:06:59.000Z</time>
      </trkpt>
      <trkpt lat="42.39738" lon="19.49396">
        <ele>742.28002929688</ele>
        <time>2024-09-23T12:07:07.000Z</time>
      </trkpt>
      <trkpt lat="42.3958" lon="19.49337">
        <ele>745.64001464844</ele>
        <time>2024-09-23T12:07:16.000Z</time>
      </trkpt>
      <trkpt lat="42.39409" lon="19.49304">
        <ele>749</ele>
        <time>2024-09-23T12:07:24.000Z</time>
      </trkpt>
      <trkpt lat="42.39315" lon="19.49296">
        <ele>749.96997070312</ele>
        <time>2024-09-23T12:07:30.000Z</time>
      </trkpt>
      <trkpt lat="42.39252" lon="19.49291">
        <ele>749.96997070312</ele>
        <time>2024-09-23T12:07:36.000Z</time>
      </trkpt>
      <trkpt lat="42.39241" lon="19.49289">
        <ele>749.48999023438</ele>
        <time>2024-09-23T12:07:37.000Z</time>
      </trkpt>
      <trkpt lat="42.3922" lon="19.49284">
        <ele>749.48999023438</ele>
        <time>2024-09-23T12:07:38.000Z</time>
      </trkpt>
      <trkpt lat="42.3911" lon="19.49265">
        <ele>744.67999267578</ele>
        <time>2024-09-23T12:07:45.000Z</time>
      </trkpt>
      <trkpt lat="42.38973" lon="19.49247">
        <ele>738.90997314453</ele>
        <time>2024-09-23T12:07:51.000Z</time>
      </trkpt>
      <trkpt lat="42.38839" lon="19.49269">
        <ele>734.58001708984</ele>
        <time>2024-09-23T12:07:58.000Z</time>
      </trkpt>
      <trkpt lat="42.38675" lon="19.4928">
        <ele>723.53002929688</ele>
        <time>2024-09-23T12:08:05.000Z</time>
      </trkpt>
      <trkpt lat="42.38656" lon="19.49281">
        <ele>722.09002685547</ele>
        <time>2024-09-23T12:08:06.000Z</time>
      </trkpt>
      <trkpt lat="42.38645" lon="19.49281">
        <ele>721.13000488281</ele>
        <time>2024-09-23T12:08:07.000Z</time>
      </trkpt>
      <trkpt lat="42.38626" lon="19.49278">
        <ele>719.20001220703</ele>
        <time>2024-09-23T12:08:08.000Z</time>
      </trkpt>
      <trkpt lat="42.38609" lon="19.4927">
        <ele>717.76000976562</ele>
        <time>2024-09-23T12:08:09.000Z</time>
      </trkpt>
      <trkpt lat="42.38592" lon="19.49255">
        <ele>716.32000732422</ele>
        <time>2024-09-23T12:08:10.000Z</time>
      </trkpt>
      <trkpt lat="42.38573" lon="19.49238">
        <ele>713.91998291016</ele>
        <time>2024-09-23T12:08:11.000Z</time>
      </trkpt>
      <trkpt lat="42.3853" lon="19.49202">
        <ele>709.59002685547</ele>
        <time>2024-09-23T12:08:13.000Z</time>
      </trkpt>
      <trkpt lat="42.38527" lon="19.492">
        <ele>709.10998535156</ele>
        <time>2024-09-23T12:08:14.000Z</time>
      </trkpt>
      <trkpt lat="42.38513" lon="19.49193">
        <ele>708.15002441406</ele>
        <time>2024-09-23T12:08:15.000Z</time>
      </trkpt>
      <trkpt lat="42.38497" lon="19.49189">
        <ele>707.19000244141</ele>
        <time>2024-09-23T12:08:16.000Z</time>
      </trkpt>
      <trkpt lat="42.38481" lon="19.49191">
        <ele>706.22998046875</ele>
        <time>2024-09-23T12:08:17.000Z</time>
      </trkpt>
      <trkpt lat="42.38465" lon="19.49198">
        <ele>705.75</ele>
        <time>2024-09-23T12:08:18.000Z</time>
      </trkpt>
      <trkpt lat="42.38452" lon="19.4921">
        <ele>705.75</ele>
        <time>2024-09-23T12:08:19.000Z</time>
      </trkpt>
      <trkpt lat="42.38441" lon="19.49226">
        <ele>705.75</ele>
        <time>2024-09-23T12:08:20.000Z</time>
      </trkpt>
      <trkpt lat="42.3843" lon="19.49251">
        <ele>705.75</ele>
        <time>2024-09-23T12:08:21.000Z</time>
      </trkpt>
      <trkpt lat="42.38417" lon="19.49278">
        <ele>706.71002197266</ele>
        <time>2024-09-23T12:08:22.000Z</time>
      </trkpt>
      <trkpt lat="42.384" lon="19.49308">
        <ele>707.19000244141</ele>
        <time>2024-09-23T12:08:24.000Z</time>
      </trkpt>
      <trkpt lat="42.38374" lon="19.49375">
        <ele>710.07000732422</ele>
        <time>2024-09-23T12:08:27.000Z</time>
      </trkpt>
      <trkpt lat="42.38369" lon="19.49393">
        <ele>710.54998779297</ele>
        <time>2024-09-23T12:08:28.000Z</time>
      </trkpt>
      <trkpt lat="42.38365" lon="19.49417">
        <ele>711.03002929688</ele>
        <time>2024-09-23T12:08:29.000Z</time>
      </trkpt>
      <trkpt lat="42.38362" lon="19.4943">
        <ele>711.51000976562</ele>
        <time>2024-09-23T12:08:30.000Z</time>
      </trkpt>
      <trkpt lat="42.38355" lon="19.49444">
        <ele>711.51000976562</ele>
        <time>2024-09-23T12:08:31.000Z</time>
      </trkpt>
      <trkpt lat="42.38346" lon="19.49451">
        <ele>712.46997070312</ele>
        <time>2024-09-23T12:08:32.000Z</time>
      </trkpt>
      <trkpt lat="42.38336" lon="19.49454">
        <ele>712.95001220703</ele>
        <time>2024-09-23T12:08:33.000Z</time>
      </trkpt>
      <trkpt lat="42.38318" lon="19.49452">
        <ele>713.91998291016</ele>
        <time>2024-09-23T12:08:34.000Z</time>
      </trkpt>
      <trkpt lat="42.3831" lon="19.49452">
        <ele>713.91998291016</ele>
        <time>2024-09-23T12:08:35.000Z</time>
      </trkpt>
      <trkpt lat="42.38298" lon="19.49456">
        <ele>714.40002441406</ele>
        <time>2024-09-23T12:08:36.000Z</time>
      </trkpt>
      <trkpt lat="42.38289" lon="19.49462">
        <ele>714.88000488281</ele>
        <time>2024-09-23T12:08:37.000Z</time>
      </trkpt>
      <trkpt lat="42.38278" lon="19.49467">
        <ele>714.88000488281</ele>
        <time>2024-09-23T12:08:38.000Z</time>
      </trkpt>
      <trkpt lat="42.38268" lon="19.49467">
        <ele>714.88000488281</ele>
        <time>2024-09-23T12:08:39.000Z</time>
      </trkpt>
      <trkpt lat="42.38258" lon="19.49463">
        <ele>714.88000488281</ele>
        <time>2024-09-23T12:08:40.000Z</time>
      </trkpt>
      <trkpt lat="42.38248" lon="19.49454">
        <ele>714.40002441406</ele>
        <time>2024-09-23T12:08:41.000Z</time>
      </trkpt>
      <trkpt lat="42.38236" lon="19.4944">
        <ele>713.91998291016</ele>
        <time>2024-09-23T12:08:42.000Z</time>
      </trkpt>
      <trkpt lat="42.38229" lon="19.49429">
        <ele>713.44000244141</ele>
        <time>2024-09-23T12:08:43.000Z</time>
      </trkpt>
      <trkpt lat="42.3822" lon="19.49413">
        <ele>712.46997070312</ele>
        <time>2024-09-23T12:08:44.000Z</time>
      </trkpt>
      <trkpt lat="42.38211" lon="19.49392">
        <ele>711.03002929688</ele>
        <time>2024-09-23T12:08:45.000Z</time>
      </trkpt>
      <trkpt lat="42.38206" lon="19.49376">
        <ele>710.07000732422</ele>
        <time>2024-09-23T12:08:46.000Z</time>
      </trkpt>
      <trkpt lat="42.382" lon="19.49351">
        <ele>708.63000488281</ele>
        <time>2024-09-23T12:08:47.000Z</time>
      </trkpt>
      <trkpt lat="42.38195" lon="19.49336">
        <ele>707.19000244141</ele>
        <time>2024-09-23T12:08:48.000Z</time>
      </trkpt>
      <trkpt lat="42.38185" lon="19.49318">
        <ele>706.22998046875</ele>
        <time>2024-09-23T12:08:49.000Z</time>
      </trkpt>
      <trkpt lat="42.3815" lon="19.49263">
        <ele>701.90002441406</ele>
        <time>2024-09-23T12:08:52.000Z</time>
      </trkpt>
      <trkpt lat="42.38142" lon="19.49248">
        <ele>701.41998291016</ele>
        <time>2024-09-23T12:08:53.000Z</time>
      </trkpt>
      <trkpt lat="42.38134" lon="19.49226">
        <ele>700.46002197266</ele>
        <time>2024-09-23T12:08:54.000Z</time>
      </trkpt>
      <trkpt lat="42.38124" lon="19.49195">
        <ele>699.02001953125</ele>
        <time>2024-09-23T12:08:55.000Z</time>
      </trkpt>
      <trkpt lat="42.38123" lon="19.49191">
        <ele>699.02001953125</ele>
        <time>2024-09-23T12:08:56.000Z</time>
      </trkpt>
      <trkpt lat="42.38121" lon="19.49184">
        <ele>699.97998046875</ele>
        <time>2024-09-23T12:12:50.000Z</time>
      </trkpt>
      <trkpt lat="42.38123" lon="19.4919">
        <ele>699.5</ele>
        <time>2024-09-23T12:12:57.000Z</time>
      </trkpt>
      <trkpt lat="42.38114" lon="19.49195">
        <ele>698.53002929688</ele>
        <time>2024-09-23T12:13:09.000Z</time>
      </trkpt>
      <trkpt lat="42.38111" lon="19.49189">
        <ele>698.53002929688</ele>
        <time>2024-09-23T12:13:10.000Z</time>
      </trkpt>
      <trkpt lat="42.38107" lon="19.49182">
        <ele>698.53002929688</ele>
        <time>2024-09-23T12:13:11.000Z</time>
      </trkpt>
      <trkpt lat="42.38101" lon="19.49177">
        <ele>699.02001953125</ele>
        <time>2024-09-23T12:13:12.000Z</time>
      </trkpt>
      <trkpt lat="42.38091" lon="19.49171">
        <ele>699.5</ele>
        <time>2024-09-23T12:13:14.000Z</time>
      </trkpt>
      <trkpt lat="42.38078" lon="19.49166">
        <ele>699.97998046875</ele>
        <time>2024-09-23T12:13:22.000Z</time>
      </trkpt>
      <trkpt lat="42.38075" lon="19.49164">
        <ele>700.94000244141</ele>
        <time>2024-09-23T12:13:58.000Z</time>
      </trkpt>
      <trkpt lat="42.38071" lon="19.49162">
        <ele>700.94000244141</ele>
        <time>2024-09-23T12:13:59.000Z</time>
      </trkpt>
      <trkpt lat="42.38064" lon="19.49158">
        <ele>701.41998291016</ele>
        <time>2024-09-23T12:14:00.000Z</time>
      </trkpt>
      <trkpt lat="42.37994" lon="19.49133">
        <ele>704.78002929688</ele>
        <time>2024-09-23T12:14:05.000Z</time>
      </trkpt>
      <trkpt lat="42.37993" lon="19.49132">
        <ele>704.78002929688</ele>
        <time>2024-09-23T12:14:06.000Z</time>
      </trkpt>
      <trkpt lat="42.37913" lon="19.49074">
        <ele>715.35998535156</ele>
        <time>2024-09-23T12:14:12.000Z</time>
      </trkpt>
      <trkpt lat="42.37869" lon="19.49043">
        <ele>719.20001220703</ele>
        <time>2024-09-23T12:14:16.000Z</time>
      </trkpt>
      <trkpt lat="42.37852" lon="19.49033">
        <ele>719.67999267578</ele>
        <time>2024-09-23T12:14:17.000Z</time>
      </trkpt>
      <trkpt lat="42.37848" lon="19.49031">
        <ele>719.67999267578</ele>
        <time>2024-09-23T12:14:18.000Z</time>
      </trkpt>
      <trkpt lat="42.37823" lon="19.49014">
        <ele>722.09002685547</ele>
        <time>2024-09-23T12:14:20.000Z</time>
      </trkpt>
      <trkpt lat="42.37803" lon="19.49004">
        <ele>725.45001220703</ele>
        <time>2024-09-23T12:14:22.000Z</time>
      </trkpt>
      <trkpt lat="42.37793" lon="19.48998">
        <ele>725.92999267578</ele>
        <time>2024-09-23T12:14:23.000Z</time>
      </trkpt>
      <trkpt lat="42.37722" lon="19.48935">
        <ele>730.26000976562</ele>
        <time>2024-09-23T12:14:29.000Z</time>
      </trkpt>
      <trkpt lat="42.37647" lon="19.48862">
        <ele>728.82000732422</ele>
        <time>2024-09-23T12:14:36.000Z</time>
      </trkpt>
      <trkpt lat="42.37605" lon="19.48833">
        <ele>728.34002685547</ele>
        <time>2024-09-23T12:14:40.000Z</time>
      </trkpt>
      <trkpt lat="42.37597" lon="19.48829">
        <ele>728.34002685547</ele>
        <time>2024-09-23T12:14:41.000Z</time>
      </trkpt>
      <trkpt lat="42.37588" lon="19.48828">
        <ele>728.34002685547</ele>
        <time>2024-09-23T12:14:42.000Z</time>
      </trkpt>
      <trkpt lat="42.37577" lon="19.48831">
        <ele>728.34002685547</ele>
        <time>2024-09-23T12:14:43.000Z</time>
      </trkpt>
      <trkpt lat="42.3757" lon="19.48832">
        <ele>727.85998535156</ele>
        <time>2024-09-23T12:14:44.000Z</time>
      </trkpt>
      <trkpt lat="42.3756" lon="19.48829">
        <ele>727.36999511719</ele>
        <time>2024-09-23T12:14:45.000Z</time>
      </trkpt>
      <trkpt lat="42.37547" lon="19.48821">
        <ele>726.40997314453</ele>
        <time>2024-09-23T12:14:46.000Z</time>
      </trkpt>
      <trkpt lat="42.37538" lon="19.48814">
        <ele>725.45001220703</ele>
        <time>2024-09-23T12:14:47.000Z</time>
      </trkpt>
      <trkpt lat="42.37508" lon="19.48783">
        <ele>724.48999023438</ele>
        <time>2024-09-23T12:14:49.000Z</time>
      </trkpt>
      <trkpt lat="42.37498" lon="19.48774">
        <ele>724.01000976562</ele>
        <time>2024-09-23T12:14:50.000Z</time>
      </trkpt>
      <trkpt lat="42.37484" lon="19.48762">
        <ele>724.48999023438</ele>
        <time>2024-09-23T12:14:51.000Z</time>
      </trkpt>
      <trkpt lat="42.3747" lon="19.48752">
        <ele>724.48999023438</ele>
        <time>2024-09-23T12:14:52.000Z</time>
      </trkpt>
      <trkpt lat="42.37453" lon="19.48742">
        <ele>724.48999023438</ele>
        <time>2024-09-23T12:14:53.000Z</time>
      </trkpt>
      <trkpt lat="42.37391" lon="19.48688">
        <ele>728.34002685547</ele>
        <time>2024-09-23T12:14:57.000Z</time>
      </trkpt>
      <trkpt lat="42.37386" lon="19.48685">
        <ele>728.82000732422</ele>
        <time>2024-09-23T12:14:58.000Z</time>
      </trkpt>
      <trkpt lat="42.37376" lon="19.48679">
        <ele>729.78002929688</ele>
        <time>2024-09-23T12:14:59.000Z</time>
      </trkpt>
      <trkpt lat="42.37351" lon="19.48668">
        <ele>730.73999023438</ele>
        <time>2024-09-23T12:15:01.000Z</time>
      </trkpt>
      <trkpt lat="42.37343" lon="19.48664">
        <ele>731.21997070312</ele>
        <time>2024-09-23T12:15:02.000Z</time>
      </trkpt>
      <trkpt lat="42.37334" lon="19.48656">
        <ele>731.21997070312</ele>
        <time>2024-09-23T12:15:03.000Z</time>
      </trkpt>
      <trkpt lat="42.37324" lon="19.48643">
        <ele>729.78002929688</ele>
        <time>2024-09-23T12:15:04.000Z</time>
      </trkpt>
      <trkpt lat="42.37315" lon="19.48632">
        <ele>729.78002929688</ele>
        <time>2024-09-23T12:15:05.000Z</time>
      </trkpt>
      <trkpt lat="42.37289" lon="19.48608">
        <ele>728.34002685547</ele>
        <time>2024-09-23T12:15:07.000Z</time>
      </trkpt>
      <trkpt lat="42.37263" lon="19.48588">
        <ele>727.85998535156</ele>
        <time>2024-09-23T12:15:09.000Z</time>
      </trkpt>
      <trkpt lat="42.37254" lon="19.4858">
        <ele>727.85998535156</ele>
        <time>2024-09-23T12:15:10.000Z</time>
      </trkpt>
      <trkpt lat="42.37246" lon="19.4857">
        <ele>727.36999511719</ele>
        <time>2024-09-23T12:15:11.000Z</time>
      </trkpt>
      <trkpt lat="42.37237" lon="19.48563">
        <ele>727.85998535156</ele>
        <time>2024-09-23T12:15:12.000Z</time>
      </trkpt>
      <trkpt lat="42.37227" lon="19.48557">
        <ele>728.34002685547</ele>
        <time>2024-09-23T12:15:13.000Z</time>
      </trkpt>
      <trkpt lat="42.37189" lon="19.48541">
        <ele>729.78002929688</ele>
        <time>2024-09-23T12:15:16.000Z</time>
      </trkpt>
      <trkpt lat="42.37155" lon="19.48521">
        <ele>732.17999267578</ele>
        <time>2024-09-23T12:15:18.000Z</time>
      </trkpt>
      <trkpt lat="42.3715" lon="19.48517">
        <ele>732.65997314453</ele>
        <time>2024-09-23T12:15:19.000Z</time>
      </trkpt>
      <trkpt lat="42.37052" lon="19.48418">
        <ele>735.54998779297</ele>
        <time>2024-09-23T12:15:27.000Z</time>
      </trkpt>
      <trkpt lat="42.37028" lon="19.48388">
        <ele>735.07000732422</ele>
        <time>2024-09-23T12:15:29.000Z</time>
      </trkpt>
      <trkpt lat="42.37024" lon="19.48384">
        <ele>735.07000732422</ele>
        <time>2024-09-23T12:15:30.000Z</time>
      </trkpt>
      <trkpt lat="42.37013" lon="19.48375">
        <ele>735.07000732422</ele>
        <time>2024-09-23T12:15:31.000Z</time>
      </trkpt>
      <trkpt lat="42.37002" lon="19.48368">
        <ele>735.07000732422</ele>
        <time>2024-09-23T12:15:32.000Z</time>
      </trkpt>
      <trkpt lat="42.3699" lon="19.48358">
        <ele>735.07000732422</ele>
        <time>2024-09-23T12:15:33.000Z</time>
      </trkpt>
      <trkpt lat="42.36977" lon="19.48342">
        <ele>735.54998779297</ele>
        <time>2024-09-23T12:15:34.000Z</time>
      </trkpt>
      <trkpt lat="42.36919" lon="19.48265">
        <ele>736.51000976562</ele>
        <time>2024-09-23T12:15:39.000Z</time>
      </trkpt>
      <trkpt lat="42.36916" lon="19.48262">
        <ele>736.51000976562</ele>
        <time>2024-09-23T12:15:40.000Z</time>
      </trkpt>
      <trkpt lat="42.36909" lon="19.48249">
        <ele>736.98999023438</ele>
        <time>2024-09-23T12:15:41.000Z</time>
      </trkpt>
      <trkpt lat="42.36901" lon="19.48235">
        <ele>736.98999023438</ele>
        <time>2024-09-23T12:15:42.000Z</time>
      </trkpt>
      <trkpt lat="42.36898" lon="19.48228">
        <ele>737.46997070312</ele>
        <time>2024-09-23T12:15:43.000Z</time>
      </trkpt>
      <trkpt lat="42.36892" lon="19.4822">
        <ele>737.95001220703</ele>
        <time>2024-09-23T12:15:44.000Z</time>
      </trkpt>
      <trkpt lat="42.36885" lon="19.48217">
        <ele>738.42999267578</ele>
        <time>2024-09-23T12:15:45.000Z</time>
      </trkpt>
      <trkpt lat="42.36878" lon="19.48217">
        <ele>738.90997314453</ele>
        <time>2024-09-23T12:15:46.000Z</time>
      </trkpt>
      <trkpt lat="42.36872" lon="19.48221">
        <ele>738.90997314453</ele>
        <time>2024-09-23T12:15:47.000Z</time>
      </trkpt>
      <trkpt lat="42.36864" lon="19.48228">
        <ele>739.39001464844</ele>
        <time>2024-09-23T12:15:48.000Z</time>
      </trkpt>
      <trkpt lat="42.36861" lon="19.4823">
        <ele>739.39001464844</ele>
        <time>2024-09-23T12:15:49.000Z</time>
      </trkpt>
      <trkpt lat="42.36856" lon="19.4823">
        <ele>739.39001464844</ele>
        <time>2024-09-23T12:15:50.000Z</time>
      </trkpt>
      <trkpt lat="42.36851" lon="19.48227">
        <ele>739.39001464844</ele>
        <time>2024-09-23T12:15:51.000Z</time>
      </trkpt>
      <trkpt lat="42.36846" lon="19.48221">
        <ele>738.90997314453</ele>
        <time>2024-09-23T12:15:52.000Z</time>
      </trkpt>
      <trkpt lat="42.36825" lon="19.48182">
        <ele>737.95001220703</ele>
        <time>2024-09-23T12:15:55.000Z</time>
      </trkpt>
      <trkpt lat="42.36822" lon="19.48177">
        <ele>737.95001220703</ele>
        <time>2024-09-23T12:15:56.000Z</time>
      </trkpt>
      <trkpt lat="42.36818" lon="19.48171">
        <ele>738.90997314453</ele>
        <time>2024-09-23T12:15:57.000Z</time>
      </trkpt>
      <trkpt lat="42.36813" lon="19.48167">
        <ele>739.39001464844</ele>
        <time>2024-09-23T12:15:58.000Z</time>
      </trkpt>
      <trkpt lat="42.36807" lon="19.48165">
        <ele>739.86999511719</ele>
        <time>2024-09-23T12:15:59.000Z</time>
      </trkpt>
      <trkpt lat="42.368" lon="19.48167">
        <ele>740.83001708984</ele>
        <time>2024-09-23T12:16:00.000Z</time>
      </trkpt>
      <trkpt lat="42.36792" lon="19.4817">
        <ele>741.30999755859</ele>
        <time>2024-09-23T12:16:01.000Z</time>
      </trkpt>
      <trkpt lat="42.36783" lon="19.48175">
        <ele>741.30999755859</ele>
        <time>2024-09-23T12:16:02.000Z</time>
      </trkpt>
      <trkpt lat="42.36771" lon="19.48183">
        <ele>740.83001708984</ele>
        <time>2024-09-23T12:16:03.000Z</time>
      </trkpt>
      <trkpt lat="42.36763" lon="19.48187">
        <ele>740.34997558594</ele>
        <time>2024-09-23T12:16:04.000Z</time>
      </trkpt>
      <trkpt lat="42.36752" lon="19.48191">
        <ele>740.83001708984</ele>
        <time>2024-09-23T12:16:05.000Z</time>
      </trkpt>
      <trkpt lat="42.36742" lon="19.48191">
        <ele>741.30999755859</ele>
        <time>2024-09-23T12:16:06.000Z</time>
      </trkpt>
      <trkpt lat="42.36733" lon="19.48188">
        <ele>740.34997558594</ele>
        <time>2024-09-23T12:16:07.000Z</time>
      </trkpt>
      <trkpt lat="42.36724" lon="19.48181">
        <ele>739.39001464844</ele>
        <time>2024-09-23T12:16:08.000Z</time>
      </trkpt>
      <trkpt lat="42.36716" lon="19.48173">
        <ele>739.39001464844</ele>
        <time>2024-09-23T12:16:09.000Z</time>
      </trkpt>
      <trkpt lat="42.36705" lon="19.48158">
        <ele>738.90997314453</ele>
        <time>2024-09-23T12:16:10.000Z</time>
      </trkpt>
      <trkpt lat="42.36699" lon="19.4815">
        <ele>737.95001220703</ele>
        <time>2024-09-23T12:16:11.000Z</time>
      </trkpt>
      <trkpt lat="42.36688" lon="19.48138">
        <ele>737.46997070312</ele>
        <time>2024-09-23T12:16:12.000Z</time>
      </trkpt>
      <trkpt lat="42.36676" lon="19.48119">
        <ele>736.98999023438</ele>
        <time>2024-09-23T12:16:13.000Z</time>
      </trkpt>
      <trkpt lat="42.36673" lon="19.48114">
        <ele>736.98999023438</ele>
        <time>2024-09-23T12:16:14.000Z</time>
      </trkpt>
      <trkpt lat="42.3666" lon="19.481">
        <ele>737.46997070312</ele>
        <time>2024-09-23T12:16:15.000Z</time>
      </trkpt>
      <trkpt lat="42.36654" lon="19.48094">
        <ele>737.95001220703</ele>
        <time>2024-09-23T12:16:16.000Z</time>
      </trkpt>
      <trkpt lat="42.36645" lon="19.48088">
        <ele>737.95001220703</ele>
        <time>2024-09-23T12:16:17.000Z</time>
      </trkpt>
      <trkpt lat="42.36637" lon="19.48086">
        <ele>737.46997070312</ele>
        <time>2024-09-23T12:16:18.000Z</time>
      </trkpt>
      <trkpt lat="42.3663" lon="19.48087">
        <ele>737.95001220703</ele>
        <time>2024-09-23T12:16:19.000Z</time>
      </trkpt>
      <trkpt lat="42.36623" lon="19.48091">
        <ele>738.42999267578</ele>
        <time>2024-09-23T12:16:20.000Z</time>
      </trkpt>
      <trkpt lat="42.36617" lon="19.481">
        <ele>739.39001464844</ele>
        <time>2024-09-23T12:16:21.000Z</time>
      </trkpt>
      <trkpt lat="42.36612" lon="19.48106">
        <ele>739.86999511719</ele>
        <time>2024-09-23T12:16:22.000Z</time>
      </trkpt>
      <trkpt lat="42.36606" lon="19.48112">
        <ele>740.83001708984</ele>
        <time>2024-09-23T12:16:23.000Z</time>
      </trkpt>
      <trkpt lat="42.36599" lon="19.48116">
        <ele>741.78997802734</ele>
        <time>2024-09-23T12:16:24.000Z</time>
      </trkpt>
      <trkpt lat="42.36592" lon="19.48118">
        <ele>742.28002929688</ele>
        <time>2024-09-23T12:16:25.000Z</time>
      </trkpt>
      <trkpt lat="42.36586" lon="19.48118">
        <ele>742.28002929688</ele>
        <time>2024-09-23T12:16:26.000Z</time>
      </trkpt>
      <trkpt lat="42.36579" lon="19.48116">
        <ele>742.76000976562</ele>
        <time>2024-09-23T12:16:27.000Z</time>
      </trkpt>
      <trkpt lat="42.36574" lon="19.4811">
        <ele>742.76000976562</ele>
        <time>2024-09-23T12:16:28.000Z</time>
      </trkpt>
      <trkpt lat="42.3657" lon="19.48101">
        <ele>743.23999023438</ele>
        <time>2024-09-23T12:16:29.000Z</time>
      </trkpt>
      <trkpt lat="42.36565" lon="19.48084">
        <ele>744.67999267578</ele>
        <time>2024-09-23T12:16:30.000Z</time>
      </trkpt>
      <trkpt lat="42.36563" lon="19.4808">
        <ele>744.67999267578</ele>
        <time>2024-09-23T12:16:31.000Z</time>
      </trkpt>
      <trkpt lat="42.36553" lon="19.48054">
        <ele>744.67999267578</ele>
        <time>2024-09-23T12:16:33.000Z</time>
      </trkpt>
      <trkpt lat="42.36546" lon="19.48035">
        <ele>743.71997070312</ele>
        <time>2024-09-23T12:16:34.000Z</time>
      </trkpt>
      <trkpt lat="42.36538" lon="19.48007">
        <ele>742.76000976562</ele>
        <time>2024-09-23T12:16:36.000Z</time>
      </trkpt>
      <trkpt lat="42.36531" lon="19.4799">
        <ele>742.28002929688</ele>
        <time>2024-09-23T12:16:37.000Z</time>
      </trkpt>
      <trkpt lat="42.36526" lon="19.47979">
        <ele>741.78997802734</ele>
        <time>2024-09-23T12:16:38.000Z</time>
      </trkpt>
      <trkpt lat="42.36518" lon="19.47966">
        <ele>740.83001708984</ele>
        <time>2024-09-23T12:16:39.000Z</time>
      </trkpt>
      <trkpt lat="42.36508" lon="19.47954">
        <ele>739.86999511719</ele>
        <time>2024-09-23T12:16:40.000Z</time>
      </trkpt>
      <trkpt lat="42.36494" lon="19.47941">
        <ele>738.90997314453</ele>
        <time>2024-09-23T12:16:41.000Z</time>
      </trkpt>
      <trkpt lat="42.36487" lon="19.47935">
        <ele>738.42999267578</ele>
        <time>2024-09-23T12:16:42.000Z</time>
      </trkpt>
      <trkpt lat="42.36477" lon="19.47929">
        <ele>737.95001220703</ele>
        <time>2024-09-23T12:16:43.000Z</time>
      </trkpt>
      <trkpt lat="42.36467" lon="19.47926">
        <ele>736.51000976562</ele>
        <time>2024-09-23T12:16:44.000Z</time>
      </trkpt>
      <trkpt lat="42.36429" lon="19.47927">
        <ele>733.14001464844</ele>
        <time>2024-09-23T12:16:47.000Z</time>
      </trkpt>
      <trkpt lat="42.36425" lon="19.47927">
        <ele>732.65997314453</ele>
        <time>2024-09-23T12:16:48.000Z</time>
      </trkpt>
      <trkpt lat="42.36414" lon="19.4793">
        <ele>732.17999267578</ele>
        <time>2024-09-23T12:16:49.000Z</time>
      </trkpt>
      <trkpt lat="42.3639" lon="19.47947">
        <ele>730.26000976562</ele>
        <time>2024-09-23T12:16:51.000Z</time>
      </trkpt>
      <trkpt lat="42.36384" lon="19.47952">
        <ele>729.78002929688</ele>
        <time>2024-09-23T12:16:52.000Z</time>
      </trkpt>
      <trkpt lat="42.36376" lon="19.4796">
        <ele>728.82000732422</ele>
        <time>2024-09-23T12:16:53.000Z</time>
      </trkpt>
      <trkpt lat="42.36369" lon="19.47969">
        <ele>727.85998535156</ele>
        <time>2024-09-23T12:16:54.000Z</time>
      </trkpt>
      <trkpt lat="42.36362" lon="19.4798">
        <ele>726.40997314453</ele>
        <time>2024-09-23T12:16:55.000Z</time>
      </trkpt>
      <trkpt lat="42.36356" lon="19.48">
        <ele>724.96997070312</ele>
        <time>2024-09-23T12:16:56.000Z</time>
      </trkpt>
      <trkpt lat="42.36354" lon="19.48005">
        <ele>724.96997070312</ele>
        <time>2024-09-23T12:16:57.000Z</time>
      </trkpt>
      <trkpt lat="42.36348" lon="19.48015">
        <ele>724.01000976562</ele>
        <time>2024-09-23T12:16:58.000Z</time>
      </trkpt>
      <trkpt lat="42.36341" lon="19.48022">
        <ele>723.04998779297</ele>
        <time>2024-09-23T12:16:59.000Z</time>
      </trkpt>
      <trkpt lat="42.36333" lon="19.48025">
        <ele>722.57000732422</ele>
        <time>2024-09-23T12:17:00.000Z</time>
      </trkpt>
      <trkpt lat="42.36325" lon="19.48024">
        <ele>722.09002685547</ele>
        <time>2024-09-23T12:17:01.000Z</time>
      </trkpt>
      <trkpt lat="42.36305" lon="19.4801">
        <ele>720.65002441406</ele>
        <time>2024-09-23T12:17:03.000Z</time>
      </trkpt>
      <trkpt lat="42.36295" lon="19.48004">
        <ele>720.65002441406</ele>
        <time>2024-09-23T12:17:04.000Z</time>
      </trkpt>
      <trkpt lat="42.36287" lon="19.47998">
        <ele>720.65002441406</ele>
        <time>2024-09-23T12:17:05.000Z</time>
      </trkpt>
      <trkpt lat="42.36278" lon="19.4799">
        <ele>720.15997314453</ele>
        <time>2024-09-23T12:17:06.000Z</time>
      </trkpt>
      <trkpt lat="42.3627" lon="19.47985">
        <ele>720.65002441406</ele>
        <time>2024-09-23T12:17:07.000Z</time>
      </trkpt>
      <trkpt lat="42.36262" lon="19.47983">
        <ele>720.15997314453</ele>
        <time>2024-09-23T12:17:08.000Z</time>
      </trkpt>
      <trkpt lat="42.36254" lon="19.47981">
        <ele>720.15997314453</ele>
        <time>2024-09-23T12:17:09.000Z</time>
      </trkpt>
      <trkpt lat="42.36248" lon="19.47976">
        <ele>719.67999267578</ele>
        <time>2024-09-23T12:17:10.000Z</time>
      </trkpt>
      <trkpt lat="42.36241" lon="19.4797">
        <ele>719.20001220703</ele>
        <time>2024-09-23T12:17:11.000Z</time>
      </trkpt>
      <trkpt lat="42.36233" lon="19.47964">
        <ele>719.67999267578</ele>
        <time>2024-09-23T12:17:12.000Z</time>
      </trkpt>
      <trkpt lat="42.36225" lon="19.4796">
        <ele>719.20001220703</ele>
        <time>2024-09-23T12:17:13.000Z</time>
      </trkpt>
      <trkpt lat="42.36219" lon="19.47958">
        <ele>718.23999023438</ele>
        <time>2024-09-23T12:17:14.000Z</time>
      </trkpt>
      <trkpt lat="42.36211" lon="19.47957">
        <ele>717.76000976562</ele>
        <time>2024-09-23T12:17:15.000Z</time>
      </trkpt>
      <trkpt lat="42.36202" lon="19.47961">
        <ele>718.23999023438</ele>
        <time>2024-09-23T12:17:16.000Z</time>
      </trkpt>
      <trkpt lat="42.36193" lon="19.47969">
        <ele>719.20001220703</ele>
        <time>2024-09-23T12:17:17.000Z</time>
      </trkpt>
      <trkpt lat="42.36179" lon="19.47982">
        <ele>719.67999267578</ele>
        <time>2024-09-23T12:17:18.000Z</time>
      </trkpt>
      <trkpt lat="42.36175" lon="19.47985">
        <ele>720.15997314453</ele>
        <time>2024-09-23T12:17:19.000Z</time>
      </trkpt>
      <trkpt lat="42.36166" lon="19.4799">
        <ele>720.15997314453</ele>
        <time>2024-09-23T12:17:20.000Z</time>
      </trkpt>
      <trkpt lat="42.36156" lon="19.47993">
        <ele>719.67999267578</ele>
        <time>2024-09-23T12:17:21.000Z</time>
      </trkpt>
      <trkpt lat="42.36146" lon="19.47998">
        <ele>719.67999267578</ele>
        <time>2024-09-23T12:17:22.000Z</time>
      </trkpt>
      <trkpt lat="42.36137" lon="19.48">
        <ele>719.20001220703</ele>
        <time>2024-09-23T12:17:23.000Z</time>
      </trkpt>
      <trkpt lat="42.36115" lon="19.47996">
        <ele>719.67999267578</ele>
        <time>2024-09-23T12:17:25.000Z</time>
      </trkpt>
      <trkpt lat="42.36107" lon="19.47995">
        <ele>720.15997314453</ele>
        <time>2024-09-23T12:17:26.000Z</time>
      </trkpt>
      <trkpt lat="42.36085" lon="19.47995">
        <ele>718.71997070312</ele>
        <time>2024-09-23T12:17:28.000Z</time>
      </trkpt>
      <trkpt lat="42.36073" lon="19.47996">
        <ele>718.23999023438</ele>
        <time>2024-09-23T12:17:29.000Z</time>
      </trkpt>
      <trkpt lat="42.36056" lon="19.48">
        <ele>718.71997070312</ele>
        <time>2024-09-23T12:17:31.000Z</time>
      </trkpt>
      <trkpt lat="42.3605" lon="19.48004">
        <ele>719.20001220703</ele>
        <time>2024-09-23T12:17:32.000Z</time>
      </trkpt>
      <trkpt lat="42.36044" lon="19.4801">
        <ele>719.67999267578</ele>
        <time>2024-09-23T12:17:33.000Z</time>
      </trkpt>
      <trkpt lat="42.3604" lon="19.48019">
        <ele>720.15997314453</ele>
        <time>2024-09-23T12:17:34.000Z</time>
      </trkpt>
      <trkpt lat="42.36036" lon="19.48028">
        <ele>720.65002441406</ele>
        <time>2024-09-23T12:17:35.000Z</time>
      </trkpt>
      <trkpt lat="42.3603" lon="19.48037">
        <ele>720.65002441406</ele>
        <time>2024-09-23T12:17:36.000Z</time>
      </trkpt>
      <trkpt lat="42.36022" lon="19.48048">
        <ele>720.65002441406</ele>
        <time>2024-09-23T12:17:37.000Z</time>
      </trkpt>
      <trkpt lat="42.36013" lon="19.48058">
        <ele>720.15997314453</ele>
        <time>2024-09-23T12:17:38.000Z</time>
      </trkpt>
      <trkpt lat="42.3599" lon="19.48083">
        <ele>720.15997314453</ele>
        <time>2024-09-23T12:17:40.000Z</time>
      </trkpt>
      <trkpt lat="42.35982" lon="19.48091">
        <ele>719.20001220703</ele>
        <time>2024-09-23T12:17:41.000Z</time>
      </trkpt>
      <trkpt lat="42.3598" lon="19.48093">
        <ele>719.20001220703</ele>
        <time>2024-09-23T12:17:42.000Z</time>
      </trkpt>
      <trkpt lat="42.3597" lon="19.48101">
        <ele>718.23999023438</ele>
        <time>2024-09-23T12:17:43.000Z</time>
      </trkpt>
      <trkpt lat="42.3596" lon="19.48107">
        <ele>717.28002929688</ele>
        <time>2024-09-23T12:17:44.000Z</time>
      </trkpt>
      <trkpt lat="42.35948" lon="19.48115">
        <ele>715.84002685547</ele>
        <time>2024-09-23T12:17:45.000Z</time>
      </trkpt>
      <trkpt lat="42.35941" lon="19.48121">
        <ele>714.88000488281</ele>
        <time>2024-09-23T12:17:46.000Z</time>
      </trkpt>
      <trkpt lat="42.35931" lon="19.48137">
        <ele>714.40002441406</ele>
        <time>2024-09-23T12:17:47.000Z</time>
      </trkpt>
      <trkpt lat="42.35927" lon="19.48143">
        <ele>713.91998291016</ele>
        <time>2024-09-23T12:17:48.000Z</time>
      </trkpt>
      <trkpt lat="42.35912" lon="19.48164">
        <ele>713.91998291016</ele>
        <time>2024-09-23T12:17:49.000Z</time>
      </trkpt>
      <trkpt lat="42.35909" lon="19.4817">
        <ele>713.91998291016</ele>
        <time>2024-09-23T12:17:50.000Z</time>
      </trkpt>
      <trkpt lat="42.359" lon="19.48185">
        <ele>713.91998291016</ele>
        <time>2024-09-23T12:17:51.000Z</time>
      </trkpt>
      <trkpt lat="42.35887" lon="19.48215">
        <ele>715.35998535156</ele>
        <time>2024-09-23T12:17:52.000Z</time>
      </trkpt>
      <trkpt lat="42.35885" lon="19.48219">
        <ele>715.84002685547</ele>
        <time>2024-09-23T12:17:53.000Z</time>
      </trkpt>
      <trkpt lat="42.35877" lon="19.48241">
        <ele>717.28002929688</ele>
        <time>2024-09-23T12:17:54.000Z</time>
      </trkpt>
      <trkpt lat="42.35875" lon="19.48247">
        <ele>717.76000976562</ele>
        <time>2024-09-23T12:17:55.000Z</time>
      </trkpt>
      <trkpt lat="42.35867" lon="19.48264">
        <ele>718.23999023438</ele>
        <time>2024-09-23T12:17:56.000Z</time>
      </trkpt>
      <trkpt lat="42.35865" lon="19.48269">
        <ele>718.23999023438</ele>
        <time>2024-09-23T12:17:57.000Z</time>
      </trkpt>
      <trkpt lat="42.35861" lon="19.48284">
        <ele>718.71997070312</ele>
        <time>2024-09-23T12:17:58.000Z</time>
      </trkpt>
      <trkpt lat="42.35856" lon="19.48301">
        <ele>719.20001220703</ele>
        <time>2024-09-23T12:17:59.000Z</time>
      </trkpt>
      <trkpt lat="42.35851" lon="19.48315">
        <ele>719.67999267578</ele>
        <time>2024-09-23T12:18:00.000Z</time>
      </trkpt>
      <trkpt lat="42.35843" lon="19.48328">
        <ele>720.65002441406</ele>
        <time>2024-09-23T12:18:01.000Z</time>
      </trkpt>
      <trkpt lat="42.3583" lon="19.48346">
        <ele>723.04998779297</ele>
        <time>2024-09-23T12:18:02.000Z</time>
      </trkpt>
      <trkpt lat="42.35827" lon="19.4835">
        <ele>724.01000976562</ele>
        <time>2024-09-23T12:18:03.000Z</time>
      </trkpt>
      <trkpt lat="42.35819" lon="19.48358">
        <ele>725.45001220703</ele>
        <time>2024-09-23T12:18:04.000Z</time>
      </trkpt>
      <trkpt lat="42.35809" lon="19.48362">
        <ele>726.40997314453</ele>
        <time>2024-09-23T12:18:05.000Z</time>
      </trkpt>
      <trkpt lat="42.35797" lon="19.48364">
        <ele>727.36999511719</ele>
        <time>2024-09-23T12:18:06.000Z</time>
      </trkpt>
      <trkpt lat="42.35779" lon="19.48366">
        <ele>728.34002685547</ele>
        <time>2024-09-23T12:18:07.000Z</time>
      </trkpt>
      <trkpt lat="42.35777" lon="19.48366">
        <ele>728.82000732422</ele>
        <time>2024-09-23T12:18:08.000Z</time>
      </trkpt>
      <trkpt lat="42.35769" lon="19.48364">
        <ele>728.82000732422</ele>
        <time>2024-09-23T12:18:09.000Z</time>
      </trkpt>
      <trkpt lat="42.35762" lon="19.48359">
        <ele>729.29998779297</ele>
        <time>2024-09-23T12:18:10.000Z</time>
      </trkpt>
      <trkpt lat="42.35755" lon="19.48349">
        <ele>729.78002929688</ele>
        <time>2024-09-23T12:18:11.000Z</time>
      </trkpt>
      <trkpt lat="42.35749" lon="19.48343">
        <ele>730.26000976562</ele>
        <time>2024-09-23T12:18:12.000Z</time>
      </trkpt>
      <trkpt lat="42.35743" lon="19.48337">
        <ele>731.21997070312</ele>
        <time>2024-09-23T12:18:13.000Z</time>
      </trkpt>
      <trkpt lat="42.35736" lon="19.48334">
        <ele>731.70001220703</ele>
        <time>2024-09-23T12:18:14.000Z</time>
      </trkpt>
      <trkpt lat="42.35729" lon="19.48335">
        <ele>732.65997314453</ele>
        <time>2024-09-23T12:18:15.000Z</time>
      </trkpt>
      <trkpt lat="42.35722" lon="19.4834">
        <ele>734.09997558594</ele>
        <time>2024-09-23T12:18:16.000Z</time>
      </trkpt>
      <trkpt lat="42.35715" lon="19.48347">
        <ele>735.07000732422</ele>
        <time>2024-09-23T12:18:17.000Z</time>
      </trkpt>
      <trkpt lat="42.35709" lon="19.48351">
        <ele>735.54998779297</ele>
        <time>2024-09-23T12:18:18.000Z</time>
      </trkpt>
      <trkpt lat="42.35701" lon="19.48354">
        <ele>736.51000976562</ele>
        <time>2024-09-23T12:18:19.000Z</time>
      </trkpt>
      <trkpt lat="42.35692" lon="19.48354">
        <ele>736.98999023438</ele>
        <time>2024-09-23T12:18:20.000Z</time>
      </trkpt>
      <trkpt lat="42.35683" lon="19.48351">
        <ele>737.95001220703</ele>
        <time>2024-09-23T12:18:21.000Z</time>
      </trkpt>
      <trkpt lat="42.35674" lon="19.48346">
        <ele>738.90997314453</ele>
        <time>2024-09-23T12:18:22.000Z</time>
      </trkpt>
      <trkpt lat="42.35663" lon="19.48337">
        <ele>740.34997558594</ele>
        <time>2024-09-23T12:18:23.000Z</time>
      </trkpt>
      <trkpt lat="42.35659" lon="19.48334">
        <ele>741.30999755859</ele>
        <time>2024-09-23T12:18:24.000Z</time>
      </trkpt>
      <trkpt lat="42.35652" lon="19.48331">
        <ele>741.78997802734</ele>
        <time>2024-09-23T12:18:25.000Z</time>
      </trkpt>
      <trkpt lat="42.35644" lon="19.4833">
        <ele>741.78997802734</ele>
        <time>2024-09-23T12:18:26.000Z</time>
      </trkpt>
      <trkpt lat="42.35636" lon="19.48333">
        <ele>742.76000976562</ele>
        <time>2024-09-23T12:18:27.000Z</time>
      </trkpt>
      <trkpt lat="42.3563" lon="19.48339">
        <ele>742.76000976562</ele>
        <time>2024-09-23T12:18:28.000Z</time>
      </trkpt>
      <trkpt lat="42.35624" lon="19.48347">
        <ele>743.71997070312</ele>
        <time>2024-09-23T12:18:29.000Z</time>
      </trkpt>
      <trkpt lat="42.35615" lon="19.48356">
        <ele>744.20001220703</ele>
        <time>2024-09-23T12:18:30.000Z</time>
      </trkpt>
      <trkpt lat="42.35605" lon="19.48363">
        <ele>745.15997314453</ele>
        <time>2024-09-23T12:18:31.000Z</time>
      </trkpt>
      <trkpt lat="42.35595" lon="19.48367">
        <ele>745.15997314453</ele>
        <time>2024-09-23T12:18:32.000Z</time>
      </trkpt>
      <trkpt lat="42.35581" lon="19.48372">
        <ele>746.11999511719</ele>
        <time>2024-09-23T12:18:33.000Z</time>
      </trkpt>
      <trkpt lat="42.35564" lon="19.48375">
        <ele>747.55999755859</ele>
        <time>2024-09-23T12:18:34.000Z</time>
      </trkpt>
      <trkpt lat="42.35549" lon="19.48376">
        <ele>749</ele>
        <time>2024-09-23T12:18:35.000Z</time>
      </trkpt>
      <trkpt lat="42.35512" lon="19.48377">
        <ele>753.33001708984</ele>
        <time>2024-09-23T12:18:37.000Z</time>
      </trkpt>
      <trkpt lat="42.35506" lon="19.48377">
        <ele>753.80999755859</ele>
        <time>2024-09-23T12:18:38.000Z</time>
      </trkpt>
      <trkpt lat="42.35495" lon="19.48375">
        <ele>755.25</ele>
        <time>2024-09-23T12:18:39.000Z</time>
      </trkpt>
      <trkpt lat="42.35459" lon="19.48361">
        <ele>759.09997558594</ele>
        <time>2024-09-23T12:18:42.000Z</time>
      </trkpt>
      <trkpt lat="42.35455" lon="19.4836">
        <ele>759.09997558594</ele>
        <time>2024-09-23T12:18:43.000Z</time>
      </trkpt>
      <trkpt lat="42.35444" lon="19.48359">
        <ele>758.61999511719</ele>
        <time>2024-09-23T12:18:44.000Z</time>
      </trkpt>
      <trkpt lat="42.35433" lon="19.48361">
        <ele>758.14001464844</ele>
        <time>2024-09-23T12:18:45.000Z</time>
      </trkpt>
      <trkpt lat="42.35422" lon="19.48366">
        <ele>758.14001464844</ele>
        <time>2024-09-23T12:18:46.000Z</time>
      </trkpt>
      <trkpt lat="42.35413" lon="19.48374">
        <ele>759.09997558594</ele>
        <time>2024-09-23T12:18:47.000Z</time>
      </trkpt>
      <trkpt lat="42.35404" lon="19.48384">
        <ele>760.05999755859</ele>
        <time>2024-09-23T12:18:48.000Z</time>
      </trkpt>
      <trkpt lat="42.35398" lon="19.48396">
        <ele>760.53997802734</ele>
        <time>2024-09-23T12:18:49.000Z</time>
      </trkpt>
      <trkpt lat="42.35384" lon="19.48446">
        <ele>763.90002441406</ele>
        <time>2024-09-23T12:18:52.000Z</time>
      </trkpt>
      <trkpt lat="42.35383" lon="19.4845">
        <ele>763.90002441406</ele>
        <time>2024-09-23T12:18:53.000Z</time>
      </trkpt>
      <trkpt lat="42.35382" lon="19.4846">
        <ele>764.39001464844</ele>
        <time>2024-09-23T12:18:54.000Z</time>
      </trkpt>
      <trkpt lat="42.35381" lon="19.48474">
        <ele>764.86999511719</ele>
        <time>2024-09-23T12:18:55.000Z</time>
      </trkpt>
      <trkpt lat="42.35385" lon="19.48522">
        <ele>765.34997558594</ele>
        <time>2024-09-23T12:18:58.000Z</time>
      </trkpt>
      <trkpt lat="42.35387" lon="19.48537">
        <ele>764.86999511719</ele>
        <time>2024-09-23T12:18:59.000Z</time>
      </trkpt>
      <trkpt lat="42.35391" lon="19.48584">
        <ele>762.94000244141</ele>
        <time>2024-09-23T12:19:02.000Z</time>
      </trkpt>
      <trkpt lat="42.35391" lon="19.48599">
        <ele>761.97998046875</ele>
        <time>2024-09-23T12:19:03.000Z</time>
      </trkpt>
      <trkpt lat="42.3539" lon="19.48617">
        <ele>761.02001953125</ele>
        <time>2024-09-23T12:19:04.000Z</time>
      </trkpt>
      <trkpt lat="42.35385" lon="19.48656">
        <ele>758.61999511719</ele>
        <time>2024-09-23T12:19:06.000Z</time>
      </trkpt>
      <trkpt lat="42.35383" lon="19.48674">
        <ele>759.09997558594</ele>
        <time>2024-09-23T12:19:07.000Z</time>
      </trkpt>
      <trkpt lat="42.35381" lon="19.48699">
        <ele>761.02001953125</ele>
        <time>2024-09-23T12:19:09.000Z</time>
      </trkpt>
      <trkpt lat="42.35379" lon="19.4871">
        <ele>761.02001953125</ele>
        <time>2024-09-23T12:19:10.000Z</time>
      </trkpt>
      <trkpt lat="42.35377" lon="19.4872">
        <ele>761.02001953125</ele>
        <time>2024-09-23T12:19:11.000Z</time>
      </trkpt>
      <trkpt lat="42.35372" lon="19.48728">
        <ele>760.53997802734</ele>
        <time>2024-09-23T12:19:12.000Z</time>
      </trkpt>
      <trkpt lat="42.35366" lon="19.48734">
        <ele>760.05999755859</ele>
        <time>2024-09-23T12:19:13.000Z</time>
      </trkpt>
      <trkpt lat="42.35358" lon="19.48736">
        <ele>759.58001708984</ele>
        <time>2024-09-23T12:19:14.000Z</time>
      </trkpt>
      <trkpt lat="42.35348" lon="19.48738">
        <ele>758.61999511719</ele>
        <time>2024-09-23T12:19:15.000Z</time>
      </trkpt>
      <trkpt lat="42.35338" lon="19.48741">
        <ele>757.65997314453</ele>
        <time>2024-09-23T12:19:16.000Z</time>
      </trkpt>
      <trkpt lat="42.35328" lon="19.48746">
        <ele>757.65997314453</ele>
        <time>2024-09-23T12:19:17.000Z</time>
      </trkpt>
      <trkpt lat="42.35318" lon="19.48749">
        <ele>757.17999267578</ele>
        <time>2024-09-23T12:19:18.000Z</time>
      </trkpt>
      <trkpt lat="42.35308" lon="19.48749">
        <ele>755.72998046875</ele>
        <time>2024-09-23T12:19:19.000Z</time>
      </trkpt>
      <trkpt lat="42.3522" lon="19.48731">
        <ele>750.45001220703</ele>
        <time>2024-09-23T12:19:27.000Z</time>
      </trkpt>
      <trkpt lat="42.35209" lon="19.48729">
        <ele>749</ele>
        <time>2024-09-23T12:19:28.000Z</time>
      </trkpt>
      <trkpt lat="42.35197" lon="19.48729">
        <ele>748.52001953125</ele>
        <time>2024-09-23T12:19:29.000Z</time>
      </trkpt>
      <trkpt lat="42.35186" lon="19.48732">
        <ele>747.08001708984</ele>
        <time>2024-09-23T12:19:30.000Z</time>
      </trkpt>
      <trkpt lat="42.35171" lon="19.48738">
        <ele>746.11999511719</ele>
        <time>2024-09-23T12:19:31.000Z</time>
      </trkpt>
      <trkpt lat="42.35147" lon="19.48751">
        <ele>745.15997314453</ele>
        <time>2024-09-23T12:19:33.000Z</time>
      </trkpt>
      <trkpt lat="42.35143" lon="19.48754">
        <ele>745.15997314453</ele>
        <time>2024-09-23T12:19:34.000Z</time>
      </trkpt>
      <trkpt lat="42.35134" lon="19.48762">
        <ele>744.20001220703</ele>
        <time>2024-09-23T12:19:35.000Z</time>
      </trkpt>
      <trkpt lat="42.35127" lon="19.4877">
        <ele>743.23999023438</ele>
        <time>2024-09-23T12:19:36.000Z</time>
      </trkpt>
      <trkpt lat="42.35121" lon="19.4878">
        <ele>742.28002929688</ele>
        <time>2024-09-23T12:19:37.000Z</time>
      </trkpt>
      <trkpt lat="42.35118" lon="19.48787">
        <ele>741.78997802734</ele>
        <time>2024-09-23T12:19:38.000Z</time>
      </trkpt>
      <trkpt lat="42.35114" lon="19.48797">
        <ele>740.83001708984</ele>
        <time>2024-09-23T12:19:39.000Z</time>
      </trkpt>
      <trkpt lat="42.3511" lon="19.48813">
        <ele>739.86999511719</ele>
        <time>2024-09-23T12:19:40.000Z</time>
      </trkpt>
      <trkpt lat="42.35092" lon="19.48885">
        <ele>736.98999023438</ele>
        <time>2024-09-23T12:19:45.000Z</time>
      </trkpt>
      <trkpt lat="42.35091" lon="19.48888">
        <ele>736.98999023438</ele>
        <time>2024-09-23T12:19:46.000Z</time>
      </trkpt>
      <trkpt lat="42.35084" lon="19.48904">
        <ele>736.03002929688</ele>
        <time>2024-09-23T12:19:47.000Z</time>
      </trkpt>
      <trkpt lat="42.35074" lon="19.48923">
        <ele>734.58001708984</ele>
        <time>2024-09-23T12:19:48.000Z</time>
      </trkpt>
      <trkpt lat="42.35057" lon="19.48954">
        <ele>733.14001464844</ele>
        <time>2024-09-23T12:19:50.000Z</time>
      </trkpt>
      <trkpt lat="42.35048" lon="19.48969">
        <ele>733.14001464844</ele>
        <time>2024-09-23T12:19:51.000Z</time>
      </trkpt>
      <trkpt lat="42.35031" lon="19.48996">
        <ele>732.65997314453</ele>
        <time>2024-09-23T12:19:52.000Z</time>
      </trkpt>
      <trkpt lat="42.3501" lon="19.49026">
        <ele>731.21997070312</ele>
        <time>2024-09-23T12:19:54.000Z</time>
      </trkpt>
      <trkpt lat="42.34999" lon="19.49042">
        <ele>731.70001220703</ele>
        <time>2024-09-23T12:19:55.000Z</time>
      </trkpt>
      <trkpt lat="42.34996" lon="19.49047">
        <ele>732.17999267578</ele>
        <time>2024-09-23T12:19:56.000Z</time>
      </trkpt>
      <trkpt lat="42.34989" lon="19.4906">
        <ele>732.17999267578</ele>
        <time>2024-09-23T12:19:57.000Z</time>
      </trkpt>
      <trkpt lat="42.34981" lon="19.49074">
        <ele>731.70001220703</ele>
        <time>2024-09-23T12:19:58.000Z</time>
      </trkpt>
      <trkpt lat="42.3494" lon="19.49121">
        <ele>728.82000732422</ele>
        <time>2024-09-23T12:20:02.000Z</time>
      </trkpt>
      <trkpt lat="42.34937" lon="19.49125">
        <ele>728.82000732422</ele>
        <time>2024-09-23T12:20:03.000Z</time>
      </trkpt>
      <trkpt lat="42.34921" lon="19.49148">
        <ele>730.26000976562</ele>
        <time>2024-09-23T12:20:05.000Z</time>
      </trkpt>
      <trkpt lat="42.34915" lon="19.49159">
        <ele>730.26000976562</ele>
        <time>2024-09-23T12:20:06.000Z</time>
      </trkpt>
      <trkpt lat="42.34909" lon="19.49173">
        <ele>730.26000976562</ele>
        <time>2024-09-23T12:20:07.000Z</time>
      </trkpt>
      <trkpt lat="42.34904" lon="19.49188">
        <ele>730.73999023438</ele>
        <time>2024-09-23T12:20:08.000Z</time>
      </trkpt>
      <trkpt lat="42.34902" lon="19.49203">
        <ele>731.21997070312</ele>
        <time>2024-09-23T12:20:09.000Z</time>
      </trkpt>
      <trkpt lat="42.349" lon="19.49217">
        <ele>731.70001220703</ele>
        <time>2024-09-23T12:20:10.000Z</time>
      </trkpt>
      <trkpt lat="42.34898" lon="19.49229">
        <ele>732.17999267578</ele>
        <time>2024-09-23T12:20:11.000Z</time>
      </trkpt>
      <trkpt lat="42.34893" lon="19.49238">
        <ele>732.17999267578</ele>
        <time>2024-09-23T12:20:12.000Z</time>
      </trkpt>
      <trkpt lat="42.34885" lon="19.49245">
        <ele>731.70001220703</ele>
        <time>2024-09-23T12:20:13.000Z</time>
      </trkpt>
      <trkpt lat="42.3485" lon="19.49267">
        <ele>728.34002685547</ele>
        <time>2024-09-23T12:20:16.000Z</time>
      </trkpt>
      <trkpt lat="42.34827" lon="19.49287">
        <ele>726.89001464844</ele>
        <time>2024-09-23T12:20:18.000Z</time>
      </trkpt>
      <trkpt lat="42.34812" lon="19.49298">
        <ele>726.40997314453</ele>
        <time>2024-09-23T12:20:19.000Z</time>
      </trkpt>
      <trkpt lat="42.34802" lon="19.49304">
        <ele>726.40997314453</ele>
        <time>2024-09-23T12:20:20.000Z</time>
      </trkpt>
      <trkpt lat="42.34789" lon="19.49314">
        <ele>726.40997314453</ele>
        <time>2024-09-23T12:20:21.000Z</time>
      </trkpt>
      <trkpt lat="42.34778" lon="19.49325">
        <ele>726.89001464844</ele>
        <time>2024-09-23T12:20:22.000Z</time>
      </trkpt>
      <trkpt lat="42.34737" lon="19.49375">
        <ele>731.21997070312</ele>
        <time>2024-09-23T12:20:26.000Z</time>
      </trkpt>
      <trkpt lat="42.34731" lon="19.49382">
        <ele>731.21997070312</ele>
        <time>2024-09-23T12:20:27.000Z</time>
      </trkpt>
      <trkpt lat="42.34722" lon="19.49387">
        <ele>731.70001220703</ele>
        <time>2024-09-23T12:20:28.000Z</time>
      </trkpt>
      <trkpt lat="42.34712" lon="19.49391">
        <ele>731.70001220703</ele>
        <time>2024-09-23T12:20:29.000Z</time>
      </trkpt>
      <trkpt lat="42.347" lon="19.49392">
        <ele>730.73999023438</ele>
        <time>2024-09-23T12:20:30.000Z</time>
      </trkpt>
      <trkpt lat="42.34692" lon="19.49394">
        <ele>730.26000976562</ele>
        <time>2024-09-23T12:20:31.000Z</time>
      </trkpt>
      <trkpt lat="42.34673" lon="19.49402">
        <ele>729.29998779297</ele>
        <time>2024-09-23T12:20:33.000Z</time>
      </trkpt>
      <trkpt lat="42.34664" lon="19.49404">
        <ele>728.82000732422</ele>
        <time>2024-09-23T12:20:34.000Z</time>
      </trkpt>
      <trkpt lat="42.34656" lon="19.49403">
        <ele>728.34002685547</ele>
        <time>2024-09-23T12:20:35.000Z</time>
      </trkpt>
      <trkpt lat="42.34649" lon="19.49397">
        <ele>727.85998535156</ele>
        <time>2024-09-23T12:20:36.000Z</time>
      </trkpt>
      <trkpt lat="42.34644" lon="19.4939">
        <ele>727.85998535156</ele>
        <time>2024-09-23T12:20:37.000Z</time>
      </trkpt>
      <trkpt lat="42.34638" lon="19.49383">
        <ele>726.89001464844</ele>
        <time>2024-09-23T12:20:38.000Z</time>
      </trkpt>
      <trkpt lat="42.34623" lon="19.49368">
        <ele>726.40997314453</ele>
        <time>2024-09-23T12:20:40.000Z</time>
      </trkpt>
      <trkpt lat="42.34617" lon="19.49363">
        <ele>725.92999267578</ele>
        <time>2024-09-23T12:20:41.000Z</time>
      </trkpt>
      <trkpt lat="42.34609" lon="19.49357">
        <ele>725.45001220703</ele>
        <time>2024-09-23T12:20:42.000Z</time>
      </trkpt>
      <trkpt lat="42.346" lon="19.49353">
        <ele>725.45001220703</ele>
        <time>2024-09-23T12:20:43.000Z</time>
      </trkpt>
      <trkpt lat="42.34578" lon="19.49346">
        <ele>723.53002929688</ele>
        <time>2024-09-23T12:20:45.000Z</time>
      </trkpt>
      <trkpt lat="42.34568" lon="19.49343">
        <ele>722.57000732422</ele>
        <time>2024-09-23T12:20:46.000Z</time>
      </trkpt>
      <trkpt lat="42.3456" lon="19.49337">
        <ele>722.57000732422</ele>
        <time>2024-09-23T12:20:47.000Z</time>
      </trkpt>
      <trkpt lat="42.3455" lon="19.49323">
        <ele>722.09002685547</ele>
        <time>2024-09-23T12:20:48.000Z</time>
      </trkpt>
      <trkpt lat="42.34547" lon="19.4932">
        <ele>721.60998535156</ele>
        <time>2024-09-23T12:20:49.000Z</time>
      </trkpt>
      <trkpt lat="42.3454" lon="19.49314">
        <ele>722.09002685547</ele>
        <time>2024-09-23T12:20:50.000Z</time>
      </trkpt>
      <trkpt lat="42.34532" lon="19.49311">
        <ele>722.09002685547</ele>
        <time>2024-09-23T12:20:51.000Z</time>
      </trkpt>
      <trkpt lat="42.34523" lon="19.49313">
        <ele>722.09002685547</ele>
        <time>2024-09-23T12:20:52.000Z</time>
      </trkpt>
      <trkpt lat="42.34507" lon="19.4932">
        <ele>721.60998535156</ele>
        <time>2024-09-23T12:20:53.000Z</time>
      </trkpt>
      <trkpt lat="42.34503" lon="19.49321">
        <ele>721.60998535156</ele>
        <time>2024-09-23T12:20:54.000Z</time>
      </trkpt>
      <trkpt lat="42.34494" lon="19.49323">
        <ele>722.09002685547</ele>
        <time>2024-09-23T12:20:55.000Z</time>
      </trkpt>
      <trkpt lat="42.34486" lon="19.49324">
        <ele>722.57000732422</ele>
        <time>2024-09-23T12:20:56.000Z</time>
      </trkpt>
      <trkpt lat="42.34472" lon="19.49324">
        <ele>722.57000732422</ele>
        <time>2024-09-23T12:20:57.000Z</time>
      </trkpt>
      <trkpt lat="42.3447" lon="19.49324">
        <ele>722.57000732422</ele>
        <time>2024-09-23T12:20:58.000Z</time>
      </trkpt>
      <trkpt lat="42.34462" lon="19.49323">
        <ele>722.57000732422</ele>
        <time>2024-09-23T12:20:59.000Z</time>
      </trkpt>
      <trkpt lat="42.34449" lon="19.49321">
        <ele>722.09002685547</ele>
        <time>2024-09-23T12:21:00.000Z</time>
      </trkpt>
      <trkpt lat="42.34447" lon="19.49321">
        <ele>722.09002685547</ele>
        <time>2024-09-23T12:21:01.000Z</time>
      </trkpt>
      <trkpt lat="42.34442" lon="19.49321">
        <ele>721.60998535156</ele>
        <time>2024-09-23T12:21:02.000Z</time>
      </trkpt>
      <trkpt lat="42.34437" lon="19.49323">
        <ele>721.60998535156</ele>
        <time>2024-09-23T12:21:03.000Z</time>
      </trkpt>
      <trkpt lat="42.34433" lon="19.49328">
        <ele>721.13000488281</ele>
        <time>2024-09-23T12:21:04.000Z</time>
      </trkpt>
      <trkpt lat="42.3443" lon="19.49335">
        <ele>721.13000488281</ele>
        <time>2024-09-23T12:21:05.000Z</time>
      </trkpt>
      <trkpt lat="42.34429" lon="19.49344">
        <ele>720.65002441406</ele>
        <time>2024-09-23T12:21:06.000Z</time>
      </trkpt>
      <trkpt lat="42.34429" lon="19.49356">
        <ele>721.60998535156</ele>
        <time>2024-09-23T12:21:07.000Z</time>
      </trkpt>
      <trkpt lat="42.34429" lon="19.49362">
        <ele>722.09002685547</ele>
        <time>2024-09-23T12:21:08.000Z</time>
      </trkpt>
      <trkpt lat="42.34428" lon="19.4937">
        <ele>722.57000732422</ele>
        <time>2024-09-23T12:21:09.000Z</time>
      </trkpt>
      <trkpt lat="42.34425" lon="19.49377">
        <ele>723.04998779297</ele>
        <time>2024-09-23T12:21:10.000Z</time>
      </trkpt>
      <trkpt lat="42.34419" lon="19.49389">
        <ele>723.04998779297</ele>
        <time>2024-09-23T12:21:11.000Z</time>
      </trkpt>
      <trkpt lat="42.34418" lon="19.49391">
        <ele>723.04998779297</ele>
        <time>2024-09-23T12:21:12.000Z</time>
      </trkpt>
      <trkpt lat="42.34413" lon="19.49397">
        <ele>722.09002685547</ele>
        <time>2024-09-23T12:21:13.000Z</time>
      </trkpt>
      <trkpt lat="42.34407" lon="19.49403">
        <ele>722.09002685547</ele>
        <time>2024-09-23T12:21:14.000Z</time>
      </trkpt>
      <trkpt lat="42.34399" lon="19.49406">
        <ele>721.60998535156</ele>
        <time>2024-09-23T12:21:15.000Z</time>
      </trkpt>
      <trkpt lat="42.34387" lon="19.49409">
        <ele>720.15997314453</ele>
        <time>2024-09-23T12:21:16.000Z</time>
      </trkpt>
      <trkpt lat="42.34368" lon="19.49415">
        <ele>719.67999267578</ele>
        <time>2024-09-23T12:21:18.000Z</time>
      </trkpt>
      <trkpt lat="42.3436" lon="19.49416">
        <ele>719.67999267578</ele>
        <time>2024-09-23T12:21:19.000Z</time>
      </trkpt>
      <trkpt lat="42.34351" lon="19.49417">
        <ele>719.67999267578</ele>
        <time>2024-09-23T12:21:20.000Z</time>
      </trkpt>
      <trkpt lat="42.34288" lon="19.49406">
        <ele>713.44000244141</ele>
        <time>2024-09-23T12:21:25.000Z</time>
      </trkpt>
      <trkpt lat="42.34286" lon="19.49406">
        <ele>713.44000244141</ele>
        <time>2024-09-23T12:21:26.000Z</time>
      </trkpt>
      <trkpt lat="42.34277" lon="19.49403">
        <ele>711.98999023438</ele>
        <time>2024-09-23T12:21:27.000Z</time>
      </trkpt>
      <trkpt lat="42.34269" lon="19.49398">
        <ele>711.03002929688</ele>
        <time>2024-09-23T12:21:28.000Z</time>
      </trkpt>
      <trkpt lat="42.34261" lon="19.49392">
        <ele>710.07000732422</ele>
        <time>2024-09-23T12:21:29.000Z</time>
      </trkpt>
      <trkpt lat="42.34256" lon="19.49389">
        <ele>709.10998535156</ele>
        <time>2024-09-23T12:21:30.000Z</time>
      </trkpt>
      <trkpt lat="42.34248" lon="19.49387">
        <ele>708.15002441406</ele>
        <time>2024-09-23T12:21:31.000Z</time>
      </trkpt>
      <trkpt lat="42.34239" lon="19.49389">
        <ele>707.19000244141</ele>
        <time>2024-09-23T12:21:32.000Z</time>
      </trkpt>
      <trkpt lat="42.34226" lon="19.49394">
        <ele>705.26000976562</ele>
        <time>2024-09-23T12:21:33.000Z</time>
      </trkpt>
      <trkpt lat="42.34215" lon="19.49397">
        <ele>704.29998779297</ele>
        <time>2024-09-23T12:21:34.000Z</time>
      </trkpt>
      <trkpt lat="42.34205" lon="19.49398">
        <ele>703.34002685547</ele>
        <time>2024-09-23T12:21:35.000Z</time>
      </trkpt>
      <trkpt lat="42.34159" lon="19.49404">
        <ele>700.94000244141</ele>
        <time>2024-09-23T12:21:39.000Z</time>
      </trkpt>
      <trkpt lat="42.34131" lon="19.49414">
        <ele>700.46002197266</ele>
        <time>2024-09-23T12:21:42.000Z</time>
      </trkpt>
      <trkpt lat="42.34125" lon="19.49417">
        <ele>700.46002197266</ele>
        <time>2024-09-23T12:21:43.000Z</time>
      </trkpt>
      <trkpt lat="42.3412" lon="19.49424">
        <ele>700.46002197266</ele>
        <time>2024-09-23T12:21:44.000Z</time>
      </trkpt>
      <trkpt lat="42.34116" lon="19.49433">
        <ele>700.46002197266</ele>
        <time>2024-09-23T12:21:45.000Z</time>
      </trkpt>
      <trkpt lat="42.34113" lon="19.49447">
        <ele>701.41998291016</ele>
        <time>2024-09-23T12:21:46.000Z</time>
      </trkpt>
      <trkpt lat="42.34106" lon="19.49473">
        <ele>701.90002441406</ele>
        <time>2024-09-23T12:21:48.000Z</time>
      </trkpt>
      <trkpt lat="42.34105" lon="19.49484">
        <ele>701.90002441406</ele>
        <time>2024-09-23T12:21:49.000Z</time>
      </trkpt>
      <trkpt lat="42.34103" lon="19.49502">
        <ele>702.85998535156</ele>
        <time>2024-09-23T12:21:50.000Z</time>
      </trkpt>
      <trkpt lat="42.34102" lon="19.49506">
        <ele>702.85998535156</ele>
        <time>2024-09-23T12:21:51.000Z</time>
      </trkpt>
      <trkpt lat="42.34099" lon="19.49515">
        <ele>702.85998535156</ele>
        <time>2024-09-23T12:21:52.000Z</time>
      </trkpt>
      <trkpt lat="42.34093" lon="19.49523">
        <ele>702.85998535156</ele>
        <time>2024-09-23T12:21:53.000Z</time>
      </trkpt>
      <trkpt lat="42.34089" lon="19.49528">
        <ele>702.85998535156</ele>
        <time>2024-09-23T12:21:54.000Z</time>
      </trkpt>
      <trkpt lat="42.34085" lon="19.49537">
        <ele>703.82000732422</ele>
        <time>2024-09-23T12:21:55.000Z</time>
      </trkpt>
      <trkpt lat="42.34083" lon="19.49547">
        <ele>703.82000732422</ele>
        <time>2024-09-23T12:21:56.000Z</time>
      </trkpt>
      <trkpt lat="42.34081" lon="19.49557">
        <ele>703.34002685547</ele>
        <time>2024-09-23T12:21:57.000Z</time>
      </trkpt>
      <trkpt lat="42.34075" lon="19.49565">
        <ele>703.82000732422</ele>
        <time>2024-09-23T12:21:59.000Z</time>
      </trkpt>
      <trkpt lat="42.34073" lon="19.49566">
        <ele>703.82000732422</ele>
        <time>2024-09-23T12:22:00.000Z</time>
      </trkpt>
      <trkpt lat="42.34067" lon="19.49566">
        <ele>703.82000732422</ele>
        <time>2024-09-23T12:22:01.000Z</time>
      </trkpt>
      <trkpt lat="42.34061" lon="19.49563">
        <ele>703.82000732422</ele>
        <time>2024-09-23T12:22:02.000Z</time>
      </trkpt>
      <trkpt lat="42.34026" lon="19.49535">
        <ele>702.38000488281</ele>
        <time>2024-09-23T12:22:05.000Z</time>
      </trkpt>
      <trkpt lat="42.34024" lon="19.49534">
        <ele>701.90002441406</ele>
        <time>2024-09-23T12:22:06.000Z</time>
      </trkpt>
      <trkpt lat="42.33992" lon="19.49503">
        <ele>699.5</ele>
        <time>2024-09-23T12:22:09.000Z</time>
      </trkpt>
      <trkpt lat="42.33985" lon="19.49494">
        <ele>698.53002929688</ele>
        <time>2024-09-23T12:22:10.000Z</time>
      </trkpt>
      <trkpt lat="42.33977" lon="19.49482">
        <ele>697.57000732422</ele>
        <time>2024-09-23T12:22:11.000Z</time>
      </trkpt>
      <trkpt lat="42.3397" lon="19.4947">
        <ele>697.09002685547</ele>
        <time>2024-09-23T12:22:12.000Z</time>
      </trkpt>
      <trkpt lat="42.33964" lon="19.49455">
        <ele>696.60998535156</ele>
        <time>2024-09-23T12:22:13.000Z</time>
      </trkpt>
      <trkpt lat="42.33942" lon="19.49387">
        <ele>694.21002197266</ele>
        <time>2024-09-23T12:22:17.000Z</time>
      </trkpt>
      <trkpt lat="42.33936" lon="19.4937">
        <ele>693.25</ele>
        <time>2024-09-23T12:22:18.000Z</time>
      </trkpt>
      <trkpt lat="42.33919" lon="19.49339">
        <ele>692.28997802734</ele>
        <time>2024-09-23T12:22:20.000Z</time>
      </trkpt>
      <trkpt lat="42.33915" lon="19.49333">
        <ele>692.28997802734</ele>
        <time>2024-09-23T12:22:21.000Z</time>
      </trkpt>
      <trkpt lat="42.33904" lon="19.49321">
        <ele>691.33001708984</ele>
        <time>2024-09-23T12:22:22.000Z</time>
      </trkpt>
      <trkpt lat="42.33893" lon="19.49309">
        <ele>690.35998535156</ele>
        <time>2024-09-23T12:22:23.000Z</time>
      </trkpt>
      <trkpt lat="42.33886" lon="19.49302">
        <ele>689.88000488281</ele>
        <time>2024-09-23T12:22:24.000Z</time>
      </trkpt>
      <trkpt lat="42.33868" lon="19.49275">
        <ele>687</ele>
        <time>2024-09-23T12:22:26.000Z</time>
      </trkpt>
      <trkpt lat="42.3381" lon="19.49163">
        <ele>677.39001464844</ele>
        <time>2024-09-23T12:22:34.000Z</time>
      </trkpt>
      <trkpt lat="42.33808" lon="19.49157">
        <ele>676.90997314453</ele>
        <time>2024-09-23T12:22:35.000Z</time>
      </trkpt>
      <trkpt lat="42.33805" lon="19.49149">
        <ele>676.41998291016</ele>
        <time>2024-09-23T12:22:36.000Z</time>
      </trkpt>
      <trkpt lat="42.33804" lon="19.49141">
        <ele>676.41998291016</ele>
        <time>2024-09-23T12:22:37.000Z</time>
      </trkpt>
      <trkpt lat="42.33801" lon="19.49135">
        <ele>675.94000244141</ele>
        <time>2024-09-23T12:22:38.000Z</time>
      </trkpt>
      <trkpt lat="42.33792" lon="19.49137">
        <ele>674.5</ele>
        <time>2024-09-23T12:22:41.000Z</time>
      </trkpt>
      <trkpt lat="42.33793" lon="19.4914">
        <ele>674.5</ele>
        <time>2024-09-23T12:22:42.000Z</time>
      </trkpt>
      <trkpt lat="42.33795" lon="19.49156">
        <ele>673.53997802734</ele>
        <time>2024-09-23T12:22:43.000Z</time>
      </trkpt>
      <trkpt lat="42.33796" lon="19.49164">
        <ele>673.05999755859</ele>
        <time>2024-09-23T12:22:44.000Z</time>
      </trkpt>
      <trkpt lat="42.33797" lon="19.49176">
        <ele>672.09997558594</ele>
        <time>2024-09-23T12:22:45.000Z</time>
      </trkpt>
      <trkpt lat="42.33796" lon="19.49189">
        <ele>671.14001464844</ele>
        <time>2024-09-23T12:22:46.000Z</time>
      </trkpt>
      <trkpt lat="42.33794" lon="19.492">
        <ele>670.17999267578</ele>
        <time>2024-09-23T12:22:47.000Z</time>
      </trkpt>
      <trkpt lat="42.3379" lon="19.4921">
        <ele>669.70001220703</ele>
        <time>2024-09-23T12:22:48.000Z</time>
      </trkpt>
      <trkpt lat="42.33783" lon="19.49219">
        <ele>668.25</ele>
        <time>2024-09-23T12:22:49.000Z</time>
      </trkpt>
      <trkpt lat="42.33776" lon="19.49227">
        <ele>667.28997802734</ele>
        <time>2024-09-23T12:22:50.000Z</time>
      </trkpt>
      <trkpt lat="42.33771" lon="19.49232">
        <ele>666.80999755859</ele>
        <time>2024-09-23T12:22:51.000Z</time>
      </trkpt>
      <trkpt lat="42.33763" lon="19.49238">
        <ele>665.84997558594</ele>
        <time>2024-09-23T12:22:52.000Z</time>
      </trkpt>
      <trkpt lat="42.33722" lon="19.49263">
        <ele>663.92999267578</ele>
        <time>2024-09-23T12:22:56.000Z</time>
      </trkpt>
      <trkpt lat="42.33686" lon="19.49282">
        <ele>661.52001953125</ele>
        <time>2024-09-23T12:23:00.000Z</time>
      </trkpt>
      <trkpt lat="42.33679" lon="19.49285">
        <ele>661.03997802734</ele>
        <time>2024-09-23T12:23:01.000Z</time>
      </trkpt>
      <trkpt lat="42.33668" lon="19.49289">
        <ele>660.55999755859</ele>
        <time>2024-09-23T12:23:02.000Z</time>
      </trkpt>
      <trkpt lat="42.33663" lon="19.4929">
        <ele>660.08001708984</ele>
        <time>2024-09-23T12:23:03.000Z</time>
      </trkpt>
      <trkpt lat="42.33657" lon="19.49294">
        <ele>660.08001708984</ele>
        <time>2024-09-23T12:23:04.000Z</time>
      </trkpt>
      <trkpt lat="42.33652" lon="19.49299">
        <ele>660.08001708984</ele>
        <time>2024-09-23T12:23:05.000Z</time>
      </trkpt>
      <trkpt lat="42.3365" lon="19.49305">
        <ele>660.08001708984</ele>
        <time>2024-09-23T12:23:06.000Z</time>
      </trkpt>
      <trkpt lat="42.33648" lon="19.49311">
        <ele>660.55999755859</ele>
        <time>2024-09-23T12:23:07.000Z</time>
      </trkpt>
      <trkpt lat="42.33646" lon="19.49317">
        <ele>660.55999755859</ele>
        <time>2024-09-23T12:23:08.000Z</time>
      </trkpt>
      <trkpt lat="42.33641" lon="19.49321">
        <ele>660.55999755859</ele>
        <time>2024-09-23T12:23:09.000Z</time>
      </trkpt>
      <trkpt lat="42.33634" lon="19.49327">
        <ele>660.55999755859</ele>
        <time>2024-09-23T12:23:10.000Z</time>
      </trkpt>
      <trkpt lat="42.33629" lon="19.49331">
        <ele>661.03997802734</ele>
        <time>2024-09-23T12:23:11.000Z</time>
      </trkpt>
      <trkpt lat="42.33624" lon="19.49337">
        <ele>661.52001953125</ele>
        <time>2024-09-23T12:23:12.000Z</time>
      </trkpt>
      <trkpt lat="42.33621" lon="19.49343">
        <ele>662.01000976562</ele>
        <time>2024-09-23T12:23:13.000Z</time>
      </trkpt>
      <trkpt lat="42.33619" lon="19.49348">
        <ele>662.01000976562</ele>
        <time>2024-09-23T12:23:14.000Z</time>
      </trkpt>
      <trkpt lat="42.33617" lon="19.49353">
        <ele>662.01000976562</ele>
        <time>2024-09-23T12:23:15.000Z</time>
      </trkpt>
      <trkpt lat="42.33613" lon="19.49359">
        <ele>662.01000976562</ele>
        <time>2024-09-23T12:23:16.000Z</time>
      </trkpt>
      <trkpt lat="42.3361" lon="19.49363">
        <ele>661.52001953125</ele>
        <time>2024-09-23T12:23:17.000Z</time>
      </trkpt>
      <trkpt lat="42.33606" lon="19.49368">
        <ele>661.52001953125</ele>
        <time>2024-09-23T12:23:18.000Z</time>
      </trkpt>
      <trkpt lat="42.33599" lon="19.49373">
        <ele>661.03997802734</ele>
        <time>2024-09-23T12:23:19.000Z</time>
      </trkpt>
      <trkpt lat="42.33597" lon="19.49375">
        <ele>661.03997802734</ele>
        <time>2024-09-23T12:23:20.000Z</time>
      </trkpt>
      <trkpt lat="42.33593" lon="19.49378">
        <ele>661.52001953125</ele>
        <time>2024-09-23T12:23:21.000Z</time>
      </trkpt>
      <trkpt lat="42.33589" lon="19.4938">
        <ele>661.52001953125</ele>
        <time>2024-09-23T12:23:22.000Z</time>
      </trkpt>
      <trkpt lat="42.33569" lon="19.49389">
        <ele>662.96997070312</ele>
        <time>2024-09-23T12:23:27.000Z</time>
      </trkpt>
      <trkpt lat="42.33568" lon="19.49389">
        <ele>663.45001220703</ele>
        <time>2024-09-23T12:23:28.000Z</time>
      </trkpt>
      <trkpt lat="42.33564" lon="19.49392">
        <ele>663.92999267578</ele>
        <time>2024-09-23T12:23:29.000Z</time>
      </trkpt>
      <trkpt lat="42.33552" lon="19.49416">
        <ele>665.84997558594</ele>
        <time>2024-09-23T12:23:36.000Z</time>
      </trkpt>
      <trkpt lat="42.33552" lon="19.49421">
        <ele>665.84997558594</ele>
        <time>2024-09-23T12:23:37.000Z</time>
      </trkpt>
      <trkpt lat="42.33552" lon="19.49422">
        <ele>666.33001708984</ele>
        <time>2024-09-23T12:23:38.000Z</time>
      </trkpt>
      <trkpt lat="42.33553" lon="19.49428">
        <ele>666.33001708984</ele>
        <time>2024-09-23T12:23:39.000Z</time>
      </trkpt>
      <trkpt lat="42.33557" lon="19.49441">
        <ele>666.80999755859</ele>
        <time>2024-09-23T12:23:41.000Z</time>
      </trkpt>
      <trkpt lat="42.33559" lon="19.49446">
        <ele>666.80999755859</ele>
        <time>2024-09-23T12:23:42.000Z</time>
      </trkpt>
      <trkpt lat="42.33559" lon="19.49453">
        <ele>667.28997802734</ele>
        <time>2024-09-23T12:23:43.000Z</time>
      </trkpt>
      <trkpt lat="42.33559" lon="19.4946">
        <ele>667.28997802734</ele>
        <time>2024-09-23T12:23:44.000Z</time>
      </trkpt>
      <trkpt lat="42.33558" lon="19.49468">
        <ele>667.28997802734</ele>
        <time>2024-09-23T12:23:45.000Z</time>
      </trkpt>
      <trkpt lat="42.33556" lon="19.49475">
        <ele>667.77001953125</ele>
        <time>2024-09-23T12:23:46.000Z</time>
      </trkpt>
      <trkpt lat="42.33554" lon="19.4948">
        <ele>668.25</ele>
        <time>2024-09-23T12:23:47.000Z</time>
      </trkpt>
      <trkpt lat="42.33554" lon="19.49486">
        <ele>668.72998046875</ele>
        <time>2024-09-23T12:23:48.000Z</time>
      </trkpt>
      <trkpt lat="42.33554" lon="19.49493">
        <ele>669.21997070312</ele>
        <time>2024-09-23T12:23:49.000Z</time>
      </trkpt>
      <trkpt lat="42.33555" lon="19.495">
        <ele>669.70001220703</ele>
        <time>2024-09-23T12:23:50.000Z</time>
      </trkpt>
      <trkpt lat="42.33563" lon="19.49522">
        <ele>670.65997314453</ele>
        <time>2024-09-23T12:23:53.000Z</time>
      </trkpt>
      <trkpt lat="42.33565" lon="19.49526">
        <ele>670.65997314453</ele>
        <time>2024-09-23T12:23:54.000Z</time>
      </trkpt>
      <trkpt lat="42.33566" lon="19.49536">
        <ele>670.65997314453</ele>
        <time>2024-09-23T12:23:55.000Z</time>
      </trkpt>
      <trkpt lat="42.33567" lon="19.49542">
        <ele>670.17999267578</ele>
        <time>2024-09-23T12:23:56.000Z</time>
      </trkpt>
      <trkpt lat="42.33567" lon="19.49554">
        <ele>670.65997314453</ele>
        <time>2024-09-23T12:23:57.000Z</time>
      </trkpt>
      <trkpt lat="42.33567" lon="19.49558">
        <ele>670.65997314453</ele>
        <time>2024-09-23T12:23:58.000Z</time>
      </trkpt>
      <trkpt lat="42.33566" lon="19.49566">
        <ele>670.65997314453</ele>
        <time>2024-09-23T12:23:59.000Z</time>
      </trkpt>
      <trkpt lat="42.33564" lon="19.49576">
        <ele>670.65997314453</ele>
        <time>2024-09-23T12:24:00.000Z</time>
      </trkpt>
      <trkpt lat="42.33564" lon="19.4958">
        <ele>670.65997314453</ele>
        <time>2024-09-23T12:24:01.000Z</time>
      </trkpt>
      <trkpt lat="42.33563" lon="19.49588">
        <ele>670.65997314453</ele>
        <time>2024-09-23T12:24:02.000Z</time>
      </trkpt>
      <trkpt lat="42.33564" lon="19.49595">
        <ele>670.65997314453</ele>
        <time>2024-09-23T12:24:03.000Z</time>
      </trkpt>
      <trkpt lat="42.33565" lon="19.49601">
        <ele>671.14001464844</ele>
        <time>2024-09-23T12:24:04.000Z</time>
      </trkpt>
      <trkpt lat="42.33573" lon="19.49625">
        <ele>672.58001708984</ele>
        <time>2024-09-23T12:24:12.000Z</time>
      </trkpt>
      <trkpt lat="42.33578" lon="19.49639">
        <ele>671.61999511719</ele>
        <time>2024-09-23T12:31:31.000Z</time>
      </trkpt>
      <trkpt lat="42.33585" lon="19.4965">
        <ele>672.09997558594</ele>
        <time>2024-09-23T12:31:34.000Z</time>
      </trkpt>
      <trkpt lat="42.33587" lon="19.49654">
        <ele>672.09997558594</ele>
        <time>2024-09-23T12:31:35.000Z</time>
      </trkpt>
      <trkpt lat="42.3359" lon="19.49658">
        <ele>672.58001708984</ele>
        <time>2024-09-23T12:31:36.000Z</time>
      </trkpt>
      <trkpt lat="42.33593" lon="19.49663">
        <ele>672.58001708984</ele>
        <time>2024-09-23T12:31:37.000Z</time>
      </trkpt>
      <trkpt lat="42.33596" lon="19.49668">
        <ele>673.05999755859</ele>
        <time>2024-09-23T12:31:38.000Z</time>
      </trkpt>
      <trkpt lat="42.336" lon="19.49675">
        <ele>673.53997802734</ele>
        <time>2024-09-23T12:31:39.000Z</time>
      </trkpt>
      <trkpt lat="42.33604" lon="19.49682">
        <ele>674.02001953125</ele>
        <time>2024-09-23T12:31:40.000Z</time>
      </trkpt>
      <trkpt lat="42.33606" lon="19.49685">
        <ele>674.02001953125</ele>
        <time>2024-09-23T12:31:41.000Z</time>
      </trkpt>
      <trkpt lat="42.3361" lon="19.4969">
        <ele>674.5</ele>
        <time>2024-09-23T12:31:42.000Z</time>
      </trkpt>
      <trkpt lat="42.33614" lon="19.49696">
        <ele>674.5</ele>
        <time>2024-09-23T12:31:43.000Z</time>
      </trkpt>
      <trkpt lat="42.33617" lon="19.49703">
        <ele>674.97998046875</ele>
        <time>2024-09-23T12:31:44.000Z</time>
      </trkpt>
      <trkpt lat="42.3362" lon="19.49709">
        <ele>674.97998046875</ele>
        <time>2024-09-23T12:31:45.000Z</time>
      </trkpt>
      <trkpt lat="42.33624" lon="19.49716">
        <ele>675.46002197266</ele>
        <time>2024-09-23T12:31:46.000Z</time>
      </trkpt>
      <trkpt lat="42.33629" lon="19.49722">
        <ele>675.94000244141</ele>
        <time>2024-09-23T12:31:47.000Z</time>
      </trkpt>
      <trkpt lat="42.3364" lon="19.49741">
        <ele>677.39001464844</ele>
        <time>2024-09-23T12:31:49.000Z</time>
      </trkpt>
      <trkpt lat="42.3364" lon="19.49742">
        <ele>677.39001464844</ele>
        <time>2024-09-23T12:31:50.000Z</time>
      </trkpt>
      <trkpt lat="42.33646" lon="19.49749">
        <ele>678.34997558594</ele>
        <time>2024-09-23T12:31:51.000Z</time>
      </trkpt>
      <trkpt lat="42.33649" lon="19.49755">
        <ele>678.83001708984</ele>
        <time>2024-09-23T12:31:52.000Z</time>
      </trkpt>
      <trkpt lat="42.33653" lon="19.49761">
        <ele>678.83001708984</ele>
        <time>2024-09-23T12:31:53.000Z</time>
      </trkpt>
      <trkpt lat="42.3366" lon="19.49779">
        <ele>679.30999755859</ele>
        <time>2024-09-23T12:31:55.000Z</time>
      </trkpt>
      <trkpt lat="42.33662" lon="19.49787">
        <ele>679.78997802734</ele>
        <time>2024-09-23T12:31:56.000Z</time>
      </trkpt>
      <trkpt lat="42.33665" lon="19.49798">
        <ele>680.27001953125</ele>
        <time>2024-09-23T12:31:57.000Z</time>
      </trkpt>
      <trkpt lat="42.33667" lon="19.49805">
        <ele>680.27001953125</ele>
        <time>2024-09-23T12:31:58.000Z</time>
      </trkpt>
      <trkpt lat="42.33671" lon="19.49813">
        <ele>680.27001953125</ele>
        <time>2024-09-23T12:31:59.000Z</time>
      </trkpt>
      <trkpt lat="42.33675" lon="19.4982">
        <ele>679.78997802734</ele>
        <time>2024-09-23T12:32:00.000Z</time>
      </trkpt>
      <trkpt lat="42.33682" lon="19.49827">
        <ele>679.30999755859</ele>
        <time>2024-09-23T12:32:01.000Z</time>
      </trkpt>
      <trkpt lat="42.33686" lon="19.49832">
        <ele>679.30999755859</ele>
        <time>2024-09-23T12:32:02.000Z</time>
      </trkpt>
      <trkpt lat="42.33693" lon="19.49839">
        <ele>679.30999755859</ele>
        <time>2024-09-23T12:32:03.000Z</time>
      </trkpt>
      <trkpt lat="42.33703" lon="19.49851">
        <ele>680.75</ele>
        <time>2024-09-23T12:32:05.000Z</time>
      </trkpt>
      <trkpt lat="42.33709" lon="19.49857">
        <ele>681.22998046875</ele>
        <time>2024-09-23T12:32:06.000Z</time>
      </trkpt>
      <trkpt lat="42.33712" lon="19.49861">
        <ele>681.22998046875</ele>
        <time>2024-09-23T12:32:07.000Z</time>
      </trkpt>
      <trkpt lat="42.33715" lon="19.49871">
        <ele>681.71002197266</ele>
        <time>2024-09-23T12:32:14.000Z</time>
      </trkpt>
      <trkpt lat="42.33715" lon="19.49872">
        <ele>682.19000244141</ele>
        <time>2024-09-23T12:33:10.000Z</time>
      </trkpt>
      <trkpt lat="42.33716" lon="19.4988">
        <ele>682.19000244141</ele>
        <time>2024-09-23T12:33:20.000Z</time>
      </trkpt>
      <trkpt lat="42.33717" lon="19.49889">
        <ele>682.19000244141</ele>
        <time>2024-09-23T12:33:22.000Z</time>
      </trkpt>
      <trkpt lat="42.33718" lon="19.49895">
        <ele>682.66998291016</ele>
        <time>2024-09-23T12:33:23.000Z</time>
      </trkpt>
      <trkpt lat="42.3372" lon="19.49903">
        <ele>682.66998291016</ele>
        <time>2024-09-23T12:33:24.000Z</time>
      </trkpt>
      <trkpt lat="42.33722" lon="19.49913">
        <ele>683.15002441406</ele>
        <time>2024-09-23T12:33:25.000Z</time>
      </trkpt>
      <trkpt lat="42.33725" lon="19.49926">
        <ele>684.11999511719</ele>
        <time>2024-09-23T12:33:26.000Z</time>
      </trkpt>
      <trkpt lat="42.33726" lon="19.49933">
        <ele>684.59997558594</ele>
        <time>2024-09-23T12:33:27.000Z</time>
      </trkpt>
      <trkpt lat="42.33728" lon="19.49943">
        <ele>685.55999755859</ele>
        <time>2024-09-23T12:33:28.000Z</time>
      </trkpt>
      <trkpt lat="42.33733" lon="19.49955">
        <ele>686.03997802734</ele>
        <time>2024-09-23T12:33:29.000Z</time>
      </trkpt>
      <trkpt lat="42.33736" lon="19.49965">
        <ele>686.52001953125</ele>
        <time>2024-09-23T12:33:30.000Z</time>
      </trkpt>
      <trkpt lat="42.33741" lon="19.49981">
        <ele>687.47998046875</ele>
        <time>2024-09-23T12:33:31.000Z</time>
      </trkpt>
      <trkpt lat="42.33742" lon="19.49987">
        <ele>687.96002197266</ele>
        <time>2024-09-23T12:33:32.000Z</time>
      </trkpt>
      <trkpt lat="42.33747" lon="19.49997">
        <ele>687.96002197266</ele>
        <time>2024-09-23T12:33:33.000Z</time>
      </trkpt>
      <trkpt lat="42.33753" lon="19.50005">
        <ele>688.91998291016</ele>
        <time>2024-09-23T12:33:34.000Z</time>
      </trkpt>
      <trkpt lat="42.33759" lon="19.50012">
        <ele>689.40002441406</ele>
        <time>2024-09-23T12:33:35.000Z</time>
      </trkpt>
      <trkpt lat="42.33765" lon="19.50019">
        <ele>689.88000488281</ele>
        <time>2024-09-23T12:33:36.000Z</time>
      </trkpt>
      <trkpt lat="42.33771" lon="19.5003">
        <ele>690.35998535156</ele>
        <time>2024-09-23T12:33:37.000Z</time>
      </trkpt>
      <trkpt lat="42.33778" lon="19.50043">
        <ele>691.33001708984</ele>
        <time>2024-09-23T12:33:38.000Z</time>
      </trkpt>
      <trkpt lat="42.33792" lon="19.5007">
        <ele>692.77001953125</ele>
        <time>2024-09-23T12:33:40.000Z</time>
      </trkpt>
      <trkpt lat="42.33795" lon="19.50076">
        <ele>692.77001953125</ele>
        <time>2024-09-23T12:33:41.000Z</time>
      </trkpt>
      <trkpt lat="42.33798" lon="19.50083">
        <ele>693.25</ele>
        <time>2024-09-23T12:33:42.000Z</time>
      </trkpt>
      <trkpt lat="42.33802" lon="19.50096">
        <ele>693.72998046875</ele>
        <time>2024-09-23T12:33:43.000Z</time>
      </trkpt>
      <trkpt lat="42.33805" lon="19.50107">
        <ele>693.72998046875</ele>
        <time>2024-09-23T12:33:44.000Z</time>
      </trkpt>
      <trkpt lat="42.33808" lon="19.50129">
        <ele>693.25</ele>
        <time>2024-09-23T12:33:46.000Z</time>
      </trkpt>
      <trkpt lat="42.33811" lon="19.50138">
        <ele>693.72998046875</ele>
        <time>2024-09-23T12:33:47.000Z</time>
      </trkpt>
      <trkpt lat="42.33815" lon="19.50145">
        <ele>694.21002197266</ele>
        <time>2024-09-23T12:33:48.000Z</time>
      </trkpt>
      <trkpt lat="42.33822" lon="19.50155">
        <ele>695.16998291016</ele>
        <time>2024-09-23T12:33:49.000Z</time>
      </trkpt>
      <trkpt lat="42.33828" lon="19.50162">
        <ele>696.13000488281</ele>
        <time>2024-09-23T12:33:50.000Z</time>
      </trkpt>
      <trkpt lat="42.3383" lon="19.50167">
        <ele>696.60998535156</ele>
        <time>2024-09-23T12:33:51.000Z</time>
      </trkpt>
      <trkpt lat="42.33835" lon="19.50177">
        <ele>697.09002685547</ele>
        <time>2024-09-23T12:33:52.000Z</time>
      </trkpt>
      <trkpt lat="42.3384" lon="19.50186">
        <ele>697.09002685547</ele>
        <time>2024-09-23T12:33:53.000Z</time>
      </trkpt>
      <trkpt lat="42.33843" lon="19.50194">
        <ele>697.09002685547</ele>
        <time>2024-09-23T12:33:54.000Z</time>
      </trkpt>
      <trkpt lat="42.33846" lon="19.50207">
        <ele>697.57000732422</ele>
        <time>2024-09-23T12:33:55.000Z</time>
      </trkpt>
      <trkpt lat="42.33847" lon="19.50215">
        <ele>698.04998779297</ele>
        <time>2024-09-23T12:33:56.000Z</time>
      </trkpt>
      <trkpt lat="42.3385" lon="19.50225">
        <ele>698.04998779297</ele>
        <time>2024-09-23T12:33:57.000Z</time>
      </trkpt>
      <trkpt lat="42.33855" lon="19.50236">
        <ele>698.53002929688</ele>
        <time>2024-09-23T12:33:58.000Z</time>
      </trkpt>
      <trkpt lat="42.3386" lon="19.50245">
        <ele>699.02001953125</ele>
        <time>2024-09-23T12:33:59.000Z</time>
      </trkpt>
      <trkpt lat="42.33866" lon="19.50255">
        <ele>699.5</ele>
        <time>2024-09-23T12:34:00.000Z</time>
      </trkpt>
      <trkpt lat="42.33875" lon="19.50265">
        <ele>700.94000244141</ele>
        <time>2024-09-23T12:34:01.000Z</time>
      </trkpt>
      <trkpt lat="42.3388" lon="19.50271">
        <ele>701.90002441406</ele>
        <time>2024-09-23T12:34:02.000Z</time>
      </trkpt>
      <trkpt lat="42.33885" lon="19.5028">
        <ele>702.38000488281</ele>
        <time>2024-09-23T12:34:03.000Z</time>
      </trkpt>
      <trkpt lat="42.33893" lon="19.50299">
        <ele>704.78002929688</ele>
        <time>2024-09-23T12:34:04.000Z</time>
      </trkpt>
      <trkpt lat="42.339" lon="19.50314">
        <ele>706.22998046875</ele>
        <time>2024-09-23T12:34:06.000Z</time>
      </trkpt>
      <trkpt lat="42.33916" lon="19.50341">
        <ele>707.66998291016</ele>
        <time>2024-09-23T12:34:09.000Z</time>
      </trkpt>
      <trkpt lat="42.3392" lon="19.50348">
        <ele>707.66998291016</ele>
        <time>2024-09-23T12:34:10.000Z</time>
      </trkpt>
      <trkpt lat="42.33925" lon="19.50353">
        <ele>707.66998291016</ele>
        <time>2024-09-23T12:34:11.000Z</time>
      </trkpt>
      <trkpt lat="42.33932" lon="19.50357">
        <ele>707.66998291016</ele>
        <time>2024-09-23T12:34:12.000Z</time>
      </trkpt>
      <trkpt lat="42.33941" lon="19.5036">
        <ele>707.19000244141</ele>
        <time>2024-09-23T12:34:13.000Z</time>
      </trkpt>
      <trkpt lat="42.33948" lon="19.50362">
        <ele>706.71002197266</ele>
        <time>2024-09-23T12:34:14.000Z</time>
      </trkpt>
      <trkpt lat="42.33956" lon="19.50366">
        <ele>706.71002197266</ele>
        <time>2024-09-23T12:34:15.000Z</time>
      </trkpt>
      <trkpt lat="42.33984" lon="19.50383">
        <ele>706.71002197266</ele>
        <time>2024-09-23T12:34:17.000Z</time>
      </trkpt>
      <trkpt lat="42.33987" lon="19.50384">
        <ele>706.71002197266</ele>
        <time>2024-09-23T12:34:18.000Z</time>
      </trkpt>
      <trkpt lat="42.34002" lon="19.50392">
        <ele>707.19000244141</ele>
        <time>2024-09-23T12:34:19.000Z</time>
      </trkpt>
      <trkpt lat="42.3401" lon="19.50396">
        <ele>708.15002441406</ele>
        <time>2024-09-23T12:34:20.000Z</time>
      </trkpt>
      <trkpt lat="42.34014" lon="19.50398">
        <ele>709.10998535156</ele>
        <time>2024-09-23T12:34:21.000Z</time>
      </trkpt>
      <trkpt lat="42.34022" lon="19.50403">
        <ele>710.54998779297</ele>
        <time>2024-09-23T12:34:22.000Z</time>
      </trkpt>
      <trkpt lat="42.34028" lon="19.50409">
        <ele>711.03002929688</ele>
        <time>2024-09-23T12:34:23.000Z</time>
      </trkpt>
      <trkpt lat="42.34036" lon="19.50419">
        <ele>712.46997070312</ele>
        <time>2024-09-23T12:34:24.000Z</time>
      </trkpt>
      <trkpt lat="42.3404" lon="19.50424">
        <ele>713.44000244141</ele>
        <time>2024-09-23T12:34:25.000Z</time>
      </trkpt>
      <trkpt lat="42.34045" lon="19.50428">
        <ele>714.40002441406</ele>
        <time>2024-09-23T12:34:26.000Z</time>
      </trkpt>
      <trkpt lat="42.34049" lon="19.50429">
        <ele>715.35998535156</ele>
        <time>2024-09-23T12:34:27.000Z</time>
      </trkpt>
      <trkpt lat="42.34054" lon="19.50429">
        <ele>715.84002685547</ele>
        <time>2024-09-23T12:34:28.000Z</time>
      </trkpt>
      <trkpt lat="42.3406" lon="19.50431">
        <ele>716.79998779297</ele>
        <time>2024-09-23T12:34:29.000Z</time>
      </trkpt>
      <trkpt lat="42.34065" lon="19.50436">
        <ele>717.76000976562</ele>
        <time>2024-09-23T12:34:30.000Z</time>
      </trkpt>
      <trkpt lat="42.34071" lon="19.50442">
        <ele>718.71997070312</ele>
        <time>2024-09-23T12:34:31.000Z</time>
      </trkpt>
      <trkpt lat="42.34077" lon="19.50447">
        <ele>719.67999267578</ele>
        <time>2024-09-23T12:34:32.000Z</time>
      </trkpt>
      <trkpt lat="42.34083" lon="19.5045">
        <ele>720.15997314453</ele>
        <time>2024-09-23T12:34:33.000Z</time>
      </trkpt>
      <trkpt lat="42.34092" lon="19.50454">
        <ele>720.65002441406</ele>
        <time>2024-09-23T12:34:34.000Z</time>
      </trkpt>
      <trkpt lat="42.341" lon="19.50457">
        <ele>721.13000488281</ele>
        <time>2024-09-23T12:34:35.000Z</time>
      </trkpt>
      <trkpt lat="42.34107" lon="19.50462">
        <ele>722.09002685547</ele>
        <time>2024-09-23T12:34:36.000Z</time>
      </trkpt>
      <trkpt lat="42.34113" lon="19.50467">
        <ele>722.09002685547</ele>
        <time>2024-09-23T12:34:37.000Z</time>
      </trkpt>
      <trkpt lat="42.34118" lon="19.50474">
        <ele>722.57000732422</ele>
        <time>2024-09-23T12:34:38.000Z</time>
      </trkpt>
      <trkpt lat="42.34124" lon="19.50491">
        <ele>723.53002929688</ele>
        <time>2024-09-23T12:34:39.000Z</time>
      </trkpt>
      <trkpt lat="42.34126" lon="19.50495">
        <ele>724.01000976562</ele>
        <time>2024-09-23T12:34:40.000Z</time>
      </trkpt>
      <trkpt lat="42.34133" lon="19.5051">
        <ele>725.45001220703</ele>
        <time>2024-09-23T12:34:41.000Z</time>
      </trkpt>
      <trkpt lat="42.34135" lon="19.50513">
        <ele>725.45001220703</ele>
        <time>2024-09-23T12:34:42.000Z</time>
      </trkpt>
      <trkpt lat="42.34142" lon="19.50521">
        <ele>726.40997314453</ele>
        <time>2024-09-23T12:34:43.000Z</time>
      </trkpt>
      <trkpt lat="42.34157" lon="19.50538">
        <ele>727.85998535156</ele>
        <time>2024-09-23T12:34:45.000Z</time>
      </trkpt>
      <trkpt lat="42.3417" lon="19.50555">
        <ele>728.82000732422</ele>
        <time>2024-09-23T12:34:46.000Z</time>
      </trkpt>
      <trkpt lat="42.34173" lon="19.5056">
        <ele>729.29998779297</ele>
        <time>2024-09-23T12:34:47.000Z</time>
      </trkpt>
      <trkpt lat="42.34179" lon="19.50567">
        <ele>729.78002929688</ele>
        <time>2024-09-23T12:34:48.000Z</time>
      </trkpt>
      <trkpt lat="42.34187" lon="19.50578">
        <ele>730.73999023438</ele>
        <time>2024-09-23T12:34:49.000Z</time>
      </trkpt>
      <trkpt lat="42.34197" lon="19.50588">
        <ele>731.70001220703</ele>
        <time>2024-09-23T12:34:50.000Z</time>
      </trkpt>
      <trkpt lat="42.34203" lon="19.50595">
        <ele>732.17999267578</ele>
        <time>2024-09-23T12:34:51.000Z</time>
      </trkpt>
      <trkpt lat="42.34208" lon="19.50605">
        <ele>732.65997314453</ele>
        <time>2024-09-23T12:34:52.000Z</time>
      </trkpt>
      <trkpt lat="42.34212" lon="19.50617">
        <ele>733.61999511719</ele>
        <time>2024-09-23T12:34:53.000Z</time>
      </trkpt>
      <trkpt lat="42.34218" lon="19.50643">
        <ele>735.07000732422</ele>
        <time>2024-09-23T12:34:55.000Z</time>
      </trkpt>
      <trkpt lat="42.34222" lon="19.50658">
        <ele>736.03002929688</ele>
        <time>2024-09-23T12:34:56.000Z</time>
      </trkpt>
      <trkpt lat="42.34224" lon="19.50666">
        <ele>736.51000976562</ele>
        <time>2024-09-23T12:34:57.000Z</time>
      </trkpt>
      <trkpt lat="42.34226" lon="19.50678">
        <ele>737.46997070312</ele>
        <time>2024-09-23T12:34:58.000Z</time>
      </trkpt>
      <trkpt lat="42.34226" lon="19.5069">
        <ele>738.42999267578</ele>
        <time>2024-09-23T12:34:59.000Z</time>
      </trkpt>
      <trkpt lat="42.34226" lon="19.50701">
        <ele>738.90997314453</ele>
        <time>2024-09-23T12:35:00.000Z</time>
      </trkpt>
      <trkpt lat="42.34225" lon="19.50712">
        <ele>739.39001464844</ele>
        <time>2024-09-23T12:35:01.000Z</time>
      </trkpt>
      <trkpt lat="42.34226" lon="19.50724">
        <ele>740.34997558594</ele>
        <time>2024-09-23T12:35:02.000Z</time>
      </trkpt>
      <trkpt lat="42.34227" lon="19.50736">
        <ele>740.83001708984</ele>
        <time>2024-09-23T12:35:03.000Z</time>
      </trkpt>
      <trkpt lat="42.34231" lon="19.50756">
        <ele>742.76000976562</ele>
        <time>2024-09-23T12:35:04.000Z</time>
      </trkpt>
      <trkpt lat="42.34231" lon="19.50758">
        <ele>742.76000976562</ele>
        <time>2024-09-23T12:35:05.000Z</time>
      </trkpt>
      <trkpt lat="42.34231" lon="19.50768">
        <ele>743.71997070312</ele>
        <time>2024-09-23T12:35:06.000Z</time>
      </trkpt>
      <trkpt lat="42.34229" lon="19.50777">
        <ele>744.20001220703</ele>
        <time>2024-09-23T12:35:07.000Z</time>
      </trkpt>
      <trkpt lat="42.34225" lon="19.50784">
        <ele>744.67999267578</ele>
        <time>2024-09-23T12:35:08.000Z</time>
      </trkpt>
      <trkpt lat="42.34219" lon="19.50791">
        <ele>745.64001464844</ele>
        <time>2024-09-23T12:35:09.000Z</time>
      </trkpt>
      <trkpt lat="42.34212" lon="19.50798">
        <ele>746.59997558594</ele>
        <time>2024-09-23T12:35:10.000Z</time>
      </trkpt>
      <trkpt lat="42.34207" lon="19.50805">
        <ele>747.55999755859</ele>
        <time>2024-09-23T12:35:11.000Z</time>
      </trkpt>
      <trkpt lat="42.34204" lon="19.50813">
        <ele>748.52001953125</ele>
        <time>2024-09-23T12:35:12.000Z</time>
      </trkpt>
      <trkpt lat="42.34202" lon="19.50819">
        <ele>749.48999023438</ele>
        <time>2024-09-23T12:35:13.000Z</time>
      </trkpt>
      <trkpt lat="42.34203" lon="19.50826">
        <ele>750.45001220703</ele>
        <time>2024-09-23T12:35:14.000Z</time>
      </trkpt>
      <trkpt lat="42.34204" lon="19.50834">
        <ele>751.40997314453</ele>
        <time>2024-09-23T12:35:15.000Z</time>
      </trkpt>
      <trkpt lat="42.34205" lon="19.50842">
        <ele>752.36999511719</ele>
        <time>2024-09-23T12:35:16.000Z</time>
      </trkpt>
      <trkpt lat="42.34207" lon="19.50852">
        <ele>753.33001708984</ele>
        <time>2024-09-23T12:35:17.000Z</time>
      </trkpt>
      <trkpt lat="42.3421" lon="19.50867">
        <ele>753.80999755859</ele>
        <time>2024-09-23T12:35:18.000Z</time>
      </trkpt>
      <trkpt lat="42.3421" lon="19.50871">
        <ele>754.28997802734</ele>
        <time>2024-09-23T12:35:19.000Z</time>
      </trkpt>
      <trkpt lat="42.3421" lon="19.50881">
        <ele>754.77001953125</ele>
        <time>2024-09-23T12:35:20.000Z</time>
      </trkpt>
      <trkpt lat="42.34209" lon="19.50891">
        <ele>755.25</ele>
        <time>2024-09-23T12:35:21.000Z</time>
      </trkpt>
      <trkpt lat="42.34206" lon="19.50903">
        <ele>755.72998046875</ele>
        <time>2024-09-23T12:35:22.000Z</time>
      </trkpt>
      <trkpt lat="42.34205" lon="19.50915">
        <ele>756.21002197266</ele>
        <time>2024-09-23T12:35:23.000Z</time>
      </trkpt>
      <trkpt lat="42.34207" lon="19.50924">
        <ele>756.69000244141</ele>
        <time>2024-09-23T12:35:24.000Z</time>
      </trkpt>
      <trkpt lat="42.3421" lon="19.50931">
        <ele>757.17999267578</ele>
        <time>2024-09-23T12:35:25.000Z</time>
      </trkpt>
      <trkpt lat="42.34217" lon="19.50945">
        <ele>759.09997558594</ele>
        <time>2024-09-23T12:35:26.000Z</time>
      </trkpt>
      <trkpt lat="42.3422" lon="19.5095">
        <ele>759.58001708984</ele>
        <time>2024-09-23T12:35:27.000Z</time>
      </trkpt>
      <trkpt lat="42.34224" lon="19.5096">
        <ele>760.53997802734</ele>
        <time>2024-09-23T12:35:28.000Z</time>
      </trkpt>
      <trkpt lat="42.34228" lon="19.50972">
        <ele>761.5</ele>
        <time>2024-09-23T12:35:29.000Z</time>
      </trkpt>
      <trkpt lat="42.34232" lon="19.50984">
        <ele>762.94000244141</ele>
        <time>2024-09-23T12:35:30.000Z</time>
      </trkpt>
      <trkpt lat="42.34236" lon="19.50996">
        <ele>763.90002441406</ele>
        <time>2024-09-23T12:35:31.000Z</time>
      </trkpt>
      <trkpt lat="42.3424" lon="19.51006">
        <ele>764.39001464844</ele>
        <time>2024-09-23T12:35:32.000Z</time>
      </trkpt>
      <trkpt lat="42.34244" lon="19.51016">
        <ele>764.86999511719</ele>
        <time>2024-09-23T12:35:33.000Z</time>
      </trkpt>
      <trkpt lat="42.34267" lon="19.51057">
        <ele>766.78997802734</ele>
        <time>2024-09-23T12:35:36.000Z</time>
      </trkpt>
      <trkpt lat="42.34271" lon="19.51065">
        <ele>767.75</ele>
        <time>2024-09-23T12:35:37.000Z</time>
      </trkpt>
      <trkpt lat="42.34273" lon="19.51069">
        <ele>768.22998046875</ele>
        <time>2024-09-23T12:35:38.000Z</time>
      </trkpt>
      <trkpt lat="42.34277" lon="19.51078">
        <ele>769.66998291016</ele>
        <time>2024-09-23T12:35:39.000Z</time>
      </trkpt>
      <trkpt lat="42.3428" lon="19.51086">
        <ele>770.63000488281</ele>
        <time>2024-09-23T12:35:40.000Z</time>
      </trkpt>
      <trkpt lat="42.34287" lon="19.51099">
        <ele>772.08001708984</ele>
        <time>2024-09-23T12:35:41.000Z</time>
      </trkpt>
      <trkpt lat="42.3429" lon="19.51104">
        <ele>772.55999755859</ele>
        <time>2024-09-23T12:35:42.000Z</time>
      </trkpt>
      <trkpt lat="42.34294" lon="19.51112">
        <ele>773.52001953125</ele>
        <time>2024-09-23T12:35:43.000Z</time>
      </trkpt>
      <trkpt lat="42.34298" lon="19.51117">
        <ele>774</ele>
        <time>2024-09-23T12:35:44.000Z</time>
      </trkpt>
      <trkpt lat="42.34303" lon="19.51122">
        <ele>774.96002197266</ele>
        <time>2024-09-23T12:35:45.000Z</time>
      </trkpt>
      <trkpt lat="42.34308" lon="19.51126">
        <ele>775.44000244141</ele>
        <time>2024-09-23T12:35:46.000Z</time>
      </trkpt>
      <trkpt lat="42.34314" lon="19.51131">
        <ele>776.40002441406</ele>
        <time>2024-09-23T12:35:47.000Z</time>
      </trkpt>
      <trkpt lat="42.34323" lon="19.51136">
        <ele>777.35998535156</ele>
        <time>2024-09-23T12:35:48.000Z</time>
      </trkpt>
      <trkpt lat="42.34327" lon="19.51138">
        <ele>777.84002685547</ele>
        <time>2024-09-23T12:35:49.000Z</time>
      </trkpt>
      <trkpt lat="42.34334" lon="19.51141">
        <ele>778.32000732422</ele>
        <time>2024-09-23T12:35:50.000Z</time>
      </trkpt>
      <trkpt lat="42.34342" lon="19.51143">
        <ele>778.80999755859</ele>
        <time>2024-09-23T12:35:51.000Z</time>
      </trkpt>
      <trkpt lat="42.34349" lon="19.51143">
        <ele>780.25</ele>
        <time>2024-09-23T12:35:52.000Z</time>
      </trkpt>
      <trkpt lat="42.34355" lon="19.51142">
        <ele>781.21002197266</ele>
        <time>2024-09-23T12:35:53.000Z</time>
      </trkpt>
      <trkpt lat="42.34361" lon="19.51139">
        <ele>781.69000244141</ele>
        <time>2024-09-23T12:35:54.000Z</time>
      </trkpt>
      <trkpt lat="42.34366" lon="19.51135">
        <ele>782.16998291016</ele>
        <time>2024-09-23T12:35:55.000Z</time>
      </trkpt>
      <trkpt lat="42.34374" lon="19.5113">
        <ele>782.65002441406</ele>
        <time>2024-09-23T12:35:56.000Z</time>
      </trkpt>
      <trkpt lat="42.34378" lon="19.51127">
        <ele>783.13000488281</ele>
        <time>2024-09-23T12:35:57.000Z</time>
      </trkpt>
      <trkpt lat="42.34384" lon="19.51122">
        <ele>783.60998535156</ele>
        <time>2024-09-23T12:35:58.000Z</time>
      </trkpt>
      <trkpt lat="42.34389" lon="19.51116">
        <ele>783.60998535156</ele>
        <time>2024-09-23T12:35:59.000Z</time>
      </trkpt>
      <trkpt lat="42.34398" lon="19.51103">
        <ele>784.57000732422</ele>
        <time>2024-09-23T12:36:01.000Z</time>
      </trkpt>
      <trkpt lat="42.34402" lon="19.51098">
        <ele>785.53002929688</ele>
        <time>2024-09-23T12:36:02.000Z</time>
      </trkpt>
      <trkpt lat="42.34405" lon="19.51094">
        <ele>785.53002929688</ele>
        <time>2024-09-23T12:36:03.000Z</time>
      </trkpt>
      <trkpt lat="42.34416" lon="19.51099">
        <ele>787.94000244141</ele>
        <time>2024-09-23T12:36:06.000Z</time>
      </trkpt>
      <trkpt lat="42.34417" lon="19.511">
        <ele>787.94000244141</ele>
        <time>2024-09-23T12:36:07.000Z</time>
      </trkpt>
      <trkpt lat="42.34418" lon="19.51106">
        <ele>788.41998291016</ele>
        <time>2024-09-23T12:36:08.000Z</time>
      </trkpt>
      <trkpt lat="42.34419" lon="19.51122">
        <ele>789.38000488281</ele>
        <time>2024-09-23T12:36:10.000Z</time>
      </trkpt>
      <trkpt lat="42.34419" lon="19.51135">
        <ele>790.34002685547</ele>
        <time>2024-09-23T12:36:11.000Z</time>
      </trkpt>
      <trkpt lat="42.3442" lon="19.5115">
        <ele>791.29998779297</ele>
        <time>2024-09-23T12:36:13.000Z</time>
      </trkpt>
      <trkpt lat="42.3442" lon="19.51162">
        <ele>792.26000976562</ele>
        <time>2024-09-23T12:36:14.000Z</time>
      </trkpt>
      <trkpt lat="42.3442" lon="19.51172">
        <ele>793.21997070312</ele>
        <time>2024-09-23T12:36:15.000Z</time>
      </trkpt>
      <trkpt lat="42.3442" lon="19.51193">
        <ele>794.66998291016</ele>
        <time>2024-09-23T12:36:17.000Z</time>
      </trkpt>
      <trkpt lat="42.34421" lon="19.51206">
        <ele>795.63000488281</ele>
        <time>2024-09-23T12:36:18.000Z</time>
      </trkpt>
      <trkpt lat="42.34423" lon="19.51228">
        <ele>797.54998779297</ele>
        <time>2024-09-23T12:36:20.000Z</time>
      </trkpt>
      <trkpt lat="42.34424" lon="19.51237">
        <ele>798.51000976562</ele>
        <time>2024-09-23T12:36:21.000Z</time>
      </trkpt>
      <trkpt lat="42.34427" lon="19.51248">
        <ele>799.95001220703</ele>
        <time>2024-09-23T12:36:22.000Z</time>
      </trkpt>
      <trkpt lat="42.34428" lon="19.51252">
        <ele>800.44000244141</ele>
        <time>2024-09-23T12:36:23.000Z</time>
      </trkpt>
      <trkpt lat="42.3443" lon="19.51258">
        <ele>800.44000244141</ele>
        <time>2024-09-23T12:36:24.000Z</time>
      </trkpt>
      <trkpt lat="42.3443" lon="19.51264">
        <ele>800.91998291016</ele>
        <time>2024-09-23T12:36:25.000Z</time>
      </trkpt>
      <trkpt lat="42.34429" lon="19.51269">
        <ele>801.88000488281</ele>
        <time>2024-09-23T12:36:26.000Z</time>
      </trkpt>
      <trkpt lat="42.34427" lon="19.51275">
        <ele>802.35998535156</ele>
        <time>2024-09-23T12:36:27.000Z</time>
      </trkpt>
      <trkpt lat="42.34425" lon="19.51279">
        <ele>802.84002685547</ele>
        <time>2024-09-23T12:36:28.000Z</time>
      </trkpt>
      <trkpt lat="42.34423" lon="19.51285">
        <ele>803.79998779297</ele>
        <time>2024-09-23T12:36:29.000Z</time>
      </trkpt>
      <trkpt lat="42.34422" lon="19.51293">
        <ele>804.76000976562</ele>
        <time>2024-09-23T12:36:30.000Z</time>
      </trkpt>
      <trkpt lat="42.34421" lon="19.51303">
        <ele>805.71997070312</ele>
        <time>2024-09-23T12:36:31.000Z</time>
      </trkpt>
      <trkpt lat="42.34421" lon="19.5131">
        <ele>806.20001220703</ele>
        <time>2024-09-23T12:36:32.000Z</time>
      </trkpt>
      <trkpt lat="42.3442" lon="19.5132">
        <ele>807.15997314453</ele>
        <time>2024-09-23T12:36:33.000Z</time>
      </trkpt>
      <trkpt lat="42.34418" lon="19.51328">
        <ele>807.64001464844</ele>
        <time>2024-09-23T12:36:34.000Z</time>
      </trkpt>
      <trkpt lat="42.34415" lon="19.51337">
        <ele>807.64001464844</ele>
        <time>2024-09-23T12:36:35.000Z</time>
      </trkpt>
      <trkpt lat="42.34412" lon="19.51345">
        <ele>808.13000488281</ele>
        <time>2024-09-23T12:36:36.000Z</time>
      </trkpt>
      <trkpt lat="42.34411" lon="19.51354">
        <ele>809.09002685547</ele>
        <time>2024-09-23T12:36:37.000Z</time>
      </trkpt>
      <trkpt lat="42.34411" lon="19.51364">
        <ele>809.57000732422</ele>
        <time>2024-09-23T12:36:38.000Z</time>
      </trkpt>
      <trkpt lat="42.34412" lon="19.51373">
        <ele>810.04998779297</ele>
        <time>2024-09-23T12:36:39.000Z</time>
      </trkpt>
      <trkpt lat="42.34414" lon="19.51384">
        <ele>811.01000976562</ele>
        <time>2024-09-23T12:36:40.000Z</time>
      </trkpt>
      <trkpt lat="42.34416" lon="19.51397">
        <ele>811.96997070312</ele>
        <time>2024-09-23T12:36:41.000Z</time>
      </trkpt>
      <trkpt lat="42.34418" lon="19.51409">
        <ele>812.92999267578</ele>
        <time>2024-09-23T12:36:42.000Z</time>
      </trkpt>
      <trkpt lat="42.3442" lon="19.51419">
        <ele>813.89001464844</ele>
        <time>2024-09-23T12:36:43.000Z</time>
      </trkpt>
      <trkpt lat="42.34425" lon="19.51448">
        <ele>816.29998779297</ele>
        <time>2024-09-23T12:36:45.000Z</time>
      </trkpt>
      <trkpt lat="42.34426" lon="19.51453">
        <ele>816.78002929688</ele>
        <time>2024-09-23T12:36:46.000Z</time>
      </trkpt>
      <trkpt lat="42.34428" lon="19.51465">
        <ele>818.21997070312</ele>
        <time>2024-09-23T12:36:47.000Z</time>
      </trkpt>
      <trkpt lat="42.34429" lon="19.51471">
        <ele>818.70001220703</ele>
        <time>2024-09-23T12:36:48.000Z</time>
      </trkpt>
      <trkpt lat="42.3443" lon="19.51482">
        <ele>819.65997314453</ele>
        <time>2024-09-23T12:36:49.000Z</time>
      </trkpt>
      <trkpt lat="42.34431" lon="19.51492">
        <ele>820.61999511719</ele>
        <time>2024-09-23T12:36:50.000Z</time>
      </trkpt>
      <trkpt lat="42.34431" lon="19.515">
        <ele>821.09997558594</ele>
        <time>2024-09-23T12:36:51.000Z</time>
      </trkpt>
      <trkpt lat="42.3443" lon="19.51506">
        <ele>821.58001708984</ele>
        <time>2024-09-23T12:36:52.000Z</time>
      </trkpt>
      <trkpt lat="42.34428" lon="19.51511">
        <ele>822.05999755859</ele>
        <time>2024-09-23T12:36:53.000Z</time>
      </trkpt>
      <trkpt lat="42.34424" lon="19.51516">
        <ele>822.54998779297</ele>
        <time>2024-09-23T12:36:54.000Z</time>
      </trkpt>
      <trkpt lat="42.34419" lon="19.51522">
        <ele>823.51000976562</ele>
        <time>2024-09-23T12:36:55.000Z</time>
      </trkpt>
      <trkpt lat="42.34414" lon="19.51527">
        <ele>824.46997070312</ele>
        <time>2024-09-23T12:36:56.000Z</time>
      </trkpt>
      <trkpt lat="42.34409" lon="19.51532">
        <ele>824.95001220703</ele>
        <time>2024-09-23T12:36:57.000Z</time>
      </trkpt>
      <trkpt lat="42.34401" lon="19.5154">
        <ele>825.90997314453</ele>
        <time>2024-09-23T12:36:58.000Z</time>
      </trkpt>
      <trkpt lat="42.34399" lon="19.51542">
        <ele>825.90997314453</ele>
        <time>2024-09-23T12:36:59.000Z</time>
      </trkpt>
      <trkpt lat="42.34402" lon="19.51555">
        <ele>827.34997558594</ele>
        <time>2024-09-23T12:37:03.000Z</time>
      </trkpt>
      <trkpt lat="42.34404" lon="19.51555">
        <ele>827.34997558594</ele>
        <time>2024-09-23T12:37:04.000Z</time>
      </trkpt>
      <trkpt lat="42.34411" lon="19.51553">
        <ele>827.83001708984</ele>
        <time>2024-09-23T12:37:05.000Z</time>
      </trkpt>
      <trkpt lat="42.34415" lon="19.51553">
        <ele>828.30999755859</ele>
        <time>2024-09-23T12:37:06.000Z</time>
      </trkpt>
      <trkpt lat="42.34423" lon="19.51553">
        <ele>828.78997802734</ele>
        <time>2024-09-23T12:37:07.000Z</time>
      </trkpt>
      <trkpt lat="42.34429" lon="19.51554">
        <ele>829.76000976562</ele>
        <time>2024-09-23T12:37:08.000Z</time>
      </trkpt>
      <trkpt lat="42.34433" lon="19.51556">
        <ele>830.23999023438</ele>
        <time>2024-09-23T12:37:09.000Z</time>
      </trkpt>
      <trkpt lat="42.34437" lon="19.51559">
        <ele>830.71997070312</ele>
        <time>2024-09-23T12:37:10.000Z</time>
      </trkpt>
      <trkpt lat="42.34439" lon="19.51565">
        <ele>831.67999267578</ele>
        <time>2024-09-23T12:37:11.000Z</time>
      </trkpt>
      <trkpt lat="42.34441" lon="19.51571">
        <ele>832.15997314453</ele>
        <time>2024-09-23T12:37:12.000Z</time>
      </trkpt>
      <trkpt lat="42.34443" lon="19.51587">
        <ele>833.11999511719</ele>
        <time>2024-09-23T12:37:14.000Z</time>
      </trkpt>
      <trkpt lat="42.34444" lon="19.51592">
        <ele>834.08001708984</ele>
        <time>2024-09-23T12:37:15.000Z</time>
      </trkpt>
      <trkpt lat="42.34444" lon="19.51599">
        <ele>834.55999755859</ele>
        <time>2024-09-23T12:37:16.000Z</time>
      </trkpt>
      <trkpt lat="42.34445" lon="19.51605">
        <ele>835.03997802734</ele>
        <time>2024-09-23T12:37:17.000Z</time>
      </trkpt>
      <trkpt lat="42.34446" lon="19.51611">
        <ele>836</ele>
        <time>2024-09-23T12:37:18.000Z</time>
      </trkpt>
      <trkpt lat="42.34448" lon="19.51618">
        <ele>836.47998046875</ele>
        <time>2024-09-23T12:37:19.000Z</time>
      </trkpt>
      <trkpt lat="42.3445" lon="19.51626">
        <ele>837.45001220703</ele>
        <time>2024-09-23T12:37:20.000Z</time>
      </trkpt>
      <trkpt lat="42.34451" lon="19.51632">
        <ele>837.92999267578</ele>
        <time>2024-09-23T12:37:21.000Z</time>
      </trkpt>
      <trkpt lat="42.34453" lon="19.51641">
        <ele>838.40997314453</ele>
        <time>2024-09-23T12:37:22.000Z</time>
      </trkpt>
      <trkpt lat="42.34456" lon="19.51652">
        <ele>838.89001464844</ele>
        <time>2024-09-23T12:37:23.000Z</time>
      </trkpt>
      <trkpt lat="42.34459" lon="19.51665">
        <ele>839.36999511719</ele>
        <time>2024-09-23T12:37:24.000Z</time>
      </trkpt>
      <trkpt lat="42.34461" lon="19.51669">
        <ele>839.36999511719</ele>
        <time>2024-09-23T12:37:25.000Z</time>
      </trkpt>
      <trkpt lat="42.34463" lon="19.51677">
        <ele>839.84997558594</ele>
        <time>2024-09-23T12:37:26.000Z</time>
      </trkpt>
      <trkpt lat="42.34466" lon="19.51689">
        <ele>840.33001708984</ele>
        <time>2024-09-23T12:37:27.000Z</time>
      </trkpt>
      <trkpt lat="42.34469" lon="19.51698">
        <ele>841.28997802734</ele>
        <time>2024-09-23T12:37:28.000Z</time>
      </trkpt>
      <trkpt lat="42.34471" lon="19.51704">
        <ele>842.25</ele>
        <time>2024-09-23T12:37:29.000Z</time>
      </trkpt>
      <trkpt lat="42.34475" lon="19.51712">
        <ele>843.21002197266</ele>
        <time>2024-09-23T12:37:30.000Z</time>
      </trkpt>
      <trkpt lat="42.34477" lon="19.51721">
        <ele>844.17999267578</ele>
        <time>2024-09-23T12:37:31.000Z</time>
      </trkpt>
      <trkpt lat="42.34483" lon="19.51756">
        <ele>846.09997558594</ele>
        <time>2024-09-23T12:37:34.000Z</time>
      </trkpt>
      <trkpt lat="42.34484" lon="19.51764">
        <ele>846.58001708984</ele>
        <time>2024-09-23T12:37:35.000Z</time>
      </trkpt>
      <trkpt lat="42.34486" lon="19.51773">
        <ele>847.05999755859</ele>
        <time>2024-09-23T12:37:36.000Z</time>
      </trkpt>
      <trkpt lat="42.34489" lon="19.51788">
        <ele>848.02001953125</ele>
        <time>2024-09-23T12:37:37.000Z</time>
      </trkpt>
      <trkpt lat="42.3449" lon="19.51793">
        <ele>848.02001953125</ele>
        <time>2024-09-23T12:37:38.000Z</time>
      </trkpt>
      <trkpt lat="42.34491" lon="19.51811">
        <ele>849.46002197266</ele>
        <time>2024-09-23T12:37:39.000Z</time>
      </trkpt>
      <trkpt lat="42.34492" lon="19.51818">
        <ele>849.94000244141</ele>
        <time>2024-09-23T12:37:40.000Z</time>
      </trkpt>
      <trkpt lat="42.34494" lon="19.51831">
        <ele>851.38000488281</ele>
        <time>2024-09-23T12:37:41.000Z</time>
      </trkpt>
      <trkpt lat="42.34494" lon="19.51836">
        <ele>851.86999511719</ele>
        <time>2024-09-23T12:37:42.000Z</time>
      </trkpt>
      <trkpt lat="42.34496" lon="19.51845">
        <ele>852.83001708984</ele>
        <time>2024-09-23T12:37:43.000Z</time>
      </trkpt>
      <trkpt lat="42.34499" lon="19.51854">
        <ele>854.27001953125</ele>
        <time>2024-09-23T12:37:44.000Z</time>
      </trkpt>
      <trkpt lat="42.34501" lon="19.51865">
        <ele>855.71002197266</ele>
        <time>2024-09-23T12:37:45.000Z</time>
      </trkpt>
      <trkpt lat="42.34506" lon="19.51883">
        <ele>858.10998535156</ele>
        <time>2024-09-23T12:37:46.000Z</time>
      </trkpt>
      <trkpt lat="42.34506" lon="19.51885">
        <ele>858.59002685547</ele>
        <time>2024-09-23T12:37:47.000Z</time>
      </trkpt>
      <trkpt lat="42.34508" lon="19.51895">
        <ele>860.03997802734</ele>
        <time>2024-09-23T12:37:48.000Z</time>
      </trkpt>
      <trkpt lat="42.34509" lon="19.51904">
        <ele>861.47998046875</ele>
        <time>2024-09-23T12:37:49.000Z</time>
      </trkpt>
      <trkpt lat="42.34511" lon="19.5191">
        <ele>862.44000244141</ele>
        <time>2024-09-23T12:37:50.000Z</time>
      </trkpt>
      <trkpt lat="42.34513" lon="19.51922">
        <ele>863.88000488281</ele>
        <time>2024-09-23T12:37:51.000Z</time>
      </trkpt>
      <trkpt lat="42.34514" lon="19.51927">
        <ele>864.84002685547</ele>
        <time>2024-09-23T12:37:52.000Z</time>
      </trkpt>
      <trkpt lat="42.34516" lon="19.51935">
        <ele>865.79998779297</ele>
        <time>2024-09-23T12:37:53.000Z</time>
      </trkpt>
      <trkpt lat="42.34518" lon="19.51941">
        <ele>866.77001953125</ele>
        <time>2024-09-23T12:37:54.000Z</time>
      </trkpt>
      <trkpt lat="42.3452" lon="19.5195">
        <ele>867.25</ele>
        <time>2024-09-23T12:37:55.000Z</time>
      </trkpt>
      <trkpt lat="42.34522" lon="19.51959">
        <ele>867.72998046875</ele>
        <time>2024-09-23T12:37:56.000Z</time>
      </trkpt>
      <trkpt lat="42.34525" lon="19.51972">
        <ele>868.69000244141</ele>
        <time>2024-09-23T12:37:57.000Z</time>
      </trkpt>
      <trkpt lat="42.34526" lon="19.5198">
        <ele>869.65002441406</ele>
        <time>2024-09-23T12:37:58.000Z</time>
      </trkpt>
      <trkpt lat="42.34527" lon="19.51991">
        <ele>870.13000488281</ele>
        <time>2024-09-23T12:37:59.000Z</time>
      </trkpt>
      <trkpt lat="42.34526" lon="19.52002">
        <ele>871.09002685547</ele>
        <time>2024-09-23T12:38:00.000Z</time>
      </trkpt>
      <trkpt lat="42.34524" lon="19.52015">
        <ele>872.04998779297</ele>
        <time>2024-09-23T12:38:01.000Z</time>
      </trkpt>
      <trkpt lat="42.34523" lon="19.52023">
        <ele>872.04998779297</ele>
        <time>2024-09-23T12:38:02.000Z</time>
      </trkpt>
      <trkpt lat="42.34522" lon="19.52034">
        <ele>873.01000976562</ele>
        <time>2024-09-23T12:38:03.000Z</time>
      </trkpt>
      <trkpt lat="42.34521" lon="19.5204">
        <ele>873.5</ele>
        <time>2024-09-23T12:38:04.000Z</time>
      </trkpt>
      <trkpt lat="42.34519" lon="19.52047">
        <ele>873.97998046875</ele>
        <time>2024-09-23T12:38:05.000Z</time>
      </trkpt>
      <trkpt lat="42.34517" lon="19.52053">
        <ele>874.94000244141</ele>
        <time>2024-09-23T12:38:06.000Z</time>
      </trkpt>
      <trkpt lat="42.34513" lon="19.52064">
        <ele>876.85998535156</ele>
        <time>2024-09-23T12:38:07.000Z</time>
      </trkpt>
      <trkpt lat="42.34511" lon="19.52072">
        <ele>877.82000732422</ele>
        <time>2024-09-23T12:38:08.000Z</time>
      </trkpt>
      <trkpt lat="42.34509" lon="19.52079">
        <ele>878.29998779297</ele>
        <time>2024-09-23T12:38:09.000Z</time>
      </trkpt>
      <trkpt lat="42.34506" lon="19.52085">
        <ele>878.78002929688</ele>
        <time>2024-09-23T12:38:10.000Z</time>
      </trkpt>
      <trkpt lat="42.34503" lon="19.52097">
        <ele>877.34002685547</ele>
        <time>2024-09-23T12:38:11.000Z</time>
      </trkpt>
      <trkpt lat="42.34493" lon="19.52119">
        <ele>875.90002441406</ele>
        <time>2024-09-23T12:38:14.000Z</time>
      </trkpt>
      <trkpt lat="42.34491" lon="19.52123">
        <ele>875.90002441406</ele>
        <time>2024-09-23T12:38:15.000Z</time>
      </trkpt>
      <trkpt lat="42.34483" lon="19.52138">
        <ele>876.38000488281</ele>
        <time>2024-09-23T12:38:16.000Z</time>
      </trkpt>
      <trkpt lat="42.34482" lon="19.52139">
        <ele>876.38000488281</ele>
        <time>2024-09-23T12:38:17.000Z</time>
      </trkpt>
      <trkpt lat="42.34478" lon="19.52148">
        <ele>875.90002441406</ele>
        <time>2024-09-23T12:38:18.000Z</time>
      </trkpt>
      <trkpt lat="42.34476" lon="19.52155">
        <ele>875.90002441406</ele>
        <time>2024-09-23T12:38:19.000Z</time>
      </trkpt>
      <trkpt lat="42.34473" lon="19.52162">
        <ele>875.90002441406</ele>
        <time>2024-09-23T12:38:20.000Z</time>
      </trkpt>
      <trkpt lat="42.3447" lon="19.52166">
        <ele>875.41998291016</ele>
        <time>2024-09-23T12:38:21.000Z</time>
      </trkpt>
      <trkpt lat="42.34466" lon="19.5217">
        <ele>875.41998291016</ele>
        <time>2024-09-23T12:38:22.000Z</time>
      </trkpt>
      <trkpt lat="42.34462" lon="19.52174">
        <ele>875.90002441406</ele>
        <time>2024-09-23T12:38:23.000Z</time>
      </trkpt>
      <trkpt lat="42.34458" lon="19.52179">
        <ele>875.90002441406</ele>
        <time>2024-09-23T12:38:24.000Z</time>
      </trkpt>
      <trkpt lat="42.34456" lon="19.52183">
        <ele>875.90002441406</ele>
        <time>2024-09-23T12:38:25.000Z</time>
      </trkpt>
      <trkpt lat="42.34451" lon="19.52195">
        <ele>873.97998046875</ele>
        <time>2024-09-23T12:38:27.000Z</time>
      </trkpt>
      <trkpt lat="42.3445" lon="19.52196">
        <ele>873.97998046875</ele>
        <time>2024-09-23T12:38:28.000Z</time>
      </trkpt>
      <trkpt lat="42.34448" lon="19.52202">
        <ele>873.5</ele>
        <time>2024-09-23T12:38:29.000Z</time>
      </trkpt>
      <trkpt lat="42.34446" lon="19.52209">
        <ele>873.01000976562</ele>
        <time>2024-09-23T12:38:30.000Z</time>
      </trkpt>
      <trkpt lat="42.34443" lon="19.52216">
        <ele>872.53002929688</ele>
        <time>2024-09-23T12:38:31.000Z</time>
      </trkpt>
      <trkpt lat="42.34442" lon="19.52219">
        <ele>872.04998779297</ele>
        <time>2024-09-23T12:38:32.000Z</time>
      </trkpt>
      <trkpt lat="42.34438" lon="19.52224">
        <ele>871.57000732422</ele>
        <time>2024-09-23T12:38:33.000Z</time>
      </trkpt>
      <trkpt lat="42.34436" lon="19.52228">
        <ele>871.57000732422</ele>
        <time>2024-09-23T12:38:34.000Z</time>
      </trkpt>
      <trkpt lat="42.34431" lon="19.52235">
        <ele>871.57000732422</ele>
        <time>2024-09-23T12:38:35.000Z</time>
      </trkpt>
      <trkpt lat="42.34429" lon="19.52239">
        <ele>872.04998779297</ele>
        <time>2024-09-23T12:38:36.000Z</time>
      </trkpt>
      <trkpt lat="42.34427" lon="19.52244">
        <ele>871.57000732422</ele>
        <time>2024-09-23T12:38:37.000Z</time>
      </trkpt>
      <trkpt lat="42.34426" lon="19.52249">
        <ele>871.09002685547</ele>
        <time>2024-09-23T12:38:38.000Z</time>
      </trkpt>
      <trkpt lat="42.34426" lon="19.52256">
        <ele>871.09002685547</ele>
        <time>2024-09-23T12:38:39.000Z</time>
      </trkpt>
      <trkpt lat="42.34426" lon="19.52263">
        <ele>870.60998535156</ele>
        <time>2024-09-23T12:38:40.000Z</time>
      </trkpt>
      <trkpt lat="42.34428" lon="19.5227">
        <ele>870.60998535156</ele>
        <time>2024-09-23T12:38:41.000Z</time>
      </trkpt>
      <trkpt lat="42.34431" lon="19.52286">
        <ele>870.60998535156</ele>
        <time>2024-09-23T12:38:43.000Z</time>
      </trkpt>
      <trkpt lat="42.34432" lon="19.52292">
        <ele>870.60998535156</ele>
        <time>2024-09-23T12:38:44.000Z</time>
      </trkpt>
      <trkpt lat="42.34432" lon="19.52299">
        <ele>871.09002685547</ele>
        <time>2024-09-23T12:38:45.000Z</time>
      </trkpt>
      <trkpt lat="42.34431" lon="19.52305">
        <ele>871.57000732422</ele>
        <time>2024-09-23T12:38:46.000Z</time>
      </trkpt>
      <trkpt lat="42.34428" lon="19.5231">
        <ele>872.53002929688</ele>
        <time>2024-09-23T12:38:47.000Z</time>
      </trkpt>
      <trkpt lat="42.34424" lon="19.52313">
        <ele>873.01000976562</ele>
        <time>2024-09-23T12:38:48.000Z</time>
      </trkpt>
      <trkpt lat="42.34421" lon="19.52317">
        <ele>873.5</ele>
        <time>2024-09-23T12:38:49.000Z</time>
      </trkpt>
      <trkpt lat="42.34418" lon="19.52324">
        <ele>874.46002197266</ele>
        <time>2024-09-23T12:38:50.000Z</time>
      </trkpt>
      <trkpt lat="42.34414" lon="19.52333">
        <ele>875.41998291016</ele>
        <time>2024-09-23T12:38:51.000Z</time>
      </trkpt>
      <trkpt lat="42.34413" lon="19.52336">
        <ele>875.41998291016</ele>
        <time>2024-09-23T12:38:52.000Z</time>
      </trkpt>
      <trkpt lat="42.34409" lon="19.52342">
        <ele>876.38000488281</ele>
        <time>2024-09-23T12:38:53.000Z</time>
      </trkpt>
      <trkpt lat="42.34405" lon="19.52345">
        <ele>876.38000488281</ele>
        <time>2024-09-23T12:38:54.000Z</time>
      </trkpt>
      <trkpt lat="42.344" lon="19.52344">
        <ele>877.34002685547</ele>
        <time>2024-09-23T12:38:55.000Z</time>
      </trkpt>
      <trkpt lat="42.34395" lon="19.52342">
        <ele>877.34002685547</ele>
        <time>2024-09-23T12:38:56.000Z</time>
      </trkpt>
      <trkpt lat="42.3439" lon="19.5234">
        <ele>877.34002685547</ele>
        <time>2024-09-23T12:38:57.000Z</time>
      </trkpt>
      <trkpt lat="42.34385" lon="19.52339">
        <ele>877.34002685547</ele>
        <time>2024-09-23T12:38:58.000Z</time>
      </trkpt>
      <trkpt lat="42.34381" lon="19.52341">
        <ele>877.34002685547</ele>
        <time>2024-09-23T12:38:59.000Z</time>
      </trkpt>
      <trkpt lat="42.34377" lon="19.52344">
        <ele>877.34002685547</ele>
        <time>2024-09-23T12:39:00.000Z</time>
      </trkpt>
      <trkpt lat="42.34375" lon="19.52349">
        <ele>877.34002685547</ele>
        <time>2024-09-23T12:39:01.000Z</time>
      </trkpt>
      <trkpt lat="42.34373" lon="19.52355">
        <ele>877.34002685547</ele>
        <time>2024-09-23T12:39:02.000Z</time>
      </trkpt>
      <trkpt lat="42.34372" lon="19.52365">
        <ele>877.82000732422</ele>
        <time>2024-09-23T12:39:03.000Z</time>
      </trkpt>
      <trkpt lat="42.3437" lon="19.52373">
        <ele>878.29998779297</ele>
        <time>2024-09-23T12:39:04.000Z</time>
      </trkpt>
      <trkpt lat="42.34367" lon="19.52381">
        <ele>878.78002929688</ele>
        <time>2024-09-23T12:39:05.000Z</time>
      </trkpt>
      <trkpt lat="42.34363" lon="19.52391">
        <ele>879.26000976562</ele>
        <time>2024-09-23T12:39:06.000Z</time>
      </trkpt>
      <trkpt lat="42.3436" lon="19.52398">
        <ele>879.73999023438</ele>
        <time>2024-09-23T12:39:07.000Z</time>
      </trkpt>
      <trkpt lat="42.34355" lon="19.52406">
        <ele>880.21997070312</ele>
        <time>2024-09-23T12:39:08.000Z</time>
      </trkpt>
      <trkpt lat="42.3435" lon="19.52412">
        <ele>881.66998291016</ele>
        <time>2024-09-23T12:39:09.000Z</time>
      </trkpt>
      <trkpt lat="42.34347" lon="19.52418">
        <ele>882.15002441406</ele>
        <time>2024-09-23T12:39:10.000Z</time>
      </trkpt>
      <trkpt lat="42.34344" lon="19.52423">
        <ele>882.15002441406</ele>
        <time>2024-09-23T12:39:11.000Z</time>
      </trkpt>
      <trkpt lat="42.34341" lon="19.52429">
        <ele>881.66998291016</ele>
        <time>2024-09-23T12:39:12.000Z</time>
      </trkpt>
      <trkpt lat="42.34335" lon="19.52432">
        <ele>882.15002441406</ele>
        <time>2024-09-23T12:39:13.000Z</time>
      </trkpt>
      <trkpt lat="42.34329" lon="19.52435">
        <ele>882.63000488281</ele>
        <time>2024-09-23T12:39:14.000Z</time>
      </trkpt>
      <trkpt lat="42.34323" lon="19.52438">
        <ele>883.10998535156</ele>
        <time>2024-09-23T12:39:15.000Z</time>
      </trkpt>
      <trkpt lat="42.34317" lon="19.52442">
        <ele>884.54998779297</ele>
        <time>2024-09-23T12:39:16.000Z</time>
      </trkpt>
      <trkpt lat="42.34311" lon="19.52447">
        <ele>885.51000976562</ele>
        <time>2024-09-23T12:39:17.000Z</time>
      </trkpt>
      <trkpt lat="42.34304" lon="19.52457">
        <ele>886.46997070312</ele>
        <time>2024-09-23T12:39:18.000Z</time>
      </trkpt>
      <trkpt lat="42.34302" lon="19.5246">
        <ele>886.95001220703</ele>
        <time>2024-09-23T12:39:19.000Z</time>
      </trkpt>
      <trkpt lat="42.34297" lon="19.52465">
        <ele>887.42999267578</ele>
        <time>2024-09-23T12:39:20.000Z</time>
      </trkpt>
      <trkpt lat="42.34292" lon="19.52468">
        <ele>887.90997314453</ele>
        <time>2024-09-23T12:39:21.000Z</time>
      </trkpt>
      <trkpt lat="42.34282" lon="19.52469">
        <ele>889.35998535156</ele>
        <time>2024-09-23T12:39:22.000Z</time>
      </trkpt>
      <trkpt lat="42.3428" lon="19.5247">
        <ele>889.35998535156</ele>
        <time>2024-09-23T12:39:23.000Z</time>
      </trkpt>
      <trkpt lat="42.34268" lon="19.52485">
        <ele>893.20001220703</ele>
        <time>2024-09-23T12:39:28.000Z</time>
      </trkpt>
      <trkpt lat="42.34267" lon="19.52489">
        <ele>894.15997314453</ele>
        <time>2024-09-23T12:39:29.000Z</time>
      </trkpt>
      <trkpt lat="42.34263" lon="19.52495">
        <ele>894.64001464844</ele>
        <time>2024-09-23T12:39:30.000Z</time>
      </trkpt>
      <trkpt lat="42.34259" lon="19.52502">
        <ele>896.09002685547</ele>
        <time>2024-09-23T12:39:31.000Z</time>
      </trkpt>
      <trkpt lat="42.34255" lon="19.52508">
        <ele>897.04998779297</ele>
        <time>2024-09-23T12:39:32.000Z</time>
      </trkpt>
      <trkpt lat="42.34249" lon="19.52515">
        <ele>898.01000976562</ele>
        <time>2024-09-23T12:39:33.000Z</time>
      </trkpt>
      <trkpt lat="42.34245" lon="19.52522">
        <ele>898.01000976562</ele>
        <time>2024-09-23T12:39:34.000Z</time>
      </trkpt>
      <trkpt lat="42.34241" lon="19.52528">
        <ele>898.48999023438</ele>
        <time>2024-09-23T12:39:35.000Z</time>
      </trkpt>
      <trkpt lat="42.34237" lon="19.52533">
        <ele>898.96997070312</ele>
        <time>2024-09-23T12:39:36.000Z</time>
      </trkpt>
      <trkpt lat="42.34234" lon="19.52539">
        <ele>899.45001220703</ele>
        <time>2024-09-23T12:39:37.000Z</time>
      </trkpt>
      <trkpt lat="42.34233" lon="19.52545">
        <ele>900.40997314453</ele>
        <time>2024-09-23T12:39:38.000Z</time>
      </trkpt>
      <trkpt lat="42.34231" lon="19.52552">
        <ele>900.89001464844</ele>
        <time>2024-09-23T12:39:39.000Z</time>
      </trkpt>
      <trkpt lat="42.34228" lon="19.5256">
        <ele>901.84997558594</ele>
        <time>2024-09-23T12:39:40.000Z</time>
      </trkpt>
      <trkpt lat="42.34225" lon="19.52567">
        <ele>902.33001708984</ele>
        <time>2024-09-23T12:39:41.000Z</time>
      </trkpt>
      <trkpt lat="42.34221" lon="19.52572">
        <ele>903.29998779297</ele>
        <time>2024-09-23T12:39:42.000Z</time>
      </trkpt>
      <trkpt lat="42.34216" lon="19.52576">
        <ele>904.26000976562</ele>
        <time>2024-09-23T12:39:43.000Z</time>
      </trkpt>
      <trkpt lat="42.34211" lon="19.5258">
        <ele>905.70001220703</ele>
        <time>2024-09-23T12:39:44.000Z</time>
      </trkpt>
      <trkpt lat="42.34208" lon="19.52584">
        <ele>906.17999267578</ele>
        <time>2024-09-23T12:39:45.000Z</time>
      </trkpt>
      <trkpt lat="42.34205" lon="19.52589">
        <ele>906.65997314453</ele>
        <time>2024-09-23T12:39:46.000Z</time>
      </trkpt>
      <trkpt lat="42.34201" lon="19.52598">
        <ele>907.61999511719</ele>
        <time>2024-09-23T12:39:47.000Z</time>
      </trkpt>
      <trkpt lat="42.34199" lon="19.52603">
        <ele>908.09997558594</ele>
        <time>2024-09-23T12:39:48.000Z</time>
      </trkpt>
      <trkpt lat="42.34196" lon="19.52609">
        <ele>908.58001708984</ele>
        <time>2024-09-23T12:39:49.000Z</time>
      </trkpt>
      <trkpt lat="42.34192" lon="19.52616">
        <ele>909.53997802734</ele>
        <time>2024-09-23T12:39:50.000Z</time>
      </trkpt>
      <trkpt lat="42.34185" lon="19.52625">
        <ele>910.03002929688</ele>
        <time>2024-09-23T12:39:51.000Z</time>
      </trkpt>
      <trkpt lat="42.3418" lon="19.52632">
        <ele>910.51000976562</ele>
        <time>2024-09-23T12:39:52.000Z</time>
      </trkpt>
      <trkpt lat="42.34177" lon="19.52637">
        <ele>910.98999023438</ele>
        <time>2024-09-23T12:39:53.000Z</time>
      </trkpt>
      <trkpt lat="42.34173" lon="19.52643">
        <ele>910.98999023438</ele>
        <time>2024-09-23T12:39:54.000Z</time>
      </trkpt>
      <trkpt lat="42.34168" lon="19.52649">
        <ele>910.98999023438</ele>
        <time>2024-09-23T12:39:55.000Z</time>
      </trkpt>
      <trkpt lat="42.34164" lon="19.52653">
        <ele>910.98999023438</ele>
        <time>2024-09-23T12:39:56.000Z</time>
      </trkpt>
      <trkpt lat="42.34161" lon="19.52659">
        <ele>911.46997070312</ele>
        <time>2024-09-23T12:39:57.000Z</time>
      </trkpt>
      <trkpt lat="42.34157" lon="19.5267">
        <ele>910.98999023438</ele>
        <time>2024-09-23T12:39:58.000Z</time>
      </trkpt>
      <trkpt lat="42.34154" lon="19.52675">
        <ele>910.98999023438</ele>
        <time>2024-09-23T12:39:59.000Z</time>
      </trkpt>
      <trkpt lat="42.34152" lon="19.52683">
        <ele>910.98999023438</ele>
        <time>2024-09-23T12:40:00.000Z</time>
      </trkpt>
      <trkpt lat="42.34147" lon="19.52692">
        <ele>911.46997070312</ele>
        <time>2024-09-23T12:40:01.000Z</time>
      </trkpt>
      <trkpt lat="42.34144" lon="19.52699">
        <ele>911.46997070312</ele>
        <time>2024-09-23T12:40:02.000Z</time>
      </trkpt>
      <trkpt lat="42.34138" lon="19.52712">
        <ele>912.42999267578</ele>
        <time>2024-09-23T12:40:03.000Z</time>
      </trkpt>
      <trkpt lat="42.34134" lon="19.52723">
        <ele>913.86999511719</ele>
        <time>2024-09-23T12:40:04.000Z</time>
      </trkpt>
      <trkpt lat="42.34132" lon="19.52727">
        <ele>914.83001708984</ele>
        <time>2024-09-23T12:40:05.000Z</time>
      </trkpt>
      <trkpt lat="42.3413" lon="19.52732">
        <ele>915.30999755859</ele>
        <time>2024-09-23T12:40:06.000Z</time>
      </trkpt>
      <trkpt lat="42.34127" lon="19.52741">
        <ele>914.83001708984</ele>
        <time>2024-09-23T12:40:07.000Z</time>
      </trkpt>
      <trkpt lat="42.34127" lon="19.52742">
        <ele>914.83001708984</ele>
        <time>2024-09-23T12:40:08.000Z</time>
      </trkpt>
      <trkpt lat="42.34128" lon="19.52749">
        <ele>914.34997558594</ele>
        <time>2024-09-23T12:40:09.000Z</time>
      </trkpt>
      <trkpt lat="42.34127" lon="19.52756">
        <ele>913.86999511719</ele>
        <time>2024-09-23T12:40:10.000Z</time>
      </trkpt>
      <trkpt lat="42.34126" lon="19.52764">
        <ele>913.39001464844</ele>
        <time>2024-09-23T12:40:11.000Z</time>
      </trkpt>
      <trkpt lat="42.34124" lon="19.52781">
        <ele>913.39001464844</ele>
        <time>2024-09-23T12:40:12.000Z</time>
      </trkpt>
      <trkpt lat="42.34123" lon="19.52784">
        <ele>913.39001464844</ele>
        <time>2024-09-23T12:40:13.000Z</time>
      </trkpt>
      <trkpt lat="42.34122" lon="19.52794">
        <ele>913.86999511719</ele>
        <time>2024-09-23T12:40:14.000Z</time>
      </trkpt>
      <trkpt lat="42.34119" lon="19.52803">
        <ele>913.86999511719</ele>
        <time>2024-09-23T12:40:15.000Z</time>
      </trkpt>
      <trkpt lat="42.34117" lon="19.52809">
        <ele>913.86999511719</ele>
        <time>2024-09-23T12:40:16.000Z</time>
      </trkpt>
      <trkpt lat="42.34112" lon="19.52815">
        <ele>913.86999511719</ele>
        <time>2024-09-23T12:40:17.000Z</time>
      </trkpt>
      <trkpt lat="42.34104" lon="19.52821">
        <ele>914.34997558594</ele>
        <time>2024-09-23T12:40:18.000Z</time>
      </trkpt>
      <trkpt lat="42.34101" lon="19.52824">
        <ele>914.34997558594</ele>
        <time>2024-09-23T12:40:19.000Z</time>
      </trkpt>
      <trkpt lat="42.34095" lon="19.52826">
        <ele>913.86999511719</ele>
        <time>2024-09-23T12:40:20.000Z</time>
      </trkpt>
      <trkpt lat="42.34089" lon="19.52828">
        <ele>913.39001464844</ele>
        <time>2024-09-23T12:40:21.000Z</time>
      </trkpt>
      <trkpt lat="42.34085" lon="19.5283">
        <ele>913.39001464844</ele>
        <time>2024-09-23T12:40:22.000Z</time>
      </trkpt>
      <trkpt lat="42.34081" lon="19.52835">
        <ele>912.42999267578</ele>
        <time>2024-09-23T12:40:23.000Z</time>
      </trkpt>
      <trkpt lat="42.34076" lon="19.52841">
        <ele>911.95001220703</ele>
        <time>2024-09-23T12:40:24.000Z</time>
      </trkpt>
      <trkpt lat="42.34071" lon="19.52847">
        <ele>911.95001220703</ele>
        <time>2024-09-23T12:40:25.000Z</time>
      </trkpt>
      <trkpt lat="42.34067" lon="19.52853">
        <ele>911.95001220703</ele>
        <time>2024-09-23T12:40:26.000Z</time>
      </trkpt>
      <trkpt lat="42.34063" lon="19.52862">
        <ele>910.98999023438</ele>
        <time>2024-09-23T12:40:27.000Z</time>
      </trkpt>
      <trkpt lat="42.34059" lon="19.52871">
        <ele>910.51000976562</ele>
        <time>2024-09-23T12:40:28.000Z</time>
      </trkpt>
      <trkpt lat="42.34055" lon="19.52878">
        <ele>910.51000976562</ele>
        <time>2024-09-23T12:40:29.000Z</time>
      </trkpt>
      <trkpt lat="42.34051" lon="19.52885">
        <ele>910.03002929688</ele>
        <time>2024-09-23T12:40:30.000Z</time>
      </trkpt>
      <trkpt lat="42.34047" lon="19.52892">
        <ele>910.03002929688</ele>
        <time>2024-09-23T12:40:31.000Z</time>
      </trkpt>
      <trkpt lat="42.34036" lon="19.52911">
        <ele>910.51000976562</ele>
        <time>2024-09-23T12:40:33.000Z</time>
      </trkpt>
      <trkpt lat="42.34034" lon="19.52913">
        <ele>910.51000976562</ele>
        <time>2024-09-23T12:40:34.000Z</time>
      </trkpt>
      <trkpt lat="42.34031" lon="19.52919">
        <ele>911.46997070312</ele>
        <time>2024-09-23T12:40:35.000Z</time>
      </trkpt>
      <trkpt lat="42.34028" lon="19.52925">
        <ele>911.46997070312</ele>
        <time>2024-09-23T12:40:36.000Z</time>
      </trkpt>
      <trkpt lat="42.34025" lon="19.52932">
        <ele>911.95001220703</ele>
        <time>2024-09-23T12:40:37.000Z</time>
      </trkpt>
      <trkpt lat="42.34023" lon="19.52938">
        <ele>911.46997070312</ele>
        <time>2024-09-23T12:40:38.000Z</time>
      </trkpt>
      <trkpt lat="42.3402" lon="19.52945">
        <ele>911.46997070312</ele>
        <time>2024-09-23T12:40:39.000Z</time>
      </trkpt>
      <trkpt lat="42.34018" lon="19.52954">
        <ele>910.51000976562</ele>
        <time>2024-09-23T12:40:40.000Z</time>
      </trkpt>
      <trkpt lat="42.34015" lon="19.52963">
        <ele>910.51000976562</ele>
        <time>2024-09-23T12:40:41.000Z</time>
      </trkpt>
      <trkpt lat="42.34013" lon="19.5297">
        <ele>910.51000976562</ele>
        <time>2024-09-23T12:40:42.000Z</time>
      </trkpt>
      <trkpt lat="42.34011" lon="19.52981">
        <ele>910.03002929688</ele>
        <time>2024-09-23T12:40:43.000Z</time>
      </trkpt>
      <trkpt lat="42.34009" lon="19.52992">
        <ele>910.03002929688</ele>
        <time>2024-09-23T12:40:44.000Z</time>
      </trkpt>
      <trkpt lat="42.34006" lon="19.53002">
        <ele>910.03002929688</ele>
        <time>2024-09-23T12:40:45.000Z</time>
      </trkpt>
      <trkpt lat="42.34003" lon="19.53012">
        <ele>910.03002929688</ele>
        <time>2024-09-23T12:40:46.000Z</time>
      </trkpt>
      <trkpt lat="42.34001" lon="19.53023">
        <ele>910.03002929688</ele>
        <time>2024-09-23T12:40:47.000Z</time>
      </trkpt>
      <trkpt lat="42.33999" lon="19.53032">
        <ele>910.03002929688</ele>
        <time>2024-09-23T12:40:48.000Z</time>
      </trkpt>
      <trkpt lat="42.33995" lon="19.53049">
        <ele>910.03002929688</ele>
        <time>2024-09-23T12:40:49.000Z</time>
      </trkpt>
      <trkpt lat="42.33994" lon="19.53055">
        <ele>910.03002929688</ele>
        <time>2024-09-23T12:40:50.000Z</time>
      </trkpt>
      <trkpt lat="42.33991" lon="19.53065">
        <ele>910.03002929688</ele>
        <time>2024-09-23T12:40:51.000Z</time>
      </trkpt>
      <trkpt lat="42.33987" lon="19.53075">
        <ele>910.51000976562</ele>
        <time>2024-09-23T12:40:52.000Z</time>
      </trkpt>
      <trkpt lat="42.33979" lon="19.5309">
        <ele>910.03002929688</ele>
        <time>2024-09-23T12:40:53.000Z</time>
      </trkpt>
      <trkpt lat="42.33976" lon="19.53096">
        <ele>910.03002929688</ele>
        <time>2024-09-23T12:40:54.000Z</time>
      </trkpt>
      <trkpt lat="42.33971" lon="19.53108">
        <ele>910.03002929688</ele>
        <time>2024-09-23T12:40:55.000Z</time>
      </trkpt>
      <trkpt lat="42.33938" lon="19.53186">
        <ele>912.90997314453</ele>
        <time>2024-09-23T12:41:02.000Z</time>
      </trkpt>
      <trkpt lat="42.33935" lon="19.53192">
        <ele>912.90997314453</ele>
        <time>2024-09-23T12:41:03.000Z</time>
      </trkpt>
      <trkpt lat="42.33917" lon="19.53221">
        <ele>912.42999267578</ele>
        <time>2024-09-23T12:41:06.000Z</time>
      </trkpt>
      <trkpt lat="42.33911" lon="19.53229">
        <ele>912.42999267578</ele>
        <time>2024-09-23T12:41:07.000Z</time>
      </trkpt>
      <trkpt lat="42.33904" lon="19.53239">
        <ele>912.42999267578</ele>
        <time>2024-09-23T12:41:08.000Z</time>
      </trkpt>
      <trkpt lat="42.33896" lon="19.5325">
        <ele>912.90997314453</ele>
        <time>2024-09-23T12:41:09.000Z</time>
      </trkpt>
      <trkpt lat="42.33893" lon="19.53256">
        <ele>913.39001464844</ele>
        <time>2024-09-23T12:41:10.000Z</time>
      </trkpt>
      <trkpt lat="42.33888" lon="19.53261">
        <ele>913.86999511719</ele>
        <time>2024-09-23T12:41:11.000Z</time>
      </trkpt>
      <trkpt lat="42.3388" lon="19.53268">
        <ele>914.34997558594</ele>
        <time>2024-09-23T12:41:12.000Z</time>
      </trkpt>
      <trkpt lat="42.33874" lon="19.53273">
        <ele>914.83001708984</ele>
        <time>2024-09-23T12:41:13.000Z</time>
      </trkpt>
      <trkpt lat="42.33865" lon="19.53278">
        <ele>914.83001708984</ele>
        <time>2024-09-23T12:41:14.000Z</time>
      </trkpt>
      <trkpt lat="42.33859" lon="19.53281">
        <ele>915.30999755859</ele>
        <time>2024-09-23T12:41:15.000Z</time>
      </trkpt>
      <trkpt lat="42.33852" lon="19.53287">
        <ele>915.30999755859</ele>
        <time>2024-09-23T12:41:16.000Z</time>
      </trkpt>
      <trkpt lat="42.33846" lon="19.53292">
        <ele>915.78997802734</ele>
        <time>2024-09-23T12:41:17.000Z</time>
      </trkpt>
      <trkpt lat="42.33839" lon="19.53297">
        <ele>916.27001953125</ele>
        <time>2024-09-23T12:41:18.000Z</time>
      </trkpt>
      <trkpt lat="42.33828" lon="19.53304">
        <ele>916.75</ele>
        <time>2024-09-23T12:41:19.000Z</time>
      </trkpt>
      <trkpt lat="42.33817" lon="19.53312">
        <ele>918.20001220703</ele>
        <time>2024-09-23T12:41:21.000Z</time>
      </trkpt>
      <trkpt lat="42.33805" lon="19.53322">
        <ele>919.15997314453</ele>
        <time>2024-09-23T12:41:23.000Z</time>
      </trkpt>
      <trkpt lat="42.338" lon="19.53325">
        <ele>919.15997314453</ele>
        <time>2024-09-23T12:41:24.000Z</time>
      </trkpt>
      <trkpt lat="42.33791" lon="19.53332">
        <ele>920.11999511719</ele>
        <time>2024-09-23T12:41:25.000Z</time>
      </trkpt>
      <trkpt lat="42.33788" lon="19.53334">
        <ele>920.59997558594</ele>
        <time>2024-09-23T12:41:26.000Z</time>
      </trkpt>
      <trkpt lat="42.33784" lon="19.53339">
        <ele>921.08001708984</ele>
        <time>2024-09-23T12:41:27.000Z</time>
      </trkpt>
      <trkpt lat="42.33781" lon="19.53344">
        <ele>921.08001708984</ele>
        <time>2024-09-23T12:41:28.000Z</time>
      </trkpt>
      <trkpt lat="42.33778" lon="19.53353">
        <ele>920.59997558594</ele>
        <time>2024-09-23T12:41:29.000Z</time>
      </trkpt>
      <trkpt lat="42.3377" lon="19.53375">
        <ele>920.11999511719</ele>
        <time>2024-09-23T12:41:31.000Z</time>
      </trkpt>
      <trkpt lat="42.3377" lon="19.53377">
        <ele>920.11999511719</ele>
        <time>2024-09-23T12:41:32.000Z</time>
      </trkpt>
      <trkpt lat="42.33764" lon="19.53389">
        <ele>919.64001464844</ele>
        <time>2024-09-23T12:41:33.000Z</time>
      </trkpt>
      <trkpt lat="42.33762" lon="19.53394">
        <ele>919.15997314453</ele>
        <time>2024-09-23T12:41:34.000Z</time>
      </trkpt>
      <trkpt lat="42.33757" lon="19.53402">
        <ele>918.67999267578</ele>
        <time>2024-09-23T12:41:35.000Z</time>
      </trkpt>
      <trkpt lat="42.33751" lon="19.53408">
        <ele>919.15997314453</ele>
        <time>2024-09-23T12:41:36.000Z</time>
      </trkpt>
      <trkpt lat="42.33744" lon="19.53415">
        <ele>918.67999267578</ele>
        <time>2024-09-23T12:41:37.000Z</time>
      </trkpt>
      <trkpt lat="42.33741" lon="19.53419">
        <ele>919.15997314453</ele>
        <time>2024-09-23T12:41:38.000Z</time>
      </trkpt>
      <trkpt lat="42.33737" lon="19.53426">
        <ele>919.15997314453</ele>
        <time>2024-09-23T12:41:39.000Z</time>
      </trkpt>
      <trkpt lat="42.33734" lon="19.53432">
        <ele>918.67999267578</ele>
        <time>2024-09-23T12:41:40.000Z</time>
      </trkpt>
      <trkpt lat="42.33729" lon="19.5344">
        <ele>918.20001220703</ele>
        <time>2024-09-23T12:41:41.000Z</time>
      </trkpt>
      <trkpt lat="42.33724" lon="19.53445">
        <ele>918.20001220703</ele>
        <time>2024-09-23T12:41:42.000Z</time>
      </trkpt>
      <trkpt lat="42.33718" lon="19.53453">
        <ele>918.20001220703</ele>
        <time>2024-09-23T12:41:43.000Z</time>
      </trkpt>
      <trkpt lat="42.33711" lon="19.53462">
        <ele>918.20001220703</ele>
        <time>2024-09-23T12:41:44.000Z</time>
      </trkpt>
      <trkpt lat="42.33709" lon="19.53466">
        <ele>918.20001220703</ele>
        <time>2024-09-23T12:41:45.000Z</time>
      </trkpt>
      <trkpt lat="42.33704" lon="19.53472">
        <ele>917.71997070312</ele>
        <time>2024-09-23T12:41:46.000Z</time>
      </trkpt>
      <trkpt lat="42.337" lon="19.53477">
        <ele>917.23999023438</ele>
        <time>2024-09-23T12:41:47.000Z</time>
      </trkpt>
      <trkpt lat="42.33685" lon="19.53491">
        <ele>915.78997802734</ele>
        <time>2024-09-23T12:41:49.000Z</time>
      </trkpt>
      <trkpt lat="42.33683" lon="19.53492">
        <ele>915.78997802734</ele>
        <time>2024-09-23T12:41:50.000Z</time>
      </trkpt>
      <trkpt lat="42.33678" lon="19.53496">
        <ele>914.83001708984</ele>
        <time>2024-09-23T12:41:51.000Z</time>
      </trkpt>
      <trkpt lat="42.33671" lon="19.535">
        <ele>913.86999511719</ele>
        <time>2024-09-23T12:41:52.000Z</time>
      </trkpt>
      <trkpt lat="42.33662" lon="19.53503">
        <ele>913.39001464844</ele>
        <time>2024-09-23T12:41:53.000Z</time>
      </trkpt>
      <trkpt lat="42.33655" lon="19.53506">
        <ele>912.42999267578</ele>
        <time>2024-09-23T12:41:54.000Z</time>
      </trkpt>
      <trkpt lat="42.3365" lon="19.53509">
        <ele>911.95001220703</ele>
        <time>2024-09-23T12:41:55.000Z</time>
      </trkpt>
      <trkpt lat="42.33644" lon="19.53513">
        <ele>910.98999023438</ele>
        <time>2024-09-23T12:41:56.000Z</time>
      </trkpt>
      <trkpt lat="42.33631" lon="19.53528">
        <ele>910.51000976562</ele>
        <time>2024-09-23T12:41:58.000Z</time>
      </trkpt>
      <trkpt lat="42.33627" lon="19.53532">
        <ele>910.51000976562</ele>
        <time>2024-09-23T12:41:59.000Z</time>
      </trkpt>
      <trkpt lat="42.33623" lon="19.53536">
        <ele>910.51000976562</ele>
        <time>2024-09-23T12:42:00.000Z</time>
      </trkpt>
      <trkpt lat="42.33619" lon="19.53541">
        <ele>910.51000976562</ele>
        <time>2024-09-23T12:42:01.000Z</time>
      </trkpt>
      <trkpt lat="42.33617" lon="19.53546">
        <ele>909.53997802734</ele>
        <time>2024-09-23T12:42:02.000Z</time>
      </trkpt>
      <trkpt lat="42.33614" lon="19.53553">
        <ele>908.09997558594</ele>
        <time>2024-09-23T12:42:03.000Z</time>
      </trkpt>
      <trkpt lat="42.3361" lon="19.5356">
        <ele>907.14001464844</ele>
        <time>2024-09-23T12:42:04.000Z</time>
      </trkpt>
      <trkpt lat="42.33606" lon="19.53566">
        <ele>906.17999267578</ele>
        <time>2024-09-23T12:42:05.000Z</time>
      </trkpt>
      <trkpt lat="42.336" lon="19.5357">
        <ele>905.70001220703</ele>
        <time>2024-09-23T12:42:06.000Z</time>
      </trkpt>
      <trkpt lat="42.33595" lon="19.53575">
        <ele>904.73999023438</ele>
        <time>2024-09-23T12:42:07.000Z</time>
      </trkpt>
      <trkpt lat="42.3359" lon="19.53582">
        <ele>904.26000976562</ele>
        <time>2024-09-23T12:42:08.000Z</time>
      </trkpt>
      <trkpt lat="42.33587" lon="19.53589">
        <ele>904.73999023438</ele>
        <time>2024-09-23T12:42:09.000Z</time>
      </trkpt>
      <trkpt lat="42.33585" lon="19.53598">
        <ele>905.21997070312</ele>
        <time>2024-09-23T12:42:10.000Z</time>
      </trkpt>
      <trkpt lat="42.33583" lon="19.53609">
        <ele>905.70001220703</ele>
        <time>2024-09-23T12:42:11.000Z</time>
      </trkpt>
      <trkpt lat="42.33582" lon="19.53618">
        <ele>906.17999267578</ele>
        <time>2024-09-23T12:42:12.000Z</time>
      </trkpt>
      <trkpt lat="42.33579" lon="19.53633">
        <ele>907.14001464844</ele>
        <time>2024-09-23T12:42:13.000Z</time>
      </trkpt>
      <trkpt lat="42.33578" lon="19.53636">
        <ele>907.61999511719</ele>
        <time>2024-09-23T12:42:14.000Z</time>
      </trkpt>
      <trkpt lat="42.33577" lon="19.53645">
        <ele>908.09997558594</ele>
        <time>2024-09-23T12:42:15.000Z</time>
      </trkpt>
      <trkpt lat="42.33576" lon="19.53655">
        <ele>908.09997558594</ele>
        <time>2024-09-23T12:42:16.000Z</time>
      </trkpt>
      <trkpt lat="42.33576" lon="19.53671">
        <ele>909.05999755859</ele>
        <time>2024-09-23T12:42:17.000Z</time>
      </trkpt>
      <trkpt lat="42.33576" lon="19.53675">
        <ele>909.53997802734</ele>
        <time>2024-09-23T12:42:18.000Z</time>
      </trkpt>
      <trkpt lat="42.33576" lon="19.5368">
        <ele>910.03002929688</ele>
        <time>2024-09-23T12:42:19.000Z</time>
      </trkpt>
      <trkpt lat="42.33575" lon="19.53685">
        <ele>910.51000976562</ele>
        <time>2024-09-23T12:42:20.000Z</time>
      </trkpt>
      <trkpt lat="42.33574" lon="19.53693">
        <ele>910.03002929688</ele>
        <time>2024-09-23T12:42:21.000Z</time>
      </trkpt>
      <trkpt lat="42.33571" lon="19.53704">
        <ele>909.53997802734</ele>
        <time>2024-09-23T12:42:22.000Z</time>
      </trkpt>
      <trkpt lat="42.3357" lon="19.53708">
        <ele>909.05999755859</ele>
        <time>2024-09-23T12:42:23.000Z</time>
      </trkpt>
      <trkpt lat="42.33568" lon="19.53719">
        <ele>909.05999755859</ele>
        <time>2024-09-23T12:42:24.000Z</time>
      </trkpt>
      <trkpt lat="42.33566" lon="19.53727">
        <ele>909.05999755859</ele>
        <time>2024-09-23T12:42:25.000Z</time>
      </trkpt>
      <trkpt lat="42.33565" lon="19.5373">
        <ele>908.58001708984</ele>
        <time>2024-09-23T12:42:26.000Z</time>
      </trkpt>
      <trkpt lat="42.33561" lon="19.53738">
        <ele>908.09997558594</ele>
        <time>2024-09-23T12:42:27.000Z</time>
      </trkpt>
      <trkpt lat="42.33559" lon="19.53741">
        <ele>907.61999511719</ele>
        <time>2024-09-23T12:42:28.000Z</time>
      </trkpt>
      <trkpt lat="42.33555" lon="19.53747">
        <ele>907.14001464844</ele>
        <time>2024-09-23T12:42:29.000Z</time>
      </trkpt>
      <trkpt lat="42.33553" lon="19.53752">
        <ele>906.65997314453</ele>
        <time>2024-09-23T12:42:30.000Z</time>
      </trkpt>
      <trkpt lat="42.33546" lon="19.53769">
        <ele>904.73999023438</ele>
        <time>2024-09-23T12:42:32.000Z</time>
      </trkpt>
      <trkpt lat="42.33545" lon="19.53772">
        <ele>904.26000976562</ele>
        <time>2024-09-23T12:42:33.000Z</time>
      </trkpt>
      <trkpt lat="42.3354" lon="19.5378">
        <ele>903.78002929688</ele>
        <time>2024-09-23T12:42:34.000Z</time>
      </trkpt>
      <trkpt lat="42.33537" lon="19.53787">
        <ele>903.29998779297</ele>
        <time>2024-09-23T12:42:35.000Z</time>
      </trkpt>
      <trkpt lat="42.33534" lon="19.53795">
        <ele>901.84997558594</ele>
        <time>2024-09-23T12:42:36.000Z</time>
      </trkpt>
      <trkpt lat="42.33531" lon="19.53804">
        <ele>901.36999511719</ele>
        <time>2024-09-23T12:42:37.000Z</time>
      </trkpt>
      <trkpt lat="42.33528" lon="19.53817">
        <ele>901.84997558594</ele>
        <time>2024-09-23T12:42:38.000Z</time>
      </trkpt>
      <trkpt lat="42.33526" lon="19.53826">
        <ele>901.36999511719</ele>
        <time>2024-09-23T12:42:39.000Z</time>
      </trkpt>
      <trkpt lat="42.33525" lon="19.5383">
        <ele>901.36999511719</ele>
        <time>2024-09-23T12:42:40.000Z</time>
      </trkpt>
      <trkpt lat="42.33523" lon="19.53839">
        <ele>900.40997314453</ele>
        <time>2024-09-23T12:42:41.000Z</time>
      </trkpt>
      <trkpt lat="42.33522" lon="19.53842">
        <ele>900.40997314453</ele>
        <time>2024-09-23T12:42:42.000Z</time>
      </trkpt>
      <trkpt lat="42.3352" lon="19.53849">
        <ele>899.45001220703</ele>
        <time>2024-09-23T12:42:43.000Z</time>
      </trkpt>
      <trkpt lat="42.33517" lon="19.53855">
        <ele>898.48999023438</ele>
        <time>2024-09-23T12:42:44.000Z</time>
      </trkpt>
      <trkpt lat="42.33514" lon="19.5386">
        <ele>898.01000976562</ele>
        <time>2024-09-23T12:42:45.000Z</time>
      </trkpt>
      <trkpt lat="42.33511" lon="19.53866">
        <ele>897.04998779297</ele>
        <time>2024-09-23T12:42:46.000Z</time>
      </trkpt>
      <trkpt lat="42.33506" lon="19.53872">
        <ele>896.57000732422</ele>
        <time>2024-09-23T12:42:47.000Z</time>
      </trkpt>
      <trkpt lat="42.33501" lon="19.53879">
        <ele>896.09002685547</ele>
        <time>2024-09-23T12:42:48.000Z</time>
      </trkpt>
      <trkpt lat="42.33497" lon="19.53885">
        <ele>895.11999511719</ele>
        <time>2024-09-23T12:42:49.000Z</time>
      </trkpt>
      <trkpt lat="42.33495" lon="19.53892">
        <ele>894.64001464844</ele>
        <time>2024-09-23T12:42:50.000Z</time>
      </trkpt>
      <trkpt lat="42.33494" lon="19.539">
        <ele>894.64001464844</ele>
        <time>2024-09-23T12:42:51.000Z</time>
      </trkpt>
      <trkpt lat="42.33493" lon="19.53908">
        <ele>894.15997314453</ele>
        <time>2024-09-23T12:42:52.000Z</time>
      </trkpt>
      <trkpt lat="42.33492" lon="19.53916">
        <ele>894.15997314453</ele>
        <time>2024-09-23T12:42:53.000Z</time>
      </trkpt>
      <trkpt lat="42.3349" lon="19.53925">
        <ele>894.15997314453</ele>
        <time>2024-09-23T12:42:54.000Z</time>
      </trkpt>
      <trkpt lat="42.33488" lon="19.53936">
        <ele>893.67999267578</ele>
        <time>2024-09-23T12:42:55.000Z</time>
      </trkpt>
      <trkpt lat="42.33486" lon="19.53942">
        <ele>893.20001220703</ele>
        <time>2024-09-23T12:42:56.000Z</time>
      </trkpt>
      <trkpt lat="42.33485" lon="19.5395">
        <ele>893.20001220703</ele>
        <time>2024-09-23T12:42:57.000Z</time>
      </trkpt>
      <trkpt lat="42.33484" lon="19.53955">
        <ele>892.71997070312</ele>
        <time>2024-09-23T12:42:58.000Z</time>
      </trkpt>
      <trkpt lat="42.3348" lon="19.53966">
        <ele>892.23999023438</ele>
        <time>2024-09-23T12:42:59.000Z</time>
      </trkpt>
      <trkpt lat="42.33479" lon="19.53969">
        <ele>891.76000976562</ele>
        <time>2024-09-23T12:43:00.000Z</time>
      </trkpt>
      <trkpt lat="42.33478" lon="19.53976">
        <ele>891.76000976562</ele>
        <time>2024-09-23T12:43:01.000Z</time>
      </trkpt>
      <trkpt lat="42.33476" lon="19.53983">
        <ele>890.79998779297</ele>
        <time>2024-09-23T12:43:02.000Z</time>
      </trkpt>
      <trkpt lat="42.33475" lon="19.53993">
        <ele>890.32000732422</ele>
        <time>2024-09-23T12:43:03.000Z</time>
      </trkpt>
      <trkpt lat="42.33469" lon="19.54012">
        <ele>889.35998535156</ele>
        <time>2024-09-23T12:43:05.000Z</time>
      </trkpt>
      <trkpt lat="42.33468" lon="19.54017">
        <ele>888.88000488281</ele>
        <time>2024-09-23T12:43:06.000Z</time>
      </trkpt>
      <trkpt lat="42.33462" lon="19.54028">
        <ele>887.42999267578</ele>
        <time>2024-09-23T12:43:08.000Z</time>
      </trkpt>
      <trkpt lat="42.3346" lon="19.5403">
        <ele>887.42999267578</ele>
        <time>2024-09-23T12:43:09.000Z</time>
      </trkpt>
      <trkpt lat="42.33457" lon="19.54033">
        <ele>886.95001220703</ele>
        <time>2024-09-23T12:43:10.000Z</time>
      </trkpt>
      <trkpt lat="42.33452" lon="19.54037">
        <ele>886.95001220703</ele>
        <time>2024-09-23T12:43:11.000Z</time>
      </trkpt>
      <trkpt lat="42.33447" lon="19.5404">
        <ele>886.46997070312</ele>
        <time>2024-09-23T12:43:12.000Z</time>
      </trkpt>
      <trkpt lat="42.33441" lon="19.54042">
        <ele>886.46997070312</ele>
        <time>2024-09-23T12:43:13.000Z</time>
      </trkpt>
      <trkpt lat="42.33436" lon="19.54044">
        <ele>885.98999023438</ele>
        <time>2024-09-23T12:43:14.000Z</time>
      </trkpt>
      <trkpt lat="42.33432" lon="19.54045">
        <ele>885.51000976562</ele>
        <time>2024-09-23T12:43:15.000Z</time>
      </trkpt>
      <trkpt lat="42.33427" lon="19.54045">
        <ele>885.03002929688</ele>
        <time>2024-09-23T12:43:16.000Z</time>
      </trkpt>
      <trkpt lat="42.33421" lon="19.54044">
        <ele>884.54998779297</ele>
        <time>2024-09-23T12:43:17.000Z</time>
      </trkpt>
      <trkpt lat="42.33414" lon="19.54042">
        <ele>884.07000732422</ele>
        <time>2024-09-23T12:43:18.000Z</time>
      </trkpt>
      <trkpt lat="42.3341" lon="19.54042">
        <ele>884.07000732422</ele>
        <time>2024-09-23T12:43:19.000Z</time>
      </trkpt>
      <trkpt lat="42.33405" lon="19.54043">
        <ele>884.07000732422</ele>
        <time>2024-09-23T12:43:20.000Z</time>
      </trkpt>
      <trkpt lat="42.33401" lon="19.54045">
        <ele>884.07000732422</ele>
        <time>2024-09-23T12:43:21.000Z</time>
      </trkpt>
      <trkpt lat="42.33398" lon="19.54049">
        <ele>884.07000732422</ele>
        <time>2024-09-23T12:43:22.000Z</time>
      </trkpt>
      <trkpt lat="42.33395" lon="19.54055">
        <ele>884.07000732422</ele>
        <time>2024-09-23T12:43:23.000Z</time>
      </trkpt>
      <trkpt lat="42.33388" lon="19.54075">
        <ele>883.59002685547</ele>
        <time>2024-09-23T12:43:25.000Z</time>
      </trkpt>
      <trkpt lat="42.33385" lon="19.54081">
        <ele>883.10998535156</ele>
        <time>2024-09-23T12:43:26.000Z</time>
      </trkpt>
      <trkpt lat="42.33384" lon="19.54086">
        <ele>883.10998535156</ele>
        <time>2024-09-23T12:43:27.000Z</time>
      </trkpt>
      <trkpt lat="42.3338" lon="19.54093">
        <ele>882.63000488281</ele>
        <time>2024-09-23T12:43:28.000Z</time>
      </trkpt>
      <trkpt lat="42.33375" lon="19.54098">
        <ele>882.63000488281</ele>
        <time>2024-09-23T12:43:29.000Z</time>
      </trkpt>
      <trkpt lat="42.33371" lon="19.54103">
        <ele>882.15002441406</ele>
        <time>2024-09-23T12:43:30.000Z</time>
      </trkpt>
      <trkpt lat="42.33363" lon="19.54108">
        <ele>881.66998291016</ele>
        <time>2024-09-23T12:43:31.000Z</time>
      </trkpt>
      <trkpt lat="42.33358" lon="19.54111">
        <ele>881.66998291016</ele>
        <time>2024-09-23T12:43:32.000Z</time>
      </trkpt>
      <trkpt lat="42.33352" lon="19.54112">
        <ele>881.19000244141</ele>
        <time>2024-09-23T12:43:33.000Z</time>
      </trkpt>
      <trkpt lat="42.33343" lon="19.54112">
        <ele>880.71002197266</ele>
        <time>2024-09-23T12:43:34.000Z</time>
      </trkpt>
      <trkpt lat="42.33338" lon="19.54112">
        <ele>880.21997070312</ele>
        <time>2024-09-23T12:43:35.000Z</time>
      </trkpt>
      <trkpt lat="42.33331" lon="19.54113">
        <ele>879.73999023438</ele>
        <time>2024-09-23T12:43:36.000Z</time>
      </trkpt>
      <trkpt lat="42.33326" lon="19.54116">
        <ele>879.73999023438</ele>
        <time>2024-09-23T12:43:37.000Z</time>
      </trkpt>
      <trkpt lat="42.33321" lon="19.54118">
        <ele>879.73999023438</ele>
        <time>2024-09-23T12:43:38.000Z</time>
      </trkpt>
      <trkpt lat="42.33317" lon="19.54124">
        <ele>879.73999023438</ele>
        <time>2024-09-23T12:43:39.000Z</time>
      </trkpt>
      <trkpt lat="42.33311" lon="19.54131">
        <ele>879.26000976562</ele>
        <time>2024-09-23T12:43:40.000Z</time>
      </trkpt>
      <trkpt lat="42.333" lon="19.54144">
        <ele>878.78002929688</ele>
        <time>2024-09-23T12:43:41.000Z</time>
      </trkpt>
      <trkpt lat="42.33295" lon="19.5415">
        <ele>877.82000732422</ele>
        <time>2024-09-23T12:43:42.000Z</time>
      </trkpt>
      <trkpt lat="42.33294" lon="19.54152">
        <ele>877.34002685547</ele>
        <time>2024-09-23T12:43:43.000Z</time>
      </trkpt>
      <trkpt lat="42.33285" lon="19.5416">
        <ele>876.85998535156</ele>
        <time>2024-09-23T12:43:44.000Z</time>
      </trkpt>
      <trkpt lat="42.33282" lon="19.54163">
        <ele>876.85998535156</ele>
        <time>2024-09-23T12:43:45.000Z</time>
      </trkpt>
      <trkpt lat="42.33276" lon="19.54166">
        <ele>876.38000488281</ele>
        <time>2024-09-23T12:43:46.000Z</time>
      </trkpt>
      <trkpt lat="42.3327" lon="19.54168">
        <ele>875.90002441406</ele>
        <time>2024-09-23T12:43:47.000Z</time>
      </trkpt>
      <trkpt lat="42.33259" lon="19.54169">
        <ele>874.94000244141</ele>
        <time>2024-09-23T12:43:48.000Z</time>
      </trkpt>
      <trkpt lat="42.33257" lon="19.54169">
        <ele>874.94000244141</ele>
        <time>2024-09-23T12:43:49.000Z</time>
      </trkpt>
      <trkpt lat="42.3325" lon="19.54171">
        <ele>874.46002197266</ele>
        <time>2024-09-23T12:43:50.000Z</time>
      </trkpt>
      <trkpt lat="42.33245" lon="19.54172">
        <ele>874.46002197266</ele>
        <time>2024-09-23T12:43:51.000Z</time>
      </trkpt>
      <trkpt lat="42.33239" lon="19.54173">
        <ele>873.97998046875</ele>
        <time>2024-09-23T12:43:52.000Z</time>
      </trkpt>
      <trkpt lat="42.33232" lon="19.54172">
        <ele>873.5</ele>
        <time>2024-09-23T12:43:53.000Z</time>
      </trkpt>
      <trkpt lat="42.33225" lon="19.5417">
        <ele>873.01000976562</ele>
        <time>2024-09-23T12:43:54.000Z</time>
      </trkpt>
      <trkpt lat="42.33222" lon="19.5417">
        <ele>872.53002929688</ele>
        <time>2024-09-23T12:43:55.000Z</time>
      </trkpt>
      <trkpt lat="42.33214" lon="19.54174">
        <ele>872.04998779297</ele>
        <time>2024-09-23T12:43:57.000Z</time>
      </trkpt>
      <trkpt lat="42.33213" lon="19.54177">
        <ele>872.04998779297</ele>
        <time>2024-09-23T12:43:58.000Z</time>
      </trkpt>
      <trkpt lat="42.3321" lon="19.54184">
        <ele>871.57000732422</ele>
        <time>2024-09-23T12:43:59.000Z</time>
      </trkpt>
      <trkpt lat="42.33208" lon="19.54192">
        <ele>871.57000732422</ele>
        <time>2024-09-23T12:44:00.000Z</time>
      </trkpt>
      <trkpt lat="42.33204" lon="19.54201">
        <ele>871.09002685547</ele>
        <time>2024-09-23T12:44:01.000Z</time>
      </trkpt>
      <trkpt lat="42.332" lon="19.54211">
        <ele>870.60998535156</ele>
        <time>2024-09-23T12:44:02.000Z</time>
      </trkpt>
      <trkpt lat="42.33192" lon="19.54229">
        <ele>870.13000488281</ele>
        <time>2024-09-23T12:44:04.000Z</time>
      </trkpt>
      <trkpt lat="42.33189" lon="19.54237">
        <ele>869.65002441406</ele>
        <time>2024-09-23T12:44:05.000Z</time>
      </trkpt>
      <trkpt lat="42.33186" lon="19.54244">
        <ele>869.16998291016</ele>
        <time>2024-09-23T12:44:06.000Z</time>
      </trkpt>
      <trkpt lat="42.33183" lon="19.54249">
        <ele>869.16998291016</ele>
        <time>2024-09-23T12:44:07.000Z</time>
      </trkpt>
      <trkpt lat="42.3318" lon="19.54255">
        <ele>868.69000244141</ele>
        <time>2024-09-23T12:44:08.000Z</time>
      </trkpt>
      <trkpt lat="42.33179" lon="19.5426">
        <ele>868.69000244141</ele>
        <time>2024-09-23T12:44:09.000Z</time>
      </trkpt>
      <trkpt lat="42.33179" lon="19.54266">
        <ele>868.69000244141</ele>
        <time>2024-09-23T12:44:10.000Z</time>
      </trkpt>
      <trkpt lat="42.33182" lon="19.54274">
        <ele>869.16998291016</ele>
        <time>2024-09-23T12:44:11.000Z</time>
      </trkpt>
      <trkpt lat="42.33187" lon="19.54285">
        <ele>868.69000244141</ele>
        <time>2024-09-23T12:44:13.000Z</time>
      </trkpt>
      <trkpt lat="42.3319" lon="19.54291">
        <ele>868.69000244141</ele>
        <time>2024-09-23T12:44:14.000Z</time>
      </trkpt>
      <trkpt lat="42.3319" lon="19.54305">
        <ele>868.69000244141</ele>
        <time>2024-09-23T12:44:17.000Z</time>
      </trkpt>
      <trkpt lat="42.33187" lon="19.54308">
        <ele>868.69000244141</ele>
        <time>2024-09-23T12:44:18.000Z</time>
      </trkpt>
      <trkpt lat="42.33183" lon="19.54313">
        <ele>868.21002197266</ele>
        <time>2024-09-23T12:44:19.000Z</time>
      </trkpt>
      <trkpt lat="42.3318" lon="19.54317">
        <ele>867.72998046875</ele>
        <time>2024-09-23T12:44:20.000Z</time>
      </trkpt>
      <trkpt lat="42.33175" lon="19.54323">
        <ele>867.25</ele>
        <time>2024-09-23T12:44:21.000Z</time>
      </trkpt>
      <trkpt lat="42.33149" lon="19.54366">
        <ele>864.35998535156</ele>
        <time>2024-09-23T12:44:28.000Z</time>
      </trkpt>
      <trkpt lat="42.33136" lon="19.54388">
        <ele>862.91998291016</ele>
        <time>2024-09-23T12:44:31.000Z</time>
      </trkpt>
      <trkpt lat="42.33112" lon="19.54416">
        <ele>861.96002197266</ele>
        <time>2024-09-23T12:45:15.000Z</time>
      </trkpt>
      <trkpt lat="42.33096" lon="19.54445">
        <ele>861.47998046875</ele>
        <time>2024-09-23T12:45:24.000Z</time>
      </trkpt>
      <trkpt lat="42.33084" lon="19.54473">
        <ele>858.59002685547</ele>
        <time>2024-09-23T12:45:34.000Z</time>
      </trkpt>
      <trkpt lat="42.3308" lon="19.54484">
        <ele>858.59002685547</ele>
        <time>2024-09-23T12:50:38.000Z</time>
      </trkpt>
      <trkpt lat="42.33079" lon="19.54488">
        <ele>858.59002685547</ele>
        <time>2024-09-23T12:50:39.000Z</time>
      </trkpt>
      <trkpt lat="42.33077" lon="19.54494">
        <ele>858.59002685547</ele>
        <time>2024-09-23T12:50:40.000Z</time>
      </trkpt>
      <trkpt lat="42.33075" lon="19.545">
        <ele>858.10998535156</ele>
        <time>2024-09-23T12:50:41.000Z</time>
      </trkpt>
      <trkpt lat="42.33071" lon="19.54505">
        <ele>858.10998535156</ele>
        <time>2024-09-23T12:50:42.000Z</time>
      </trkpt>
      <trkpt lat="42.33066" lon="19.5451">
        <ele>858.10998535156</ele>
        <time>2024-09-23T12:50:43.000Z</time>
      </trkpt>
      <trkpt lat="42.33061" lon="19.54513">
        <ele>857.63000488281</ele>
        <time>2024-09-23T12:50:44.000Z</time>
      </trkpt>
      <trkpt lat="42.33052" lon="19.54516">
        <ele>857.15002441406</ele>
        <time>2024-09-23T12:50:45.000Z</time>
      </trkpt>
      <trkpt lat="42.33048" lon="19.54518">
        <ele>857.15002441406</ele>
        <time>2024-09-23T12:50:46.000Z</time>
      </trkpt>
      <trkpt lat="42.33034" lon="19.5452">
        <ele>855.71002197266</ele>
        <time>2024-09-23T12:50:48.000Z</time>
      </trkpt>
      <trkpt lat="42.33021" lon="19.54523">
        <ele>854.27001953125</ele>
        <time>2024-09-23T12:50:49.000Z</time>
      </trkpt>
      <trkpt lat="42.33018" lon="19.54524">
        <ele>854.27001953125</ele>
        <time>2024-09-23T12:50:50.000Z</time>
      </trkpt>
      <trkpt lat="42.33011" lon="19.54527">
        <ele>853.78997802734</ele>
        <time>2024-09-23T12:50:51.000Z</time>
      </trkpt>
      <trkpt lat="42.33004" lon="19.54533">
        <ele>853.30999755859</ele>
        <time>2024-09-23T12:50:52.000Z</time>
      </trkpt>
      <trkpt lat="42.32994" lon="19.54542">
        <ele>853.30999755859</ele>
        <time>2024-09-23T12:50:53.000Z</time>
      </trkpt>
      <trkpt lat="42.3299" lon="19.54545">
        <ele>852.83001708984</ele>
        <time>2024-09-23T12:50:54.000Z</time>
      </trkpt>
      <trkpt lat="42.32983" lon="19.54554">
        <ele>852.83001708984</ele>
        <time>2024-09-23T12:50:55.000Z</time>
      </trkpt>
      <trkpt lat="42.32978" lon="19.54563">
        <ele>852.34997558594</ele>
        <time>2024-09-23T12:50:56.000Z</time>
      </trkpt>
      <trkpt lat="42.32973" lon="19.5457">
        <ele>852.34997558594</ele>
        <time>2024-09-23T12:50:57.000Z</time>
      </trkpt>
      <trkpt lat="42.32969" lon="19.5458">
        <ele>851.86999511719</ele>
        <time>2024-09-23T12:50:58.000Z</time>
      </trkpt>
      <trkpt lat="42.32964" lon="19.54593">
        <ele>851.86999511719</ele>
        <time>2024-09-23T12:50:59.000Z</time>
      </trkpt>
      <trkpt lat="42.32963" lon="19.54596">
        <ele>851.86999511719</ele>
        <time>2024-09-23T12:51:00.000Z</time>
      </trkpt>
      <trkpt lat="42.32961" lon="19.54602">
        <ele>851.86999511719</ele>
        <time>2024-09-23T12:51:01.000Z</time>
      </trkpt>
      <trkpt lat="42.32951" lon="19.5466">
        <ele>851.38000488281</ele>
        <time>2024-09-23T12:51:06.000Z</time>
      </trkpt>
      <trkpt lat="42.3295" lon="19.54664">
        <ele>851.38000488281</ele>
        <time>2024-09-23T12:51:07.000Z</time>
      </trkpt>
      <trkpt lat="42.32949" lon="19.54672">
        <ele>851.38000488281</ele>
        <time>2024-09-23T12:51:08.000Z</time>
      </trkpt>
      <trkpt lat="42.32947" lon="19.54681">
        <ele>851.38000488281</ele>
        <time>2024-09-23T12:51:09.000Z</time>
      </trkpt>
      <trkpt lat="42.32945" lon="19.54692">
        <ele>851.38000488281</ele>
        <time>2024-09-23T12:51:10.000Z</time>
      </trkpt>
      <trkpt lat="42.32943" lon="19.54701">
        <ele>851.38000488281</ele>
        <time>2024-09-23T12:51:11.000Z</time>
      </trkpt>
      <trkpt lat="42.32942" lon="19.54708">
        <ele>850.90002441406</ele>
        <time>2024-09-23T12:51:12.000Z</time>
      </trkpt>
      <trkpt lat="42.32941" lon="19.54712">
        <ele>850.90002441406</ele>
        <time>2024-09-23T12:51:13.000Z</time>
      </trkpt>
      <trkpt lat="42.3294" lon="19.54719">
        <ele>850.41998291016</ele>
        <time>2024-09-23T12:51:14.000Z</time>
      </trkpt>
      <trkpt lat="42.32938" lon="19.54727">
        <ele>850.41998291016</ele>
        <time>2024-09-23T12:51:15.000Z</time>
      </trkpt>
      <trkpt lat="42.32936" lon="19.54734">
        <ele>849.94000244141</ele>
        <time>2024-09-23T12:51:16.000Z</time>
      </trkpt>
      <trkpt lat="42.32934" lon="19.54739">
        <ele>849.94000244141</ele>
        <time>2024-09-23T12:51:17.000Z</time>
      </trkpt>
      <trkpt lat="42.32931" lon="19.54745">
        <ele>849.94000244141</ele>
        <time>2024-09-23T12:51:18.000Z</time>
      </trkpt>
      <trkpt lat="42.32927" lon="19.5475">
        <ele>849.94000244141</ele>
        <time>2024-09-23T12:51:19.000Z</time>
      </trkpt>
      <trkpt lat="42.32923" lon="19.54754">
        <ele>849.46002197266</ele>
        <time>2024-09-23T12:51:20.000Z</time>
      </trkpt>
      <trkpt lat="42.32917" lon="19.54758">
        <ele>849.46002197266</ele>
        <time>2024-09-23T12:51:21.000Z</time>
      </trkpt>
      <trkpt lat="42.3291" lon="19.5476">
        <ele>849.46002197266</ele>
        <time>2024-09-23T12:51:22.000Z</time>
      </trkpt>
      <trkpt lat="42.32907" lon="19.54762">
        <ele>849.46002197266</ele>
        <time>2024-09-23T12:51:23.000Z</time>
      </trkpt>
      <trkpt lat="42.32901" lon="19.54765">
        <ele>849.46002197266</ele>
        <time>2024-09-23T12:51:24.000Z</time>
      </trkpt>
      <trkpt lat="42.32896" lon="19.5477">
        <ele>849.46002197266</ele>
        <time>2024-09-23T12:51:25.000Z</time>
      </trkpt>
      <trkpt lat="42.32892" lon="19.54775">
        <ele>849.46002197266</ele>
        <time>2024-09-23T12:51:26.000Z</time>
      </trkpt>
      <trkpt lat="42.32885" lon="19.54788">
        <ele>849.46002197266</ele>
        <time>2024-09-23T12:51:28.000Z</time>
      </trkpt>
      <trkpt lat="42.32881" lon="19.54796">
        <ele>849.94000244141</ele>
        <time>2024-09-23T12:51:29.000Z</time>
      </trkpt>
      <trkpt lat="42.32878" lon="19.54801">
        <ele>849.94000244141</ele>
        <time>2024-09-23T12:51:30.000Z</time>
      </trkpt>
      <trkpt lat="42.32874" lon="19.54809">
        <ele>849.94000244141</ele>
        <time>2024-09-23T12:51:31.000Z</time>
      </trkpt>
      <trkpt lat="42.32866" lon="19.54822">
        <ele>849.94000244141</ele>
        <time>2024-09-23T12:51:33.000Z</time>
      </trkpt>
      <trkpt lat="42.32864" lon="19.54825">
        <ele>849.94000244141</ele>
        <time>2024-09-23T12:51:34.000Z</time>
      </trkpt>
      <trkpt lat="42.32859" lon="19.54834">
        <ele>849.94000244141</ele>
        <time>2024-09-23T12:51:35.000Z</time>
      </trkpt>
      <trkpt lat="42.32857" lon="19.54838">
        <ele>850.41998291016</ele>
        <time>2024-09-23T12:51:36.000Z</time>
      </trkpt>
      <trkpt lat="42.32849" lon="19.54848">
        <ele>849.94000244141</ele>
        <time>2024-09-23T12:51:37.000Z</time>
      </trkpt>
      <trkpt lat="42.32846" lon="19.54851">
        <ele>849.94000244141</ele>
        <time>2024-09-23T12:51:38.000Z</time>
      </trkpt>
      <trkpt lat="42.3284" lon="19.54858">
        <ele>849.94000244141</ele>
        <time>2024-09-23T12:51:39.000Z</time>
      </trkpt>
      <trkpt lat="42.32838" lon="19.54861">
        <ele>849.94000244141</ele>
        <time>2024-09-23T12:51:40.000Z</time>
      </trkpt>
      <trkpt lat="42.32834" lon="19.54866">
        <ele>849.46002197266</ele>
        <time>2024-09-23T12:51:41.000Z</time>
      </trkpt>
      <trkpt lat="42.32832" lon="19.54873">
        <ele>849.46002197266</ele>
        <time>2024-09-23T12:51:42.000Z</time>
      </trkpt>
      <trkpt lat="42.32832" lon="19.5488">
        <ele>848.97998046875</ele>
        <time>2024-09-23T12:51:43.000Z</time>
      </trkpt>
      <trkpt lat="42.32835" lon="19.54895">
        <ele>848.97998046875</ele>
        <time>2024-09-23T12:51:45.000Z</time>
      </trkpt>
      <trkpt lat="42.32837" lon="19.54902">
        <ele>848.97998046875</ele>
        <time>2024-09-23T12:51:46.000Z</time>
      </trkpt>
      <trkpt lat="42.32838" lon="19.54911">
        <ele>848.5</ele>
        <time>2024-09-23T12:51:47.000Z</time>
      </trkpt>
      <trkpt lat="42.32838" lon="19.54923">
        <ele>848.5</ele>
        <time>2024-09-23T12:51:48.000Z</time>
      </trkpt>
      <trkpt lat="42.32838" lon="19.54932">
        <ele>848.5</ele>
        <time>2024-09-23T12:51:49.000Z</time>
      </trkpt>
      <trkpt lat="42.32837" lon="19.54944">
        <ele>848.5</ele>
        <time>2024-09-23T12:51:51.000Z</time>
      </trkpt>
      <trkpt lat="42.32837" lon="19.54951">
        <ele>848.5</ele>
        <time>2024-09-23T12:51:52.000Z</time>
      </trkpt>
      <trkpt lat="42.32837" lon="19.54956">
        <ele>848.5</ele>
        <time>2024-09-23T12:51:53.000Z</time>
      </trkpt>
      <trkpt lat="42.32836" lon="19.54962">
        <ele>848.02001953125</ele>
        <time>2024-09-23T12:51:54.000Z</time>
      </trkpt>
      <trkpt lat="42.32835" lon="19.54968">
        <ele>848.02001953125</ele>
        <time>2024-09-23T12:51:55.000Z</time>
      </trkpt>
      <trkpt lat="42.32831" lon="19.54973">
        <ele>848.02001953125</ele>
        <time>2024-09-23T12:51:56.000Z</time>
      </trkpt>
      <trkpt lat="42.32828" lon="19.54977">
        <ele>848.02001953125</ele>
        <time>2024-09-23T12:51:57.000Z</time>
      </trkpt>
      <trkpt lat="42.32822" lon="19.54981">
        <ele>848.5</ele>
        <time>2024-09-23T12:51:58.000Z</time>
      </trkpt>
      <trkpt lat="42.32818" lon="19.54983">
        <ele>848.5</ele>
        <time>2024-09-23T12:51:59.000Z</time>
      </trkpt>
      <trkpt lat="42.32815" lon="19.54986">
        <ele>848.5</ele>
        <time>2024-09-23T12:52:00.000Z</time>
      </trkpt>
      <trkpt lat="42.32811" lon="19.5499">
        <ele>848.5</ele>
        <time>2024-09-23T12:52:01.000Z</time>
      </trkpt>
      <trkpt lat="42.32808" lon="19.54996">
        <ele>848.97998046875</ele>
        <time>2024-09-23T12:52:02.000Z</time>
      </trkpt>
      <trkpt lat="42.32806" lon="19.55002">
        <ele>848.97998046875</ele>
        <time>2024-09-23T12:52:03.000Z</time>
      </trkpt>
      <trkpt lat="42.32805" lon="19.55009">
        <ele>848.5</ele>
        <time>2024-09-23T12:52:04.000Z</time>
      </trkpt>
      <trkpt lat="42.32805" lon="19.55015">
        <ele>848.5</ele>
        <time>2024-09-23T12:52:05.000Z</time>
      </trkpt>
      <trkpt lat="42.32805" lon="19.55022">
        <ele>848.5</ele>
        <time>2024-09-23T12:52:06.000Z</time>
      </trkpt>
      <trkpt lat="42.32807" lon="19.55033">
        <ele>848.97998046875</ele>
        <time>2024-09-23T12:52:07.000Z</time>
      </trkpt>
      <trkpt lat="42.32811" lon="19.55047">
        <ele>848.97998046875</ele>
        <time>2024-09-23T12:52:09.000Z</time>
      </trkpt>
      <trkpt lat="42.32815" lon="19.55068">
        <ele>849.46002197266</ele>
        <time>2024-09-23T12:52:11.000Z</time>
      </trkpt>
      <trkpt lat="42.32815" lon="19.55071">
        <ele>849.46002197266</ele>
        <time>2024-09-23T12:52:12.000Z</time>
      </trkpt>
      <trkpt lat="42.32815" lon="19.55078">
        <ele>849.46002197266</ele>
        <time>2024-09-23T12:52:13.000Z</time>
      </trkpt>
      <trkpt lat="42.32815" lon="19.55085">
        <ele>848.97998046875</ele>
        <time>2024-09-23T12:52:14.000Z</time>
      </trkpt>
      <trkpt lat="42.32814" lon="19.5509">
        <ele>848.5</ele>
        <time>2024-09-23T12:52:15.000Z</time>
      </trkpt>
      <trkpt lat="42.32811" lon="19.55096">
        <ele>848.5</ele>
        <time>2024-09-23T12:52:16.000Z</time>
      </trkpt>
      <trkpt lat="42.32809" lon="19.55102">
        <ele>848.02001953125</ele>
        <time>2024-09-23T12:52:17.000Z</time>
      </trkpt>
      <trkpt lat="42.32805" lon="19.55109">
        <ele>847.53997802734</ele>
        <time>2024-09-23T12:52:18.000Z</time>
      </trkpt>
      <trkpt lat="42.32801" lon="19.55115">
        <ele>847.05999755859</ele>
        <time>2024-09-23T12:52:19.000Z</time>
      </trkpt>
      <trkpt lat="42.32796" lon="19.55119">
        <ele>847.05999755859</ele>
        <time>2024-09-23T12:52:20.000Z</time>
      </trkpt>
      <trkpt lat="42.32788" lon="19.55125">
        <ele>846.09997558594</ele>
        <time>2024-09-23T12:52:21.000Z</time>
      </trkpt>
      <trkpt lat="42.32785" lon="19.55127">
        <ele>845.61999511719</ele>
        <time>2024-09-23T12:52:22.000Z</time>
      </trkpt>
      <trkpt lat="42.32781" lon="19.55131">
        <ele>845.14001464844</ele>
        <time>2024-09-23T12:52:23.000Z</time>
      </trkpt>
      <trkpt lat="42.32766" lon="19.55149">
        <ele>843.21002197266</ele>
        <time>2024-09-23T12:52:26.000Z</time>
      </trkpt>
      <trkpt lat="42.32756" lon="19.5516">
        <ele>842.25</ele>
        <time>2024-09-23T12:52:28.000Z</time>
      </trkpt>
      <trkpt lat="42.32755" lon="19.55162">
        <ele>841.77001953125</ele>
        <time>2024-09-23T12:52:29.000Z</time>
      </trkpt>
      <trkpt lat="42.32751" lon="19.55166">
        <ele>841.28997802734</ele>
        <time>2024-09-23T12:52:30.000Z</time>
      </trkpt>
      <trkpt lat="42.32748" lon="19.55172">
        <ele>840.80999755859</ele>
        <time>2024-09-23T12:52:31.000Z</time>
      </trkpt>
      <trkpt lat="42.32746" lon="19.55178">
        <ele>840.33001708984</ele>
        <time>2024-09-23T12:52:32.000Z</time>
      </trkpt>
      <trkpt lat="42.32745" lon="19.55186">
        <ele>839.84997558594</ele>
        <time>2024-09-23T12:52:33.000Z</time>
      </trkpt>
      <trkpt lat="42.32746" lon="19.55195">
        <ele>838.89001464844</ele>
        <time>2024-09-23T12:52:34.000Z</time>
      </trkpt>
      <trkpt lat="42.32747" lon="19.55204">
        <ele>838.40997314453</ele>
        <time>2024-09-23T12:52:35.000Z</time>
      </trkpt>
      <trkpt lat="42.32749" lon="19.55215">
        <ele>837.92999267578</ele>
        <time>2024-09-23T12:52:36.000Z</time>
      </trkpt>
      <trkpt lat="42.3275" lon="19.55239">
        <ele>837.45001220703</ele>
        <time>2024-09-23T12:52:39.000Z</time>
      </trkpt>
      <trkpt lat="42.3275" lon="19.55249">
        <ele>837.45001220703</ele>
        <time>2024-09-23T12:52:40.000Z</time>
      </trkpt>
      <trkpt lat="42.3275" lon="19.55253">
        <ele>837.45001220703</ele>
        <time>2024-09-23T12:52:41.000Z</time>
      </trkpt>
      <trkpt lat="42.3275" lon="19.5526">
        <ele>836.96002197266</ele>
        <time>2024-09-23T12:52:42.000Z</time>
      </trkpt>
      <trkpt lat="42.32748" lon="19.55267">
        <ele>836.96002197266</ele>
        <time>2024-09-23T12:52:43.000Z</time>
      </trkpt>
      <trkpt lat="42.32744" lon="19.55271">
        <ele>836.47998046875</ele>
        <time>2024-09-23T12:52:44.000Z</time>
      </trkpt>
      <trkpt lat="42.3274" lon="19.55272">
        <ele>836</ele>
        <time>2024-09-23T12:52:45.000Z</time>
      </trkpt>
      <trkpt lat="42.32735" lon="19.55268">
        <ele>835.03997802734</ele>
        <time>2024-09-23T12:52:46.000Z</time>
      </trkpt>
      <trkpt lat="42.32732" lon="19.55262">
        <ele>834.08001708984</ele>
        <time>2024-09-23T12:52:47.000Z</time>
      </trkpt>
      <trkpt lat="42.32731" lon="19.55253">
        <ele>833.59997558594</ele>
        <time>2024-09-23T12:52:48.000Z</time>
      </trkpt>
      <trkpt lat="42.3273" lon="19.55244">
        <ele>832.64001464844</ele>
        <time>2024-09-23T12:52:49.000Z</time>
      </trkpt>
      <trkpt lat="42.3273" lon="19.55234">
        <ele>831.67999267578</ele>
        <time>2024-09-23T12:52:50.000Z</time>
      </trkpt>
      <trkpt lat="42.32727" lon="19.55224">
        <ele>831.20001220703</ele>
        <time>2024-09-23T12:52:51.000Z</time>
      </trkpt>
      <trkpt lat="42.32723" lon="19.55216">
        <ele>830.23999023438</ele>
        <time>2024-09-23T12:52:52.000Z</time>
      </trkpt>
      <trkpt lat="42.32718" lon="19.55208">
        <ele>828.78997802734</ele>
        <time>2024-09-23T12:52:53.000Z</time>
      </trkpt>
      <trkpt lat="42.32711" lon="19.55199">
        <ele>827.83001708984</ele>
        <time>2024-09-23T12:52:54.000Z</time>
      </trkpt>
      <trkpt lat="42.32703" lon="19.55191">
        <ele>826.86999511719</ele>
        <time>2024-09-23T12:52:55.000Z</time>
      </trkpt>
      <trkpt lat="42.32676" lon="19.55165">
        <ele>823.51000976562</ele>
        <time>2024-09-23T12:52:58.000Z</time>
      </trkpt>
      <trkpt lat="42.32662" lon="19.55154">
        <ele>822.05999755859</ele>
        <time>2024-09-23T12:53:00.000Z</time>
      </trkpt>
      <trkpt lat="42.32648" lon="19.55143">
        <ele>820.61999511719</ele>
        <time>2024-09-23T12:53:01.000Z</time>
      </trkpt>
      <trkpt lat="42.32637" lon="19.55135">
        <ele>819.65997314453</ele>
        <time>2024-09-23T12:53:03.000Z</time>
      </trkpt>
      <trkpt lat="42.32629" lon="19.55128">
        <ele>819.17999267578</ele>
        <time>2024-09-23T12:53:04.000Z</time>
      </trkpt>
      <trkpt lat="42.32623" lon="19.55122">
        <ele>818.21997070312</ele>
        <time>2024-09-23T12:53:05.000Z</time>
      </trkpt>
      <trkpt lat="42.32613" lon="19.55111">
        <ele>816.78002929688</ele>
        <time>2024-09-23T12:53:06.000Z</time>
      </trkpt>
      <trkpt lat="42.3261" lon="19.55107">
        <ele>815.82000732422</ele>
        <time>2024-09-23T12:53:07.000Z</time>
      </trkpt>
      <trkpt lat="42.32603" lon="19.55102">
        <ele>814.84997558594</ele>
        <time>2024-09-23T12:53:08.000Z</time>
      </trkpt>
      <trkpt lat="42.32586" lon="19.55104">
        <ele>813.40997314453</ele>
        <time>2024-09-23T12:53:10.000Z</time>
      </trkpt>
      <trkpt lat="42.32576" lon="19.55105">
        <ele>811.96997070312</ele>
        <time>2024-09-23T12:53:11.000Z</time>
      </trkpt>
      <trkpt lat="42.32566" lon="19.55104">
        <ele>810.53002929688</ele>
        <time>2024-09-23T12:53:12.000Z</time>
      </trkpt>
      <trkpt lat="42.32558" lon="19.551">
        <ele>809.57000732422</ele>
        <time>2024-09-23T12:53:13.000Z</time>
      </trkpt>
      <trkpt lat="42.32547" lon="19.55095">
        <ele>807.15997314453</ele>
        <time>2024-09-23T12:53:14.000Z</time>
      </trkpt>
      <trkpt lat="42.32537" lon="19.5509">
        <ele>805.71997070312</ele>
        <time>2024-09-23T12:53:15.000Z</time>
      </trkpt>
      <trkpt lat="42.32498" lon="19.55085">
        <ele>801.88000488281</ele>
        <time>2024-09-23T12:53:18.000Z</time>
      </trkpt>
      <trkpt lat="42.32478" lon="19.55083">
        <ele>799.46997070312</ele>
        <time>2024-09-23T12:53:20.000Z</time>
      </trkpt>
      <trkpt lat="42.32464" lon="19.55082">
        <ele>798.03002929688</ele>
        <time>2024-09-23T12:53:21.000Z</time>
      </trkpt>
      <trkpt lat="42.3244" lon="19.55078">
        <ele>796.10998535156</ele>
        <time>2024-09-23T12:53:23.000Z</time>
      </trkpt>
      <trkpt lat="42.32425" lon="19.55078">
        <ele>794.66998291016</ele>
        <time>2024-09-23T12:53:24.000Z</time>
      </trkpt>
      <trkpt lat="42.32413" lon="19.5508">
        <ele>793.71002197266</ele>
        <time>2024-09-23T12:53:25.000Z</time>
      </trkpt>
      <trkpt lat="42.32383" lon="19.55085">
        <ele>789.85998535156</ele>
        <time>2024-09-23T12:53:27.000Z</time>
      </trkpt>
      <trkpt lat="42.32373" lon="19.55085">
        <ele>788.41998291016</ele>
        <time>2024-09-23T12:53:28.000Z</time>
      </trkpt>
      <trkpt lat="42.32361" lon="19.55083">
        <ele>787.46002197266</ele>
        <time>2024-09-23T12:53:29.000Z</time>
      </trkpt>
      <trkpt lat="42.32349" lon="19.55078">
        <ele>785.53002929688</ele>
        <time>2024-09-23T12:53:30.000Z</time>
      </trkpt>
      <trkpt lat="42.32335" lon="19.55074">
        <ele>784.57000732422</ele>
        <time>2024-09-23T12:53:31.000Z</time>
      </trkpt>
      <trkpt lat="42.32297" lon="19.55068">
        <ele>781.69000244141</ele>
        <time>2024-09-23T12:53:33.000Z</time>
      </trkpt>
      <trkpt lat="42.32283" lon="19.55064">
        <ele>779.28997802734</ele>
        <time>2024-09-23T12:53:34.000Z</time>
      </trkpt>
      <trkpt lat="42.32276" lon="19.55062">
        <ele>778.32000732422</ele>
        <time>2024-09-23T12:53:35.000Z</time>
      </trkpt>
      <trkpt lat="42.32267" lon="19.55059">
        <ele>776.40002441406</ele>
        <time>2024-09-23T12:53:36.000Z</time>
      </trkpt>
      <trkpt lat="42.32253" lon="19.55051">
        <ele>773.52001953125</ele>
        <time>2024-09-23T12:53:37.000Z</time>
      </trkpt>
      <trkpt lat="42.32243" lon="19.55044">
        <ele>771.10998535156</ele>
        <time>2024-09-23T12:53:38.000Z</time>
      </trkpt>
      <trkpt lat="42.32229" lon="19.55032">
        <ele>768.22998046875</ele>
        <time>2024-09-23T12:53:39.000Z</time>
      </trkpt>
      <trkpt lat="42.3221" lon="19.55009">
        <ele>764.39001464844</ele>
        <time>2024-09-23T12:53:40.000Z</time>
      </trkpt>
      <trkpt lat="42.32195" lon="19.54989">
        <ele>761.97998046875</ele>
        <time>2024-09-23T12:53:42.000Z</time>
      </trkpt>
      <trkpt lat="42.32145" lon="19.54938">
        <ele>755.25</ele>
        <time>2024-09-23T12:53:46.000Z</time>
      </trkpt>
      <trkpt lat="42.32132" lon="19.54923">
        <ele>752.84997558594</ele>
        <time>2024-09-23T12:53:47.000Z</time>
      </trkpt>
      <trkpt lat="42.32121" lon="19.54907">
        <ele>750.45001220703</ele>
        <time>2024-09-23T12:53:48.000Z</time>
      </trkpt>
      <trkpt lat="42.32112" lon="19.54897">
        <ele>749</ele>
        <time>2024-09-23T12:53:49.000Z</time>
      </trkpt>
      <trkpt lat="42.321" lon="19.54888">
        <ele>748.03997802734</ele>
        <time>2024-09-23T12:53:50.000Z</time>
      </trkpt>
      <trkpt lat="42.32076" lon="19.54875">
        <ele>746.59997558594</ele>
        <time>2024-09-23T12:53:51.000Z</time>
      </trkpt>
      <trkpt lat="42.3207" lon="19.54872">
        <ele>746.11999511719</ele>
        <time>2024-09-23T12:53:52.000Z</time>
      </trkpt>
      <trkpt lat="42.32058" lon="19.54863">
        <ele>745.15997314453</ele>
        <time>2024-09-23T12:53:53.000Z</time>
      </trkpt>
      <trkpt lat="42.31997" lon="19.54812">
        <ele>741.78997802734</ele>
        <time>2024-09-23T12:53:57.000Z</time>
      </trkpt>
      <trkpt lat="42.3198" lon="19.54799">
        <ele>739.86999511719</ele>
        <time>2024-09-23T12:53:58.000Z</time>
      </trkpt>
      <trkpt lat="42.31972" lon="19.54791">
        <ele>738.90997314453</ele>
        <time>2024-09-23T12:53:59.000Z</time>
      </trkpt>
      <trkpt lat="42.31951" lon="19.5477">
        <ele>735.54998779297</ele>
        <time>2024-09-23T12:54:01.000Z</time>
      </trkpt>
      <trkpt lat="42.31924" lon="19.54748">
        <ele>731.70001220703</ele>
        <time>2024-09-23T12:54:03.000Z</time>
      </trkpt>
      <trkpt lat="42.31917" lon="19.54742">
        <ele>730.73999023438</ele>
        <time>2024-09-23T12:54:04.000Z</time>
      </trkpt>
      <trkpt lat="42.31886" lon="19.54706">
        <ele>725.45001220703</ele>
        <time>2024-09-23T12:54:07.000Z</time>
      </trkpt>
      <trkpt lat="42.31876" lon="19.54696">
        <ele>723.53002929688</ele>
        <time>2024-09-23T12:54:08.000Z</time>
      </trkpt>
      <trkpt lat="42.31866" lon="19.54689">
        <ele>722.57000732422</ele>
        <time>2024-09-23T12:54:09.000Z</time>
      </trkpt>
      <trkpt lat="42.31855" lon="19.54684">
        <ele>721.60998535156</ele>
        <time>2024-09-23T12:54:10.000Z</time>
      </trkpt>
      <trkpt lat="42.31844" lon="19.54683">
        <ele>721.13000488281</ele>
        <time>2024-09-23T12:54:11.000Z</time>
      </trkpt>
      <trkpt lat="42.31834" lon="19.54685">
        <ele>720.15997314453</ele>
        <time>2024-09-23T12:54:12.000Z</time>
      </trkpt>
      <trkpt lat="42.31779" lon="19.54705">
        <ele>715.84002685547</ele>
        <time>2024-09-23T12:54:16.000Z</time>
      </trkpt>
      <trkpt lat="42.31775" lon="19.54707">
        <ele>715.35998535156</ele>
        <time>2024-09-23T12:54:17.000Z</time>
      </trkpt>
      <trkpt lat="42.31763" lon="19.54709">
        <ele>713.91998291016</ele>
        <time>2024-09-23T12:54:18.000Z</time>
      </trkpt>
      <trkpt lat="42.31751" lon="19.54707">
        <ele>712.46997070312</ele>
        <time>2024-09-23T12:54:19.000Z</time>
      </trkpt>
      <trkpt lat="42.31739" lon="19.54703">
        <ele>711.51000976562</ele>
        <time>2024-09-23T12:54:20.000Z</time>
      </trkpt>
      <trkpt lat="42.31685" lon="19.54683">
        <ele>707.66998291016</ele>
        <time>2024-09-23T12:54:24.000Z</time>
      </trkpt>
      <trkpt lat="42.31672" lon="19.54677">
        <ele>706.22998046875</ele>
        <time>2024-09-23T12:54:25.000Z</time>
      </trkpt>
      <trkpt lat="42.3166" lon="19.54667">
        <ele>704.78002929688</ele>
        <time>2024-09-23T12:54:26.000Z</time>
      </trkpt>
      <trkpt lat="42.31651" lon="19.54658">
        <ele>703.82000732422</ele>
        <time>2024-09-23T12:54:27.000Z</time>
      </trkpt>
      <trkpt lat="42.31643" lon="19.54645">
        <ele>702.85998535156</ele>
        <time>2024-09-23T12:54:28.000Z</time>
      </trkpt>
      <trkpt lat="42.3164" lon="19.5464">
        <ele>702.38000488281</ele>
        <time>2024-09-23T12:54:29.000Z</time>
      </trkpt>
      <trkpt lat="42.31634" lon="19.54635">
        <ele>701.41998291016</ele>
        <time>2024-09-23T12:54:30.000Z</time>
      </trkpt>
      <trkpt lat="42.31629" lon="19.54634">
        <ele>701.41998291016</ele>
        <time>2024-09-23T12:54:31.000Z</time>
      </trkpt>
      <trkpt lat="42.31626" lon="19.54638">
        <ele>701.41998291016</ele>
        <time>2024-09-23T12:54:32.000Z</time>
      </trkpt>
      <trkpt lat="42.31626" lon="19.54643">
        <ele>701.41998291016</ele>
        <time>2024-09-23T12:54:33.000Z</time>
      </trkpt>
      <trkpt lat="42.31628" lon="19.54649">
        <ele>701.41998291016</ele>
        <time>2024-09-23T12:54:34.000Z</time>
      </trkpt>
      <trkpt lat="42.31632" lon="19.54656">
        <ele>701.90002441406</ele>
        <time>2024-09-23T12:54:35.000Z</time>
      </trkpt>
      <trkpt lat="42.31641" lon="19.54666">
        <ele>701.90002441406</ele>
        <time>2024-09-23T12:54:36.000Z</time>
      </trkpt>
      <trkpt lat="42.31645" lon="19.5467">
        <ele>701.90002441406</ele>
        <time>2024-09-23T12:54:37.000Z</time>
      </trkpt>
      <trkpt lat="42.31714" lon="19.54756">
        <ele>695.16998291016</ele>
        <time>2024-09-23T12:54:45.000Z</time>
      </trkpt>
      <trkpt lat="42.31755" lon="19.54798">
        <ele>689.88000488281</ele>
        <time>2024-09-23T12:54:49.000Z</time>
      </trkpt>
      <trkpt lat="42.31761" lon="19.54805">
        <ele>688.91998291016</ele>
        <time>2024-09-23T12:54:50.000Z</time>
      </trkpt>
      <trkpt lat="42.31769" lon="19.54817">
        <ele>687.47998046875</ele>
        <time>2024-09-23T12:54:51.000Z</time>
      </trkpt>
      <trkpt lat="42.31782" lon="19.54838">
        <ele>685.55999755859</ele>
        <time>2024-09-23T12:54:52.000Z</time>
      </trkpt>
      <trkpt lat="42.31787" lon="19.54847">
        <ele>684.59997558594</ele>
        <time>2024-09-23T12:54:53.000Z</time>
      </trkpt>
      <trkpt lat="42.31797" lon="19.54858">
        <ele>683.63000488281</ele>
        <time>2024-09-23T12:54:54.000Z</time>
      </trkpt>
      <trkpt lat="42.31815" lon="19.54876">
        <ele>680.75</ele>
        <time>2024-09-23T12:54:55.000Z</time>
      </trkpt>
      <trkpt lat="42.31891" lon="19.54953">
        <ele>672.58001708984</ele>
        <time>2024-09-23T12:55:03.000Z</time>
      </trkpt>
      <trkpt lat="42.31895" lon="19.54959">
        <ele>672.58001708984</ele>
        <time>2024-09-23T12:55:04.000Z</time>
      </trkpt>
      <trkpt lat="42.31899" lon="19.54967">
        <ele>672.09997558594</ele>
        <time>2024-09-23T12:55:05.000Z</time>
      </trkpt>
      <trkpt lat="42.31898" lon="19.54974">
        <ele>671.61999511719</ele>
        <time>2024-09-23T12:55:06.000Z</time>
      </trkpt>
      <trkpt lat="42.31895" lon="19.54978">
        <ele>670.65997314453</ele>
        <time>2024-09-23T12:55:07.000Z</time>
      </trkpt>
      <trkpt lat="42.3189" lon="19.54977">
        <ele>670.65997314453</ele>
        <time>2024-09-23T12:55:08.000Z</time>
      </trkpt>
      <trkpt lat="42.31884" lon="19.54971">
        <ele>669.70001220703</ele>
        <time>2024-09-23T12:55:09.000Z</time>
      </trkpt>
      <trkpt lat="42.31877" lon="19.54962">
        <ele>668.72998046875</ele>
        <time>2024-09-23T12:55:10.000Z</time>
      </trkpt>
      <trkpt lat="42.31869" lon="19.54953">
        <ele>667.28997802734</ele>
        <time>2024-09-23T12:55:11.000Z</time>
      </trkpt>
      <trkpt lat="42.3186" lon="19.54945">
        <ele>666.80999755859</ele>
        <time>2024-09-23T12:55:12.000Z</time>
      </trkpt>
      <trkpt lat="42.31847" lon="19.5494">
        <ele>665.84997558594</ele>
        <time>2024-09-23T12:55:13.000Z</time>
      </trkpt>
      <trkpt lat="42.31809" lon="19.54927">
        <ele>661.03997802734</ele>
        <time>2024-09-23T12:55:16.000Z</time>
      </trkpt>
      <trkpt lat="42.31796" lon="19.54923">
        <ele>659.11999511719</ele>
        <time>2024-09-23T12:55:17.000Z</time>
      </trkpt>
      <trkpt lat="42.31783" lon="19.54922">
        <ele>657.67999267578</ele>
        <time>2024-09-23T12:55:18.000Z</time>
      </trkpt>
      <trkpt lat="42.31764" lon="19.54923">
        <ele>656.23999023438</ele>
        <time>2024-09-23T12:55:19.000Z</time>
      </trkpt>
      <trkpt lat="42.31752" lon="19.54922">
        <ele>655.28002929688</ele>
        <time>2024-09-23T12:55:20.000Z</time>
      </trkpt>
      <trkpt lat="42.31738" lon="19.54919">
        <ele>654.79998779297</ele>
        <time>2024-09-23T12:55:21.000Z</time>
      </trkpt>
      <trkpt lat="42.31727" lon="19.54915">
        <ele>653.83001708984</ele>
        <time>2024-09-23T12:55:22.000Z</time>
      </trkpt>
      <trkpt lat="42.31715" lon="19.54908">
        <ele>653.34997558594</ele>
        <time>2024-09-23T12:55:23.000Z</time>
      </trkpt>
      <trkpt lat="42.31704" lon="19.54898">
        <ele>652.39001464844</ele>
        <time>2024-09-23T12:55:24.000Z</time>
      </trkpt>
      <trkpt lat="42.31689" lon="19.54881">
        <ele>649.98999023438</ele>
        <time>2024-09-23T12:55:25.000Z</time>
      </trkpt>
      <trkpt lat="42.3168" lon="19.54872">
        <ele>649.03002929688</ele>
        <time>2024-09-23T12:55:26.000Z</time>
      </trkpt>
      <trkpt lat="42.3158" lon="19.54776">
        <ele>638.92999267578</ele>
        <time>2024-09-23T12:55:34.000Z</time>
      </trkpt>
      <trkpt lat="42.31567" lon="19.54762">
        <ele>637.01000976562</ele>
        <time>2024-09-23T12:55:35.000Z</time>
      </trkpt>
      <trkpt lat="42.31558" lon="19.5475">
        <ele>636.04998779297</ele>
        <time>2024-09-23T12:55:36.000Z</time>
      </trkpt>
      <trkpt lat="42.31547" lon="19.54736">
        <ele>634.13000488281</ele>
        <time>2024-09-23T12:55:37.000Z</time>
      </trkpt>
      <trkpt lat="42.31529" lon="19.54706">
        <ele>631.23999023438</ele>
        <time>2024-09-23T12:55:38.000Z</time>
      </trkpt>
      <trkpt lat="42.31527" lon="19.54703">
        <ele>630.76000976562</ele>
        <time>2024-09-23T12:55:39.000Z</time>
      </trkpt>
      <trkpt lat="42.31514" lon="19.54687">
        <ele>628.84002685547</ele>
        <time>2024-09-23T12:55:40.000Z</time>
      </trkpt>
      <trkpt lat="42.31495" lon="19.54669">
        <ele>626.44000244141</ele>
        <time>2024-09-23T12:55:41.000Z</time>
      </trkpt>
      <trkpt lat="42.31469" lon="19.54646">
        <ele>624.98999023438</ele>
        <time>2024-09-23T12:55:43.000Z</time>
      </trkpt>
      <trkpt lat="42.31465" lon="19.54642">
        <ele>624.51000976562</ele>
        <time>2024-09-23T12:55:44.000Z</time>
      </trkpt>
      <trkpt lat="42.31453" lon="19.54628">
        <ele>624.03002929688</ele>
        <time>2024-09-23T12:55:45.000Z</time>
      </trkpt>
      <trkpt lat="42.31446" lon="19.54619">
        <ele>624.03002929688</ele>
        <time>2024-09-23T12:55:46.000Z</time>
      </trkpt>
      <trkpt lat="42.31438" lon="19.5461">
        <ele>623.07000732422</ele>
        <time>2024-09-23T12:55:47.000Z</time>
      </trkpt>
      <trkpt lat="42.31429" lon="19.54605">
        <ele>622.59002685547</ele>
        <time>2024-09-23T12:55:48.000Z</time>
      </trkpt>
      <trkpt lat="42.31422" lon="19.54606">
        <ele>622.59002685547</ele>
        <time>2024-09-23T12:55:49.000Z</time>
      </trkpt>
      <trkpt lat="42.31417" lon="19.54611">
        <ele>621.63000488281</ele>
        <time>2024-09-23T12:55:50.000Z</time>
      </trkpt>
      <trkpt lat="42.31416" lon="19.54618">
        <ele>621.15002441406</ele>
        <time>2024-09-23T12:55:51.000Z</time>
      </trkpt>
      <trkpt lat="42.31419" lon="19.54624">
        <ele>620.66998291016</ele>
        <time>2024-09-23T12:55:52.000Z</time>
      </trkpt>
      <trkpt lat="42.31425" lon="19.5463">
        <ele>620.66998291016</ele>
        <time>2024-09-23T12:55:53.000Z</time>
      </trkpt>
      <trkpt lat="42.31478" lon="19.54686">
        <ele>618.26000976562</ele>
        <time>2024-09-23T12:55:59.000Z</time>
      </trkpt>
      <trkpt lat="42.31491" lon="19.54704">
        <ele>617.29998779297</ele>
        <time>2024-09-23T12:56:00.000Z</time>
      </trkpt>
      <trkpt lat="42.31492" lon="19.54707">
        <ele>617.29998779297</ele>
        <time>2024-09-23T12:56:01.000Z</time>
      </trkpt>
      <trkpt lat="42.315" lon="19.54721">
        <ele>617.29998779297</ele>
        <time>2024-09-23T12:56:02.000Z</time>
      </trkpt>
      <trkpt lat="42.31549" lon="19.54832">
        <ele>614.41998291016</ele>
        <time>2024-09-23T12:56:08.000Z</time>
      </trkpt>
      <trkpt lat="42.31551" lon="19.54838">
        <ele>613.94000244141</ele>
        <time>2024-09-23T12:56:09.000Z</time>
      </trkpt>
      <trkpt lat="42.31558" lon="19.54858">
        <ele>612.97998046875</ele>
        <time>2024-09-23T12:56:10.000Z</time>
      </trkpt>
      <trkpt lat="42.31562" lon="19.54876">
        <ele>612.5</ele>
        <time>2024-09-23T12:56:11.000Z</time>
      </trkpt>
      <trkpt lat="42.31569" lon="19.54956">
        <ele>607.69000244141</ele>
        <time>2024-09-23T12:56:15.000Z</time>
      </trkpt>
      <trkpt lat="42.3157" lon="19.54967">
        <ele>607.21002197266</ele>
        <time>2024-09-23T12:56:16.000Z</time>
      </trkpt>
      <trkpt lat="42.31573" lon="19.54987">
        <ele>605.77001953125</ele>
        <time>2024-09-23T12:56:17.000Z</time>
      </trkpt>
      <trkpt lat="42.31577" lon="19.55003">
        <ele>605.28997802734</ele>
        <time>2024-09-23T12:56:18.000Z</time>
      </trkpt>
      <trkpt lat="42.31583" lon="19.5502">
        <ele>604.33001708984</ele>
        <time>2024-09-23T12:56:19.000Z</time>
      </trkpt>
      <trkpt lat="42.31585" lon="19.55029">
        <ele>604.33001708984</ele>
        <time>2024-09-23T12:56:20.000Z</time>
      </trkpt>
      <trkpt lat="42.31585" lon="19.55039">
        <ele>603.35998535156</ele>
        <time>2024-09-23T12:56:21.000Z</time>
      </trkpt>
      <trkpt lat="42.31582" lon="19.55045">
        <ele>602.88000488281</ele>
        <time>2024-09-23T12:56:22.000Z</time>
      </trkpt>
      <trkpt lat="42.31577" lon="19.55047">
        <ele>602.40002441406</ele>
        <time>2024-09-23T12:56:23.000Z</time>
      </trkpt>
      <trkpt lat="42.31572" lon="19.55043">
        <ele>601.44000244141</ele>
        <time>2024-09-23T12:56:24.000Z</time>
      </trkpt>
      <trkpt lat="42.31568" lon="19.55034">
        <ele>600.47998046875</ele>
        <time>2024-09-23T12:56:25.000Z</time>
      </trkpt>
      <trkpt lat="42.31562" lon="19.55016">
        <ele>599.03997802734</ele>
        <time>2024-09-23T12:56:26.000Z</time>
      </trkpt>
      <trkpt lat="42.31521" lon="19.54896">
        <ele>591.83001708984</ele>
        <time>2024-09-23T12:56:33.000Z</time>
      </trkpt>
      <trkpt lat="42.31513" lon="19.54877">
        <ele>590.39001464844</ele>
        <time>2024-09-23T12:56:34.000Z</time>
      </trkpt>
      <trkpt lat="42.315" lon="19.54854">
        <ele>588.46002197266</ele>
        <time>2024-09-23T12:56:35.000Z</time>
      </trkpt>
      <trkpt lat="42.31493" lon="19.54842">
        <ele>587.02001953125</ele>
        <time>2024-09-23T12:56:36.000Z</time>
      </trkpt>
      <trkpt lat="42.31484" lon="19.54827">
        <ele>586.05999755859</ele>
        <time>2024-09-23T12:56:37.000Z</time>
      </trkpt>
      <trkpt lat="42.31479" lon="19.54821">
        <ele>585.09997558594</ele>
        <time>2024-09-23T12:56:38.000Z</time>
      </trkpt>
      <trkpt lat="42.31471" lon="19.54811">
        <ele>584.61999511719</ele>
        <time>2024-09-23T12:56:39.000Z</time>
      </trkpt>
      <trkpt lat="42.31453" lon="19.54791">
        <ele>582.70001220703</ele>
        <time>2024-09-23T12:56:41.000Z</time>
      </trkpt>
      <trkpt lat="42.31441" lon="19.54777">
        <ele>580.77001953125</ele>
        <time>2024-09-23T12:56:43.000Z</time>
      </trkpt>
      <trkpt lat="42.31436" lon="19.54772">
        <ele>580.28997802734</ele>
        <time>2024-09-23T12:56:44.000Z</time>
      </trkpt>
      <trkpt lat="42.31432" lon="19.54771">
        <ele>579.80999755859</ele>
        <time>2024-09-23T12:56:45.000Z</time>
      </trkpt>
      <trkpt lat="42.31431" lon="19.54773">
        <ele>580.28997802734</ele>
        <time>2024-09-23T12:56:46.000Z</time>
      </trkpt>
      <trkpt lat="42.31433" lon="19.54783">
        <ele>580.28997802734</ele>
        <time>2024-09-23T12:56:48.000Z</time>
      </trkpt>
      <trkpt lat="42.31434" lon="19.54784">
        <ele>580.28997802734</ele>
        <time>2024-09-23T12:56:49.000Z</time>
      </trkpt>
      <trkpt lat="42.31438" lon="19.5479">
        <ele>580.28997802734</ele>
        <time>2024-09-23T12:56:50.000Z</time>
      </trkpt>
      <trkpt lat="42.31443" lon="19.54798">
        <ele>580.28997802734</ele>
        <time>2024-09-23T12:56:51.000Z</time>
      </trkpt>
      <trkpt lat="42.31459" lon="19.54826">
        <ele>579.80999755859</ele>
        <time>2024-09-23T12:56:53.000Z</time>
      </trkpt>
      <trkpt lat="42.31462" lon="19.5483">
        <ele>579.80999755859</ele>
        <time>2024-09-23T12:56:54.000Z</time>
      </trkpt>
      <trkpt lat="42.31465" lon="19.54838">
        <ele>579.80999755859</ele>
        <time>2024-09-23T12:56:55.000Z</time>
      </trkpt>
      <trkpt lat="42.31468" lon="19.54849">
        <ele>579.33001708984</ele>
        <time>2024-09-23T12:56:56.000Z</time>
      </trkpt>
      <trkpt lat="42.31471" lon="19.54872">
        <ele>578.36999511719</ele>
        <time>2024-09-23T12:56:57.000Z</time>
      </trkpt>
      <trkpt lat="42.31471" lon="19.54875">
        <ele>578.36999511719</ele>
        <time>2024-09-23T12:56:58.000Z</time>
      </trkpt>
      <trkpt lat="42.31472" lon="19.54891">
        <ele>577.89001464844</ele>
        <time>2024-09-23T12:56:59.000Z</time>
      </trkpt>
      <trkpt lat="42.31465" lon="19.54982">
        <ele>573.55999755859</ele>
        <time>2024-09-23T12:57:06.000Z</time>
      </trkpt>
      <trkpt lat="42.31464" lon="19.5499">
        <ele>573.55999755859</ele>
        <time>2024-09-23T12:57:07.000Z</time>
      </trkpt>
      <trkpt lat="42.31461" lon="19.55005">
        <ele>573.08001708984</ele>
        <time>2024-09-23T12:57:08.000Z</time>
      </trkpt>
      <trkpt lat="42.31459" lon="19.5501">
        <ele>573.08001708984</ele>
        <time>2024-09-23T12:57:09.000Z</time>
      </trkpt>
      <trkpt lat="42.31458" lon="19.55022">
        <ele>573.08001708984</ele>
        <time>2024-09-23T12:57:10.000Z</time>
      </trkpt>
      <trkpt lat="42.31457" lon="19.55032">
        <ele>573.08001708984</ele>
        <time>2024-09-23T12:57:11.000Z</time>
      </trkpt>
      <trkpt lat="42.31458" lon="19.55042">
        <ele>572.59997558594</ele>
        <time>2024-09-23T12:57:12.000Z</time>
      </trkpt>
      <trkpt lat="42.31458" lon="19.55049">
        <ele>572.59997558594</ele>
        <time>2024-09-23T12:57:13.000Z</time>
      </trkpt>
      <trkpt lat="42.3146" lon="19.55057">
        <ele>572.11999511719</ele>
        <time>2024-09-23T12:57:14.000Z</time>
      </trkpt>
      <trkpt lat="42.31464" lon="19.55068">
        <ele>571.64001464844</ele>
        <time>2024-09-23T12:57:15.000Z</time>
      </trkpt>
      <trkpt lat="42.31466" lon="19.55074">
        <ele>571.64001464844</ele>
        <time>2024-09-23T12:57:16.000Z</time>
      </trkpt>
      <trkpt lat="42.31472" lon="19.55087">
        <ele>571.64001464844</ele>
        <time>2024-09-23T12:57:17.000Z</time>
      </trkpt>
      <trkpt lat="42.31473" lon="19.55089">
        <ele>572.11999511719</ele>
        <time>2024-09-23T12:57:18.000Z</time>
      </trkpt>
      <trkpt lat="42.31476" lon="19.55098">
        <ele>572.11999511719</ele>
        <time>2024-09-23T12:57:19.000Z</time>
      </trkpt>
      <trkpt lat="42.31478" lon="19.55109">
        <ele>571.64001464844</ele>
        <time>2024-09-23T12:57:20.000Z</time>
      </trkpt>
      <trkpt lat="42.31479" lon="19.5512">
        <ele>571.15997314453</ele>
        <time>2024-09-23T12:57:21.000Z</time>
      </trkpt>
      <trkpt lat="42.31479" lon="19.55131">
        <ele>571.15997314453</ele>
        <time>2024-09-23T12:57:22.000Z</time>
      </trkpt>
      <trkpt lat="42.31476" lon="19.5514">
        <ele>571.15997314453</ele>
        <time>2024-09-23T12:57:23.000Z</time>
      </trkpt>
      <trkpt lat="42.31472" lon="19.55146">
        <ele>571.15997314453</ele>
        <time>2024-09-23T12:57:24.000Z</time>
      </trkpt>
      <trkpt lat="42.31453" lon="19.55159">
        <ele>570.67999267578</ele>
        <time>2024-09-23T12:57:26.000Z</time>
      </trkpt>
      <trkpt lat="42.3145" lon="19.55162">
        <ele>570.67999267578</ele>
        <time>2024-09-23T12:57:27.000Z</time>
      </trkpt>
      <trkpt lat="42.31444" lon="19.55167">
        <ele>570.67999267578</ele>
        <time>2024-09-23T12:57:28.000Z</time>
      </trkpt>
      <trkpt lat="42.31439" lon="19.55175">
        <ele>570.20001220703</ele>
        <time>2024-09-23T12:57:29.000Z</time>
      </trkpt>
      <trkpt lat="42.31435" lon="19.55184">
        <ele>569.23999023438</ele>
        <time>2024-09-23T12:57:30.000Z</time>
      </trkpt>
      <trkpt lat="42.31432" lon="19.55197">
        <ele>569.23999023438</ele>
        <time>2024-09-23T12:57:31.000Z</time>
      </trkpt>
      <trkpt lat="42.31428" lon="19.55227">
        <ele>568.76000976562</ele>
        <time>2024-09-23T12:57:33.000Z</time>
      </trkpt>
      <trkpt lat="42.31427" lon="19.55242">
        <ele>569.23999023438</ele>
        <time>2024-09-23T12:57:34.000Z</time>
      </trkpt>
      <trkpt lat="42.31428" lon="19.55281">
        <ele>572.11999511719</ele>
        <time>2024-09-23T12:57:36.000Z</time>
      </trkpt>
      <trkpt lat="42.31429" lon="19.55324">
        <ele>575.48999023438</ele>
        <time>2024-09-23T12:57:38.000Z</time>
      </trkpt>
      <trkpt lat="42.31429" lon="19.55335">
        <ele>576.45001220703</ele>
        <time>2024-09-23T12:57:39.000Z</time>
      </trkpt>
      <trkpt lat="42.3143" lon="19.55342">
        <ele>577.40997314453</ele>
        <time>2024-09-23T12:57:40.000Z</time>
      </trkpt>
      <trkpt lat="42.31429" lon="19.55355">
        <ele>577.89001464844</ele>
        <time>2024-09-23T12:57:41.000Z</time>
      </trkpt>
      <trkpt lat="42.3142" lon="19.55398">
        <ele>578.36999511719</ele>
        <time>2024-09-23T12:57:44.000Z</time>
      </trkpt>
      <trkpt lat="42.31419" lon="19.55404">
        <ele>578.36999511719</ele>
        <time>2024-09-23T12:57:45.000Z</time>
      </trkpt>
      <trkpt lat="42.31413" lon="19.55421">
        <ele>577.40997314453</ele>
        <time>2024-09-23T12:57:46.000Z</time>
      </trkpt>
      <trkpt lat="42.31411" lon="19.55431">
        <ele>576.92999267578</ele>
        <time>2024-09-23T12:57:47.000Z</time>
      </trkpt>
      <trkpt lat="42.31408" lon="19.55446">
        <ele>575.96997070312</ele>
        <time>2024-09-23T12:57:48.000Z</time>
      </trkpt>
      <trkpt lat="42.31405" lon="19.55472">
        <ele>575.01000976562</ele>
        <time>2024-09-23T12:57:49.000Z</time>
      </trkpt>
      <trkpt lat="42.31399" lon="19.55573">
        <ele>571.15997314453</ele>
        <time>2024-09-23T12:57:56.000Z</time>
      </trkpt>
      <trkpt lat="42.31398" lon="19.55603">
        <ele>571.64001464844</ele>
        <time>2024-09-23T12:57:58.000Z</time>
      </trkpt>
      <trkpt lat="42.31397" lon="19.55619">
        <ele>572.11999511719</ele>
        <time>2024-09-23T12:57:59.000Z</time>
      </trkpt>
      <trkpt lat="42.31394" lon="19.5566">
        <ele>571.64001464844</ele>
        <time>2024-09-23T12:58:01.000Z</time>
      </trkpt>
      <trkpt lat="42.31394" lon="19.55665">
        <ele>571.64001464844</ele>
        <time>2024-09-23T12:58:02.000Z</time>
      </trkpt>
      <trkpt lat="42.31394" lon="19.55695">
        <ele>570.20001220703</ele>
        <time>2024-09-23T12:58:03.000Z</time>
      </trkpt>
      <trkpt lat="42.31395" lon="19.55703">
        <ele>569.71997070312</ele>
        <time>2024-09-23T12:58:04.000Z</time>
      </trkpt>
      <trkpt lat="42.31396" lon="19.55725">
        <ele>569.23999023438</ele>
        <time>2024-09-23T12:58:05.000Z</time>
      </trkpt>
      <trkpt lat="42.31396" lon="19.55737">
        <ele>569.23999023438</ele>
        <time>2024-09-23T12:58:06.000Z</time>
      </trkpt>
      <trkpt lat="42.31395" lon="19.55754">
        <ele>569.71997070312</ele>
        <time>2024-09-23T12:58:07.000Z</time>
      </trkpt>
      <trkpt lat="42.31393" lon="19.55776">
        <ele>569.23999023438</ele>
        <time>2024-09-23T12:58:08.000Z</time>
      </trkpt>
      <trkpt lat="42.31392" lon="19.55788">
        <ele>569.23999023438</ele>
        <time>2024-09-23T12:58:09.000Z</time>
      </trkpt>
      <trkpt lat="42.31392" lon="19.55805">
        <ele>569.71997070312</ele>
        <time>2024-09-23T12:58:10.000Z</time>
      </trkpt>
      <trkpt lat="42.31393" lon="19.55825">
        <ele>570.20001220703</ele>
        <time>2024-09-23T12:58:11.000Z</time>
      </trkpt>
      <trkpt lat="42.31396" lon="19.55857">
        <ele>570.20001220703</ele>
        <time>2024-09-23T12:58:12.000Z</time>
      </trkpt>
      <trkpt lat="42.31396" lon="19.5586">
        <ele>570.67999267578</ele>
        <time>2024-09-23T12:58:13.000Z</time>
      </trkpt>
      <trkpt lat="42.31399" lon="19.55887">
        <ele>571.64001464844</ele>
        <time>2024-09-23T12:58:14.000Z</time>
      </trkpt>
      <trkpt lat="42.31399" lon="19.5589">
        <ele>571.64001464844</ele>
        <time>2024-09-23T12:58:15.000Z</time>
      </trkpt>
      <trkpt lat="42.31398" lon="19.55901">
        <ele>571.64001464844</ele>
        <time>2024-09-23T12:58:16.000Z</time>
      </trkpt>
      <trkpt lat="42.31395" lon="19.55913">
        <ele>572.59997558594</ele>
        <time>2024-09-23T12:58:17.000Z</time>
      </trkpt>
      <trkpt lat="42.3139" lon="19.55924">
        <ele>572.11999511719</ele>
        <time>2024-09-23T12:58:18.000Z</time>
      </trkpt>
      <trkpt lat="42.31384" lon="19.55939">
        <ele>570.67999267578</ele>
        <time>2024-09-23T12:58:19.000Z</time>
      </trkpt>
      <trkpt lat="42.31379" lon="19.5595">
        <ele>569.71997070312</ele>
        <time>2024-09-23T12:58:20.000Z</time>
      </trkpt>
      <trkpt lat="42.31374" lon="19.55962">
        <ele>569.23999023438</ele>
        <time>2024-09-23T12:58:21.000Z</time>
      </trkpt>
      <trkpt lat="42.31373" lon="19.55968">
        <ele>569.23999023438</ele>
        <time>2024-09-23T12:58:22.000Z</time>
      </trkpt>
      <trkpt lat="42.31371" lon="19.55977">
        <ele>568.76000976562</ele>
        <time>2024-09-23T12:58:23.000Z</time>
      </trkpt>
      <trkpt lat="42.31373" lon="19.55987">
        <ele>569.23999023438</ele>
        <time>2024-09-23T12:58:24.000Z</time>
      </trkpt>
      <trkpt lat="42.31375" lon="19.56">
        <ele>570.20001220703</ele>
        <time>2024-09-23T12:58:25.000Z</time>
      </trkpt>
      <trkpt lat="42.3138" lon="19.56035">
        <ele>572.11999511719</ele>
        <time>2024-09-23T12:58:27.000Z</time>
      </trkpt>
      <trkpt lat="42.3138" lon="19.56039">
        <ele>572.11999511719</ele>
        <time>2024-09-23T12:58:28.000Z</time>
      </trkpt>
      <trkpt lat="42.31384" lon="19.56053">
        <ele>572.11999511719</ele>
        <time>2024-09-23T12:58:29.000Z</time>
      </trkpt>
      <trkpt lat="42.31389" lon="19.56065">
        <ele>572.11999511719</ele>
        <time>2024-09-23T12:58:30.000Z</time>
      </trkpt>
      <trkpt lat="42.31395" lon="19.56078">
        <ele>572.59997558594</ele>
        <time>2024-09-23T12:58:31.000Z</time>
      </trkpt>
      <trkpt lat="42.31399" lon="19.56088">
        <ele>573.08001708984</ele>
        <time>2024-09-23T12:58:32.000Z</time>
      </trkpt>
      <trkpt lat="42.31401" lon="19.561">
        <ele>573.08001708984</ele>
        <time>2024-09-23T12:58:33.000Z</time>
      </trkpt>
      <trkpt lat="42.31401" lon="19.56114">
        <ele>573.08001708984</ele>
        <time>2024-09-23T12:58:34.000Z</time>
      </trkpt>
      <trkpt lat="42.31402" lon="19.5613">
        <ele>573.08001708984</ele>
        <time>2024-09-23T12:58:35.000Z</time>
      </trkpt>
      <trkpt lat="42.31404" lon="19.56146">
        <ele>573.08001708984</ele>
        <time>2024-09-23T12:58:36.000Z</time>
      </trkpt>
      <trkpt lat="42.31412" lon="19.56191">
        <ele>571.64001464844</ele>
        <time>2024-09-23T12:58:38.000Z</time>
      </trkpt>
      <trkpt lat="42.31412" lon="19.56194">
        <ele>571.64001464844</ele>
        <time>2024-09-23T12:58:39.000Z</time>
      </trkpt>
      <trkpt lat="42.31412" lon="19.5621">
        <ele>571.15997314453</ele>
        <time>2024-09-23T12:58:40.000Z</time>
      </trkpt>
      <trkpt lat="42.3141" lon="19.56231">
        <ele>570.20001220703</ele>
        <time>2024-09-23T12:58:41.000Z</time>
      </trkpt>
      <trkpt lat="42.3141" lon="19.56239">
        <ele>569.71997070312</ele>
        <time>2024-09-23T12:58:42.000Z</time>
      </trkpt>
      <trkpt lat="42.31407" lon="19.56273">
        <ele>567.79998779297</ele>
        <time>2024-09-23T12:58:44.000Z</time>
      </trkpt>
      <trkpt lat="42.31405" lon="19.56286">
        <ele>567.32000732422</ele>
        <time>2024-09-23T12:58:45.000Z</time>
      </trkpt>
      <trkpt lat="42.31402" lon="19.56301">
        <ele>566.83001708984</ele>
        <time>2024-09-23T12:58:46.000Z</time>
      </trkpt>
      <trkpt lat="42.31402" lon="19.56314">
        <ele>566.34997558594</ele>
        <time>2024-09-23T12:58:47.000Z</time>
      </trkpt>
      <trkpt lat="42.31404" lon="19.56323">
        <ele>566.83001708984</ele>
        <time>2024-09-23T12:58:48.000Z</time>
      </trkpt>
      <trkpt lat="42.31409" lon="19.56332">
        <ele>567.79998779297</ele>
        <time>2024-09-23T12:58:49.000Z</time>
      </trkpt>
      <trkpt lat="42.31416" lon="19.56343">
        <ele>568.28002929688</ele>
        <time>2024-09-23T12:58:50.000Z</time>
      </trkpt>
      <trkpt lat="42.3142" lon="19.56354">
        <ele>568.76000976562</ele>
        <time>2024-09-23T12:58:51.000Z</time>
      </trkpt>
      <trkpt lat="42.31421" lon="19.56367">
        <ele>569.71997070312</ele>
        <time>2024-09-23T12:58:52.000Z</time>
      </trkpt>
      <trkpt lat="42.31421" lon="19.56381">
        <ele>570.20001220703</ele>
        <time>2024-09-23T12:58:53.000Z</time>
      </trkpt>
      <trkpt lat="42.31422" lon="19.56394">
        <ele>570.20001220703</ele>
        <time>2024-09-23T12:58:54.000Z</time>
      </trkpt>
      <trkpt lat="42.31426" lon="19.56411">
        <ele>570.67999267578</ele>
        <time>2024-09-23T12:58:55.000Z</time>
      </trkpt>
      <trkpt lat="42.31429" lon="19.56424">
        <ele>570.67999267578</ele>
        <time>2024-09-23T12:58:56.000Z</time>
      </trkpt>
      <trkpt lat="42.31431" lon="19.5644">
        <ele>571.15997314453</ele>
        <time>2024-09-23T12:58:57.000Z</time>
      </trkpt>
      <trkpt lat="42.31432" lon="19.56457">
        <ele>572.11999511719</ele>
        <time>2024-09-23T12:58:58.000Z</time>
      </trkpt>
      <trkpt lat="42.31433" lon="19.56468">
        <ele>572.11999511719</ele>
        <time>2024-09-23T12:58:59.000Z</time>
      </trkpt>
      <trkpt lat="42.31438" lon="19.56484">
        <ele>570.67999267578</ele>
        <time>2024-09-23T12:59:00.000Z</time>
      </trkpt>
      <trkpt lat="42.3144" lon="19.56492">
        <ele>570.20001220703</ele>
        <time>2024-09-23T12:59:01.000Z</time>
      </trkpt>
      <trkpt lat="42.31442" lon="19.56508">
        <ele>568.76000976562</ele>
        <time>2024-09-23T12:59:02.000Z</time>
      </trkpt>
      <trkpt lat="42.31443" lon="19.56526">
        <ele>567.79998779297</ele>
        <time>2024-09-23T12:59:03.000Z</time>
      </trkpt>
      <trkpt lat="42.31444" lon="19.56541">
        <ele>566.34997558594</ele>
        <time>2024-09-23T12:59:04.000Z</time>
      </trkpt>
      <trkpt lat="42.31447" lon="19.56556">
        <ele>565.39001464844</ele>
        <time>2024-09-23T12:59:05.000Z</time>
      </trkpt>
      <trkpt lat="42.31451" lon="19.5657">
        <ele>565.39001464844</ele>
        <time>2024-09-23T12:59:06.000Z</time>
      </trkpt>
      <trkpt lat="42.3147" lon="19.56611">
        <ele>564.42999267578</ele>
        <time>2024-09-23T12:59:09.000Z</time>
      </trkpt>
      <trkpt lat="42.31474" lon="19.56624">
        <ele>564.42999267578</ele>
        <time>2024-09-23T12:59:10.000Z</time>
      </trkpt>
      <trkpt lat="42.31476" lon="19.56638">
        <ele>565.39001464844</ele>
        <time>2024-09-23T12:59:11.000Z</time>
      </trkpt>
      <trkpt lat="42.31477" lon="19.5665">
        <ele>566.83001708984</ele>
        <time>2024-09-23T12:59:12.000Z</time>
      </trkpt>
      <trkpt lat="42.3148" lon="19.56661">
        <ele>567.79998779297</ele>
        <time>2024-09-23T12:59:13.000Z</time>
      </trkpt>
      <trkpt lat="42.31489" lon="19.56681">
        <ele>568.76000976562</ele>
        <time>2024-09-23T12:59:14.000Z</time>
      </trkpt>
      <trkpt lat="42.3149" lon="19.56684">
        <ele>568.76000976562</ele>
        <time>2024-09-23T12:59:15.000Z</time>
      </trkpt>
      <trkpt lat="42.31493" lon="19.56694">
        <ele>569.23999023438</ele>
        <time>2024-09-23T12:59:16.000Z</time>
      </trkpt>
      <trkpt lat="42.31492" lon="19.56702">
        <ele>569.71997070312</ele>
        <time>2024-09-23T12:59:17.000Z</time>
      </trkpt>
      <trkpt lat="42.3149" lon="19.56712">
        <ele>569.71997070312</ele>
        <time>2024-09-23T12:59:18.000Z</time>
      </trkpt>
      <trkpt lat="42.31489" lon="19.56722">
        <ele>570.20001220703</ele>
        <time>2024-09-23T12:59:19.000Z</time>
      </trkpt>
      <trkpt lat="42.3149" lon="19.56733">
        <ele>570.67999267578</ele>
        <time>2024-09-23T12:59:20.000Z</time>
      </trkpt>
      <trkpt lat="42.31491" lon="19.56746">
        <ele>571.64001464844</ele>
        <time>2024-09-23T12:59:21.000Z</time>
      </trkpt>
      <trkpt lat="42.31491" lon="19.56758">
        <ele>572.59997558594</ele>
        <time>2024-09-23T12:59:22.000Z</time>
      </trkpt>
      <trkpt lat="42.31489" lon="19.5677">
        <ele>573.08001708984</ele>
        <time>2024-09-23T12:59:23.000Z</time>
      </trkpt>
      <trkpt lat="42.31485" lon="19.56783">
        <ele>573.08001708984</ele>
        <time>2024-09-23T12:59:24.000Z</time>
      </trkpt>
      <trkpt lat="42.31481" lon="19.56794">
        <ele>572.11999511719</ele>
        <time>2024-09-23T12:59:25.000Z</time>
      </trkpt>
      <trkpt lat="42.31478" lon="19.56808">
        <ele>572.11999511719</ele>
        <time>2024-09-23T12:59:26.000Z</time>
      </trkpt>
      <trkpt lat="42.31477" lon="19.56821">
        <ele>572.11999511719</ele>
        <time>2024-09-23T12:59:27.000Z</time>
      </trkpt>
      <trkpt lat="42.31479" lon="19.56833">
        <ele>572.11999511719</ele>
        <time>2024-09-23T12:59:28.000Z</time>
      </trkpt>
      <trkpt lat="42.31483" lon="19.56844">
        <ele>571.64001464844</ele>
        <time>2024-09-23T12:59:29.000Z</time>
      </trkpt>
      <trkpt lat="42.31487" lon="19.56854">
        <ele>571.15997314453</ele>
        <time>2024-09-23T12:59:30.000Z</time>
      </trkpt>
      <trkpt lat="42.3149" lon="19.56867">
        <ele>571.15997314453</ele>
        <time>2024-09-23T12:59:31.000Z</time>
      </trkpt>
      <trkpt lat="42.31491" lon="19.5688">
        <ele>570.67999267578</ele>
        <time>2024-09-23T12:59:32.000Z</time>
      </trkpt>
      <trkpt lat="42.3149" lon="19.56893">
        <ele>570.20001220703</ele>
        <time>2024-09-23T12:59:33.000Z</time>
      </trkpt>
      <trkpt lat="42.31488" lon="19.56909">
        <ele>568.76000976562</ele>
        <time>2024-09-23T12:59:34.000Z</time>
      </trkpt>
      <trkpt lat="42.31485" lon="19.56943">
        <ele>567.32000732422</ele>
        <time>2024-09-23T12:59:36.000Z</time>
      </trkpt>
      <trkpt lat="42.31485" lon="19.56955">
        <ele>567.32000732422</ele>
        <time>2024-09-23T12:59:37.000Z</time>
      </trkpt>
      <trkpt lat="42.31487" lon="19.56971">
        <ele>567.32000732422</ele>
        <time>2024-09-23T12:59:38.000Z</time>
      </trkpt>
      <trkpt lat="42.31489" lon="19.56986">
        <ele>567.32000732422</ele>
        <time>2024-09-23T12:59:39.000Z</time>
      </trkpt>
      <trkpt lat="42.31493" lon="19.56999">
        <ele>567.79998779297</ele>
        <time>2024-09-23T12:59:40.000Z</time>
      </trkpt>
      <trkpt lat="42.31498" lon="19.57011">
        <ele>568.28002929688</ele>
        <time>2024-09-23T12:59:41.000Z</time>
      </trkpt>
      <trkpt lat="42.31504" lon="19.57022">
        <ele>568.76000976562</ele>
        <time>2024-09-23T12:59:42.000Z</time>
      </trkpt>
      <trkpt lat="42.31512" lon="19.57037">
        <ele>567.79998779297</ele>
        <time>2024-09-23T12:59:43.000Z</time>
      </trkpt>
      <trkpt lat="42.31515" lon="19.57044">
        <ele>567.79998779297</ele>
        <time>2024-09-23T12:59:44.000Z</time>
      </trkpt>
      <trkpt lat="42.31523" lon="19.57073">
        <ele>567.32000732422</ele>
        <time>2024-09-23T12:59:45.000Z</time>
      </trkpt>
      <trkpt lat="42.31525" lon="19.57077">
        <ele>567.32000732422</ele>
        <time>2024-09-23T12:59:46.000Z</time>
      </trkpt>
      <trkpt lat="42.3153" lon="19.5709">
        <ele>567.32000732422</ele>
        <time>2024-09-23T12:59:47.000Z</time>
      </trkpt>
      <trkpt lat="42.31539" lon="19.57112">
        <ele>567.32000732422</ele>
        <time>2024-09-23T12:59:48.000Z</time>
      </trkpt>
      <trkpt lat="42.31546" lon="19.57129">
        <ele>568.76000976562</ele>
        <time>2024-09-23T12:59:49.000Z</time>
      </trkpt>
      <trkpt lat="42.3155" lon="19.57139">
        <ele>569.23999023438</ele>
        <time>2024-09-23T12:59:50.000Z</time>
      </trkpt>
      <trkpt lat="42.31557" lon="19.57155">
        <ele>570.20001220703</ele>
        <time>2024-09-23T12:59:51.000Z</time>
      </trkpt>
      <trkpt lat="42.31563" lon="19.57167">
        <ele>569.23999023438</ele>
        <time>2024-09-23T12:59:52.000Z</time>
      </trkpt>
      <trkpt lat="42.3157" lon="19.5718">
        <ele>568.28002929688</ele>
        <time>2024-09-23T12:59:53.000Z</time>
      </trkpt>
      <trkpt lat="42.31579" lon="19.57191">
        <ele>567.79998779297</ele>
        <time>2024-09-23T12:59:54.000Z</time>
      </trkpt>
      <trkpt lat="42.31585" lon="19.57203">
        <ele>567.32000732422</ele>
        <time>2024-09-23T12:59:55.000Z</time>
      </trkpt>
      <trkpt lat="42.31588" lon="19.57216">
        <ele>567.32000732422</ele>
        <time>2024-09-23T12:59:56.000Z</time>
      </trkpt>
      <trkpt lat="42.3159" lon="19.5723">
        <ele>567.79998779297</ele>
        <time>2024-09-23T12:59:57.000Z</time>
      </trkpt>
      <trkpt lat="42.31593" lon="19.57273">
        <ele>567.32000732422</ele>
        <time>2024-09-23T13:00:00.000Z</time>
      </trkpt>
      <trkpt lat="42.31595" lon="19.57283">
        <ele>567.32000732422</ele>
        <time>2024-09-23T13:00:01.000Z</time>
      </trkpt>
      <trkpt lat="42.31598" lon="19.57293">
        <ele>566.34997558594</ele>
        <time>2024-09-23T13:00:02.000Z</time>
      </trkpt>
      <trkpt lat="42.31603" lon="19.57304">
        <ele>565.39001464844</ele>
        <time>2024-09-23T13:00:03.000Z</time>
      </trkpt>
      <trkpt lat="42.31607" lon="19.57317">
        <ele>565.39001464844</ele>
        <time>2024-09-23T13:00:04.000Z</time>
      </trkpt>
      <trkpt lat="42.31608" lon="19.57333">
        <ele>564.90997314453</ele>
        <time>2024-09-23T13:00:05.000Z</time>
      </trkpt>
      <trkpt lat="42.3161" lon="19.57346">
        <ele>564.90997314453</ele>
        <time>2024-09-23T13:00:06.000Z</time>
      </trkpt>
      <trkpt lat="42.31615" lon="19.57374">
        <ele>564.42999267578</ele>
        <time>2024-09-23T13:00:07.000Z</time>
      </trkpt>
      <trkpt lat="42.31616" lon="19.57381">
        <ele>564.42999267578</ele>
        <time>2024-09-23T13:00:08.000Z</time>
      </trkpt>
      <trkpt lat="42.3162" lon="19.57418">
        <ele>563.95001220703</ele>
        <time>2024-09-23T13:00:10.000Z</time>
      </trkpt>
      <trkpt lat="42.31623" lon="19.5744">
        <ele>563.95001220703</ele>
        <time>2024-09-23T13:00:11.000Z</time>
      </trkpt>
      <trkpt lat="42.31626" lon="19.57454">
        <ele>563.95001220703</ele>
        <time>2024-09-23T13:00:12.000Z</time>
      </trkpt>
      <trkpt lat="42.3163" lon="19.57469">
        <ele>564.42999267578</ele>
        <time>2024-09-23T13:00:13.000Z</time>
      </trkpt>
      <trkpt lat="42.31635" lon="19.57483">
        <ele>564.42999267578</ele>
        <time>2024-09-23T13:00:14.000Z</time>
      </trkpt>
      <trkpt lat="42.31638" lon="19.57497">
        <ele>564.42999267578</ele>
        <time>2024-09-23T13:00:15.000Z</time>
      </trkpt>
      <trkpt lat="42.31639" lon="19.57511">
        <ele>563.95001220703</ele>
        <time>2024-09-23T13:00:16.000Z</time>
      </trkpt>
      <trkpt lat="42.31642" lon="19.57523">
        <ele>564.42999267578</ele>
        <time>2024-09-23T13:00:17.000Z</time>
      </trkpt>
      <trkpt lat="42.31648" lon="19.57535">
        <ele>565.39001464844</ele>
        <time>2024-09-23T13:00:18.000Z</time>
      </trkpt>
      <trkpt lat="42.31657" lon="19.57548">
        <ele>565.86999511719</ele>
        <time>2024-09-23T13:00:19.000Z</time>
      </trkpt>
      <trkpt lat="42.31662" lon="19.57559">
        <ele>566.34997558594</ele>
        <time>2024-09-23T13:00:20.000Z</time>
      </trkpt>
      <trkpt lat="42.31673" lon="19.57588">
        <ele>566.83001708984</ele>
        <time>2024-09-23T13:00:22.000Z</time>
      </trkpt>
      <trkpt lat="42.31679" lon="19.57603">
        <ele>566.83001708984</ele>
        <time>2024-09-23T13:00:23.000Z</time>
      </trkpt>
      <trkpt lat="42.31686" lon="19.57614">
        <ele>566.34997558594</ele>
        <time>2024-09-23T13:00:24.000Z</time>
      </trkpt>
      <trkpt lat="42.31693" lon="19.57624">
        <ele>566.34997558594</ele>
        <time>2024-09-23T13:00:25.000Z</time>
      </trkpt>
      <trkpt lat="42.31701" lon="19.57635">
        <ele>565.86999511719</ele>
        <time>2024-09-23T13:00:26.000Z</time>
      </trkpt>
      <trkpt lat="42.31706" lon="19.57647">
        <ele>565.86999511719</ele>
        <time>2024-09-23T13:00:27.000Z</time>
      </trkpt>
      <trkpt lat="42.31713" lon="19.57677">
        <ele>565.86999511719</ele>
        <time>2024-09-23T13:00:29.000Z</time>
      </trkpt>
      <trkpt lat="42.31714" lon="19.57688">
        <ele>565.86999511719</ele>
        <time>2024-09-23T13:00:30.000Z</time>
      </trkpt>
      <trkpt lat="42.31713" lon="19.57703">
        <ele>565.86999511719</ele>
        <time>2024-09-23T13:00:31.000Z</time>
      </trkpt>
      <trkpt lat="42.31711" lon="19.57721">
        <ele>566.34997558594</ele>
        <time>2024-09-23T13:00:32.000Z</time>
      </trkpt>
      <trkpt lat="42.3171" lon="19.57732">
        <ele>566.83001708984</ele>
        <time>2024-09-23T13:00:33.000Z</time>
      </trkpt>
      <trkpt lat="42.31711" lon="19.57741">
        <ele>566.83001708984</ele>
        <time>2024-09-23T13:00:34.000Z</time>
      </trkpt>
      <trkpt lat="42.31715" lon="19.57753">
        <ele>566.83001708984</ele>
        <time>2024-09-23T13:00:35.000Z</time>
      </trkpt>
      <trkpt lat="42.31721" lon="19.57767">
        <ele>567.32000732422</ele>
        <time>2024-09-23T13:00:36.000Z</time>
      </trkpt>
      <trkpt lat="42.31736" lon="19.57792">
        <ele>567.79998779297</ele>
        <time>2024-09-23T13:00:38.000Z</time>
      </trkpt>
      <trkpt lat="42.3174" lon="19.57801">
        <ele>568.28002929688</ele>
        <time>2024-09-23T13:00:39.000Z</time>
      </trkpt>
      <trkpt lat="42.31743" lon="19.57813">
        <ele>568.76000976562</ele>
        <time>2024-09-23T13:00:40.000Z</time>
      </trkpt>
      <trkpt lat="42.31745" lon="19.57827">
        <ele>568.28002929688</ele>
        <time>2024-09-23T13:00:41.000Z</time>
      </trkpt>
      <trkpt lat="42.31748" lon="19.57838">
        <ele>568.28002929688</ele>
        <time>2024-09-23T13:00:42.000Z</time>
      </trkpt>
      <trkpt lat="42.3176" lon="19.57859">
        <ele>568.76000976562</ele>
        <time>2024-09-23T13:00:43.000Z</time>
      </trkpt>
      <trkpt lat="42.31762" lon="19.57864">
        <ele>568.76000976562</ele>
        <time>2024-09-23T13:00:44.000Z</time>
      </trkpt>
      <trkpt lat="42.31766" lon="19.57877">
        <ele>568.76000976562</ele>
        <time>2024-09-23T13:00:45.000Z</time>
      </trkpt>
      <trkpt lat="42.31768" lon="19.5789">
        <ele>569.71997070312</ele>
        <time>2024-09-23T13:00:46.000Z</time>
      </trkpt>
      <trkpt lat="42.31767" lon="19.579">
        <ele>569.23999023438</ele>
        <time>2024-09-23T13:00:47.000Z</time>
      </trkpt>
      <trkpt lat="42.31763" lon="19.57909">
        <ele>569.71997070312</ele>
        <time>2024-09-23T13:00:48.000Z</time>
      </trkpt>
      <trkpt lat="42.31757" lon="19.57921">
        <ele>569.71997070312</ele>
        <time>2024-09-23T13:00:49.000Z</time>
      </trkpt>
      <trkpt lat="42.31753" lon="19.57932">
        <ele>570.20001220703</ele>
        <time>2024-09-23T13:00:50.000Z</time>
      </trkpt>
      <trkpt lat="42.31748" lon="19.57941">
        <ele>570.67999267578</ele>
        <time>2024-09-23T13:00:51.000Z</time>
      </trkpt>
      <trkpt lat="42.31742" lon="19.57947">
        <ele>570.67999267578</ele>
        <time>2024-09-23T13:00:52.000Z</time>
      </trkpt>
      <trkpt lat="42.31736" lon="19.57954">
        <ele>570.67999267578</ele>
        <time>2024-09-23T13:00:53.000Z</time>
      </trkpt>
      <trkpt lat="42.31731" lon="19.57964">
        <ele>571.15997314453</ele>
        <time>2024-09-23T13:00:54.000Z</time>
      </trkpt>
      <trkpt lat="42.31729" lon="19.57975">
        <ele>571.15997314453</ele>
        <time>2024-09-23T13:00:55.000Z</time>
      </trkpt>
      <trkpt lat="42.31729" lon="19.57989">
        <ele>571.64001464844</ele>
        <time>2024-09-23T13:00:56.000Z</time>
      </trkpt>
      <trkpt lat="42.31735" lon="19.58043">
        <ele>572.11999511719</ele>
        <time>2024-09-23T13:00:59.000Z</time>
      </trkpt>
      <trkpt lat="42.31735" lon="19.58045">
        <ele>572.11999511719</ele>
        <time>2024-09-23T13:01:00.000Z</time>
      </trkpt>
      <trkpt lat="42.31739" lon="19.58058">
        <ele>573.08001708984</ele>
        <time>2024-09-23T13:01:01.000Z</time>
      </trkpt>
      <trkpt lat="42.3175" lon="19.58081">
        <ele>573.55999755859</ele>
        <time>2024-09-23T13:01:02.000Z</time>
      </trkpt>
      <trkpt lat="42.31751" lon="19.58083">
        <ele>573.55999755859</ele>
        <time>2024-09-23T13:01:03.000Z</time>
      </trkpt>
      <trkpt lat="42.31757" lon="19.58099">
        <ele>573.08001708984</ele>
        <time>2024-09-23T13:01:04.000Z</time>
      </trkpt>
      <trkpt lat="42.31764" lon="19.58122">
        <ele>573.08001708984</ele>
        <time>2024-09-23T13:01:05.000Z</time>
      </trkpt>
      <trkpt lat="42.31769" lon="19.58136">
        <ele>572.59997558594</ele>
        <time>2024-09-23T13:01:06.000Z</time>
      </trkpt>
      <trkpt lat="42.31781" lon="19.58166">
        <ele>572.59997558594</ele>
        <time>2024-09-23T13:01:08.000Z</time>
      </trkpt>
      <trkpt lat="42.31788" lon="19.58185">
        <ele>573.08001708984</ele>
        <time>2024-09-23T13:01:09.000Z</time>
      </trkpt>
      <trkpt lat="42.31792" lon="19.58196">
        <ele>574.03997802734</ele>
        <time>2024-09-23T13:01:10.000Z</time>
      </trkpt>
      <trkpt lat="42.31796" lon="19.58209">
        <ele>573.55999755859</ele>
        <time>2024-09-23T13:01:11.000Z</time>
      </trkpt>
      <trkpt lat="42.31802" lon="19.58219">
        <ele>573.55999755859</ele>
        <time>2024-09-23T13:01:12.000Z</time>
      </trkpt>
      <trkpt lat="42.3181" lon="19.58229">
        <ele>573.55999755859</ele>
        <time>2024-09-23T13:01:13.000Z</time>
      </trkpt>
      <trkpt lat="42.31816" lon="19.5824">
        <ele>573.55999755859</ele>
        <time>2024-09-23T13:01:14.000Z</time>
      </trkpt>
      <trkpt lat="42.31819" lon="19.58251">
        <ele>573.55999755859</ele>
        <time>2024-09-23T13:01:15.000Z</time>
      </trkpt>
      <trkpt lat="42.31822" lon="19.58265">
        <ele>573.55999755859</ele>
        <time>2024-09-23T13:01:16.000Z</time>
      </trkpt>
      <trkpt lat="42.31827" lon="19.58281">
        <ele>573.08001708984</ele>
        <time>2024-09-23T13:01:17.000Z</time>
      </trkpt>
      <trkpt lat="42.31834" lon="19.58295">
        <ele>573.08001708984</ele>
        <time>2024-09-23T13:01:18.000Z</time>
      </trkpt>
      <trkpt lat="42.31845" lon="19.58313">
        <ele>572.59997558594</ele>
        <time>2024-09-23T13:01:19.000Z</time>
      </trkpt>
      <trkpt lat="42.3185" lon="19.58319">
        <ele>572.11999511719</ele>
        <time>2024-09-23T13:01:20.000Z</time>
      </trkpt>
      <trkpt lat="42.31857" lon="19.58332">
        <ele>571.64001464844</ele>
        <time>2024-09-23T13:01:21.000Z</time>
      </trkpt>
      <trkpt lat="42.31862" lon="19.58346">
        <ele>571.15997314453</ele>
        <time>2024-09-23T13:01:22.000Z</time>
      </trkpt>
      <trkpt lat="42.31872" lon="19.58375">
        <ele>571.64001464844</ele>
        <time>2024-09-23T13:01:24.000Z</time>
      </trkpt>
      <trkpt lat="42.31875" lon="19.58384">
        <ele>571.64001464844</ele>
        <time>2024-09-23T13:01:25.000Z</time>
      </trkpt>
      <trkpt lat="42.31878" lon="19.58389">
        <ele>571.64001464844</ele>
        <time>2024-09-23T13:01:26.000Z</time>
      </trkpt>
      <trkpt lat="42.31889" lon="19.58395">
        <ele>572.11999511719</ele>
        <time>2024-09-23T13:01:29.000Z</time>
      </trkpt>
      <trkpt lat="42.31893" lon="19.58397">
        <ele>572.11999511719</ele>
        <time>2024-09-23T13:01:30.000Z</time>
      </trkpt>
      <trkpt lat="42.31898" lon="19.58401">
        <ele>572.11999511719</ele>
        <time>2024-09-23T13:01:31.000Z</time>
      </trkpt>
      <trkpt lat="42.31902" lon="19.58407">
        <ele>572.11999511719</ele>
        <time>2024-09-23T13:01:32.000Z</time>
      </trkpt>
      <trkpt lat="42.31908" lon="19.58416">
        <ele>572.59997558594</ele>
        <time>2024-09-23T13:01:33.000Z</time>
      </trkpt>
      <trkpt lat="42.31911" lon="19.58421">
        <ele>572.59997558594</ele>
        <time>2024-09-23T13:01:34.000Z</time>
      </trkpt>
      <trkpt lat="42.31916" lon="19.58427">
        <ele>572.59997558594</ele>
        <time>2024-09-23T13:01:35.000Z</time>
      </trkpt>
      <trkpt lat="42.31931" lon="19.58438">
        <ele>573.08001708984</ele>
        <time>2024-09-23T13:01:37.000Z</time>
      </trkpt>
      <trkpt lat="42.31934" lon="19.58441">
        <ele>573.08001708984</ele>
        <time>2024-09-23T13:01:38.000Z</time>
      </trkpt>
      <trkpt lat="42.3194" lon="19.58448">
        <ele>573.55999755859</ele>
        <time>2024-09-23T13:01:39.000Z</time>
      </trkpt>
      <trkpt lat="42.31944" lon="19.58454">
        <ele>573.55999755859</ele>
        <time>2024-09-23T13:01:40.000Z</time>
      </trkpt>
      <trkpt lat="42.31948" lon="19.58463">
        <ele>574.03997802734</ele>
        <time>2024-09-23T13:01:41.000Z</time>
      </trkpt>
      <trkpt lat="42.3195" lon="19.58472">
        <ele>574.53002929688</ele>
        <time>2024-09-23T13:01:42.000Z</time>
      </trkpt>
      <trkpt lat="42.31953" lon="19.58489">
        <ele>574.03997802734</ele>
        <time>2024-09-23T13:01:44.000Z</time>
      </trkpt>
      <trkpt lat="42.3196" lon="19.58508">
        <ele>573.55999755859</ele>
        <time>2024-09-23T13:01:49.000Z</time>
      </trkpt>
      <trkpt lat="42.31965" lon="19.58514">
        <ele>573.08001708984</ele>
        <time>2024-09-23T13:01:50.000Z</time>
      </trkpt>
      <trkpt lat="42.3198" lon="19.58533">
        <ele>572.59997558594</ele>
        <time>2024-09-23T13:01:52.000Z</time>
      </trkpt>
      <trkpt lat="42.31987" lon="19.58542">
        <ele>572.59997558594</ele>
        <time>2024-09-23T13:01:53.000Z</time>
      </trkpt>
      <trkpt lat="42.32003" lon="19.58565">
        <ele>573.08001708984</ele>
        <time>2024-09-23T13:01:56.000Z</time>
      </trkpt>
      <trkpt lat="42.32011" lon="19.58576">
        <ele>574.03997802734</ele>
        <time>2024-09-23T13:01:58.000Z</time>
      </trkpt>
      <trkpt lat="42.32019" lon="19.58587">
        <ele>574.53002929688</ele>
        <time>2024-09-23T13:02:00.000Z</time>
      </trkpt>
      <trkpt lat="42.32028" lon="19.58603">
        <ele>575.01000976562</ele>
        <time>2024-09-23T13:02:01.000Z</time>
      </trkpt>
      <trkpt lat="42.32031" lon="19.58609">
        <ele>575.48999023438</ele>
        <time>2024-09-23T13:02:02.000Z</time>
      </trkpt>
      <trkpt lat="42.32034" lon="19.58615">
        <ele>575.48999023438</ele>
        <time>2024-09-23T13:02:03.000Z</time>
      </trkpt>
      <trkpt lat="42.32042" lon="19.58626">
        <ele>575.96997070312</ele>
        <time>2024-09-23T13:02:04.000Z</time>
      </trkpt>
      <trkpt lat="42.32049" lon="19.58635">
        <ele>575.96997070312</ele>
        <time>2024-09-23T13:02:05.000Z</time>
      </trkpt>
      <trkpt lat="42.32066" lon="19.58653">
        <ele>576.45001220703</ele>
        <time>2024-09-23T13:02:07.000Z</time>
      </trkpt>
      <trkpt lat="42.32077" lon="19.58665">
        <ele>577.40997314453</ele>
        <time>2024-09-23T13:02:08.000Z</time>
      </trkpt>
      <trkpt lat="42.32084" lon="19.58675">
        <ele>577.40997314453</ele>
        <time>2024-09-23T13:02:09.000Z</time>
      </trkpt>
      <trkpt lat="42.32092" lon="19.58687">
        <ele>578.36999511719</ele>
        <time>2024-09-23T13:02:10.000Z</time>
      </trkpt>
      <trkpt lat="42.32097" lon="19.58701">
        <ele>578.84997558594</ele>
        <time>2024-09-23T13:02:11.000Z</time>
      </trkpt>
      <trkpt lat="42.32106" lon="19.58738">
        <ele>579.80999755859</ele>
        <time>2024-09-23T13:02:13.000Z</time>
      </trkpt>
      <trkpt lat="42.32109" lon="19.58751">
        <ele>580.28997802734</ele>
        <time>2024-09-23T13:02:14.000Z</time>
      </trkpt>
      <trkpt lat="42.32116" lon="19.58777">
        <ele>580.77001953125</ele>
        <time>2024-09-23T13:02:15.000Z</time>
      </trkpt>
      <trkpt lat="42.32117" lon="19.58781">
        <ele>581.25</ele>
        <time>2024-09-23T13:02:16.000Z</time>
      </trkpt>
      <trkpt lat="42.3212" lon="19.58799">
        <ele>581.25</ele>
        <time>2024-09-23T13:02:17.000Z</time>
      </trkpt>
      <trkpt lat="42.32122" lon="19.58813">
        <ele>581.72998046875</ele>
        <time>2024-09-23T13:02:18.000Z</time>
      </trkpt>
      <trkpt lat="42.32125" lon="19.58873">
        <ele>584.14001464844</ele>
        <time>2024-09-23T13:02:21.000Z</time>
      </trkpt>
      <trkpt lat="42.32127" lon="19.58886">
        <ele>585.09997558594</ele>
        <time>2024-09-23T13:02:22.000Z</time>
      </trkpt>
      <trkpt lat="42.32128" lon="19.58896">
        <ele>585.58001708984</ele>
        <time>2024-09-23T13:02:23.000Z</time>
      </trkpt>
      <trkpt lat="42.32132" lon="19.5891">
        <ele>586.53997802734</ele>
        <time>2024-09-23T13:02:24.000Z</time>
      </trkpt>
      <trkpt lat="42.32137" lon="19.58923">
        <ele>587.02001953125</ele>
        <time>2024-09-23T13:02:25.000Z</time>
      </trkpt>
      <trkpt lat="42.32144" lon="19.58936">
        <ele>587.97998046875</ele>
        <time>2024-09-23T13:02:26.000Z</time>
      </trkpt>
      <trkpt lat="42.32152" lon="19.5895">
        <ele>588.46002197266</ele>
        <time>2024-09-23T13:02:27.000Z</time>
      </trkpt>
      <trkpt lat="42.32185" lon="19.59002">
        <ele>590.86999511719</ele>
        <time>2024-09-23T13:02:30.000Z</time>
      </trkpt>
      <trkpt lat="42.3219" lon="19.59011">
        <ele>590.86999511719</ele>
        <time>2024-09-23T13:02:31.000Z</time>
      </trkpt>
      <trkpt lat="42.32197" lon="19.59026">
        <ele>591.83001708984</ele>
        <time>2024-09-23T13:02:32.000Z</time>
      </trkpt>
      <trkpt lat="42.32204" lon="19.59036">
        <ele>592.30999755859</ele>
        <time>2024-09-23T13:02:33.000Z</time>
      </trkpt>
      <trkpt lat="42.32213" lon="19.59046">
        <ele>593.27001953125</ele>
        <time>2024-09-23T13:02:34.000Z</time>
      </trkpt>
      <trkpt lat="42.32224" lon="19.59054">
        <ele>594.71002197266</ele>
        <time>2024-09-23T13:02:35.000Z</time>
      </trkpt>
      <trkpt lat="42.3224" lon="19.59061">
        <ele>594.71002197266</ele>
        <time>2024-09-23T13:02:36.000Z</time>
      </trkpt>
      <trkpt lat="42.32247" lon="19.59065">
        <ele>594.71002197266</ele>
        <time>2024-09-23T13:02:37.000Z</time>
      </trkpt>
      <trkpt lat="42.32257" lon="19.59074">
        <ele>594.71002197266</ele>
        <time>2024-09-23T13:02:38.000Z</time>
      </trkpt>
      <trkpt lat="42.32268" lon="19.59086">
        <ele>595.19000244141</ele>
        <time>2024-09-23T13:02:39.000Z</time>
      </trkpt>
      <trkpt lat="42.32297" lon="19.59124">
        <ele>597.11999511719</ele>
        <time>2024-09-23T13:02:41.000Z</time>
      </trkpt>
      <trkpt lat="42.323" lon="19.59129">
        <ele>597.59997558594</ele>
        <time>2024-09-23T13:02:42.000Z</time>
      </trkpt>
      <trkpt lat="42.32309" lon="19.59145">
        <ele>598.55999755859</ele>
        <time>2024-09-23T13:02:43.000Z</time>
      </trkpt>
      <trkpt lat="42.3239" lon="19.59273">
        <ele>606.25</ele>
        <time>2024-09-23T13:02:51.000Z</time>
      </trkpt>
      <trkpt lat="42.32433" lon="19.59326">
        <ele>605.28997802734</ele>
        <time>2024-09-23T13:02:55.000Z</time>
      </trkpt>
      <trkpt lat="42.32443" lon="19.59336">
        <ele>605.28997802734</ele>
        <time>2024-09-23T13:02:56.000Z</time>
      </trkpt>
      <trkpt lat="42.32453" lon="19.59343">
        <ele>605.28997802734</ele>
        <time>2024-09-23T13:02:57.000Z</time>
      </trkpt>
      <trkpt lat="42.32463" lon="19.59347">
        <ele>605.77001953125</ele>
        <time>2024-09-23T13:02:58.000Z</time>
      </trkpt>
      <trkpt lat="42.32477" lon="19.59347">
        <ele>606.72998046875</ele>
        <time>2024-09-23T13:02:59.000Z</time>
      </trkpt>
      <trkpt lat="42.32483" lon="19.59348">
        <ele>606.72998046875</ele>
        <time>2024-09-23T13:03:00.000Z</time>
      </trkpt>
      <trkpt lat="42.32491" lon="19.59353">
        <ele>606.72998046875</ele>
        <time>2024-09-23T13:03:01.000Z</time>
      </trkpt>
      <trkpt lat="42.32496" lon="19.59359">
        <ele>606.72998046875</ele>
        <time>2024-09-23T13:03:02.000Z</time>
      </trkpt>
      <trkpt lat="42.32498" lon="19.5937">
        <ele>607.21002197266</ele>
        <time>2024-09-23T13:03:03.000Z</time>
      </trkpt>
      <trkpt lat="42.325" lon="19.5938">
        <ele>607.69000244141</ele>
        <time>2024-09-23T13:03:04.000Z</time>
      </trkpt>
      <trkpt lat="42.32504" lon="19.59391">
        <ele>608.16998291016</ele>
        <time>2024-09-23T13:03:05.000Z</time>
      </trkpt>
      <trkpt lat="42.3251" lon="19.59401">
        <ele>609.13000488281</ele>
        <time>2024-09-23T13:03:06.000Z</time>
      </trkpt>
      <trkpt lat="42.32519" lon="19.5941">
        <ele>610.09002685547</ele>
        <time>2024-09-23T13:03:07.000Z</time>
      </trkpt>
      <trkpt lat="42.32545" lon="19.59435">
        <ele>612.5</ele>
        <time>2024-09-23T13:03:10.000Z</time>
      </trkpt>
      <trkpt lat="42.32639" lon="19.59526">
        <ele>620.66998291016</ele>
        <time>2024-09-23T13:03:18.000Z</time>
      </trkpt>
      <trkpt lat="42.32674" lon="19.59553">
        <ele>621.15002441406</ele>
        <time>2024-09-23T13:03:21.000Z</time>
      </trkpt>
      <trkpt lat="42.32682" lon="19.59561">
        <ele>622.10998535156</ele>
        <time>2024-09-23T13:03:22.000Z</time>
      </trkpt>
      <trkpt lat="42.32691" lon="19.59574">
        <ele>622.59002685547</ele>
        <time>2024-09-23T13:03:23.000Z</time>
      </trkpt>
      <trkpt lat="42.32696" lon="19.59588">
        <ele>623.07000732422</ele>
        <time>2024-09-23T13:03:24.000Z</time>
      </trkpt>
      <trkpt lat="42.32698" lon="19.59603">
        <ele>624.03002929688</ele>
        <time>2024-09-23T13:03:25.000Z</time>
      </trkpt>
      <trkpt lat="42.32699" lon="19.59618">
        <ele>624.98999023438</ele>
        <time>2024-09-23T13:03:26.000Z</time>
      </trkpt>
      <trkpt lat="42.32701" lon="19.59634">
        <ele>625.96002197266</ele>
        <time>2024-09-23T13:03:27.000Z</time>
      </trkpt>
      <trkpt lat="42.32706" lon="19.5965">
        <ele>627.40002441406</ele>
        <time>2024-09-23T13:03:28.000Z</time>
      </trkpt>
      <trkpt lat="42.3272" lon="19.59679">
        <ele>629.79998779297</ele>
        <time>2024-09-23T13:03:29.000Z</time>
      </trkpt>
      <trkpt lat="42.32748" lon="19.5974">
        <ele>632.67999267578</ele>
        <time>2024-09-23T13:03:33.000Z</time>
      </trkpt>
      <trkpt lat="42.32751" lon="19.59748">
        <ele>632.67999267578</ele>
        <time>2024-09-23T13:03:34.000Z</time>
      </trkpt>
      <trkpt lat="42.32761" lon="19.59779">
        <ele>633.16998291016</ele>
        <time>2024-09-23T13:03:36.000Z</time>
      </trkpt>
      <trkpt lat="42.32767" lon="19.59794">
        <ele>633.16998291016</ele>
        <time>2024-09-23T13:03:37.000Z</time>
      </trkpt>
      <trkpt lat="42.32774" lon="19.59805">
        <ele>632.67999267578</ele>
        <time>2024-09-23T13:03:38.000Z</time>
      </trkpt>
      <trkpt lat="42.32791" lon="19.5982">
        <ele>632.20001220703</ele>
        <time>2024-09-23T13:03:39.000Z</time>
      </trkpt>
      <trkpt lat="42.32793" lon="19.59822">
        <ele>632.20001220703</ele>
        <time>2024-09-23T13:03:40.000Z</time>
      </trkpt>
      <trkpt lat="42.32804" lon="19.59833">
        <ele>632.20001220703</ele>
        <time>2024-09-23T13:03:41.000Z</time>
      </trkpt>
      <trkpt lat="42.32839" lon="19.59874">
        <ele>634.13000488281</ele>
        <time>2024-09-23T13:03:44.000Z</time>
      </trkpt>
      <trkpt lat="42.32858" lon="19.59901">
        <ele>635.09002685547</ele>
        <time>2024-09-23T13:03:46.000Z</time>
      </trkpt>
      <trkpt lat="42.32882" lon="19.59935">
        <ele>636.53002929688</ele>
        <time>2024-09-23T13:03:48.000Z</time>
      </trkpt>
      <trkpt lat="42.32988" lon="19.60078">
        <ele>643.73999023438</ele>
        <time>2024-09-23T13:03:57.000Z</time>
      </trkpt>
      <trkpt lat="42.33052" lon="19.6016">
        <ele>651.42999267578</ele>
        <time>2024-09-23T13:04:03.000Z</time>
      </trkpt>
      <trkpt lat="42.33057" lon="19.60167">
        <ele>651.90997314453</ele>
        <time>2024-09-23T13:04:04.000Z</time>
      </trkpt>
      <trkpt lat="42.33064" lon="19.60179">
        <ele>652.86999511719</ele>
        <time>2024-09-23T13:04:05.000Z</time>
      </trkpt>
      <trkpt lat="42.33066" lon="19.60191">
        <ele>653.83001708984</ele>
        <time>2024-09-23T13:04:06.000Z</time>
      </trkpt>
      <trkpt lat="42.33064" lon="19.60203">
        <ele>654.30999755859</ele>
        <time>2024-09-23T13:04:07.000Z</time>
      </trkpt>
      <trkpt lat="42.33059" lon="19.60213">
        <ele>655.28002929688</ele>
        <time>2024-09-23T13:04:08.000Z</time>
      </trkpt>
      <trkpt lat="42.33049" lon="19.60222">
        <ele>655.76000976562</ele>
        <time>2024-09-23T13:04:09.000Z</time>
      </trkpt>
      <trkpt lat="42.33043" lon="19.60227">
        <ele>655.76000976562</ele>
        <time>2024-09-23T13:04:10.000Z</time>
      </trkpt>
      <trkpt lat="42.33036" lon="19.60235">
        <ele>655.76000976562</ele>
        <time>2024-09-23T13:04:11.000Z</time>
      </trkpt>
      <trkpt lat="42.33031" lon="19.60246">
        <ele>655.76000976562</ele>
        <time>2024-09-23T13:04:12.000Z</time>
      </trkpt>
      <trkpt lat="42.33027" lon="19.6026">
        <ele>656.23999023438</ele>
        <time>2024-09-23T13:04:13.000Z</time>
      </trkpt>
      <trkpt lat="42.33027" lon="19.60277">
        <ele>656.23999023438</ele>
        <time>2024-09-23T13:04:14.000Z</time>
      </trkpt>
      <trkpt lat="42.33035" lon="19.60352">
        <ele>659.59997558594</ele>
        <time>2024-09-23T13:04:18.000Z</time>
      </trkpt>
      <trkpt lat="42.33041" lon="19.60413">
        <ele>661.52001953125</ele>
        <time>2024-09-23T13:04:21.000Z</time>
      </trkpt>
      <trkpt lat="42.33043" lon="19.60432">
        <ele>661.52001953125</ele>
        <time>2024-09-23T13:04:22.000Z</time>
      </trkpt>
      <trkpt lat="42.33053" lon="19.60524">
        <ele>661.52001953125</ele>
        <time>2024-09-23T13:04:28.000Z</time>
      </trkpt>
      <trkpt lat="42.33054" lon="19.6053">
        <ele>661.52001953125</ele>
        <time>2024-09-23T13:04:29.000Z</time>
      </trkpt>
      <trkpt lat="42.33057" lon="19.60544">
        <ele>662.01000976562</ele>
        <time>2024-09-23T13:04:30.000Z</time>
      </trkpt>
      <trkpt lat="42.33099" lon="19.60655">
        <ele>665.84997558594</ele>
        <time>2024-09-23T13:04:38.000Z</time>
      </trkpt>
      <trkpt lat="42.33105" lon="19.60667">
        <ele>666.80999755859</ele>
        <time>2024-09-23T13:04:39.000Z</time>
      </trkpt>
      <trkpt lat="42.33117" lon="19.60686">
        <ele>667.77001953125</ele>
        <time>2024-09-23T13:04:40.000Z</time>
      </trkpt>
      <trkpt lat="42.33121" lon="19.60692">
        <ele>668.25</ele>
        <time>2024-09-23T13:04:41.000Z</time>
      </trkpt>
      <trkpt lat="42.33135" lon="19.60711">
        <ele>668.72998046875</ele>
        <time>2024-09-23T13:04:42.000Z</time>
      </trkpt>
      <trkpt lat="42.3314" lon="19.60717">
        <ele>669.21997070312</ele>
        <time>2024-09-23T13:04:43.000Z</time>
      </trkpt>
      <trkpt lat="42.33198" lon="19.60774">
        <ele>671.14001464844</ele>
        <time>2024-09-23T13:04:48.000Z</time>
      </trkpt>
      <trkpt lat="42.33209" lon="19.60783">
        <ele>671.61999511719</ele>
        <time>2024-09-23T13:04:49.000Z</time>
      </trkpt>
      <trkpt lat="42.33221" lon="19.60792">
        <ele>672.09997558594</ele>
        <time>2024-09-23T13:04:50.000Z</time>
      </trkpt>
      <trkpt lat="42.33234" lon="19.60798">
        <ele>672.58001708984</ele>
        <time>2024-09-23T13:04:51.000Z</time>
      </trkpt>
      <trkpt lat="42.33245" lon="19.60805">
        <ele>672.58001708984</ele>
        <time>2024-09-23T13:04:52.000Z</time>
      </trkpt>
      <trkpt lat="42.33257" lon="19.60814">
        <ele>673.05999755859</ele>
        <time>2024-09-23T13:04:53.000Z</time>
      </trkpt>
      <trkpt lat="42.33305" lon="19.60871">
        <ele>676.41998291016</ele>
        <time>2024-09-23T13:04:57.000Z</time>
      </trkpt>
      <trkpt lat="42.3331" lon="19.60879">
        <ele>676.90997314453</ele>
        <time>2024-09-23T13:04:58.000Z</time>
      </trkpt>
      <trkpt lat="42.33318" lon="19.60894">
        <ele>677.39001464844</ele>
        <time>2024-09-23T13:04:59.000Z</time>
      </trkpt>
      <trkpt lat="42.33337" lon="19.60946">
        <ele>679.30999755859</ele>
        <time>2024-09-23T13:05:02.000Z</time>
      </trkpt>
      <trkpt lat="42.33345" lon="19.60972">
        <ele>679.78997802734</ele>
        <time>2024-09-23T13:05:03.000Z</time>
      </trkpt>
      <trkpt lat="42.33346" lon="19.60977">
        <ele>679.78997802734</ele>
        <time>2024-09-23T13:05:04.000Z</time>
      </trkpt>
      <trkpt lat="42.33377" lon="19.61045">
        <ele>679.30999755859</ele>
        <time>2024-09-23T13:05:08.000Z</time>
      </trkpt>
      <trkpt lat="42.33382" lon="19.61059">
        <ele>678.83001708984</ele>
        <time>2024-09-23T13:05:09.000Z</time>
      </trkpt>
      <trkpt lat="42.33389" lon="19.61082">
        <ele>678.34997558594</ele>
        <time>2024-09-23T13:05:10.000Z</time>
      </trkpt>
      <trkpt lat="42.33398" lon="19.6112">
        <ele>677.39001464844</ele>
        <time>2024-09-23T13:05:12.000Z</time>
      </trkpt>
      <trkpt lat="42.33402" lon="19.61135">
        <ele>677.39001464844</ele>
        <time>2024-09-23T13:05:13.000Z</time>
      </trkpt>
      <trkpt lat="42.33408" lon="19.61151">
        <ele>677.39001464844</ele>
        <time>2024-09-23T13:05:14.000Z</time>
      </trkpt>
      <trkpt lat="42.33416" lon="19.6117">
        <ele>677.39001464844</ele>
        <time>2024-09-23T13:05:15.000Z</time>
      </trkpt>
      <trkpt lat="42.33422" lon="19.61181">
        <ele>677.86999511719</ele>
        <time>2024-09-23T13:05:16.000Z</time>
      </trkpt>
      <trkpt lat="42.33431" lon="19.61195">
        <ele>677.86999511719</ele>
        <time>2024-09-23T13:05:18.000Z</time>
      </trkpt>
      <trkpt lat="42.33435" lon="19.61201">
        <ele>677.86999511719</ele>
        <time>2024-09-23T13:05:19.000Z</time>
      </trkpt>
      <trkpt lat="42.33447" lon="19.61217">
        <ele>677.39001464844</ele>
        <time>2024-09-23T13:05:21.000Z</time>
      </trkpt>
      <trkpt lat="42.33455" lon="19.6123">
        <ele>677.39001464844</ele>
        <time>2024-09-23T13:05:22.000Z</time>
      </trkpt>
      <trkpt lat="42.3346" lon="19.61244">
        <ele>677.39001464844</ele>
        <time>2024-09-23T13:05:23.000Z</time>
      </trkpt>
      <trkpt lat="42.33463" lon="19.61262">
        <ele>678.34997558594</ele>
        <time>2024-09-23T13:05:24.000Z</time>
      </trkpt>
      <trkpt lat="42.33466" lon="19.61274">
        <ele>678.83001708984</ele>
        <time>2024-09-23T13:05:25.000Z</time>
      </trkpt>
      <trkpt lat="42.33472" lon="19.61287">
        <ele>678.34997558594</ele>
        <time>2024-09-23T13:05:26.000Z</time>
      </trkpt>
      <trkpt lat="42.3349" lon="19.61315">
        <ele>676.90997314453</ele>
        <time>2024-09-23T13:05:28.000Z</time>
      </trkpt>
      <trkpt lat="42.33498" lon="19.61329">
        <ele>676.90997314453</ele>
        <time>2024-09-23T13:05:29.000Z</time>
      </trkpt>
      <trkpt lat="42.33506" lon="19.61347">
        <ele>676.41998291016</ele>
        <time>2024-09-23T13:05:30.000Z</time>
      </trkpt>
      <trkpt lat="42.33511" lon="19.61364">
        <ele>676.41998291016</ele>
        <time>2024-09-23T13:05:31.000Z</time>
      </trkpt>
      <trkpt lat="42.33513" lon="19.61381">
        <ele>676.41998291016</ele>
        <time>2024-09-23T13:05:32.000Z</time>
      </trkpt>
      <trkpt lat="42.33515" lon="19.61421">
        <ele>675.94000244141</ele>
        <time>2024-09-23T13:05:34.000Z</time>
      </trkpt>
      <trkpt lat="42.33517" lon="19.61439">
        <ele>675.46002197266</ele>
        <time>2024-09-23T13:05:35.000Z</time>
      </trkpt>
      <trkpt lat="42.33522" lon="19.6146">
        <ele>674.5</ele>
        <time>2024-09-23T13:05:36.000Z</time>
      </trkpt>
      <trkpt lat="42.33532" lon="19.61491">
        <ele>673.05999755859</ele>
        <time>2024-09-23T13:05:37.000Z</time>
      </trkpt>
      <trkpt lat="42.33535" lon="19.615">
        <ele>672.58001708984</ele>
        <time>2024-09-23T13:05:38.000Z</time>
      </trkpt>
      <trkpt lat="42.33543" lon="19.61539">
        <ele>672.09997558594</ele>
        <time>2024-09-23T13:05:39.000Z</time>
      </trkpt>
      <trkpt lat="42.33553" lon="19.61604">
        <ele>671.61999511719</ele>
        <time>2024-09-23T13:05:42.000Z</time>
      </trkpt>
      <trkpt lat="42.33555" lon="19.61612">
        <ele>671.61999511719</ele>
        <time>2024-09-23T13:05:43.000Z</time>
      </trkpt>
      <trkpt lat="42.33572" lon="19.61667">
        <ele>670.65997314453</ele>
        <time>2024-09-23T13:05:45.000Z</time>
      </trkpt>
      <trkpt lat="42.33577" lon="19.61682">
        <ele>670.17999267578</ele>
        <time>2024-09-23T13:05:46.000Z</time>
      </trkpt>
      <trkpt lat="42.33595" lon="19.61764">
        <ele>669.21997070312</ele>
        <time>2024-09-23T13:05:49.000Z</time>
      </trkpt>
      <trkpt lat="42.33597" lon="19.61776">
        <ele>668.72998046875</ele>
        <time>2024-09-23T13:05:50.000Z</time>
      </trkpt>
      <trkpt lat="42.336" lon="19.61795">
        <ele>668.72998046875</ele>
        <time>2024-09-23T13:05:51.000Z</time>
      </trkpt>
      <trkpt lat="42.33603" lon="19.61827">
        <ele>668.72998046875</ele>
        <time>2024-09-23T13:05:52.000Z</time>
      </trkpt>
      <trkpt lat="42.33604" lon="19.61836">
        <ele>669.21997070312</ele>
        <time>2024-09-23T13:05:53.000Z</time>
      </trkpt>
      <trkpt lat="42.33607" lon="19.61858">
        <ele>669.21997070312</ele>
        <time>2024-09-23T13:05:54.000Z</time>
      </trkpt>
      <trkpt lat="42.33614" lon="19.61881">
        <ele>670.17999267578</ele>
        <time>2024-09-23T13:05:55.000Z</time>
      </trkpt>
      <trkpt lat="42.3362" lon="19.619">
        <ele>671.14001464844</ele>
        <time>2024-09-23T13:05:56.000Z</time>
      </trkpt>
      <trkpt lat="42.33631" lon="19.61921">
        <ele>671.61999511719</ele>
        <time>2024-09-23T13:05:57.000Z</time>
      </trkpt>
      <trkpt lat="42.33645" lon="19.61945">
        <ele>672.58001708984</ele>
        <time>2024-09-23T13:05:58.000Z</time>
      </trkpt>
      <trkpt lat="42.33658" lon="19.61964">
        <ele>672.58001708984</ele>
        <time>2024-09-23T13:05:59.000Z</time>
      </trkpt>
      <trkpt lat="42.33671" lon="19.61987">
        <ele>673.05999755859</ele>
        <time>2024-09-23T13:06:00.000Z</time>
      </trkpt>
      <trkpt lat="42.33675" lon="19.61994">
        <ele>673.05999755859</ele>
        <time>2024-09-23T13:06:01.000Z</time>
      </trkpt>
      <trkpt lat="42.33685" lon="19.62018">
        <ele>674.02001953125</ele>
        <time>2024-09-23T13:06:02.000Z</time>
      </trkpt>
      <trkpt lat="42.33691" lon="19.62033">
        <ele>674.5</ele>
        <time>2024-09-23T13:06:03.000Z</time>
      </trkpt>
      <trkpt lat="42.33702" lon="19.62071">
        <ele>676.41998291016</ele>
        <time>2024-09-23T13:06:05.000Z</time>
      </trkpt>
      <trkpt lat="42.33705" lon="19.62087">
        <ele>676.41998291016</ele>
        <time>2024-09-23T13:06:06.000Z</time>
      </trkpt>
      <trkpt lat="42.33707" lon="19.62109">
        <ele>676.41998291016</ele>
        <time>2024-09-23T13:06:07.000Z</time>
      </trkpt>
      <trkpt lat="42.33708" lon="19.62121">
        <ele>676.41998291016</ele>
        <time>2024-09-23T13:06:08.000Z</time>
      </trkpt>
      <trkpt lat="42.33712" lon="19.62137">
        <ele>676.41998291016</ele>
        <time>2024-09-23T13:06:09.000Z</time>
      </trkpt>
      <trkpt lat="42.33719" lon="19.62156">
        <ele>676.41998291016</ele>
        <time>2024-09-23T13:06:10.000Z</time>
      </trkpt>
      <trkpt lat="42.33731" lon="19.62178">
        <ele>676.41998291016</ele>
        <time>2024-09-23T13:06:11.000Z</time>
      </trkpt>
      <trkpt lat="42.33737" lon="19.6219">
        <ele>676.90997314453</ele>
        <time>2024-09-23T13:06:12.000Z</time>
      </trkpt>
      <trkpt lat="42.33744" lon="19.62206">
        <ele>677.39001464844</ele>
        <time>2024-09-23T13:06:13.000Z</time>
      </trkpt>
      <trkpt lat="42.33751" lon="19.62227">
        <ele>678.34997558594</ele>
        <time>2024-09-23T13:06:14.000Z</time>
      </trkpt>
      <trkpt lat="42.33754" lon="19.62236">
        <ele>678.83001708984</ele>
        <time>2024-09-23T13:06:15.000Z</time>
      </trkpt>
      <trkpt lat="42.33761" lon="19.62251">
        <ele>679.30999755859</ele>
        <time>2024-09-23T13:06:16.000Z</time>
      </trkpt>
      <trkpt lat="42.33773" lon="19.62269">
        <ele>679.78997802734</ele>
        <time>2024-09-23T13:06:17.000Z</time>
      </trkpt>
      <trkpt lat="42.33779" lon="19.6228">
        <ele>679.30999755859</ele>
        <time>2024-09-23T13:06:18.000Z</time>
      </trkpt>
      <trkpt lat="42.33787" lon="19.62297">
        <ele>679.30999755859</ele>
        <time>2024-09-23T13:06:19.000Z</time>
      </trkpt>
      <trkpt lat="42.33792" lon="19.62316">
        <ele>680.27001953125</ele>
        <time>2024-09-23T13:06:20.000Z</time>
      </trkpt>
      <trkpt lat="42.33795" lon="19.62337">
        <ele>681.71002197266</ele>
        <time>2024-09-23T13:06:21.000Z</time>
      </trkpt>
      <trkpt lat="42.338" lon="19.62356">
        <ele>683.15002441406</ele>
        <time>2024-09-23T13:06:22.000Z</time>
      </trkpt>
      <trkpt lat="42.33814" lon="19.62395">
        <ele>683.63000488281</ele>
        <time>2024-09-23T13:06:24.000Z</time>
      </trkpt>
      <trkpt lat="42.33815" lon="19.62401">
        <ele>683.63000488281</ele>
        <time>2024-09-23T13:06:25.000Z</time>
      </trkpt>
      <trkpt lat="42.3383" lon="19.6246">
        <ele>682.66998291016</ele>
        <time>2024-09-23T13:06:28.000Z</time>
      </trkpt>
      <trkpt lat="42.33846" lon="19.62502">
        <ele>684.59997558594</ele>
        <time>2024-09-23T13:06:31.000Z</time>
      </trkpt>
      <trkpt lat="42.33851" lon="19.62513">
        <ele>685.08001708984</ele>
        <time>2024-09-23T13:06:32.000Z</time>
      </trkpt>
      <trkpt lat="42.33862" lon="19.62537">
        <ele>686.52001953125</ele>
        <time>2024-09-23T13:06:33.000Z</time>
      </trkpt>
      <trkpt lat="42.33892" lon="19.62612">
        <ele>689.88000488281</ele>
        <time>2024-09-23T13:06:37.000Z</time>
      </trkpt>
      <trkpt lat="42.33894" lon="19.62619">
        <ele>690.35998535156</ele>
        <time>2024-09-23T13:06:38.000Z</time>
      </trkpt>
      <trkpt lat="42.33902" lon="19.62637">
        <ele>692.28997802734</ele>
        <time>2024-09-23T13:06:39.000Z</time>
      </trkpt>
      <trkpt lat="42.33921" lon="19.62672">
        <ele>694.69000244141</ele>
        <time>2024-09-23T13:06:41.000Z</time>
      </trkpt>
      <trkpt lat="42.33925" lon="19.62681">
        <ele>695.16998291016</ele>
        <time>2024-09-23T13:06:42.000Z</time>
      </trkpt>
      <trkpt lat="42.3393" lon="19.62697">
        <ele>696.13000488281</ele>
        <time>2024-09-23T13:06:43.000Z</time>
      </trkpt>
      <trkpt lat="42.33933" lon="19.62715">
        <ele>697.09002685547</ele>
        <time>2024-09-23T13:06:44.000Z</time>
      </trkpt>
      <trkpt lat="42.33934" lon="19.62734">
        <ele>698.04998779297</ele>
        <time>2024-09-23T13:06:45.000Z</time>
      </trkpt>
      <trkpt lat="42.33933" lon="19.62756">
        <ele>699.5</ele>
        <time>2024-09-23T13:06:46.000Z</time>
      </trkpt>
      <trkpt lat="42.33931" lon="19.62772">
        <ele>699.97998046875</ele>
        <time>2024-09-23T13:06:47.000Z</time>
      </trkpt>
      <trkpt lat="42.33927" lon="19.62795">
        <ele>701.41998291016</ele>
        <time>2024-09-23T13:06:48.000Z</time>
      </trkpt>
      <trkpt lat="42.33926" lon="19.6281">
        <ele>702.38000488281</ele>
        <time>2024-09-23T13:06:49.000Z</time>
      </trkpt>
      <trkpt lat="42.33927" lon="19.62856">
        <ele>704.78002929688</ele>
        <time>2024-09-23T13:06:51.000Z</time>
      </trkpt>
      <trkpt lat="42.33927" lon="19.62874">
        <ele>705.26000976562</ele>
        <time>2024-09-23T13:06:52.000Z</time>
      </trkpt>
      <trkpt lat="42.33927" lon="19.629">
        <ele>706.22998046875</ele>
        <time>2024-09-23T13:06:53.000Z</time>
      </trkpt>
      <trkpt lat="42.33927" lon="19.62916">
        <ele>707.19000244141</ele>
        <time>2024-09-23T13:06:54.000Z</time>
      </trkpt>
      <trkpt lat="42.3393" lon="19.62935">
        <ele>708.15002441406</ele>
        <time>2024-09-23T13:06:55.000Z</time>
      </trkpt>
      <trkpt lat="42.33934" lon="19.62951">
        <ele>709.10998535156</ele>
        <time>2024-09-23T13:06:56.000Z</time>
      </trkpt>
      <trkpt lat="42.33941" lon="19.62964">
        <ele>710.54998779297</ele>
        <time>2024-09-23T13:06:57.000Z</time>
      </trkpt>
      <trkpt lat="42.33952" lon="19.62981">
        <ele>712.46997070312</ele>
        <time>2024-09-23T13:06:58.000Z</time>
      </trkpt>
      <trkpt lat="42.33956" lon="19.62986">
        <ele>712.95001220703</ele>
        <time>2024-09-23T13:06:59.000Z</time>
      </trkpt>
      <trkpt lat="42.33964" lon="19.62991">
        <ele>713.91998291016</ele>
        <time>2024-09-23T13:07:00.000Z</time>
      </trkpt>
      <trkpt lat="42.33972" lon="19.62991">
        <ele>714.40002441406</ele>
        <time>2024-09-23T13:07:01.000Z</time>
      </trkpt>
      <trkpt lat="42.33981" lon="19.62985">
        <ele>715.35998535156</ele>
        <time>2024-09-23T13:07:02.000Z</time>
      </trkpt>
      <trkpt lat="42.33988" lon="19.62976">
        <ele>716.32000732422</ele>
        <time>2024-09-23T13:07:03.000Z</time>
      </trkpt>
      <trkpt lat="42.33995" lon="19.62971">
        <ele>716.79998779297</ele>
        <time>2024-09-23T13:07:04.000Z</time>
      </trkpt>
      <trkpt lat="42.34003" lon="19.62968">
        <ele>717.76000976562</ele>
        <time>2024-09-23T13:07:05.000Z</time>
      </trkpt>
      <trkpt lat="42.34012" lon="19.62969">
        <ele>718.23999023438</ele>
        <time>2024-09-23T13:07:06.000Z</time>
      </trkpt>
      <trkpt lat="42.34021" lon="19.62975">
        <ele>719.20001220703</ele>
        <time>2024-09-23T13:07:07.000Z</time>
      </trkpt>
      <trkpt lat="42.34028" lon="19.62983">
        <ele>719.67999267578</ele>
        <time>2024-09-23T13:07:08.000Z</time>
      </trkpt>
      <trkpt lat="42.3404" lon="19.63">
        <ele>721.13000488281</ele>
        <time>2024-09-23T13:07:09.000Z</time>
      </trkpt>
      <trkpt lat="42.34047" lon="19.63008">
        <ele>722.09002685547</ele>
        <time>2024-09-23T13:07:10.000Z</time>
      </trkpt>
      <trkpt lat="42.34056" lon="19.63017">
        <ele>723.04998779297</ele>
        <time>2024-09-23T13:07:11.000Z</time>
      </trkpt>
      <trkpt lat="42.34076" lon="19.63033">
        <ele>724.96997070312</ele>
        <time>2024-09-23T13:07:12.000Z</time>
      </trkpt>
      <trkpt lat="42.34084" lon="19.6304">
        <ele>725.92999267578</ele>
        <time>2024-09-23T13:07:13.000Z</time>
      </trkpt>
      <trkpt lat="42.34109" lon="19.63063">
        <ele>727.85998535156</ele>
        <time>2024-09-23T13:07:15.000Z</time>
      </trkpt>
      <trkpt lat="42.34117" lon="19.63072">
        <ele>728.82000732422</ele>
        <time>2024-09-23T13:07:16.000Z</time>
      </trkpt>
      <trkpt lat="42.34128" lon="19.63086">
        <ele>729.78002929688</ele>
        <time>2024-09-23T13:07:17.000Z</time>
      </trkpt>
      <trkpt lat="42.34136" lon="19.63102">
        <ele>730.26000976562</ele>
        <time>2024-09-23T13:07:18.000Z</time>
      </trkpt>
      <trkpt lat="42.34147" lon="19.63132">
        <ele>731.70001220703</ele>
        <time>2024-09-23T13:07:20.000Z</time>
      </trkpt>
      <trkpt lat="42.34154" lon="19.63147">
        <ele>732.17999267578</ele>
        <time>2024-09-23T13:07:21.000Z</time>
      </trkpt>
      <trkpt lat="42.34164" lon="19.63161">
        <ele>733.61999511719</ele>
        <time>2024-09-23T13:07:22.000Z</time>
      </trkpt>
      <trkpt lat="42.34175" lon="19.63172">
        <ele>735.07000732422</ele>
        <time>2024-09-23T13:07:23.000Z</time>
      </trkpt>
      <trkpt lat="42.34206" lon="19.63201">
        <ele>738.90997314453</ele>
        <time>2024-09-23T13:07:25.000Z</time>
      </trkpt>
      <trkpt lat="42.34223" lon="19.63214">
        <ele>739.86999511719</ele>
        <time>2024-09-23T13:07:26.000Z</time>
      </trkpt>
      <trkpt lat="42.34227" lon="19.63218">
        <ele>740.34997558594</ele>
        <time>2024-09-23T13:07:27.000Z</time>
      </trkpt>
      <trkpt lat="42.34236" lon="19.63229">
        <ele>740.83001708984</ele>
        <time>2024-09-23T13:07:28.000Z</time>
      </trkpt>
      <trkpt lat="42.34242" lon="19.63243">
        <ele>741.78997802734</ele>
        <time>2024-09-23T13:07:29.000Z</time>
      </trkpt>
      <trkpt lat="42.34245" lon="19.63259">
        <ele>742.76000976562</ele>
        <time>2024-09-23T13:07:30.000Z</time>
      </trkpt>
      <trkpt lat="42.34247" lon="19.63278">
        <ele>743.71997070312</ele>
        <time>2024-09-23T13:07:31.000Z</time>
      </trkpt>
      <trkpt lat="42.34254" lon="19.63319">
        <ele>748.52001953125</ele>
        <time>2024-09-23T13:07:33.000Z</time>
      </trkpt>
      <trkpt lat="42.34257" lon="19.6333">
        <ele>750.45001220703</ele>
        <time>2024-09-23T13:07:34.000Z</time>
      </trkpt>
      <trkpt lat="42.34262" lon="19.63341">
        <ele>751.89001464844</ele>
        <time>2024-09-23T13:07:35.000Z</time>
      </trkpt>
      <trkpt lat="42.34269" lon="19.63349">
        <ele>752.84997558594</ele>
        <time>2024-09-23T13:07:36.000Z</time>
      </trkpt>
      <trkpt lat="42.34298" lon="19.63374">
        <ele>754.28997802734</ele>
        <time>2024-09-23T13:07:38.000Z</time>
      </trkpt>
      <trkpt lat="42.34301" lon="19.63376">
        <ele>753.80999755859</ele>
        <time>2024-09-23T13:07:39.000Z</time>
      </trkpt>
      <trkpt lat="42.34317" lon="19.63393">
        <ele>753.80999755859</ele>
        <time>2024-09-23T13:07:40.000Z</time>
      </trkpt>
      <trkpt lat="42.34323" lon="19.63399">
        <ele>754.28997802734</ele>
        <time>2024-09-23T13:07:41.000Z</time>
      </trkpt>
      <trkpt lat="42.34331" lon="19.63407">
        <ele>754.77001953125</ele>
        <time>2024-09-23T13:07:42.000Z</time>
      </trkpt>
      <trkpt lat="42.3434" lon="19.63414">
        <ele>754.77001953125</ele>
        <time>2024-09-23T13:07:43.000Z</time>
      </trkpt>
      <trkpt lat="42.34357" lon="19.63419">
        <ele>753.80999755859</ele>
        <time>2024-09-23T13:07:44.000Z</time>
      </trkpt>
      <trkpt lat="42.34386" lon="19.6343">
        <ele>753.80999755859</ele>
        <time>2024-09-23T13:07:46.000Z</time>
      </trkpt>
      <trkpt lat="42.3441" lon="19.63439">
        <ele>755.25</ele>
        <time>2024-09-23T13:07:48.000Z</time>
      </trkpt>
      <trkpt lat="42.34417" lon="19.63443">
        <ele>755.72998046875</ele>
        <time>2024-09-23T13:07:49.000Z</time>
      </trkpt>
      <trkpt lat="42.34431" lon="19.63452">
        <ele>755.72998046875</ele>
        <time>2024-09-23T13:07:50.000Z</time>
      </trkpt>
      <trkpt lat="42.34443" lon="19.63459">
        <ele>755.72998046875</ele>
        <time>2024-09-23T13:07:51.000Z</time>
      </trkpt>
      <trkpt lat="42.34459" lon="19.63467">
        <ele>756.21002197266</ele>
        <time>2024-09-23T13:07:52.000Z</time>
      </trkpt>
      <trkpt lat="42.3447" lon="19.63474">
        <ele>756.21002197266</ele>
        <time>2024-09-23T13:07:53.000Z</time>
      </trkpt>
      <trkpt lat="42.34481" lon="19.63483">
        <ele>756.21002197266</ele>
        <time>2024-09-23T13:07:54.000Z</time>
      </trkpt>
      <trkpt lat="42.34493" lon="19.63498">
        <ele>755.72998046875</ele>
        <time>2024-09-23T13:07:55.000Z</time>
      </trkpt>
      <trkpt lat="42.34499" lon="19.63503">
        <ele>755.72998046875</ele>
        <time>2024-09-23T13:07:56.000Z</time>
      </trkpt>
      <trkpt lat="42.34509" lon="19.63509">
        <ele>755.25</ele>
        <time>2024-09-23T13:07:57.000Z</time>
      </trkpt>
      <trkpt lat="42.34521" lon="19.63512">
        <ele>755.25</ele>
        <time>2024-09-23T13:07:58.000Z</time>
      </trkpt>
      <trkpt lat="42.34561" lon="19.63521">
        <ele>754.77001953125</ele>
        <time>2024-09-23T13:08:00.000Z</time>
      </trkpt>
      <trkpt lat="42.34573" lon="19.63525">
        <ele>755.25</ele>
        <time>2024-09-23T13:08:01.000Z</time>
      </trkpt>
      <trkpt lat="42.34639" lon="19.63555">
        <ele>761.02001953125</ele>
        <time>2024-09-23T13:08:05.000Z</time>
      </trkpt>
      <trkpt lat="42.34644" lon="19.63556">
        <ele>761.02001953125</ele>
        <time>2024-09-23T13:08:06.000Z</time>
      </trkpt>
      <trkpt lat="42.34706" lon="19.63566">
        <ele>766.30999755859</ele>
        <time>2024-09-23T13:08:09.000Z</time>
      </trkpt>
      <trkpt lat="42.34723" lon="19.63569">
        <ele>767.27001953125</ele>
        <time>2024-09-23T13:08:10.000Z</time>
      </trkpt>
      <trkpt lat="42.3478" lon="19.63578">
        <ele>772.08001708984</ele>
        <time>2024-09-23T13:08:13.000Z</time>
      </trkpt>
      <trkpt lat="42.34782" lon="19.63578">
        <ele>772.55999755859</ele>
        <time>2024-09-23T13:08:14.000Z</time>
      </trkpt>
      <trkpt lat="42.34797" lon="19.63578">
        <ele>774</ele>
        <time>2024-09-23T13:08:15.000Z</time>
      </trkpt>
      <trkpt lat="42.34816" lon="19.63573">
        <ele>775.91998291016</ele>
        <time>2024-09-23T13:08:16.000Z</time>
      </trkpt>
      <trkpt lat="42.34829" lon="19.63568">
        <ele>777.35998535156</ele>
        <time>2024-09-23T13:08:17.000Z</time>
      </trkpt>
      <trkpt lat="42.3484" lon="19.63562">
        <ele>777.84002685547</ele>
        <time>2024-09-23T13:08:18.000Z</time>
      </trkpt>
      <trkpt lat="42.34853" lon="19.63552">
        <ele>779.28997802734</ele>
        <time>2024-09-23T13:08:19.000Z</time>
      </trkpt>
      <trkpt lat="42.34912" lon="19.63494">
        <ele>785.04998779297</ele>
        <time>2024-09-23T13:08:23.000Z</time>
      </trkpt>
      <trkpt lat="42.34916" lon="19.6349">
        <ele>785.53002929688</ele>
        <time>2024-09-23T13:08:24.000Z</time>
      </trkpt>
      <trkpt lat="42.34926" lon="19.63478">
        <ele>786.97998046875</ele>
        <time>2024-09-23T13:08:25.000Z</time>
      </trkpt>
      <trkpt lat="42.34974" lon="19.63401">
        <ele>790.82000732422</ele>
        <time>2024-09-23T13:08:30.000Z</time>
      </trkpt>
      <trkpt lat="42.34981" lon="19.63392">
        <ele>791.29998779297</ele>
        <time>2024-09-23T13:08:31.000Z</time>
      </trkpt>
      <trkpt lat="42.34995" lon="19.63376">
        <ele>792.73999023438</ele>
        <time>2024-09-23T13:08:32.000Z</time>
      </trkpt>
      <trkpt lat="42.35005" lon="19.63366">
        <ele>793.71002197266</ele>
        <time>2024-09-23T13:08:33.000Z</time>
      </trkpt>
      <trkpt lat="42.3502" lon="19.63354">
        <ele>795.15002441406</ele>
        <time>2024-09-23T13:08:34.000Z</time>
      </trkpt>
      <trkpt lat="42.35034" lon="19.63345">
        <ele>796.59002685547</ele>
        <time>2024-09-23T13:08:35.000Z</time>
      </trkpt>
      <trkpt lat="42.35048" lon="19.63339">
        <ele>797.54998779297</ele>
        <time>2024-09-23T13:08:36.000Z</time>
      </trkpt>
      <trkpt lat="42.35059" lon="19.63338">
        <ele>798.98999023438</ele>
        <time>2024-09-23T13:08:37.000Z</time>
      </trkpt>
      <trkpt lat="42.35072" lon="19.63343">
        <ele>801.40002441406</ele>
        <time>2024-09-23T13:08:38.000Z</time>
      </trkpt>
      <trkpt lat="42.35077" lon="19.63344">
        <ele>801.40002441406</ele>
        <time>2024-09-23T13:08:39.000Z</time>
      </trkpt>
      <trkpt lat="42.35087" lon="19.63346">
        <ele>801.88000488281</ele>
        <time>2024-09-23T13:08:40.000Z</time>
      </trkpt>
      <trkpt lat="42.35106" lon="19.63344">
        <ele>801.88000488281</ele>
        <time>2024-09-23T13:08:41.000Z</time>
      </trkpt>
      <trkpt lat="42.35136" lon="19.63337">
        <ele>802.35998535156</ele>
        <time>2024-09-23T13:08:43.000Z</time>
      </trkpt>
      <trkpt lat="42.35144" lon="19.63335">
        <ele>802.35998535156</ele>
        <time>2024-09-23T13:08:44.000Z</time>
      </trkpt>
      <trkpt lat="42.35166" lon="19.63327">
        <ele>802.35998535156</ele>
        <time>2024-09-23T13:08:45.000Z</time>
      </trkpt>
      <trkpt lat="42.35186" lon="19.63321">
        <ele>804.28002929688</ele>
        <time>2024-09-23T13:08:46.000Z</time>
      </trkpt>
      <trkpt lat="42.35207" lon="19.63314">
        <ele>805.71997070312</ele>
        <time>2024-09-23T13:08:48.000Z</time>
      </trkpt>
      <trkpt lat="42.35222" lon="19.63311">
        <ele>806.67999267578</ele>
        <time>2024-09-23T13:08:49.000Z</time>
      </trkpt>
      <trkpt lat="42.35264" lon="19.63315">
        <ele>811.01000976562</ele>
        <time>2024-09-23T13:08:51.000Z</time>
      </trkpt>
      <trkpt lat="42.35274" lon="19.63315">
        <ele>811.96997070312</ele>
        <time>2024-09-23T13:08:52.000Z</time>
      </trkpt>
      <trkpt lat="42.35287" lon="19.63314">
        <ele>811.96997070312</ele>
        <time>2024-09-23T13:08:53.000Z</time>
      </trkpt>
      <trkpt lat="42.35305" lon="19.6331">
        <ele>811.96997070312</ele>
        <time>2024-09-23T13:08:54.000Z</time>
      </trkpt>
      <trkpt lat="42.35317" lon="19.63307">
        <ele>812.45001220703</ele>
        <time>2024-09-23T13:08:55.000Z</time>
      </trkpt>
      <trkpt lat="42.3539" lon="19.63271">
        <ele>814.84997558594</ele>
        <time>2024-09-23T13:09:00.000Z</time>
      </trkpt>
      <trkpt lat="42.35397" lon="19.63267">
        <ele>815.34002685547</ele>
        <time>2024-09-23T13:09:01.000Z</time>
      </trkpt>
      <trkpt lat="42.35426" lon="19.63251">
        <ele>815.34002685547</ele>
        <time>2024-09-23T13:09:04.000Z</time>
      </trkpt>
      <trkpt lat="42.35445" lon="19.63242">
        <ele>815.34002685547</ele>
        <time>2024-09-23T13:09:06.000Z</time>
      </trkpt>
      <trkpt lat="42.35449" lon="19.63241">
        <ele>814.84997558594</ele>
        <time>2024-09-23T13:09:07.000Z</time>
      </trkpt>
      <trkpt lat="42.35457" lon="19.63239">
        <ele>814.36999511719</ele>
        <time>2024-09-23T13:09:08.000Z</time>
      </trkpt>
      <trkpt lat="42.35468" lon="19.63238">
        <ele>813.40997314453</ele>
        <time>2024-09-23T13:09:09.000Z</time>
      </trkpt>
      <trkpt lat="42.35499" lon="19.63241">
        <ele>812.45001220703</ele>
        <time>2024-09-23T13:09:11.000Z</time>
      </trkpt>
      <trkpt lat="42.35504" lon="19.63242">
        <ele>812.45001220703</ele>
        <time>2024-09-23T13:09:12.000Z</time>
      </trkpt>
      <trkpt lat="42.35517" lon="19.63243">
        <ele>812.45001220703</ele>
        <time>2024-09-23T13:09:13.000Z</time>
      </trkpt>
      <trkpt lat="42.3553" lon="19.63245">
        <ele>812.45001220703</ele>
        <time>2024-09-23T13:09:14.000Z</time>
      </trkpt>
      <trkpt lat="42.35538" lon="19.63246">
        <ele>812.45001220703</ele>
        <time>2024-09-23T13:09:15.000Z</time>
      </trkpt>
      <trkpt lat="42.35544" lon="19.63248">
        <ele>812.45001220703</ele>
        <time>2024-09-23T13:09:16.000Z</time>
      </trkpt>
      <trkpt lat="42.35558" lon="19.63252">
        <ele>812.45001220703</ele>
        <time>2024-09-23T13:09:17.000Z</time>
      </trkpt>
      <trkpt lat="42.35565" lon="19.63255">
        <ele>812.45001220703</ele>
        <time>2024-09-23T13:09:18.000Z</time>
      </trkpt>
      <trkpt lat="42.35576" lon="19.63261">
        <ele>812.92999267578</ele>
        <time>2024-09-23T13:09:19.000Z</time>
      </trkpt>
      <trkpt lat="42.35584" lon="19.63267">
        <ele>812.92999267578</ele>
        <time>2024-09-23T13:09:20.000Z</time>
      </trkpt>
      <trkpt lat="42.35601" lon="19.63284">
        <ele>812.92999267578</ele>
        <time>2024-09-23T13:09:21.000Z</time>
      </trkpt>
      <trkpt lat="42.35604" lon="19.63286">
        <ele>812.92999267578</ele>
        <time>2024-09-23T13:09:22.000Z</time>
      </trkpt>
      <trkpt lat="42.35613" lon="19.63294">
        <ele>813.40997314453</ele>
        <time>2024-09-23T13:09:23.000Z</time>
      </trkpt>
      <trkpt lat="42.35624" lon="19.63301">
        <ele>813.89001464844</ele>
        <time>2024-09-23T13:09:24.000Z</time>
      </trkpt>
      <trkpt lat="42.35644" lon="19.63311">
        <ele>813.89001464844</ele>
        <time>2024-09-23T13:09:25.000Z</time>
      </trkpt>
      <trkpt lat="42.35672" lon="19.63323">
        <ele>816.29998779297</ele>
        <time>2024-09-23T13:09:28.000Z</time>
      </trkpt>
      <trkpt lat="42.35678" lon="19.63326">
        <ele>816.78002929688</ele>
        <time>2024-09-23T13:09:29.000Z</time>
      </trkpt>
      <trkpt lat="42.35727" lon="19.63346">
        <ele>821.09997558594</ele>
        <time>2024-09-23T13:09:33.000Z</time>
      </trkpt>
      <trkpt lat="42.35734" lon="19.63348">
        <ele>821.58001708984</ele>
        <time>2024-09-23T13:09:34.000Z</time>
      </trkpt>
      <trkpt lat="42.35752" lon="19.63352">
        <ele>823.51000976562</ele>
        <time>2024-09-23T13:09:35.000Z</time>
      </trkpt>
      <trkpt lat="42.35772" lon="19.63357">
        <ele>825.42999267578</ele>
        <time>2024-09-23T13:09:37.000Z</time>
      </trkpt>
      <trkpt lat="42.35785" lon="19.63361">
        <ele>826.86999511719</ele>
        <time>2024-09-23T13:09:38.000Z</time>
      </trkpt>
      <trkpt lat="42.35796" lon="19.63367">
        <ele>828.30999755859</ele>
        <time>2024-09-23T13:09:39.000Z</time>
      </trkpt>
      <trkpt lat="42.35812" lon="19.6338">
        <ele>830.23999023438</ele>
        <time>2024-09-23T13:09:40.000Z</time>
      </trkpt>
      <trkpt lat="42.35815" lon="19.63382">
        <ele>830.23999023438</ele>
        <time>2024-09-23T13:09:41.000Z</time>
      </trkpt>
      <trkpt lat="42.35824" lon="19.63387">
        <ele>830.71997070312</ele>
        <time>2024-09-23T13:09:42.000Z</time>
      </trkpt>
      <trkpt lat="42.35836" lon="19.63391">
        <ele>831.20001220703</ele>
        <time>2024-09-23T13:09:43.000Z</time>
      </trkpt>
      <trkpt lat="42.35878" lon="19.6339">
        <ele>833.11999511719</ele>
        <time>2024-09-23T13:09:45.000Z</time>
      </trkpt>
      <trkpt lat="42.35883" lon="19.63389">
        <ele>833.59997558594</ele>
        <time>2024-09-23T13:09:46.000Z</time>
      </trkpt>
      <trkpt lat="42.35898" lon="19.63386">
        <ele>834.55999755859</ele>
        <time>2024-09-23T13:09:47.000Z</time>
      </trkpt>
      <trkpt lat="42.35914" lon="19.63381">
        <ele>835.52001953125</ele>
        <time>2024-09-23T13:09:48.000Z</time>
      </trkpt>
      <trkpt lat="42.36066" lon="19.63327">
        <ele>847.53997802734</ele>
        <time>2024-09-23T13:09:56.000Z</time>
      </trkpt>
      <trkpt lat="42.36154" lon="19.63282">
        <ele>857.15002441406</ele>
        <time>2024-09-23T13:10:01.000Z</time>
      </trkpt>
      <trkpt lat="42.36211" lon="19.63251">
        <ele>858.10998535156</ele>
        <time>2024-09-23T13:10:05.000Z</time>
      </trkpt>
      <trkpt lat="42.36299" lon="19.63225">
        <ele>855.71002197266</ele>
        <time>2024-09-23T13:10:10.000Z</time>
      </trkpt>
      <trkpt lat="42.36313" lon="19.63221">
        <ele>855.22998046875</ele>
        <time>2024-09-23T13:10:11.000Z</time>
      </trkpt>
      <trkpt lat="42.36316" lon="19.6322">
        <ele>854.75</ele>
        <time>2024-09-23T13:10:12.000Z</time>
      </trkpt>
      <trkpt lat="42.36333" lon="19.63218">
        <ele>854.27001953125</ele>
        <time>2024-09-23T13:10:13.000Z</time>
      </trkpt>
      <trkpt lat="42.36346" lon="19.63219">
        <ele>853.30999755859</ele>
        <time>2024-09-23T13:10:14.000Z</time>
      </trkpt>
      <trkpt lat="42.3637" lon="19.63226">
        <ele>851.86999511719</ele>
        <time>2024-09-23T13:10:15.000Z</time>
      </trkpt>
      <trkpt lat="42.36376" lon="19.63228">
        <ele>851.38000488281</ele>
        <time>2024-09-23T13:10:16.000Z</time>
      </trkpt>
      <trkpt lat="42.36387" lon="19.63229">
        <ele>851.38000488281</ele>
        <time>2024-09-23T13:10:17.000Z</time>
      </trkpt>
      <trkpt lat="42.36399" lon="19.63231">
        <ele>851.38000488281</ele>
        <time>2024-09-23T13:10:18.000Z</time>
      </trkpt>
      <trkpt lat="42.36411" lon="19.6323">
        <ele>851.38000488281</ele>
        <time>2024-09-23T13:10:19.000Z</time>
      </trkpt>
      <trkpt lat="42.36432" lon="19.63228">
        <ele>851.86999511719</ele>
        <time>2024-09-23T13:10:20.000Z</time>
      </trkpt>
      <trkpt lat="42.3654" lon="19.63214">
        <ele>854.27001953125</ele>
        <time>2024-09-23T13:10:27.000Z</time>
      </trkpt>
      <trkpt lat="42.36566" lon="19.63214">
        <ele>855.22998046875</ele>
        <time>2024-09-23T13:10:28.000Z</time>
      </trkpt>
      <trkpt lat="42.36572" lon="19.63214">
        <ele>855.22998046875</ele>
        <time>2024-09-23T13:10:29.000Z</time>
      </trkpt>
      <trkpt lat="42.36585" lon="19.63217">
        <ele>855.22998046875</ele>
        <time>2024-09-23T13:10:30.000Z</time>
      </trkpt>
      <trkpt lat="42.36598" lon="19.63221">
        <ele>855.22998046875</ele>
        <time>2024-09-23T13:10:31.000Z</time>
      </trkpt>
      <trkpt lat="42.36612" lon="19.63227">
        <ele>855.71002197266</ele>
        <time>2024-09-23T13:10:32.000Z</time>
      </trkpt>
      <trkpt lat="42.36657" lon="19.63254">
        <ele>856.66998291016</ele>
        <time>2024-09-23T13:10:35.000Z</time>
      </trkpt>
      <trkpt lat="42.36684" lon="19.63269">
        <ele>857.63000488281</ele>
        <time>2024-09-23T13:10:36.000Z</time>
      </trkpt>
      <trkpt lat="42.36688" lon="19.63271">
        <ele>857.63000488281</ele>
        <time>2024-09-23T13:10:37.000Z</time>
      </trkpt>
      <trkpt lat="42.36705" lon="19.63278">
        <ele>857.63000488281</ele>
        <time>2024-09-23T13:10:38.000Z</time>
      </trkpt>
      <trkpt lat="42.36714" lon="19.63281">
        <ele>857.63000488281</ele>
        <time>2024-09-23T13:10:39.000Z</time>
      </trkpt>
      <trkpt lat="42.36729" lon="19.63282">
        <ele>857.63000488281</ele>
        <time>2024-09-23T13:10:40.000Z</time>
      </trkpt>
      <trkpt lat="42.36756" lon="19.6328">
        <ele>858.10998535156</ele>
        <time>2024-09-23T13:10:41.000Z</time>
      </trkpt>
      <trkpt lat="42.36761" lon="19.6328">
        <ele>858.59002685547</ele>
        <time>2024-09-23T13:10:42.000Z</time>
      </trkpt>
      <trkpt lat="42.36776" lon="19.63281">
        <ele>859.08001708984</ele>
        <time>2024-09-23T13:10:43.000Z</time>
      </trkpt>
      <trkpt lat="42.36805" lon="19.63288">
        <ele>861</ele>
        <time>2024-09-23T13:10:45.000Z</time>
      </trkpt>
      <trkpt lat="42.36819" lon="19.63294">
        <ele>861.47998046875</ele>
        <time>2024-09-23T13:10:46.000Z</time>
      </trkpt>
      <trkpt lat="42.36833" lon="19.63303">
        <ele>862.44000244141</ele>
        <time>2024-09-23T13:10:47.000Z</time>
      </trkpt>
      <trkpt lat="42.36844" lon="19.63311">
        <ele>863.40002441406</ele>
        <time>2024-09-23T13:10:48.000Z</time>
      </trkpt>
      <trkpt lat="42.36857" lon="19.63316">
        <ele>863.40002441406</ele>
        <time>2024-09-23T13:10:49.000Z</time>
      </trkpt>
      <trkpt lat="42.36937" lon="19.63329">
        <ele>864.35998535156</ele>
        <time>2024-09-23T13:10:54.000Z</time>
      </trkpt>
      <trkpt lat="42.36995" lon="19.63334">
        <ele>871.09002685547</ele>
        <time>2024-09-23T13:10:58.000Z</time>
      </trkpt>
      <trkpt lat="42.3701" lon="19.63337">
        <ele>872.04998779297</ele>
        <time>2024-09-23T13:10:59.000Z</time>
      </trkpt>
      <trkpt lat="42.37047" lon="19.63346">
        <ele>873.97998046875</ele>
        <time>2024-09-23T13:11:01.000Z</time>
      </trkpt>
      <trkpt lat="42.37085" lon="19.6336">
        <ele>877.34002685547</ele>
        <time>2024-09-23T13:11:04.000Z</time>
      </trkpt>
      <trkpt lat="42.37099" lon="19.63367">
        <ele>879.26000976562</ele>
        <time>2024-09-23T13:11:05.000Z</time>
      </trkpt>
      <trkpt lat="42.37109" lon="19.63373">
        <ele>879.73999023438</ele>
        <time>2024-09-23T13:11:06.000Z</time>
      </trkpt>
      <trkpt lat="42.3712" lon="19.63378">
        <ele>879.26000976562</ele>
        <time>2024-09-23T13:11:07.000Z</time>
      </trkpt>
      <trkpt lat="42.37133" lon="19.63381">
        <ele>879.73999023438</ele>
        <time>2024-09-23T13:11:08.000Z</time>
      </trkpt>
      <trkpt lat="42.37257" lon="19.6337">
        <ele>876.38000488281</ele>
        <time>2024-09-23T13:11:14.000Z</time>
      </trkpt>
      <trkpt lat="42.37429" lon="19.63351">
        <ele>875.41998291016</ele>
        <time>2024-09-23T13:11:24.000Z</time>
      </trkpt>
      <trkpt lat="42.37451" lon="19.63348">
        <ele>875.90002441406</ele>
        <time>2024-09-23T13:11:25.000Z</time>
      </trkpt>
      <trkpt lat="42.37469" lon="19.63347">
        <ele>875.41998291016</ele>
        <time>2024-09-23T13:11:26.000Z</time>
      </trkpt>
      <trkpt lat="42.37475" lon="19.63348">
        <ele>875.90002441406</ele>
        <time>2024-09-23T13:11:27.000Z</time>
      </trkpt>
      <trkpt lat="42.37489" lon="19.6335">
        <ele>876.38000488281</ele>
        <time>2024-09-23T13:11:28.000Z</time>
      </trkpt>
      <trkpt lat="42.37502" lon="19.63354">
        <ele>876.85998535156</ele>
        <time>2024-09-23T13:11:29.000Z</time>
      </trkpt>
      <trkpt lat="42.37591" lon="19.63374">
        <ele>879.73999023438</ele>
        <time>2024-09-23T13:11:34.000Z</time>
      </trkpt>
      <trkpt lat="42.37714" lon="19.63381">
        <ele>881.66998291016</ele>
        <time>2024-09-23T13:11:41.000Z</time>
      </trkpt>
      <trkpt lat="42.37727" lon="19.63381">
        <ele>882.15002441406</ele>
        <time>2024-09-23T13:11:42.000Z</time>
      </trkpt>
      <trkpt lat="42.37742" lon="19.63384">
        <ele>882.15002441406</ele>
        <time>2024-09-23T13:11:43.000Z</time>
      </trkpt>
      <trkpt lat="42.3776" lon="19.63389">
        <ele>882.15002441406</ele>
        <time>2024-09-23T13:11:44.000Z</time>
      </trkpt>
      <trkpt lat="42.37825" lon="19.6342">
        <ele>884.54998779297</ele>
        <time>2024-09-23T13:11:47.000Z</time>
      </trkpt>
      <trkpt lat="42.37831" lon="19.63424">
        <ele>885.03002929688</ele>
        <time>2024-09-23T13:11:48.000Z</time>
      </trkpt>
      <trkpt lat="42.37844" lon="19.63434">
        <ele>885.51000976562</ele>
        <time>2024-09-23T13:11:49.000Z</time>
      </trkpt>
      <trkpt lat="42.37857" lon="19.63445">
        <ele>886.46997070312</ele>
        <time>2024-09-23T13:11:50.000Z</time>
      </trkpt>
      <trkpt lat="42.3787" lon="19.63453">
        <ele>886.95001220703</ele>
        <time>2024-09-23T13:11:51.000Z</time>
      </trkpt>
      <trkpt lat="42.37884" lon="19.63457">
        <ele>888.88000488281</ele>
        <time>2024-09-23T13:11:52.000Z</time>
      </trkpt>
      <trkpt lat="42.37904" lon="19.63457">
        <ele>889.35998535156</ele>
        <time>2024-09-23T13:11:53.000Z</time>
      </trkpt>
      <trkpt lat="42.37943" lon="19.63462">
        <ele>889.84002685547</ele>
        <time>2024-09-23T13:11:55.000Z</time>
      </trkpt>
      <trkpt lat="42.37956" lon="19.63462">
        <ele>889.84002685547</ele>
        <time>2024-09-23T13:11:56.000Z</time>
      </trkpt>
      <trkpt lat="42.3797" lon="19.63461">
        <ele>889.84002685547</ele>
        <time>2024-09-23T13:11:57.000Z</time>
      </trkpt>
      <trkpt lat="42.37987" lon="19.63457">
        <ele>889.84002685547</ele>
        <time>2024-09-23T13:11:58.000Z</time>
      </trkpt>
      <trkpt lat="42.38004" lon="19.63451">
        <ele>889.84002685547</ele>
        <time>2024-09-23T13:11:59.000Z</time>
      </trkpt>
      <trkpt lat="42.3803" lon="19.63438">
        <ele>889.84002685547</ele>
        <time>2024-09-23T13:12:00.000Z</time>
      </trkpt>
      <trkpt lat="42.38047" lon="19.6343">
        <ele>890.32000732422</ele>
        <time>2024-09-23T13:12:01.000Z</time>
      </trkpt>
      <trkpt lat="42.38058" lon="19.63426">
        <ele>890.79998779297</ele>
        <time>2024-09-23T13:12:02.000Z</time>
      </trkpt>
      <trkpt lat="42.38073" lon="19.63422">
        <ele>890.79998779297</ele>
        <time>2024-09-23T13:12:03.000Z</time>
      </trkpt>
      <trkpt lat="42.38089" lon="19.63419">
        <ele>891.28002929688</ele>
        <time>2024-09-23T13:12:04.000Z</time>
      </trkpt>
      <trkpt lat="42.38185" lon="19.63415">
        <ele>892.71997070312</ele>
        <time>2024-09-23T13:12:09.000Z</time>
      </trkpt>
      <trkpt lat="42.38325" lon="19.6343">
        <ele>898.01000976562</ele>
        <time>2024-09-23T13:12:16.000Z</time>
      </trkpt>
      <trkpt lat="42.38335" lon="19.63433">
        <ele>898.48999023438</ele>
        <time>2024-09-23T13:12:17.000Z</time>
      </trkpt>
      <trkpt lat="42.38446" lon="19.63486">
        <ele>898.01000976562</ele>
        <time>2024-09-23T13:12:24.000Z</time>
      </trkpt>
      <trkpt lat="42.38516" lon="19.63518">
        <ele>898.48999023438</ele>
        <time>2024-09-23T13:12:30.000Z</time>
      </trkpt>
      <trkpt lat="42.38527" lon="19.63525">
        <ele>898.48999023438</ele>
        <time>2024-09-23T13:12:31.000Z</time>
      </trkpt>
      <trkpt lat="42.38538" lon="19.63533">
        <ele>898.48999023438</ele>
        <time>2024-09-23T13:12:32.000Z</time>
      </trkpt>
      <trkpt lat="42.38552" lon="19.63544">
        <ele>898.96997070312</ele>
        <time>2024-09-23T13:12:33.000Z</time>
      </trkpt>
      <trkpt lat="42.38565" lon="19.63552">
        <ele>899.45001220703</ele>
        <time>2024-09-23T13:12:34.000Z</time>
      </trkpt>
      <trkpt lat="42.38582" lon="19.63558">
        <ele>900.40997314453</ele>
        <time>2024-09-23T13:12:35.000Z</time>
      </trkpt>
      <trkpt lat="42.38594" lon="19.63563">
        <ele>901.36999511719</ele>
        <time>2024-09-23T13:12:36.000Z</time>
      </trkpt>
      <trkpt lat="42.38604" lon="19.63568">
        <ele>901.36999511719</ele>
        <time>2024-09-23T13:12:37.000Z</time>
      </trkpt>
      <trkpt lat="42.38667" lon="19.63598">
        <ele>903.29998779297</ele>
        <time>2024-09-23T13:12:42.000Z</time>
      </trkpt>
      <trkpt lat="42.38699" lon="19.63606">
        <ele>903.78002929688</ele>
        <time>2024-09-23T13:12:44.000Z</time>
      </trkpt>
      <trkpt lat="42.38704" lon="19.63608">
        <ele>904.26000976562</ele>
        <time>2024-09-23T13:12:45.000Z</time>
      </trkpt>
      <trkpt lat="42.38719" lon="19.63615">
        <ele>904.73999023438</ele>
        <time>2024-09-23T13:12:46.000Z</time>
      </trkpt>
      <trkpt lat="42.38733" lon="19.63623">
        <ele>904.73999023438</ele>
        <time>2024-09-23T13:12:47.000Z</time>
      </trkpt>
      <trkpt lat="42.38762" lon="19.63641">
        <ele>905.21997070312</ele>
        <time>2024-09-23T13:12:49.000Z</time>
      </trkpt>
      <trkpt lat="42.38768" lon="19.63645">
        <ele>905.21997070312</ele>
        <time>2024-09-23T13:12:50.000Z</time>
      </trkpt>
      <trkpt lat="42.38779" lon="19.63651">
        <ele>905.70001220703</ele>
        <time>2024-09-23T13:12:51.000Z</time>
      </trkpt>
      <trkpt lat="42.38792" lon="19.63656">
        <ele>905.70001220703</ele>
        <time>2024-09-23T13:12:52.000Z</time>
      </trkpt>
      <trkpt lat="42.38821" lon="19.63669">
        <ele>906.65997314453</ele>
        <time>2024-09-23T13:12:54.000Z</time>
      </trkpt>
      <trkpt lat="42.38844" lon="19.63678">
        <ele>907.61999511719</ele>
        <time>2024-09-23T13:12:56.000Z</time>
      </trkpt>
      <trkpt lat="42.38857" lon="19.63684">
        <ele>908.09997558594</ele>
        <time>2024-09-23T13:12:57.000Z</time>
      </trkpt>
      <trkpt lat="42.38859" lon="19.63685">
        <ele>908.09997558594</ele>
        <time>2024-09-23T13:12:58.000Z</time>
      </trkpt>
      <trkpt lat="42.38871" lon="19.6369">
        <ele>908.58001708984</ele>
        <time>2024-09-23T13:12:59.000Z</time>
      </trkpt>
      <trkpt lat="42.3889" lon="19.63697">
        <ele>908.58001708984</ele>
        <time>2024-09-23T13:13:01.000Z</time>
      </trkpt>
      <trkpt lat="42.38901" lon="19.63702">
        <ele>907.61999511719</ele>
        <time>2024-09-23T13:13:02.000Z</time>
      </trkpt>
      <trkpt lat="42.38924" lon="19.63715">
        <ele>907.14001464844</ele>
        <time>2024-09-23T13:13:03.000Z</time>
      </trkpt>
      <trkpt lat="42.38929" lon="19.63719">
        <ele>907.14001464844</ele>
        <time>2024-09-23T13:13:04.000Z</time>
      </trkpt>
      <trkpt lat="42.38947" lon="19.6373">
        <ele>907.14001464844</ele>
        <time>2024-09-23T13:13:05.000Z</time>
      </trkpt>
      <trkpt lat="42.39007" lon="19.63772">
        <ele>908.09997558594</ele>
        <time>2024-09-23T13:13:08.000Z</time>
      </trkpt>
      <trkpt lat="42.39053" lon="19.63804">
        <ele>910.51000976562</ele>
        <time>2024-09-23T13:13:11.000Z</time>
      </trkpt>
      <trkpt lat="42.3914" lon="19.6386">
        <ele>914.34997558594</ele>
        <time>2024-09-23T13:13:16.000Z</time>
      </trkpt>
      <trkpt lat="42.39156" lon="19.63872">
        <ele>914.83001708984</ele>
        <time>2024-09-23T13:13:17.000Z</time>
      </trkpt>
      <trkpt lat="42.39276" lon="19.63958">
        <ele>914.83001708984</ele>
        <time>2024-09-23T13:13:24.000Z</time>
      </trkpt>
      <trkpt lat="42.39315" lon="19.63985">
        <ele>915.30999755859</ele>
        <time>2024-09-23T13:13:26.000Z</time>
      </trkpt>
      <trkpt lat="42.39332" lon="19.63997">
        <ele>915.30999755859</ele>
        <time>2024-09-23T13:13:27.000Z</time>
      </trkpt>
      <trkpt lat="42.3934" lon="19.64004">
        <ele>915.78997802734</ele>
        <time>2024-09-23T13:13:28.000Z</time>
      </trkpt>
      <trkpt lat="42.39361" lon="19.64022">
        <ele>916.27001953125</ele>
        <time>2024-09-23T13:13:29.000Z</time>
      </trkpt>
      <trkpt lat="42.39369" lon="19.64028">
        <ele>916.27001953125</ele>
        <time>2024-09-23T13:13:30.000Z</time>
      </trkpt>
      <trkpt lat="42.39389" lon="19.6404">
        <ele>916.27001953125</ele>
        <time>2024-09-23T13:13:31.000Z</time>
      </trkpt>
      <trkpt lat="42.39398" lon="19.64047">
        <ele>916.27001953125</ele>
        <time>2024-09-23T13:13:32.000Z</time>
      </trkpt>
      <trkpt lat="42.3941" lon="19.64057">
        <ele>916.75</ele>
        <time>2024-09-23T13:13:33.000Z</time>
      </trkpt>
      <trkpt lat="42.39421" lon="19.64072">
        <ele>916.75</ele>
        <time>2024-09-23T13:13:34.000Z</time>
      </trkpt>
      <trkpt lat="42.3943" lon="19.6409">
        <ele>917.23999023438</ele>
        <time>2024-09-23T13:13:35.000Z</time>
      </trkpt>
      <trkpt lat="42.39437" lon="19.64103">
        <ele>917.23999023438</ele>
        <time>2024-09-23T13:13:36.000Z</time>
      </trkpt>
      <trkpt lat="42.39449" lon="19.64116">
        <ele>917.71997070312</ele>
        <time>2024-09-23T13:13:37.000Z</time>
      </trkpt>
      <trkpt lat="42.39467" lon="19.64134">
        <ele>918.67999267578</ele>
        <time>2024-09-23T13:13:38.000Z</time>
      </trkpt>
      <trkpt lat="42.39476" lon="19.64143">
        <ele>919.15997314453</ele>
        <time>2024-09-23T13:13:39.000Z</time>
      </trkpt>
      <trkpt lat="42.39502" lon="19.64172">
        <ele>920.59997558594</ele>
        <time>2024-09-23T13:13:41.000Z</time>
      </trkpt>
      <trkpt lat="42.39542" lon="19.64221">
        <ele>923</ele>
        <time>2024-09-23T13:13:44.000Z</time>
      </trkpt>
      <trkpt lat="42.39577" lon="19.64255">
        <ele>924.92999267578</ele>
        <time>2024-09-23T13:13:46.000Z</time>
      </trkpt>
      <trkpt lat="42.39579" lon="19.64258">
        <ele>924.92999267578</ele>
        <time>2024-09-23T13:13:47.000Z</time>
      </trkpt>
      <trkpt lat="42.3959" lon="19.6427">
        <ele>925.40997314453</ele>
        <time>2024-09-23T13:13:48.000Z</time>
      </trkpt>
      <trkpt lat="42.39631" lon="19.64326">
        <ele>927.80999755859</ele>
        <time>2024-09-23T13:13:51.000Z</time>
      </trkpt>
      <trkpt lat="42.39634" lon="19.6433">
        <ele>927.80999755859</ele>
        <time>2024-09-23T13:13:52.000Z</time>
      </trkpt>
      <trkpt lat="42.39661" lon="19.64362">
        <ele>928.28997802734</ele>
        <time>2024-09-23T13:13:54.000Z</time>
      </trkpt>
      <trkpt lat="42.39667" lon="19.6437">
        <ele>928.28997802734</ele>
        <time>2024-09-23T13:13:55.000Z</time>
      </trkpt>
      <trkpt lat="42.39674" lon="19.64379">
        <ele>928.77001953125</ele>
        <time>2024-09-23T13:13:56.000Z</time>
      </trkpt>
      <trkpt lat="42.39681" lon="19.6439">
        <ele>928.77001953125</ele>
        <time>2024-09-23T13:13:57.000Z</time>
      </trkpt>
      <trkpt lat="42.39688" lon="19.64403">
        <ele>929.25</ele>
        <time>2024-09-23T13:13:58.000Z</time>
      </trkpt>
      <trkpt lat="42.39696" lon="19.64426">
        <ele>928.28997802734</ele>
        <time>2024-09-23T13:13:59.000Z</time>
      </trkpt>
      <trkpt lat="42.39701" lon="19.64439">
        <ele>928.28997802734</ele>
        <time>2024-09-23T13:14:00.000Z</time>
      </trkpt>
      <trkpt lat="42.39708" lon="19.64457">
        <ele>927.33001708984</ele>
        <time>2024-09-23T13:14:01.000Z</time>
      </trkpt>
      <trkpt lat="42.39709" lon="19.64462">
        <ele>926.84997558594</ele>
        <time>2024-09-23T13:14:02.000Z</time>
      </trkpt>
      <trkpt lat="42.39713" lon="19.64477">
        <ele>926.36999511719</ele>
        <time>2024-09-23T13:14:03.000Z</time>
      </trkpt>
      <trkpt lat="42.39713" lon="19.64506">
        <ele>926.36999511719</ele>
        <time>2024-09-23T13:14:04.000Z</time>
      </trkpt>
      <trkpt lat="42.39713" lon="19.64513">
        <ele>926.36999511719</ele>
        <time>2024-09-23T13:14:05.000Z</time>
      </trkpt>
      <trkpt lat="42.39717" lon="19.6453">
        <ele>926.36999511719</ele>
        <time>2024-09-23T13:14:06.000Z</time>
      </trkpt>
      <trkpt lat="42.39722" lon="19.64548">
        <ele>926.36999511719</ele>
        <time>2024-09-23T13:14:07.000Z</time>
      </trkpt>
      <trkpt lat="42.39774" lon="19.64677">
        <ele>928.77001953125</ele>
        <time>2024-09-23T13:14:14.000Z</time>
      </trkpt>
      <trkpt lat="42.39776" lon="19.64683">
        <ele>928.77001953125</ele>
        <time>2024-09-23T13:14:15.000Z</time>
      </trkpt>
      <trkpt lat="42.39784" lon="19.64708">
        <ele>929.25</ele>
        <time>2024-09-23T13:14:16.000Z</time>
      </trkpt>
      <trkpt lat="42.39789" lon="19.64731">
        <ele>929.72998046875</ele>
        <time>2024-09-23T13:14:17.000Z</time>
      </trkpt>
      <trkpt lat="42.39792" lon="19.64744">
        <ele>930.21002197266</ele>
        <time>2024-09-23T13:14:18.000Z</time>
      </trkpt>
      <trkpt lat="42.39797" lon="19.64764">
        <ele>930.21002197266</ele>
        <time>2024-09-23T13:14:19.000Z</time>
      </trkpt>
      <trkpt lat="42.39805" lon="19.64784">
        <ele>930.69000244141</ele>
        <time>2024-09-23T13:14:20.000Z</time>
      </trkpt>
      <trkpt lat="42.39814" lon="19.64804">
        <ele>931.16998291016</ele>
        <time>2024-09-23T13:14:21.000Z</time>
      </trkpt>
      <trkpt lat="42.39823" lon="19.64821">
        <ele>932.14001464844</ele>
        <time>2024-09-23T13:14:22.000Z</time>
      </trkpt>
      <trkpt lat="42.39825" lon="19.64825">
        <ele>932.14001464844</ele>
        <time>2024-09-23T13:14:23.000Z</time>
      </trkpt>
      <trkpt lat="42.3983" lon="19.64831">
        <ele>932.61999511719</ele>
        <time>2024-09-23T13:14:24.000Z</time>
      </trkpt>
      <trkpt lat="42.39836" lon="19.64835">
        <ele>933.58001708984</ele>
        <time>2024-09-23T13:14:25.000Z</time>
      </trkpt>
      <trkpt lat="42.3985" lon="19.64833">
        <ele>935.02001953125</ele>
        <time>2024-09-23T13:14:28.000Z</time>
      </trkpt>
      <trkpt lat="42.39864" lon="19.6483">
        <ele>936.46002197266</ele>
        <time>2024-09-23T13:14:30.000Z</time>
      </trkpt>
      <trkpt lat="42.39873" lon="19.64828">
        <ele>936.94000244141</ele>
        <time>2024-09-23T13:14:31.000Z</time>
      </trkpt>
      <trkpt lat="42.39885" lon="19.64826">
        <ele>937.90002441406</ele>
        <time>2024-09-23T13:14:32.000Z</time>
      </trkpt>
      <trkpt lat="42.39902" lon="19.64824">
        <ele>939.34997558594</ele>
        <time>2024-09-23T13:14:34.000Z</time>
      </trkpt>
      <trkpt lat="42.39923" lon="19.6482">
        <ele>940.78997802734</ele>
        <time>2024-09-23T13:14:36.000Z</time>
      </trkpt>
      <trkpt lat="42.39929" lon="19.64819">
        <ele>941.27001953125</ele>
        <time>2024-09-23T13:14:37.000Z</time>
      </trkpt>
      <trkpt lat="42.39935" lon="19.6482">
        <ele>941.75</ele>
        <time>2024-09-23T13:14:38.000Z</time>
      </trkpt>
      <trkpt lat="42.39942" lon="19.64822">
        <ele>942.22998046875</ele>
        <time>2024-09-23T13:14:39.000Z</time>
      </trkpt>
      <trkpt lat="42.39948" lon="19.64829">
        <ele>943.19000244141</ele>
        <time>2024-09-23T13:14:40.000Z</time>
      </trkpt>
      <trkpt lat="42.39953" lon="19.64836">
        <ele>943.66998291016</ele>
        <time>2024-09-23T13:14:41.000Z</time>
      </trkpt>
      <trkpt lat="42.39956" lon="19.64847">
        <ele>944.63000488281</ele>
        <time>2024-09-23T13:14:42.000Z</time>
      </trkpt>
      <trkpt lat="42.39958" lon="19.64859">
        <ele>945.10998535156</ele>
        <time>2024-09-23T13:14:43.000Z</time>
      </trkpt>
      <trkpt lat="42.3996" lon="19.64889">
        <ele>946.07000732422</ele>
        <time>2024-09-23T13:14:45.000Z</time>
      </trkpt>
      <trkpt lat="42.39967" lon="19.64942">
        <ele>947.52001953125</ele>
        <time>2024-09-23T13:14:47.000Z</time>
      </trkpt>
      <trkpt lat="42.39968" lon="19.64946">
        <ele>947.52001953125</ele>
        <time>2024-09-23T13:14:48.000Z</time>
      </trkpt>
      <trkpt lat="42.3999" lon="19.65034">
        <ele>950.40002441406</ele>
        <time>2024-09-23T13:14:52.000Z</time>
      </trkpt>
      <trkpt lat="42.39999" lon="19.65064">
        <ele>951.35998535156</ele>
        <time>2024-09-23T13:14:54.000Z</time>
      </trkpt>
      <trkpt lat="42.4" lon="19.65068">
        <ele>951.35998535156</ele>
        <time>2024-09-23T13:14:55.000Z</time>
      </trkpt>
      <trkpt lat="42.4001" lon="19.65094">
        <ele>952.32000732422</ele>
        <time>2024-09-23T13:14:57.000Z</time>
      </trkpt>
      <trkpt lat="42.40026" lon="19.65147">
        <ele>953.77001953125</ele>
        <time>2024-09-23T13:15:01.000Z</time>
      </trkpt>
      <trkpt lat="42.40036" lon="19.65178">
        <ele>955.21002197266</ele>
        <time>2024-09-23T13:15:06.000Z</time>
      </trkpt>
      <trkpt lat="42.40039" lon="19.65184">
        <ele>955.69000244141</ele>
        <time>2024-09-23T13:15:07.000Z</time>
      </trkpt>
      <trkpt lat="42.40041" lon="19.65189">
        <ele>955.69000244141</ele>
        <time>2024-09-23T13:15:08.000Z</time>
      </trkpt>
      <trkpt lat="42.40045" lon="19.65193">
        <ele>956.16998291016</ele>
        <time>2024-09-23T13:15:09.000Z</time>
      </trkpt>
      <trkpt lat="42.40049" lon="19.65199">
        <ele>956.65002441406</ele>
        <time>2024-09-23T13:15:10.000Z</time>
      </trkpt>
      <trkpt lat="42.40051" lon="19.65201">
        <ele>956.65002441406</ele>
        <time>2024-09-23T13:15:11.000Z</time>
      </trkpt>
      <trkpt lat="42.40056" lon="19.65208">
        <ele>957.60998535156</ele>
        <time>2024-09-23T13:15:12.000Z</time>
      </trkpt>
      <trkpt lat="42.40059" lon="19.65211">
        <ele>957.60998535156</ele>
        <time>2024-09-23T13:15:13.000Z</time>
      </trkpt>
      <trkpt lat="42.40064" lon="19.65218">
        <ele>958.09002685547</ele>
        <time>2024-09-23T13:15:14.000Z</time>
      </trkpt>
      <trkpt lat="42.40076" lon="19.65243">
        <ele>959.53002929688</ele>
        <time>2024-09-23T13:15:17.000Z</time>
      </trkpt>
      <trkpt lat="42.40081" lon="19.65254">
        <ele>960.01000976562</ele>
        <time>2024-09-23T13:15:18.000Z</time>
      </trkpt>
      <trkpt lat="42.4009" lon="19.65276">
        <ele>961.46002197266</ele>
        <time>2024-09-23T13:15:20.000Z</time>
      </trkpt>
      <trkpt lat="42.40091" lon="19.65278">
        <ele>961.46002197266</ele>
        <time>2024-09-23T13:15:21.000Z</time>
      </trkpt>
      <trkpt lat="42.40094" lon="19.65289">
        <ele>961.94000244141</ele>
        <time>2024-09-23T13:15:22.000Z</time>
      </trkpt>
      <trkpt lat="42.40096" lon="19.65301">
        <ele>962.90002441406</ele>
        <time>2024-09-23T13:15:23.000Z</time>
      </trkpt>
      <trkpt lat="42.40107" lon="19.65433">
        <ele>971.54998779297</ele>
        <time>2024-09-23T13:15:32.000Z</time>
      </trkpt>
      <trkpt lat="42.40107" lon="19.65441">
        <ele>971.54998779297</ele>
        <time>2024-09-23T13:15:33.000Z</time>
      </trkpt>
      <trkpt lat="42.40106" lon="19.65452">
        <ele>972.51000976562</ele>
        <time>2024-09-23T13:15:34.000Z</time>
      </trkpt>
      <trkpt lat="42.40105" lon="19.65462">
        <ele>972.98999023438</ele>
        <time>2024-09-23T13:15:35.000Z</time>
      </trkpt>
      <trkpt lat="42.40103" lon="19.65471">
        <ele>973.46997070312</ele>
        <time>2024-09-23T13:15:36.000Z</time>
      </trkpt>
      <trkpt lat="42.40101" lon="19.65478">
        <ele>973.46997070312</ele>
        <time>2024-09-23T13:15:37.000Z</time>
      </trkpt>
      <trkpt lat="42.40096" lon="19.65487">
        <ele>973.95001220703</ele>
        <time>2024-09-23T13:15:38.000Z</time>
      </trkpt>
      <trkpt lat="42.40091" lon="19.65496">
        <ele>973.95001220703</ele>
        <time>2024-09-23T13:15:39.000Z</time>
      </trkpt>
      <trkpt lat="42.40088" lon="19.65504">
        <ele>974.42999267578</ele>
        <time>2024-09-23T13:15:40.000Z</time>
      </trkpt>
      <trkpt lat="42.40082" lon="19.65516">
        <ele>974.42999267578</ele>
        <time>2024-09-23T13:15:42.000Z</time>
      </trkpt>
      <trkpt lat="42.4008" lon="19.65519">
        <ele>974.42999267578</ele>
        <time>2024-09-23T13:15:43.000Z</time>
      </trkpt>
      <trkpt lat="42.40077" lon="19.65527">
        <ele>974.42999267578</ele>
        <time>2024-09-23T13:15:44.000Z</time>
      </trkpt>
      <trkpt lat="42.40076" lon="19.65533">
        <ele>973.95001220703</ele>
        <time>2024-09-23T13:15:45.000Z</time>
      </trkpt>
      <trkpt lat="42.40076" lon="19.65539">
        <ele>973.95001220703</ele>
        <time>2024-09-23T13:15:46.000Z</time>
      </trkpt>
      <trkpt lat="42.40076" lon="19.65545">
        <ele>973.95001220703</ele>
        <time>2024-09-23T13:15:47.000Z</time>
      </trkpt>
      <trkpt lat="42.40079" lon="19.65557">
        <ele>973.46997070312</ele>
        <time>2024-09-23T13:15:48.000Z</time>
      </trkpt>
      <trkpt lat="42.40079" lon="19.65559">
        <ele>973.46997070312</ele>
        <time>2024-09-23T13:15:49.000Z</time>
      </trkpt>
      <trkpt lat="42.4008" lon="19.65566">
        <ele>973.46997070312</ele>
        <time>2024-09-23T13:15:50.000Z</time>
      </trkpt>
      <trkpt lat="42.4008" lon="19.65574">
        <ele>973.46997070312</ele>
        <time>2024-09-23T13:15:51.000Z</time>
      </trkpt>
      <trkpt lat="42.40077" lon="19.65582">
        <ele>972.98999023438</ele>
        <time>2024-09-23T13:15:52.000Z</time>
      </trkpt>
      <trkpt lat="42.40072" lon="19.65592">
        <ele>973.46997070312</ele>
        <time>2024-09-23T13:15:53.000Z</time>
      </trkpt>
      <trkpt lat="42.40067" lon="19.65601">
        <ele>973.46997070312</ele>
        <time>2024-09-23T13:15:54.000Z</time>
      </trkpt>
      <trkpt lat="42.40064" lon="19.65611">
        <ele>972.98999023438</ele>
        <time>2024-09-23T13:15:55.000Z</time>
      </trkpt>
      <trkpt lat="42.40061" lon="19.65624">
        <ele>972.98999023438</ele>
        <time>2024-09-23T13:15:56.000Z</time>
      </trkpt>
      <trkpt lat="42.40048" lon="19.65727">
        <ele>972.98999023438</ele>
        <time>2024-09-23T13:16:03.000Z</time>
      </trkpt>
      <trkpt lat="42.40037" lon="19.65815">
        <ele>975.39001464844</ele>
        <time>2024-09-23T13:16:10.000Z</time>
      </trkpt>
      <trkpt lat="42.40036" lon="19.65822">
        <ele>975.88000488281</ele>
        <time>2024-09-23T13:16:11.000Z</time>
      </trkpt>
      <trkpt lat="42.40036" lon="19.65827">
        <ele>975.88000488281</ele>
        <time>2024-09-23T13:16:12.000Z</time>
      </trkpt>
      <trkpt lat="42.40037" lon="19.65836">
        <ele>975.88000488281</ele>
        <time>2024-09-23T13:16:13.000Z</time>
      </trkpt>
      <trkpt lat="42.40041" lon="19.65844">
        <ele>976.35998535156</ele>
        <time>2024-09-23T13:16:14.000Z</time>
      </trkpt>
      <trkpt lat="42.40049" lon="19.65853">
        <ele>976.84002685547</ele>
        <time>2024-09-23T13:16:15.000Z</time>
      </trkpt>
      <trkpt lat="42.40057" lon="19.65861">
        <ele>976.84002685547</ele>
        <time>2024-09-23T13:16:16.000Z</time>
      </trkpt>
      <trkpt lat="42.40061" lon="19.65866">
        <ele>977.32000732422</ele>
        <time>2024-09-23T13:16:17.000Z</time>
      </trkpt>
      <trkpt lat="42.40067" lon="19.65875">
        <ele>977.32000732422</ele>
        <time>2024-09-23T13:16:18.000Z</time>
      </trkpt>
      <trkpt lat="42.40071" lon="19.65884">
        <ele>977.79998779297</ele>
        <time>2024-09-23T13:16:19.000Z</time>
      </trkpt>
      <trkpt lat="42.40073" lon="19.65895">
        <ele>978.28002929688</ele>
        <time>2024-09-23T13:16:20.000Z</time>
      </trkpt>
      <trkpt lat="42.40072" lon="19.65906">
        <ele>978.76000976562</ele>
        <time>2024-09-23T13:16:21.000Z</time>
      </trkpt>
      <trkpt lat="42.4007" lon="19.65915">
        <ele>979.71997070312</ele>
        <time>2024-09-23T13:16:22.000Z</time>
      </trkpt>
      <trkpt lat="42.40068" lon="19.65925">
        <ele>980.67999267578</ele>
        <time>2024-09-23T13:16:23.000Z</time>
      </trkpt>
      <trkpt lat="42.40067" lon="19.65934">
        <ele>981.64001464844</ele>
        <time>2024-09-23T13:16:24.000Z</time>
      </trkpt>
      <trkpt lat="42.40067" lon="19.65943">
        <ele>982.11999511719</ele>
        <time>2024-09-23T13:16:25.000Z</time>
      </trkpt>
      <trkpt lat="42.40069" lon="19.65953">
        <ele>983.09002685547</ele>
        <time>2024-09-23T13:16:26.000Z</time>
      </trkpt>
      <trkpt lat="42.4007" lon="19.65957">
        <ele>983.57000732422</ele>
        <time>2024-09-23T13:16:27.000Z</time>
      </trkpt>
      <trkpt lat="42.40071" lon="19.65967">
        <ele>985.01000976562</ele>
        <time>2024-09-23T13:16:29.000Z</time>
      </trkpt>
      <trkpt lat="42.40071" lon="19.65975">
        <ele>985.96997070312</ele>
        <time>2024-09-23T13:16:30.000Z</time>
      </trkpt>
      <trkpt lat="42.40071" lon="19.65984">
        <ele>986.45001220703</ele>
        <time>2024-09-23T13:16:31.000Z</time>
      </trkpt>
      <trkpt lat="42.40072" lon="19.65996">
        <ele>987.89001464844</ele>
        <time>2024-09-23T13:16:32.000Z</time>
      </trkpt>
      <trkpt lat="42.40073" lon="19.66008">
        <ele>988.84997558594</ele>
        <time>2024-09-23T13:16:33.000Z</time>
      </trkpt>
      <trkpt lat="42.40072" lon="19.66014">
        <ele>989.33001708984</ele>
        <time>2024-09-23T13:16:34.000Z</time>
      </trkpt>
      <trkpt lat="42.4007" lon="19.66109">
        <ele>994.14001464844</ele>
        <time>2024-09-23T13:16:41.000Z</time>
      </trkpt>
      <trkpt lat="42.40073" lon="19.662">
        <ele>998.46997070312</ele>
        <time>2024-09-23T13:16:47.000Z</time>
      </trkpt>
      <trkpt lat="42.40074" lon="19.66204">
        <ele>998.95001220703</ele>
        <time>2024-09-23T13:16:48.000Z</time>
      </trkpt>
      <trkpt lat="42.40075" lon="19.66216">
        <ele>999.90997314453</ele>
        <time>2024-09-23T13:16:49.000Z</time>
      </trkpt>
      <trkpt lat="42.40078" lon="19.66229">
        <ele>1000.8699951172</ele>
        <time>2024-09-23T13:16:50.000Z</time>
      </trkpt>
      <trkpt lat="42.40078" lon="19.66241">
        <ele>1001.3499755859</ele>
        <time>2024-09-23T13:16:51.000Z</time>
      </trkpt>
      <trkpt lat="42.40076" lon="19.66254">
        <ele>1001.8300170898</ele>
        <time>2024-09-23T13:16:52.000Z</time>
      </trkpt>
      <trkpt lat="42.40068" lon="19.66281">
        <ele>1003.75</ele>
        <time>2024-09-23T13:16:54.000Z</time>
      </trkpt>
      <trkpt lat="42.40066" lon="19.66287">
        <ele>1004.2299804688</ele>
        <time>2024-09-23T13:16:55.000Z</time>
      </trkpt>
      <trkpt lat="42.40066" lon="19.66303">
        <ele>1005.6799926758</ele>
        <time>2024-09-23T13:16:59.000Z</time>
      </trkpt>
      <trkpt lat="42.40067" lon="19.6631">
        <ele>1005.6799926758</ele>
        <time>2024-09-23T13:17:00.000Z</time>
      </trkpt>
      <trkpt lat="42.40068" lon="19.66329">
        <ele>1006.6400146484</ele>
        <time>2024-09-23T13:17:01.000Z</time>
      </trkpt>
      <trkpt lat="42.40068" lon="19.66336">
        <ele>1006.6400146484</ele>
        <time>2024-09-23T13:17:02.000Z</time>
      </trkpt>
      <trkpt lat="42.40068" lon="19.66349">
        <ele>1007.1199951172</ele>
        <time>2024-09-23T13:17:03.000Z</time>
      </trkpt>
      <trkpt lat="42.40064" lon="19.66394">
        <ele>1008.0800170898</ele>
        <time>2024-09-23T13:17:05.000Z</time>
      </trkpt>
      <trkpt lat="42.40063" lon="19.66473">
        <ele>1010</ele>
        <time>2024-09-23T13:17:09.000Z</time>
      </trkpt>
      <trkpt lat="42.40061" lon="19.665">
        <ele>1010.9600219727</ele>
        <time>2024-09-23T13:17:10.000Z</time>
      </trkpt>
      <trkpt lat="42.40033" lon="19.66653">
        <ele>1015.2899780273</ele>
        <time>2024-09-23T13:17:15.000Z</time>
      </trkpt>
      <trkpt lat="42.40024" lon="19.66704">
        <ele>1017.6900024414</ele>
        <time>2024-09-23T13:17:18.000Z</time>
      </trkpt>
      <trkpt lat="42.4002" lon="19.66731">
        <ele>1019.1300048828</ele>
        <time>2024-09-23T13:17:19.000Z</time>
      </trkpt>
      <trkpt lat="42.4002" lon="19.66736">
        <ele>1019.6199951172</ele>
        <time>2024-09-23T13:17:20.000Z</time>
      </trkpt>
      <trkpt lat="42.40019" lon="19.66754">
        <ele>1020.5800170898</ele>
        <time>2024-09-23T13:17:21.000Z</time>
      </trkpt>
      <trkpt lat="42.4002" lon="19.66771">
        <ele>1021.5399780273</ele>
        <time>2024-09-23T13:17:22.000Z</time>
      </trkpt>
      <trkpt lat="42.40032" lon="19.6682">
        <ele>1025.3800048828</ele>
        <time>2024-09-23T13:17:24.000Z</time>
      </trkpt>
      <trkpt lat="42.40035" lon="19.66831">
        <ele>1026.3399658203</ele>
        <time>2024-09-23T13:17:25.000Z</time>
      </trkpt>
      <trkpt lat="42.40039" lon="19.66845">
        <ele>1027.3100585938</ele>
        <time>2024-09-23T13:17:26.000Z</time>
      </trkpt>
      <trkpt lat="42.40041" lon="19.66865">
        <ele>1029.2299804688</ele>
        <time>2024-09-23T13:17:27.000Z</time>
      </trkpt>
      <trkpt lat="42.4004" lon="19.66891">
        <ele>1031.6300048828</ele>
        <time>2024-09-23T13:17:28.000Z</time>
      </trkpt>
      <trkpt lat="42.40039" lon="19.66908">
        <ele>1033.5500488281</ele>
        <time>2024-09-23T13:17:29.000Z</time>
      </trkpt>
      <trkpt lat="42.40032" lon="19.66949">
        <ele>1037.4000244141</ele>
        <time>2024-09-23T13:17:30.000Z</time>
      </trkpt>
      <trkpt lat="42.40031" lon="19.66954">
        <ele>1037.8800048828</ele>
        <time>2024-09-23T13:17:31.000Z</time>
      </trkpt>
      <trkpt lat="42.4003" lon="19.66977">
        <ele>1039.8000488281</ele>
        <time>2024-09-23T13:17:32.000Z</time>
      </trkpt>
      <trkpt lat="42.40032" lon="19.67003">
        <ele>1042.2099609375</ele>
        <time>2024-09-23T13:17:33.000Z</time>
      </trkpt>
      <trkpt lat="42.40035" lon="19.67027">
        <ele>1044.6099853516</ele>
        <time>2024-09-23T13:17:34.000Z</time>
      </trkpt>
      <trkpt lat="42.40036" lon="19.6705">
        <ele>1046.0500488281</ele>
        <time>2024-09-23T13:17:35.000Z</time>
      </trkpt>
      <trkpt lat="42.40035" lon="19.67075">
        <ele>1047.9699707031</ele>
        <time>2024-09-23T13:17:36.000Z</time>
      </trkpt>
      <trkpt lat="42.39998" lon="19.67279">
        <ele>1059.9899902344</ele>
        <time>2024-09-23T13:17:43.000Z</time>
      </trkpt>
      <trkpt lat="42.39988" lon="19.67325">
        <ele>1061.4300537109</ele>
        <time>2024-09-23T13:17:45.000Z</time>
      </trkpt>
      <trkpt lat="42.39953" lon="19.67511">
        <ele>1063.8399658203</ele>
        <time>2024-09-23T13:17:53.000Z</time>
      </trkpt>
      <trkpt lat="42.3995" lon="19.67605">
        <ele>1068.1600341797</ele>
        <time>2024-09-23T13:17:59.000Z</time>
      </trkpt>
      <trkpt lat="42.39949" lon="19.67615">
        <ele>1069.1199951172</ele>
        <time>2024-09-23T13:18:00.000Z</time>
      </trkpt>
      <trkpt lat="42.39947" lon="19.67627">
        <ele>1069.5999755859</ele>
        <time>2024-09-23T13:18:01.000Z</time>
      </trkpt>
      <trkpt lat="42.39944" lon="19.67639">
        <ele>1070.0799560547</ele>
        <time>2024-09-23T13:18:02.000Z</time>
      </trkpt>
      <trkpt lat="42.39933" lon="19.67667">
        <ele>1071.0500488281</ele>
        <time>2024-09-23T13:18:04.000Z</time>
      </trkpt>
      <trkpt lat="42.3993" lon="19.67677">
        <ele>1071.5300292969</ele>
        <time>2024-09-23T13:18:05.000Z</time>
      </trkpt>
      <trkpt lat="42.39927" lon="19.67691">
        <ele>1072.0100097656</ele>
        <time>2024-09-23T13:18:06.000Z</time>
      </trkpt>
      <trkpt lat="42.39915" lon="19.67807">
        <ele>1077.2900390625</ele>
        <time>2024-09-23T13:18:14.000Z</time>
      </trkpt>
      <trkpt lat="42.39914" lon="19.6781">
        <ele>1077.7800292969</ele>
        <time>2024-09-23T13:18:15.000Z</time>
      </trkpt>
      <trkpt lat="42.39914" lon="19.6782">
        <ele>1078.2600097656</ele>
        <time>2024-09-23T13:18:16.000Z</time>
      </trkpt>
      <trkpt lat="42.39915" lon="19.67831">
        <ele>1078.7399902344</ele>
        <time>2024-09-23T13:18:17.000Z</time>
      </trkpt>
      <trkpt lat="42.39917" lon="19.67845">
        <ele>1079.2199707031</ele>
        <time>2024-09-23T13:18:18.000Z</time>
      </trkpt>
      <trkpt lat="42.39924" lon="19.67874">
        <ele>1079.6999511719</ele>
        <time>2024-09-23T13:18:20.000Z</time>
      </trkpt>
      <trkpt lat="42.39925" lon="19.67877">
        <ele>1079.6999511719</ele>
        <time>2024-09-23T13:18:21.000Z</time>
      </trkpt>
      <trkpt lat="42.39926" lon="19.67887">
        <ele>1079.6999511719</ele>
        <time>2024-09-23T13:18:22.000Z</time>
      </trkpt>
      <trkpt lat="42.39926" lon="19.67899">
        <ele>1080.1800537109</ele>
        <time>2024-09-23T13:18:23.000Z</time>
      </trkpt>
      <trkpt lat="42.39924" lon="19.6791">
        <ele>1080.1800537109</ele>
        <time>2024-09-23T13:18:24.000Z</time>
      </trkpt>
      <trkpt lat="42.3992" lon="19.6792">
        <ele>1081.1400146484</ele>
        <time>2024-09-23T13:18:25.000Z</time>
      </trkpt>
      <trkpt lat="42.39913" lon="19.67928">
        <ele>1081.1400146484</ele>
        <time>2024-09-23T13:18:26.000Z</time>
      </trkpt>
      <trkpt lat="42.39905" lon="19.67932">
        <ele>1082.0999755859</ele>
        <time>2024-09-23T13:18:27.000Z</time>
      </trkpt>
      <trkpt lat="42.39899" lon="19.67935">
        <ele>1083.0600585938</ele>
        <time>2024-09-23T13:18:28.000Z</time>
      </trkpt>
      <trkpt lat="42.39892" lon="19.67937">
        <ele>1084.0200195312</ele>
        <time>2024-09-23T13:18:29.000Z</time>
      </trkpt>
      <trkpt lat="42.39886" lon="19.67939">
        <ele>1084.9899902344</ele>
        <time>2024-09-23T13:18:30.000Z</time>
      </trkpt>
      <trkpt lat="42.39882" lon="19.67943">
        <ele>1085.4699707031</ele>
        <time>2024-09-23T13:18:31.000Z</time>
      </trkpt>
      <trkpt lat="42.39879" lon="19.67948">
        <ele>1085.9499511719</ele>
        <time>2024-09-23T13:18:32.000Z</time>
      </trkpt>
      <trkpt lat="42.39876" lon="19.67956">
        <ele>1085.9499511719</ele>
        <time>2024-09-23T13:18:33.000Z</time>
      </trkpt>
      <trkpt lat="42.39874" lon="19.67965">
        <ele>1085.9499511719</ele>
        <time>2024-09-23T13:18:34.000Z</time>
      </trkpt>
      <trkpt lat="42.39869" lon="19.67993">
        <ele>1084.9899902344</ele>
        <time>2024-09-23T13:18:36.000Z</time>
      </trkpt>
      <trkpt lat="42.39868" lon="19.67997">
        <ele>1084.9899902344</ele>
        <time>2024-09-23T13:18:37.000Z</time>
      </trkpt>
      <trkpt lat="42.39865" lon="19.68007">
        <ele>1084.9899902344</ele>
        <time>2024-09-23T13:18:38.000Z</time>
      </trkpt>
      <trkpt lat="42.3986" lon="19.68021">
        <ele>1084.9899902344</ele>
        <time>2024-09-23T13:18:39.000Z</time>
      </trkpt>
      <trkpt lat="42.39853" lon="19.68035">
        <ele>1084.5</ele>
        <time>2024-09-23T13:18:40.000Z</time>
      </trkpt>
      <trkpt lat="42.39852" lon="19.68038">
        <ele>1084.5</ele>
        <time>2024-09-23T13:18:41.000Z</time>
      </trkpt>
      <trkpt lat="42.39849" lon="19.68046">
        <ele>1084.5</ele>
        <time>2024-09-23T13:18:42.000Z</time>
      </trkpt>
      <trkpt lat="42.39846" lon="19.68058">
        <ele>1084.5</ele>
        <time>2024-09-23T13:18:43.000Z</time>
      </trkpt>
      <trkpt lat="42.3984" lon="19.68107">
        <ele>1086.4300537109</ele>
        <time>2024-09-23T13:18:48.000Z</time>
      </trkpt>
      <trkpt lat="42.3984" lon="19.68117">
        <ele>1087.3900146484</ele>
        <time>2024-09-23T13:18:49.000Z</time>
      </trkpt>
      <trkpt lat="42.3984" lon="19.68127">
        <ele>1088.8299560547</ele>
        <time>2024-09-23T13:18:50.000Z</time>
      </trkpt>
      <trkpt lat="42.39842" lon="19.68137">
        <ele>1089.7900390625</ele>
        <time>2024-09-23T13:18:51.000Z</time>
      </trkpt>
      <trkpt lat="42.39847" lon="19.68152">
        <ele>1090.2700195312</ele>
        <time>2024-09-23T13:18:52.000Z</time>
      </trkpt>
      <trkpt lat="42.39849" lon="19.68161">
        <ele>1090.2700195312</ele>
        <time>2024-09-23T13:18:53.000Z</time>
      </trkpt>
      <trkpt lat="42.39852" lon="19.68179">
        <ele>1091.2299804688</ele>
        <time>2024-09-23T13:18:54.000Z</time>
      </trkpt>
      <trkpt lat="42.39865" lon="19.6824">
        <ele>1095.5600585938</ele>
        <time>2024-09-23T13:18:57.000Z</time>
      </trkpt>
      <trkpt lat="42.39865" lon="19.68243">
        <ele>1096.0400390625</ele>
        <time>2024-09-23T13:18:58.000Z</time>
      </trkpt>
      <trkpt lat="42.39866" lon="19.68255">
        <ele>1096.5200195312</ele>
        <time>2024-09-23T13:18:59.000Z</time>
      </trkpt>
      <trkpt lat="42.39864" lon="19.68264">
        <ele>1097.4799804688</ele>
        <time>2024-09-23T13:19:00.000Z</time>
      </trkpt>
      <trkpt lat="42.39859" lon="19.68269">
        <ele>1097.9599609375</ele>
        <time>2024-09-23T13:19:01.000Z</time>
      </trkpt>
      <trkpt lat="42.39852" lon="19.68269">
        <ele>1098.4399414062</ele>
        <time>2024-09-23T13:19:02.000Z</time>
      </trkpt>
      <trkpt lat="42.39843" lon="19.68265">
        <ele>1098.4399414062</ele>
        <time>2024-09-23T13:19:03.000Z</time>
      </trkpt>
      <trkpt lat="42.39832" lon="19.68258">
        <ele>1098.9200439453</ele>
        <time>2024-09-23T13:19:04.000Z</time>
      </trkpt>
      <trkpt lat="42.39814" lon="19.68249">
        <ele>1100.3699951172</ele>
        <time>2024-09-23T13:19:05.000Z</time>
      </trkpt>
      <trkpt lat="42.3981" lon="19.68247">
        <ele>1100.8499755859</ele>
        <time>2024-09-23T13:19:06.000Z</time>
      </trkpt>
      <trkpt lat="42.39798" lon="19.6824">
        <ele>1101.8100585938</ele>
        <time>2024-09-23T13:19:07.000Z</time>
      </trkpt>
      <trkpt lat="42.39791" lon="19.68238">
        <ele>1102.2900390625</ele>
        <time>2024-09-23T13:19:08.000Z</time>
      </trkpt>
      <trkpt lat="42.39783" lon="19.6824">
        <ele>1103.25</ele>
        <time>2024-09-23T13:19:09.000Z</time>
      </trkpt>
      <trkpt lat="42.39776" lon="19.68247">
        <ele>1104.6899414062</ele>
        <time>2024-09-23T13:19:10.000Z</time>
      </trkpt>
      <trkpt lat="42.39763" lon="19.68267">
        <ele>1106.1300048828</ele>
        <time>2024-09-23T13:19:11.000Z</time>
      </trkpt>
      <trkpt lat="42.39762" lon="19.6827">
        <ele>1106.1300048828</ele>
        <time>2024-09-23T13:19:12.000Z</time>
      </trkpt>
      <trkpt lat="42.39754" lon="19.68284">
        <ele>1106.6099853516</ele>
        <time>2024-09-23T13:19:13.000Z</time>
      </trkpt>
      <trkpt lat="42.39748" lon="19.68297">
        <ele>1107.0999755859</ele>
        <time>2024-09-23T13:19:14.000Z</time>
      </trkpt>
      <trkpt lat="42.39744" lon="19.68309">
        <ele>1107.5799560547</ele>
        <time>2024-09-23T13:19:15.000Z</time>
      </trkpt>
      <trkpt lat="42.39736" lon="19.68328">
        <ele>1108.5400390625</ele>
        <time>2024-09-23T13:19:16.000Z</time>
      </trkpt>
      <trkpt lat="42.39732" lon="19.6834">
        <ele>1109.0200195312</ele>
        <time>2024-09-23T13:19:17.000Z</time>
      </trkpt>
      <trkpt lat="42.39729" lon="19.68351">
        <ele>1109.5</ele>
        <time>2024-09-23T13:19:18.000Z</time>
      </trkpt>
      <trkpt lat="42.39724" lon="19.6837">
        <ele>1110.4599609375</ele>
        <time>2024-09-23T13:19:19.000Z</time>
      </trkpt>
      <trkpt lat="42.39712" lon="19.68426">
        <ele>1112.8599853516</ele>
        <time>2024-09-23T13:19:22.000Z</time>
      </trkpt>
      <trkpt lat="42.39698" lon="19.6851">
        <ele>1115.2700195312</ele>
        <time>2024-09-23T13:19:25.000Z</time>
      </trkpt>
      <trkpt lat="42.39691" lon="19.68542">
        <ele>1116.2299804688</ele>
        <time>2024-09-23T13:19:26.000Z</time>
      </trkpt>
      <trkpt lat="42.39688" lon="19.68556">
        <ele>1117.1899414062</ele>
        <time>2024-09-23T13:19:27.000Z</time>
      </trkpt>
      <trkpt lat="42.39685" lon="19.6858">
        <ele>1118.6300048828</ele>
        <time>2024-09-23T13:19:28.000Z</time>
      </trkpt>
      <trkpt lat="42.39685" lon="19.68601">
        <ele>1120.0699462891</ele>
        <time>2024-09-23T13:19:29.000Z</time>
      </trkpt>
      <trkpt lat="42.39687" lon="19.68623">
        <ele>1122</ele>
        <time>2024-09-23T13:19:30.000Z</time>
      </trkpt>
      <trkpt lat="42.39693" lon="19.68645">
        <ele>1124.4000244141</ele>
        <time>2024-09-23T13:19:31.000Z</time>
      </trkpt>
      <trkpt lat="42.39713" lon="19.68693">
        <ele>1128.7299804688</ele>
        <time>2024-09-23T13:19:33.000Z</time>
      </trkpt>
      <trkpt lat="42.39727" lon="19.68734">
        <ele>1133.0500488281</ele>
        <time>2024-09-23T13:19:35.000Z</time>
      </trkpt>
      <trkpt lat="42.39732" lon="19.68753">
        <ele>1134.9699707031</ele>
        <time>2024-09-23T13:19:36.000Z</time>
      </trkpt>
      <trkpt lat="42.39733" lon="19.68771">
        <ele>1136.4200439453</ele>
        <time>2024-09-23T13:19:37.000Z</time>
      </trkpt>
      <trkpt lat="42.3973" lon="19.68794">
        <ele>1138.3399658203</ele>
        <time>2024-09-23T13:19:38.000Z</time>
      </trkpt>
      <trkpt lat="42.39711" lon="19.689">
        <ele>1143.1400146484</ele>
        <time>2024-09-23T13:19:43.000Z</time>
      </trkpt>
      <trkpt lat="42.39707" lon="19.68915">
        <ele>1144.1099853516</ele>
        <time>2024-09-23T13:19:44.000Z</time>
      </trkpt>
      <trkpt lat="42.397" lon="19.6893">
        <ele>1145.5500488281</ele>
        <time>2024-09-23T13:19:45.000Z</time>
      </trkpt>
      <trkpt lat="42.39692" lon="19.68948">
        <ele>1146.9899902344</ele>
        <time>2024-09-23T13:19:46.000Z</time>
      </trkpt>
      <trkpt lat="42.39686" lon="19.68966">
        <ele>1147.4699707031</ele>
        <time>2024-09-23T13:19:47.000Z</time>
      </trkpt>
      <trkpt lat="42.39683" lon="19.68985">
        <ele>1147.4699707031</ele>
        <time>2024-09-23T13:19:48.000Z</time>
      </trkpt>
      <trkpt lat="42.39683" lon="19.69007">
        <ele>1147.9499511719</ele>
        <time>2024-09-23T13:19:49.000Z</time>
      </trkpt>
      <trkpt lat="42.39685" lon="19.69029">
        <ele>1148.9100341797</ele>
        <time>2024-09-23T13:19:50.000Z</time>
      </trkpt>
      <trkpt lat="42.39688" lon="19.69053">
        <ele>1149.8699951172</ele>
        <time>2024-09-23T13:19:51.000Z</time>
      </trkpt>
      <trkpt lat="42.39688" lon="19.69065">
        <ele>1150.8399658203</ele>
        <time>2024-09-23T13:19:52.000Z</time>
      </trkpt>
      <trkpt lat="42.39687" lon="19.69084">
        <ele>1152.7600097656</ele>
        <time>2024-09-23T13:19:53.000Z</time>
      </trkpt>
      <trkpt lat="42.39674" lon="19.69147">
        <ele>1156.5999755859</ele>
        <time>2024-09-23T13:19:56.000Z</time>
      </trkpt>
      <trkpt lat="42.3967" lon="19.69158">
        <ele>1156.1199951172</ele>
        <time>2024-09-23T13:19:57.000Z</time>
      </trkpt>
      <trkpt lat="42.39659" lon="19.69184">
        <ele>1157.5600585938</ele>
        <time>2024-09-23T13:19:58.000Z</time>
      </trkpt>
      <trkpt lat="42.39656" lon="19.69189">
        <ele>1158.0500488281</ele>
        <time>2024-09-23T13:19:59.000Z</time>
      </trkpt>
      <trkpt lat="42.39652" lon="19.69205">
        <ele>1159.0100097656</ele>
        <time>2024-09-23T13:20:00.000Z</time>
      </trkpt>
      <trkpt lat="42.39635" lon="19.69322">
        <ele>1168.1400146484</ele>
        <time>2024-09-23T13:20:05.000Z</time>
      </trkpt>
      <trkpt lat="42.39635" lon="19.69328">
        <ele>1168.6199951172</ele>
        <time>2024-09-23T13:20:06.000Z</time>
      </trkpt>
      <trkpt lat="42.39634" lon="19.69362">
        <ele>1171.0200195312</ele>
        <time>2024-09-23T13:20:07.000Z</time>
      </trkpt>
      <trkpt lat="42.39635" lon="19.69376">
        <ele>1171.9799804688</ele>
        <time>2024-09-23T13:20:08.000Z</time>
      </trkpt>
      <trkpt lat="42.39638" lon="19.69398">
        <ele>1173.4300537109</ele>
        <time>2024-09-23T13:20:09.000Z</time>
      </trkpt>
      <trkpt lat="42.39644" lon="19.69423">
        <ele>1174.3900146484</ele>
        <time>2024-09-23T13:20:10.000Z</time>
      </trkpt>
      <trkpt lat="42.39701" lon="19.69589">
        <ele>1182.5600585938</ele>
        <time>2024-09-23T13:20:16.000Z</time>
      </trkpt>
      <trkpt lat="42.39707" lon="19.69606">
        <ele>1183.0400390625</ele>
        <time>2024-09-23T13:20:17.000Z</time>
      </trkpt>
      <trkpt lat="42.3971" lon="19.6962">
        <ele>1183.5200195312</ele>
        <time>2024-09-23T13:20:18.000Z</time>
      </trkpt>
      <trkpt lat="42.39713" lon="19.69638">
        <ele>1184.4799804688</ele>
        <time>2024-09-23T13:20:19.000Z</time>
      </trkpt>
      <trkpt lat="42.39732" lon="19.69747">
        <ele>1188.8100585938</ele>
        <time>2024-09-23T13:20:23.000Z</time>
      </trkpt>
      <trkpt lat="42.39735" lon="19.69764">
        <ele>1189.7700195312</ele>
        <time>2024-09-23T13:20:24.000Z</time>
      </trkpt>
      <trkpt lat="42.39737" lon="19.69779">
        <ele>1190.7299804688</ele>
        <time>2024-09-23T13:20:25.000Z</time>
      </trkpt>
      <trkpt lat="42.39737" lon="19.69797">
        <ele>1192.1700439453</ele>
        <time>2024-09-23T13:20:26.000Z</time>
      </trkpt>
      <trkpt lat="42.39733" lon="19.69813">
        <ele>1193.1300048828</ele>
        <time>2024-09-23T13:20:27.000Z</time>
      </trkpt>
      <trkpt lat="42.39731" lon="19.69823">
        <ele>1193.6099853516</ele>
        <time>2024-09-23T13:20:28.000Z</time>
      </trkpt>
      <trkpt lat="42.39731" lon="19.69834">
        <ele>1194.0899658203</ele>
        <time>2024-09-23T13:20:29.000Z</time>
      </trkpt>
      <trkpt lat="42.39735" lon="19.69841">
        <ele>1194.5799560547</ele>
        <time>2024-09-23T13:20:30.000Z</time>
      </trkpt>
      <trkpt lat="42.39742" lon="19.69845">
        <ele>1195.0600585938</ele>
        <time>2024-09-23T13:20:31.000Z</time>
      </trkpt>
      <trkpt lat="42.39751" lon="19.69845">
        <ele>1196.0200195312</ele>
        <time>2024-09-23T13:20:32.000Z</time>
      </trkpt>
      <trkpt lat="42.39761" lon="19.69841">
        <ele>1196.5</ele>
        <time>2024-09-23T13:20:33.000Z</time>
      </trkpt>
      <trkpt lat="42.39769" lon="19.69833">
        <ele>1197.4599609375</ele>
        <time>2024-09-23T13:20:34.000Z</time>
      </trkpt>
      <trkpt lat="42.39777" lon="19.69823">
        <ele>1197.9399414062</ele>
        <time>2024-09-23T13:20:35.000Z</time>
      </trkpt>
      <trkpt lat="42.39791" lon="19.69802">
        <ele>1199.3800048828</ele>
        <time>2024-09-23T13:20:36.000Z</time>
      </trkpt>
      <trkpt lat="42.39801" lon="19.69785">
        <ele>1200.3399658203</ele>
        <time>2024-09-23T13:20:38.000Z</time>
      </trkpt>
      <trkpt lat="42.39808" lon="19.69771">
        <ele>1201.3000488281</ele>
        <time>2024-09-23T13:20:39.000Z</time>
      </trkpt>
      <trkpt lat="42.3981" lon="19.69755">
        <ele>1202.75</ele>
        <time>2024-09-23T13:20:40.000Z</time>
      </trkpt>
      <trkpt lat="42.3981" lon="19.69743">
        <ele>1203.2299804688</ele>
        <time>2024-09-23T13:20:41.000Z</time>
      </trkpt>
      <trkpt lat="42.39811" lon="19.69731">
        <ele>1204.1899414062</ele>
        <time>2024-09-23T13:20:42.000Z</time>
      </trkpt>
      <trkpt lat="42.39813" lon="19.69725">
        <ele>1204.6700439453</ele>
        <time>2024-09-23T13:20:43.000Z</time>
      </trkpt>
      <trkpt lat="42.39817" lon="19.69723">
        <ele>1205.1500244141</ele>
        <time>2024-09-23T13:20:44.000Z</time>
      </trkpt>
      <trkpt lat="42.39821" lon="19.69725">
        <ele>1205.6300048828</ele>
        <time>2024-09-23T13:20:45.000Z</time>
      </trkpt>
      <trkpt lat="42.39822" lon="19.69731">
        <ele>1206.1099853516</ele>
        <time>2024-09-23T13:20:46.000Z</time>
      </trkpt>
      <trkpt lat="42.39821" lon="19.69739">
        <ele>1206.1099853516</ele>
        <time>2024-09-23T13:20:47.000Z</time>
      </trkpt>
      <trkpt lat="42.39818" lon="19.69753">
        <ele>1206.5899658203</ele>
        <time>2024-09-23T13:20:48.000Z</time>
      </trkpt>
      <trkpt lat="42.39814" lon="19.69785">
        <ele>1206.5899658203</ele>
        <time>2024-09-23T13:20:50.000Z</time>
      </trkpt>
      <trkpt lat="42.39812" lon="19.69804">
        <ele>1207.5500488281</ele>
        <time>2024-09-23T13:20:51.000Z</time>
      </trkpt>
      <trkpt lat="42.3981" lon="19.69823">
        <ele>1208.0300292969</ele>
        <time>2024-09-23T13:20:52.000Z</time>
      </trkpt>
      <trkpt lat="42.39807" lon="19.69846">
        <ele>1209.4799804688</ele>
        <time>2024-09-23T13:20:53.000Z</time>
      </trkpt>
      <trkpt lat="42.398" lon="19.69867">
        <ele>1210.9200439453</ele>
        <time>2024-09-23T13:20:54.000Z</time>
      </trkpt>
      <trkpt lat="42.39784" lon="19.69908">
        <ele>1213.8000488281</ele>
        <time>2024-09-23T13:20:56.000Z</time>
      </trkpt>
      <trkpt lat="42.39778" lon="19.69928">
        <ele>1215.2399902344</ele>
        <time>2024-09-23T13:20:57.000Z</time>
      </trkpt>
      <trkpt lat="42.39774" lon="19.69948">
        <ele>1216.6899414062</ele>
        <time>2024-09-23T13:20:58.000Z</time>
      </trkpt>
      <trkpt lat="42.39771" lon="19.69976">
        <ele>1218.6099853516</ele>
        <time>2024-09-23T13:20:59.000Z</time>
      </trkpt>
      <trkpt lat="42.39767" lon="19.69998">
        <ele>1220.0500488281</ele>
        <time>2024-09-23T13:21:00.000Z</time>
      </trkpt>
      <trkpt lat="42.39733" lon="19.70108">
        <ele>1231.5899658203</ele>
        <time>2024-09-23T13:21:04.000Z</time>
      </trkpt>
      <trkpt lat="42.39728" lon="19.70123">
        <ele>1233.0300292969</ele>
        <time>2024-09-23T13:21:05.000Z</time>
      </trkpt>
      <trkpt lat="42.3972" lon="19.7014">
        <ele>1234.9499511719</ele>
        <time>2024-09-23T13:21:06.000Z</time>
      </trkpt>
      <trkpt lat="42.39709" lon="19.70158">
        <ele>1237.3499755859</ele>
        <time>2024-09-23T13:21:07.000Z</time>
      </trkpt>
      <trkpt lat="42.39692" lon="19.70178">
        <ele>1240.7199707031</ele>
        <time>2024-09-23T13:21:08.000Z</time>
      </trkpt>
      <trkpt lat="42.39686" lon="19.70187">
        <ele>1241.6800537109</ele>
        <time>2024-09-23T13:21:09.000Z</time>
      </trkpt>
      <trkpt lat="42.39677" lon="19.70205">
        <ele>1243.5999755859</ele>
        <time>2024-09-23T13:21:10.000Z</time>
      </trkpt>
      <trkpt lat="42.39671" lon="19.70225">
        <ele>1245.5300292969</ele>
        <time>2024-09-23T13:21:11.000Z</time>
      </trkpt>
      <trkpt lat="42.3966" lon="19.70287">
        <ele>1251.7700195312</ele>
        <time>2024-09-23T13:21:13.000Z</time>
      </trkpt>
      <trkpt lat="42.39659" lon="19.70291">
        <ele>1251.7700195312</ele>
        <time>2024-09-23T13:21:14.000Z</time>
      </trkpt>
      <trkpt lat="42.39654" lon="19.70311">
        <ele>1253.6999511719</ele>
        <time>2024-09-23T13:21:15.000Z</time>
      </trkpt>
      <trkpt lat="42.3965" lon="19.70323">
        <ele>1255.1400146484</ele>
        <time>2024-09-23T13:21:16.000Z</time>
      </trkpt>
      <trkpt lat="42.39644" lon="19.70336">
        <ele>1255.6199951172</ele>
        <time>2024-09-23T13:21:17.000Z</time>
      </trkpt>
      <trkpt lat="42.39634" lon="19.70344">
        <ele>1257.0600585938</ele>
        <time>2024-09-23T13:21:18.000Z</time>
      </trkpt>
      <trkpt lat="42.39629" lon="19.70349">
        <ele>1257.5400390625</ele>
        <time>2024-09-23T13:21:19.000Z</time>
      </trkpt>
      <trkpt lat="42.39626" lon="19.70356">
        <ele>1258.0200195312</ele>
        <time>2024-09-23T13:21:20.000Z</time>
      </trkpt>
      <trkpt lat="42.39627" lon="19.70363">
        <ele>1258.5</ele>
        <time>2024-09-23T13:21:21.000Z</time>
      </trkpt>
      <trkpt lat="42.39631" lon="19.70367">
        <ele>1258.5</ele>
        <time>2024-09-23T13:21:22.000Z</time>
      </trkpt>
      <trkpt lat="42.39638" lon="19.70364">
        <ele>1258.5</ele>
        <time>2024-09-23T13:21:23.000Z</time>
      </trkpt>
      <trkpt lat="42.39645" lon="19.70357">
        <ele>1258.9799804688</ele>
        <time>2024-09-23T13:21:24.000Z</time>
      </trkpt>
      <trkpt lat="42.39657" lon="19.7034">
        <ele>1258.9799804688</ele>
        <time>2024-09-23T13:21:25.000Z</time>
      </trkpt>
      <trkpt lat="42.39663" lon="19.7033">
        <ele>1259.4599609375</ele>
        <time>2024-09-23T13:21:26.000Z</time>
      </trkpt>
      <trkpt lat="42.39668" lon="19.70322">
        <ele>1259.4599609375</ele>
        <time>2024-09-23T13:21:27.000Z</time>
      </trkpt>
      <trkpt lat="42.39676" lon="19.70308">
        <ele>1259.9399414062</ele>
        <time>2024-09-23T13:21:28.000Z</time>
      </trkpt>
      <trkpt lat="42.39682" lon="19.70295">
        <ele>1260.9100341797</ele>
        <time>2024-09-23T13:21:29.000Z</time>
      </trkpt>
      <trkpt lat="42.39685" lon="19.70284">
        <ele>1260.9100341797</ele>
        <time>2024-09-23T13:21:30.000Z</time>
      </trkpt>
      <trkpt lat="42.39689" lon="19.70277">
        <ele>1261.3900146484</ele>
        <time>2024-09-23T13:21:31.000Z</time>
      </trkpt>
      <trkpt lat="42.39694" lon="19.70276">
        <ele>1261.8699951172</ele>
        <time>2024-09-23T13:21:32.000Z</time>
      </trkpt>
      <trkpt lat="42.39697" lon="19.70281">
        <ele>1262.3499755859</ele>
        <time>2024-09-23T13:21:33.000Z</time>
      </trkpt>
      <trkpt lat="42.39696" lon="19.70287">
        <ele>1262.3499755859</ele>
        <time>2024-09-23T13:21:34.000Z</time>
      </trkpt>
      <trkpt lat="42.39693" lon="19.70296">
        <ele>1263.3100585938</ele>
        <time>2024-09-23T13:21:35.000Z</time>
      </trkpt>
      <trkpt lat="42.39681" lon="19.7032">
        <ele>1264.75</ele>
        <time>2024-09-23T13:21:37.000Z</time>
      </trkpt>
      <trkpt lat="42.39669" lon="19.70341">
        <ele>1266.1899414062</ele>
        <time>2024-09-23T13:21:38.000Z</time>
      </trkpt>
      <trkpt lat="42.39664" lon="19.70351">
        <ele>1267.6400146484</ele>
        <time>2024-09-23T13:21:39.000Z</time>
      </trkpt>
      <trkpt lat="42.39658" lon="19.70367">
        <ele>1268.5999755859</ele>
        <time>2024-09-23T13:21:40.000Z</time>
      </trkpt>
      <trkpt lat="42.39655" lon="19.70384">
        <ele>1270.0400390625</ele>
        <time>2024-09-23T13:21:41.000Z</time>
      </trkpt>
      <trkpt lat="42.39656" lon="19.70399">
        <ele>1271</ele>
        <time>2024-09-23T13:21:42.000Z</time>
      </trkpt>
      <trkpt lat="42.39659" lon="19.70419">
        <ele>1272.4399414062</ele>
        <time>2024-09-23T13:21:43.000Z</time>
      </trkpt>
      <trkpt lat="42.3966" lon="19.7043">
        <ele>1273.4000244141</ele>
        <time>2024-09-23T13:21:44.000Z</time>
      </trkpt>
      <trkpt lat="42.39658" lon="19.70441">
        <ele>1274.8499755859</ele>
        <time>2024-09-23T13:21:45.000Z</time>
      </trkpt>
      <trkpt lat="42.39652" lon="19.70452">
        <ele>1276.2900390625</ele>
        <time>2024-09-23T13:21:46.000Z</time>
      </trkpt>
      <trkpt lat="42.39643" lon="19.7046">
        <ele>1276.7700195312</ele>
        <time>2024-09-23T13:21:47.000Z</time>
      </trkpt>
      <trkpt lat="42.39633" lon="19.70469">
        <ele>1277.7299804688</ele>
        <time>2024-09-23T13:21:48.000Z</time>
      </trkpt>
      <trkpt lat="42.39626" lon="19.70481">
        <ele>1278.6899414062</ele>
        <time>2024-09-23T13:21:49.000Z</time>
      </trkpt>
      <trkpt lat="42.3962" lon="19.70495">
        <ele>1279.6500244141</ele>
        <time>2024-09-23T13:21:50.000Z</time>
      </trkpt>
      <trkpt lat="42.39615" lon="19.70509">
        <ele>1280.6099853516</ele>
        <time>2024-09-23T13:21:51.000Z</time>
      </trkpt>
      <trkpt lat="42.39612" lon="19.70522">
        <ele>1281.0899658203</ele>
        <time>2024-09-23T13:21:52.000Z</time>
      </trkpt>
      <trkpt lat="42.39614" lon="19.70537">
        <ele>1282.5400390625</ele>
        <time>2024-09-23T13:21:53.000Z</time>
      </trkpt>
      <trkpt lat="42.39622" lon="19.70561">
        <ele>1284.4599609375</ele>
        <time>2024-09-23T13:21:54.000Z</time>
      </trkpt>
      <trkpt lat="42.39625" lon="19.70571">
        <ele>1284.9399414062</ele>
        <time>2024-09-23T13:21:55.000Z</time>
      </trkpt>
      <trkpt lat="42.39626" lon="19.70582">
        <ele>1285.9000244141</ele>
        <time>2024-09-23T13:21:56.000Z</time>
      </trkpt>
      <trkpt lat="42.39625" lon="19.70595">
        <ele>1287.3399658203</ele>
        <time>2024-09-23T13:21:57.000Z</time>
      </trkpt>
      <trkpt lat="42.39615" lon="19.70611">
        <ele>1288.7800292969</ele>
        <time>2024-09-23T13:21:58.000Z</time>
      </trkpt>
      <trkpt lat="42.39613" lon="19.70616">
        <ele>1288.7800292969</ele>
        <time>2024-09-23T13:21:59.000Z</time>
      </trkpt>
      <trkpt lat="42.39612" lon="19.70623">
        <ele>1289.2700195312</ele>
        <time>2024-09-23T13:22:00.000Z</time>
      </trkpt>
      <trkpt lat="42.39615" lon="19.70629">
        <ele>1289.2700195312</ele>
        <time>2024-09-23T13:22:01.000Z</time>
      </trkpt>
      <trkpt lat="42.3962" lon="19.70629">
        <ele>1289.75</ele>
        <time>2024-09-23T13:22:02.000Z</time>
      </trkpt>
      <trkpt lat="42.39625" lon="19.70625">
        <ele>1289.75</ele>
        <time>2024-09-23T13:22:03.000Z</time>
      </trkpt>
      <trkpt lat="42.39636" lon="19.70611">
        <ele>1290.7099609375</ele>
        <time>2024-09-23T13:22:04.000Z</time>
      </trkpt>
      <trkpt lat="42.39642" lon="19.70604">
        <ele>1290.7099609375</ele>
        <time>2024-09-23T13:22:05.000Z</time>
      </trkpt>
      <trkpt lat="42.39647" lon="19.70596">
        <ele>1291.1899414062</ele>
        <time>2024-09-23T13:22:06.000Z</time>
      </trkpt>
      <trkpt lat="42.39653" lon="19.70584">
        <ele>1291.6700439453</ele>
        <time>2024-09-23T13:22:07.000Z</time>
      </trkpt>
      <trkpt lat="42.39654" lon="19.70566">
        <ele>1292.1500244141</ele>
        <time>2024-09-23T13:22:08.000Z</time>
      </trkpt>
      <trkpt lat="42.39654" lon="19.70555">
        <ele>1292.6300048828</ele>
        <time>2024-09-23T13:22:09.000Z</time>
      </trkpt>
      <trkpt lat="42.39656" lon="19.7054">
        <ele>1293.1099853516</ele>
        <time>2024-09-23T13:22:10.000Z</time>
      </trkpt>
      <trkpt lat="42.3966" lon="19.70533">
        <ele>1293.5899658203</ele>
        <time>2024-09-23T13:22:11.000Z</time>
      </trkpt>
      <trkpt lat="42.39665" lon="19.70531">
        <ele>1294.0699462891</ele>
        <time>2024-09-23T13:22:12.000Z</time>
      </trkpt>
      <trkpt lat="42.3967" lon="19.70536">
        <ele>1295.0300292969</ele>
        <time>2024-09-23T13:22:13.000Z</time>
      </trkpt>
      <trkpt lat="42.39672" lon="19.70544">
        <ele>1295.5100097656</ele>
        <time>2024-09-23T13:22:14.000Z</time>
      </trkpt>
      <trkpt lat="42.39672" lon="19.70555">
        <ele>1295.9899902344</ele>
        <time>2024-09-23T13:22:15.000Z</time>
      </trkpt>
      <trkpt lat="42.3967" lon="19.70583">
        <ele>1297.4399414062</ele>
        <time>2024-09-23T13:22:16.000Z</time>
      </trkpt>
      <trkpt lat="42.3967" lon="19.70586">
        <ele>1297.9200439453</ele>
        <time>2024-09-23T13:22:17.000Z</time>
      </trkpt>
      <trkpt lat="42.39668" lon="19.70603">
        <ele>1299.3599853516</ele>
        <time>2024-09-23T13:22:18.000Z</time>
      </trkpt>
      <trkpt lat="42.39665" lon="19.70626">
        <ele>1301.7600097656</ele>
        <time>2024-09-23T13:22:19.000Z</time>
      </trkpt>
      <trkpt lat="42.39661" lon="19.70668">
        <ele>1305.1300048828</ele>
        <time>2024-09-23T13:22:21.000Z</time>
      </trkpt>
      <trkpt lat="42.39657" lon="19.70688">
        <ele>1307.0500488281</ele>
        <time>2024-09-23T13:22:22.000Z</time>
      </trkpt>
      <trkpt lat="42.39651" lon="19.70706">
        <ele>1309.9300537109</ele>
        <time>2024-09-23T13:22:23.000Z</time>
      </trkpt>
      <trkpt lat="42.39643" lon="19.70725">
        <ele>1311.8599853516</ele>
        <time>2024-09-23T13:22:24.000Z</time>
      </trkpt>
      <trkpt lat="42.39639" lon="19.70745">
        <ele>1313.7800292969</ele>
        <time>2024-09-23T13:22:25.000Z</time>
      </trkpt>
      <trkpt lat="42.39635" lon="19.70776">
        <ele>1316.6600341797</ele>
        <time>2024-09-23T13:22:26.000Z</time>
      </trkpt>
      <trkpt lat="42.39634" lon="19.70785">
        <ele>1317.1400146484</ele>
        <time>2024-09-23T13:22:27.000Z</time>
      </trkpt>
      <trkpt lat="42.39625" lon="19.70808">
        <ele>1320.0300292969</ele>
        <time>2024-09-23T13:22:28.000Z</time>
      </trkpt>
      <trkpt lat="42.39624" lon="19.70814">
        <ele>1320.5100097656</ele>
        <time>2024-09-23T13:22:29.000Z</time>
      </trkpt>
      <trkpt lat="42.39622" lon="19.7083">
        <ele>1322.4300537109</ele>
        <time>2024-09-23T13:22:30.000Z</time>
      </trkpt>
      <trkpt lat="42.39622" lon="19.7086">
        <ele>1324.3499755859</ele>
        <time>2024-09-23T13:22:31.000Z</time>
      </trkpt>
      <trkpt lat="42.39622" lon="19.70868">
        <ele>1324.8299560547</ele>
        <time>2024-09-23T13:22:32.000Z</time>
      </trkpt>
      <trkpt lat="42.39621" lon="19.70885">
        <ele>1325.8000488281</ele>
        <time>2024-09-23T13:22:33.000Z</time>
      </trkpt>
      <trkpt lat="42.39617" lon="19.70906">
        <ele>1327.2399902344</ele>
        <time>2024-09-23T13:22:34.000Z</time>
      </trkpt>
      <trkpt lat="42.39604" lon="19.70966">
        <ele>1329.1600341797</ele>
        <time>2024-09-23T13:22:36.000Z</time>
      </trkpt>
      <trkpt lat="42.39604" lon="19.70971">
        <ele>1329.1600341797</ele>
        <time>2024-09-23T13:22:37.000Z</time>
      </trkpt>
      <trkpt lat="42.39601" lon="19.71003">
        <ele>1330.1199951172</ele>
        <time>2024-09-23T13:22:38.000Z</time>
      </trkpt>
      <trkpt lat="42.396" lon="19.71008">
        <ele>1330.5999755859</ele>
        <time>2024-09-23T13:22:39.000Z</time>
      </trkpt>
      <trkpt lat="42.39597" lon="19.71022">
        <ele>1331.0799560547</ele>
        <time>2024-09-23T13:22:40.000Z</time>
      </trkpt>
      <trkpt lat="42.39592" lon="19.71033">
        <ele>1331.0799560547</ele>
        <time>2024-09-23T13:22:41.000Z</time>
      </trkpt>
      <trkpt lat="42.39585" lon="19.71037">
        <ele>1331.0799560547</ele>
        <time>2024-09-23T13:22:42.000Z</time>
      </trkpt>
      <trkpt lat="42.39576" lon="19.71037">
        <ele>1331.0799560547</ele>
        <time>2024-09-23T13:22:43.000Z</time>
      </trkpt>
      <trkpt lat="42.39567" lon="19.71031">
        <ele>1330.5999755859</ele>
        <time>2024-09-23T13:22:44.000Z</time>
      </trkpt>
      <trkpt lat="42.39559" lon="19.71021">
        <ele>1330.5999755859</ele>
        <time>2024-09-23T13:22:45.000Z</time>
      </trkpt>
      <trkpt lat="42.39556" lon="19.71007">
        <ele>1331.0799560547</ele>
        <time>2024-09-23T13:22:46.000Z</time>
      </trkpt>
      <trkpt lat="42.39553" lon="19.7099">
        <ele>1331.0799560547</ele>
        <time>2024-09-23T13:22:47.000Z</time>
      </trkpt>
      <trkpt lat="42.39548" lon="19.70968">
        <ele>1332.0400390625</ele>
        <time>2024-09-23T13:22:48.000Z</time>
      </trkpt>
      <trkpt lat="42.39542" lon="19.70947">
        <ele>1332.5200195312</ele>
        <time>2024-09-23T13:22:49.000Z</time>
      </trkpt>
      <trkpt lat="42.39539" lon="19.70932">
        <ele>1333.0100097656</ele>
        <time>2024-09-23T13:22:50.000Z</time>
      </trkpt>
      <trkpt lat="42.39536" lon="19.70921">
        <ele>1333.4899902344</ele>
        <time>2024-09-23T13:22:51.000Z</time>
      </trkpt>
      <trkpt lat="42.39531" lon="19.70906">
        <ele>1334.4499511719</ele>
        <time>2024-09-23T13:22:52.000Z</time>
      </trkpt>
      <trkpt lat="42.39525" lon="19.70894">
        <ele>1335.4100341797</ele>
        <time>2024-09-23T13:22:53.000Z</time>
      </trkpt>
      <trkpt lat="42.39515" lon="19.70885">
        <ele>1337.3299560547</ele>
        <time>2024-09-23T13:22:54.000Z</time>
      </trkpt>
      <trkpt lat="42.39493" lon="19.70872">
        <ele>1340.2199707031</ele>
        <time>2024-09-23T13:22:55.000Z</time>
      </trkpt>
      <trkpt lat="42.3949" lon="19.70871">
        <ele>1340.6999511719</ele>
        <time>2024-09-23T13:22:56.000Z</time>
      </trkpt>
      <trkpt lat="42.39475" lon="19.70861">
        <ele>1341.6600341797</ele>
        <time>2024-09-23T13:22:57.000Z</time>
      </trkpt>
      <trkpt lat="42.39463" lon="19.70852">
        <ele>1342.1400146484</ele>
        <time>2024-09-23T13:22:58.000Z</time>
      </trkpt>
      <trkpt lat="42.39454" lon="19.70843">
        <ele>1342.1400146484</ele>
        <time>2024-09-23T13:22:59.000Z</time>
      </trkpt>
      <trkpt lat="42.39442" lon="19.70826">
        <ele>1342.6199951172</ele>
        <time>2024-09-23T13:23:00.000Z</time>
      </trkpt>
      <trkpt lat="42.39439" lon="19.70823">
        <ele>1342.6199951172</ele>
        <time>2024-09-23T13:23:01.000Z</time>
      </trkpt>
      <trkpt lat="42.39435" lon="19.70819">
        <ele>1342.6199951172</ele>
        <time>2024-09-23T13:23:02.000Z</time>
      </trkpt>
      <trkpt lat="42.3943" lon="19.7082">
        <ele>1342.6199951172</ele>
        <time>2024-09-23T13:23:03.000Z</time>
      </trkpt>
      <trkpt lat="42.39428" lon="19.70824">
        <ele>1343.0999755859</ele>
        <time>2024-09-23T13:23:04.000Z</time>
      </trkpt>
      <trkpt lat="42.39428" lon="19.70831">
        <ele>1343.5799560547</ele>
        <time>2024-09-23T13:23:05.000Z</time>
      </trkpt>
      <trkpt lat="42.39432" lon="19.70838">
        <ele>1343.5799560547</ele>
        <time>2024-09-23T13:23:06.000Z</time>
      </trkpt>
      <trkpt lat="42.39447" lon="19.70859">
        <ele>1344.5400390625</ele>
        <time>2024-09-23T13:23:08.000Z</time>
      </trkpt>
      <trkpt lat="42.39456" lon="19.70872">
        <ele>1345.0200195312</ele>
        <time>2024-09-23T13:23:09.000Z</time>
      </trkpt>
      <trkpt lat="42.39462" lon="19.7088">
        <ele>1345.5</ele>
        <time>2024-09-23T13:23:10.000Z</time>
      </trkpt>
      <trkpt lat="42.39481" lon="19.70905">
        <ele>1346.4599609375</ele>
        <time>2024-09-23T13:23:11.000Z</time>
      </trkpt>
      <trkpt lat="42.39485" lon="19.70911">
        <ele>1346.9399414062</ele>
        <time>2024-09-23T13:23:12.000Z</time>
      </trkpt>
      <trkpt lat="42.39492" lon="19.70924">
        <ele>1347.9100341797</ele>
        <time>2024-09-23T13:23:13.000Z</time>
      </trkpt>
      <trkpt lat="42.39499" lon="19.70943">
        <ele>1349.8299560547</ele>
        <time>2024-09-23T13:23:14.000Z</time>
      </trkpt>
      <trkpt lat="42.39506" lon="19.70973">
        <ele>1352.2299804688</ele>
        <time>2024-09-23T13:23:15.000Z</time>
      </trkpt>
      <trkpt lat="42.3951" lon="19.70997">
        <ele>1354.6300048828</ele>
        <time>2024-09-23T13:23:16.000Z</time>
      </trkpt>
      <trkpt lat="42.39511" lon="19.71">
        <ele>1355.1199951172</ele>
        <time>2024-09-23T13:23:17.000Z</time>
      </trkpt>
      <trkpt lat="42.39513" lon="19.71014">
        <ele>1356.5600585938</ele>
        <time>2024-09-23T13:23:18.000Z</time>
      </trkpt>
      <trkpt lat="42.39514" lon="19.71019">
        <ele>1357.5200195312</ele>
        <time>2024-09-23T13:23:19.000Z</time>
      </trkpt>
      <trkpt lat="42.39514" lon="19.71024">
        <ele>1358.9599609375</ele>
        <time>2024-09-23T13:23:20.000Z</time>
      </trkpt>
      <trkpt lat="42.39515" lon="19.7103">
        <ele>1359.4399414062</ele>
        <time>2024-09-23T13:23:21.000Z</time>
      </trkpt>
      <trkpt lat="42.39516" lon="19.7104">
        <ele>1360.4000244141</ele>
        <time>2024-09-23T13:23:22.000Z</time>
      </trkpt>
      <trkpt lat="42.39516" lon="19.71041">
        <ele>1360.4000244141</ele>
        <time>2024-09-23T13:23:23.000Z</time>
      </trkpt>
      <trkpt lat="42.39517" lon="19.71048">
        <ele>1361.3599853516</ele>
        <time>2024-09-23T13:23:24.000Z</time>
      </trkpt>
      <trkpt lat="42.39518" lon="19.71054">
        <ele>1361.8399658203</ele>
        <time>2024-09-23T13:23:25.000Z</time>
      </trkpt>
      <trkpt lat="42.39518" lon="19.71059">
        <ele>1361.8399658203</ele>
        <time>2024-09-23T13:23:26.000Z</time>
      </trkpt>
      <trkpt lat="42.39519" lon="19.71065">
        <ele>1361.8399658203</ele>
        <time>2024-09-23T13:23:27.000Z</time>
      </trkpt>
      <trkpt lat="42.39521" lon="19.71073">
        <ele>1362.3299560547</ele>
        <time>2024-09-23T13:23:28.000Z</time>
      </trkpt>
      <trkpt lat="42.39523" lon="19.71079">
        <ele>1362.8100585938</ele>
        <time>2024-09-23T13:23:29.000Z</time>
      </trkpt>
      <trkpt lat="42.39526" lon="19.71088">
        <ele>1363.2900390625</ele>
        <time>2024-09-23T13:23:30.000Z</time>
      </trkpt>
      <trkpt lat="42.39528" lon="19.71096">
        <ele>1363.2900390625</ele>
        <time>2024-09-23T13:23:31.000Z</time>
      </trkpt>
      <trkpt lat="42.3953" lon="19.71099">
        <ele>1363.7700195312</ele>
        <time>2024-09-23T13:23:32.000Z</time>
      </trkpt>
      <trkpt lat="42.39533" lon="19.71107">
        <ele>1364.25</ele>
        <time>2024-09-23T13:23:33.000Z</time>
      </trkpt>
      <trkpt lat="42.39537" lon="19.71118">
        <ele>1365.2099609375</ele>
        <time>2024-09-23T13:23:34.000Z</time>
      </trkpt>
      <trkpt lat="42.3954" lon="19.71127">
        <ele>1365.6899414062</ele>
        <time>2024-09-23T13:23:35.000Z</time>
      </trkpt>
      <trkpt lat="42.39543" lon="19.71135">
        <ele>1366.1700439453</ele>
        <time>2024-09-23T13:23:36.000Z</time>
      </trkpt>
      <trkpt lat="42.39548" lon="19.71149">
        <ele>1367.1300048828</ele>
        <time>2024-09-23T13:23:37.000Z</time>
      </trkpt>
      <trkpt lat="42.39561" lon="19.71193">
        <ele>1370.0200195312</ele>
        <time>2024-09-23T13:23:40.000Z</time>
      </trkpt>
      <trkpt lat="42.39563" lon="19.71199">
        <ele>1370.5</ele>
        <time>2024-09-23T13:23:41.000Z</time>
      </trkpt>
      <trkpt lat="42.39568" lon="19.71209">
        <ele>1371.4599609375</ele>
        <time>2024-09-23T13:23:42.000Z</time>
      </trkpt>
      <trkpt lat="42.39576" lon="19.71223">
        <ele>1372.9000244141</ele>
        <time>2024-09-23T13:23:43.000Z</time>
      </trkpt>
      <trkpt lat="42.39578" lon="19.71226">
        <ele>1373.3800048828</ele>
        <time>2024-09-23T13:23:44.000Z</time>
      </trkpt>
      <trkpt lat="42.39588" lon="19.71237">
        <ele>1374.8199462891</ele>
        <time>2024-09-23T13:23:45.000Z</time>
      </trkpt>
      <trkpt lat="42.39597" lon="19.71248">
        <ele>1375.7800292969</ele>
        <time>2024-09-23T13:23:46.000Z</time>
      </trkpt>
      <trkpt lat="42.39603" lon="19.71254">
        <ele>1376.2600097656</ele>
        <time>2024-09-23T13:23:48.000Z</time>
      </trkpt>
      <trkpt lat="42.39603" lon="19.71274">
        <ele>1377.7099609375</ele>
        <time>2024-09-23T13:23:53.000Z</time>
      </trkpt>
      <trkpt lat="42.396" lon="19.71274">
        <ele>1378.1899414062</ele>
        <time>2024-09-23T13:23:54.000Z</time>
      </trkpt>
      <trkpt lat="42.39598" lon="19.71272">
        <ele>1378.1899414062</ele>
        <time>2024-09-23T13:23:55.000Z</time>
      </trkpt>
      <trkpt lat="42.39595" lon="19.71267">
        <ele>1378.6700439453</ele>
        <time>2024-09-23T13:23:56.000Z</time>
      </trkpt>
      <trkpt lat="42.39591" lon="19.7126">
        <ele>1379.1500244141</ele>
        <time>2024-09-23T13:23:57.000Z</time>
      </trkpt>
      <trkpt lat="42.39579" lon="19.71243">
        <ele>1380.5899658203</ele>
        <time>2024-09-23T13:23:59.000Z</time>
      </trkpt>
      <trkpt lat="42.3956" lon="19.71221">
        <ele>1382.9899902344</ele>
        <time>2024-09-23T13:24:03.000Z</time>
      </trkpt>
      <trkpt lat="42.3955" lon="19.71207">
        <ele>1383.9599609375</ele>
        <time>2024-09-23T13:24:05.000Z</time>
      </trkpt>
      <trkpt lat="42.39543" lon="19.71197">
        <ele>1384.9200439453</ele>
        <time>2024-09-23T13:24:06.000Z</time>
      </trkpt>
      <trkpt lat="42.39538" lon="19.71189">
        <ele>1385.8800048828</ele>
        <time>2024-09-23T13:24:07.000Z</time>
      </trkpt>
      <trkpt lat="42.39535" lon="19.71183">
        <ele>1386.3599853516</ele>
        <time>2024-09-23T13:24:08.000Z</time>
      </trkpt>
      <trkpt lat="42.3953" lon="19.71175">
        <ele>1387.3199462891</ele>
        <time>2024-09-23T13:24:09.000Z</time>
      </trkpt>
      <trkpt lat="42.39527" lon="19.71168">
        <ele>1388.2800292969</ele>
        <time>2024-09-23T13:24:10.000Z</time>
      </trkpt>
      <trkpt lat="42.3952" lon="19.71158">
        <ele>1389.7199707031</ele>
        <time>2024-09-23T13:24:11.000Z</time>
      </trkpt>
      <trkpt lat="42.39513" lon="19.71146">
        <ele>1390.6800537109</ele>
        <time>2024-09-23T13:24:12.000Z</time>
      </trkpt>
      <trkpt lat="42.39501" lon="19.71126">
        <ele>1392.1300048828</ele>
        <time>2024-09-23T13:24:13.000Z</time>
      </trkpt>
      <trkpt lat="42.39481" lon="19.71087">
        <ele>1395.9699707031</ele>
        <time>2024-09-23T13:24:15.000Z</time>
      </trkpt>
      <trkpt lat="42.39466" lon="19.71056">
        <ele>1398.8599853516</ele>
        <time>2024-09-23T13:24:17.000Z</time>
      </trkpt>
      <trkpt lat="42.39455" lon="19.71035">
        <ele>1401.2600097656</ele>
        <time>2024-09-23T13:24:18.000Z</time>
      </trkpt>
      <trkpt lat="42.39453" lon="19.71032">
        <ele>1401.7399902344</ele>
        <time>2024-09-23T13:24:19.000Z</time>
      </trkpt>
      <trkpt lat="42.39444" lon="19.71017">
        <ele>1403.1800537109</ele>
        <time>2024-09-23T13:24:20.000Z</time>
      </trkpt>
      <trkpt lat="42.39339" lon="19.70907">
        <ele>1416.6400146484</ele>
        <time>2024-09-23T13:24:27.000Z</time>
      </trkpt>
      <trkpt lat="42.39308" lon="19.70877">
        <ele>1420.4899902344</ele>
        <time>2024-09-23T13:24:29.000Z</time>
      </trkpt>
      <trkpt lat="42.39304" lon="19.70873">
        <ele>1421.4499511719</ele>
        <time>2024-09-23T13:24:30.000Z</time>
      </trkpt>
      <trkpt lat="42.39283" lon="19.70857">
        <ele>1423.8499755859</ele>
        <time>2024-09-23T13:24:31.000Z</time>
      </trkpt>
      <trkpt lat="42.39281" lon="19.70856">
        <ele>1423.8499755859</ele>
        <time>2024-09-23T13:24:32.000Z</time>
      </trkpt>
      <trkpt lat="42.39272" lon="19.70847">
        <ele>1424.8100585938</ele>
        <time>2024-09-23T13:24:33.000Z</time>
      </trkpt>
      <trkpt lat="42.39266" lon="19.70834">
        <ele>1426.25</ele>
        <time>2024-09-23T13:24:34.000Z</time>
      </trkpt>
      <trkpt lat="42.39257" lon="19.70802">
        <ele>1427.2099609375</ele>
        <time>2024-09-23T13:24:36.000Z</time>
      </trkpt>
      <trkpt lat="42.39251" lon="19.70784">
        <ele>1428.1800537109</ele>
        <time>2024-09-23T13:24:37.000Z</time>
      </trkpt>
      <trkpt lat="42.39245" lon="19.70771">
        <ele>1428.6600341797</ele>
        <time>2024-09-23T13:24:38.000Z</time>
      </trkpt>
      <trkpt lat="42.39237" lon="19.70755">
        <ele>1429.6199951172</ele>
        <time>2024-09-23T13:24:39.000Z</time>
      </trkpt>
      <trkpt lat="42.39227" lon="19.7074">
        <ele>1430.5799560547</ele>
        <time>2024-09-23T13:24:40.000Z</time>
      </trkpt>
      <trkpt lat="42.39217" lon="19.70726">
        <ele>1432.0200195312</ele>
        <time>2024-09-23T13:24:41.000Z</time>
      </trkpt>
      <trkpt lat="42.39204" lon="19.70706">
        <ele>1433.4599609375</ele>
        <time>2024-09-23T13:24:42.000Z</time>
      </trkpt>
      <trkpt lat="42.39179" lon="19.70671">
        <ele>1436.8299560547</ele>
        <time>2024-09-23T13:24:44.000Z</time>
      </trkpt>
      <trkpt lat="42.39169" lon="19.70659">
        <ele>1438.2700195312</ele>
        <time>2024-09-23T13:24:45.000Z</time>
      </trkpt>
      <trkpt lat="42.39149" lon="19.70642">
        <ele>1440.6700439453</ele>
        <time>2024-09-23T13:24:46.000Z</time>
      </trkpt>
      <trkpt lat="42.39144" lon="19.70638">
        <ele>1441.1500244141</ele>
        <time>2024-09-23T13:24:47.000Z</time>
      </trkpt>
      <trkpt lat="42.39134" lon="19.70626">
        <ele>1442.5999755859</ele>
        <time>2024-09-23T13:24:48.000Z</time>
      </trkpt>
      <trkpt lat="42.39125" lon="19.70612">
        <ele>1443.5600585938</ele>
        <time>2024-09-23T13:24:49.000Z</time>
      </trkpt>
      <trkpt lat="42.3912" lon="19.70605">
        <ele>1444.0400390625</ele>
        <time>2024-09-23T13:24:50.000Z</time>
      </trkpt>
      <trkpt lat="42.39112" lon="19.70601">
        <ele>1444.0400390625</ele>
        <time>2024-09-23T13:24:51.000Z</time>
      </trkpt>
      <trkpt lat="42.39104" lon="19.70601">
        <ele>1445</ele>
        <time>2024-09-23T13:24:52.000Z</time>
      </trkpt>
      <trkpt lat="42.39085" lon="19.70607">
        <ele>1447.4000244141</ele>
        <time>2024-09-23T13:24:54.000Z</time>
      </trkpt>
      <trkpt lat="42.39072" lon="19.70611">
        <ele>1448.3599853516</ele>
        <time>2024-09-23T13:24:55.000Z</time>
      </trkpt>
      <trkpt lat="42.39067" lon="19.70613">
        <ele>1448.3599853516</ele>
        <time>2024-09-23T13:24:56.000Z</time>
      </trkpt>
      <trkpt lat="42.39063" lon="19.70618">
        <ele>1448.3599853516</ele>
        <time>2024-09-23T13:24:57.000Z</time>
      </trkpt>
      <trkpt lat="42.39062" lon="19.70623">
        <ele>1448.8399658203</ele>
        <time>2024-09-23T13:24:58.000Z</time>
      </trkpt>
      <trkpt lat="42.39065" lon="19.70629">
        <ele>1449.3199462891</ele>
        <time>2024-09-23T13:24:59.000Z</time>
      </trkpt>
      <trkpt lat="42.39071" lon="19.70631">
        <ele>1450.2900390625</ele>
        <time>2024-09-23T13:25:00.000Z</time>
      </trkpt>
      <trkpt lat="42.39079" lon="19.7063">
        <ele>1450.7700195312</ele>
        <time>2024-09-23T13:25:01.000Z</time>
      </trkpt>
      <trkpt lat="42.39087" lon="19.70627">
        <ele>1450.7700195312</ele>
        <time>2024-09-23T13:25:02.000Z</time>
      </trkpt>
      <trkpt lat="42.39095" lon="19.70626">
        <ele>1451.7299804688</ele>
        <time>2024-09-23T13:25:03.000Z</time>
      </trkpt>
      <trkpt lat="42.39102" lon="19.70628">
        <ele>1451.7299804688</ele>
        <time>2024-09-23T13:25:04.000Z</time>
      </trkpt>
      <trkpt lat="42.39106" lon="19.70634">
        <ele>1452.2099609375</ele>
        <time>2024-09-23T13:25:05.000Z</time>
      </trkpt>
      <trkpt lat="42.39109" lon="19.70646">
        <ele>1453.1700439453</ele>
        <time>2024-09-23T13:25:06.000Z</time>
      </trkpt>
      <trkpt lat="42.39111" lon="19.70659">
        <ele>1453.1700439453</ele>
        <time>2024-09-23T13:25:07.000Z</time>
      </trkpt>
      <trkpt lat="42.39114" lon="19.70673">
        <ele>1454.1300048828</ele>
        <time>2024-09-23T13:25:08.000Z</time>
      </trkpt>
      <trkpt lat="42.39119" lon="19.7069">
        <ele>1455.0899658203</ele>
        <time>2024-09-23T13:25:09.000Z</time>
      </trkpt>
      <trkpt lat="42.39127" lon="19.70705">
        <ele>1456.5300292969</ele>
        <time>2024-09-23T13:25:10.000Z</time>
      </trkpt>
      <trkpt lat="42.39148" lon="19.70728">
        <ele>1458.9399414062</ele>
        <time>2024-09-23T13:25:11.000Z</time>
      </trkpt>
      <trkpt lat="42.39152" lon="19.70734">
        <ele>1459.4200439453</ele>
        <time>2024-09-23T13:25:12.000Z</time>
      </trkpt>
      <trkpt lat="42.39162" lon="19.70748">
        <ele>1460.8599853516</ele>
        <time>2024-09-23T13:25:13.000Z</time>
      </trkpt>
      <trkpt lat="42.39169" lon="19.70765">
        <ele>1462.7800292969</ele>
        <time>2024-09-23T13:25:14.000Z</time>
      </trkpt>
      <trkpt lat="42.39182" lon="19.70801">
        <ele>1464.7099609375</ele>
        <time>2024-09-23T13:25:15.000Z</time>
      </trkpt>
      <trkpt lat="42.39184" lon="19.70805">
        <ele>1465.1899414062</ele>
        <time>2024-09-23T13:25:16.000Z</time>
      </trkpt>
      <trkpt lat="42.39188" lon="19.70825">
        <ele>1466.6300048828</ele>
        <time>2024-09-23T13:25:17.000Z</time>
      </trkpt>
      <trkpt lat="42.39191" lon="19.70854">
        <ele>1468.0699462891</ele>
        <time>2024-09-23T13:25:18.000Z</time>
      </trkpt>
      <trkpt lat="42.39192" lon="19.70877">
        <ele>1469.5100097656</ele>
        <time>2024-09-23T13:25:19.000Z</time>
      </trkpt>
      <trkpt lat="42.39192" lon="19.70903">
        <ele>1470.9499511719</ele>
        <time>2024-09-23T13:25:20.000Z</time>
      </trkpt>
      <trkpt lat="42.3919" lon="19.70927">
        <ele>1472.8800048828</ele>
        <time>2024-09-23T13:25:21.000Z</time>
      </trkpt>
      <trkpt lat="42.39185" lon="19.70961">
        <ele>1474.8000488281</ele>
        <time>2024-09-23T13:25:22.000Z</time>
      </trkpt>
      <trkpt lat="42.39184" lon="19.70969">
        <ele>1475.2800292969</ele>
        <time>2024-09-23T13:25:23.000Z</time>
      </trkpt>
      <trkpt lat="42.39184" lon="19.70987">
        <ele>1476.7199707031</ele>
        <time>2024-09-23T13:25:24.000Z</time>
      </trkpt>
      <trkpt lat="42.39188" lon="19.71012">
        <ele>1478.1600341797</ele>
        <time>2024-09-23T13:25:25.000Z</time>
      </trkpt>
      <trkpt lat="42.39191" lon="19.71022">
        <ele>1478.6500244141</ele>
        <time>2024-09-23T13:25:26.000Z</time>
      </trkpt>
      <trkpt lat="42.39196" lon="19.71036">
        <ele>1479.6099853516</ele>
        <time>2024-09-23T13:25:27.000Z</time>
      </trkpt>
      <trkpt lat="42.39202" lon="19.71045">
        <ele>1481.0500488281</ele>
        <time>2024-09-23T13:25:28.000Z</time>
      </trkpt>
      <trkpt lat="42.39209" lon="19.7105">
        <ele>1482.0100097656</ele>
        <time>2024-09-23T13:25:29.000Z</time>
      </trkpt>
      <trkpt lat="42.39216" lon="19.71051">
        <ele>1482.9699707031</ele>
        <time>2024-09-23T13:25:30.000Z</time>
      </trkpt>
      <trkpt lat="42.39223" lon="19.71047">
        <ele>1483.9300537109</ele>
        <time>2024-09-23T13:25:31.000Z</time>
      </trkpt>
      <trkpt lat="42.39228" lon="19.71043">
        <ele>1483.9300537109</ele>
        <time>2024-09-23T13:25:32.000Z</time>
      </trkpt>
      <trkpt lat="42.39232" lon="19.71042">
        <ele>1484.8900146484</ele>
        <time>2024-09-23T13:25:33.000Z</time>
      </trkpt>
      <trkpt lat="42.39235" lon="19.71046">
        <ele>1485.3699951172</ele>
        <time>2024-09-23T13:25:34.000Z</time>
      </trkpt>
      <trkpt lat="42.39234" lon="19.71053">
        <ele>1486.3399658203</ele>
        <time>2024-09-23T13:25:35.000Z</time>
      </trkpt>
      <trkpt lat="42.39232" lon="19.71056">
        <ele>1486.8199462891</ele>
        <time>2024-09-23T13:25:36.000Z</time>
      </trkpt>
      <trkpt lat="42.39226" lon="19.71061">
        <ele>1487.7800292969</ele>
        <time>2024-09-23T13:25:37.000Z</time>
      </trkpt>
      <trkpt lat="42.39221" lon="19.71064">
        <ele>1488.2600097656</ele>
        <time>2024-09-23T13:25:38.000Z</time>
      </trkpt>
      <trkpt lat="42.39217" lon="19.71067">
        <ele>1488.2600097656</ele>
        <time>2024-09-23T13:25:39.000Z</time>
      </trkpt>
      <trkpt lat="42.39209" lon="19.71073">
        <ele>1488.7399902344</ele>
        <time>2024-09-23T13:25:40.000Z</time>
      </trkpt>
      <trkpt lat="42.39199" lon="19.71081">
        <ele>1489.6999511719</ele>
        <time>2024-09-23T13:25:41.000Z</time>
      </trkpt>
      <trkpt lat="42.39193" lon="19.71084">
        <ele>1490.1800537109</ele>
        <time>2024-09-23T13:25:42.000Z</time>
      </trkpt>
      <trkpt lat="42.39185" lon="19.71085">
        <ele>1490.1800537109</ele>
        <time>2024-09-23T13:25:43.000Z</time>
      </trkpt>
      <trkpt lat="42.39179" lon="19.71082">
        <ele>1490.6600341797</ele>
        <time>2024-09-23T13:25:44.000Z</time>
      </trkpt>
      <trkpt lat="42.39172" lon="19.71076">
        <ele>1491.6199951172</ele>
        <time>2024-09-23T13:25:45.000Z</time>
      </trkpt>
      <trkpt lat="42.39167" lon="19.71067">
        <ele>1492.0999755859</ele>
        <time>2024-09-23T13:25:46.000Z</time>
      </trkpt>
      <trkpt lat="42.39164" lon="19.71056">
        <ele>1493.0600585938</ele>
        <time>2024-09-23T13:25:47.000Z</time>
      </trkpt>
      <trkpt lat="42.39161" lon="19.71045">
        <ele>1493.5500488281</ele>
        <time>2024-09-23T13:25:48.000Z</time>
      </trkpt>
      <trkpt lat="42.39152" lon="19.70998">
        <ele>1496.4300537109</ele>
        <time>2024-09-23T13:25:51.000Z</time>
      </trkpt>
      <trkpt lat="42.39152" lon="19.70995">
        <ele>1496.4300537109</ele>
        <time>2024-09-23T13:25:52.000Z</time>
      </trkpt>
      <trkpt lat="42.39151" lon="19.70983">
        <ele>1497.3900146484</ele>
        <time>2024-09-23T13:25:53.000Z</time>
      </trkpt>
      <trkpt lat="42.39152" lon="19.70968">
        <ele>1498.3499755859</ele>
        <time>2024-09-23T13:25:54.000Z</time>
      </trkpt>
      <trkpt lat="42.39153" lon="19.70963">
        <ele>1498.8299560547</ele>
        <time>2024-09-23T13:25:55.000Z</time>
      </trkpt>
      <trkpt lat="42.39152" lon="19.70955">
        <ele>1499.3100585938</ele>
        <time>2024-09-23T13:25:56.000Z</time>
      </trkpt>
      <trkpt lat="42.3915" lon="19.70948">
        <ele>1500.2700195312</ele>
        <time>2024-09-23T13:25:57.000Z</time>
      </trkpt>
      <trkpt lat="42.39147" lon="19.70944">
        <ele>1500.7600097656</ele>
        <time>2024-09-23T13:25:58.000Z</time>
      </trkpt>
      <trkpt lat="42.39141" lon="19.70944">
        <ele>1501.2399902344</ele>
        <time>2024-09-23T13:25:59.000Z</time>
      </trkpt>
      <trkpt lat="42.39137" lon="19.70947">
        <ele>1501.2399902344</ele>
        <time>2024-09-23T13:26:00.000Z</time>
      </trkpt>
      <trkpt lat="42.39136" lon="19.70953">
        <ele>1501.7199707031</ele>
        <time>2024-09-23T13:26:01.000Z</time>
      </trkpt>
      <trkpt lat="42.39134" lon="19.70963">
        <ele>1502.1999511719</ele>
        <time>2024-09-23T13:26:02.000Z</time>
      </trkpt>
      <trkpt lat="42.39132" lon="19.70971">
        <ele>1502.1999511719</ele>
        <time>2024-09-23T13:26:03.000Z</time>
      </trkpt>
      <trkpt lat="42.3913" lon="19.7098">
        <ele>1502.6800537109</ele>
        <time>2024-09-23T13:26:04.000Z</time>
      </trkpt>
      <trkpt lat="42.39125" lon="19.70991">
        <ele>1503.1600341797</ele>
        <time>2024-09-23T13:26:05.000Z</time>
      </trkpt>
      <trkpt lat="42.39113" lon="19.71014">
        <ele>1504.1199951172</ele>
        <time>2024-09-23T13:26:06.000Z</time>
      </trkpt>
      <trkpt lat="42.3911" lon="19.7102">
        <ele>1504.5999755859</ele>
        <time>2024-09-23T13:26:07.000Z</time>
      </trkpt>
      <trkpt lat="42.39071" lon="19.7109">
        <ele>1508.4499511719</ele>
        <time>2024-09-23T13:26:12.000Z</time>
      </trkpt>
      <trkpt lat="42.39065" lon="19.71104">
        <ele>1508.9300537109</ele>
        <time>2024-09-23T13:26:13.000Z</time>
      </trkpt>
      <trkpt lat="42.3906" lon="19.71121">
        <ele>1510.3699951172</ele>
        <time>2024-09-23T13:26:14.000Z</time>
      </trkpt>
      <trkpt lat="42.39056" lon="19.71138">
        <ele>1511.3299560547</ele>
        <time>2024-09-23T13:26:15.000Z</time>
      </trkpt>
      <trkpt lat="42.39053" lon="19.7116">
        <ele>1512.7700195312</ele>
        <time>2024-09-23T13:26:16.000Z</time>
      </trkpt>
      <trkpt lat="42.39049" lon="19.71183">
        <ele>1514.2099609375</ele>
        <time>2024-09-23T13:26:17.000Z</time>
      </trkpt>
      <trkpt lat="42.39045" lon="19.7121">
        <ele>1515.6600341797</ele>
        <time>2024-09-23T13:26:19.000Z</time>
      </trkpt>
      <trkpt lat="42.39042" lon="19.71233">
        <ele>1516.6199951172</ele>
        <time>2024-09-23T13:26:20.000Z</time>
      </trkpt>
      <trkpt lat="42.39037" lon="19.71268">
        <ele>1519.0200195312</ele>
        <time>2024-09-23T13:26:23.000Z</time>
      </trkpt>
      <trkpt lat="42.39036" lon="19.71274">
        <ele>1519.0200195312</ele>
        <time>2024-09-23T13:26:24.000Z</time>
      </trkpt>
      <trkpt lat="42.39037" lon="19.71283">
        <ele>1519.9799804688</ele>
        <time>2024-09-23T13:26:25.000Z</time>
      </trkpt>
      <trkpt lat="42.39041" lon="19.7129">
        <ele>1520.9399414062</ele>
        <time>2024-09-23T13:26:26.000Z</time>
      </trkpt>
      <trkpt lat="42.39047" lon="19.71296">
        <ele>1521.9000244141</ele>
        <time>2024-09-23T13:26:27.000Z</time>
      </trkpt>
      <trkpt lat="42.39057" lon="19.71301">
        <ele>1522.8699951172</ele>
        <time>2024-09-23T13:26:28.000Z</time>
      </trkpt>
      <trkpt lat="42.39064" lon="19.71305">
        <ele>1523.8299560547</ele>
        <time>2024-09-23T13:26:29.000Z</time>
      </trkpt>
      <trkpt lat="42.39069" lon="19.71309">
        <ele>1524.3100585938</ele>
        <time>2024-09-23T13:26:30.000Z</time>
      </trkpt>
      <trkpt lat="42.39078" lon="19.71315">
        <ele>1525.2700195312</ele>
        <time>2024-09-23T13:26:31.000Z</time>
      </trkpt>
      <trkpt lat="42.39089" lon="19.71324">
        <ele>1526.7099609375</ele>
        <time>2024-09-23T13:26:32.000Z</time>
      </trkpt>
      <trkpt lat="42.39097" lon="19.71329">
        <ele>1527.6700439453</ele>
        <time>2024-09-23T13:26:33.000Z</time>
      </trkpt>
      <trkpt lat="42.39108" lon="19.71332">
        <ele>1529.1099853516</ele>
        <time>2024-09-23T13:26:34.000Z</time>
      </trkpt>
      <trkpt lat="42.39124" lon="19.71332">
        <ele>1530.5600585938</ele>
        <time>2024-09-23T13:26:35.000Z</time>
      </trkpt>
      <trkpt lat="42.39149" lon="19.7133">
        <ele>1533.4399414062</ele>
        <time>2024-09-23T13:26:37.000Z</time>
      </trkpt>
      <trkpt lat="42.39153" lon="19.7133">
        <ele>1533.9200439453</ele>
        <time>2024-09-23T13:26:38.000Z</time>
      </trkpt>
      <trkpt lat="42.39163" lon="19.71332">
        <ele>1534.8800048828</ele>
        <time>2024-09-23T13:26:39.000Z</time>
      </trkpt>
      <trkpt lat="42.39174" lon="19.71337">
        <ele>1535.8399658203</ele>
        <time>2024-09-23T13:26:40.000Z</time>
      </trkpt>
      <trkpt lat="42.39189" lon="19.71347">
        <ele>1536.8000488281</ele>
        <time>2024-09-23T13:26:41.000Z</time>
      </trkpt>
      <trkpt lat="42.39226" lon="19.71378">
        <ele>1539.6899414062</ele>
        <time>2024-09-23T13:26:45.000Z</time>
      </trkpt>
      <trkpt lat="42.39229" lon="19.71381">
        <ele>1539.6899414062</ele>
        <time>2024-09-23T13:26:46.000Z</time>
      </trkpt>
      <trkpt lat="42.39238" lon="19.71387">
        <ele>1540.1700439453</ele>
        <time>2024-09-23T13:26:47.000Z</time>
      </trkpt>
      <trkpt lat="42.39241" lon="19.7139">
        <ele>1540.6500244141</ele>
        <time>2024-09-23T13:26:48.000Z</time>
      </trkpt>
      <trkpt lat="42.39244" lon="19.71395">
        <ele>1541.1300048828</ele>
        <time>2024-09-23T13:26:49.000Z</time>
      </trkpt>
      <trkpt lat="42.39245" lon="19.71401">
        <ele>1541.6099853516</ele>
        <time>2024-09-23T13:26:50.000Z</time>
      </trkpt>
      <trkpt lat="42.39242" lon="19.71406">
        <ele>1541.6099853516</ele>
        <time>2024-09-23T13:26:51.000Z</time>
      </trkpt>
      <trkpt lat="42.39238" lon="19.71407">
        <ele>1541.6099853516</ele>
        <time>2024-09-23T13:26:52.000Z</time>
      </trkpt>
      <trkpt lat="42.39234" lon="19.71403">
        <ele>1542.0899658203</ele>
        <time>2024-09-23T13:26:53.000Z</time>
      </trkpt>
      <trkpt lat="42.39229" lon="19.71396">
        <ele>1542.0899658203</ele>
        <time>2024-09-23T13:26:54.000Z</time>
      </trkpt>
      <trkpt lat="42.39225" lon="19.71391">
        <ele>1542.5699462891</ele>
        <time>2024-09-23T13:26:55.000Z</time>
      </trkpt>
      <trkpt lat="42.39219" lon="19.71385">
        <ele>1543.0500488281</ele>
        <time>2024-09-23T13:26:56.000Z</time>
      </trkpt>
      <trkpt lat="42.39212" lon="19.71382">
        <ele>1543.5300292969</ele>
        <time>2024-09-23T13:26:57.000Z</time>
      </trkpt>
      <trkpt lat="42.39204" lon="19.71382">
        <ele>1544.0100097656</ele>
        <time>2024-09-23T13:26:58.000Z</time>
      </trkpt>
      <trkpt lat="42.39197" lon="19.71383">
        <ele>1544.5</ele>
        <time>2024-09-23T13:26:59.000Z</time>
      </trkpt>
      <trkpt lat="42.39188" lon="19.71386">
        <ele>1545.4599609375</ele>
        <time>2024-09-23T13:27:00.000Z</time>
      </trkpt>
      <trkpt lat="42.39183" lon="19.71389">
        <ele>1545.9399414062</ele>
        <time>2024-09-23T13:27:01.000Z</time>
      </trkpt>
      <trkpt lat="42.39178" lon="19.71394">
        <ele>1546.4200439453</ele>
        <time>2024-09-23T13:27:02.000Z</time>
      </trkpt>
      <trkpt lat="42.39175" lon="19.71401">
        <ele>1546.9000244141</ele>
        <time>2024-09-23T13:27:03.000Z</time>
      </trkpt>
      <trkpt lat="42.39173" lon="19.71411">
        <ele>1547.3800048828</ele>
        <time>2024-09-23T13:27:04.000Z</time>
      </trkpt>
      <trkpt lat="42.3917" lon="19.71424">
        <ele>1548.3399658203</ele>
        <time>2024-09-23T13:27:05.000Z</time>
      </trkpt>
      <trkpt lat="42.39169" lon="19.71432">
        <ele>1548.3399658203</ele>
        <time>2024-09-23T13:27:06.000Z</time>
      </trkpt>
      <trkpt lat="42.39168" lon="19.71445">
        <ele>1548.8199462891</ele>
        <time>2024-09-23T13:27:07.000Z</time>
      </trkpt>
      <trkpt lat="42.39167" lon="19.71455">
        <ele>1549.7800292969</ele>
        <time>2024-09-23T13:27:08.000Z</time>
      </trkpt>
      <trkpt lat="42.39168" lon="19.71467">
        <ele>1550.7399902344</ele>
        <time>2024-09-23T13:27:09.000Z</time>
      </trkpt>
      <trkpt lat="42.39171" lon="19.71484">
        <ele>1551.7099609375</ele>
        <time>2024-09-23T13:27:10.000Z</time>
      </trkpt>
      <trkpt lat="42.39174" lon="19.71496">
        <ele>1552.6700439453</ele>
        <time>2024-09-23T13:27:11.000Z</time>
      </trkpt>
      <trkpt lat="42.39176" lon="19.71503">
        <ele>1553.1500244141</ele>
        <time>2024-09-23T13:27:12.000Z</time>
      </trkpt>
      <trkpt lat="42.39177" lon="19.7151">
        <ele>1553.6300048828</ele>
        <time>2024-09-23T13:27:13.000Z</time>
      </trkpt>
      <trkpt lat="42.3918" lon="19.71518">
        <ele>1554.1099853516</ele>
        <time>2024-09-23T13:27:14.000Z</time>
      </trkpt>
      <trkpt lat="42.39185" lon="19.71523">
        <ele>1555.0699462891</ele>
        <time>2024-09-23T13:27:15.000Z</time>
      </trkpt>
      <trkpt lat="42.39192" lon="19.71524">
        <ele>1556.0300292969</ele>
        <time>2024-09-23T13:27:16.000Z</time>
      </trkpt>
      <trkpt lat="42.392" lon="19.71521">
        <ele>1556.9899902344</ele>
        <time>2024-09-23T13:27:17.000Z</time>
      </trkpt>
      <trkpt lat="42.39206" lon="19.71516">
        <ele>1558.4300537109</ele>
        <time>2024-09-23T13:27:18.000Z</time>
      </trkpt>
      <trkpt lat="42.39213" lon="19.71511">
        <ele>1559.4000244141</ele>
        <time>2024-09-23T13:27:19.000Z</time>
      </trkpt>
      <trkpt lat="42.39223" lon="19.71502">
        <ele>1560.3599853516</ele>
        <time>2024-09-23T13:27:20.000Z</time>
      </trkpt>
      <trkpt lat="42.39228" lon="19.71498">
        <ele>1561.3199462891</ele>
        <time>2024-09-23T13:27:21.000Z</time>
      </trkpt>
      <trkpt lat="42.39234" lon="19.71493">
        <ele>1561.8000488281</ele>
        <time>2024-09-23T13:27:22.000Z</time>
      </trkpt>
      <trkpt lat="42.39238" lon="19.7149">
        <ele>1562.2800292969</ele>
        <time>2024-09-23T13:27:23.000Z</time>
      </trkpt>
      <trkpt lat="42.39244" lon="19.71486">
        <ele>1562.7600097656</ele>
        <time>2024-09-23T13:27:24.000Z</time>
      </trkpt>
      <trkpt lat="42.39251" lon="19.71485">
        <ele>1563.2399902344</ele>
        <time>2024-09-23T13:27:25.000Z</time>
      </trkpt>
      <trkpt lat="42.39256" lon="19.71487">
        <ele>1563.2399902344</ele>
        <time>2024-09-23T13:27:26.000Z</time>
      </trkpt>
      <trkpt lat="42.3926" lon="19.71492">
        <ele>1563.7199707031</ele>
        <time>2024-09-23T13:27:27.000Z</time>
      </trkpt>
      <trkpt lat="42.39262" lon="19.71501">
        <ele>1564.1999511719</ele>
        <time>2024-09-23T13:27:28.000Z</time>
      </trkpt>
      <trkpt lat="42.3926" lon="19.7151">
        <ele>1564.1999511719</ele>
        <time>2024-09-23T13:27:29.000Z</time>
      </trkpt>
      <trkpt lat="42.39255" lon="19.71516">
        <ele>1565.1600341797</ele>
        <time>2024-09-23T13:27:30.000Z</time>
      </trkpt>
      <trkpt lat="42.39248" lon="19.71522">
        <ele>1565.6400146484</ele>
        <time>2024-09-23T13:27:31.000Z</time>
      </trkpt>
      <trkpt lat="42.39239" lon="19.71531">
        <ele>1566.6099853516</ele>
        <time>2024-09-23T13:27:32.000Z</time>
      </trkpt>
      <trkpt lat="42.3923" lon="19.71541">
        <ele>1568.0500488281</ele>
        <time>2024-09-23T13:27:33.000Z</time>
      </trkpt>
      <trkpt lat="42.39228" lon="19.71545">
        <ele>1568.0500488281</ele>
        <time>2024-09-23T13:27:34.000Z</time>
      </trkpt>
      <trkpt lat="42.39222" lon="19.71554">
        <ele>1569.0100097656</ele>
        <time>2024-09-23T13:27:35.000Z</time>
      </trkpt>
      <trkpt lat="42.39217" lon="19.71573">
        <ele>1570.4499511719</ele>
        <time>2024-09-23T13:27:40.000Z</time>
      </trkpt>
      <trkpt lat="42.39217" lon="19.71578">
        <ele>1570.9300537109</ele>
        <time>2024-09-23T13:27:41.000Z</time>
      </trkpt>
      <trkpt lat="42.39219" lon="19.71584">
        <ele>1571.4100341797</ele>
        <time>2024-09-23T13:27:42.000Z</time>
      </trkpt>
      <trkpt lat="42.39222" lon="19.71589">
        <ele>1571.8900146484</ele>
        <time>2024-09-23T13:27:43.000Z</time>
      </trkpt>
      <trkpt lat="42.39226" lon="19.71593">
        <ele>1572.3699951172</ele>
        <time>2024-09-23T13:27:44.000Z</time>
      </trkpt>
      <trkpt lat="42.39228" lon="19.716">
        <ele>1572.8499755859</ele>
        <time>2024-09-23T13:27:45.000Z</time>
      </trkpt>
      <trkpt lat="42.39227" lon="19.71605">
        <ele>1573.3299560547</ele>
        <time>2024-09-23T13:27:46.000Z</time>
      </trkpt>
      <trkpt lat="42.39224" lon="19.7161">
        <ele>1573.8199462891</ele>
        <time>2024-09-23T13:27:47.000Z</time>
      </trkpt>
      <trkpt lat="42.39219" lon="19.71611">
        <ele>1574.7800292969</ele>
        <time>2024-09-23T13:27:48.000Z</time>
      </trkpt>
      <trkpt lat="42.39212" lon="19.7161">
        <ele>1575.7399902344</ele>
        <time>2024-09-23T13:27:49.000Z</time>
      </trkpt>
      <trkpt lat="42.39207" lon="19.7161">
        <ele>1575.7399902344</ele>
        <time>2024-09-23T13:27:50.000Z</time>
      </trkpt>
      <trkpt lat="42.39185" lon="19.71613">
        <ele>1577.6600341797</ele>
        <time>2024-09-23T13:27:52.000Z</time>
      </trkpt>
      <trkpt lat="42.39175" lon="19.71614">
        <ele>1578.6199951172</ele>
        <time>2024-09-23T13:27:53.000Z</time>
      </trkpt>
      <trkpt lat="42.39173" lon="19.71615">
        <ele>1579.0999755859</ele>
        <time>2024-09-23T13:27:54.000Z</time>
      </trkpt>
      <trkpt lat="42.39167" lon="19.71617">
        <ele>1579.5799560547</ele>
        <time>2024-09-23T13:27:55.000Z</time>
      </trkpt>
      <trkpt lat="42.39163" lon="19.71621">
        <ele>1580.0600585938</ele>
        <time>2024-09-23T13:27:56.000Z</time>
      </trkpt>
      <trkpt lat="42.39161" lon="19.71627">
        <ele>1580.5400390625</ele>
        <time>2024-09-23T13:27:57.000Z</time>
      </trkpt>
      <trkpt lat="42.39162" lon="19.71636">
        <ele>1581.0300292969</ele>
        <time>2024-09-23T13:27:58.000Z</time>
      </trkpt>
      <trkpt lat="42.39165" lon="19.71642">
        <ele>1581.9899902344</ele>
        <time>2024-09-23T13:27:59.000Z</time>
      </trkpt>
      <trkpt lat="42.3917" lon="19.71649">
        <ele>1582.4699707031</ele>
        <time>2024-09-23T13:28:00.000Z</time>
      </trkpt>
      <trkpt lat="42.39174" lon="19.71655">
        <ele>1583.4300537109</ele>
        <time>2024-09-23T13:28:01.000Z</time>
      </trkpt>
      <trkpt lat="42.39175" lon="19.71661">
        <ele>1583.9100341797</ele>
        <time>2024-09-23T13:28:02.000Z</time>
      </trkpt>
      <trkpt lat="42.39174" lon="19.71668">
        <ele>1584.3900146484</ele>
        <time>2024-09-23T13:28:03.000Z</time>
      </trkpt>
      <trkpt lat="42.39169" lon="19.71674">
        <ele>1585.8299560547</ele>
        <time>2024-09-23T13:28:04.000Z</time>
      </trkpt>
      <trkpt lat="42.39161" lon="19.7168">
        <ele>1586.3100585938</ele>
        <time>2024-09-23T13:28:05.000Z</time>
      </trkpt>
      <trkpt lat="42.39147" lon="19.71689">
        <ele>1587.75</ele>
        <time>2024-09-23T13:28:06.000Z</time>
      </trkpt>
      <trkpt lat="42.39137" lon="19.71694">
        <ele>1588.7199707031</ele>
        <time>2024-09-23T13:28:07.000Z</time>
      </trkpt>
      <trkpt lat="42.3913" lon="19.71698">
        <ele>1589.1999511719</ele>
        <time>2024-09-23T13:28:08.000Z</time>
      </trkpt>
      <trkpt lat="42.39102" lon="19.71709">
        <ele>1591.5999755859</ele>
        <time>2024-09-23T13:28:10.000Z</time>
      </trkpt>
      <trkpt lat="42.39089" lon="19.71714">
        <ele>1592.5600585938</ele>
        <time>2024-09-23T13:28:11.000Z</time>
      </trkpt>
      <trkpt lat="42.39074" lon="19.71718">
        <ele>1593.5200195312</ele>
        <time>2024-09-23T13:28:12.000Z</time>
      </trkpt>
      <trkpt lat="42.39032" lon="19.71727">
        <ele>1597.3699951172</ele>
        <time>2024-09-23T13:28:14.000Z</time>
      </trkpt>
      <trkpt lat="42.39029" lon="19.71728">
        <ele>1597.8499755859</ele>
        <time>2024-09-23T13:28:15.000Z</time>
      </trkpt>
      <trkpt lat="42.39017" lon="19.71734">
        <ele>1599.2900390625</ele>
        <time>2024-09-23T13:28:16.000Z</time>
      </trkpt>
      <trkpt lat="42.39007" lon="19.71744">
        <ele>1601.2099609375</ele>
        <time>2024-09-23T13:28:17.000Z</time>
      </trkpt>
      <trkpt lat="42.38999" lon="19.71758">
        <ele>1602.6600341797</ele>
        <time>2024-09-23T13:28:18.000Z</time>
      </trkpt>
      <trkpt lat="42.38991" lon="19.71777">
        <ele>1604.0999755859</ele>
        <time>2024-09-23T13:28:19.000Z</time>
      </trkpt>
      <trkpt lat="42.38985" lon="19.71795">
        <ele>1605.0600585938</ele>
        <time>2024-09-23T13:28:20.000Z</time>
      </trkpt>
      <trkpt lat="42.38982" lon="19.71814">
        <ele>1606.0200195312</ele>
        <time>2024-09-23T13:28:21.000Z</time>
      </trkpt>
      <trkpt lat="42.38982" lon="19.71833">
        <ele>1606.0200195312</ele>
        <time>2024-09-23T13:28:22.000Z</time>
      </trkpt>
      <trkpt lat="42.38984" lon="19.71853">
        <ele>1606.9799804688</ele>
        <time>2024-09-23T13:28:23.000Z</time>
      </trkpt>
      <trkpt lat="42.38989" lon="19.71872">
        <ele>1608.4200439453</ele>
        <time>2024-09-23T13:28:24.000Z</time>
      </trkpt>
      <trkpt lat="42.38996" lon="19.7189">
        <ele>1609.3800048828</ele>
        <time>2024-09-23T13:28:25.000Z</time>
      </trkpt>
      <trkpt lat="42.39004" lon="19.71904">
        <ele>1610.8299560547</ele>
        <time>2024-09-23T13:28:26.000Z</time>
      </trkpt>
      <trkpt lat="42.39018" lon="19.7192">
        <ele>1611.7900390625</ele>
        <time>2024-09-23T13:28:27.000Z</time>
      </trkpt>
      <trkpt lat="42.39034" lon="19.71934">
        <ele>1613.2299804688</ele>
        <time>2024-09-23T13:28:28.000Z</time>
      </trkpt>
      <trkpt lat="42.3904" lon="19.7194">
        <ele>1613.7099609375</ele>
        <time>2024-09-23T13:28:29.000Z</time>
      </trkpt>
      <trkpt lat="42.39042" lon="19.71943">
        <ele>1614.1899414062</ele>
        <time>2024-09-23T13:28:30.000Z</time>
      </trkpt>
      <trkpt lat="42.39045" lon="19.71951">
        <ele>1614.6700439453</ele>
        <time>2024-09-23T13:28:31.000Z</time>
      </trkpt>
      <trkpt lat="42.39044" lon="19.71957">
        <ele>1615.6300048828</ele>
        <time>2024-09-23T13:28:32.000Z</time>
      </trkpt>
      <trkpt lat="42.39041" lon="19.71958">
        <ele>1615.6300048828</ele>
        <time>2024-09-23T13:28:33.000Z</time>
      </trkpt>
      <trkpt lat="42.39036" lon="19.71956">
        <ele>1616.1099853516</ele>
        <time>2024-09-23T13:28:34.000Z</time>
      </trkpt>
      <trkpt lat="42.39031" lon="19.7195">
        <ele>1617.0699462891</ele>
        <time>2024-09-23T13:28:35.000Z</time>
      </trkpt>
      <trkpt lat="42.39025" lon="19.71943">
        <ele>1617.5600585938</ele>
        <time>2024-09-23T13:28:36.000Z</time>
      </trkpt>
      <trkpt lat="42.39015" lon="19.71933">
        <ele>1619</ele>
        <time>2024-09-23T13:28:37.000Z</time>
      </trkpt>
      <trkpt lat="42.39005" lon="19.71927">
        <ele>1619.4799804688</ele>
        <time>2024-09-23T13:28:38.000Z</time>
      </trkpt>
      <trkpt lat="42.38983" lon="19.71912">
        <ele>1620.9200439453</ele>
        <time>2024-09-23T13:28:39.000Z</time>
      </trkpt>
      <trkpt lat="42.38981" lon="19.71911">
        <ele>1620.9200439453</ele>
        <time>2024-09-23T13:28:40.000Z</time>
      </trkpt>
      <trkpt lat="42.38973" lon="19.71902">
        <ele>1621.4000244141</ele>
        <time>2024-09-23T13:28:41.000Z</time>
      </trkpt>
      <trkpt lat="42.38967" lon="19.71893">
        <ele>1622.3599853516</ele>
        <time>2024-09-23T13:28:42.000Z</time>
      </trkpt>
      <trkpt lat="42.38964" lon="19.71889">
        <ele>1622.3599853516</ele>
        <time>2024-09-23T13:28:43.000Z</time>
      </trkpt>
      <trkpt lat="42.38959" lon="19.71889">
        <ele>1622.3599853516</ele>
        <time>2024-09-23T13:28:44.000Z</time>
      </trkpt>
      <trkpt lat="42.38956" lon="19.71893">
        <ele>1622.8399658203</ele>
        <time>2024-09-23T13:28:45.000Z</time>
      </trkpt>
      <trkpt lat="42.38955" lon="19.71899">
        <ele>1623.8000488281</ele>
        <time>2024-09-23T13:28:46.000Z</time>
      </trkpt>
      <trkpt lat="42.38958" lon="19.71906">
        <ele>1624.2800292969</ele>
        <time>2024-09-23T13:28:47.000Z</time>
      </trkpt>
      <trkpt lat="42.38963" lon="19.71914">
        <ele>1625.25</ele>
        <time>2024-09-23T13:28:48.000Z</time>
      </trkpt>
      <trkpt lat="42.39008" lon="19.71953">
        <ele>1629.5699462891</ele>
        <time>2024-09-23T13:28:52.000Z</time>
      </trkpt>
      <trkpt lat="42.39014" lon="19.71959">
        <ele>1630.0500488281</ele>
        <time>2024-09-23T13:28:53.000Z</time>
      </trkpt>
      <trkpt lat="42.39072" lon="19.72023">
        <ele>1636.7800292969</ele>
        <time>2024-09-23T13:28:57.000Z</time>
      </trkpt>
      <trkpt lat="42.39079" lon="19.7203">
        <ele>1637.2600097656</ele>
        <time>2024-09-23T13:28:58.000Z</time>
      </trkpt>
      <trkpt lat="42.39092" lon="19.7204">
        <ele>1638.6999511719</ele>
        <time>2024-09-23T13:28:59.000Z</time>
      </trkpt>
      <trkpt lat="42.39096" lon="19.72042">
        <ele>1639.1899414062</ele>
        <time>2024-09-23T13:29:00.000Z</time>
      </trkpt>
      <trkpt lat="42.39099" lon="19.72048">
        <ele>1640.1500244141</ele>
        <time>2024-09-23T13:29:01.000Z</time>
      </trkpt>
      <trkpt lat="42.39099" lon="19.72054">
        <ele>1641.1099853516</ele>
        <time>2024-09-23T13:29:02.000Z</time>
      </trkpt>
      <trkpt lat="42.39095" lon="19.72058">
        <ele>1641.5899658203</ele>
        <time>2024-09-23T13:29:03.000Z</time>
      </trkpt>
      <trkpt lat="42.3909" lon="19.72057">
        <ele>1642.0699462891</ele>
        <time>2024-09-23T13:29:04.000Z</time>
      </trkpt>
      <trkpt lat="42.39085" lon="19.72052">
        <ele>1643.0300292969</ele>
        <time>2024-09-23T13:29:05.000Z</time>
      </trkpt>
      <trkpt lat="42.39074" lon="19.7204">
        <ele>1644.4699707031</ele>
        <time>2024-09-23T13:29:06.000Z</time>
      </trkpt>
      <trkpt lat="42.39054" lon="19.72021">
        <ele>1646.4000244141</ele>
        <time>2024-09-23T13:29:08.000Z</time>
      </trkpt>
      <trkpt lat="42.39052" lon="19.7202">
        <ele>1646.8800048828</ele>
        <time>2024-09-23T13:29:09.000Z</time>
      </trkpt>
      <trkpt lat="42.39041" lon="19.72012">
        <ele>1647.8399658203</ele>
        <time>2024-09-23T13:29:10.000Z</time>
      </trkpt>
      <trkpt lat="42.38999" lon="19.71993">
        <ele>1652.6400146484</ele>
        <time>2024-09-23T13:29:13.000Z</time>
      </trkpt>
      <trkpt lat="42.38989" lon="19.7199">
        <ele>1653.5999755859</ele>
        <time>2024-09-23T13:29:14.000Z</time>
      </trkpt>
      <trkpt lat="42.38961" lon="19.71983">
        <ele>1656.0100097656</ele>
        <time>2024-09-23T13:29:16.000Z</time>
      </trkpt>
      <trkpt lat="42.38946" lon="19.71977">
        <ele>1657.4499511719</ele>
        <time>2024-09-23T13:29:17.000Z</time>
      </trkpt>
      <trkpt lat="42.38926" lon="19.71966">
        <ele>1660.3299560547</ele>
        <time>2024-09-23T13:29:18.000Z</time>
      </trkpt>
      <trkpt lat="42.38918" lon="19.71962">
        <ele>1661.7800292969</ele>
        <time>2024-09-23T13:29:19.000Z</time>
      </trkpt>
      <trkpt lat="42.38906" lon="19.71959">
        <ele>1663.2199707031</ele>
        <time>2024-09-23T13:29:20.000Z</time>
      </trkpt>
      <trkpt lat="42.38875" lon="19.71955">
        <ele>1667.0600585938</ele>
        <time>2024-09-23T13:29:22.000Z</time>
      </trkpt>
      <trkpt lat="42.38868" lon="19.71954">
        <ele>1667.5400390625</ele>
        <time>2024-09-23T13:29:23.000Z</time>
      </trkpt>
      <trkpt lat="42.38867" lon="19.71954">
        <ele>1667.5400390625</ele>
        <time>2024-09-23T13:29:24.000Z</time>
      </trkpt>
      <trkpt lat="42.3886" lon="19.71952">
        <ele>1668.0200195312</ele>
        <time>2024-09-23T13:29:25.000Z</time>
      </trkpt>
      <trkpt lat="42.38847" lon="19.71967">
        <ele>1667.0600585938</ele>
        <time>2024-09-23T13:29:30.000Z</time>
      </trkpt>
      <trkpt lat="42.38845" lon="19.71973">
        <ele>1667.0600585938</ele>
        <time>2024-09-23T13:29:31.000Z</time>
      </trkpt>
      <trkpt lat="42.38845" lon="19.71979">
        <ele>1667.0600585938</ele>
        <time>2024-09-23T13:29:32.000Z</time>
      </trkpt>
      <trkpt lat="42.38845" lon="19.71986">
        <ele>1667.0600585938</ele>
        <time>2024-09-23T13:29:33.000Z</time>
      </trkpt>
      <trkpt lat="42.38847" lon="19.71993">
        <ele>1667.5400390625</ele>
        <time>2024-09-23T13:29:34.000Z</time>
      </trkpt>
      <trkpt lat="42.3885" lon="19.72">
        <ele>1667.5400390625</ele>
        <time>2024-09-23T13:29:35.000Z</time>
      </trkpt>
      <trkpt lat="42.38854" lon="19.72008">
        <ele>1668.0200195312</ele>
        <time>2024-09-23T13:29:36.000Z</time>
      </trkpt>
      <trkpt lat="42.38857" lon="19.72013">
        <ele>1668.0200195312</ele>
        <time>2024-09-23T13:29:37.000Z</time>
      </trkpt>
      <trkpt lat="42.3886" lon="19.72022">
        <ele>1668.5100097656</ele>
        <time>2024-09-23T13:29:38.000Z</time>
      </trkpt>
      <trkpt lat="42.38862" lon="19.72026">
        <ele>1668.5100097656</ele>
        <time>2024-09-23T13:29:39.000Z</time>
      </trkpt>
      <trkpt lat="42.38866" lon="19.72035">
        <ele>1668.9899902344</ele>
        <time>2024-09-23T13:29:40.000Z</time>
      </trkpt>
      <trkpt lat="42.38868" lon="19.72038">
        <ele>1668.9899902344</ele>
        <time>2024-09-23T13:29:41.000Z</time>
      </trkpt>
      <trkpt lat="42.38871" lon="19.72045">
        <ele>1669.4699707031</ele>
        <time>2024-09-23T13:29:42.000Z</time>
      </trkpt>
      <trkpt lat="42.38887" lon="19.72074">
        <ele>1670.9100341797</ele>
        <time>2024-09-23T13:29:45.000Z</time>
      </trkpt>
      <trkpt lat="42.38892" lon="19.72083">
        <ele>1670.9100341797</ele>
        <time>2024-09-23T13:29:46.000Z</time>
      </trkpt>
      <trkpt lat="42.38897" lon="19.72091">
        <ele>1671.3900146484</ele>
        <time>2024-09-23T13:29:47.000Z</time>
      </trkpt>
      <trkpt lat="42.38907" lon="19.72105">
        <ele>1671.8699951172</ele>
        <time>2024-09-23T13:29:48.000Z</time>
      </trkpt>
      <trkpt lat="42.38912" lon="19.72113">
        <ele>1672.3499755859</ele>
        <time>2024-09-23T13:29:49.000Z</time>
      </trkpt>
      <trkpt lat="42.38918" lon="19.72127">
        <ele>1673.3100585938</ele>
        <time>2024-09-23T13:29:50.000Z</time>
      </trkpt>
      <trkpt lat="42.38922" lon="19.72143">
        <ele>1673.7900390625</ele>
        <time>2024-09-23T13:29:51.000Z</time>
      </trkpt>
      <trkpt lat="42.38924" lon="19.7216">
        <ele>1674.75</ele>
        <time>2024-09-23T13:29:52.000Z</time>
      </trkpt>
      <trkpt lat="42.38923" lon="19.72202">
        <ele>1677.1600341797</ele>
        <time>2024-09-23T13:29:54.000Z</time>
      </trkpt>
      <trkpt lat="42.38923" lon="19.72221">
        <ele>1678.1199951172</ele>
        <time>2024-09-23T13:29:55.000Z</time>
      </trkpt>
      <trkpt lat="42.38925" lon="19.72252">
        <ele>1680.0400390625</ele>
        <time>2024-09-23T13:29:56.000Z</time>
      </trkpt>
      <trkpt lat="42.38926" lon="19.72266">
        <ele>1680.5200195312</ele>
        <time>2024-09-23T13:29:57.000Z</time>
      </trkpt>
      <trkpt lat="42.3893" lon="19.7231">
        <ele>1682.9300537109</ele>
        <time>2024-09-23T13:29:59.000Z</time>
      </trkpt>
      <trkpt lat="42.38931" lon="19.72319">
        <ele>1683.4100341797</ele>
        <time>2024-09-23T13:30:00.000Z</time>
      </trkpt>
      <trkpt lat="42.38932" lon="19.72338">
        <ele>1684.3699951172</ele>
        <time>2024-09-23T13:30:01.000Z</time>
      </trkpt>
      <trkpt lat="42.38931" lon="19.72374">
        <ele>1685.3299560547</ele>
        <time>2024-09-23T13:30:03.000Z</time>
      </trkpt>
      <trkpt lat="42.38932" lon="19.72388">
        <ele>1685.8100585938</ele>
        <time>2024-09-23T13:30:04.000Z</time>
      </trkpt>
      <trkpt lat="42.38937" lon="19.72428">
        <ele>1686.2900390625</ele>
        <time>2024-09-23T13:30:06.000Z</time>
      </trkpt>
      <trkpt lat="42.38937" lon="19.72432">
        <ele>1686.7700195312</ele>
        <time>2024-09-23T13:30:07.000Z</time>
      </trkpt>
      <trkpt lat="42.38938" lon="19.72441">
        <ele>1686.7700195312</ele>
        <time>2024-09-23T13:30:08.000Z</time>
      </trkpt>
      <trkpt lat="42.38937" lon="19.72455">
        <ele>1686.2900390625</ele>
        <time>2024-09-23T13:30:09.000Z</time>
      </trkpt>
      <trkpt lat="42.38936" lon="19.72465">
        <ele>1686.2900390625</ele>
        <time>2024-09-23T13:30:10.000Z</time>
      </trkpt>
      <trkpt lat="42.38933" lon="19.72474">
        <ele>1685.8100585938</ele>
        <time>2024-09-23T13:30:11.000Z</time>
      </trkpt>
      <trkpt lat="42.38907" lon="19.72563">
        <ele>1681.4799804688</ele>
        <time>2024-09-23T13:30:19.000Z</time>
      </trkpt>
      <trkpt lat="42.38905" lon="19.72576">
        <ele>1681</ele>
        <time>2024-09-23T13:30:20.000Z</time>
      </trkpt>
      <trkpt lat="42.38899" lon="19.72618">
        <ele>1679.5600585938</ele>
        <time>2024-09-23T13:30:24.000Z</time>
      </trkpt>
      <trkpt lat="42.38899" lon="19.72626">
        <ele>1679.0799560547</ele>
        <time>2024-09-23T13:30:25.000Z</time>
      </trkpt>
      <trkpt lat="42.389" lon="19.72634">
        <ele>1678.5999755859</ele>
        <time>2024-09-23T13:30:26.000Z</time>
      </trkpt>
      <trkpt lat="42.38905" lon="19.72642">
        <ele>1678.5999755859</ele>
        <time>2024-09-23T13:30:27.000Z</time>
      </trkpt>
      <trkpt lat="42.38911" lon="19.72649">
        <ele>1678.1199951172</ele>
        <time>2024-09-23T13:30:28.000Z</time>
      </trkpt>
      <trkpt lat="42.3892" lon="19.72656">
        <ele>1677.6400146484</ele>
        <time>2024-09-23T13:30:29.000Z</time>
      </trkpt>
      <trkpt lat="42.38923" lon="19.72658">
        <ele>1677.6400146484</ele>
        <time>2024-09-23T13:30:30.000Z</time>
      </trkpt>
      <trkpt lat="42.38926" lon="19.72661">
        <ele>1677.6400146484</ele>
        <time>2024-09-23T13:30:31.000Z</time>
      </trkpt>
      <trkpt lat="42.38942" lon="19.72678">
        <ele>1676.6800537109</ele>
        <time>2024-09-23T13:30:38.000Z</time>
      </trkpt>
      <trkpt lat="42.3895" lon="19.72695">
        <ele>1676.1999511719</ele>
        <time>2024-09-23T13:30:46.000Z</time>
      </trkpt>
      <trkpt lat="42.3895" lon="19.72698">
        <ele>1676.6800537109</ele>
        <time>2024-09-23T13:30:56.000Z</time>
      </trkpt>
      <trkpt lat="42.3895" lon="19.727">
        <ele>1676.6800537109</ele>
        <time>2024-09-23T13:31:53.000Z</time>
      </trkpt>
      <trkpt lat="42.38956" lon="19.72701">
        <ele>1681</ele>
        <time>2024-09-23T13:48:04.000Z</time>
      </trkpt>
      <trkpt lat="42.38955" lon="19.7271">
        <ele>1681</ele>
        <time>2024-09-23T13:48:06.000Z</time>
      </trkpt>
      <trkpt lat="42.38956" lon="19.72714">
        <ele>1681</ele>
        <time>2024-09-23T13:48:07.000Z</time>
      </trkpt>
      <trkpt lat="42.38957" lon="19.72722">
        <ele>1681.4799804688</ele>
        <time>2024-09-23T13:48:08.000Z</time>
      </trkpt>
      <trkpt lat="42.38957" lon="19.72732">
        <ele>1681.4799804688</ele>
        <time>2024-09-23T13:48:09.000Z</time>
      </trkpt>
      <trkpt lat="42.38956" lon="19.72739">
        <ele>1681.9599609375</ele>
        <time>2024-09-23T13:48:10.000Z</time>
      </trkpt>
      <trkpt lat="42.38956" lon="19.72745">
        <ele>1682.4399414062</ele>
        <time>2024-09-23T13:48:11.000Z</time>
      </trkpt>
      <trkpt lat="42.38954" lon="19.72752">
        <ele>1682.9300537109</ele>
        <time>2024-09-23T13:48:12.000Z</time>
      </trkpt>
      <trkpt lat="42.38953" lon="19.72759">
        <ele>1683.4100341797</ele>
        <time>2024-09-23T13:48:13.000Z</time>
      </trkpt>
      <trkpt lat="42.38951" lon="19.72766">
        <ele>1683.8900146484</ele>
        <time>2024-09-23T13:48:14.000Z</time>
      </trkpt>
      <trkpt lat="42.38947" lon="19.72777">
        <ele>1684.3699951172</ele>
        <time>2024-09-23T13:48:15.000Z</time>
      </trkpt>
      <trkpt lat="42.38945" lon="19.72782">
        <ele>1684.8499755859</ele>
        <time>2024-09-23T13:48:16.000Z</time>
      </trkpt>
      <trkpt lat="42.38942" lon="19.7279">
        <ele>1685.8100585938</ele>
        <time>2024-09-23T13:48:17.000Z</time>
      </trkpt>
      <trkpt lat="42.38938" lon="19.72798">
        <ele>1686.2900390625</ele>
        <time>2024-09-23T13:48:18.000Z</time>
      </trkpt>
      <trkpt lat="42.38935" lon="19.72805">
        <ele>1686.2900390625</ele>
        <time>2024-09-23T13:48:19.000Z</time>
      </trkpt>
      <trkpt lat="42.3893" lon="19.72814">
        <ele>1686.7700195312</ele>
        <time>2024-09-23T13:48:20.000Z</time>
      </trkpt>
      <trkpt lat="42.38923" lon="19.7283">
        <ele>1686.7700195312</ele>
        <time>2024-09-23T13:48:22.000Z</time>
      </trkpt>
      <trkpt lat="42.38917" lon="19.72842">
        <ele>1687.25</ele>
        <time>2024-09-23T13:48:23.000Z</time>
      </trkpt>
      <trkpt lat="42.38908" lon="19.72861">
        <ele>1687.25</ele>
        <time>2024-09-23T13:48:25.000Z</time>
      </trkpt>
      <trkpt lat="42.38891" lon="19.72897">
        <ele>1687.7299804688</ele>
        <time>2024-09-23T13:48:28.000Z</time>
      </trkpt>
      <trkpt lat="42.38882" lon="19.72916">
        <ele>1688.2099609375</ele>
        <time>2024-09-23T13:48:29.000Z</time>
      </trkpt>
      <trkpt lat="42.38878" lon="19.72928">
        <ele>1688.2099609375</ele>
        <time>2024-09-23T13:48:30.000Z</time>
      </trkpt>
      <trkpt lat="42.38875" lon="19.72944">
        <ele>1689.1700439453</ele>
        <time>2024-09-23T13:48:31.000Z</time>
      </trkpt>
      <trkpt lat="42.38874" lon="19.72966">
        <ele>1689.6500244141</ele>
        <time>2024-09-23T13:48:32.000Z</time>
      </trkpt>
      <trkpt lat="42.38872" lon="19.72981">
        <ele>1689.6500244141</ele>
        <time>2024-09-23T13:48:33.000Z</time>
      </trkpt>
      <trkpt lat="42.38862" lon="19.73014">
        <ele>1690.1400146484</ele>
        <time>2024-09-23T13:48:34.000Z</time>
      </trkpt>
      <trkpt lat="42.38861" lon="19.73018">
        <ele>1690.6199951172</ele>
        <time>2024-09-23T13:48:35.000Z</time>
      </trkpt>
      <trkpt lat="42.38858" lon="19.7304">
        <ele>1690.6199951172</ele>
        <time>2024-09-23T13:48:36.000Z</time>
      </trkpt>
      <trkpt lat="42.38857" lon="19.73059">
        <ele>1690.6199951172</ele>
        <time>2024-09-23T13:48:37.000Z</time>
      </trkpt>
      <trkpt lat="42.38853" lon="19.73086">
        <ele>1691.5799560547</ele>
        <time>2024-09-23T13:48:38.000Z</time>
      </trkpt>
      <trkpt lat="42.38848" lon="19.73107">
        <ele>1691.5799560547</ele>
        <time>2024-09-23T13:48:39.000Z</time>
      </trkpt>
      <trkpt lat="42.38842" lon="19.73126">
        <ele>1691.5799560547</ele>
        <time>2024-09-23T13:48:40.000Z</time>
      </trkpt>
      <trkpt lat="42.38833" lon="19.73149">
        <ele>1691.5799560547</ele>
        <time>2024-09-23T13:48:41.000Z</time>
      </trkpt>
      <trkpt lat="42.3882" lon="19.73175">
        <ele>1691.5799560547</ele>
        <time>2024-09-23T13:48:42.000Z</time>
      </trkpt>
      <trkpt lat="42.38813" lon="19.73192">
        <ele>1691.5799560547</ele>
        <time>2024-09-23T13:48:43.000Z</time>
      </trkpt>
      <trkpt lat="42.38807" lon="19.7321">
        <ele>1692.0600585938</ele>
        <time>2024-09-23T13:48:44.000Z</time>
      </trkpt>
      <trkpt lat="42.388" lon="19.73231">
        <ele>1692.5400390625</ele>
        <time>2024-09-23T13:48:45.000Z</time>
      </trkpt>
      <trkpt lat="42.38794" lon="19.7326">
        <ele>1693.5</ele>
        <time>2024-09-23T13:48:46.000Z</time>
      </trkpt>
      <trkpt lat="42.38793" lon="19.73267">
        <ele>1693.5</ele>
        <time>2024-09-23T13:48:47.000Z</time>
      </trkpt>
      <trkpt lat="42.38789" lon="19.7328">
        <ele>1694.4599609375</ele>
        <time>2024-09-23T13:48:48.000Z</time>
      </trkpt>
      <trkpt lat="42.38783" lon="19.73291">
        <ele>1694.9399414062</ele>
        <time>2024-09-23T13:48:49.000Z</time>
      </trkpt>
      <trkpt lat="42.38774" lon="19.73301">
        <ele>1695.4200439453</ele>
        <time>2024-09-23T13:48:50.000Z</time>
      </trkpt>
      <trkpt lat="42.38767" lon="19.73316">
        <ele>1695.9000244141</ele>
        <time>2024-09-23T13:48:51.000Z</time>
      </trkpt>
      <trkpt lat="42.38761" lon="19.73335">
        <ele>1696.3800048828</ele>
        <time>2024-09-23T13:48:52.000Z</time>
      </trkpt>
      <trkpt lat="42.38757" lon="19.73352">
        <ele>1696.8599853516</ele>
        <time>2024-09-23T13:48:53.000Z</time>
      </trkpt>
      <trkpt lat="42.38753" lon="19.73368">
        <ele>1697.8299560547</ele>
        <time>2024-09-23T13:48:54.000Z</time>
      </trkpt>
      <trkpt lat="42.38747" lon="19.73381">
        <ele>1698.3100585938</ele>
        <time>2024-09-23T13:48:55.000Z</time>
      </trkpt>
      <trkpt lat="42.38735" lon="19.73395">
        <ele>1698.3100585938</ele>
        <time>2024-09-23T13:48:56.000Z</time>
      </trkpt>
      <trkpt lat="42.38729" lon="19.73409">
        <ele>1697.8299560547</ele>
        <time>2024-09-23T13:48:57.000Z</time>
      </trkpt>
      <trkpt lat="42.38719" lon="19.73436">
        <ele>1697.3399658203</ele>
        <time>2024-09-23T13:48:58.000Z</time>
      </trkpt>
      <trkpt lat="42.38715" lon="19.73445">
        <ele>1696.8599853516</ele>
        <time>2024-09-23T13:48:59.000Z</time>
      </trkpt>
      <trkpt lat="42.38707" lon="19.73462">
        <ele>1696.8599853516</ele>
        <time>2024-09-23T13:49:00.000Z</time>
      </trkpt>
      <trkpt lat="42.387" lon="19.73475">
        <ele>1696.8599853516</ele>
        <time>2024-09-23T13:49:01.000Z</time>
      </trkpt>
      <trkpt lat="42.38693" lon="19.73489">
        <ele>1695.9000244141</ele>
        <time>2024-09-23T13:49:02.000Z</time>
      </trkpt>
      <trkpt lat="42.38688" lon="19.735">
        <ele>1694.9399414062</ele>
        <time>2024-09-23T13:49:03.000Z</time>
      </trkpt>
      <trkpt lat="42.38687" lon="19.73514">
        <ele>1694.4599609375</ele>
        <time>2024-09-23T13:49:04.000Z</time>
      </trkpt>
      <trkpt lat="42.38689" lon="19.73539">
        <ele>1693.5</ele>
        <time>2024-09-23T13:49:05.000Z</time>
      </trkpt>
      <trkpt lat="42.38689" lon="19.7355">
        <ele>1693.0200195312</ele>
        <time>2024-09-23T13:49:06.000Z</time>
      </trkpt>
      <trkpt lat="42.38689" lon="19.73565">
        <ele>1692.5400390625</ele>
        <time>2024-09-23T13:49:07.000Z</time>
      </trkpt>
      <trkpt lat="42.38685" lon="19.73581">
        <ele>1691.0999755859</ele>
        <time>2024-09-23T13:49:08.000Z</time>
      </trkpt>
      <trkpt lat="42.3868" lon="19.73595">
        <ele>1689.1700439453</ele>
        <time>2024-09-23T13:49:09.000Z</time>
      </trkpt>
      <trkpt lat="42.38674" lon="19.73606">
        <ele>1687.7299804688</ele>
        <time>2024-09-23T13:49:10.000Z</time>
      </trkpt>
      <trkpt lat="42.38672" lon="19.73615">
        <ele>1687.25</ele>
        <time>2024-09-23T13:49:11.000Z</time>
      </trkpt>
      <trkpt lat="42.38674" lon="19.73624">
        <ele>1686.2900390625</ele>
        <time>2024-09-23T13:49:12.000Z</time>
      </trkpt>
      <trkpt lat="42.38681" lon="19.73632">
        <ele>1685.3299560547</ele>
        <time>2024-09-23T13:49:13.000Z</time>
      </trkpt>
      <trkpt lat="42.38691" lon="19.7364">
        <ele>1684.3699951172</ele>
        <time>2024-09-23T13:49:14.000Z</time>
      </trkpt>
      <trkpt lat="42.38702" lon="19.73647">
        <ele>1682.9300537109</ele>
        <time>2024-09-23T13:49:15.000Z</time>
      </trkpt>
      <trkpt lat="42.38713" lon="19.7365">
        <ele>1681.9599609375</ele>
        <time>2024-09-23T13:49:16.000Z</time>
      </trkpt>
      <trkpt lat="42.38723" lon="19.7365">
        <ele>1681</ele>
        <time>2024-09-23T13:49:17.000Z</time>
      </trkpt>
      <trkpt lat="42.38735" lon="19.73647">
        <ele>1679.5600585938</ele>
        <time>2024-09-23T13:49:18.000Z</time>
      </trkpt>
      <trkpt lat="42.38743" lon="19.73647">
        <ele>1679.0799560547</ele>
        <time>2024-09-23T13:49:19.000Z</time>
      </trkpt>
      <trkpt lat="42.3875" lon="19.7365">
        <ele>1677.6400146484</ele>
        <time>2024-09-23T13:49:20.000Z</time>
      </trkpt>
      <trkpt lat="42.38755" lon="19.7366">
        <ele>1677.6400146484</ele>
        <time>2024-09-23T13:49:21.000Z</time>
      </trkpt>
      <trkpt lat="42.38758" lon="19.73675">
        <ele>1677.6400146484</ele>
        <time>2024-09-23T13:49:22.000Z</time>
      </trkpt>
      <trkpt lat="42.3876" lon="19.73694">
        <ele>1677.1600341797</ele>
        <time>2024-09-23T13:49:23.000Z</time>
      </trkpt>
      <trkpt lat="42.38765" lon="19.73714">
        <ele>1675.7199707031</ele>
        <time>2024-09-23T13:49:24.000Z</time>
      </trkpt>
      <trkpt lat="42.38778" lon="19.73748">
        <ele>1674.2700195312</ele>
        <time>2024-09-23T13:49:25.000Z</time>
      </trkpt>
      <trkpt lat="42.3878" lon="19.73754">
        <ele>1674.2700195312</ele>
        <time>2024-09-23T13:49:26.000Z</time>
      </trkpt>
      <trkpt lat="42.38784" lon="19.73773">
        <ele>1673.7900390625</ele>
        <time>2024-09-23T13:49:27.000Z</time>
      </trkpt>
      <trkpt lat="42.38786" lon="19.73794">
        <ele>1673.7900390625</ele>
        <time>2024-09-23T13:49:28.000Z</time>
      </trkpt>
      <trkpt lat="42.38784" lon="19.73813">
        <ele>1673.3100585938</ele>
        <time>2024-09-23T13:49:29.000Z</time>
      </trkpt>
      <trkpt lat="42.3878" lon="19.73842">
        <ele>1671.8699951172</ele>
        <time>2024-09-23T13:49:30.000Z</time>
      </trkpt>
      <trkpt lat="42.3878" lon="19.73864">
        <ele>1670.9100341797</ele>
        <time>2024-09-23T13:49:31.000Z</time>
      </trkpt>
      <trkpt lat="42.38782" lon="19.73887">
        <ele>1669.9499511719</ele>
        <time>2024-09-23T13:49:32.000Z</time>
      </trkpt>
      <trkpt lat="42.38785" lon="19.73913">
        <ele>1668.9899902344</ele>
        <time>2024-09-23T13:49:33.000Z</time>
      </trkpt>
      <trkpt lat="42.38786" lon="19.73941">
        <ele>1668.5100097656</ele>
        <time>2024-09-23T13:49:34.000Z</time>
      </trkpt>
      <trkpt lat="42.38784" lon="19.7397">
        <ele>1667.5400390625</ele>
        <time>2024-09-23T13:49:35.000Z</time>
      </trkpt>
      <trkpt lat="42.38784" lon="19.73996">
        <ele>1668.0200195312</ele>
        <time>2024-09-23T13:49:36.000Z</time>
      </trkpt>
      <trkpt lat="42.38785" lon="19.74018">
        <ele>1668.5100097656</ele>
        <time>2024-09-23T13:49:37.000Z</time>
      </trkpt>
      <trkpt lat="42.38784" lon="19.74047">
        <ele>1668.9899902344</ele>
        <time>2024-09-23T13:49:38.000Z</time>
      </trkpt>
      <trkpt lat="42.38784" lon="19.74062">
        <ele>1668.9899902344</ele>
        <time>2024-09-23T13:49:39.000Z</time>
      </trkpt>
      <trkpt lat="42.38786" lon="19.74075">
        <ele>1668.5100097656</ele>
        <time>2024-09-23T13:49:40.000Z</time>
      </trkpt>
      <trkpt lat="42.38792" lon="19.74086">
        <ele>1668.0200195312</ele>
        <time>2024-09-23T13:49:41.000Z</time>
      </trkpt>
      <trkpt lat="42.38804" lon="19.74095">
        <ele>1667.5400390625</ele>
        <time>2024-09-23T13:49:42.000Z</time>
      </trkpt>
      <trkpt lat="42.38817" lon="19.74104">
        <ele>1667.5400390625</ele>
        <time>2024-09-23T13:49:43.000Z</time>
      </trkpt>
      <trkpt lat="42.38828" lon="19.74116">
        <ele>1667.0600585938</ele>
        <time>2024-09-23T13:49:44.000Z</time>
      </trkpt>
      <trkpt lat="42.3884" lon="19.74138">
        <ele>1666.0999755859</ele>
        <time>2024-09-23T13:49:45.000Z</time>
      </trkpt>
      <trkpt lat="42.38845" lon="19.74146">
        <ele>1665.6199951172</ele>
        <time>2024-09-23T13:49:46.000Z</time>
      </trkpt>
      <trkpt lat="42.38857" lon="19.74159">
        <ele>1666.0999755859</ele>
        <time>2024-09-23T13:49:47.000Z</time>
      </trkpt>
      <trkpt lat="42.38862" lon="19.74166">
        <ele>1665.6199951172</ele>
        <time>2024-09-23T13:49:48.000Z</time>
      </trkpt>
      <trkpt lat="42.38865" lon="19.74177">
        <ele>1665.1400146484</ele>
        <time>2024-09-23T13:49:49.000Z</time>
      </trkpt>
      <trkpt lat="42.38865" lon="19.7419">
        <ele>1664.6600341797</ele>
        <time>2024-09-23T13:49:50.000Z</time>
      </trkpt>
      <trkpt lat="42.3886" lon="19.74203">
        <ele>1664.6600341797</ele>
        <time>2024-09-23T13:49:51.000Z</time>
      </trkpt>
      <trkpt lat="42.38852" lon="19.74224">
        <ele>1664.6600341797</ele>
        <time>2024-09-23T13:49:52.000Z</time>
      </trkpt>
      <trkpt lat="42.38828" lon="19.7431">
        <ele>1664.6600341797</ele>
        <time>2024-09-23T13:49:55.000Z</time>
      </trkpt>
      <trkpt lat="42.38825" lon="19.74319">
        <ele>1664.1800537109</ele>
        <time>2024-09-23T13:49:56.000Z</time>
      </trkpt>
      <trkpt lat="42.38817" lon="19.74339">
        <ele>1664.1800537109</ele>
        <time>2024-09-23T13:49:57.000Z</time>
      </trkpt>
      <trkpt lat="42.38806" lon="19.74354">
        <ele>1664.1800537109</ele>
        <time>2024-09-23T13:49:58.000Z</time>
      </trkpt>
      <trkpt lat="42.38788" lon="19.74378">
        <ele>1662.7399902344</ele>
        <time>2024-09-23T13:49:59.000Z</time>
      </trkpt>
      <trkpt lat="42.38776" lon="19.74396">
        <ele>1661.3000488281</ele>
        <time>2024-09-23T13:50:00.000Z</time>
      </trkpt>
      <trkpt lat="42.3876" lon="19.74425">
        <ele>1658.8900146484</ele>
        <time>2024-09-23T13:50:01.000Z</time>
      </trkpt>
      <trkpt lat="42.38756" lon="19.74433">
        <ele>1658.4100341797</ele>
        <time>2024-09-23T13:50:02.000Z</time>
      </trkpt>
      <trkpt lat="42.38746" lon="19.74454">
        <ele>1656.4899902344</ele>
        <time>2024-09-23T13:50:03.000Z</time>
      </trkpt>
      <trkpt lat="42.3874" lon="19.74474">
        <ele>1655.0500488281</ele>
        <time>2024-09-23T13:50:04.000Z</time>
      </trkpt>
      <trkpt lat="42.38736" lon="19.74489">
        <ele>1653.5999755859</ele>
        <time>2024-09-23T13:50:05.000Z</time>
      </trkpt>
      <trkpt lat="42.38734" lon="19.74506">
        <ele>1652.6400146484</ele>
        <time>2024-09-23T13:50:06.000Z</time>
      </trkpt>
      <trkpt lat="42.38736" lon="19.74521">
        <ele>1651.6800537109</ele>
        <time>2024-09-23T13:50:07.000Z</time>
      </trkpt>
      <trkpt lat="42.38741" lon="19.74534">
        <ele>1650.7199707031</ele>
        <time>2024-09-23T13:50:08.000Z</time>
      </trkpt>
      <trkpt lat="42.38751" lon="19.74552">
        <ele>1649.2800292969</ele>
        <time>2024-09-23T13:50:09.000Z</time>
      </trkpt>
      <trkpt lat="42.38752" lon="19.74559">
        <ele>1648.3199462891</ele>
        <time>2024-09-23T13:50:10.000Z</time>
      </trkpt>
      <trkpt lat="42.38753" lon="19.7457">
        <ele>1647.8399658203</ele>
        <time>2024-09-23T13:50:11.000Z</time>
      </trkpt>
      <trkpt lat="42.38753" lon="19.74581">
        <ele>1646.8800048828</ele>
        <time>2024-09-23T13:50:12.000Z</time>
      </trkpt>
      <trkpt lat="42.38749" lon="19.74592">
        <ele>1646.8800048828</ele>
        <time>2024-09-23T13:50:13.000Z</time>
      </trkpt>
      <trkpt lat="42.38742" lon="19.74605">
        <ele>1646.4000244141</ele>
        <time>2024-09-23T13:50:14.000Z</time>
      </trkpt>
      <trkpt lat="42.38725" lon="19.74627">
        <ele>1645.9100341797</ele>
        <time>2024-09-23T13:50:15.000Z</time>
      </trkpt>
      <trkpt lat="42.38718" lon="19.74643">
        <ele>1644.9499511719</ele>
        <time>2024-09-23T13:50:16.000Z</time>
      </trkpt>
      <trkpt lat="42.38712" lon="19.74665">
        <ele>1643.9899902344</ele>
        <time>2024-09-23T13:50:17.000Z</time>
      </trkpt>
      <trkpt lat="42.38707" lon="19.74696">
        <ele>1642.0699462891</ele>
        <time>2024-09-23T13:50:18.000Z</time>
      </trkpt>
      <trkpt lat="42.38704" lon="19.74709">
        <ele>1641.1099853516</ele>
        <time>2024-09-23T13:50:19.000Z</time>
      </trkpt>
      <trkpt lat="42.38699" lon="19.74727">
        <ele>1639.1899414062</ele>
        <time>2024-09-23T13:50:20.000Z</time>
      </trkpt>
      <trkpt lat="42.38693" lon="19.74741">
        <ele>1638.6999511719</ele>
        <time>2024-09-23T13:50:21.000Z</time>
      </trkpt>
      <trkpt lat="42.38685" lon="19.74751">
        <ele>1638.2199707031</ele>
        <time>2024-09-23T13:50:22.000Z</time>
      </trkpt>
      <trkpt lat="42.38675" lon="19.74758">
        <ele>1637.2600097656</ele>
        <time>2024-09-23T13:50:23.000Z</time>
      </trkpt>
      <trkpt lat="42.38661" lon="19.74763">
        <ele>1635.8199462891</ele>
        <time>2024-09-23T13:50:24.000Z</time>
      </trkpt>
      <trkpt lat="42.38643" lon="19.74769">
        <ele>1635.3399658203</ele>
        <time>2024-09-23T13:50:25.000Z</time>
      </trkpt>
      <trkpt lat="42.38625" lon="19.74779">
        <ele>1633.9000244141</ele>
        <time>2024-09-23T13:50:26.000Z</time>
      </trkpt>
      <trkpt lat="42.38604" lon="19.74797">
        <ele>1631.9799804688</ele>
        <time>2024-09-23T13:50:27.000Z</time>
      </trkpt>
      <trkpt lat="42.3859" lon="19.74811">
        <ele>1630.0500488281</ele>
        <time>2024-09-23T13:50:28.000Z</time>
      </trkpt>
      <trkpt lat="42.38566" lon="19.7484">
        <ele>1627.6500244141</ele>
        <time>2024-09-23T13:50:29.000Z</time>
      </trkpt>
      <trkpt lat="42.38561" lon="19.74846">
        <ele>1627.1700439453</ele>
        <time>2024-09-23T13:50:30.000Z</time>
      </trkpt>
      <trkpt lat="42.38543" lon="19.74863">
        <ele>1626.2099609375</ele>
        <time>2024-09-23T13:50:31.000Z</time>
      </trkpt>
      <trkpt lat="42.38536" lon="19.7487">
        <ele>1625.7299804688</ele>
        <time>2024-09-23T13:50:32.000Z</time>
      </trkpt>
      <trkpt lat="42.38529" lon="19.74882">
        <ele>1624.7700195312</ele>
        <time>2024-09-23T13:50:33.000Z</time>
      </trkpt>
      <trkpt lat="42.38521" lon="19.74907">
        <ele>1622.8399658203</ele>
        <time>2024-09-23T13:50:34.000Z</time>
      </trkpt>
      <trkpt lat="42.38514" lon="19.74926">
        <ele>1621.4000244141</ele>
        <time>2024-09-23T13:50:35.000Z</time>
      </trkpt>
      <trkpt lat="42.38503" lon="19.74947">
        <ele>1619.9599609375</ele>
        <time>2024-09-23T13:50:36.000Z</time>
      </trkpt>
      <trkpt lat="42.38493" lon="19.74962">
        <ele>1619.4799804688</ele>
        <time>2024-09-23T13:50:37.000Z</time>
      </trkpt>
      <trkpt lat="42.38481" lon="19.74977">
        <ele>1618.0400390625</ele>
        <time>2024-09-23T13:50:38.000Z</time>
      </trkpt>
      <trkpt lat="42.3847" lon="19.74987">
        <ele>1617.5600585938</ele>
        <time>2024-09-23T13:50:39.000Z</time>
      </trkpt>
      <trkpt lat="42.38456" lon="19.74992">
        <ele>1616.5899658203</ele>
        <time>2024-09-23T13:50:40.000Z</time>
      </trkpt>
      <trkpt lat="42.38439" lon="19.74993">
        <ele>1614.6700439453</ele>
        <time>2024-09-23T13:50:41.000Z</time>
      </trkpt>
      <trkpt lat="42.38419" lon="19.74991">
        <ele>1613.2299804688</ele>
        <time>2024-09-23T13:50:42.000Z</time>
      </trkpt>
      <trkpt lat="42.38406" lon="19.74993">
        <ele>1611.7900390625</ele>
        <time>2024-09-23T13:50:43.000Z</time>
      </trkpt>
      <trkpt lat="42.38393" lon="19.74999">
        <ele>1610.3499755859</ele>
        <time>2024-09-23T13:50:44.000Z</time>
      </trkpt>
      <trkpt lat="42.38381" lon="19.75011">
        <ele>1608.9000244141</ele>
        <time>2024-09-23T13:50:45.000Z</time>
      </trkpt>
      <trkpt lat="42.38371" lon="19.75027">
        <ele>1607.9399414062</ele>
        <time>2024-09-23T13:50:46.000Z</time>
      </trkpt>
      <trkpt lat="42.38365" lon="19.75044">
        <ele>1606.9799804688</ele>
        <time>2024-09-23T13:50:47.000Z</time>
      </trkpt>
      <trkpt lat="42.38362" lon="19.75061">
        <ele>1605.5400390625</ele>
        <time>2024-09-23T13:50:48.000Z</time>
      </trkpt>
      <trkpt lat="42.38365" lon="19.75077">
        <ele>1604.0999755859</ele>
        <time>2024-09-23T13:50:49.000Z</time>
      </trkpt>
      <trkpt lat="42.38371" lon="19.75095">
        <ele>1602.6600341797</ele>
        <time>2024-09-23T13:50:50.000Z</time>
      </trkpt>
      <trkpt lat="42.38377" lon="19.75117">
        <ele>1601.2099609375</ele>
        <time>2024-09-23T13:50:51.000Z</time>
      </trkpt>
      <trkpt lat="42.3838" lon="19.75143">
        <ele>1599.7700195312</ele>
        <time>2024-09-23T13:50:52.000Z</time>
      </trkpt>
      <trkpt lat="42.38382" lon="19.75171">
        <ele>1598.8100585938</ele>
        <time>2024-09-23T13:50:53.000Z</time>
      </trkpt>
      <trkpt lat="42.38385" lon="19.75198">
        <ele>1596.4100341797</ele>
        <time>2024-09-23T13:50:54.000Z</time>
      </trkpt>
      <trkpt lat="42.38392" lon="19.75236">
        <ele>1594</ele>
        <time>2024-09-23T13:50:55.000Z</time>
      </trkpt>
      <trkpt lat="42.38395" lon="19.75252">
        <ele>1593.5200195312</ele>
        <time>2024-09-23T13:50:56.000Z</time>
      </trkpt>
      <trkpt lat="42.38396" lon="19.7527">
        <ele>1593.0400390625</ele>
        <time>2024-09-23T13:50:57.000Z</time>
      </trkpt>
      <trkpt lat="42.38394" lon="19.75295">
        <ele>1591.1199951172</ele>
        <time>2024-09-23T13:50:58.000Z</time>
      </trkpt>
      <trkpt lat="42.38388" lon="19.75317">
        <ele>1590.1600341797</ele>
        <time>2024-09-23T13:50:59.000Z</time>
      </trkpt>
      <trkpt lat="42.38384" lon="19.75327">
        <ele>1589.1999511719</ele>
        <time>2024-09-23T13:51:00.000Z</time>
      </trkpt>
      <trkpt lat="42.38382" lon="19.75339">
        <ele>1588.7199707031</ele>
        <time>2024-09-23T13:51:01.000Z</time>
      </trkpt>
      <trkpt lat="42.38382" lon="19.75352">
        <ele>1587.75</ele>
        <time>2024-09-23T13:51:02.000Z</time>
      </trkpt>
      <trkpt lat="42.38386" lon="19.75365">
        <ele>1586.3100585938</ele>
        <time>2024-09-23T13:51:03.000Z</time>
      </trkpt>
      <trkpt lat="42.38391" lon="19.75374">
        <ele>1584.8699951172</ele>
        <time>2024-09-23T13:51:04.000Z</time>
      </trkpt>
      <trkpt lat="42.38397" lon="19.7538">
        <ele>1583.9100341797</ele>
        <time>2024-09-23T13:51:05.000Z</time>
      </trkpt>
      <trkpt lat="42.38405" lon="19.75385">
        <ele>1582.9499511719</ele>
        <time>2024-09-23T13:51:06.000Z</time>
      </trkpt>
      <trkpt lat="42.38412" lon="19.75391">
        <ele>1581.9899902344</ele>
        <time>2024-09-23T13:51:07.000Z</time>
      </trkpt>
      <trkpt lat="42.38418" lon="19.754">
        <ele>1581.0300292969</ele>
        <time>2024-09-23T13:51:08.000Z</time>
      </trkpt>
      <trkpt lat="42.38422" lon="19.75412">
        <ele>1579.5799560547</ele>
        <time>2024-09-23T13:51:09.000Z</time>
      </trkpt>
      <trkpt lat="42.38423" lon="19.75426">
        <ele>1578.6199951172</ele>
        <time>2024-09-23T13:51:10.000Z</time>
      </trkpt>
      <trkpt lat="42.38424" lon="19.75446">
        <ele>1577.6600341797</ele>
        <time>2024-09-23T13:51:11.000Z</time>
      </trkpt>
      <trkpt lat="42.38428" lon="19.7549">
        <ele>1574.7800292969</ele>
        <time>2024-09-23T13:51:13.000Z</time>
      </trkpt>
      <trkpt lat="42.38429" lon="19.75498">
        <ele>1573.8199462891</ele>
        <time>2024-09-23T13:51:14.000Z</time>
      </trkpt>
      <trkpt lat="42.38431" lon="19.75513">
        <ele>1572.8499755859</ele>
        <time>2024-09-23T13:51:15.000Z</time>
      </trkpt>
      <trkpt lat="42.38434" lon="19.7553">
        <ele>1571.4100341797</ele>
        <time>2024-09-23T13:51:16.000Z</time>
      </trkpt>
      <trkpt lat="42.38438" lon="19.75549">
        <ele>1569.4899902344</ele>
        <time>2024-09-23T13:51:17.000Z</time>
      </trkpt>
      <trkpt lat="42.38441" lon="19.75563">
        <ele>1568.5300292969</ele>
        <time>2024-09-23T13:51:18.000Z</time>
      </trkpt>
      <trkpt lat="42.38445" lon="19.7558">
        <ele>1567.0899658203</ele>
        <time>2024-09-23T13:51:19.000Z</time>
      </trkpt>
      <trkpt lat="42.38448" lon="19.75593">
        <ele>1566.1199951172</ele>
        <time>2024-09-23T13:51:20.000Z</time>
      </trkpt>
      <trkpt lat="42.38451" lon="19.75606">
        <ele>1564.1999511719</ele>
        <time>2024-09-23T13:51:21.000Z</time>
      </trkpt>
      <trkpt lat="42.38454" lon="19.75628">
        <ele>1560.8399658203</ele>
        <time>2024-09-23T13:51:26.000Z</time>
      </trkpt>
      <trkpt lat="42.38454" lon="19.75635">
        <ele>1560.3599853516</ele>
        <time>2024-09-23T13:51:27.000Z</time>
      </trkpt>
      <trkpt lat="42.38454" lon="19.75641">
        <ele>1559.8800048828</ele>
        <time>2024-09-23T13:51:28.000Z</time>
      </trkpt>
      <trkpt lat="42.38453" lon="19.75653">
        <ele>1558.9200439453</ele>
        <time>2024-09-23T13:51:29.000Z</time>
      </trkpt>
      <trkpt lat="42.38453" lon="19.75659">
        <ele>1558.4300537109</ele>
        <time>2024-09-23T13:51:30.000Z</time>
      </trkpt>
      <trkpt lat="42.38454" lon="19.75669">
        <ele>1557.9499511719</ele>
        <time>2024-09-23T13:51:31.000Z</time>
      </trkpt>
      <trkpt lat="42.38461" lon="19.75701">
        <ele>1558.4300537109</ele>
        <time>2024-09-23T13:51:35.000Z</time>
      </trkpt>
      <trkpt lat="42.38463" lon="19.75706">
        <ele>1558.4300537109</ele>
        <time>2024-09-23T13:51:36.000Z</time>
      </trkpt>
      <trkpt lat="42.38472" lon="19.75704">
        <ele>1557.4699707031</ele>
        <time>2024-09-23T13:51:38.000Z</time>
      </trkpt>
      <trkpt lat="42.38472" lon="19.75702">
        <ele>1557.4699707031</ele>
        <time>2024-09-23T13:51:39.000Z</time>
      </trkpt>
      <trkpt lat="42.38472" lon="19.75693">
        <ele>1556.9899902344</ele>
        <time>2024-09-23T13:51:40.000Z</time>
      </trkpt>
      <trkpt lat="42.38472" lon="19.75682">
        <ele>1556.5100097656</ele>
        <time>2024-09-23T13:51:41.000Z</time>
      </trkpt>
      <trkpt lat="42.38471" lon="19.75671">
        <ele>1555.5500488281</ele>
        <time>2024-09-23T13:51:42.000Z</time>
      </trkpt>
      <trkpt lat="42.3847" lon="19.75645">
        <ele>1554.1099853516</ele>
        <time>2024-09-23T13:51:44.000Z</time>
      </trkpt>
      <trkpt lat="42.3847" lon="19.75643">
        <ele>1554.1099853516</ele>
        <time>2024-09-23T13:51:45.000Z</time>
      </trkpt>
      <trkpt lat="42.38469" lon="19.75626">
        <ele>1552.6700439453</ele>
        <time>2024-09-23T13:51:46.000Z</time>
      </trkpt>
      <trkpt lat="42.38469" lon="19.7561">
        <ele>1551.7099609375</ele>
        <time>2024-09-23T13:51:48.000Z</time>
      </trkpt>
      <trkpt lat="42.38469" lon="19.75602">
        <ele>1551.2199707031</ele>
        <time>2024-09-23T13:51:49.000Z</time>
      </trkpt>
      <trkpt lat="42.38467" lon="19.75593">
        <ele>1550.7399902344</ele>
        <time>2024-09-23T13:51:50.000Z</time>
      </trkpt>
      <trkpt lat="42.38466" lon="19.75585">
        <ele>1549.7800292969</ele>
        <time>2024-09-23T13:51:51.000Z</time>
      </trkpt>
      <trkpt lat="42.38466" lon="19.7558">
        <ele>1549.3000488281</ele>
        <time>2024-09-23T13:51:52.000Z</time>
      </trkpt>
      <trkpt lat="42.3847" lon="19.75572">
        <ele>1548.3399658203</ele>
        <time>2024-09-23T13:51:53.000Z</time>
      </trkpt>
      <trkpt lat="42.38471" lon="19.75572">
        <ele>1548.3399658203</ele>
        <time>2024-09-23T13:51:54.000Z</time>
      </trkpt>
      <trkpt lat="42.38477" lon="19.75577">
        <ele>1546.9000244141</ele>
        <time>2024-09-23T13:51:55.000Z</time>
      </trkpt>
      <trkpt lat="42.38478" lon="19.75578">
        <ele>1546.4200439453</ele>
        <time>2024-09-23T13:51:56.000Z</time>
      </trkpt>
      <trkpt lat="42.38478" lon="19.75586">
        <ele>1545.9399414062</ele>
        <time>2024-09-23T13:51:57.000Z</time>
      </trkpt>
      <trkpt lat="42.38478" lon="19.75597">
        <ele>1544.9799804688</ele>
        <time>2024-09-23T13:51:58.000Z</time>
      </trkpt>
      <trkpt lat="42.38481" lon="19.75626">
        <ele>1542.0899658203</ele>
        <time>2024-09-23T13:52:00.000Z</time>
      </trkpt>
      <trkpt lat="42.3849" lon="19.75681">
        <ele>1538.7299804688</ele>
        <time>2024-09-23T13:52:03.000Z</time>
      </trkpt>
      <trkpt lat="42.38491" lon="19.75686">
        <ele>1538.25</ele>
        <time>2024-09-23T13:52:04.000Z</time>
      </trkpt>
      <trkpt lat="42.38495" lon="19.75703">
        <ele>1536.8000488281</ele>
        <time>2024-09-23T13:52:05.000Z</time>
      </trkpt>
      <trkpt lat="42.38499" lon="19.75715">
        <ele>1536.8000488281</ele>
        <time>2024-09-23T13:52:06.000Z</time>
      </trkpt>
      <trkpt lat="42.38504" lon="19.75727">
        <ele>1535.8399658203</ele>
        <time>2024-09-23T13:52:07.000Z</time>
      </trkpt>
      <trkpt lat="42.3851" lon="19.75737">
        <ele>1535.3599853516</ele>
        <time>2024-09-23T13:52:08.000Z</time>
      </trkpt>
      <trkpt lat="42.38539" lon="19.75769">
        <ele>1533.9200439453</ele>
        <time>2024-09-23T13:52:11.000Z</time>
      </trkpt>
      <trkpt lat="42.38556" lon="19.75788">
        <ele>1532.4799804688</ele>
        <time>2024-09-23T13:52:13.000Z</time>
      </trkpt>
      <trkpt lat="42.38567" lon="19.75798">
        <ele>1531.5200195312</ele>
        <time>2024-09-23T13:52:14.000Z</time>
      </trkpt>
      <trkpt lat="42.3858" lon="19.75807">
        <ele>1530.5600585938</ele>
        <time>2024-09-23T13:52:15.000Z</time>
      </trkpt>
      <trkpt lat="42.38583" lon="19.7581">
        <ele>1530.5600585938</ele>
        <time>2024-09-23T13:52:16.000Z</time>
      </trkpt>
      <trkpt lat="42.38594" lon="19.7582">
        <ele>1529.5899658203</ele>
        <time>2024-09-23T13:52:18.000Z</time>
      </trkpt>
      <trkpt lat="42.38599" lon="19.75822">
        <ele>1528.6300048828</ele>
        <time>2024-09-23T13:52:19.000Z</time>
      </trkpt>
      <trkpt lat="42.38605" lon="19.75821">
        <ele>1528.1500244141</ele>
        <time>2024-09-23T13:52:20.000Z</time>
      </trkpt>
      <trkpt lat="42.38609" lon="19.75816">
        <ele>1527.6700439453</ele>
        <time>2024-09-23T13:52:21.000Z</time>
      </trkpt>
      <trkpt lat="42.38613" lon="19.75808">
        <ele>1526.7099609375</ele>
        <time>2024-09-23T13:52:22.000Z</time>
      </trkpt>
      <trkpt lat="42.38614" lon="19.75797">
        <ele>1526.2299804688</ele>
        <time>2024-09-23T13:52:23.000Z</time>
      </trkpt>
      <trkpt lat="42.38612" lon="19.75791">
        <ele>1525.75</ele>
        <time>2024-09-23T13:52:24.000Z</time>
      </trkpt>
      <trkpt lat="42.38607" lon="19.75784">
        <ele>1525.2700195312</ele>
        <time>2024-09-23T13:52:25.000Z</time>
      </trkpt>
      <trkpt lat="42.38596" lon="19.75776">
        <ele>1524.7900390625</ele>
        <time>2024-09-23T13:52:26.000Z</time>
      </trkpt>
      <trkpt lat="42.3859" lon="19.75771">
        <ele>1524.3100585938</ele>
        <time>2024-09-23T13:52:27.000Z</time>
      </trkpt>
      <trkpt lat="42.38583" lon="19.75763">
        <ele>1523.8299560547</ele>
        <time>2024-09-23T13:52:28.000Z</time>
      </trkpt>
      <trkpt lat="42.38574" lon="19.75752">
        <ele>1522.8699951172</ele>
        <time>2024-09-23T13:52:29.000Z</time>
      </trkpt>
      <trkpt lat="42.38559" lon="19.75726">
        <ele>1520.9399414062</ele>
        <time>2024-09-23T13:52:31.000Z</time>
      </trkpt>
      <trkpt lat="42.38555" lon="19.75718">
        <ele>1520.4599609375</ele>
        <time>2024-09-23T13:52:32.000Z</time>
      </trkpt>
      <trkpt lat="42.38551" lon="19.75709">
        <ele>1519.5</ele>
        <time>2024-09-23T13:52:33.000Z</time>
      </trkpt>
      <trkpt lat="42.3855" lon="19.75701">
        <ele>1518.5400390625</ele>
        <time>2024-09-23T13:52:34.000Z</time>
      </trkpt>
      <trkpt lat="42.38552" lon="19.75692">
        <ele>1517.5799560547</ele>
        <time>2024-09-23T13:52:35.000Z</time>
      </trkpt>
      <trkpt lat="42.38557" lon="19.75682">
        <ele>1516.6199951172</ele>
        <time>2024-09-23T13:52:36.000Z</time>
      </trkpt>
      <trkpt lat="42.38562" lon="19.75671">
        <ele>1515.6600341797</ele>
        <time>2024-09-23T13:52:37.000Z</time>
      </trkpt>
      <trkpt lat="42.38565" lon="19.75657">
        <ele>1514.6899414062</ele>
        <time>2024-09-23T13:52:38.000Z</time>
      </trkpt>
      <trkpt lat="42.38568" lon="19.75641">
        <ele>1514.2099609375</ele>
        <time>2024-09-23T13:52:39.000Z</time>
      </trkpt>
      <trkpt lat="42.38571" lon="19.75624">
        <ele>1513.25</ele>
        <time>2024-09-23T13:52:40.000Z</time>
      </trkpt>
      <trkpt lat="42.38577" lon="19.75603">
        <ele>1511.8100585938</ele>
        <time>2024-09-23T13:52:41.000Z</time>
      </trkpt>
      <trkpt lat="42.3858" lon="19.75597">
        <ele>1511.3299560547</ele>
        <time>2024-09-23T13:52:42.000Z</time>
      </trkpt>
      <trkpt lat="42.38586" lon="19.75586">
        <ele>1510.3699951172</ele>
        <time>2024-09-23T13:52:43.000Z</time>
      </trkpt>
      <trkpt lat="42.38596" lon="19.75573">
        <ele>1508.4499511719</ele>
        <time>2024-09-23T13:52:44.000Z</time>
      </trkpt>
      <trkpt lat="42.38601" lon="19.75566">
        <ele>1507.9699707031</ele>
        <time>2024-09-23T13:52:45.000Z</time>
      </trkpt>
      <trkpt lat="42.38606" lon="19.75555">
        <ele>1507</ele>
        <time>2024-09-23T13:52:46.000Z</time>
      </trkpt>
      <trkpt lat="42.38612" lon="19.75536">
        <ele>1506.0400390625</ele>
        <time>2024-09-23T13:52:47.000Z</time>
      </trkpt>
      <trkpt lat="42.38614" lon="19.75528">
        <ele>1505.5600585938</ele>
        <time>2024-09-23T13:52:48.000Z</time>
      </trkpt>
      <trkpt lat="42.38618" lon="19.755">
        <ele>1503.6400146484</ele>
        <time>2024-09-23T13:52:49.000Z</time>
      </trkpt>
      <trkpt lat="42.38618" lon="19.75497">
        <ele>1503.1600341797</ele>
        <time>2024-09-23T13:52:50.000Z</time>
      </trkpt>
      <trkpt lat="42.38619" lon="19.75479">
        <ele>1502.1999511719</ele>
        <time>2024-09-23T13:52:51.000Z</time>
      </trkpt>
      <trkpt lat="42.38619" lon="19.75457">
        <ele>1501.2399902344</ele>
        <time>2024-09-23T13:52:52.000Z</time>
      </trkpt>
      <trkpt lat="42.3862" lon="19.75449">
        <ele>1500.7600097656</ele>
        <time>2024-09-23T13:52:53.000Z</time>
      </trkpt>
      <trkpt lat="42.38623" lon="19.75436">
        <ele>1499.7900390625</ele>
        <time>2024-09-23T13:52:54.000Z</time>
      </trkpt>
      <trkpt lat="42.38628" lon="19.75427">
        <ele>1499.7900390625</ele>
        <time>2024-09-23T13:52:55.000Z</time>
      </trkpt>
      <trkpt lat="42.38636" lon="19.7542">
        <ele>1499.3100585938</ele>
        <time>2024-09-23T13:52:56.000Z</time>
      </trkpt>
      <trkpt lat="42.38645" lon="19.75415">
        <ele>1498.8299560547</ele>
        <time>2024-09-23T13:52:57.000Z</time>
      </trkpt>
      <trkpt lat="42.38654" lon="19.7541">
        <ele>1496.9100341797</ele>
        <time>2024-09-23T13:52:58.000Z</time>
      </trkpt>
      <trkpt lat="42.38662" lon="19.75401">
        <ele>1495.9499511719</ele>
        <time>2024-09-23T13:52:59.000Z</time>
      </trkpt>
      <trkpt lat="42.3867" lon="19.7539">
        <ele>1495.4699707031</ele>
        <time>2024-09-23T13:53:00.000Z</time>
      </trkpt>
      <trkpt lat="42.38689" lon="19.75353">
        <ele>1493.5500488281</ele>
        <time>2024-09-23T13:53:02.000Z</time>
      </trkpt>
      <trkpt lat="42.3869" lon="19.75351">
        <ele>1493.0600585938</ele>
        <time>2024-09-23T13:53:03.000Z</time>
      </trkpt>
      <trkpt lat="42.38695" lon="19.75338">
        <ele>1492.5799560547</ele>
        <time>2024-09-23T13:53:04.000Z</time>
      </trkpt>
      <trkpt lat="42.38699" lon="19.7532">
        <ele>1491.6199951172</ele>
        <time>2024-09-23T13:53:05.000Z</time>
      </trkpt>
      <trkpt lat="42.387" lon="19.75318">
        <ele>1491.6199951172</ele>
        <time>2024-09-23T13:53:06.000Z</time>
      </trkpt>
      <trkpt lat="42.38702" lon="19.75307">
        <ele>1491.1400146484</ele>
        <time>2024-09-23T13:53:07.000Z</time>
      </trkpt>
      <trkpt lat="42.38704" lon="19.75301">
        <ele>1490.6600341797</ele>
        <time>2024-09-23T13:53:08.000Z</time>
      </trkpt>
      <trkpt lat="42.38708" lon="19.75296">
        <ele>1490.1800537109</ele>
        <time>2024-09-23T13:53:09.000Z</time>
      </trkpt>
      <trkpt lat="42.38713" lon="19.75294">
        <ele>1489.6999511719</ele>
        <time>2024-09-23T13:53:10.000Z</time>
      </trkpt>
      <trkpt lat="42.38718" lon="19.75296">
        <ele>1489.2199707031</ele>
        <time>2024-09-23T13:53:11.000Z</time>
      </trkpt>
      <trkpt lat="42.3872" lon="19.75302">
        <ele>1488.7399902344</ele>
        <time>2024-09-23T13:53:12.000Z</time>
      </trkpt>
      <trkpt lat="42.38721" lon="19.75308">
        <ele>1488.7399902344</ele>
        <time>2024-09-23T13:53:13.000Z</time>
      </trkpt>
      <trkpt lat="42.38717" lon="19.75317">
        <ele>1487.7800292969</ele>
        <time>2024-09-23T13:53:14.000Z</time>
      </trkpt>
      <trkpt lat="42.38713" lon="19.75326">
        <ele>1486.8199462891</ele>
        <time>2024-09-23T13:53:15.000Z</time>
      </trkpt>
      <trkpt lat="42.38708" lon="19.75341">
        <ele>1486.3399658203</ele>
        <time>2024-09-23T13:53:16.000Z</time>
      </trkpt>
      <trkpt lat="42.38688" lon="19.75407">
        <ele>1482.9699707031</ele>
        <time>2024-09-23T13:53:20.000Z</time>
      </trkpt>
      <trkpt lat="42.38685" lon="19.75415">
        <ele>1482.4899902344</ele>
        <time>2024-09-23T13:53:21.000Z</time>
      </trkpt>
      <trkpt lat="42.38679" lon="19.75431">
        <ele>1481.5300292969</ele>
        <time>2024-09-23T13:53:22.000Z</time>
      </trkpt>
      <trkpt lat="42.38671" lon="19.75449">
        <ele>1480.0899658203</ele>
        <time>2024-09-23T13:53:23.000Z</time>
      </trkpt>
      <trkpt lat="42.38668" lon="19.7546">
        <ele>1479.6099853516</ele>
        <time>2024-09-23T13:53:24.000Z</time>
      </trkpt>
      <trkpt lat="42.38666" lon="19.7547">
        <ele>1479.1300048828</ele>
        <time>2024-09-23T13:53:25.000Z</time>
      </trkpt>
      <trkpt lat="42.38666" lon="19.75483">
        <ele>1478.1600341797</ele>
        <time>2024-09-23T13:53:26.000Z</time>
      </trkpt>
      <trkpt lat="42.38667" lon="19.75506">
        <ele>1476.7199707031</ele>
        <time>2024-09-23T13:53:27.000Z</time>
      </trkpt>
      <trkpt lat="42.38668" lon="19.75514">
        <ele>1475.7600097656</ele>
        <time>2024-09-23T13:53:28.000Z</time>
      </trkpt>
      <trkpt lat="42.38672" lon="19.75537">
        <ele>1474.3199462891</ele>
        <time>2024-09-23T13:53:29.000Z</time>
      </trkpt>
      <trkpt lat="42.38675" lon="19.75549">
        <ele>1473.3599853516</ele>
        <time>2024-09-23T13:53:30.000Z</time>
      </trkpt>
      <trkpt lat="42.3868" lon="19.75566">
        <ele>1472.8800048828</ele>
        <time>2024-09-23T13:53:31.000Z</time>
      </trkpt>
      <trkpt lat="42.38689" lon="19.7559">
        <ele>1471.4399414062</ele>
        <time>2024-09-23T13:53:32.000Z</time>
      </trkpt>
      <trkpt lat="42.3869" lon="19.75592">
        <ele>1471.4399414062</ele>
        <time>2024-09-23T13:53:33.000Z</time>
      </trkpt>
      <trkpt lat="42.38695" lon="19.756">
        <ele>1470.9499511719</ele>
        <time>2024-09-23T13:53:34.000Z</time>
      </trkpt>
      <trkpt lat="42.38702" lon="19.75606">
        <ele>1470.4699707031</ele>
        <time>2024-09-23T13:53:35.000Z</time>
      </trkpt>
      <trkpt lat="42.38709" lon="19.75612">
        <ele>1469.0300292969</ele>
        <time>2024-09-23T13:53:36.000Z</time>
      </trkpt>
      <trkpt lat="42.38715" lon="19.75621">
        <ele>1468.0699462891</ele>
        <time>2024-09-23T13:53:37.000Z</time>
      </trkpt>
      <trkpt lat="42.38717" lon="19.75631">
        <ele>1467.5899658203</ele>
        <time>2024-09-23T13:53:38.000Z</time>
      </trkpt>
      <trkpt lat="42.38718" lon="19.75646">
        <ele>1466.6300048828</ele>
        <time>2024-09-23T13:53:39.000Z</time>
      </trkpt>
      <trkpt lat="42.38717" lon="19.75664">
        <ele>1465.1899414062</ele>
        <time>2024-09-23T13:53:40.000Z</time>
      </trkpt>
      <trkpt lat="42.38717" lon="19.75678">
        <ele>1464.2299804688</ele>
        <time>2024-09-23T13:53:41.000Z</time>
      </trkpt>
      <trkpt lat="42.38717" lon="19.7568">
        <ele>1463.7399902344</ele>
        <time>2024-09-23T13:53:42.000Z</time>
      </trkpt>
      <trkpt lat="42.38717" lon="19.75689">
        <ele>1463.2600097656</ele>
        <time>2024-09-23T13:53:43.000Z</time>
      </trkpt>
      <trkpt lat="42.38717" lon="19.75698">
        <ele>1462.3000488281</ele>
        <time>2024-09-23T13:53:44.000Z</time>
      </trkpt>
      <trkpt lat="42.38717" lon="19.75707">
        <ele>1461.8199462891</ele>
        <time>2024-09-23T13:53:45.000Z</time>
      </trkpt>
      <trkpt lat="42.38718" lon="19.75716">
        <ele>1461.3399658203</ele>
        <time>2024-09-23T13:53:46.000Z</time>
      </trkpt>
      <trkpt lat="42.38719" lon="19.75722">
        <ele>1461.3399658203</ele>
        <time>2024-09-23T13:53:47.000Z</time>
      </trkpt>
      <trkpt lat="42.38721" lon="19.75728">
        <ele>1461.3399658203</ele>
        <time>2024-09-23T13:53:48.000Z</time>
      </trkpt>
      <trkpt lat="42.38724" lon="19.75738">
        <ele>1460.8599853516</ele>
        <time>2024-09-23T13:53:50.000Z</time>
      </trkpt>
      <trkpt lat="42.38726" lon="19.75744">
        <ele>1460.8599853516</ele>
        <time>2024-09-23T13:53:51.000Z</time>
      </trkpt>
      <trkpt lat="42.38728" lon="19.75752">
        <ele>1460.3800048828</ele>
        <time>2024-09-23T13:53:52.000Z</time>
      </trkpt>
      <trkpt lat="42.38729" lon="19.75761">
        <ele>1459.9000244141</ele>
        <time>2024-09-23T13:53:53.000Z</time>
      </trkpt>
      <trkpt lat="42.38729" lon="19.75775">
        <ele>1458.9399414062</ele>
        <time>2024-09-23T13:53:54.000Z</time>
      </trkpt>
      <trkpt lat="42.38731" lon="19.75789">
        <ele>1458.4599609375</ele>
        <time>2024-09-23T13:53:55.000Z</time>
      </trkpt>
      <trkpt lat="42.38736" lon="19.75816">
        <ele>1457.0200195312</ele>
        <time>2024-09-23T13:53:56.000Z</time>
      </trkpt>
      <trkpt lat="42.38737" lon="19.7582">
        <ele>1456.5300292969</ele>
        <time>2024-09-23T13:53:57.000Z</time>
      </trkpt>
      <trkpt lat="42.3874" lon="19.75834">
        <ele>1456.0500488281</ele>
        <time>2024-09-23T13:53:58.000Z</time>
      </trkpt>
      <trkpt lat="42.38745" lon="19.75848">
        <ele>1455.0899658203</ele>
        <time>2024-09-23T13:53:59.000Z</time>
      </trkpt>
      <trkpt lat="42.38747" lon="19.75861">
        <ele>1454.1300048828</ele>
        <time>2024-09-23T13:54:00.000Z</time>
      </trkpt>
      <trkpt lat="42.38748" lon="19.75873">
        <ele>1453.6500244141</ele>
        <time>2024-09-23T13:54:01.000Z</time>
      </trkpt>
      <trkpt lat="42.38749" lon="19.75885">
        <ele>1452.6899414062</ele>
        <time>2024-09-23T13:54:02.000Z</time>
      </trkpt>
      <trkpt lat="42.38752" lon="19.75894">
        <ele>1452.6899414062</ele>
        <time>2024-09-23T13:54:03.000Z</time>
      </trkpt>
      <trkpt lat="42.38757" lon="19.75905">
        <ele>1452.2099609375</ele>
        <time>2024-09-23T13:54:04.000Z</time>
      </trkpt>
      <trkpt lat="42.38759" lon="19.75914">
        <ele>1451.25</ele>
        <time>2024-09-23T13:54:05.000Z</time>
      </trkpt>
      <trkpt lat="42.38759" lon="19.75924">
        <ele>1450.2900390625</ele>
        <time>2024-09-23T13:54:06.000Z</time>
      </trkpt>
      <trkpt lat="42.38756" lon="19.75935">
        <ele>1449.8100585938</ele>
        <time>2024-09-23T13:54:07.000Z</time>
      </trkpt>
      <trkpt lat="42.38732" lon="19.75995">
        <ele>1445.4799804688</ele>
        <time>2024-09-23T13:54:11.000Z</time>
      </trkpt>
      <trkpt lat="42.38723" lon="19.7602">
        <ele>1445</ele>
        <time>2024-09-23T13:54:13.000Z</time>
      </trkpt>
      <trkpt lat="42.3872" lon="19.76027">
        <ele>1444.5200195312</ele>
        <time>2024-09-23T13:54:14.000Z</time>
      </trkpt>
      <trkpt lat="42.38718" lon="19.76031">
        <ele>1444.5200195312</ele>
        <time>2024-09-23T13:54:15.000Z</time>
      </trkpt>
      <trkpt lat="42.38716" lon="19.76038">
        <ele>1444.5200195312</ele>
        <time>2024-09-23T13:54:16.000Z</time>
      </trkpt>
      <trkpt lat="42.38717" lon="19.76046">
        <ele>1444.0400390625</ele>
        <time>2024-09-23T13:54:17.000Z</time>
      </trkpt>
      <trkpt lat="42.38719" lon="19.76051">
        <ele>1444.0400390625</ele>
        <time>2024-09-23T13:54:18.000Z</time>
      </trkpt>
      <trkpt lat="42.38724" lon="19.76054">
        <ele>1444.0400390625</ele>
        <time>2024-09-23T13:54:19.000Z</time>
      </trkpt>
      <trkpt lat="42.38728" lon="19.76052">
        <ele>1444.0400390625</ele>
        <time>2024-09-23T13:54:20.000Z</time>
      </trkpt>
      <trkpt lat="42.38732" lon="19.76044">
        <ele>1443.0799560547</ele>
        <time>2024-09-23T13:54:21.000Z</time>
      </trkpt>
      <trkpt lat="42.38734" lon="19.76032">
        <ele>1442.5999755859</ele>
        <time>2024-09-23T13:54:22.000Z</time>
      </trkpt>
      <trkpt lat="42.38737" lon="19.7602">
        <ele>1442.1099853516</ele>
        <time>2024-09-23T13:54:23.000Z</time>
      </trkpt>
      <trkpt lat="42.38743" lon="19.76006">
        <ele>1440.6700439453</ele>
        <time>2024-09-23T13:54:24.000Z</time>
      </trkpt>
      <trkpt lat="42.38757" lon="19.75979">
        <ele>1438.75</ele>
        <time>2024-09-23T13:54:26.000Z</time>
      </trkpt>
      <trkpt lat="42.38767" lon="19.75963">
        <ele>1436.8299560547</ele>
        <time>2024-09-23T13:54:27.000Z</time>
      </trkpt>
      <trkpt lat="42.38778" lon="19.75949">
        <ele>1435.8699951172</ele>
        <time>2024-09-23T13:54:28.000Z</time>
      </trkpt>
      <trkpt lat="42.3879" lon="19.75933">
        <ele>1434.4200439453</ele>
        <time>2024-09-23T13:54:29.000Z</time>
      </trkpt>
      <trkpt lat="42.38793" lon="19.7593">
        <ele>1434.4200439453</ele>
        <time>2024-09-23T13:54:30.000Z</time>
      </trkpt>
      <trkpt lat="42.38797" lon="19.75921">
        <ele>1433.4599609375</ele>
        <time>2024-09-23T13:54:31.000Z</time>
      </trkpt>
      <trkpt lat="42.388" lon="19.75908">
        <ele>1432.5</ele>
        <time>2024-09-23T13:54:32.000Z</time>
      </trkpt>
      <trkpt lat="42.38804" lon="19.75879">
        <ele>1430.0999755859</ele>
        <time>2024-09-23T13:54:33.000Z</time>
      </trkpt>
      <trkpt lat="42.38804" lon="19.75876">
        <ele>1430.0999755859</ele>
        <time>2024-09-23T13:54:34.000Z</time>
      </trkpt>
      <trkpt lat="42.38804" lon="19.75859">
        <ele>1428.6600341797</ele>
        <time>2024-09-23T13:54:35.000Z</time>
      </trkpt>
      <trkpt lat="42.38802" lon="19.75843">
        <ele>1427.6999511719</ele>
        <time>2024-09-23T13:54:36.000Z</time>
      </trkpt>
      <trkpt lat="42.38795" lon="19.7582">
        <ele>1426.7299804688</ele>
        <time>2024-09-23T13:54:37.000Z</time>
      </trkpt>
      <trkpt lat="42.38793" lon="19.75811">
        <ele>1426.25</ele>
        <time>2024-09-23T13:54:38.000Z</time>
      </trkpt>
      <trkpt lat="42.38793" lon="19.75796">
        <ele>1424.8100585938</ele>
        <time>2024-09-23T13:54:39.000Z</time>
      </trkpt>
      <trkpt lat="42.38795" lon="19.75782">
        <ele>1424.3299560547</ele>
        <time>2024-09-23T13:54:40.000Z</time>
      </trkpt>
      <trkpt lat="42.38807" lon="19.7573">
        <ele>1420.9699707031</ele>
        <time>2024-09-23T13:54:43.000Z</time>
      </trkpt>
      <trkpt lat="42.38808" lon="19.75726">
        <ele>1420.4899902344</ele>
        <time>2024-09-23T13:54:44.000Z</time>
      </trkpt>
      <trkpt lat="42.3881" lon="19.75712">
        <ele>1419.5200195312</ele>
        <time>2024-09-23T13:54:45.000Z</time>
      </trkpt>
      <trkpt lat="42.38808" lon="19.75698">
        <ele>1418.5600585938</ele>
        <time>2024-09-23T13:54:46.000Z</time>
      </trkpt>
      <trkpt lat="42.38804" lon="19.75683">
        <ele>1418.0799560547</ele>
        <time>2024-09-23T13:54:47.000Z</time>
      </trkpt>
      <trkpt lat="42.38802" lon="19.75673">
        <ele>1417.5999755859</ele>
        <time>2024-09-23T13:54:48.000Z</time>
      </trkpt>
      <trkpt lat="42.38803" lon="19.7566">
        <ele>1416.6400146484</ele>
        <time>2024-09-23T13:54:49.000Z</time>
      </trkpt>
      <trkpt lat="42.38807" lon="19.75646">
        <ele>1415.1999511719</ele>
        <time>2024-09-23T13:54:50.000Z</time>
      </trkpt>
      <trkpt lat="42.3881" lon="19.75636">
        <ele>1414.7199707031</ele>
        <time>2024-09-23T13:54:51.000Z</time>
      </trkpt>
      <trkpt lat="42.38811" lon="19.75623">
        <ele>1413.7600097656</ele>
        <time>2024-09-23T13:54:52.000Z</time>
      </trkpt>
      <trkpt lat="42.3881" lon="19.75611">
        <ele>1413.2800292969</ele>
        <time>2024-09-23T13:54:53.000Z</time>
      </trkpt>
      <trkpt lat="42.38807" lon="19.75602">
        <ele>1412.7900390625</ele>
        <time>2024-09-23T13:54:54.000Z</time>
      </trkpt>
      <trkpt lat="42.38806" lon="19.75592">
        <ele>1411.8299560547</ele>
        <time>2024-09-23T13:54:55.000Z</time>
      </trkpt>
      <trkpt lat="42.38808" lon="19.75582">
        <ele>1410.8699951172</ele>
        <time>2024-09-23T13:54:56.000Z</time>
      </trkpt>
      <trkpt lat="42.38813" lon="19.75568">
        <ele>1409.4300537109</ele>
        <time>2024-09-23T13:54:57.000Z</time>
      </trkpt>
      <trkpt lat="42.38816" lon="19.75558">
        <ele>1407.9899902344</ele>
        <time>2024-09-23T13:54:58.000Z</time>
      </trkpt>
      <trkpt lat="42.38817" lon="19.75543">
        <ele>1407.0300292969</ele>
        <time>2024-09-23T13:54:59.000Z</time>
      </trkpt>
      <trkpt lat="42.38815" lon="19.75527">
        <ele>1406.5500488281</ele>
        <time>2024-09-23T13:55:00.000Z</time>
      </trkpt>
      <trkpt lat="42.38811" lon="19.75514">
        <ele>1406.0699462891</ele>
        <time>2024-09-23T13:55:01.000Z</time>
      </trkpt>
      <trkpt lat="42.38805" lon="19.75499">
        <ele>1405.5799560547</ele>
        <time>2024-09-23T13:55:02.000Z</time>
      </trkpt>
      <trkpt lat="42.38802" lon="19.75488">
        <ele>1405.0999755859</ele>
        <time>2024-09-23T13:55:03.000Z</time>
      </trkpt>
      <trkpt lat="42.38801" lon="19.75476">
        <ele>1404.1400146484</ele>
        <time>2024-09-23T13:55:04.000Z</time>
      </trkpt>
      <trkpt lat="42.38801" lon="19.75464">
        <ele>1403.6600341797</ele>
        <time>2024-09-23T13:55:05.000Z</time>
      </trkpt>
      <trkpt lat="42.38804" lon="19.75451">
        <ele>1402.6999511719</ele>
        <time>2024-09-23T13:55:06.000Z</time>
      </trkpt>
      <trkpt lat="42.3881" lon="19.75438">
        <ele>1401.2600097656</ele>
        <time>2024-09-23T13:55:07.000Z</time>
      </trkpt>
      <trkpt lat="42.38821" lon="19.75419">
        <ele>1399.3399658203</ele>
        <time>2024-09-23T13:55:08.000Z</time>
      </trkpt>
      <trkpt lat="42.38824" lon="19.75413">
        <ele>1398.3699951172</ele>
        <time>2024-09-23T13:55:09.000Z</time>
      </trkpt>
      <trkpt lat="42.38834" lon="19.75392">
        <ele>1396.9300537109</ele>
        <time>2024-09-23T13:55:10.000Z</time>
      </trkpt>
      <trkpt lat="42.38836" lon="19.7539">
        <ele>1396.9300537109</ele>
        <time>2024-09-23T13:55:11.000Z</time>
      </trkpt>
      <trkpt lat="42.38843" lon="19.75381">
        <ele>1395.9699707031</ele>
        <time>2024-09-23T13:55:12.000Z</time>
      </trkpt>
      <trkpt lat="42.38852" lon="19.75375">
        <ele>1394.5300292969</ele>
        <time>2024-09-23T13:55:13.000Z</time>
      </trkpt>
      <trkpt lat="42.38864" lon="19.75369">
        <ele>1394.0500488281</ele>
        <time>2024-09-23T13:55:14.000Z</time>
      </trkpt>
      <trkpt lat="42.38872" lon="19.75364">
        <ele>1393.5699462891</ele>
        <time>2024-09-23T13:55:15.000Z</time>
      </trkpt>
      <trkpt lat="42.3888" lon="19.75355">
        <ele>1393.0899658203</ele>
        <time>2024-09-23T13:55:16.000Z</time>
      </trkpt>
      <trkpt lat="42.38886" lon="19.75347">
        <ele>1392.6099853516</ele>
        <time>2024-09-23T13:55:17.000Z</time>
      </trkpt>
      <trkpt lat="42.3889" lon="19.75336">
        <ele>1392.1300048828</ele>
        <time>2024-09-23T13:55:18.000Z</time>
      </trkpt>
      <trkpt lat="42.38894" lon="19.75326">
        <ele>1392.1300048828</ele>
        <time>2024-09-23T13:55:19.000Z</time>
      </trkpt>
      <trkpt lat="42.38896" lon="19.75314">
        <ele>1391.6500244141</ele>
        <time>2024-09-23T13:55:20.000Z</time>
      </trkpt>
      <trkpt lat="42.38897" lon="19.75306">
        <ele>1391.6500244141</ele>
        <time>2024-09-23T13:55:21.000Z</time>
      </trkpt>
      <trkpt lat="42.38898" lon="19.75302">
        <ele>1391.1700439453</ele>
        <time>2024-09-23T13:55:22.000Z</time>
      </trkpt>
      <trkpt lat="42.389" lon="19.7529">
        <ele>1390.6800537109</ele>
        <time>2024-09-23T13:55:23.000Z</time>
      </trkpt>
      <trkpt lat="42.38904" lon="19.75279">
        <ele>1390.1999511719</ele>
        <time>2024-09-23T13:55:24.000Z</time>
      </trkpt>
      <trkpt lat="42.38909" lon="19.75269">
        <ele>1389.2399902344</ele>
        <time>2024-09-23T13:55:25.000Z</time>
      </trkpt>
      <trkpt lat="42.38923" lon="19.75243">
        <ele>1388.2800292969</ele>
        <time>2024-09-23T13:55:27.000Z</time>
      </trkpt>
      <trkpt lat="42.38943" lon="19.75197">
        <ele>1385.8800048828</ele>
        <time>2024-09-23T13:55:29.000Z</time>
      </trkpt>
      <trkpt lat="42.38949" lon="19.75182">
        <ele>1384.9200439453</ele>
        <time>2024-09-23T13:55:30.000Z</time>
      </trkpt>
      <trkpt lat="42.38951" lon="19.7518">
        <ele>1384.9200439453</ele>
        <time>2024-09-23T13:55:31.000Z</time>
      </trkpt>
      <trkpt lat="42.38958" lon="19.75169">
        <ele>1384.4399414062</ele>
        <time>2024-09-23T13:55:32.000Z</time>
      </trkpt>
      <trkpt lat="42.38966" lon="19.75159">
        <ele>1383.4699707031</ele>
        <time>2024-09-23T13:55:33.000Z</time>
      </trkpt>
      <trkpt lat="42.38974" lon="19.75151">
        <ele>1382.9899902344</ele>
        <time>2024-09-23T13:55:34.000Z</time>
      </trkpt>
      <trkpt lat="42.3898" lon="19.75139">
        <ele>1382.0300292969</ele>
        <time>2024-09-23T13:55:35.000Z</time>
      </trkpt>
      <trkpt lat="42.38988" lon="19.75113">
        <ele>1380.1099853516</ele>
        <time>2024-09-23T13:55:36.000Z</time>
      </trkpt>
      <trkpt lat="42.3899" lon="19.7511">
        <ele>1380.1099853516</ele>
        <time>2024-09-23T13:55:37.000Z</time>
      </trkpt>
      <trkpt lat="42.38998" lon="19.75093">
        <ele>1378.6700439453</ele>
        <time>2024-09-23T13:55:38.000Z</time>
      </trkpt>
      <trkpt lat="42.39005" lon="19.75083">
        <ele>1378.1899414062</ele>
        <time>2024-09-23T13:55:39.000Z</time>
      </trkpt>
      <trkpt lat="42.39015" lon="19.75067">
        <ele>1376.75</ele>
        <time>2024-09-23T13:55:40.000Z</time>
      </trkpt>
      <trkpt lat="42.39018" lon="19.75061">
        <ele>1376.75</ele>
        <time>2024-09-23T13:55:41.000Z</time>
      </trkpt>
      <trkpt lat="42.39022" lon="19.75051">
        <ele>1375.7800292969</ele>
        <time>2024-09-23T13:55:42.000Z</time>
      </trkpt>
      <trkpt lat="42.39023" lon="19.7504">
        <ele>1375.3000488281</ele>
        <time>2024-09-23T13:55:43.000Z</time>
      </trkpt>
      <trkpt lat="42.3902" lon="19.75028">
        <ele>1374.8199462891</ele>
        <time>2024-09-23T13:55:44.000Z</time>
      </trkpt>
      <trkpt lat="42.39014" lon="19.75015">
        <ele>1374.8199462891</ele>
        <time>2024-09-23T13:55:45.000Z</time>
      </trkpt>
      <trkpt lat="42.39012" lon="19.75006">
        <ele>1374.8199462891</ele>
        <time>2024-09-23T13:55:46.000Z</time>
      </trkpt>
      <trkpt lat="42.39011" lon="19.74993">
        <ele>1374.8199462891</ele>
        <time>2024-09-23T13:55:47.000Z</time>
      </trkpt>
      <trkpt lat="42.39014" lon="19.74981">
        <ele>1373.8599853516</ele>
        <time>2024-09-23T13:55:48.000Z</time>
      </trkpt>
      <trkpt lat="42.39019" lon="19.74971">
        <ele>1372.9000244141</ele>
        <time>2024-09-23T13:55:49.000Z</time>
      </trkpt>
      <trkpt lat="42.39026" lon="19.74965">
        <ele>1371.9399414062</ele>
        <time>2024-09-23T13:55:50.000Z</time>
      </trkpt>
      <trkpt lat="42.39036" lon="19.74964">
        <ele>1370.9799804688</ele>
        <time>2024-09-23T13:55:51.000Z</time>
      </trkpt>
      <trkpt lat="42.39059" lon="19.74966">
        <ele>1369.0500488281</ele>
        <time>2024-09-23T13:55:53.000Z</time>
      </trkpt>
      <trkpt lat="42.39068" lon="19.74965">
        <ele>1368.5699462891</ele>
        <time>2024-09-23T13:55:54.000Z</time>
      </trkpt>
      <trkpt lat="42.39078" lon="19.74961">
        <ele>1367.6099853516</ele>
        <time>2024-09-23T13:55:55.000Z</time>
      </trkpt>
      <trkpt lat="42.39089" lon="19.74953">
        <ele>1366.6500244141</ele>
        <time>2024-09-23T13:55:56.000Z</time>
      </trkpt>
      <trkpt lat="42.39127" lon="19.7492">
        <ele>1364.25</ele>
        <time>2024-09-23T13:55:59.000Z</time>
      </trkpt>
      <trkpt lat="42.39136" lon="19.74913">
        <ele>1363.2900390625</ele>
        <time>2024-09-23T13:56:00.000Z</time>
      </trkpt>
      <trkpt lat="42.39153" lon="19.74897">
        <ele>1360.8800048828</ele>
        <time>2024-09-23T13:56:01.000Z</time>
      </trkpt>
      <trkpt lat="42.3917" lon="19.74878">
        <ele>1358.9599609375</ele>
        <time>2024-09-23T13:56:02.000Z</time>
      </trkpt>
      <trkpt lat="42.39175" lon="19.74874">
        <ele>1358</ele>
        <time>2024-09-23T13:56:03.000Z</time>
      </trkpt>
      <trkpt lat="42.39184" lon="19.74865">
        <ele>1357.0400390625</ele>
        <time>2024-09-23T13:56:04.000Z</time>
      </trkpt>
      <trkpt lat="42.3919" lon="19.7486">
        <ele>1356.5600585938</ele>
        <time>2024-09-23T13:56:05.000Z</time>
      </trkpt>
      <trkpt lat="42.39199" lon="19.74855">
        <ele>1355.5999755859</ele>
        <time>2024-09-23T13:56:06.000Z</time>
      </trkpt>
      <trkpt lat="42.3923" lon="19.74845">
        <ele>1353.6700439453</ele>
        <time>2024-09-23T13:56:08.000Z</time>
      </trkpt>
      <trkpt lat="42.39246" lon="19.74839">
        <ele>1352.2299804688</ele>
        <time>2024-09-23T13:56:10.000Z</time>
      </trkpt>
      <trkpt lat="42.39261" lon="19.74835">
        <ele>1351.75</ele>
        <time>2024-09-23T13:56:11.000Z</time>
      </trkpt>
      <trkpt lat="42.39274" lon="19.74832">
        <ele>1350.3100585938</ele>
        <time>2024-09-23T13:56:12.000Z</time>
      </trkpt>
      <trkpt lat="42.39284" lon="19.74829">
        <ele>1350.3100585938</ele>
        <time>2024-09-23T13:56:13.000Z</time>
      </trkpt>
      <trkpt lat="42.39297" lon="19.74824">
        <ele>1349.8299560547</ele>
        <time>2024-09-23T13:56:14.000Z</time>
      </trkpt>
      <trkpt lat="42.39317" lon="19.74813">
        <ele>1348.3900146484</ele>
        <time>2024-09-23T13:56:15.000Z</time>
      </trkpt>
      <trkpt lat="42.39328" lon="19.74808">
        <ele>1347.9100341797</ele>
        <time>2024-09-23T13:56:16.000Z</time>
      </trkpt>
      <trkpt lat="42.39342" lon="19.74801">
        <ele>1346.9399414062</ele>
        <time>2024-09-23T13:56:17.000Z</time>
      </trkpt>
      <trkpt lat="42.39368" lon="19.74791">
        <ele>1344.0600585938</ele>
        <time>2024-09-23T13:56:18.000Z</time>
      </trkpt>
      <trkpt lat="42.39377" lon="19.74787">
        <ele>1343.5799560547</ele>
        <time>2024-09-23T13:56:19.000Z</time>
      </trkpt>
      <trkpt lat="42.39384" lon="19.74782">
        <ele>1342.6199951172</ele>
        <time>2024-09-23T13:56:20.000Z</time>
      </trkpt>
      <trkpt lat="42.39395" lon="19.74773">
        <ele>1341.6600341797</ele>
        <time>2024-09-23T13:56:21.000Z</time>
      </trkpt>
      <trkpt lat="42.39402" lon="19.74768">
        <ele>1341.6600341797</ele>
        <time>2024-09-23T13:56:22.000Z</time>
      </trkpt>
      <trkpt lat="42.39409" lon="19.74766">
        <ele>1340.6999511719</ele>
        <time>2024-09-23T13:56:23.000Z</time>
      </trkpt>
      <trkpt lat="42.39415" lon="19.74766">
        <ele>1340.2199707031</ele>
        <time>2024-09-23T13:56:24.000Z</time>
      </trkpt>
      <trkpt lat="42.39418" lon="19.74772">
        <ele>1340.6999511719</ele>
        <time>2024-09-23T13:56:25.000Z</time>
      </trkpt>
      <trkpt lat="42.3942" lon="19.74776">
        <ele>1339.7299804688</ele>
        <time>2024-09-23T13:56:26.000Z</time>
      </trkpt>
      <trkpt lat="42.39417" lon="19.74784">
        <ele>1339.25</ele>
        <time>2024-09-23T13:56:27.000Z</time>
      </trkpt>
      <trkpt lat="42.39414" lon="19.74787">
        <ele>1339.25</ele>
        <time>2024-09-23T13:56:28.000Z</time>
      </trkpt>
      <trkpt lat="42.39403" lon="19.74796">
        <ele>1339.25</ele>
        <time>2024-09-23T13:56:29.000Z</time>
      </trkpt>
      <trkpt lat="42.39395" lon="19.74804">
        <ele>1338.7700195312</ele>
        <time>2024-09-23T13:56:30.000Z</time>
      </trkpt>
      <trkpt lat="42.3937" lon="19.74832">
        <ele>1337.3299560547</ele>
        <time>2024-09-23T13:56:33.000Z</time>
      </trkpt>
      <trkpt lat="42.39366" lon="19.74837">
        <ele>1337.3299560547</ele>
        <time>2024-09-23T13:56:34.000Z</time>
      </trkpt>
      <trkpt lat="42.39363" lon="19.74841">
        <ele>1336.8499755859</ele>
        <time>2024-09-23T13:56:35.000Z</time>
      </trkpt>
      <trkpt lat="42.39361" lon="19.74857">
        <ele>1337.3299560547</ele>
        <time>2024-09-23T13:56:39.000Z</time>
      </trkpt>
      <trkpt lat="42.39363" lon="19.74865">
        <ele>1337.3299560547</ele>
        <time>2024-09-23T13:56:40.000Z</time>
      </trkpt>
      <trkpt lat="42.39365" lon="19.74874">
        <ele>1337.3299560547</ele>
        <time>2024-09-23T13:56:41.000Z</time>
      </trkpt>
      <trkpt lat="42.39368" lon="19.74887">
        <ele>1337.3299560547</ele>
        <time>2024-09-23T13:56:42.000Z</time>
      </trkpt>
      <trkpt lat="42.3937" lon="19.74901">
        <ele>1336.3699951172</ele>
        <time>2024-09-23T13:56:43.000Z</time>
      </trkpt>
      <trkpt lat="42.39372" lon="19.74914">
        <ele>1335.8900146484</ele>
        <time>2024-09-23T13:56:44.000Z</time>
      </trkpt>
      <trkpt lat="42.39379" lon="19.74975">
        <ele>1332.0400390625</ele>
        <time>2024-09-23T13:56:48.000Z</time>
      </trkpt>
      <trkpt lat="42.39379" lon="19.74983">
        <ele>1331.0799560547</ele>
        <time>2024-09-23T13:56:49.000Z</time>
      </trkpt>
      <trkpt lat="42.39378" lon="19.74992">
        <ele>1330.1199951172</ele>
        <time>2024-09-23T13:56:50.000Z</time>
      </trkpt>
      <trkpt lat="42.39376" lon="19.74998">
        <ele>1328.6800537109</ele>
        <time>2024-09-23T13:56:51.000Z</time>
      </trkpt>
      <trkpt lat="42.39373" lon="19.75002">
        <ele>1327.2399902344</ele>
        <time>2024-09-23T13:56:52.000Z</time>
      </trkpt>
      <trkpt lat="42.39369" lon="19.75002">
        <ele>1325.8000488281</ele>
        <time>2024-09-23T13:56:53.000Z</time>
      </trkpt>
      <trkpt lat="42.39365" lon="19.74999">
        <ele>1324.8299560547</ele>
        <time>2024-09-23T13:56:54.000Z</time>
      </trkpt>
      <trkpt lat="42.39358" lon="19.74988">
        <ele>1322.9100341797</ele>
        <time>2024-09-23T13:56:55.000Z</time>
      </trkpt>
      <trkpt lat="42.39356" lon="19.74985">
        <ele>1322.9100341797</ele>
        <time>2024-09-23T13:56:56.000Z</time>
      </trkpt>
      <trkpt lat="42.39352" lon="19.74979">
        <ele>1321.9499511719</ele>
        <time>2024-09-23T13:56:57.000Z</time>
      </trkpt>
      <trkpt lat="42.39346" lon="19.74971">
        <ele>1320.9899902344</ele>
        <time>2024-09-23T13:56:58.000Z</time>
      </trkpt>
      <trkpt lat="42.39334" lon="19.7496">
        <ele>1320.0300292969</ele>
        <time>2024-09-23T13:56:59.000Z</time>
      </trkpt>
      <trkpt lat="42.39323" lon="19.74949">
        <ele>1319.0699462891</ele>
        <time>2024-09-23T13:57:00.000Z</time>
      </trkpt>
      <trkpt lat="42.39317" lon="19.74944">
        <ele>1318.5899658203</ele>
        <time>2024-09-23T13:57:01.000Z</time>
      </trkpt>
      <trkpt lat="42.39315" lon="19.74942">
        <ele>1318.0999755859</ele>
        <time>2024-09-23T13:57:02.000Z</time>
      </trkpt>
      <trkpt lat="42.39308" lon="19.74938">
        <ele>1317.1400146484</ele>
        <time>2024-09-23T13:57:03.000Z</time>
      </trkpt>
      <trkpt lat="42.39303" lon="19.74935">
        <ele>1316.6600341797</ele>
        <time>2024-09-23T13:57:04.000Z</time>
      </trkpt>
      <trkpt lat="42.39298" lon="19.74938">
        <ele>1316.1800537109</ele>
        <time>2024-09-23T13:57:05.000Z</time>
      </trkpt>
      <trkpt lat="42.39296" lon="19.74943">
        <ele>1316.1800537109</ele>
        <time>2024-09-23T13:57:06.000Z</time>
      </trkpt>
      <trkpt lat="42.39296" lon="19.74951">
        <ele>1314.7399902344</ele>
        <time>2024-09-23T13:57:07.000Z</time>
      </trkpt>
      <trkpt lat="42.39301" lon="19.7496">
        <ele>1314.2600097656</ele>
        <time>2024-09-23T13:57:08.000Z</time>
      </trkpt>
      <trkpt lat="42.3931" lon="19.74968">
        <ele>1313.7800292969</ele>
        <time>2024-09-23T13:57:09.000Z</time>
      </trkpt>
      <trkpt lat="42.3932" lon="19.74975">
        <ele>1312.8199462891</ele>
        <time>2024-09-23T13:57:10.000Z</time>
      </trkpt>
      <trkpt lat="42.39331" lon="19.74985">
        <ele>1312.3399658203</ele>
        <time>2024-09-23T13:57:11.000Z</time>
      </trkpt>
      <trkpt lat="42.3934" lon="19.74998">
        <ele>1311.8599853516</ele>
        <time>2024-09-23T13:57:12.000Z</time>
      </trkpt>
      <trkpt lat="42.39346" lon="19.7501">
        <ele>1310.9000244141</ele>
        <time>2024-09-23T13:57:13.000Z</time>
      </trkpt>
      <trkpt lat="42.3935" lon="19.75022">
        <ele>1310.4100341797</ele>
        <time>2024-09-23T13:57:14.000Z</time>
      </trkpt>
      <trkpt lat="42.39355" lon="19.75048">
        <ele>1308.9699707031</ele>
        <time>2024-09-23T13:57:15.000Z</time>
      </trkpt>
      <trkpt lat="42.39356" lon="19.75051">
        <ele>1308.4899902344</ele>
        <time>2024-09-23T13:57:16.000Z</time>
      </trkpt>
      <trkpt lat="42.39361" lon="19.75064">
        <ele>1308.4899902344</ele>
        <time>2024-09-23T13:57:17.000Z</time>
      </trkpt>
      <trkpt lat="42.3937" lon="19.75075">
        <ele>1308.0100097656</ele>
        <time>2024-09-23T13:57:18.000Z</time>
      </trkpt>
      <trkpt lat="42.39381" lon="19.75085">
        <ele>1308.0100097656</ele>
        <time>2024-09-23T13:57:19.000Z</time>
      </trkpt>
      <trkpt lat="42.39394" lon="19.75094">
        <ele>1307.5300292969</ele>
        <time>2024-09-23T13:57:20.000Z</time>
      </trkpt>
      <trkpt lat="42.39403" lon="19.75099">
        <ele>1307.0500488281</ele>
        <time>2024-09-23T13:57:21.000Z</time>
      </trkpt>
      <trkpt lat="42.39413" lon="19.75103">
        <ele>1306.5699462891</ele>
        <time>2024-09-23T13:57:22.000Z</time>
      </trkpt>
      <trkpt lat="42.3942" lon="19.75105">
        <ele>1306.0899658203</ele>
        <time>2024-09-23T13:57:23.000Z</time>
      </trkpt>
      <trkpt lat="42.39426" lon="19.75105">
        <ele>1306.0899658203</ele>
        <time>2024-09-23T13:57:24.000Z</time>
      </trkpt>
      <trkpt lat="42.39431" lon="19.75102">
        <ele>1305.6099853516</ele>
        <time>2024-09-23T13:57:25.000Z</time>
      </trkpt>
      <trkpt lat="42.39434" lon="19.75094">
        <ele>1305.1300048828</ele>
        <time>2024-09-23T13:57:26.000Z</time>
      </trkpt>
      <trkpt lat="42.39434" lon="19.75083">
        <ele>1304.6500244141</ele>
        <time>2024-09-23T13:57:27.000Z</time>
      </trkpt>
      <trkpt lat="42.39431" lon="19.75071">
        <ele>1304.1700439453</ele>
        <time>2024-09-23T13:57:28.000Z</time>
      </trkpt>
      <trkpt lat="42.39427" lon="19.75056">
        <ele>1303.6899414062</ele>
        <time>2024-09-23T13:57:29.000Z</time>
      </trkpt>
      <trkpt lat="42.39427" lon="19.75051">
        <ele>1303.1999511719</ele>
        <time>2024-09-23T13:57:30.000Z</time>
      </trkpt>
      <trkpt lat="42.39428" lon="19.75042">
        <ele>1302.7199707031</ele>
        <time>2024-09-23T13:57:31.000Z</time>
      </trkpt>
      <trkpt lat="42.39433" lon="19.75033">
        <ele>1301.2800292969</ele>
        <time>2024-09-23T13:57:32.000Z</time>
      </trkpt>
      <trkpt lat="42.39442" lon="19.75025">
        <ele>1301.2800292969</ele>
        <time>2024-09-23T13:57:33.000Z</time>
      </trkpt>
      <trkpt lat="42.39448" lon="19.75014">
        <ele>1301.2800292969</ele>
        <time>2024-09-23T13:57:34.000Z</time>
      </trkpt>
      <trkpt lat="42.39452" lon="19.75001">
        <ele>1301.2800292969</ele>
        <time>2024-09-23T13:57:35.000Z</time>
      </trkpt>
      <trkpt lat="42.39456" lon="19.74981">
        <ele>1300.8000488281</ele>
        <time>2024-09-23T13:57:36.000Z</time>
      </trkpt>
      <trkpt lat="42.39457" lon="19.74974">
        <ele>1300.8000488281</ele>
        <time>2024-09-23T13:57:37.000Z</time>
      </trkpt>
      <trkpt lat="42.39458" lon="19.7496">
        <ele>1300.8000488281</ele>
        <time>2024-09-23T13:57:38.000Z</time>
      </trkpt>
      <trkpt lat="42.3946" lon="19.74948">
        <ele>1300.8000488281</ele>
        <time>2024-09-23T13:57:39.000Z</time>
      </trkpt>
      <trkpt lat="42.39462" lon="19.7494">
        <ele>1300.8000488281</ele>
        <time>2024-09-23T13:57:40.000Z</time>
      </trkpt>
      <trkpt lat="42.39465" lon="19.74935">
        <ele>1300.3199462891</ele>
        <time>2024-09-23T13:57:41.000Z</time>
      </trkpt>
      <trkpt lat="42.3948" lon="19.74937">
        <ele>1299.3599853516</ele>
        <time>2024-09-23T13:57:46.000Z</time>
      </trkpt>
      <trkpt lat="42.39481" lon="19.74938">
        <ele>1299.3599853516</ele>
        <time>2024-09-23T13:57:47.000Z</time>
      </trkpt>
      <trkpt lat="42.39484" lon="19.74944">
        <ele>1298.8800048828</ele>
        <time>2024-09-23T13:57:48.000Z</time>
      </trkpt>
      <trkpt lat="42.39492" lon="19.74963">
        <ele>1296.9599609375</ele>
        <time>2024-09-23T13:57:50.000Z</time>
      </trkpt>
      <trkpt lat="42.39497" lon="19.74973">
        <ele>1295.9899902344</ele>
        <time>2024-09-23T13:57:51.000Z</time>
      </trkpt>
      <trkpt lat="42.39506" lon="19.74979">
        <ele>1295.5100097656</ele>
        <time>2024-09-23T13:57:52.000Z</time>
      </trkpt>
      <trkpt lat="42.39516" lon="19.74982">
        <ele>1295.0300292969</ele>
        <time>2024-09-23T13:57:53.000Z</time>
      </trkpt>
      <trkpt lat="42.39529" lon="19.74982">
        <ele>1294.5500488281</ele>
        <time>2024-09-23T13:57:54.000Z</time>
      </trkpt>
      <trkpt lat="42.3954" lon="19.74978">
        <ele>1293.5899658203</ele>
        <time>2024-09-23T13:57:55.000Z</time>
      </trkpt>
      <trkpt lat="42.39555" lon="19.74972">
        <ele>1293.1099853516</ele>
        <time>2024-09-23T13:57:56.000Z</time>
      </trkpt>
      <trkpt lat="42.3956" lon="19.74971">
        <ele>1292.6300048828</ele>
        <time>2024-09-23T13:57:57.000Z</time>
      </trkpt>
      <trkpt lat="42.39567" lon="19.74971">
        <ele>1292.6300048828</ele>
        <time>2024-09-23T13:57:58.000Z</time>
      </trkpt>
      <trkpt lat="42.39575" lon="19.74977">
        <ele>1293.5899658203</ele>
        <time>2024-09-23T13:57:59.000Z</time>
      </trkpt>
      <trkpt lat="42.39581" lon="19.74987">
        <ele>1293.1099853516</ele>
        <time>2024-09-23T13:58:00.000Z</time>
      </trkpt>
      <trkpt lat="42.39588" lon="19.74998">
        <ele>1292.6300048828</ele>
        <time>2024-09-23T13:58:01.000Z</time>
      </trkpt>
      <trkpt lat="42.39593" lon="19.75009">
        <ele>1292.1500244141</ele>
        <time>2024-09-23T13:58:02.000Z</time>
      </trkpt>
      <trkpt lat="42.39599" lon="19.75024">
        <ele>1290.7099609375</ele>
        <time>2024-09-23T13:58:03.000Z</time>
      </trkpt>
      <trkpt lat="42.39602" lon="19.75032">
        <ele>1290.2299804688</ele>
        <time>2024-09-23T13:58:04.000Z</time>
      </trkpt>
      <trkpt lat="42.39607" lon="19.75041">
        <ele>1289.75</ele>
        <time>2024-09-23T13:58:05.000Z</time>
      </trkpt>
      <trkpt lat="42.39613" lon="19.75047">
        <ele>1288.7800292969</ele>
        <time>2024-09-23T13:58:06.000Z</time>
      </trkpt>
      <trkpt lat="42.3962" lon="19.75048">
        <ele>1287.8199462891</ele>
        <time>2024-09-23T13:58:07.000Z</time>
      </trkpt>
      <trkpt lat="42.39628" lon="19.75045">
        <ele>1287.3399658203</ele>
        <time>2024-09-23T13:58:08.000Z</time>
      </trkpt>
      <trkpt lat="42.39635" lon="19.75036">
        <ele>1286.3800048828</ele>
        <time>2024-09-23T13:58:09.000Z</time>
      </trkpt>
      <trkpt lat="42.39647" lon="19.75019">
        <ele>1284.9399414062</ele>
        <time>2024-09-23T13:58:10.000Z</time>
      </trkpt>
      <trkpt lat="42.39656" lon="19.75003">
        <ele>1283.9799804688</ele>
        <time>2024-09-23T13:58:11.000Z</time>
      </trkpt>
      <trkpt lat="42.39667" lon="19.74984">
        <ele>1282.5400390625</ele>
        <time>2024-09-23T13:58:12.000Z</time>
      </trkpt>
      <trkpt lat="42.3967" lon="19.74979">
        <ele>1282.5400390625</ele>
        <time>2024-09-23T13:58:13.000Z</time>
      </trkpt>
      <trkpt lat="42.39678" lon="19.74964">
        <ele>1281.0899658203</ele>
        <time>2024-09-23T13:58:14.000Z</time>
      </trkpt>
      <trkpt lat="42.39694" lon="19.74928">
        <ele>1279.6500244141</ele>
        <time>2024-09-23T13:58:16.000Z</time>
      </trkpt>
      <trkpt lat="42.39708" lon="19.74899">
        <ele>1277.25</ele>
        <time>2024-09-23T13:58:17.000Z</time>
      </trkpt>
      <trkpt lat="42.39732" lon="19.74859">
        <ele>1274.3599853516</ele>
        <time>2024-09-23T13:58:20.000Z</time>
      </trkpt>
      <trkpt lat="42.39741" lon="19.74847">
        <ele>1273.4000244141</ele>
        <time>2024-09-23T13:58:21.000Z</time>
      </trkpt>
      <trkpt lat="42.39752" lon="19.74837">
        <ele>1272.4399414062</ele>
        <time>2024-09-23T13:58:22.000Z</time>
      </trkpt>
      <trkpt lat="42.39763" lon="19.74829">
        <ele>1271</ele>
        <time>2024-09-23T13:58:23.000Z</time>
      </trkpt>
      <trkpt lat="42.39777" lon="19.74822">
        <ele>1270.0400390625</ele>
        <time>2024-09-23T13:58:24.000Z</time>
      </trkpt>
      <trkpt lat="42.3979" lon="19.74817">
        <ele>1269.0799560547</ele>
        <time>2024-09-23T13:58:25.000Z</time>
      </trkpt>
      <trkpt lat="42.39799" lon="19.74815">
        <ele>1268.5999755859</ele>
        <time>2024-09-23T13:58:26.000Z</time>
      </trkpt>
      <trkpt lat="42.39811" lon="19.74815">
        <ele>1268.1199951172</ele>
        <time>2024-09-23T13:58:27.000Z</time>
      </trkpt>
      <trkpt lat="42.39819" lon="19.74811">
        <ele>1267.1600341797</ele>
        <time>2024-09-23T13:58:28.000Z</time>
      </trkpt>
      <trkpt lat="42.39829" lon="19.74804">
        <ele>1266.1899414062</ele>
        <time>2024-09-23T13:58:29.000Z</time>
      </trkpt>
      <trkpt lat="42.39841" lon="19.74791">
        <ele>1265.2299804688</ele>
        <time>2024-09-23T13:58:30.000Z</time>
      </trkpt>
      <trkpt lat="42.3986" lon="19.74772">
        <ele>1262.3499755859</ele>
        <time>2024-09-23T13:58:31.000Z</time>
      </trkpt>
      <trkpt lat="42.39863" lon="19.74769">
        <ele>1261.8699951172</ele>
        <time>2024-09-23T13:58:32.000Z</time>
      </trkpt>
      <trkpt lat="42.39872" lon="19.74758">
        <ele>1260.9100341797</ele>
        <time>2024-09-23T13:58:33.000Z</time>
      </trkpt>
      <trkpt lat="42.39882" lon="19.7475">
        <ele>1259.4599609375</ele>
        <time>2024-09-23T13:58:34.000Z</time>
      </trkpt>
      <trkpt lat="42.39893" lon="19.74744">
        <ele>1258.5</ele>
        <time>2024-09-23T13:58:35.000Z</time>
      </trkpt>
      <trkpt lat="42.39905" lon="19.74742">
        <ele>1257.5400390625</ele>
        <time>2024-09-23T13:58:36.000Z</time>
      </trkpt>
      <trkpt lat="42.39918" lon="19.74743">
        <ele>1256.0999755859</ele>
        <time>2024-09-23T13:58:37.000Z</time>
      </trkpt>
      <trkpt lat="42.39932" lon="19.74746">
        <ele>1255.6199951172</ele>
        <time>2024-09-23T13:58:38.000Z</time>
      </trkpt>
      <trkpt lat="42.39939" lon="19.74747">
        <ele>1255.1400146484</ele>
        <time>2024-09-23T13:58:39.000Z</time>
      </trkpt>
      <trkpt lat="42.3995" lon="19.74745">
        <ele>1254.6600341797</ele>
        <time>2024-09-23T13:58:40.000Z</time>
      </trkpt>
      <trkpt lat="42.39974" lon="19.74738">
        <ele>1252.7399902344</ele>
        <time>2024-09-23T13:58:42.000Z</time>
      </trkpt>
      <trkpt lat="42.39981" lon="19.74736">
        <ele>1252.25</ele>
        <time>2024-09-23T13:58:43.000Z</time>
      </trkpt>
      <trkpt lat="42.39992" lon="19.74735">
        <ele>1250.8100585938</ele>
        <time>2024-09-23T13:58:44.000Z</time>
      </trkpt>
      <trkpt lat="42.40023" lon="19.74736">
        <ele>1249.3699951172</ele>
        <time>2024-09-23T13:58:46.000Z</time>
      </trkpt>
      <trkpt lat="42.40034" lon="19.74736">
        <ele>1248.8900146484</ele>
        <time>2024-09-23T13:58:47.000Z</time>
      </trkpt>
      <trkpt lat="42.40041" lon="19.74737">
        <ele>1248.4100341797</ele>
        <time>2024-09-23T13:58:48.000Z</time>
      </trkpt>
      <trkpt lat="42.40052" lon="19.74736">
        <ele>1247.4499511719</ele>
        <time>2024-09-23T13:58:49.000Z</time>
      </trkpt>
      <trkpt lat="42.40061" lon="19.74731">
        <ele>1246.9699707031</ele>
        <time>2024-09-23T13:58:50.000Z</time>
      </trkpt>
      <trkpt lat="42.40072" lon="19.74721">
        <ele>1246.0100097656</ele>
        <time>2024-09-23T13:58:51.000Z</time>
      </trkpt>
      <trkpt lat="42.40075" lon="19.74718">
        <ele>1245.5300292969</ele>
        <time>2024-09-23T13:58:52.000Z</time>
      </trkpt>
      <trkpt lat="42.40082" lon="19.74715">
        <ele>1245.5300292969</ele>
        <time>2024-09-23T13:58:53.000Z</time>
      </trkpt>
      <trkpt lat="42.4009" lon="19.74715">
        <ele>1244.5600585938</ele>
        <time>2024-09-23T13:58:54.000Z</time>
      </trkpt>
      <trkpt lat="42.40114" lon="19.74721">
        <ele>1241.6800537109</ele>
        <time>2024-09-23T13:58:56.000Z</time>
      </trkpt>
      <trkpt lat="42.40121" lon="19.74724">
        <ele>1240.7199707031</ele>
        <time>2024-09-23T13:58:57.000Z</time>
      </trkpt>
      <trkpt lat="42.40128" lon="19.74728">
        <ele>1240.7199707031</ele>
        <time>2024-09-23T13:58:58.000Z</time>
      </trkpt>
      <trkpt lat="42.40136" lon="19.74736">
        <ele>1240.2399902344</ele>
        <time>2024-09-23T13:58:59.000Z</time>
      </trkpt>
      <trkpt lat="42.40145" lon="19.74747">
        <ele>1239.7600097656</ele>
        <time>2024-09-23T13:59:00.000Z</time>
      </trkpt>
      <trkpt lat="42.40152" lon="19.74753">
        <ele>1239.2800292969</ele>
        <time>2024-09-23T13:59:01.000Z</time>
      </trkpt>
      <trkpt lat="42.40161" lon="19.74758">
        <ele>1238.3199462891</ele>
        <time>2024-09-23T13:59:02.000Z</time>
      </trkpt>
      <trkpt lat="42.4017" lon="19.74759">
        <ele>1237.8299560547</ele>
        <time>2024-09-23T13:59:03.000Z</time>
      </trkpt>
      <trkpt lat="42.40179" lon="19.74757">
        <ele>1237.3499755859</ele>
        <time>2024-09-23T13:59:04.000Z</time>
      </trkpt>
      <trkpt lat="42.40186" lon="19.74753">
        <ele>1236.8699951172</ele>
        <time>2024-09-23T13:59:05.000Z</time>
      </trkpt>
      <trkpt lat="42.40193" lon="19.74748">
        <ele>1236.3900146484</ele>
        <time>2024-09-23T13:59:06.000Z</time>
      </trkpt>
      <trkpt lat="42.40201" lon="19.74742">
        <ele>1235.9100341797</ele>
        <time>2024-09-23T13:59:07.000Z</time>
      </trkpt>
      <trkpt lat="42.40209" lon="19.74737">
        <ele>1234.9499511719</ele>
        <time>2024-09-23T13:59:08.000Z</time>
      </trkpt>
      <trkpt lat="42.40215" lon="19.74736">
        <ele>1234.4699707031</ele>
        <time>2024-09-23T13:59:09.000Z</time>
      </trkpt>
      <trkpt lat="42.4022" lon="19.74738">
        <ele>1233.9899902344</ele>
        <time>2024-09-23T13:59:10.000Z</time>
      </trkpt>
      <trkpt lat="42.40223" lon="19.74739">
        <ele>1233.5100097656</ele>
        <time>2024-09-23T13:59:11.000Z</time>
      </trkpt>
      <trkpt lat="42.40227" lon="19.74742">
        <ele>1233.0300292969</ele>
        <time>2024-09-23T13:59:12.000Z</time>
      </trkpt>
      <trkpt lat="42.40232" lon="19.74748">
        <ele>1232.0699462891</ele>
        <time>2024-09-23T13:59:13.000Z</time>
      </trkpt>
      <trkpt lat="42.40236" lon="19.74752">
        <ele>1232.0699462891</ele>
        <time>2024-09-23T13:59:14.000Z</time>
      </trkpt>
      <trkpt lat="42.4024" lon="19.74757">
        <ele>1231.1099853516</ele>
        <time>2024-09-23T13:59:15.000Z</time>
      </trkpt>
      <trkpt lat="42.40246" lon="19.74765">
        <ele>1230.6199951172</ele>
        <time>2024-09-23T13:59:16.000Z</time>
      </trkpt>
      <trkpt lat="42.40252" lon="19.74771">
        <ele>1230.1400146484</ele>
        <time>2024-09-23T13:59:17.000Z</time>
      </trkpt>
      <trkpt lat="42.40256" lon="19.74775">
        <ele>1229.1800537109</ele>
        <time>2024-09-23T13:59:18.000Z</time>
      </trkpt>
      <trkpt lat="42.40263" lon="19.74779">
        <ele>1228.6999511719</ele>
        <time>2024-09-23T13:59:19.000Z</time>
      </trkpt>
      <trkpt lat="42.4027" lon="19.7478">
        <ele>1228.2199707031</ele>
        <time>2024-09-23T13:59:20.000Z</time>
      </trkpt>
      <trkpt lat="42.40277" lon="19.74778">
        <ele>1228.2199707031</ele>
        <time>2024-09-23T13:59:21.000Z</time>
      </trkpt>
      <trkpt lat="42.40284" lon="19.74774">
        <ele>1227.7399902344</ele>
        <time>2024-09-23T13:59:22.000Z</time>
      </trkpt>
      <trkpt lat="42.40291" lon="19.74767">
        <ele>1227.2600097656</ele>
        <time>2024-09-23T13:59:23.000Z</time>
      </trkpt>
      <trkpt lat="42.40296" lon="19.74761">
        <ele>1226.7800292969</ele>
        <time>2024-09-23T13:59:24.000Z</time>
      </trkpt>
      <trkpt lat="42.40303" lon="19.74757">
        <ele>1226.3000488281</ele>
        <time>2024-09-23T13:59:25.000Z</time>
      </trkpt>
      <trkpt lat="42.40308" lon="19.74755">
        <ele>1225.8199462891</ele>
        <time>2024-09-23T13:59:26.000Z</time>
      </trkpt>
      <trkpt lat="42.40313" lon="19.74756">
        <ele>1225.8199462891</ele>
        <time>2024-09-23T13:59:27.000Z</time>
      </trkpt>
      <trkpt lat="42.40317" lon="19.7476">
        <ele>1225.8199462891</ele>
        <time>2024-09-23T13:59:28.000Z</time>
      </trkpt>
      <trkpt lat="42.40319" lon="19.74764">
        <ele>1225.3399658203</ele>
        <time>2024-09-23T13:59:29.000Z</time>
      </trkpt>
      <trkpt lat="42.40317" lon="19.74772">
        <ele>1225.3399658203</ele>
        <time>2024-09-23T13:59:30.000Z</time>
      </trkpt>
      <trkpt lat="42.40314" lon="19.74775">
        <ele>1225.3399658203</ele>
        <time>2024-09-23T13:59:31.000Z</time>
      </trkpt>
      <trkpt lat="42.4031" lon="19.74779">
        <ele>1224.8599853516</ele>
        <time>2024-09-23T13:59:32.000Z</time>
      </trkpt>
      <trkpt lat="42.40305" lon="19.74783">
        <ele>1224.8599853516</ele>
        <time>2024-09-23T13:59:33.000Z</time>
      </trkpt>
      <trkpt lat="42.40299" lon="19.7479">
        <ele>1224.3800048828</ele>
        <time>2024-09-23T13:59:34.000Z</time>
      </trkpt>
      <trkpt lat="42.40293" lon="19.74801">
        <ele>1224.3800048828</ele>
        <time>2024-09-23T13:59:35.000Z</time>
      </trkpt>
      <trkpt lat="42.40288" lon="19.74809">
        <ele>1224.3800048828</ele>
        <time>2024-09-23T13:59:36.000Z</time>
      </trkpt>
      <trkpt lat="42.40281" lon="19.74817">
        <ele>1223.9000244141</ele>
        <time>2024-09-23T13:59:37.000Z</time>
      </trkpt>
      <trkpt lat="42.40273" lon="19.74822">
        <ele>1223.4200439453</ele>
        <time>2024-09-23T13:59:38.000Z</time>
      </trkpt>
      <trkpt lat="42.40263" lon="19.74827">
        <ele>1222.9300537109</ele>
        <time>2024-09-23T13:59:39.000Z</time>
      </trkpt>
      <trkpt lat="42.40251" lon="19.74834">
        <ele>1221.9699707031</ele>
        <time>2024-09-23T13:59:40.000Z</time>
      </trkpt>
      <trkpt lat="42.40247" lon="19.74835">
        <ele>1221.9699707031</ele>
        <time>2024-09-23T13:59:41.000Z</time>
      </trkpt>
      <trkpt lat="42.40237" lon="19.74838">
        <ele>1221.0100097656</ele>
        <time>2024-09-23T13:59:42.000Z</time>
      </trkpt>
      <trkpt lat="42.40222" lon="19.74836">
        <ele>1219.0899658203</ele>
        <time>2024-09-23T13:59:43.000Z</time>
      </trkpt>
      <trkpt lat="42.402" lon="19.74832">
        <ele>1216.2099609375</ele>
        <time>2024-09-23T13:59:45.000Z</time>
      </trkpt>
      <trkpt lat="42.40193" lon="19.74831">
        <ele>1215.2399902344</ele>
        <time>2024-09-23T13:59:46.000Z</time>
      </trkpt>
      <trkpt lat="42.40182" lon="19.74833">
        <ele>1214.2800292969</ele>
        <time>2024-09-23T13:59:47.000Z</time>
      </trkpt>
      <trkpt lat="42.40172" lon="19.74835">
        <ele>1213.3199462891</ele>
        <time>2024-09-23T13:59:48.000Z</time>
      </trkpt>
      <trkpt lat="42.40164" lon="19.74837">
        <ele>1212.3599853516</ele>
        <time>2024-09-23T13:59:49.000Z</time>
      </trkpt>
      <trkpt lat="42.40162" lon="19.74838">
        <ele>1212.3599853516</ele>
        <time>2024-09-23T13:59:50.000Z</time>
      </trkpt>
      <trkpt lat="42.40148" lon="19.74851">
        <ele>1210.4399414062</ele>
        <time>2024-09-23T13:59:54.000Z</time>
      </trkpt>
      <trkpt lat="42.40147" lon="19.74853">
        <ele>1210.4399414062</ele>
        <time>2024-09-23T13:59:55.000Z</time>
      </trkpt>
      <trkpt lat="42.40145" lon="19.74858">
        <ele>1210.4399414062</ele>
        <time>2024-09-23T13:59:56.000Z</time>
      </trkpt>
      <trkpt lat="42.40144" lon="19.74864">
        <ele>1210.4399414062</ele>
        <time>2024-09-23T13:59:57.000Z</time>
      </trkpt>
      <trkpt lat="42.40144" lon="19.7487">
        <ele>1210.4399414062</ele>
        <time>2024-09-23T13:59:58.000Z</time>
      </trkpt>
      <trkpt lat="42.40146" lon="19.74877">
        <ele>1209.9599609375</ele>
        <time>2024-09-23T13:59:59.000Z</time>
      </trkpt>
      <trkpt lat="42.4015" lon="19.74885">
        <ele>1209.9599609375</ele>
        <time>2024-09-23T14:00:00.000Z</time>
      </trkpt>
      <trkpt lat="42.40155" lon="19.74893">
        <ele>1209.4799804688</ele>
        <time>2024-09-23T14:00:01.000Z</time>
      </trkpt>
      <trkpt lat="42.40162" lon="19.74904">
        <ele>1209</ele>
        <time>2024-09-23T14:00:02.000Z</time>
      </trkpt>
      <trkpt lat="42.40169" lon="19.74916">
        <ele>1208.5100097656</ele>
        <time>2024-09-23T14:00:03.000Z</time>
      </trkpt>
      <trkpt lat="42.4017" lon="19.74918">
        <ele>1208.0300292969</ele>
        <time>2024-09-23T14:00:04.000Z</time>
      </trkpt>
      <trkpt lat="42.40182" lon="19.74947">
        <ele>1207.0699462891</ele>
        <time>2024-09-23T14:00:06.000Z</time>
      </trkpt>
      <trkpt lat="42.40184" lon="19.74955">
        <ele>1206.5899658203</ele>
        <time>2024-09-23T14:00:07.000Z</time>
      </trkpt>
      <trkpt lat="42.40187" lon="19.74969">
        <ele>1206.1099853516</ele>
        <time>2024-09-23T14:00:08.000Z</time>
      </trkpt>
      <trkpt lat="42.40188" lon="19.74986">
        <ele>1205.1500244141</ele>
        <time>2024-09-23T14:00:09.000Z</time>
      </trkpt>
      <trkpt lat="42.40189" lon="19.75002">
        <ele>1204.6700439453</ele>
        <time>2024-09-23T14:00:10.000Z</time>
      </trkpt>
      <trkpt lat="42.40189" lon="19.75019">
        <ele>1203.7099609375</ele>
        <time>2024-09-23T14:00:11.000Z</time>
      </trkpt>
      <trkpt lat="42.40188" lon="19.7505">
        <ele>1201.7900390625</ele>
        <time>2024-09-23T14:00:12.000Z</time>
      </trkpt>
      <trkpt lat="42.40187" lon="19.75053">
        <ele>1201.3000488281</ele>
        <time>2024-09-23T14:00:13.000Z</time>
      </trkpt>
      <trkpt lat="42.40185" lon="19.75093">
        <ele>1198.4200439453</ele>
        <time>2024-09-23T14:00:15.000Z</time>
      </trkpt>
      <trkpt lat="42.40184" lon="19.75099">
        <ele>1197.9399414062</ele>
        <time>2024-09-23T14:00:16.000Z</time>
      </trkpt>
      <trkpt lat="42.40181" lon="19.75115">
        <ele>1196.5</ele>
        <time>2024-09-23T14:00:17.000Z</time>
      </trkpt>
      <trkpt lat="42.40177" lon="19.75128">
        <ele>1195.5400390625</ele>
        <time>2024-09-23T14:00:18.000Z</time>
      </trkpt>
      <trkpt lat="42.40174" lon="19.75136">
        <ele>1194.5799560547</ele>
        <time>2024-09-23T14:00:19.000Z</time>
      </trkpt>
      <trkpt lat="42.40168" lon="19.75148">
        <ele>1193.1300048828</ele>
        <time>2024-09-23T14:00:20.000Z</time>
      </trkpt>
      <trkpt lat="42.40166" lon="19.75154">
        <ele>1192.6500244141</ele>
        <time>2024-09-23T14:00:21.000Z</time>
      </trkpt>
      <trkpt lat="42.40164" lon="19.75163">
        <ele>1192.1700439453</ele>
        <time>2024-09-23T14:00:22.000Z</time>
      </trkpt>
      <trkpt lat="42.40166" lon="19.75172">
        <ele>1192.1700439453</ele>
        <time>2024-09-23T14:00:23.000Z</time>
      </trkpt>
      <trkpt lat="42.40169" lon="19.75179">
        <ele>1191.6899414062</ele>
        <time>2024-09-23T14:00:24.000Z</time>
      </trkpt>
      <trkpt lat="42.40172" lon="19.75187">
        <ele>1191.2099609375</ele>
        <time>2024-09-23T14:00:25.000Z</time>
      </trkpt>
      <trkpt lat="42.40175" lon="19.75196">
        <ele>1190.25</ele>
        <time>2024-09-23T14:00:26.000Z</time>
      </trkpt>
      <trkpt lat="42.40175" lon="19.75206">
        <ele>1189.7700195312</ele>
        <time>2024-09-23T14:00:27.000Z</time>
      </trkpt>
      <trkpt lat="42.40173" lon="19.7522">
        <ele>1188.8100585938</ele>
        <time>2024-09-23T14:00:28.000Z</time>
      </trkpt>
      <trkpt lat="42.40169" lon="19.75232">
        <ele>1187.3699951172</ele>
        <time>2024-09-23T14:00:29.000Z</time>
      </trkpt>
      <trkpt lat="42.40164" lon="19.75242">
        <ele>1186.4000244141</ele>
        <time>2024-09-23T14:00:30.000Z</time>
      </trkpt>
      <trkpt lat="42.40157" lon="19.75252">
        <ele>1185.4399414062</ele>
        <time>2024-09-23T14:00:31.000Z</time>
      </trkpt>
      <trkpt lat="42.40148" lon="19.75263">
        <ele>1184.4799804688</ele>
        <time>2024-09-23T14:00:32.000Z</time>
      </trkpt>
      <trkpt lat="42.40142" lon="19.75269">
        <ele>1184</ele>
        <time>2024-09-23T14:00:33.000Z</time>
      </trkpt>
      <trkpt lat="42.40135" lon="19.75273">
        <ele>1182.0799560547</ele>
        <time>2024-09-23T14:00:34.000Z</time>
      </trkpt>
      <trkpt lat="42.40127" lon="19.75273">
        <ele>1180.6400146484</ele>
        <time>2024-09-23T14:00:35.000Z</time>
      </trkpt>
      <trkpt lat="42.4011" lon="19.75267">
        <ele>1178.7099609375</ele>
        <time>2024-09-23T14:00:36.000Z</time>
      </trkpt>
      <trkpt lat="42.40107" lon="19.75266">
        <ele>1178.2299804688</ele>
        <time>2024-09-23T14:00:37.000Z</time>
      </trkpt>
      <trkpt lat="42.40099" lon="19.75264">
        <ele>1177.2700195312</ele>
        <time>2024-09-23T14:00:38.000Z</time>
      </trkpt>
      <trkpt lat="42.4009" lon="19.75263">
        <ele>1176.3100585938</ele>
        <time>2024-09-23T14:00:39.000Z</time>
      </trkpt>
      <trkpt lat="42.40083" lon="19.75264">
        <ele>1175.3499755859</ele>
        <time>2024-09-23T14:00:40.000Z</time>
      </trkpt>
      <trkpt lat="42.40077" lon="19.75267">
        <ele>1174.8699951172</ele>
        <time>2024-09-23T14:00:41.000Z</time>
      </trkpt>
      <trkpt lat="42.4007" lon="19.75271">
        <ele>1174.3900146484</ele>
        <time>2024-09-23T14:00:42.000Z</time>
      </trkpt>
      <trkpt lat="42.40061" lon="19.75281">
        <ele>1174.8699951172</ele>
        <time>2024-09-23T14:00:43.000Z</time>
      </trkpt>
      <trkpt lat="42.40051" lon="19.75292">
        <ele>1173.9100341797</ele>
        <time>2024-09-23T14:00:44.000Z</time>
      </trkpt>
      <trkpt lat="42.40045" lon="19.75299">
        <ele>1173.4300537109</ele>
        <time>2024-09-23T14:00:45.000Z</time>
      </trkpt>
      <trkpt lat="42.40025" lon="19.75315">
        <ele>1171.9799804688</ele>
        <time>2024-09-23T14:00:47.000Z</time>
      </trkpt>
      <trkpt lat="42.40022" lon="19.75318">
        <ele>1171.5</ele>
        <time>2024-09-23T14:00:48.000Z</time>
      </trkpt>
      <trkpt lat="42.40012" lon="19.75322">
        <ele>1170.5400390625</ele>
        <time>2024-09-23T14:00:49.000Z</time>
      </trkpt>
      <trkpt lat="42.39943" lon="19.75329">
        <ele>1164.7700195312</ele>
        <time>2024-09-23T14:00:55.000Z</time>
      </trkpt>
      <trkpt lat="42.39941" lon="19.75329">
        <ele>1164.7700195312</ele>
        <time>2024-09-23T14:00:56.000Z</time>
      </trkpt>
      <trkpt lat="42.39934" lon="19.75332">
        <ele>1164.7700195312</ele>
        <time>2024-09-23T14:00:57.000Z</time>
      </trkpt>
      <trkpt lat="42.39929" lon="19.75336">
        <ele>1163.8100585938</ele>
        <time>2024-09-23T14:00:58.000Z</time>
      </trkpt>
      <trkpt lat="42.39924" lon="19.75341">
        <ele>1163.3299560547</ele>
        <time>2024-09-23T14:00:59.000Z</time>
      </trkpt>
      <trkpt lat="42.39919" lon="19.75348">
        <ele>1162.3699951172</ele>
        <time>2024-09-23T14:01:00.000Z</time>
      </trkpt>
      <trkpt lat="42.39917" lon="19.75356">
        <ele>1161.8900146484</ele>
        <time>2024-09-23T14:01:01.000Z</time>
      </trkpt>
      <trkpt lat="42.39919" lon="19.75364">
        <ele>1160.9300537109</ele>
        <time>2024-09-23T14:01:02.000Z</time>
      </trkpt>
      <trkpt lat="42.39923" lon="19.75371">
        <ele>1160.4499511719</ele>
        <time>2024-09-23T14:01:03.000Z</time>
      </trkpt>
      <trkpt lat="42.39933" lon="19.75385">
        <ele>1158.0500488281</ele>
        <time>2024-09-23T14:01:04.000Z</time>
      </trkpt>
      <trkpt lat="42.39943" lon="19.75401">
        <ele>1156.1199951172</ele>
        <time>2024-09-23T14:01:06.000Z</time>
      </trkpt>
      <trkpt lat="42.39952" lon="19.75411">
        <ele>1154.6800537109</ele>
        <time>2024-09-23T14:01:07.000Z</time>
      </trkpt>
      <trkpt lat="42.39962" lon="19.75419">
        <ele>1152.7600097656</ele>
        <time>2024-09-23T14:01:08.000Z</time>
      </trkpt>
      <trkpt lat="42.39974" lon="19.75427">
        <ele>1150.8399658203</ele>
        <time>2024-09-23T14:01:09.000Z</time>
      </trkpt>
      <trkpt lat="42.39986" lon="19.75433">
        <ele>1149.3900146484</ele>
        <time>2024-09-23T14:01:10.000Z</time>
      </trkpt>
      <trkpt lat="42.39994" lon="19.75436">
        <ele>1148.4300537109</ele>
        <time>2024-09-23T14:01:11.000Z</time>
      </trkpt>
      <trkpt lat="42.40016" lon="19.75438">
        <ele>1147.4699707031</ele>
        <time>2024-09-23T14:01:17.000Z</time>
      </trkpt>
      <trkpt lat="42.4002" lon="19.75435">
        <ele>1146.9899902344</ele>
        <time>2024-09-23T14:01:18.000Z</time>
      </trkpt>
      <trkpt lat="42.40024" lon="19.75432">
        <ele>1146.5100097656</ele>
        <time>2024-09-23T14:01:19.000Z</time>
      </trkpt>
      <trkpt lat="42.40029" lon="19.75426">
        <ele>1146.0300292969</ele>
        <time>2024-09-23T14:01:20.000Z</time>
      </trkpt>
      <trkpt lat="42.40033" lon="19.75421">
        <ele>1145.5500488281</ele>
        <time>2024-09-23T14:01:21.000Z</time>
      </trkpt>
      <trkpt lat="42.40039" lon="19.75412">
        <ele>1145.5500488281</ele>
        <time>2024-09-23T14:01:22.000Z</time>
      </trkpt>
      <trkpt lat="42.40042" lon="19.75409">
        <ele>1145.0699462891</ele>
        <time>2024-09-23T14:01:23.000Z</time>
      </trkpt>
      <trkpt lat="42.4005" lon="19.75404">
        <ele>1144.5899658203</ele>
        <time>2024-09-23T14:01:24.000Z</time>
      </trkpt>
      <trkpt lat="42.4006" lon="19.75399">
        <ele>1144.1099853516</ele>
        <time>2024-09-23T14:01:25.000Z</time>
      </trkpt>
      <trkpt lat="42.40071" lon="19.75398">
        <ele>1144.1099853516</ele>
        <time>2024-09-23T14:01:26.000Z</time>
      </trkpt>
      <trkpt lat="42.40081" lon="19.75399">
        <ele>1143.6300048828</ele>
        <time>2024-09-23T14:01:27.000Z</time>
      </trkpt>
      <trkpt lat="42.40092" lon="19.75402">
        <ele>1143.1400146484</ele>
        <time>2024-09-23T14:01:28.000Z</time>
      </trkpt>
      <trkpt lat="42.40098" lon="19.75403">
        <ele>1142.6600341797</ele>
        <time>2024-09-23T14:01:29.000Z</time>
      </trkpt>
      <trkpt lat="42.4011" lon="19.75406">
        <ele>1142.6600341797</ele>
        <time>2024-09-23T14:01:30.000Z</time>
      </trkpt>
      <trkpt lat="42.40123" lon="19.75411">
        <ele>1141.6999511719</ele>
        <time>2024-09-23T14:01:31.000Z</time>
      </trkpt>
      <trkpt lat="42.4013" lon="19.75412">
        <ele>1141.6999511719</ele>
        <time>2024-09-23T14:01:32.000Z</time>
      </trkpt>
      <trkpt lat="42.40142" lon="19.75411">
        <ele>1140.7399902344</ele>
        <time>2024-09-23T14:01:33.000Z</time>
      </trkpt>
      <trkpt lat="42.40153" lon="19.75409">
        <ele>1140.2600097656</ele>
        <time>2024-09-23T14:01:34.000Z</time>
      </trkpt>
      <trkpt lat="42.40165" lon="19.75409">
        <ele>1139.7800292969</ele>
        <time>2024-09-23T14:01:35.000Z</time>
      </trkpt>
      <trkpt lat="42.40172" lon="19.75414">
        <ele>1138.3399658203</ele>
        <time>2024-09-23T14:01:36.000Z</time>
      </trkpt>
      <trkpt lat="42.40178" lon="19.75417">
        <ele>1137.8599853516</ele>
        <time>2024-09-23T14:01:37.000Z</time>
      </trkpt>
      <trkpt lat="42.40179" lon="19.75417">
        <ele>1137.8599853516</ele>
        <time>2024-09-23T14:01:38.000Z</time>
      </trkpt>
      <trkpt lat="42.40184" lon="19.75418">
        <ele>1137.3800048828</ele>
        <time>2024-09-23T14:01:39.000Z</time>
      </trkpt>
      <trkpt lat="42.40188" lon="19.75418">
        <ele>1136.9000244141</ele>
        <time>2024-09-23T14:01:40.000Z</time>
      </trkpt>
      <trkpt lat="42.40195" lon="19.75415">
        <ele>1136.4200439453</ele>
        <time>2024-09-23T14:01:41.000Z</time>
      </trkpt>
      <trkpt lat="42.40204" lon="19.75408">
        <ele>1135.9399414062</ele>
        <time>2024-09-23T14:01:42.000Z</time>
      </trkpt>
      <trkpt lat="42.40215" lon="19.75398">
        <ele>1134.4899902344</ele>
        <time>2024-09-23T14:01:43.000Z</time>
      </trkpt>
      <trkpt lat="42.40228" lon="19.75389">
        <ele>1134.0100097656</ele>
        <time>2024-09-23T14:01:44.000Z</time>
      </trkpt>
      <trkpt lat="42.40247" lon="19.75375">
        <ele>1132.5699462891</ele>
        <time>2024-09-23T14:01:45.000Z</time>
      </trkpt>
      <trkpt lat="42.40256" lon="19.7537">
        <ele>1132.0899658203</ele>
        <time>2024-09-23T14:01:46.000Z</time>
      </trkpt>
      <trkpt lat="42.40276" lon="19.75359">
        <ele>1130.1700439453</ele>
        <time>2024-09-23T14:01:47.000Z</time>
      </trkpt>
      <trkpt lat="42.40286" lon="19.75354">
        <ele>1129.6899414062</ele>
        <time>2024-09-23T14:01:48.000Z</time>
      </trkpt>
      <trkpt lat="42.40297" lon="19.75347">
        <ele>1128.7299804688</ele>
        <time>2024-09-23T14:01:49.000Z</time>
      </trkpt>
      <trkpt lat="42.40309" lon="19.75337">
        <ele>1127.7600097656</ele>
        <time>2024-09-23T14:01:50.000Z</time>
      </trkpt>
      <trkpt lat="42.40321" lon="19.75325">
        <ele>1126.3199462891</ele>
        <time>2024-09-23T14:01:51.000Z</time>
      </trkpt>
      <trkpt lat="42.40333" lon="19.75311">
        <ele>1124.8800048828</ele>
        <time>2024-09-23T14:01:52.000Z</time>
      </trkpt>
      <trkpt lat="42.40342" lon="19.75297">
        <ele>1123.9200439453</ele>
        <time>2024-09-23T14:01:53.000Z</time>
      </trkpt>
      <trkpt lat="42.4035" lon="19.75281">
        <ele>1122.4799804688</ele>
        <time>2024-09-23T14:01:54.000Z</time>
      </trkpt>
      <trkpt lat="42.40356" lon="19.75265">
        <ele>1121.5200195312</ele>
        <time>2024-09-23T14:01:55.000Z</time>
      </trkpt>
      <trkpt lat="42.40363" lon="19.7525">
        <ele>1120.0699462891</ele>
        <time>2024-09-23T14:01:56.000Z</time>
      </trkpt>
      <trkpt lat="42.40372" lon="19.7524">
        <ele>1119.1099853516</ele>
        <time>2024-09-23T14:01:57.000Z</time>
      </trkpt>
      <trkpt lat="42.40381" lon="19.75236">
        <ele>1118.6300048828</ele>
        <time>2024-09-23T14:01:58.000Z</time>
      </trkpt>
      <trkpt lat="42.40408" lon="19.75218">
        <ele>1115.75</ele>
        <time>2024-09-23T14:02:00.000Z</time>
      </trkpt>
      <trkpt lat="42.40469" lon="19.75181">
        <ele>1109.5</ele>
        <time>2024-09-23T14:02:04.000Z</time>
      </trkpt>
      <trkpt lat="42.40476" lon="19.75175">
        <ele>1108.5400390625</ele>
        <time>2024-09-23T14:02:05.000Z</time>
      </trkpt>
      <trkpt lat="42.40485" lon="19.75167">
        <ele>1107.5799560547</ele>
        <time>2024-09-23T14:02:06.000Z</time>
      </trkpt>
      <trkpt lat="42.40491" lon="19.75163">
        <ele>1107.0999755859</ele>
        <time>2024-09-23T14:02:07.000Z</time>
      </trkpt>
      <trkpt lat="42.40497" lon="19.75164">
        <ele>1106.1300048828</ele>
        <time>2024-09-23T14:02:08.000Z</time>
      </trkpt>
      <trkpt lat="42.40497" lon="19.75174">
        <ele>1103.25</ele>
        <time>2024-09-23T14:02:10.000Z</time>
      </trkpt>
      <trkpt lat="42.40485" lon="19.75186">
        <ele>1103.25</ele>
        <time>2024-09-23T14:02:11.000Z</time>
      </trkpt>
      <trkpt lat="42.40481" lon="19.75191">
        <ele>1103.25</ele>
        <time>2024-09-23T14:02:12.000Z</time>
      </trkpt>
      <trkpt lat="42.40431" lon="19.75242">
        <ele>1100.3699951172</ele>
        <time>2024-09-23T14:02:15.000Z</time>
      </trkpt>
      <trkpt lat="42.40429" lon="19.75244">
        <ele>1099.8900146484</ele>
        <time>2024-09-23T14:02:16.000Z</time>
      </trkpt>
      <trkpt lat="42.4042" lon="19.75256">
        <ele>1099.4000244141</ele>
        <time>2024-09-23T14:02:17.000Z</time>
      </trkpt>
      <trkpt lat="42.40411" lon="19.75272">
        <ele>1098.4399414062</ele>
        <time>2024-09-23T14:02:18.000Z</time>
      </trkpt>
      <trkpt lat="42.40405" lon="19.7529">
        <ele>1097.4799804688</ele>
        <time>2024-09-23T14:02:19.000Z</time>
      </trkpt>
      <trkpt lat="42.404" lon="19.75308">
        <ele>1096.0400390625</ele>
        <time>2024-09-23T14:02:20.000Z</time>
      </trkpt>
      <trkpt lat="42.40394" lon="19.75334">
        <ele>1093.1600341797</ele>
        <time>2024-09-23T14:02:21.000Z</time>
      </trkpt>
      <trkpt lat="42.40388" lon="19.75351">
        <ele>1092.1999511719</ele>
        <time>2024-09-23T14:02:22.000Z</time>
      </trkpt>
      <trkpt lat="42.40381" lon="19.75368">
        <ele>1091.2299804688</ele>
        <time>2024-09-23T14:02:23.000Z</time>
      </trkpt>
      <trkpt lat="42.40352" lon="19.7542">
        <ele>1086.9100341797</ele>
        <time>2024-09-23T14:02:25.000Z</time>
      </trkpt>
      <trkpt lat="42.40349" lon="19.75424">
        <ele>1086.9100341797</ele>
        <time>2024-09-23T14:02:26.000Z</time>
      </trkpt>
      <trkpt lat="42.40329" lon="19.75467">
        <ele>1084.0200195312</ele>
        <time>2024-09-23T14:02:28.000Z</time>
      </trkpt>
      <trkpt lat="42.40321" lon="19.75483">
        <ele>1083.0600585938</ele>
        <time>2024-09-23T14:02:29.000Z</time>
      </trkpt>
      <trkpt lat="42.4031" lon="19.75497">
        <ele>1081.6199951172</ele>
        <time>2024-09-23T14:02:30.000Z</time>
      </trkpt>
      <trkpt lat="42.40297" lon="19.75511">
        <ele>1080.6600341797</ele>
        <time>2024-09-23T14:02:31.000Z</time>
      </trkpt>
      <trkpt lat="42.40284" lon="19.75523">
        <ele>1080.6600341797</ele>
        <time>2024-09-23T14:02:32.000Z</time>
      </trkpt>
      <trkpt lat="42.4027" lon="19.75533">
        <ele>1080.6600341797</ele>
        <time>2024-09-23T14:02:33.000Z</time>
      </trkpt>
      <trkpt lat="42.40258" lon="19.75538">
        <ele>1080.6600341797</ele>
        <time>2024-09-23T14:02:34.000Z</time>
      </trkpt>
      <trkpt lat="42.40245" lon="19.75539">
        <ele>1080.1800537109</ele>
        <time>2024-09-23T14:02:35.000Z</time>
      </trkpt>
      <trkpt lat="42.40212" lon="19.75535">
        <ele>1080.6600341797</ele>
        <time>2024-09-23T14:02:37.000Z</time>
      </trkpt>
      <trkpt lat="42.40208" lon="19.75535">
        <ele>1080.6600341797</ele>
        <time>2024-09-23T14:02:38.000Z</time>
      </trkpt>
      <trkpt lat="42.40203" lon="19.75538">
        <ele>1081.1400146484</ele>
        <time>2024-09-23T14:02:39.000Z</time>
      </trkpt>
      <trkpt lat="42.40202" lon="19.75544">
        <ele>1080.6600341797</ele>
        <time>2024-09-23T14:02:40.000Z</time>
      </trkpt>
      <trkpt lat="42.40205" lon="19.75549">
        <ele>1080.1800537109</ele>
        <time>2024-09-23T14:02:41.000Z</time>
      </trkpt>
      <trkpt lat="42.40214" lon="19.75551">
        <ele>1080.1800537109</ele>
        <time>2024-09-23T14:02:42.000Z</time>
      </trkpt>
      <trkpt lat="42.40228" lon="19.75552">
        <ele>1078.7399902344</ele>
        <time>2024-09-23T14:02:43.000Z</time>
      </trkpt>
      <trkpt lat="42.40245" lon="19.75554">
        <ele>1077.7800292969</ele>
        <time>2024-09-23T14:02:44.000Z</time>
      </trkpt>
      <trkpt lat="42.40255" lon="19.75554">
        <ele>1076.8100585938</ele>
        <time>2024-09-23T14:02:45.000Z</time>
      </trkpt>
      <trkpt lat="42.40274" lon="19.75552">
        <ele>1075.3699951172</ele>
        <time>2024-09-23T14:02:46.000Z</time>
      </trkpt>
      <trkpt lat="42.40297" lon="19.75545">
        <ele>1073.4499511719</ele>
        <time>2024-09-23T14:02:47.000Z</time>
      </trkpt>
      <trkpt lat="42.40312" lon="19.75539">
        <ele>1072.0100097656</ele>
        <time>2024-09-23T14:02:48.000Z</time>
      </trkpt>
      <trkpt lat="42.40328" lon="19.75529">
        <ele>1070.5699462891</ele>
        <time>2024-09-23T14:02:49.000Z</time>
      </trkpt>
      <trkpt lat="42.40342" lon="19.75516">
        <ele>1069.1199951172</ele>
        <time>2024-09-23T14:02:50.000Z</time>
      </trkpt>
      <trkpt lat="42.40384" lon="19.7546">
        <ele>1063.8399658203</ele>
        <time>2024-09-23T14:02:53.000Z</time>
      </trkpt>
      <trkpt lat="42.40393" lon="19.75449">
        <ele>1062.3900146484</ele>
        <time>2024-09-23T14:02:54.000Z</time>
      </trkpt>
      <trkpt lat="42.40408" lon="19.75433">
        <ele>1059.9899902344</ele>
        <time>2024-09-23T14:02:55.000Z</time>
      </trkpt>
      <trkpt lat="42.40421" lon="19.75424">
        <ele>1058.5500488281</ele>
        <time>2024-09-23T14:02:56.000Z</time>
      </trkpt>
      <trkpt lat="42.40435" lon="19.75417">
        <ele>1057.5899658203</ele>
        <time>2024-09-23T14:02:57.000Z</time>
      </trkpt>
      <trkpt lat="42.40451" lon="19.75414">
        <ele>1056.1500244141</ele>
        <time>2024-09-23T14:02:58.000Z</time>
      </trkpt>
      <trkpt lat="42.40468" lon="19.75412">
        <ele>1054.6999511719</ele>
        <time>2024-09-23T14:02:59.000Z</time>
      </trkpt>
      <trkpt lat="42.40484" lon="19.75414">
        <ele>1053.2600097656</ele>
        <time>2024-09-23T14:03:00.000Z</time>
      </trkpt>
      <trkpt lat="42.40498" lon="19.75418">
        <ele>1052.3000488281</ele>
        <time>2024-09-23T14:03:01.000Z</time>
      </trkpt>
      <trkpt lat="42.40512" lon="19.75419">
        <ele>1051.8199462891</ele>
        <time>2024-09-23T14:03:02.000Z</time>
      </trkpt>
      <trkpt lat="42.40527" lon="19.75414">
        <ele>1050.8599853516</ele>
        <time>2024-09-23T14:03:03.000Z</time>
      </trkpt>
      <trkpt lat="42.40555" lon="19.754">
        <ele>1047.9699707031</ele>
        <time>2024-09-23T14:03:04.000Z</time>
      </trkpt>
      <trkpt lat="42.4056" lon="19.75398">
        <ele>1047.4899902344</ele>
        <time>2024-09-23T14:03:05.000Z</time>
      </trkpt>
      <trkpt lat="42.40588" lon="19.75391">
        <ele>1045.0899658203</ele>
        <time>2024-09-23T14:03:06.000Z</time>
      </trkpt>
      <trkpt lat="42.40591" lon="19.7539">
        <ele>1044.6099853516</ele>
        <time>2024-09-23T14:03:07.000Z</time>
      </trkpt>
      <trkpt lat="42.40604" lon="19.75384">
        <ele>1044.1300048828</ele>
        <time>2024-09-23T14:03:08.000Z</time>
      </trkpt>
      <trkpt lat="42.40613" lon="19.75378">
        <ele>1043.1700439453</ele>
        <time>2024-09-23T14:03:09.000Z</time>
      </trkpt>
      <trkpt lat="42.40619" lon="19.75374">
        <ele>1042.6899414062</ele>
        <time>2024-09-23T14:03:10.000Z</time>
      </trkpt>
      <trkpt lat="42.40625" lon="19.75387">
        <ele>1040.2800292969</ele>
        <time>2024-09-23T14:03:14.000Z</time>
      </trkpt>
      <trkpt lat="42.40624" lon="19.75388">
        <ele>1039.8000488281</ele>
        <time>2024-09-23T14:03:15.000Z</time>
      </trkpt>
      <trkpt lat="42.40619" lon="19.75391">
        <ele>1039.8000488281</ele>
        <time>2024-09-23T14:03:16.000Z</time>
      </trkpt>
      <trkpt lat="42.40613" lon="19.75394">
        <ele>1039.3199462891</ele>
        <time>2024-09-23T14:03:17.000Z</time>
      </trkpt>
      <trkpt lat="42.40608" lon="19.75397">
        <ele>1038.8399658203</ele>
        <time>2024-09-23T14:03:18.000Z</time>
      </trkpt>
      <trkpt lat="42.40598" lon="19.75401">
        <ele>1038.8399658203</ele>
        <time>2024-09-23T14:03:19.000Z</time>
      </trkpt>
      <trkpt lat="42.40596" lon="19.75402">
        <ele>1038.8399658203</ele>
        <time>2024-09-23T14:03:20.000Z</time>
      </trkpt>
      <trkpt lat="42.40587" lon="19.75406">
        <ele>1038.8399658203</ele>
        <time>2024-09-23T14:03:24.000Z</time>
      </trkpt>
      <trkpt lat="42.40581" lon="19.7541">
        <ele>1038.3599853516</ele>
        <time>2024-09-23T14:03:25.000Z</time>
      </trkpt>
      <trkpt lat="42.40573" lon="19.75418">
        <ele>1038.8399658203</ele>
        <time>2024-09-23T14:03:26.000Z</time>
      </trkpt>
      <trkpt lat="42.40546" lon="19.75447">
        <ele>1038.8399658203</ele>
        <time>2024-09-23T14:03:28.000Z</time>
      </trkpt>
      <trkpt lat="42.40531" lon="19.75465">
        <ele>1038.3599853516</ele>
        <time>2024-09-23T14:03:29.000Z</time>
      </trkpt>
      <trkpt lat="42.40528" lon="19.75468">
        <ele>1037.8800048828</ele>
        <time>2024-09-23T14:03:30.000Z</time>
      </trkpt>
      <trkpt lat="42.40515" lon="19.75481">
        <ele>1036.9200439453</ele>
        <time>2024-09-23T14:03:31.000Z</time>
      </trkpt>
      <trkpt lat="42.40499" lon="19.7549">
        <ele>1035.4799804688</ele>
        <time>2024-09-23T14:03:32.000Z</time>
      </trkpt>
      <trkpt lat="42.4048" lon="19.75497">
        <ele>1033.5500488281</ele>
        <time>2024-09-23T14:03:33.000Z</time>
      </trkpt>
      <trkpt lat="42.40466" lon="19.75505">
        <ele>1032.1099853516</ele>
        <time>2024-09-23T14:03:34.000Z</time>
      </trkpt>
      <trkpt lat="42.40454" lon="19.75516">
        <ele>1030.1899414062</ele>
        <time>2024-09-23T14:03:35.000Z</time>
      </trkpt>
      <trkpt lat="42.40444" lon="19.75531">
        <ele>1029.2299804688</ele>
        <time>2024-09-23T14:03:36.000Z</time>
      </trkpt>
      <trkpt lat="42.4043" lon="19.75565">
        <ele>1027.3100585938</ele>
        <time>2024-09-23T14:03:37.000Z</time>
      </trkpt>
      <trkpt lat="42.40426" lon="19.75576">
        <ele>1026.8299560547</ele>
        <time>2024-09-23T14:03:38.000Z</time>
      </trkpt>
      <trkpt lat="42.40415" lon="19.75613">
        <ele>1024.9000244141</ele>
        <time>2024-09-23T14:03:39.000Z</time>
      </trkpt>
      <trkpt lat="42.40413" lon="19.75619">
        <ele>1024.9000244141</ele>
        <time>2024-09-23T14:03:40.000Z</time>
      </trkpt>
      <trkpt lat="42.40406" lon="19.75635">
        <ele>1024.4200439453</ele>
        <time>2024-09-23T14:03:41.000Z</time>
      </trkpt>
      <trkpt lat="42.40391" lon="19.75662">
        <ele>1022.9799804688</ele>
        <time>2024-09-23T14:03:42.000Z</time>
      </trkpt>
      <trkpt lat="42.40368" lon="19.757">
        <ele>1020.0999755859</ele>
        <time>2024-09-23T14:03:44.000Z</time>
      </trkpt>
      <trkpt lat="42.40356" lon="19.75717">
        <ele>1018.6500244141</ele>
        <time>2024-09-23T14:03:45.000Z</time>
      </trkpt>
      <trkpt lat="42.4034" lon="19.75736">
        <ele>1017.2100219727</ele>
        <time>2024-09-23T14:03:46.000Z</time>
      </trkpt>
      <trkpt lat="42.40334" lon="19.75742">
        <ele>1016.7299804688</ele>
        <time>2024-09-23T14:03:47.000Z</time>
      </trkpt>
      <trkpt lat="42.40323" lon="19.75754">
        <ele>1015.2899780273</ele>
        <time>2024-09-23T14:03:48.000Z</time>
      </trkpt>
      <trkpt lat="42.40312" lon="19.75762">
        <ele>1014.3300170898</ele>
        <time>2024-09-23T14:03:49.000Z</time>
      </trkpt>
      <trkpt lat="42.40301" lon="19.75766">
        <ele>1012.8900146484</ele>
        <time>2024-09-23T14:03:50.000Z</time>
      </trkpt>
      <trkpt lat="42.40284" lon="19.75768">
        <ele>1011.9299926758</ele>
        <time>2024-09-23T14:03:51.000Z</time>
      </trkpt>
      <trkpt lat="42.4027" lon="19.75768">
        <ele>1010.9600219727</ele>
        <time>2024-09-23T14:03:52.000Z</time>
      </trkpt>
      <trkpt lat="42.40255" lon="19.75766">
        <ele>1009.5200195312</ele>
        <time>2024-09-23T14:03:53.000Z</time>
      </trkpt>
      <trkpt lat="42.40236" lon="19.7576">
        <ele>1008.0800170898</ele>
        <time>2024-09-23T14:03:54.000Z</time>
      </trkpt>
      <trkpt lat="42.40222" lon="19.75755">
        <ele>1006.6400146484</ele>
        <time>2024-09-23T14:03:55.000Z</time>
      </trkpt>
      <trkpt lat="42.40206" lon="19.75752">
        <ele>1005.6799926758</ele>
        <time>2024-09-23T14:03:56.000Z</time>
      </trkpt>
      <trkpt lat="42.40139" lon="19.75746">
        <ele>998.46997070312</ele>
        <time>2024-09-23T14:03:59.000Z</time>
      </trkpt>
      <trkpt lat="42.40137" lon="19.75746">
        <ele>997.98999023438</ele>
        <time>2024-09-23T14:04:00.000Z</time>
      </trkpt>
      <trkpt lat="42.40127" lon="19.75749">
        <ele>997.98999023438</ele>
        <time>2024-09-23T14:04:01.000Z</time>
      </trkpt>
      <trkpt lat="42.40118" lon="19.75755">
        <ele>997.02001953125</ele>
        <time>2024-09-23T14:04:02.000Z</time>
      </trkpt>
      <trkpt lat="42.40112" lon="19.75764">
        <ele>995.58001708984</ele>
        <time>2024-09-23T14:04:03.000Z</time>
      </trkpt>
      <trkpt lat="42.40107" lon="19.75776">
        <ele>994.14001464844</ele>
        <time>2024-09-23T14:04:04.000Z</time>
      </trkpt>
      <trkpt lat="42.40104" lon="19.75785">
        <ele>995.58001708984</ele>
        <time>2024-09-23T14:04:05.000Z</time>
      </trkpt>
      <trkpt lat="42.40104" lon="19.75792">
        <ele>995.58001708984</ele>
        <time>2024-09-23T14:04:06.000Z</time>
      </trkpt>
      <trkpt lat="42.40107" lon="19.758">
        <ele>995.58001708984</ele>
        <time>2024-09-23T14:04:07.000Z</time>
      </trkpt>
      <trkpt lat="42.40112" lon="19.75803">
        <ele>994.14001464844</ele>
        <time>2024-09-23T14:04:08.000Z</time>
      </trkpt>
      <trkpt lat="42.40117" lon="19.758">
        <ele>993.65997314453</ele>
        <time>2024-09-23T14:04:09.000Z</time>
      </trkpt>
      <trkpt lat="42.40121" lon="19.75793">
        <ele>993.17999267578</ele>
        <time>2024-09-23T14:04:10.000Z</time>
      </trkpt>
      <trkpt lat="42.40124" lon="19.75782">
        <ele>992.21997070312</ele>
        <time>2024-09-23T14:04:11.000Z</time>
      </trkpt>
      <trkpt lat="42.40129" lon="19.75773">
        <ele>991.73999023438</ele>
        <time>2024-09-23T14:04:12.000Z</time>
      </trkpt>
      <trkpt lat="42.40134" lon="19.75767">
        <ele>990.78002929688</ele>
        <time>2024-09-23T14:04:13.000Z</time>
      </trkpt>
      <trkpt lat="42.40141" lon="19.75766">
        <ele>989.80999755859</ele>
        <time>2024-09-23T14:04:14.000Z</time>
      </trkpt>
      <trkpt lat="42.40152" lon="19.75767">
        <ele>988.84997558594</ele>
        <time>2024-09-23T14:04:15.000Z</time>
      </trkpt>
      <trkpt lat="42.40159" lon="19.7577">
        <ele>988.36999511719</ele>
        <time>2024-09-23T14:04:16.000Z</time>
      </trkpt>
      <trkpt lat="42.40162" lon="19.75775">
        <ele>987.40997314453</ele>
        <time>2024-09-23T14:04:17.000Z</time>
      </trkpt>
      <trkpt lat="42.40159" lon="19.75781">
        <ele>985.96997070312</ele>
        <time>2024-09-23T14:04:18.000Z</time>
      </trkpt>
      <trkpt lat="42.40157" lon="19.75782">
        <ele>985.96997070312</ele>
        <time>2024-09-23T14:04:19.000Z</time>
      </trkpt>
      <trkpt lat="42.40147" lon="19.75783">
        <ele>985.01000976562</ele>
        <time>2024-09-23T14:04:20.000Z</time>
      </trkpt>
      <trkpt lat="42.40141" lon="19.75784">
        <ele>984.04998779297</ele>
        <time>2024-09-23T14:04:21.000Z</time>
      </trkpt>
      <trkpt lat="42.40138" lon="19.75788">
        <ele>984.53002929688</ele>
        <time>2024-09-23T14:04:22.000Z</time>
      </trkpt>
      <trkpt lat="42.40138" lon="19.75794">
        <ele>983.57000732422</ele>
        <time>2024-09-23T14:04:23.000Z</time>
      </trkpt>
      <trkpt lat="42.40142" lon="19.75798">
        <ele>983.57000732422</ele>
        <time>2024-09-23T14:04:24.000Z</time>
      </trkpt>
      <trkpt lat="42.4015" lon="19.75799">
        <ele>983.57000732422</ele>
        <time>2024-09-23T14:04:25.000Z</time>
      </trkpt>
      <trkpt lat="42.40166" lon="19.75797">
        <ele>982.59997558594</ele>
        <time>2024-09-23T14:04:26.000Z</time>
      </trkpt>
      <trkpt lat="42.40177" lon="19.75798">
        <ele>982.59997558594</ele>
        <time>2024-09-23T14:04:27.000Z</time>
      </trkpt>
      <trkpt lat="42.40192" lon="19.758">
        <ele>981.64001464844</ele>
        <time>2024-09-23T14:04:28.000Z</time>
      </trkpt>
      <trkpt lat="42.40221" lon="19.75812">
        <ele>980.20001220703</ele>
        <time>2024-09-23T14:04:29.000Z</time>
      </trkpt>
      <trkpt lat="42.40253" lon="19.75829">
        <ele>979.71997070312</ele>
        <time>2024-09-23T14:04:32.000Z</time>
      </trkpt>
      <trkpt lat="42.40322" lon="19.75872">
        <ele>978.76000976562</ele>
        <time>2024-09-23T14:04:38.000Z</time>
      </trkpt>
      <trkpt lat="42.40339" lon="19.75881">
        <ele>977.79998779297</ele>
        <time>2024-09-23T14:04:39.000Z</time>
      </trkpt>
      <trkpt lat="42.40351" lon="19.75887">
        <ele>977.32000732422</ele>
        <time>2024-09-23T14:04:41.000Z</time>
      </trkpt>
      <trkpt lat="42.4036" lon="19.75891">
        <ele>977.32000732422</ele>
        <time>2024-09-23T14:04:42.000Z</time>
      </trkpt>
      <trkpt lat="42.40372" lon="19.75894">
        <ele>976.84002685547</ele>
        <time>2024-09-23T14:04:43.000Z</time>
      </trkpt>
      <trkpt lat="42.40386" lon="19.75894">
        <ele>976.35998535156</ele>
        <time>2024-09-23T14:04:44.000Z</time>
      </trkpt>
      <trkpt lat="42.404" lon="19.75889">
        <ele>975.39001464844</ele>
        <time>2024-09-23T14:04:45.000Z</time>
      </trkpt>
      <trkpt lat="42.40414" lon="19.75885">
        <ele>974.42999267578</ele>
        <time>2024-09-23T14:04:46.000Z</time>
      </trkpt>
      <trkpt lat="42.40424" lon="19.75884">
        <ele>973.46997070312</ele>
        <time>2024-09-23T14:04:47.000Z</time>
      </trkpt>
      <trkpt lat="42.40439" lon="19.75884">
        <ele>972.51000976562</ele>
        <time>2024-09-23T14:04:48.000Z</time>
      </trkpt>
      <trkpt lat="42.40452" lon="19.75886">
        <ele>971.54998779297</ele>
        <time>2024-09-23T14:04:49.000Z</time>
      </trkpt>
      <trkpt lat="42.40474" lon="19.7589">
        <ele>969.15002441406</ele>
        <time>2024-09-23T14:04:50.000Z</time>
      </trkpt>
      <trkpt lat="42.40507" lon="19.75893">
        <ele>965.78002929688</ele>
        <time>2024-09-23T14:04:52.000Z</time>
      </trkpt>
      <trkpt lat="42.40513" lon="19.75893">
        <ele>965.78002929688</ele>
        <time>2024-09-23T14:04:53.000Z</time>
      </trkpt>
      <trkpt lat="42.40532" lon="19.75891">
        <ele>963.38000488281</ele>
        <time>2024-09-23T14:04:54.000Z</time>
      </trkpt>
      <trkpt lat="42.40542" lon="19.7589">
        <ele>962.41998291016</ele>
        <time>2024-09-23T14:04:55.000Z</time>
      </trkpt>
      <trkpt lat="42.40553" lon="19.75892">
        <ele>961.46002197266</ele>
        <time>2024-09-23T14:04:56.000Z</time>
      </trkpt>
      <trkpt lat="42.40563" lon="19.75897">
        <ele>960.01000976562</ele>
        <time>2024-09-23T14:04:57.000Z</time>
      </trkpt>
      <trkpt lat="42.40572" lon="19.75906">
        <ele>958.57000732422</ele>
        <time>2024-09-23T14:04:58.000Z</time>
      </trkpt>
      <trkpt lat="42.40581" lon="19.75923">
        <ele>956.16998291016</ele>
        <time>2024-09-23T14:04:59.000Z</time>
      </trkpt>
      <trkpt lat="42.40588" lon="19.75931">
        <ele>954.72998046875</ele>
        <time>2024-09-23T14:05:00.000Z</time>
      </trkpt>
      <trkpt lat="42.40597" lon="19.75939">
        <ele>954.25</ele>
        <time>2024-09-23T14:05:01.000Z</time>
      </trkpt>
      <trkpt lat="42.40606" lon="19.75942">
        <ele>953.77001953125</ele>
        <time>2024-09-23T14:05:02.000Z</time>
      </trkpt>
      <trkpt lat="42.40616" lon="19.7594">
        <ele>952.79998779297</ele>
        <time>2024-09-23T14:05:03.000Z</time>
      </trkpt>
      <trkpt lat="42.40629" lon="19.75933">
        <ele>951.84002685547</ele>
        <time>2024-09-23T14:05:04.000Z</time>
      </trkpt>
      <trkpt lat="42.40637" lon="19.75927">
        <ele>950.88000488281</ele>
        <time>2024-09-23T14:05:05.000Z</time>
      </trkpt>
      <trkpt lat="42.40645" lon="19.75919">
        <ele>950.88000488281</ele>
        <time>2024-09-23T14:05:06.000Z</time>
      </trkpt>
      <trkpt lat="42.40648" lon="19.75909">
        <ele>950.40002441406</ele>
        <time>2024-09-23T14:05:07.000Z</time>
      </trkpt>
      <trkpt lat="42.40649" lon="19.75901">
        <ele>949.91998291016</ele>
        <time>2024-09-23T14:05:08.000Z</time>
      </trkpt>
      <trkpt lat="42.40647" lon="19.75891">
        <ele>949.91998291016</ele>
        <time>2024-09-23T14:05:09.000Z</time>
      </trkpt>
      <trkpt lat="42.40644" lon="19.75879">
        <ele>949.91998291016</ele>
        <time>2024-09-23T14:05:10.000Z</time>
      </trkpt>
      <trkpt lat="42.40641" lon="19.75867">
        <ele>949.44000244141</ele>
        <time>2024-09-23T14:05:11.000Z</time>
      </trkpt>
      <trkpt lat="42.40642" lon="19.75855">
        <ele>948.96002197266</ele>
        <time>2024-09-23T14:05:12.000Z</time>
      </trkpt>
      <trkpt lat="42.40645" lon="19.75841">
        <ele>948.96002197266</ele>
        <time>2024-09-23T14:05:13.000Z</time>
      </trkpt>
      <trkpt lat="42.40656" lon="19.75828">
        <ele>947.52001953125</ele>
        <time>2024-09-23T14:05:14.000Z</time>
      </trkpt>
      <trkpt lat="42.40664" lon="19.75817">
        <ele>947.03997802734</ele>
        <time>2024-09-23T14:05:15.000Z</time>
      </trkpt>
      <trkpt lat="42.40672" lon="19.75811">
        <ele>946.55999755859</ele>
        <time>2024-09-23T14:05:16.000Z</time>
      </trkpt>
      <trkpt lat="42.40678" lon="19.75811">
        <ele>945.10998535156</ele>
        <time>2024-09-23T14:05:17.000Z</time>
      </trkpt>
      <trkpt lat="42.40679" lon="19.75822">
        <ele>943.19000244141</ele>
        <time>2024-09-23T14:05:19.000Z</time>
      </trkpt>
      <trkpt lat="42.40674" lon="19.75829">
        <ele>943.19000244141</ele>
        <time>2024-09-23T14:05:20.000Z</time>
      </trkpt>
      <trkpt lat="42.40668" lon="19.75843">
        <ele>942.71002197266</ele>
        <time>2024-09-23T14:05:21.000Z</time>
      </trkpt>
      <trkpt lat="42.40666" lon="19.75856">
        <ele>941.75</ele>
        <time>2024-09-23T14:05:22.000Z</time>
      </trkpt>
      <trkpt lat="42.40667" lon="19.7587">
        <ele>941.27001953125</ele>
        <time>2024-09-23T14:05:23.000Z</time>
      </trkpt>
      <trkpt lat="42.40672" lon="19.75882">
        <ele>940.78997802734</ele>
        <time>2024-09-23T14:05:24.000Z</time>
      </trkpt>
      <trkpt lat="42.40681" lon="19.75899">
        <ele>939.83001708984</ele>
        <time>2024-09-23T14:05:25.000Z</time>
      </trkpt>
      <trkpt lat="42.40685" lon="19.75909">
        <ele>939.34997558594</ele>
        <time>2024-09-23T14:05:26.000Z</time>
      </trkpt>
      <trkpt lat="42.40689" lon="19.75921">
        <ele>938.85998535156</ele>
        <time>2024-09-23T14:05:27.000Z</time>
      </trkpt>
      <trkpt lat="42.40691" lon="19.75935">
        <ele>937.90002441406</ele>
        <time>2024-09-23T14:05:28.000Z</time>
      </trkpt>
      <trkpt lat="42.4069" lon="19.75949">
        <ele>936.94000244141</ele>
        <time>2024-09-23T14:05:29.000Z</time>
      </trkpt>
      <trkpt lat="42.40685" lon="19.75966">
        <ele>935.97998046875</ele>
        <time>2024-09-23T14:05:30.000Z</time>
      </trkpt>
      <trkpt lat="42.40676" lon="19.75981">
        <ele>934.53997802734</ele>
        <time>2024-09-23T14:05:31.000Z</time>
      </trkpt>
      <trkpt lat="42.40661" lon="19.75995">
        <ele>932.61999511719</ele>
        <time>2024-09-23T14:05:32.000Z</time>
      </trkpt>
      <trkpt lat="42.40597" lon="19.76059">
        <ele>928.28997802734</ele>
        <time>2024-09-23T14:05:36.000Z</time>
      </trkpt>
      <trkpt lat="42.40594" lon="19.76061">
        <ele>927.80999755859</ele>
        <time>2024-09-23T14:05:37.000Z</time>
      </trkpt>
      <trkpt lat="42.40578" lon="19.76075">
        <ele>926.36999511719</ele>
        <time>2024-09-23T14:05:38.000Z</time>
      </trkpt>
      <trkpt lat="42.40568" lon="19.76082">
        <ele>925.40997314453</ele>
        <time>2024-09-23T14:05:39.000Z</time>
      </trkpt>
      <trkpt lat="42.40558" lon="19.76087">
        <ele>924.92999267578</ele>
        <time>2024-09-23T14:05:40.000Z</time>
      </trkpt>
      <trkpt lat="42.40545" lon="19.76089">
        <ele>923.47998046875</ele>
        <time>2024-09-23T14:05:41.000Z</time>
      </trkpt>
      <trkpt lat="42.40535" lon="19.76093">
        <ele>922.52001953125</ele>
        <time>2024-09-23T14:05:42.000Z</time>
      </trkpt>
      <trkpt lat="42.40521" lon="19.76099">
        <ele>921.55999755859</ele>
        <time>2024-09-23T14:05:43.000Z</time>
      </trkpt>
      <trkpt lat="42.4051" lon="19.761">
        <ele>920.59997558594</ele>
        <time>2024-09-23T14:05:44.000Z</time>
      </trkpt>
      <trkpt lat="42.405" lon="19.76097">
        <ele>920.11999511719</ele>
        <time>2024-09-23T14:05:45.000Z</time>
      </trkpt>
      <trkpt lat="42.4049" lon="19.76089">
        <ele>919.15997314453</ele>
        <time>2024-09-23T14:05:46.000Z</time>
      </trkpt>
      <trkpt lat="42.4048" lon="19.76079">
        <ele>918.67999267578</ele>
        <time>2024-09-23T14:05:47.000Z</time>
      </trkpt>
      <trkpt lat="42.40469" lon="19.76074">
        <ele>917.23999023438</ele>
        <time>2024-09-23T14:05:48.000Z</time>
      </trkpt>
      <trkpt lat="42.40459" lon="19.76074">
        <ele>917.23999023438</ele>
        <time>2024-09-23T14:05:49.000Z</time>
      </trkpt>
      <trkpt lat="42.40451" lon="19.76081">
        <ele>916.75</ele>
        <time>2024-09-23T14:05:50.000Z</time>
      </trkpt>
      <trkpt lat="42.40442" lon="19.76089">
        <ele>916.27001953125</ele>
        <time>2024-09-23T14:05:51.000Z</time>
      </trkpt>
      <trkpt lat="42.40431" lon="19.76097">
        <ele>915.30999755859</ele>
        <time>2024-09-23T14:05:52.000Z</time>
      </trkpt>
      <trkpt lat="42.4042" lon="19.761">
        <ele>914.83001708984</ele>
        <time>2024-09-23T14:05:53.000Z</time>
      </trkpt>
      <trkpt lat="42.40409" lon="19.76105">
        <ele>913.86999511719</ele>
        <time>2024-09-23T14:05:54.000Z</time>
      </trkpt>
      <trkpt lat="42.40401" lon="19.76113">
        <ele>912.90997314453</ele>
        <time>2024-09-23T14:05:55.000Z</time>
      </trkpt>
      <trkpt lat="42.40393" lon="19.76122">
        <ele>912.42999267578</ele>
        <time>2024-09-23T14:05:56.000Z</time>
      </trkpt>
      <trkpt lat="42.40388" lon="19.76127">
        <ele>911.95001220703</ele>
        <time>2024-09-23T14:05:57.000Z</time>
      </trkpt>
      <trkpt lat="42.4038" lon="19.76129">
        <ele>910.98999023438</ele>
        <time>2024-09-23T14:05:58.000Z</time>
      </trkpt>
      <trkpt lat="42.4037" lon="19.76129">
        <ele>910.51000976562</ele>
        <time>2024-09-23T14:05:59.000Z</time>
      </trkpt>
      <trkpt lat="42.40363" lon="19.76131">
        <ele>909.53997802734</ele>
        <time>2024-09-23T14:06:00.000Z</time>
      </trkpt>
      <trkpt lat="42.40358" lon="19.76136">
        <ele>909.05999755859</ele>
        <time>2024-09-23T14:06:01.000Z</time>
      </trkpt>
      <trkpt lat="42.40354" lon="19.76147">
        <ele>909.05999755859</ele>
        <time>2024-09-23T14:06:02.000Z</time>
      </trkpt>
      <trkpt lat="42.40349" lon="19.76157">
        <ele>908.09997558594</ele>
        <time>2024-09-23T14:06:03.000Z</time>
      </trkpt>
      <trkpt lat="42.40342" lon="19.76165">
        <ele>907.14001464844</ele>
        <time>2024-09-23T14:06:04.000Z</time>
      </trkpt>
      <trkpt lat="42.40331" lon="19.76167">
        <ele>906.17999267578</ele>
        <time>2024-09-23T14:06:05.000Z</time>
      </trkpt>
      <trkpt lat="42.40319" lon="19.76169">
        <ele>905.70001220703</ele>
        <time>2024-09-23T14:06:06.000Z</time>
      </trkpt>
      <trkpt lat="42.40309" lon="19.76172">
        <ele>905.21997070312</ele>
        <time>2024-09-23T14:06:07.000Z</time>
      </trkpt>
      <trkpt lat="42.40303" lon="19.76177">
        <ele>905.21997070312</ele>
        <time>2024-09-23T14:06:08.000Z</time>
      </trkpt>
      <trkpt lat="42.40299" lon="19.76184">
        <ele>904.73999023438</ele>
        <time>2024-09-23T14:06:09.000Z</time>
      </trkpt>
      <trkpt lat="42.40299" lon="19.76194">
        <ele>903.78002929688</ele>
        <time>2024-09-23T14:06:10.000Z</time>
      </trkpt>
      <trkpt lat="42.40303" lon="19.76205">
        <ele>902.82000732422</ele>
        <time>2024-09-23T14:06:11.000Z</time>
      </trkpt>
      <trkpt lat="42.40311" lon="19.76221">
        <ele>901.36999511719</ele>
        <time>2024-09-23T14:06:12.000Z</time>
      </trkpt>
      <trkpt lat="42.40315" lon="19.76232">
        <ele>899.92999267578</ele>
        <time>2024-09-23T14:06:13.000Z</time>
      </trkpt>
      <trkpt lat="42.40319" lon="19.76248">
        <ele>898.01000976562</ele>
        <time>2024-09-23T14:06:14.000Z</time>
      </trkpt>
      <trkpt lat="42.40318" lon="19.76266">
        <ele>897.04998779297</ele>
        <time>2024-09-23T14:06:15.000Z</time>
      </trkpt>
      <trkpt lat="42.40313" lon="19.76305">
        <ele>894.15997314453</ele>
        <time>2024-09-23T14:06:17.000Z</time>
      </trkpt>
      <trkpt lat="42.40311" lon="19.76318">
        <ele>892.71997070312</ele>
        <time>2024-09-23T14:06:18.000Z</time>
      </trkpt>
      <trkpt lat="42.40304" lon="19.76332">
        <ele>891.76000976562</ele>
        <time>2024-09-23T14:06:19.000Z</time>
      </trkpt>
      <trkpt lat="42.40294" lon="19.76345">
        <ele>890.32000732422</ele>
        <time>2024-09-23T14:06:20.000Z</time>
      </trkpt>
      <trkpt lat="42.40285" lon="19.76354">
        <ele>888.88000488281</ele>
        <time>2024-09-23T14:06:21.000Z</time>
      </trkpt>
      <trkpt lat="42.40276" lon="19.76358">
        <ele>887.90997314453</ele>
        <time>2024-09-23T14:06:22.000Z</time>
      </trkpt>
      <trkpt lat="42.40267" lon="19.76357">
        <ele>886.95001220703</ele>
        <time>2024-09-23T14:06:23.000Z</time>
      </trkpt>
      <trkpt lat="42.40257" lon="19.76351">
        <ele>885.98999023438</ele>
        <time>2024-09-23T14:06:24.000Z</time>
      </trkpt>
      <trkpt lat="42.4025" lon="19.76341">
        <ele>885.03002929688</ele>
        <time>2024-09-23T14:06:25.000Z</time>
      </trkpt>
      <trkpt lat="42.40242" lon="19.76328">
        <ele>883.59002685547</ele>
        <time>2024-09-23T14:06:26.000Z</time>
      </trkpt>
      <trkpt lat="42.40235" lon="19.76322">
        <ele>882.63000488281</ele>
        <time>2024-09-23T14:06:27.000Z</time>
      </trkpt>
      <trkpt lat="42.40229" lon="19.76322">
        <ele>883.59002685547</ele>
        <time>2024-09-23T14:06:28.000Z</time>
      </trkpt>
      <trkpt lat="42.40225" lon="19.76327">
        <ele>883.59002685547</ele>
        <time>2024-09-23T14:06:29.000Z</time>
      </trkpt>
      <trkpt lat="42.40222" lon="19.76335">
        <ele>883.10998535156</ele>
        <time>2024-09-23T14:06:30.000Z</time>
      </trkpt>
      <trkpt lat="42.40221" lon="19.76347">
        <ele>883.10998535156</ele>
        <time>2024-09-23T14:06:31.000Z</time>
      </trkpt>
      <trkpt lat="42.40218" lon="19.76362">
        <ele>882.63000488281</ele>
        <time>2024-09-23T14:06:32.000Z</time>
      </trkpt>
      <trkpt lat="42.4021" lon="19.76391">
        <ele>881.19000244141</ele>
        <time>2024-09-23T14:06:33.000Z</time>
      </trkpt>
      <trkpt lat="42.4021" lon="19.76394">
        <ele>881.19000244141</ele>
        <time>2024-09-23T14:06:34.000Z</time>
      </trkpt>
      <trkpt lat="42.40206" lon="19.76408">
        <ele>880.71002197266</ele>
        <time>2024-09-23T14:06:35.000Z</time>
      </trkpt>
      <trkpt lat="42.40204" lon="19.76416">
        <ele>880.21997070312</ele>
        <time>2024-09-23T14:06:36.000Z</time>
      </trkpt>
      <trkpt lat="42.402" lon="19.76424">
        <ele>879.73999023438</ele>
        <time>2024-09-23T14:06:37.000Z</time>
      </trkpt>
      <trkpt lat="42.40194" lon="19.76431">
        <ele>879.26000976562</ele>
        <time>2024-09-23T14:06:38.000Z</time>
      </trkpt>
      <trkpt lat="42.40188" lon="19.76436">
        <ele>877.82000732422</ele>
        <time>2024-09-23T14:06:39.000Z</time>
      </trkpt>
      <trkpt lat="42.40182" lon="19.7644">
        <ele>877.34002685547</ele>
        <time>2024-09-23T14:06:40.000Z</time>
      </trkpt>
      <trkpt lat="42.40177" lon="19.76441">
        <ele>876.38000488281</ele>
        <time>2024-09-23T14:06:41.000Z</time>
      </trkpt>
      <trkpt lat="42.40169" lon="19.76442">
        <ele>875.41998291016</ele>
        <time>2024-09-23T14:06:42.000Z</time>
      </trkpt>
      <trkpt lat="42.40153" lon="19.76442">
        <ele>874.46002197266</ele>
        <time>2024-09-23T14:06:43.000Z</time>
      </trkpt>
      <trkpt lat="42.40151" lon="19.76442">
        <ele>874.46002197266</ele>
        <time>2024-09-23T14:06:44.000Z</time>
      </trkpt>
      <trkpt lat="42.40143" lon="19.76444">
        <ele>873.5</ele>
        <time>2024-09-23T14:06:45.000Z</time>
      </trkpt>
      <trkpt lat="42.40136" lon="19.76451">
        <ele>873.01000976562</ele>
        <time>2024-09-23T14:06:46.000Z</time>
      </trkpt>
      <trkpt lat="42.40133" lon="19.76459">
        <ele>873.01000976562</ele>
        <time>2024-09-23T14:06:47.000Z</time>
      </trkpt>
      <trkpt lat="42.40132" lon="19.76469">
        <ele>872.53002929688</ele>
        <time>2024-09-23T14:06:48.000Z</time>
      </trkpt>
      <trkpt lat="42.40133" lon="19.76485">
        <ele>871.09002685547</ele>
        <time>2024-09-23T14:06:49.000Z</time>
      </trkpt>
      <trkpt lat="42.40132" lon="19.76495">
        <ele>870.60998535156</ele>
        <time>2024-09-23T14:06:50.000Z</time>
      </trkpt>
      <trkpt lat="42.40128" lon="19.76507">
        <ele>869.65002441406</ele>
        <time>2024-09-23T14:06:51.000Z</time>
      </trkpt>
      <trkpt lat="42.40123" lon="19.76517">
        <ele>869.16998291016</ele>
        <time>2024-09-23T14:06:52.000Z</time>
      </trkpt>
      <trkpt lat="42.40115" lon="19.76525">
        <ele>869.16998291016</ele>
        <time>2024-09-23T14:06:53.000Z</time>
      </trkpt>
      <trkpt lat="42.40108" lon="19.76529">
        <ele>868.69000244141</ele>
        <time>2024-09-23T14:06:54.000Z</time>
      </trkpt>
      <trkpt lat="42.401" lon="19.76531">
        <ele>868.21002197266</ele>
        <time>2024-09-23T14:06:55.000Z</time>
      </trkpt>
      <trkpt lat="42.40083" lon="19.7653">
        <ele>866.28997802734</ele>
        <time>2024-09-23T14:06:57.000Z</time>
      </trkpt>
      <trkpt lat="42.4007" lon="19.76531">
        <ele>865.79998779297</ele>
        <time>2024-09-23T14:06:58.000Z</time>
      </trkpt>
      <trkpt lat="42.40065" lon="19.76531">
        <ele>865.32000732422</ele>
        <time>2024-09-23T14:06:59.000Z</time>
      </trkpt>
      <trkpt lat="42.4006" lon="19.7653">
        <ele>865.32000732422</ele>
        <time>2024-09-23T14:07:00.000Z</time>
      </trkpt>
      <trkpt lat="42.40052" lon="19.76527">
        <ele>864.84002685547</ele>
        <time>2024-09-23T14:07:01.000Z</time>
      </trkpt>
      <trkpt lat="42.40043" lon="19.76521">
        <ele>864.35998535156</ele>
        <time>2024-09-23T14:07:02.000Z</time>
      </trkpt>
      <trkpt lat="42.40032" lon="19.76512">
        <ele>863.40002441406</ele>
        <time>2024-09-23T14:07:04.000Z</time>
      </trkpt>
      <trkpt lat="42.40027" lon="19.76509">
        <ele>863.40002441406</ele>
        <time>2024-09-23T14:07:05.000Z</time>
      </trkpt>
      <trkpt lat="42.40015" lon="19.76499">
        <ele>862.91998291016</ele>
        <time>2024-09-23T14:07:07.000Z</time>
      </trkpt>
      <trkpt lat="42.40004" lon="19.76492">
        <ele>861.96002197266</ele>
        <time>2024-09-23T14:07:09.000Z</time>
      </trkpt>
      <trkpt lat="42.4" lon="19.76489">
        <ele>861.47998046875</ele>
        <time>2024-09-23T14:07:10.000Z</time>
      </trkpt>
      <trkpt lat="42.39995" lon="19.76486">
        <ele>861</ele>
        <time>2024-09-23T14:07:11.000Z</time>
      </trkpt>
      <trkpt lat="42.3999" lon="19.76484">
        <ele>860.52001953125</ele>
        <time>2024-09-23T14:07:12.000Z</time>
      </trkpt>
      <trkpt lat="42.39985" lon="19.76483">
        <ele>859.55999755859</ele>
        <time>2024-09-23T14:07:13.000Z</time>
      </trkpt>
      <trkpt lat="42.39979" lon="19.76496">
        <ele>858.10998535156</ele>
        <time>2024-09-23T14:07:18.000Z</time>
      </trkpt>
      <trkpt lat="42.39982" lon="19.76498">
        <ele>858.10998535156</ele>
        <time>2024-09-23T14:07:19.000Z</time>
      </trkpt>
      <trkpt lat="42.39986" lon="19.765">
        <ele>857.63000488281</ele>
        <time>2024-09-23T14:07:20.000Z</time>
      </trkpt>
      <trkpt lat="42.40003" lon="19.76512">
        <ele>857.15002441406</ele>
        <time>2024-09-23T14:07:25.000Z</time>
      </trkpt>
      <trkpt lat="42.40006" lon="19.76515">
        <ele>857.15002441406</ele>
        <time>2024-09-23T14:07:26.000Z</time>
      </trkpt>
      <trkpt lat="42.40013" lon="19.7652">
        <ele>857.15002441406</ele>
        <time>2024-09-23T14:07:27.000Z</time>
      </trkpt>
      <trkpt lat="42.40014" lon="19.76521">
        <ele>857.15002441406</ele>
        <time>2024-09-23T14:07:28.000Z</time>
      </trkpt>
      <trkpt lat="42.40017" lon="19.76524">
        <ele>857.15002441406</ele>
        <time>2024-09-23T14:07:29.000Z</time>
      </trkpt>
      <trkpt lat="42.40022" lon="19.76527">
        <ele>857.15002441406</ele>
        <time>2024-09-23T14:07:30.000Z</time>
      </trkpt>
      <trkpt lat="42.40027" lon="19.7653">
        <ele>856.66998291016</ele>
        <time>2024-09-23T14:07:31.000Z</time>
      </trkpt>
      <trkpt lat="42.40031" lon="19.76533">
        <ele>856.66998291016</ele>
        <time>2024-09-23T14:07:32.000Z</time>
      </trkpt>
      <trkpt lat="42.4004" lon="19.76539">
        <ele>856.66998291016</ele>
        <time>2024-09-23T14:07:34.000Z</time>
      </trkpt>
      <trkpt lat="42.40045" lon="19.76543">
        <ele>856.66998291016</ele>
        <time>2024-09-23T14:07:35.000Z</time>
      </trkpt>
      <trkpt lat="42.40049" lon="19.76545">
        <ele>856.66998291016</ele>
        <time>2024-09-23T14:07:36.000Z</time>
      </trkpt>
      <trkpt lat="42.40055" lon="19.76548">
        <ele>856.66998291016</ele>
        <time>2024-09-23T14:07:37.000Z</time>
      </trkpt>
      <trkpt lat="42.40059" lon="19.7655">
        <ele>856.66998291016</ele>
        <time>2024-09-23T14:07:38.000Z</time>
      </trkpt>
      <trkpt lat="42.40063" lon="19.76551">
        <ele>856.66998291016</ele>
        <time>2024-09-23T14:07:39.000Z</time>
      </trkpt>
      <trkpt lat="42.40068" lon="19.76554">
        <ele>856.19000244141</ele>
        <time>2024-09-23T14:07:40.000Z</time>
      </trkpt>
      <trkpt lat="42.40074" lon="19.76557">
        <ele>856.19000244141</ele>
        <time>2024-09-23T14:07:41.000Z</time>
      </trkpt>
      <trkpt lat="42.40079" lon="19.76563">
        <ele>856.19000244141</ele>
        <time>2024-09-23T14:07:42.000Z</time>
      </trkpt>
      <trkpt lat="42.40083" lon="19.76569">
        <ele>855.71002197266</ele>
        <time>2024-09-23T14:07:43.000Z</time>
      </trkpt>
      <trkpt lat="42.40087" lon="19.76575">
        <ele>854.75</ele>
        <time>2024-09-23T14:07:44.000Z</time>
      </trkpt>
      <trkpt lat="42.40099" lon="19.76586">
        <ele>852.83001708984</ele>
        <time>2024-09-23T14:07:48.000Z</time>
      </trkpt>
      <trkpt lat="42.40101" lon="19.76591">
        <ele>851.86999511719</ele>
        <time>2024-09-23T14:07:49.000Z</time>
      </trkpt>
      <trkpt lat="42.40102" lon="19.76597">
        <ele>850.90002441406</ele>
        <time>2024-09-23T14:07:50.000Z</time>
      </trkpt>
      <trkpt lat="42.401" lon="19.76603">
        <ele>850.41998291016</ele>
        <time>2024-09-23T14:07:51.000Z</time>
      </trkpt>
      <trkpt lat="42.40096" lon="19.76605">
        <ele>849.46002197266</ele>
        <time>2024-09-23T14:07:52.000Z</time>
      </trkpt>
      <trkpt lat="42.40091" lon="19.76604">
        <ele>848.5</ele>
        <time>2024-09-23T14:07:53.000Z</time>
      </trkpt>
      <trkpt lat="42.40084" lon="19.766">
        <ele>847.53997802734</ele>
        <time>2024-09-23T14:07:54.000Z</time>
      </trkpt>
      <trkpt lat="42.40077" lon="19.76595">
        <ele>846.58001708984</ele>
        <time>2024-09-23T14:07:55.000Z</time>
      </trkpt>
      <trkpt lat="42.40054" lon="19.76579">
        <ele>844.65997314453</ele>
        <time>2024-09-23T14:07:57.000Z</time>
      </trkpt>
      <trkpt lat="42.40048" lon="19.76574">
        <ele>844.17999267578</ele>
        <time>2024-09-23T14:07:58.000Z</time>
      </trkpt>
      <trkpt lat="42.40038" lon="19.76566">
        <ele>843.21002197266</ele>
        <time>2024-09-23T14:07:59.000Z</time>
      </trkpt>
      <trkpt lat="42.40032" lon="19.76561">
        <ele>842.72998046875</ele>
        <time>2024-09-23T14:08:00.000Z</time>
      </trkpt>
      <trkpt lat="42.40025" lon="19.76558">
        <ele>841.77001953125</ele>
        <time>2024-09-23T14:08:01.000Z</time>
      </trkpt>
      <trkpt lat="42.40018" lon="19.76555">
        <ele>841.28997802734</ele>
        <time>2024-09-23T14:08:02.000Z</time>
      </trkpt>
      <trkpt lat="42.40011" lon="19.76557">
        <ele>840.80999755859</ele>
        <time>2024-09-23T14:08:03.000Z</time>
      </trkpt>
      <trkpt lat="42.40005" lon="19.76564">
        <ele>839.84997558594</ele>
        <time>2024-09-23T14:08:04.000Z</time>
      </trkpt>
      <trkpt lat="42.39998" lon="19.76574">
        <ele>838.89001464844</ele>
        <time>2024-09-23T14:08:05.000Z</time>
      </trkpt>
      <trkpt lat="42.39993" lon="19.76587">
        <ele>837.92999267578</ele>
        <time>2024-09-23T14:08:06.000Z</time>
      </trkpt>
      <trkpt lat="42.39988" lon="19.76603">
        <ele>836.47998046875</ele>
        <time>2024-09-23T14:08:07.000Z</time>
      </trkpt>
      <trkpt lat="42.39983" lon="19.76618">
        <ele>835.03997802734</ele>
        <time>2024-09-23T14:08:08.000Z</time>
      </trkpt>
      <trkpt lat="42.3998" lon="19.76623">
        <ele>835.03997802734</ele>
        <time>2024-09-23T14:08:09.000Z</time>
      </trkpt>
      <trkpt lat="42.39976" lon="19.76629">
        <ele>834.55999755859</ele>
        <time>2024-09-23T14:08:10.000Z</time>
      </trkpt>
      <trkpt lat="42.3997" lon="19.76631">
        <ele>834.55999755859</ele>
        <time>2024-09-23T14:08:11.000Z</time>
      </trkpt>
      <trkpt lat="42.39964" lon="19.76628">
        <ele>834.55999755859</ele>
        <time>2024-09-23T14:08:12.000Z</time>
      </trkpt>
      <trkpt lat="42.39957" lon="19.76621">
        <ele>834.08001708984</ele>
        <time>2024-09-23T14:08:13.000Z</time>
      </trkpt>
      <trkpt lat="42.39937" lon="19.76595">
        <ele>832.15997314453</ele>
        <time>2024-09-23T14:08:15.000Z</time>
      </trkpt>
      <trkpt lat="42.3993" lon="19.76588">
        <ele>831.67999267578</ele>
        <time>2024-09-23T14:08:16.000Z</time>
      </trkpt>
      <trkpt lat="42.3992" lon="19.76578">
        <ele>830.71997070312</ele>
        <time>2024-09-23T14:08:17.000Z</time>
      </trkpt>
      <trkpt lat="42.39857" lon="19.76526">
        <ele>824.46997070312</ele>
        <time>2024-09-23T14:08:21.000Z</time>
      </trkpt>
      <trkpt lat="42.39841" lon="19.76515">
        <ele>823.03002929688</ele>
        <time>2024-09-23T14:08:22.000Z</time>
      </trkpt>
      <trkpt lat="42.3984" lon="19.76514">
        <ele>823.03002929688</ele>
        <time>2024-09-23T14:08:23.000Z</time>
      </trkpt>
      <trkpt lat="42.39831" lon="19.76512">
        <ele>823.51000976562</ele>
        <time>2024-09-23T14:08:24.000Z</time>
      </trkpt>
      <trkpt lat="42.39825" lon="19.76515">
        <ele>823.03002929688</ele>
        <time>2024-09-23T14:08:25.000Z</time>
      </trkpt>
      <trkpt lat="42.39819" lon="19.76521">
        <ele>822.05999755859</ele>
        <time>2024-09-23T14:08:26.000Z</time>
      </trkpt>
      <trkpt lat="42.39814" lon="19.7653">
        <ele>821.09997558594</ele>
        <time>2024-09-23T14:08:27.000Z</time>
      </trkpt>
      <trkpt lat="42.39807" lon="19.76538">
        <ele>820.14001464844</ele>
        <time>2024-09-23T14:08:28.000Z</time>
      </trkpt>
      <trkpt lat="42.39799" lon="19.76542">
        <ele>818.70001220703</ele>
        <time>2024-09-23T14:08:29.000Z</time>
      </trkpt>
      <trkpt lat="42.39788" lon="19.76544">
        <ele>818.21997070312</ele>
        <time>2024-09-23T14:08:30.000Z</time>
      </trkpt>
      <trkpt lat="42.39774" lon="19.76543">
        <ele>817.26000976562</ele>
        <time>2024-09-23T14:08:31.000Z</time>
      </trkpt>
      <trkpt lat="42.39766" lon="19.76541">
        <ele>816.78002929688</ele>
        <time>2024-09-23T14:08:32.000Z</time>
      </trkpt>
      <trkpt lat="42.39759" lon="19.76542">
        <ele>816.78002929688</ele>
        <time>2024-09-23T14:08:33.000Z</time>
      </trkpt>
      <trkpt lat="42.39756" lon="19.76546">
        <ele>816.78002929688</ele>
        <time>2024-09-23T14:08:34.000Z</time>
      </trkpt>
      <trkpt lat="42.39753" lon="19.76552">
        <ele>816.29998779297</ele>
        <time>2024-09-23T14:08:35.000Z</time>
      </trkpt>
      <trkpt lat="42.39753" lon="19.76559">
        <ele>815.82000732422</ele>
        <time>2024-09-23T14:08:36.000Z</time>
      </trkpt>
      <trkpt lat="42.39755" lon="19.76568">
        <ele>815.34002685547</ele>
        <time>2024-09-23T14:08:37.000Z</time>
      </trkpt>
      <trkpt lat="42.3976" lon="19.76577">
        <ele>814.84997558594</ele>
        <time>2024-09-23T14:08:38.000Z</time>
      </trkpt>
      <trkpt lat="42.39767" lon="19.76585">
        <ele>814.84997558594</ele>
        <time>2024-09-23T14:08:39.000Z</time>
      </trkpt>
      <trkpt lat="42.39788" lon="19.76605">
        <ele>814.36999511719</ele>
        <time>2024-09-23T14:08:41.000Z</time>
      </trkpt>
      <trkpt lat="42.39801" lon="19.76619">
        <ele>812.92999267578</ele>
        <time>2024-09-23T14:08:42.000Z</time>
      </trkpt>
      <trkpt lat="42.39803" lon="19.76623">
        <ele>812.45001220703</ele>
        <time>2024-09-23T14:08:43.000Z</time>
      </trkpt>
      <trkpt lat="42.39809" lon="19.76634">
        <ele>811.96997070312</ele>
        <time>2024-09-23T14:08:44.000Z</time>
      </trkpt>
      <trkpt lat="42.39813" lon="19.76647">
        <ele>811.01000976562</ele>
        <time>2024-09-23T14:08:45.000Z</time>
      </trkpt>
      <trkpt lat="42.39815" lon="19.76658">
        <ele>810.53002929688</ele>
        <time>2024-09-23T14:08:46.000Z</time>
      </trkpt>
      <trkpt lat="42.39814" lon="19.76668">
        <ele>809.57000732422</ele>
        <time>2024-09-23T14:08:47.000Z</time>
      </trkpt>
      <trkpt lat="42.39809" lon="19.76679">
        <ele>808.13000488281</ele>
        <time>2024-09-23T14:08:48.000Z</time>
      </trkpt>
      <trkpt lat="42.3975" lon="19.76734">
        <ele>802.35998535156</ele>
        <time>2024-09-23T14:08:53.000Z</time>
      </trkpt>
      <trkpt lat="42.39712" lon="19.76777">
        <ele>798.03002929688</ele>
        <time>2024-09-23T14:08:56.000Z</time>
      </trkpt>
      <trkpt lat="42.39688" lon="19.76801">
        <ele>795.15002441406</ele>
        <time>2024-09-23T14:08:58.000Z</time>
      </trkpt>
      <trkpt lat="42.39678" lon="19.76813">
        <ele>793.71002197266</ele>
        <time>2024-09-23T14:08:59.000Z</time>
      </trkpt>
      <trkpt lat="42.39668" lon="19.76829">
        <ele>792.26000976562</ele>
        <time>2024-09-23T14:09:00.000Z</time>
      </trkpt>
      <trkpt lat="42.39661" lon="19.76844">
        <ele>790.82000732422</ele>
        <time>2024-09-23T14:09:01.000Z</time>
      </trkpt>
      <trkpt lat="42.39657" lon="19.76859">
        <ele>790.34002685547</ele>
        <time>2024-09-23T14:09:02.000Z</time>
      </trkpt>
      <trkpt lat="42.39653" lon="19.7689">
        <ele>787.94000244141</ele>
        <time>2024-09-23T14:09:04.000Z</time>
      </trkpt>
      <trkpt lat="42.3965" lon="19.76903">
        <ele>787.46002197266</ele>
        <time>2024-09-23T14:09:05.000Z</time>
      </trkpt>
      <trkpt lat="42.39645" lon="19.76914">
        <ele>786.97998046875</ele>
        <time>2024-09-23T14:09:06.000Z</time>
      </trkpt>
      <trkpt lat="42.39637" lon="19.76924">
        <ele>785.53002929688</ele>
        <time>2024-09-23T14:09:07.000Z</time>
      </trkpt>
      <trkpt lat="42.39623" lon="19.76937">
        <ele>783.60998535156</ele>
        <time>2024-09-23T14:09:09.000Z</time>
      </trkpt>
      <trkpt lat="42.39617" lon="19.7694">
        <ele>782.65002441406</ele>
        <time>2024-09-23T14:09:10.000Z</time>
      </trkpt>
      <trkpt lat="42.39605" lon="19.76943">
        <ele>782.65002441406</ele>
        <time>2024-09-23T14:09:11.000Z</time>
      </trkpt>
      <trkpt lat="42.39599" lon="19.76945">
        <ele>782.65002441406</ele>
        <time>2024-09-23T14:09:12.000Z</time>
      </trkpt>
      <trkpt lat="42.39592" lon="19.76949">
        <ele>782.65002441406</ele>
        <time>2024-09-23T14:09:13.000Z</time>
      </trkpt>
      <trkpt lat="42.39586" lon="19.76957">
        <ele>782.65002441406</ele>
        <time>2024-09-23T14:09:14.000Z</time>
      </trkpt>
      <trkpt lat="42.39582" lon="19.76964">
        <ele>781.69000244141</ele>
        <time>2024-09-23T14:09:15.000Z</time>
      </trkpt>
      <trkpt lat="42.39575" lon="19.76976">
        <ele>781.21002197266</ele>
        <time>2024-09-23T14:09:16.000Z</time>
      </trkpt>
      <trkpt lat="42.39574" lon="19.7698">
        <ele>780.72998046875</ele>
        <time>2024-09-23T14:09:17.000Z</time>
      </trkpt>
      <trkpt lat="42.39569" lon="19.76989">
        <ele>780.25</ele>
        <time>2024-09-23T14:09:18.000Z</time>
      </trkpt>
      <trkpt lat="42.39566" lon="19.76993">
        <ele>779.77001953125</ele>
        <time>2024-09-23T14:09:19.000Z</time>
      </trkpt>
      <trkpt lat="42.39562" lon="19.77">
        <ele>778.80999755859</ele>
        <time>2024-09-23T14:09:20.000Z</time>
      </trkpt>
      <trkpt lat="42.39554" lon="19.77008">
        <ele>777.84002685547</ele>
        <time>2024-09-23T14:09:21.000Z</time>
      </trkpt>
      <trkpt lat="42.39553" lon="19.7701">
        <ele>777.84002685547</ele>
        <time>2024-09-23T14:09:22.000Z</time>
      </trkpt>
      <trkpt lat="42.39548" lon="19.77015">
        <ele>776.88000488281</ele>
        <time>2024-09-23T14:09:23.000Z</time>
      </trkpt>
      <trkpt lat="42.39546" lon="19.77018">
        <ele>776.88000488281</ele>
        <time>2024-09-23T14:09:24.000Z</time>
      </trkpt>
      <trkpt lat="42.39542" lon="19.77025">
        <ele>775.91998291016</ele>
        <time>2024-09-23T14:09:25.000Z</time>
      </trkpt>
      <trkpt lat="42.39539" lon="19.77032">
        <ele>775.44000244141</ele>
        <time>2024-09-23T14:09:26.000Z</time>
      </trkpt>
      <trkpt lat="42.39524" lon="19.77069">
        <ele>774.47998046875</ele>
        <time>2024-09-23T14:09:29.000Z</time>
      </trkpt>
      <trkpt lat="42.39522" lon="19.77074">
        <ele>774.47998046875</ele>
        <time>2024-09-23T14:09:30.000Z</time>
      </trkpt>
      <trkpt lat="42.39518" lon="19.77082">
        <ele>774.47998046875</ele>
        <time>2024-09-23T14:09:31.000Z</time>
      </trkpt>
      <trkpt lat="42.39512" lon="19.77094">
        <ele>774</ele>
        <time>2024-09-23T14:09:32.000Z</time>
      </trkpt>
      <trkpt lat="42.39504" lon="19.7711">
        <ele>773.03997802734</ele>
        <time>2024-09-23T14:09:33.000Z</time>
      </trkpt>
      <trkpt lat="42.39503" lon="19.77112">
        <ele>773.03997802734</ele>
        <time>2024-09-23T14:09:34.000Z</time>
      </trkpt>
      <trkpt lat="42.39497" lon="19.77121">
        <ele>772.08001708984</ele>
        <time>2024-09-23T14:09:35.000Z</time>
      </trkpt>
      <trkpt lat="42.39488" lon="19.77136">
        <ele>770.63000488281</ele>
        <time>2024-09-23T14:09:36.000Z</time>
      </trkpt>
      <trkpt lat="42.39485" lon="19.77143">
        <ele>770.15002441406</ele>
        <time>2024-09-23T14:09:37.000Z</time>
      </trkpt>
      <trkpt lat="42.3948" lon="19.77154">
        <ele>769.66998291016</ele>
        <time>2024-09-23T14:09:38.000Z</time>
      </trkpt>
      <trkpt lat="42.3947" lon="19.77182">
        <ele>768.22998046875</ele>
        <time>2024-09-23T14:09:40.000Z</time>
      </trkpt>
      <trkpt lat="42.39463" lon="19.77209">
        <ele>767.75</ele>
        <time>2024-09-23T14:09:42.000Z</time>
      </trkpt>
      <trkpt lat="42.39463" lon="19.77212">
        <ele>767.75</ele>
        <time>2024-09-23T14:09:43.000Z</time>
      </trkpt>
      <trkpt lat="42.3945" lon="19.77243">
        <ele>766.30999755859</ele>
        <time>2024-09-23T14:09:46.000Z</time>
      </trkpt>
      <trkpt lat="42.39444" lon="19.77255">
        <ele>765.34997558594</ele>
        <time>2024-09-23T14:09:47.000Z</time>
      </trkpt>
      <trkpt lat="42.39441" lon="19.77259">
        <ele>764.86999511719</ele>
        <time>2024-09-23T14:09:48.000Z</time>
      </trkpt>
      <trkpt lat="42.39437" lon="19.77266">
        <ele>763.90002441406</ele>
        <time>2024-09-23T14:09:49.000Z</time>
      </trkpt>
      <trkpt lat="42.39433" lon="19.77275">
        <ele>762.94000244141</ele>
        <time>2024-09-23T14:09:50.000Z</time>
      </trkpt>
      <trkpt lat="42.39424" lon="19.77294">
        <ele>761.02001953125</ele>
        <time>2024-09-23T14:09:52.000Z</time>
      </trkpt>
      <trkpt lat="42.3942" lon="19.77303">
        <ele>760.53997802734</ele>
        <time>2024-09-23T14:09:53.000Z</time>
      </trkpt>
      <trkpt lat="42.39417" lon="19.77313">
        <ele>759.58001708984</ele>
        <time>2024-09-23T14:09:54.000Z</time>
      </trkpt>
      <trkpt lat="42.39415" lon="19.77323">
        <ele>758.61999511719</ele>
        <time>2024-09-23T14:09:55.000Z</time>
      </trkpt>
      <trkpt lat="42.39413" lon="19.7733">
        <ele>758.14001464844</ele>
        <time>2024-09-23T14:09:56.000Z</time>
      </trkpt>
      <trkpt lat="42.39411" lon="19.77342">
        <ele>757.17999267578</ele>
        <time>2024-09-23T14:09:58.000Z</time>
      </trkpt>
      <trkpt lat="42.39411" lon="19.77344">
        <ele>757.17999267578</ele>
        <time>2024-09-23T14:09:59.000Z</time>
      </trkpt>
      <trkpt lat="42.39412" lon="19.77357">
        <ele>756.69000244141</ele>
        <time>2024-09-23T14:10:00.000Z</time>
      </trkpt>
      <trkpt lat="42.39412" lon="19.77361">
        <ele>756.21002197266</ele>
        <time>2024-09-23T14:10:01.000Z</time>
      </trkpt>
      <trkpt lat="42.39411" lon="19.7737">
        <ele>756.21002197266</ele>
        <time>2024-09-23T14:10:02.000Z</time>
      </trkpt>
      <trkpt lat="42.39406" lon="19.7738">
        <ele>755.72998046875</ele>
        <time>2024-09-23T14:10:03.000Z</time>
      </trkpt>
      <trkpt lat="42.39399" lon="19.77387">
        <ele>755.25</ele>
        <time>2024-09-23T14:10:04.000Z</time>
      </trkpt>
      <trkpt lat="42.39389" lon="19.77394">
        <ele>754.77001953125</ele>
        <time>2024-09-23T14:10:05.000Z</time>
      </trkpt>
      <trkpt lat="42.39376" lon="19.77398">
        <ele>753.80999755859</ele>
        <time>2024-09-23T14:10:06.000Z</time>
      </trkpt>
      <trkpt lat="42.39358" lon="19.774">
        <ele>753.33001708984</ele>
        <time>2024-09-23T14:10:07.000Z</time>
      </trkpt>
      <trkpt lat="42.39353" lon="19.77402">
        <ele>752.84997558594</ele>
        <time>2024-09-23T14:10:08.000Z</time>
      </trkpt>
      <trkpt lat="42.39341" lon="19.77407">
        <ele>752.36999511719</ele>
        <time>2024-09-23T14:10:09.000Z</time>
      </trkpt>
      <trkpt lat="42.39332" lon="19.77412">
        <ele>751.89001464844</ele>
        <time>2024-09-23T14:10:10.000Z</time>
      </trkpt>
      <trkpt lat="42.3932" lon="19.77424">
        <ele>750.45001220703</ele>
        <time>2024-09-23T14:10:11.000Z</time>
      </trkpt>
      <trkpt lat="42.39294" lon="19.77452">
        <ele>749</ele>
        <time>2024-09-23T14:10:13.000Z</time>
      </trkpt>
      <trkpt lat="42.39286" lon="19.77458">
        <ele>748.52001953125</ele>
        <time>2024-09-23T14:10:14.000Z</time>
      </trkpt>
      <trkpt lat="42.39274" lon="19.77467">
        <ele>747.55999755859</ele>
        <time>2024-09-23T14:10:15.000Z</time>
      </trkpt>
      <trkpt lat="42.39236" lon="19.77493">
        <ele>746.59997558594</ele>
        <time>2024-09-23T14:10:17.000Z</time>
      </trkpt>
      <trkpt lat="42.39222" lon="19.77501">
        <ele>746.11999511719</ele>
        <time>2024-09-23T14:10:18.000Z</time>
      </trkpt>
      <trkpt lat="42.39209" lon="19.77508">
        <ele>745.64001464844</ele>
        <time>2024-09-23T14:10:19.000Z</time>
      </trkpt>
      <trkpt lat="42.39199" lon="19.77513">
        <ele>745.64001464844</ele>
        <time>2024-09-23T14:10:20.000Z</time>
      </trkpt>
      <trkpt lat="42.39186" lon="19.77524">
        <ele>745.15997314453</ele>
        <time>2024-09-23T14:10:21.000Z</time>
      </trkpt>
      <trkpt lat="42.39175" lon="19.77536">
        <ele>745.64001464844</ele>
        <time>2024-09-23T14:10:22.000Z</time>
      </trkpt>
      <trkpt lat="42.39165" lon="19.77553">
        <ele>745.64001464844</ele>
        <time>2024-09-23T14:10:23.000Z</time>
      </trkpt>
      <trkpt lat="42.39159" lon="19.77563">
        <ele>745.15997314453</ele>
        <time>2024-09-23T14:10:24.000Z</time>
      </trkpt>
      <trkpt lat="42.39151" lon="19.77573">
        <ele>744.67999267578</ele>
        <time>2024-09-23T14:10:25.000Z</time>
      </trkpt>
      <trkpt lat="42.39141" lon="19.7758">
        <ele>744.20001220703</ele>
        <time>2024-09-23T14:10:26.000Z</time>
      </trkpt>
      <trkpt lat="42.39131" lon="19.77583">
        <ele>743.71997070312</ele>
        <time>2024-09-23T14:10:27.000Z</time>
      </trkpt>
      <trkpt lat="42.39119" lon="19.77584">
        <ele>743.23999023438</ele>
        <time>2024-09-23T14:10:28.000Z</time>
      </trkpt>
      <trkpt lat="42.39108" lon="19.77581">
        <ele>744.20001220703</ele>
        <time>2024-09-23T14:10:29.000Z</time>
      </trkpt>
      <trkpt lat="42.39095" lon="19.77578">
        <ele>744.20001220703</ele>
        <time>2024-09-23T14:10:30.000Z</time>
      </trkpt>
      <trkpt lat="42.39085" lon="19.77578">
        <ele>744.20001220703</ele>
        <time>2024-09-23T14:10:31.000Z</time>
      </trkpt>
      <trkpt lat="42.39076" lon="19.77581">
        <ele>743.71997070312</ele>
        <time>2024-09-23T14:10:32.000Z</time>
      </trkpt>
      <trkpt lat="42.39069" lon="19.77588">
        <ele>744.20001220703</ele>
        <time>2024-09-23T14:10:33.000Z</time>
      </trkpt>
      <trkpt lat="42.39062" lon="19.77598">
        <ele>744.20001220703</ele>
        <time>2024-09-23T14:10:34.000Z</time>
      </trkpt>
      <trkpt lat="42.39057" lon="19.77611">
        <ele>743.71997070312</ele>
        <time>2024-09-23T14:10:35.000Z</time>
      </trkpt>
      <trkpt lat="42.39052" lon="19.77621">
        <ele>742.76000976562</ele>
        <time>2024-09-23T14:10:36.000Z</time>
      </trkpt>
      <trkpt lat="42.39044" lon="19.77629">
        <ele>743.23999023438</ele>
        <time>2024-09-23T14:10:37.000Z</time>
      </trkpt>
      <trkpt lat="42.39031" lon="19.77634">
        <ele>743.71997070312</ele>
        <time>2024-09-23T14:10:38.000Z</time>
      </trkpt>
      <trkpt lat="42.39024" lon="19.77637">
        <ele>743.23999023438</ele>
        <time>2024-09-23T14:10:39.000Z</time>
      </trkpt>
      <trkpt lat="42.39018" lon="19.7764">
        <ele>742.76000976562</ele>
        <time>2024-09-23T14:10:40.000Z</time>
      </trkpt>
      <trkpt lat="42.39009" lon="19.7765">
        <ele>742.76000976562</ele>
        <time>2024-09-23T14:10:41.000Z</time>
      </trkpt>
      <trkpt lat="42.39004" lon="19.77655">
        <ele>742.76000976562</ele>
        <time>2024-09-23T14:10:42.000Z</time>
      </trkpt>
      <trkpt lat="42.38982" lon="19.77672">
        <ele>742.76000976562</ele>
        <time>2024-09-23T14:10:44.000Z</time>
      </trkpt>
      <trkpt lat="42.38972" lon="19.77678">
        <ele>742.76000976562</ele>
        <time>2024-09-23T14:10:45.000Z</time>
      </trkpt>
      <trkpt lat="42.38961" lon="19.77684">
        <ele>742.76000976562</ele>
        <time>2024-09-23T14:10:46.000Z</time>
      </trkpt>
      <trkpt lat="42.38955" lon="19.77693">
        <ele>742.76000976562</ele>
        <time>2024-09-23T14:10:47.000Z</time>
      </trkpt>
      <trkpt lat="42.38952" lon="19.77701">
        <ele>743.23999023438</ele>
        <time>2024-09-23T14:10:48.000Z</time>
      </trkpt>
      <trkpt lat="42.38951" lon="19.77709">
        <ele>741.30999755859</ele>
        <time>2024-09-23T14:10:49.000Z</time>
      </trkpt>
      <trkpt lat="42.3895" lon="19.77728">
        <ele>740.83001708984</ele>
        <time>2024-09-23T14:10:51.000Z</time>
      </trkpt>
      <trkpt lat="42.38948" lon="19.7774">
        <ele>740.34997558594</ele>
        <time>2024-09-23T14:10:52.000Z</time>
      </trkpt>
      <trkpt lat="42.38943" lon="19.77752">
        <ele>740.34997558594</ele>
        <time>2024-09-23T14:10:53.000Z</time>
      </trkpt>
      <trkpt lat="42.38937" lon="19.77763">
        <ele>740.34997558594</ele>
        <time>2024-09-23T14:10:54.000Z</time>
      </trkpt>
      <trkpt lat="42.38927" lon="19.77776">
        <ele>739.86999511719</ele>
        <time>2024-09-23T14:10:55.000Z</time>
      </trkpt>
      <trkpt lat="42.38917" lon="19.77786">
        <ele>739.39001464844</ele>
        <time>2024-09-23T14:10:56.000Z</time>
      </trkpt>
      <trkpt lat="42.38904" lon="19.77796">
        <ele>738.90997314453</ele>
        <time>2024-09-23T14:10:57.000Z</time>
      </trkpt>
      <trkpt lat="42.38885" lon="19.77807">
        <ele>737.95001220703</ele>
        <time>2024-09-23T14:10:58.000Z</time>
      </trkpt>
      <trkpt lat="42.38874" lon="19.77814">
        <ele>737.46997070312</ele>
        <time>2024-09-23T14:10:59.000Z</time>
      </trkpt>
      <trkpt lat="42.38861" lon="19.77821">
        <ele>736.51000976562</ele>
        <time>2024-09-23T14:11:00.000Z</time>
      </trkpt>
      <trkpt lat="42.38842" lon="19.77831">
        <ele>736.03002929688</ele>
        <time>2024-09-23T14:11:01.000Z</time>
      </trkpt>
      <trkpt lat="42.38839" lon="19.77833">
        <ele>735.54998779297</ele>
        <time>2024-09-23T14:11:02.000Z</time>
      </trkpt>
      <trkpt lat="42.38831" lon="19.77841">
        <ele>735.07000732422</ele>
        <time>2024-09-23T14:11:03.000Z</time>
      </trkpt>
      <trkpt lat="42.38822" lon="19.77855">
        <ele>735.07000732422</ele>
        <time>2024-09-23T14:11:04.000Z</time>
      </trkpt>
      <trkpt lat="42.38806" lon="19.77883">
        <ele>733.14001464844</ele>
        <time>2024-09-23T14:11:06.000Z</time>
      </trkpt>
      <trkpt lat="42.38796" lon="19.779">
        <ele>731.70001220703</ele>
        <time>2024-09-23T14:11:07.000Z</time>
      </trkpt>
      <trkpt lat="42.3879" lon="19.77908">
        <ele>730.26000976562</ele>
        <time>2024-09-23T14:11:08.000Z</time>
      </trkpt>
      <trkpt lat="42.38781" lon="19.77919">
        <ele>728.82000732422</ele>
        <time>2024-09-23T14:11:09.000Z</time>
      </trkpt>
      <trkpt lat="42.38772" lon="19.77927">
        <ele>727.85998535156</ele>
        <time>2024-09-23T14:11:10.000Z</time>
      </trkpt>
      <trkpt lat="42.3876" lon="19.77932">
        <ele>726.89001464844</ele>
        <time>2024-09-23T14:11:11.000Z</time>
      </trkpt>
      <trkpt lat="42.38721" lon="19.77942">
        <ele>724.96997070312</ele>
        <time>2024-09-23T14:11:14.000Z</time>
      </trkpt>
      <trkpt lat="42.38711" lon="19.77942">
        <ele>724.48999023438</ele>
        <time>2024-09-23T14:11:15.000Z</time>
      </trkpt>
      <trkpt lat="42.38699" lon="19.7794">
        <ele>724.48999023438</ele>
        <time>2024-09-23T14:11:16.000Z</time>
      </trkpt>
      <trkpt lat="42.38687" lon="19.77937">
        <ele>724.48999023438</ele>
        <time>2024-09-23T14:11:17.000Z</time>
      </trkpt>
      <trkpt lat="42.38678" lon="19.77935">
        <ele>724.48999023438</ele>
        <time>2024-09-23T14:11:18.000Z</time>
      </trkpt>
      <trkpt lat="42.38668" lon="19.77936">
        <ele>724.01000976562</ele>
        <time>2024-09-23T14:11:19.000Z</time>
      </trkpt>
      <trkpt lat="42.38657" lon="19.77938">
        <ele>723.53002929688</ele>
        <time>2024-09-23T14:11:20.000Z</time>
      </trkpt>
      <trkpt lat="42.38643" lon="19.77943">
        <ele>723.53002929688</ele>
        <time>2024-09-23T14:11:21.000Z</time>
      </trkpt>
      <trkpt lat="42.38624" lon="19.7795">
        <ele>723.04998779297</ele>
        <time>2024-09-23T14:11:23.000Z</time>
      </trkpt>
      <trkpt lat="42.38615" lon="19.77955">
        <ele>723.04998779297</ele>
        <time>2024-09-23T14:11:24.000Z</time>
      </trkpt>
      <trkpt lat="42.38607" lon="19.77962">
        <ele>723.04998779297</ele>
        <time>2024-09-23T14:11:25.000Z</time>
      </trkpt>
      <trkpt lat="42.386" lon="19.77972">
        <ele>723.04998779297</ele>
        <time>2024-09-23T14:11:26.000Z</time>
      </trkpt>
      <trkpt lat="42.38594" lon="19.77984">
        <ele>722.57000732422</ele>
        <time>2024-09-23T14:11:27.000Z</time>
      </trkpt>
      <trkpt lat="42.38578" lon="19.7802">
        <ele>721.60998535156</ele>
        <time>2024-09-23T14:11:29.000Z</time>
      </trkpt>
      <trkpt lat="42.38575" lon="19.78027">
        <ele>721.60998535156</ele>
        <time>2024-09-23T14:11:30.000Z</time>
      </trkpt>
      <trkpt lat="42.3856" lon="19.7807">
        <ele>721.13000488281</ele>
        <time>2024-09-23T14:11:32.000Z</time>
      </trkpt>
      <trkpt lat="42.38559" lon="19.78073">
        <ele>721.13000488281</ele>
        <time>2024-09-23T14:11:33.000Z</time>
      </trkpt>
      <trkpt lat="42.38553" lon="19.78085">
        <ele>721.60998535156</ele>
        <time>2024-09-23T14:11:34.000Z</time>
      </trkpt>
      <trkpt lat="42.38543" lon="19.781">
        <ele>721.60998535156</ele>
        <time>2024-09-23T14:11:35.000Z</time>
      </trkpt>
      <trkpt lat="42.38533" lon="19.78116">
        <ele>721.60998535156</ele>
        <time>2024-09-23T14:11:36.000Z</time>
      </trkpt>
      <trkpt lat="42.38503" lon="19.78166">
        <ele>720.65002441406</ele>
        <time>2024-09-23T14:11:38.000Z</time>
      </trkpt>
      <trkpt lat="42.38496" lon="19.78177">
        <ele>720.15997314453</ele>
        <time>2024-09-23T14:11:39.000Z</time>
      </trkpt>
      <trkpt lat="42.38488" lon="19.78189">
        <ele>719.67999267578</ele>
        <time>2024-09-23T14:11:40.000Z</time>
      </trkpt>
      <trkpt lat="42.3848" lon="19.78198">
        <ele>718.71997070312</ele>
        <time>2024-09-23T14:11:41.000Z</time>
      </trkpt>
      <trkpt lat="42.38464" lon="19.78214">
        <ele>715.35998535156</ele>
        <time>2024-09-23T14:11:42.000Z</time>
      </trkpt>
      <trkpt lat="42.38451" lon="19.78225">
        <ele>714.88000488281</ele>
        <time>2024-09-23T14:11:43.000Z</time>
      </trkpt>
      <trkpt lat="42.38443" lon="19.78235">
        <ele>714.88000488281</ele>
        <time>2024-09-23T14:11:44.000Z</time>
      </trkpt>
      <trkpt lat="42.38434" lon="19.7825">
        <ele>714.88000488281</ele>
        <time>2024-09-23T14:11:45.000Z</time>
      </trkpt>
      <trkpt lat="42.38416" lon="19.78296">
        <ele>713.91998291016</ele>
        <time>2024-09-23T14:11:47.000Z</time>
      </trkpt>
      <trkpt lat="42.3841" lon="19.78309">
        <ele>714.40002441406</ele>
        <time>2024-09-23T14:11:48.000Z</time>
      </trkpt>
      <trkpt lat="42.38406" lon="19.78323">
        <ele>715.35998535156</ele>
        <time>2024-09-23T14:11:49.000Z</time>
      </trkpt>
      <trkpt lat="42.384" lon="19.78338">
        <ele>715.84002685547</ele>
        <time>2024-09-23T14:11:50.000Z</time>
      </trkpt>
      <trkpt lat="42.38395" lon="19.78346">
        <ele>715.84002685547</ele>
        <time>2024-09-23T14:11:51.000Z</time>
      </trkpt>
      <trkpt lat="42.38389" lon="19.78353">
        <ele>716.32000732422</ele>
        <time>2024-09-23T14:11:52.000Z</time>
      </trkpt>
      <trkpt lat="42.38374" lon="19.78364">
        <ele>715.35998535156</ele>
        <time>2024-09-23T14:11:53.000Z</time>
      </trkpt>
      <trkpt lat="42.3837" lon="19.78367">
        <ele>714.88000488281</ele>
        <time>2024-09-23T14:11:54.000Z</time>
      </trkpt>
      <trkpt lat="42.38357" lon="19.78374">
        <ele>713.44000244141</ele>
        <time>2024-09-23T14:11:55.000Z</time>
      </trkpt>
      <trkpt lat="42.38349" lon="19.78379">
        <ele>711.51000976562</ele>
        <time>2024-09-23T14:11:56.000Z</time>
      </trkpt>
      <trkpt lat="42.38334" lon="19.78392">
        <ele>709.59002685547</ele>
        <time>2024-09-23T14:11:57.000Z</time>
      </trkpt>
      <trkpt lat="42.38322" lon="19.78401">
        <ele>709.10998535156</ele>
        <time>2024-09-23T14:11:58.000Z</time>
      </trkpt>
      <trkpt lat="42.38307" lon="19.78411">
        <ele>707.66998291016</ele>
        <time>2024-09-23T14:11:59.000Z</time>
      </trkpt>
      <trkpt lat="42.38248" lon="19.78446">
        <ele>701.41998291016</ele>
        <time>2024-09-23T14:12:02.000Z</time>
      </trkpt>
      <trkpt lat="42.38234" lon="19.78453">
        <ele>699.5</ele>
        <time>2024-09-23T14:12:03.000Z</time>
      </trkpt>
      <trkpt lat="42.3823" lon="19.78455">
        <ele>698.53002929688</ele>
        <time>2024-09-23T14:12:04.000Z</time>
      </trkpt>
      <trkpt lat="42.38215" lon="19.7846">
        <ele>697.09002685547</ele>
        <time>2024-09-23T14:12:05.000Z</time>
      </trkpt>
      <trkpt lat="42.38197" lon="19.78464">
        <ele>695.65002441406</ele>
        <time>2024-09-23T14:12:06.000Z</time>
      </trkpt>
      <trkpt lat="42.38187" lon="19.78466">
        <ele>694.69000244141</ele>
        <time>2024-09-23T14:12:07.000Z</time>
      </trkpt>
      <trkpt lat="42.38175" lon="19.7847">
        <ele>693.25</ele>
        <time>2024-09-23T14:12:08.000Z</time>
      </trkpt>
      <trkpt lat="42.38157" lon="19.78478">
        <ele>691.33001708984</ele>
        <time>2024-09-23T14:12:09.000Z</time>
      </trkpt>
      <trkpt lat="42.3815" lon="19.78481">
        <ele>690.35998535156</ele>
        <time>2024-09-23T14:12:10.000Z</time>
      </trkpt>
      <trkpt lat="42.3814" lon="19.78484">
        <ele>689.88000488281</ele>
        <time>2024-09-23T14:12:11.000Z</time>
      </trkpt>
      <trkpt lat="42.38129" lon="19.78485">
        <ele>688.91998291016</ele>
        <time>2024-09-23T14:12:12.000Z</time>
      </trkpt>
      <trkpt lat="42.3812" lon="19.78484">
        <ele>688.44000244141</ele>
        <time>2024-09-23T14:12:13.000Z</time>
      </trkpt>
      <trkpt lat="42.38114" lon="19.78484">
        <ele>688.91998291016</ele>
        <time>2024-09-23T14:12:14.000Z</time>
      </trkpt>
      <trkpt lat="42.38108" lon="19.78484">
        <ele>689.88000488281</ele>
        <time>2024-09-23T14:12:15.000Z</time>
      </trkpt>
      <trkpt lat="42.38101" lon="19.78487">
        <ele>689.88000488281</ele>
        <time>2024-09-23T14:12:16.000Z</time>
      </trkpt>
      <trkpt lat="42.38095" lon="19.7849">
        <ele>689.88000488281</ele>
        <time>2024-09-23T14:12:17.000Z</time>
      </trkpt>
      <trkpt lat="42.38086" lon="19.78494">
        <ele>689.88000488281</ele>
        <time>2024-09-23T14:12:18.000Z</time>
      </trkpt>
      <trkpt lat="42.38084" lon="19.78495">
        <ele>689.88000488281</ele>
        <time>2024-09-23T14:12:19.000Z</time>
      </trkpt>
      <trkpt lat="42.38077" lon="19.785">
        <ele>690.35998535156</ele>
        <time>2024-09-23T14:12:20.000Z</time>
      </trkpt>
      <trkpt lat="42.38054" lon="19.78514">
        <ele>690.35998535156</ele>
        <time>2024-09-23T14:12:22.000Z</time>
      </trkpt>
      <trkpt lat="42.3805" lon="19.78516">
        <ele>689.88000488281</ele>
        <time>2024-09-23T14:12:23.000Z</time>
      </trkpt>
      <trkpt lat="42.38038" lon="19.78523">
        <ele>689.88000488281</ele>
        <time>2024-09-23T14:12:24.000Z</time>
      </trkpt>
      <trkpt lat="42.38034" lon="19.78525">
        <ele>689.88000488281</ele>
        <time>2024-09-23T14:12:25.000Z</time>
      </trkpt>
      <trkpt lat="42.38027" lon="19.78528">
        <ele>689.88000488281</ele>
        <time>2024-09-23T14:12:26.000Z</time>
      </trkpt>
      <trkpt lat="42.3802" lon="19.7853">
        <ele>689.88000488281</ele>
        <time>2024-09-23T14:12:27.000Z</time>
      </trkpt>
      <trkpt lat="42.3801" lon="19.78534">
        <ele>689.88000488281</ele>
        <time>2024-09-23T14:12:28.000Z</time>
      </trkpt>
      <trkpt lat="42.38001" lon="19.78538">
        <ele>689.88000488281</ele>
        <time>2024-09-23T14:12:29.000Z</time>
      </trkpt>
      <trkpt lat="42.37995" lon="19.78541">
        <ele>689.88000488281</ele>
        <time>2024-09-23T14:12:30.000Z</time>
      </trkpt>
      <trkpt lat="42.37988" lon="19.78545">
        <ele>689.40002441406</ele>
        <time>2024-09-23T14:12:31.000Z</time>
      </trkpt>
      <trkpt lat="42.37982" lon="19.78552">
        <ele>689.40002441406</ele>
        <time>2024-09-23T14:12:32.000Z</time>
      </trkpt>
      <trkpt lat="42.37971" lon="19.7857">
        <ele>688.44000244141</ele>
        <time>2024-09-23T14:12:34.000Z</time>
      </trkpt>
      <trkpt lat="42.37966" lon="19.78576">
        <ele>688.44000244141</ele>
        <time>2024-09-23T14:12:35.000Z</time>
      </trkpt>
      <trkpt lat="42.37958" lon="19.78583">
        <ele>687.96002197266</ele>
        <time>2024-09-23T14:12:36.000Z</time>
      </trkpt>
      <trkpt lat="42.37949" lon="19.78594">
        <ele>687.47998046875</ele>
        <time>2024-09-23T14:12:37.000Z</time>
      </trkpt>
      <trkpt lat="42.37934" lon="19.78613">
        <ele>687</ele>
        <time>2024-09-23T14:12:38.000Z</time>
      </trkpt>
      <trkpt lat="42.3793" lon="19.78617">
        <ele>687</ele>
        <time>2024-09-23T14:12:39.000Z</time>
      </trkpt>
      <trkpt lat="42.37917" lon="19.7863">
        <ele>687.47998046875</ele>
        <time>2024-09-23T14:12:40.000Z</time>
      </trkpt>
      <trkpt lat="42.37915" lon="19.78632">
        <ele>687.47998046875</ele>
        <time>2024-09-23T14:12:41.000Z</time>
      </trkpt>
      <trkpt lat="42.37908" lon="19.78638">
        <ele>687.47998046875</ele>
        <time>2024-09-23T14:12:42.000Z</time>
      </trkpt>
      <trkpt lat="42.379" lon="19.78644">
        <ele>687.47998046875</ele>
        <time>2024-09-23T14:12:43.000Z</time>
      </trkpt>
      <trkpt lat="42.37892" lon="19.7865">
        <ele>687</ele>
        <time>2024-09-23T14:12:44.000Z</time>
      </trkpt>
      <trkpt lat="42.37853" lon="19.78668">
        <ele>685.55999755859</ele>
        <time>2024-09-23T14:12:48.000Z</time>
      </trkpt>
      <trkpt lat="42.37852" lon="19.78668">
        <ele>685.55999755859</ele>
        <time>2024-09-23T14:12:49.000Z</time>
      </trkpt>
      <trkpt lat="42.37843" lon="19.78674">
        <ele>685.08001708984</ele>
        <time>2024-09-23T14:12:50.000Z</time>
      </trkpt>
      <trkpt lat="42.37838" lon="19.78678">
        <ele>685.08001708984</ele>
        <time>2024-09-23T14:12:51.000Z</time>
      </trkpt>
      <trkpt lat="42.37828" lon="19.78688">
        <ele>684.59997558594</ele>
        <time>2024-09-23T14:12:52.000Z</time>
      </trkpt>
      <trkpt lat="42.37807" lon="19.78711">
        <ele>682.66998291016</ele>
        <time>2024-09-23T14:12:55.000Z</time>
      </trkpt>
      <trkpt lat="42.37796" lon="19.78722">
        <ele>680.27001953125</ele>
        <time>2024-09-23T14:12:56.000Z</time>
      </trkpt>
      <trkpt lat="42.37794" lon="19.78724">
        <ele>679.78997802734</ele>
        <time>2024-09-23T14:12:57.000Z</time>
      </trkpt>
      <trkpt lat="42.37789" lon="19.78728">
        <ele>678.83001708984</ele>
        <time>2024-09-23T14:12:58.000Z</time>
      </trkpt>
      <trkpt lat="42.37782" lon="19.7873">
        <ele>677.86999511719</ele>
        <time>2024-09-23T14:12:59.000Z</time>
      </trkpt>
      <trkpt lat="42.37774" lon="19.78732">
        <ele>676.41998291016</ele>
        <time>2024-09-23T14:13:00.000Z</time>
      </trkpt>
      <trkpt lat="42.37767" lon="19.78733">
        <ele>674.97998046875</ele>
        <time>2024-09-23T14:13:01.000Z</time>
      </trkpt>
      <trkpt lat="42.37758" lon="19.78734">
        <ele>676.41998291016</ele>
        <time>2024-09-23T14:13:08.000Z</time>
      </trkpt>
      <trkpt lat="42.37752" lon="19.78735">
        <ele>676.41998291016</ele>
        <time>2024-09-23T14:13:14.000Z</time>
      </trkpt>
      <trkpt lat="42.37746" lon="19.78737">
        <ele>675.94000244141</ele>
        <time>2024-09-23T14:13:15.000Z</time>
      </trkpt>
      <trkpt lat="42.37738" lon="19.78738">
        <ele>675.94000244141</ele>
        <time>2024-09-23T14:13:16.000Z</time>
      </trkpt>
      <trkpt lat="42.37729" lon="19.7874">
        <ele>675.94000244141</ele>
        <time>2024-09-23T14:13:17.000Z</time>
      </trkpt>
      <trkpt lat="42.3772" lon="19.78742">
        <ele>675.46002197266</ele>
        <time>2024-09-23T14:13:18.000Z</time>
      </trkpt>
      <trkpt lat="42.37712" lon="19.78746">
        <ele>675.46002197266</ele>
        <time>2024-09-23T14:13:19.000Z</time>
      </trkpt>
      <trkpt lat="42.37704" lon="19.78751">
        <ele>674.97998046875</ele>
        <time>2024-09-23T14:13:20.000Z</time>
      </trkpt>
      <trkpt lat="42.37697" lon="19.78758">
        <ele>674.97998046875</ele>
        <time>2024-09-23T14:13:21.000Z</time>
      </trkpt>
      <trkpt lat="42.37687" lon="19.7877">
        <ele>674.02001953125</ele>
        <time>2024-09-23T14:13:22.000Z</time>
      </trkpt>
      <trkpt lat="42.37681" lon="19.78777">
        <ele>673.53997802734</ele>
        <time>2024-09-23T14:13:23.000Z</time>
      </trkpt>
      <trkpt lat="42.37675" lon="19.78782">
        <ele>672.58001708984</ele>
        <time>2024-09-23T14:13:24.000Z</time>
      </trkpt>
      <trkpt lat="42.37668" lon="19.78787">
        <ele>672.09997558594</ele>
        <time>2024-09-23T14:13:25.000Z</time>
      </trkpt>
      <trkpt lat="42.37664" lon="19.7879">
        <ele>671.14001464844</ele>
        <time>2024-09-23T14:13:26.000Z</time>
      </trkpt>
      <trkpt lat="42.37658" lon="19.78794">
        <ele>670.65997314453</ele>
        <time>2024-09-23T14:13:27.000Z</time>
      </trkpt>
      <trkpt lat="42.37652" lon="19.78799">
        <ele>670.17999267578</ele>
        <time>2024-09-23T14:13:28.000Z</time>
      </trkpt>
      <trkpt lat="42.37643" lon="19.78805">
        <ele>669.21997070312</ele>
        <time>2024-09-23T14:13:29.000Z</time>
      </trkpt>
      <trkpt lat="42.3762" lon="19.78815">
        <ele>668.25</ele>
        <time>2024-09-23T14:13:31.000Z</time>
      </trkpt>
      <trkpt lat="42.3759" lon="19.7883">
        <ele>666.33001708984</ele>
        <time>2024-09-23T14:13:33.000Z</time>
      </trkpt>
      <trkpt lat="42.37579" lon="19.78835">
        <ele>666.33001708984</ele>
        <time>2024-09-23T14:13:34.000Z</time>
      </trkpt>
      <trkpt lat="42.37567" lon="19.7884">
        <ele>666.33001708984</ele>
        <time>2024-09-23T14:13:35.000Z</time>
      </trkpt>
      <trkpt lat="42.37538" lon="19.78849">
        <ele>666.33001708984</ele>
        <time>2024-09-23T14:13:37.000Z</time>
      </trkpt>
      <trkpt lat="42.37528" lon="19.78853">
        <ele>666.80999755859</ele>
        <time>2024-09-23T14:13:38.000Z</time>
      </trkpt>
      <trkpt lat="42.37518" lon="19.78859">
        <ele>667.77001953125</ele>
        <time>2024-09-23T14:13:39.000Z</time>
      </trkpt>
      <trkpt lat="42.37512" lon="19.78869">
        <ele>669.21997070312</ele>
        <time>2024-09-23T14:13:40.000Z</time>
      </trkpt>
      <trkpt lat="42.37503" lon="19.78887">
        <ele>670.17999267578</ele>
        <time>2024-09-23T14:13:41.000Z</time>
      </trkpt>
      <trkpt lat="42.37499" lon="19.78893">
        <ele>670.65997314453</ele>
        <time>2024-09-23T14:13:42.000Z</time>
      </trkpt>
      <trkpt lat="42.37492" lon="19.789">
        <ele>671.61999511719</ele>
        <time>2024-09-23T14:13:43.000Z</time>
      </trkpt>
      <trkpt lat="42.37484" lon="19.78903">
        <ele>671.61999511719</ele>
        <time>2024-09-23T14:13:44.000Z</time>
      </trkpt>
      <trkpt lat="42.37473" lon="19.78904">
        <ele>673.05999755859</ele>
        <time>2024-09-23T14:13:45.000Z</time>
      </trkpt>
      <trkpt lat="42.37462" lon="19.78902">
        <ele>674.97998046875</ele>
        <time>2024-09-23T14:13:46.000Z</time>
      </trkpt>
      <trkpt lat="42.37453" lon="19.78898">
        <ele>675.94000244141</ele>
        <time>2024-09-23T14:13:47.000Z</time>
      </trkpt>
      <trkpt lat="42.37446" lon="19.78893">
        <ele>676.90997314453</ele>
        <time>2024-09-23T14:13:48.000Z</time>
      </trkpt>
      <trkpt lat="42.37437" lon="19.78884">
        <ele>677.86999511719</ele>
        <time>2024-09-23T14:13:49.000Z</time>
      </trkpt>
      <trkpt lat="42.37429" lon="19.78879">
        <ele>677.86999511719</ele>
        <time>2024-09-23T14:13:50.000Z</time>
      </trkpt>
      <trkpt lat="42.37416" lon="19.78875">
        <ele>679.30999755859</ele>
        <time>2024-09-23T14:13:51.000Z</time>
      </trkpt>
      <trkpt lat="42.37365" lon="19.7886">
        <ele>685.55999755859</ele>
        <time>2024-09-23T14:13:54.000Z</time>
      </trkpt>
      <trkpt lat="42.37324" lon="19.78846">
        <ele>691.33001708984</ele>
        <time>2024-09-23T14:13:57.000Z</time>
      </trkpt>
      <trkpt lat="42.37301" lon="19.78838">
        <ele>693.25</ele>
        <time>2024-09-23T14:13:58.000Z</time>
      </trkpt>
      <trkpt lat="42.37294" lon="19.78835">
        <ele>693.72998046875</ele>
        <time>2024-09-23T14:13:59.000Z</time>
      </trkpt>
      <trkpt lat="42.37283" lon="19.7883">
        <ele>694.21002197266</ele>
        <time>2024-09-23T14:14:00.000Z</time>
      </trkpt>
      <trkpt lat="42.37272" lon="19.78821">
        <ele>695.16998291016</ele>
        <time>2024-09-23T14:14:01.000Z</time>
      </trkpt>
      <trkpt lat="42.37261" lon="19.7881">
        <ele>696.60998535156</ele>
        <time>2024-09-23T14:14:02.000Z</time>
      </trkpt>
      <trkpt lat="42.37254" lon="19.78803">
        <ele>697.57000732422</ele>
        <time>2024-09-23T14:14:03.000Z</time>
      </trkpt>
      <trkpt lat="42.37253" lon="19.78803">
        <ele>698.04998779297</ele>
        <time>2024-09-23T14:14:04.000Z</time>
      </trkpt>
      <trkpt lat="42.37245" lon="19.78804">
        <ele>699.02001953125</ele>
        <time>2024-09-23T14:14:05.000Z</time>
      </trkpt>
      <trkpt lat="42.37242" lon="19.78803">
        <ele>698.53002929688</ele>
        <time>2024-09-23T14:14:06.000Z</time>
      </trkpt>
      <trkpt lat="42.37236" lon="19.78801">
        <ele>698.53002929688</ele>
        <time>2024-09-23T14:14:07.000Z</time>
      </trkpt>
      <trkpt lat="42.37229" lon="19.78794">
        <ele>697.57000732422</ele>
        <time>2024-09-23T14:14:08.000Z</time>
      </trkpt>
      <trkpt lat="42.37223" lon="19.78786">
        <ele>698.04998779297</ele>
        <time>2024-09-23T14:14:09.000Z</time>
      </trkpt>
      <trkpt lat="42.37216" lon="19.78781">
        <ele>697.57000732422</ele>
        <time>2024-09-23T14:14:10.000Z</time>
      </trkpt>
      <trkpt lat="42.37208" lon="19.7878">
        <ele>697.09002685547</ele>
        <time>2024-09-23T14:14:11.000Z</time>
      </trkpt>
      <trkpt lat="42.37194" lon="19.78781">
        <ele>696.60998535156</ele>
        <time>2024-09-23T14:14:12.000Z</time>
      </trkpt>
      <trkpt lat="42.37152" lon="19.78784">
        <ele>694.21002197266</ele>
        <time>2024-09-23T14:14:16.000Z</time>
      </trkpt>
      <trkpt lat="42.3715" lon="19.78784">
        <ele>694.21002197266</ele>
        <time>2024-09-23T14:14:17.000Z</time>
      </trkpt>
      <trkpt lat="42.37133" lon="19.7878">
        <ele>688.91998291016</ele>
        <time>2024-09-23T14:14:18.000Z</time>
      </trkpt>
      <trkpt lat="42.37131" lon="19.78779">
        <ele>688.44000244141</ele>
        <time>2024-09-23T14:14:19.000Z</time>
      </trkpt>
      <trkpt lat="42.37123" lon="19.78776">
        <ele>687.47998046875</ele>
        <time>2024-09-23T14:14:20.000Z</time>
      </trkpt>
      <trkpt lat="42.37115" lon="19.78769">
        <ele>686.03997802734</ele>
        <time>2024-09-23T14:14:21.000Z</time>
      </trkpt>
      <trkpt lat="42.37089" lon="19.78746">
        <ele>682.19000244141</ele>
        <time>2024-09-23T14:14:23.000Z</time>
      </trkpt>
      <trkpt lat="42.37078" lon="19.78737">
        <ele>681.22998046875</ele>
        <time>2024-09-23T14:14:24.000Z</time>
      </trkpt>
      <trkpt lat="42.37067" lon="19.78728">
        <ele>679.78997802734</ele>
        <time>2024-09-23T14:14:25.000Z</time>
      </trkpt>
      <trkpt lat="42.3706" lon="19.78723">
        <ele>678.83001708984</ele>
        <time>2024-09-23T14:14:26.000Z</time>
      </trkpt>
      <trkpt lat="42.37044" lon="19.78714">
        <ele>676.90997314453</ele>
        <time>2024-09-23T14:14:27.000Z</time>
      </trkpt>
      <trkpt lat="42.37011" lon="19.787">
        <ele>676.41998291016</ele>
        <time>2024-09-23T14:14:29.000Z</time>
      </trkpt>
      <trkpt lat="42.37004" lon="19.78697">
        <ele>676.41998291016</ele>
        <time>2024-09-23T14:14:30.000Z</time>
      </trkpt>
      <trkpt lat="42.36976" lon="19.78679">
        <ele>675.94000244141</ele>
        <time>2024-09-23T14:14:32.000Z</time>
      </trkpt>
      <trkpt lat="42.3696" lon="19.78666">
        <ele>674.97998046875</ele>
        <time>2024-09-23T14:14:33.000Z</time>
      </trkpt>
      <trkpt lat="42.36953" lon="19.7866">
        <ele>674.02001953125</ele>
        <time>2024-09-23T14:14:34.000Z</time>
      </trkpt>
      <trkpt lat="42.36928" lon="19.78637">
        <ele>672.58001708984</ele>
        <time>2024-09-23T14:14:36.000Z</time>
      </trkpt>
      <trkpt lat="42.3692" lon="19.78631">
        <ele>672.09997558594</ele>
        <time>2024-09-23T14:14:37.000Z</time>
      </trkpt>
      <trkpt lat="42.3691" lon="19.78627">
        <ele>671.14001464844</ele>
        <time>2024-09-23T14:14:38.000Z</time>
      </trkpt>
      <trkpt lat="42.369" lon="19.78625">
        <ele>670.17999267578</ele>
        <time>2024-09-23T14:14:39.000Z</time>
      </trkpt>
      <trkpt lat="42.36889" lon="19.78626">
        <ele>669.21997070312</ele>
        <time>2024-09-23T14:14:40.000Z</time>
      </trkpt>
      <trkpt lat="42.36878" lon="19.78628">
        <ele>668.72998046875</ele>
        <time>2024-09-23T14:14:41.000Z</time>
      </trkpt>
      <trkpt lat="42.36868" lon="19.78628">
        <ele>668.25</ele>
        <time>2024-09-23T14:14:42.000Z</time>
      </trkpt>
      <trkpt lat="42.36858" lon="19.78623">
        <ele>668.25</ele>
        <time>2024-09-23T14:14:43.000Z</time>
      </trkpt>
      <trkpt lat="42.36845" lon="19.78615">
        <ele>669.21997070312</ele>
        <time>2024-09-23T14:14:44.000Z</time>
      </trkpt>
      <trkpt lat="42.36835" lon="19.7861">
        <ele>668.72998046875</ele>
        <time>2024-09-23T14:14:45.000Z</time>
      </trkpt>
      <trkpt lat="42.36827" lon="19.78608">
        <ele>668.72998046875</ele>
        <time>2024-09-23T14:14:46.000Z</time>
      </trkpt>
      <trkpt lat="42.36798" lon="19.786">
        <ele>664.40997314453</ele>
        <time>2024-09-23T14:14:48.000Z</time>
      </trkpt>
      <trkpt lat="42.36783" lon="19.78595">
        <ele>663.45001220703</ele>
        <time>2024-09-23T14:14:49.000Z</time>
      </trkpt>
      <trkpt lat="42.36771" lon="19.78589">
        <ele>662.96997070312</ele>
        <time>2024-09-23T14:14:50.000Z</time>
      </trkpt>
      <trkpt lat="42.36761" lon="19.78585">
        <ele>662.01000976562</ele>
        <time>2024-09-23T14:14:51.000Z</time>
      </trkpt>
      <trkpt lat="42.36748" lon="19.78581">
        <ele>660.08001708984</ele>
        <time>2024-09-23T14:14:52.000Z</time>
      </trkpt>
      <trkpt lat="42.36731" lon="19.78581">
        <ele>659.11999511719</ele>
        <time>2024-09-23T14:14:53.000Z</time>
      </trkpt>
      <trkpt lat="42.36661" lon="19.78592">
        <ele>656.71997070312</ele>
        <time>2024-09-23T14:14:57.000Z</time>
      </trkpt>
      <trkpt lat="42.36651" lon="19.78592">
        <ele>655.76000976562</ele>
        <time>2024-09-23T14:14:58.000Z</time>
      </trkpt>
      <trkpt lat="42.36637" lon="19.78591">
        <ele>654.79998779297</ele>
        <time>2024-09-23T14:14:59.000Z</time>
      </trkpt>
      <trkpt lat="42.36624" lon="19.78587">
        <ele>652.86999511719</ele>
        <time>2024-09-23T14:15:00.000Z</time>
      </trkpt>
      <trkpt lat="42.36581" lon="19.78575">
        <ele>646.61999511719</ele>
        <time>2024-09-23T14:15:03.000Z</time>
      </trkpt>
      <trkpt lat="42.36568" lon="19.78574">
        <ele>645.65997314453</ele>
        <time>2024-09-23T14:15:04.000Z</time>
      </trkpt>
      <trkpt lat="42.36505" lon="19.7858">
        <ele>641.82000732422</ele>
        <time>2024-09-23T14:15:07.000Z</time>
      </trkpt>
      <trkpt lat="42.36498" lon="19.7858">
        <ele>641.34002685547</ele>
        <time>2024-09-23T14:15:08.000Z</time>
      </trkpt>
      <trkpt lat="42.36451" lon="19.78574">
        <ele>637.01000976562</ele>
        <time>2024-09-23T14:15:11.000Z</time>
      </trkpt>
      <trkpt lat="42.36446" lon="19.78572">
        <ele>636.53002929688</ele>
        <time>2024-09-23T14:15:12.000Z</time>
      </trkpt>
      <trkpt lat="42.36437" lon="19.78568">
        <ele>634.60998535156</ele>
        <time>2024-09-23T14:15:13.000Z</time>
      </trkpt>
      <trkpt lat="42.36431" lon="19.7856">
        <ele>633.16998291016</ele>
        <time>2024-09-23T14:15:14.000Z</time>
      </trkpt>
      <trkpt lat="42.36422" lon="19.78546">
        <ele>630.76000976562</ele>
        <time>2024-09-23T14:15:15.000Z</time>
      </trkpt>
      <trkpt lat="42.36419" lon="19.78544">
        <ele>630.76000976562</ele>
        <time>2024-09-23T14:15:16.000Z</time>
      </trkpt>
      <trkpt lat="42.36415" lon="19.78542">
        <ele>629.32000732422</ele>
        <time>2024-09-23T14:15:17.000Z</time>
      </trkpt>
      <trkpt lat="42.36411" lon="19.78546">
        <ele>629.32000732422</ele>
        <time>2024-09-23T14:15:18.000Z</time>
      </trkpt>
      <trkpt lat="42.3641" lon="19.78552">
        <ele>628.84002685547</ele>
        <time>2024-09-23T14:15:19.000Z</time>
      </trkpt>
      <trkpt lat="42.36412" lon="19.78561">
        <ele>627.40002441406</ele>
        <time>2024-09-23T14:15:20.000Z</time>
      </trkpt>
      <trkpt lat="42.36421" lon="19.78581">
        <ele>624.51000976562</ele>
        <time>2024-09-23T14:15:21.000Z</time>
      </trkpt>
      <trkpt lat="42.36426" lon="19.7859">
        <ele>623.54998779297</ele>
        <time>2024-09-23T14:15:22.000Z</time>
      </trkpt>
      <trkpt lat="42.3643" lon="19.78598">
        <ele>622.10998535156</ele>
        <time>2024-09-23T14:15:23.000Z</time>
      </trkpt>
      <trkpt lat="42.36439" lon="19.78611">
        <ele>620.66998291016</ele>
        <time>2024-09-23T14:15:24.000Z</time>
      </trkpt>
      <trkpt lat="42.36456" lon="19.78628">
        <ele>617.78002929688</ele>
        <time>2024-09-23T14:15:25.000Z</time>
      </trkpt>
      <trkpt lat="42.36459" lon="19.78632">
        <ele>617.29998779297</ele>
        <time>2024-09-23T14:15:26.000Z</time>
      </trkpt>
      <trkpt lat="42.3647" lon="19.78641">
        <ele>615.85998535156</ele>
        <time>2024-09-23T14:15:27.000Z</time>
      </trkpt>
      <trkpt lat="42.36479" lon="19.78648">
        <ele>614.41998291016</ele>
        <time>2024-09-23T14:15:28.000Z</time>
      </trkpt>
      <trkpt lat="42.36496" lon="19.78659">
        <ele>611.53997802734</ele>
        <time>2024-09-23T14:15:29.000Z</time>
      </trkpt>
      <trkpt lat="42.36546" lon="19.78687">
        <ele>607.21002197266</ele>
        <time>2024-09-23T14:15:33.000Z</time>
      </trkpt>
      <trkpt lat="42.36561" lon="19.78697">
        <ele>605.28997802734</ele>
        <time>2024-09-23T14:15:34.000Z</time>
      </trkpt>
      <trkpt lat="42.36596" lon="19.78725">
        <ele>604.33001708984</ele>
        <time>2024-09-23T14:15:37.000Z</time>
      </trkpt>
      <trkpt lat="42.36622" lon="19.78741">
        <ele>601.91998291016</ele>
        <time>2024-09-23T14:15:40.000Z</time>
      </trkpt>
      <trkpt lat="42.36658" lon="19.78763">
        <ele>598.55999755859</ele>
        <time>2024-09-23T14:15:45.000Z</time>
      </trkpt>
      <trkpt lat="42.3668" lon="19.78773">
        <ele>596.64001464844</ele>
        <time>2024-09-23T14:15:48.000Z</time>
      </trkpt>
      <trkpt lat="42.36691" lon="19.78776">
        <ele>595.19000244141</ele>
        <time>2024-09-23T14:15:49.000Z</time>
      </trkpt>
      <trkpt lat="42.36694" lon="19.78777">
        <ele>595.19000244141</ele>
        <time>2024-09-23T14:15:50.000Z</time>
      </trkpt>
      <trkpt lat="42.36699" lon="19.78782">
        <ele>594.71002197266</ele>
        <time>2024-09-23T14:15:51.000Z</time>
      </trkpt>
      <trkpt lat="42.367" lon="19.78789">
        <ele>594.71002197266</ele>
        <time>2024-09-23T14:15:52.000Z</time>
      </trkpt>
      <trkpt lat="42.36697" lon="19.78794">
        <ele>594.71002197266</ele>
        <time>2024-09-23T14:15:53.000Z</time>
      </trkpt>
      <trkpt lat="42.3669" lon="19.78798">
        <ele>593.75</ele>
        <time>2024-09-23T14:15:54.000Z</time>
      </trkpt>
      <trkpt lat="42.36681" lon="19.78801">
        <ele>592.78997802734</ele>
        <time>2024-09-23T14:15:55.000Z</time>
      </trkpt>
      <trkpt lat="42.3667" lon="19.788">
        <ele>590.39001464844</ele>
        <time>2024-09-23T14:15:56.000Z</time>
      </trkpt>
      <trkpt lat="42.36656" lon="19.78795">
        <ele>588.46002197266</ele>
        <time>2024-09-23T14:15:57.000Z</time>
      </trkpt>
      <trkpt lat="42.3664" lon="19.78791">
        <ele>587.02001953125</ele>
        <time>2024-09-23T14:15:58.000Z</time>
      </trkpt>
      <trkpt lat="42.36623" lon="19.78788">
        <ele>585.58001708984</ele>
        <time>2024-09-23T14:15:59.000Z</time>
      </trkpt>
      <trkpt lat="42.36608" lon="19.78784">
        <ele>584.14001464844</ele>
        <time>2024-09-23T14:16:00.000Z</time>
      </trkpt>
      <trkpt lat="42.36599" lon="19.7878">
        <ele>583.17999267578</ele>
        <time>2024-09-23T14:16:01.000Z</time>
      </trkpt>
      <trkpt lat="42.36554" lon="19.78762">
        <ele>579.80999755859</ele>
        <time>2024-09-23T14:16:03.000Z</time>
      </trkpt>
      <trkpt lat="42.36545" lon="19.78758">
        <ele>578.36999511719</ele>
        <time>2024-09-23T14:16:04.000Z</time>
      </trkpt>
      <trkpt lat="42.36485" lon="19.78734">
        <ele>577.40997314453</ele>
        <time>2024-09-23T14:16:08.000Z</time>
      </trkpt>
      <trkpt lat="42.36478" lon="19.78731">
        <ele>577.40997314453</ele>
        <time>2024-09-23T14:16:09.000Z</time>
      </trkpt>
      <trkpt lat="42.36473" lon="19.78728">
        <ele>576.92999267578</ele>
        <time>2024-09-23T14:16:10.000Z</time>
      </trkpt>
      <trkpt lat="42.36463" lon="19.78722">
        <ele>576.45001220703</ele>
        <time>2024-09-23T14:16:11.000Z</time>
      </trkpt>
      <trkpt lat="42.36451" lon="19.78713">
        <ele>576.45001220703</ele>
        <time>2024-09-23T14:16:12.000Z</time>
      </trkpt>
      <trkpt lat="42.36417" lon="19.78688">
        <ele>576.92999267578</ele>
        <time>2024-09-23T14:16:14.000Z</time>
      </trkpt>
      <trkpt lat="42.36414" lon="19.78686">
        <ele>576.45001220703</ele>
        <time>2024-09-23T14:16:15.000Z</time>
      </trkpt>
      <trkpt lat="42.36403" lon="19.7868">
        <ele>575.48999023438</ele>
        <time>2024-09-23T14:16:16.000Z</time>
      </trkpt>
      <trkpt lat="42.36393" lon="19.78676">
        <ele>575.01000976562</ele>
        <time>2024-09-23T14:16:17.000Z</time>
      </trkpt>
      <trkpt lat="42.36383" lon="19.78674">
        <ele>575.01000976562</ele>
        <time>2024-09-23T14:16:18.000Z</time>
      </trkpt>
      <trkpt lat="42.36365" lon="19.78672">
        <ele>574.53002929688</ele>
        <time>2024-09-23T14:16:19.000Z</time>
      </trkpt>
      <trkpt lat="42.3636" lon="19.78671">
        <ele>575.01000976562</ele>
        <time>2024-09-23T14:16:20.000Z</time>
      </trkpt>
      <trkpt lat="42.36354" lon="19.7867">
        <ele>575.01000976562</ele>
        <time>2024-09-23T14:16:21.000Z</time>
      </trkpt>
      <trkpt lat="42.36341" lon="19.78665">
        <ele>574.03997802734</ele>
        <time>2024-09-23T14:16:22.000Z</time>
      </trkpt>
      <trkpt lat="42.36324" lon="19.78655">
        <ele>574.03997802734</ele>
        <time>2024-09-23T14:16:23.000Z</time>
      </trkpt>
      <trkpt lat="42.36321" lon="19.78654">
        <ele>573.55999755859</ele>
        <time>2024-09-23T14:16:24.000Z</time>
      </trkpt>
      <trkpt lat="42.36309" lon="19.78648">
        <ele>573.08001708984</ele>
        <time>2024-09-23T14:16:25.000Z</time>
      </trkpt>
      <trkpt lat="42.36295" lon="19.78644">
        <ele>571.64001464844</ele>
        <time>2024-09-23T14:16:26.000Z</time>
      </trkpt>
      <trkpt lat="42.3626" lon="19.78635">
        <ele>566.34997558594</ele>
        <time>2024-09-23T14:16:28.000Z</time>
      </trkpt>
      <trkpt lat="42.36252" lon="19.78631">
        <ele>564.90997314453</ele>
        <time>2024-09-23T14:16:29.000Z</time>
      </trkpt>
      <trkpt lat="42.36243" lon="19.78626">
        <ele>563.95001220703</ele>
        <time>2024-09-23T14:16:30.000Z</time>
      </trkpt>
      <trkpt lat="42.36234" lon="19.78616">
        <ele>562.03002929688</ele>
        <time>2024-09-23T14:16:31.000Z</time>
      </trkpt>
      <trkpt lat="42.36224" lon="19.78603">
        <ele>560.10998535156</ele>
        <time>2024-09-23T14:16:32.000Z</time>
      </trkpt>
      <trkpt lat="42.3621" lon="19.78579">
        <ele>557.21997070312</ele>
        <time>2024-09-23T14:16:33.000Z</time>
      </trkpt>
      <trkpt lat="42.36203" lon="19.78569">
        <ele>556.26000976562</ele>
        <time>2024-09-23T14:16:34.000Z</time>
      </trkpt>
      <trkpt lat="42.36186" lon="19.78544">
        <ele>554.34002685547</ele>
        <time>2024-09-23T14:16:36.000Z</time>
      </trkpt>
      <trkpt lat="42.36176" lon="19.78529">
        <ele>552.90002441406</ele>
        <time>2024-09-23T14:16:37.000Z</time>
      </trkpt>
      <trkpt lat="42.36138" lon="19.78451">
        <ele>545.20001220703</ele>
        <time>2024-09-23T14:16:41.000Z</time>
      </trkpt>
      <trkpt lat="42.36122" lon="19.78421">
        <ele>543.28002929688</ele>
        <time>2024-09-23T14:16:42.000Z</time>
      </trkpt>
      <trkpt lat="42.36117" lon="19.78414">
        <ele>543.28002929688</ele>
        <time>2024-09-23T14:16:43.000Z</time>
      </trkpt>
      <trkpt lat="42.36106" lon="19.78399">
        <ele>542.79998779297</ele>
        <time>2024-09-23T14:16:44.000Z</time>
      </trkpt>
      <trkpt lat="42.36093" lon="19.78387">
        <ele>542.79998779297</ele>
        <time>2024-09-23T14:16:45.000Z</time>
      </trkpt>
      <trkpt lat="42.36075" lon="19.78374">
        <ele>542.32000732422</ele>
        <time>2024-09-23T14:16:46.000Z</time>
      </trkpt>
      <trkpt lat="42.36054" lon="19.78363">
        <ele>539.91998291016</ele>
        <time>2024-09-23T14:16:47.000Z</time>
      </trkpt>
      <trkpt lat="42.36003" lon="19.78337">
        <ele>535.10998535156</ele>
        <time>2024-09-23T14:16:50.000Z</time>
      </trkpt>
      <trkpt lat="42.35996" lon="19.78332">
        <ele>534.63000488281</ele>
        <time>2024-09-23T14:16:51.000Z</time>
      </trkpt>
      <trkpt lat="42.35979" lon="19.78321">
        <ele>532.71002197266</ele>
        <time>2024-09-23T14:16:52.000Z</time>
      </trkpt>
      <trkpt lat="42.35964" lon="19.78312">
        <ele>531.27001953125</ele>
        <time>2024-09-23T14:16:53.000Z</time>
      </trkpt>
      <trkpt lat="42.35945" lon="19.78302">
        <ele>530.29998779297</ele>
        <time>2024-09-23T14:16:54.000Z</time>
      </trkpt>
      <trkpt lat="42.35939" lon="19.78297">
        <ele>530.29998779297</ele>
        <time>2024-09-23T14:16:55.000Z</time>
      </trkpt>
      <trkpt lat="42.35924" lon="19.78286">
        <ele>528.85998535156</ele>
        <time>2024-09-23T14:16:56.000Z</time>
      </trkpt>
      <trkpt lat="42.35916" lon="19.78278">
        <ele>527.90002441406</ele>
        <time>2024-09-23T14:16:57.000Z</time>
      </trkpt>
      <trkpt lat="42.35907" lon="19.78264">
        <ele>525.97998046875</ele>
        <time>2024-09-23T14:16:58.000Z</time>
      </trkpt>
      <trkpt lat="42.35891" lon="19.78231">
        <ele>523.58001708984</ele>
        <time>2024-09-23T14:17:00.000Z</time>
      </trkpt>
      <trkpt lat="42.35881" lon="19.78213">
        <ele>522.60998535156</ele>
        <time>2024-09-23T14:17:01.000Z</time>
      </trkpt>
      <trkpt lat="42.35869" lon="19.78193">
        <ele>521.16998291016</ele>
        <time>2024-09-23T14:17:02.000Z</time>
      </trkpt>
      <trkpt lat="42.35859" lon="19.7818">
        <ele>520.69000244141</ele>
        <time>2024-09-23T14:17:03.000Z</time>
      </trkpt>
      <trkpt lat="42.35848" lon="19.7817">
        <ele>519.72998046875</ele>
        <time>2024-09-23T14:17:04.000Z</time>
      </trkpt>
      <trkpt lat="42.35839" lon="19.78162">
        <ele>518.77001953125</ele>
        <time>2024-09-23T14:17:05.000Z</time>
      </trkpt>
      <trkpt lat="42.35831" lon="19.78154">
        <ele>518.28997802734</ele>
        <time>2024-09-23T14:17:06.000Z</time>
      </trkpt>
      <trkpt lat="42.35825" lon="19.78144">
        <ele>516.84997558594</ele>
        <time>2024-09-23T14:17:07.000Z</time>
      </trkpt>
      <trkpt lat="42.35818" lon="19.78132">
        <ele>516.36999511719</ele>
        <time>2024-09-23T14:17:08.000Z</time>
      </trkpt>
      <trkpt lat="42.35814" lon="19.78117">
        <ele>515.88000488281</ele>
        <time>2024-09-23T14:17:09.000Z</time>
      </trkpt>
      <trkpt lat="42.35812" lon="19.78099">
        <ele>515.88000488281</ele>
        <time>2024-09-23T14:17:10.000Z</time>
      </trkpt>
      <trkpt lat="42.3581" lon="19.78083">
        <ele>515.40002441406</ele>
        <time>2024-09-23T14:17:11.000Z</time>
      </trkpt>
      <trkpt lat="42.35805" lon="19.78059">
        <ele>514.91998291016</ele>
        <time>2024-09-23T14:17:12.000Z</time>
      </trkpt>
      <trkpt lat="42.35797" lon="19.78033">
        <ele>514.44000244141</ele>
        <time>2024-09-23T14:17:13.000Z</time>
      </trkpt>
      <trkpt lat="42.35774" lon="19.77974">
        <ele>513</ele>
        <time>2024-09-23T14:17:16.000Z</time>
      </trkpt>
      <trkpt lat="42.35771" lon="19.77968">
        <ele>513</ele>
        <time>2024-09-23T14:17:17.000Z</time>
      </trkpt>
      <trkpt lat="42.35764" lon="19.77953">
        <ele>513</ele>
        <time>2024-09-23T14:17:18.000Z</time>
      </trkpt>
      <trkpt lat="42.35748" lon="19.77933">
        <ele>513</ele>
        <time>2024-09-23T14:17:19.000Z</time>
      </trkpt>
      <trkpt lat="42.35744" lon="19.77927">
        <ele>512.52001953125</ele>
        <time>2024-09-23T14:17:20.000Z</time>
      </trkpt>
      <trkpt lat="42.35736" lon="19.77912">
        <ele>511.55999755859</ele>
        <time>2024-09-23T14:17:21.000Z</time>
      </trkpt>
      <trkpt lat="42.35731" lon="19.77901">
        <ele>511.07998657227</ele>
        <time>2024-09-23T14:17:22.000Z</time>
      </trkpt>
      <trkpt lat="42.35724" lon="19.77886">
        <ele>510.11999511719</ele>
        <time>2024-09-23T14:17:23.000Z</time>
      </trkpt>
      <trkpt lat="42.35703" lon="19.77879">
        <ele>513.96002197266</ele>
        <time>2024-09-23T14:17:49.000Z</time>
      </trkpt>
      <trkpt lat="42.357" lon="19.77881">
        <ele>513.96002197266</ele>
        <time>2024-09-23T14:17:50.000Z</time>
      </trkpt>
      <trkpt lat="42.35632" lon="19.77901">
        <ele>512.03997802734</ele>
        <time>2024-09-23T14:17:57.000Z</time>
      </trkpt>
      <trkpt lat="42.35588" lon="19.77921">
        <ele>511.55999755859</ele>
        <time>2024-09-23T14:18:02.000Z</time>
      </trkpt>
      <trkpt lat="42.3557" lon="19.77929">
        <ele>511.55999755859</ele>
        <time>2024-09-23T14:18:04.000Z</time>
      </trkpt>
      <trkpt lat="42.3556" lon="19.77933">
        <ele>512.52001953125</ele>
        <time>2024-09-23T14:18:05.000Z</time>
      </trkpt>
      <trkpt lat="42.35553" lon="19.77935">
        <ele>512.52001953125</ele>
        <time>2024-09-23T14:18:06.000Z</time>
      </trkpt>
      <trkpt lat="42.35546" lon="19.77937">
        <ele>512.52001953125</ele>
        <time>2024-09-23T14:18:07.000Z</time>
      </trkpt>
      <trkpt lat="42.35537" lon="19.77937">
        <ele>512.03997802734</ele>
        <time>2024-09-23T14:18:08.000Z</time>
      </trkpt>
      <trkpt lat="42.35529" lon="19.77935">
        <ele>512.03997802734</ele>
        <time>2024-09-23T14:18:09.000Z</time>
      </trkpt>
      <trkpt lat="42.35522" lon="19.77933">
        <ele>511.55999755859</ele>
        <time>2024-09-23T14:18:10.000Z</time>
      </trkpt>
      <trkpt lat="42.35514" lon="19.77927">
        <ele>511.55999755859</ele>
        <time>2024-09-23T14:18:11.000Z</time>
      </trkpt>
      <trkpt lat="42.35508" lon="19.77921">
        <ele>511.07998657227</ele>
        <time>2024-09-23T14:18:12.000Z</time>
      </trkpt>
      <trkpt lat="42.35502" lon="19.77915">
        <ele>510.60000610352</ele>
        <time>2024-09-23T14:18:13.000Z</time>
      </trkpt>
      <trkpt lat="42.35489" lon="19.77902">
        <ele>510.11999511719</ele>
        <time>2024-09-23T14:18:14.000Z</time>
      </trkpt>
      <trkpt lat="42.35487" lon="19.77899">
        <ele>510.11999511719</ele>
        <time>2024-09-23T14:18:15.000Z</time>
      </trkpt>
      <trkpt lat="42.35478" lon="19.77892">
        <ele>509.64001464844</ele>
        <time>2024-09-23T14:18:16.000Z</time>
      </trkpt>
      <trkpt lat="42.35466" lon="19.77884">
        <ele>509.16000366211</ele>
        <time>2024-09-23T14:18:17.000Z</time>
      </trkpt>
      <trkpt lat="42.35455" lon="19.77878">
        <ele>508.67001342773</ele>
        <time>2024-09-23T14:18:18.000Z</time>
      </trkpt>
      <trkpt lat="42.35446" lon="19.77874">
        <ele>508.19000244141</ele>
        <time>2024-09-23T14:18:19.000Z</time>
      </trkpt>
      <trkpt lat="42.35434" lon="19.77869">
        <ele>507.70999145508</ele>
        <time>2024-09-23T14:18:20.000Z</time>
      </trkpt>
      <trkpt lat="42.35419" lon="19.77865">
        <ele>507.23001098633</ele>
        <time>2024-09-23T14:18:21.000Z</time>
      </trkpt>
      <trkpt lat="42.35409" lon="19.77861">
        <ele>507.23001098633</ele>
        <time>2024-09-23T14:18:22.000Z</time>
      </trkpt>
      <trkpt lat="42.35404" lon="19.77859">
        <ele>507.70999145508</ele>
        <time>2024-09-23T14:18:23.000Z</time>
      </trkpt>
      <trkpt lat="42.35396" lon="19.77854">
        <ele>507.70999145508</ele>
        <time>2024-09-23T14:18:24.000Z</time>
      </trkpt>
      <trkpt lat="42.35385" lon="19.77847">
        <ele>507.70999145508</ele>
        <time>2024-09-23T14:18:25.000Z</time>
      </trkpt>
      <trkpt lat="42.35376" lon="19.7784">
        <ele>507.70999145508</ele>
        <time>2024-09-23T14:18:26.000Z</time>
      </trkpt>
      <trkpt lat="42.35371" lon="19.77836">
        <ele>507.70999145508</ele>
        <time>2024-09-23T14:18:27.000Z</time>
      </trkpt>
      <trkpt lat="42.35364" lon="19.77828">
        <ele>507.70999145508</ele>
        <time>2024-09-23T14:18:28.000Z</time>
      </trkpt>
      <trkpt lat="42.35358" lon="19.7782">
        <ele>507.23001098633</ele>
        <time>2024-09-23T14:18:29.000Z</time>
      </trkpt>
      <trkpt lat="42.35353" lon="19.7781">
        <ele>506.75</ele>
        <time>2024-09-23T14:18:30.000Z</time>
      </trkpt>
      <trkpt lat="42.35343" lon="19.77787">
        <ele>505.79000854492</ele>
        <time>2024-09-23T14:18:32.000Z</time>
      </trkpt>
      <trkpt lat="42.35319" lon="19.77732">
        <ele>502.42999267578</ele>
        <time>2024-09-23T14:18:37.000Z</time>
      </trkpt>
      <trkpt lat="42.35313" lon="19.77721">
        <ele>501.95001220703</ele>
        <time>2024-09-23T14:18:38.000Z</time>
      </trkpt>
      <trkpt lat="42.35309" lon="19.77712">
        <ele>501.45999145508</ele>
        <time>2024-09-23T14:18:39.000Z</time>
      </trkpt>
      <trkpt lat="42.35299" lon="19.77697">
        <ele>500.98001098633</ele>
        <time>2024-09-23T14:18:40.000Z</time>
      </trkpt>
      <trkpt lat="42.35294" lon="19.7769">
        <ele>500.98001098633</ele>
        <time>2024-09-23T14:18:41.000Z</time>
      </trkpt>
      <trkpt lat="42.35289" lon="19.77684">
        <ele>500.98001098633</ele>
        <time>2024-09-23T14:18:42.000Z</time>
      </trkpt>
      <trkpt lat="42.35281" lon="19.77676">
        <ele>500.5</ele>
        <time>2024-09-23T14:18:43.000Z</time>
      </trkpt>
      <trkpt lat="42.35243" lon="19.77649">
        <ele>499.05999755859</ele>
        <time>2024-09-23T14:18:47.000Z</time>
      </trkpt>
      <trkpt lat="42.35231" lon="19.77641">
        <ele>498.57998657227</ele>
        <time>2024-09-23T14:18:48.000Z</time>
      </trkpt>
      <trkpt lat="42.3521" lon="19.77625">
        <ele>499.05999755859</ele>
        <time>2024-09-23T14:18:50.000Z</time>
      </trkpt>
      <trkpt lat="42.35182" lon="19.77599">
        <ele>500.98001098633</ele>
        <time>2024-09-23T14:18:52.000Z</time>
      </trkpt>
      <trkpt lat="42.35174" lon="19.7759">
        <ele>501.45999145508</ele>
        <time>2024-09-23T14:18:53.000Z</time>
      </trkpt>
      <trkpt lat="42.35168" lon="19.77582">
        <ele>502.42999267578</ele>
        <time>2024-09-23T14:18:54.000Z</time>
      </trkpt>
      <trkpt lat="42.35159" lon="19.77568">
        <ele>502.91000366211</ele>
        <time>2024-09-23T14:18:55.000Z</time>
      </trkpt>
      <trkpt lat="42.35149" lon="19.7755">
        <ele>504.35000610352</ele>
        <time>2024-09-23T14:18:56.000Z</time>
      </trkpt>
      <trkpt lat="42.35141" lon="19.77534">
        <ele>505.79000854492</ele>
        <time>2024-09-23T14:18:57.000Z</time>
      </trkpt>
      <trkpt lat="42.35134" lon="19.77519">
        <ele>507.23001098633</ele>
        <time>2024-09-23T14:18:58.000Z</time>
      </trkpt>
      <trkpt lat="42.35124" lon="19.775">
        <ele>508.19000244141</ele>
        <time>2024-09-23T14:18:59.000Z</time>
      </trkpt>
      <trkpt lat="42.35099" lon="19.77454">
        <ele>509.16000366211</ele>
        <time>2024-09-23T14:19:02.000Z</time>
      </trkpt>
      <trkpt lat="42.35091" lon="19.77442">
        <ele>509.16000366211</ele>
        <time>2024-09-23T14:19:03.000Z</time>
      </trkpt>
      <trkpt lat="42.35082" lon="19.77433">
        <ele>509.64001464844</ele>
        <time>2024-09-23T14:19:04.000Z</time>
      </trkpt>
      <trkpt lat="42.35071" lon="19.77425">
        <ele>509.64001464844</ele>
        <time>2024-09-23T14:19:05.000Z</time>
      </trkpt>
      <trkpt lat="42.35055" lon="19.77414">
        <ele>510.60000610352</ele>
        <time>2024-09-23T14:19:06.000Z</time>
      </trkpt>
      <trkpt lat="42.35045" lon="19.77407">
        <ele>510.60000610352</ele>
        <time>2024-09-23T14:19:07.000Z</time>
      </trkpt>
      <trkpt lat="42.35029" lon="19.77394">
        <ele>511.07998657227</ele>
        <time>2024-09-23T14:19:08.000Z</time>
      </trkpt>
      <trkpt lat="42.3498" lon="19.77361">
        <ele>509.16000366211</ele>
        <time>2024-09-23T14:19:12.000Z</time>
      </trkpt>
      <trkpt lat="42.34976" lon="19.77358">
        <ele>509.16000366211</ele>
        <time>2024-09-23T14:19:13.000Z</time>
      </trkpt>
      <trkpt lat="42.34965" lon="19.77353">
        <ele>509.16000366211</ele>
        <time>2024-09-23T14:19:14.000Z</time>
      </trkpt>
      <trkpt lat="42.34956" lon="19.77352">
        <ele>509.16000366211</ele>
        <time>2024-09-23T14:19:15.000Z</time>
      </trkpt>
      <trkpt lat="42.34942" lon="19.77358">
        <ele>509.16000366211</ele>
        <time>2024-09-23T14:19:16.000Z</time>
      </trkpt>
      <trkpt lat="42.34941" lon="19.77358">
        <ele>509.16000366211</ele>
        <time>2024-09-23T14:19:17.000Z</time>
      </trkpt>
      <trkpt lat="42.34932" lon="19.77359">
        <ele>509.16000366211</ele>
        <time>2024-09-23T14:19:18.000Z</time>
      </trkpt>
      <trkpt lat="42.3492" lon="19.77356">
        <ele>509.16000366211</ele>
        <time>2024-09-23T14:19:19.000Z</time>
      </trkpt>
      <trkpt lat="42.34868" lon="19.77345">
        <ele>507.23001098633</ele>
        <time>2024-09-23T14:19:24.000Z</time>
      </trkpt>
      <trkpt lat="42.34844" lon="19.77345">
        <ele>505.30999755859</ele>
        <time>2024-09-23T14:19:27.000Z</time>
      </trkpt>
      <trkpt lat="42.34838" lon="19.77344">
        <ele>504.82998657227</ele>
        <time>2024-09-23T14:19:28.000Z</time>
      </trkpt>
      <trkpt lat="42.34829" lon="19.77342">
        <ele>504.35000610352</ele>
        <time>2024-09-23T14:19:29.000Z</time>
      </trkpt>
      <trkpt lat="42.34821" lon="19.77338">
        <ele>503.86999511719</ele>
        <time>2024-09-23T14:19:30.000Z</time>
      </trkpt>
      <trkpt lat="42.34763" lon="19.77304">
        <ele>501.95001220703</ele>
        <time>2024-09-23T14:19:36.000Z</time>
      </trkpt>
      <trkpt lat="42.34756" lon="19.77299">
        <ele>501.45999145508</ele>
        <time>2024-09-23T14:19:37.000Z</time>
      </trkpt>
      <trkpt lat="42.34749" lon="19.77292">
        <ele>500.98001098633</ele>
        <time>2024-09-23T14:19:38.000Z</time>
      </trkpt>
      <trkpt lat="42.34741" lon="19.77285">
        <ele>500.5</ele>
        <time>2024-09-23T14:19:39.000Z</time>
      </trkpt>
      <trkpt lat="42.34739" lon="19.77283">
        <ele>500.01998901367</ele>
        <time>2024-09-23T14:19:40.000Z</time>
      </trkpt>
      <trkpt lat="42.3473" lon="19.77278">
        <ele>499.05999755859</ele>
        <time>2024-09-23T14:19:41.000Z</time>
      </trkpt>
      <trkpt lat="42.34722" lon="19.77274">
        <ele>498.10000610352</ele>
        <time>2024-09-23T14:19:42.000Z</time>
      </trkpt>
      <trkpt lat="42.34713" lon="19.77271">
        <ele>497.14001464844</ele>
        <time>2024-09-23T14:19:43.000Z</time>
      </trkpt>
      <trkpt lat="42.34703" lon="19.77269">
        <ele>496.17999267578</ele>
        <time>2024-09-23T14:19:44.000Z</time>
      </trkpt>
      <trkpt lat="42.34692" lon="19.77267">
        <ele>494.73999023438</ele>
        <time>2024-09-23T14:19:45.000Z</time>
      </trkpt>
      <trkpt lat="42.34683" lon="19.77267">
        <ele>493.76998901367</ele>
        <time>2024-09-23T14:19:46.000Z</time>
      </trkpt>
      <trkpt lat="42.34673" lon="19.77269">
        <ele>492.80999755859</ele>
        <time>2024-09-23T14:19:47.000Z</time>
      </trkpt>
      <trkpt lat="42.34597" lon="19.77276">
        <ele>487.04998779297</ele>
        <time>2024-09-23T14:19:54.000Z</time>
      </trkpt>
      <trkpt lat="42.34545" lon="19.77271">
        <ele>486.07998657227</ele>
        <time>2024-09-23T14:19:59.000Z</time>
      </trkpt>
      <trkpt lat="42.34532" lon="19.77268">
        <ele>485.60000610352</ele>
        <time>2024-09-23T14:20:00.000Z</time>
      </trkpt>
      <trkpt lat="42.34522" lon="19.77265">
        <ele>485.60000610352</ele>
        <time>2024-09-23T14:20:01.000Z</time>
      </trkpt>
      <trkpt lat="42.34511" lon="19.77261">
        <ele>485.11999511719</ele>
        <time>2024-09-23T14:20:02.000Z</time>
      </trkpt>
      <trkpt lat="42.34502" lon="19.77256">
        <ele>484.64001464844</ele>
        <time>2024-09-23T14:20:03.000Z</time>
      </trkpt>
      <trkpt lat="42.34492" lon="19.7725">
        <ele>484.64001464844</ele>
        <time>2024-09-23T14:20:04.000Z</time>
      </trkpt>
      <trkpt lat="42.34481" lon="19.7724">
        <ele>484.16000366211</ele>
        <time>2024-09-23T14:20:05.000Z</time>
      </trkpt>
      <trkpt lat="42.34467" lon="19.77227">
        <ele>483.67999267578</ele>
        <time>2024-09-23T14:20:07.000Z</time>
      </trkpt>
      <trkpt lat="42.34456" lon="19.77218">
        <ele>484.16000366211</ele>
        <time>2024-09-23T14:20:08.000Z</time>
      </trkpt>
      <trkpt lat="42.34452" lon="19.77215">
        <ele>484.16000366211</ele>
        <time>2024-09-23T14:20:09.000Z</time>
      </trkpt>
      <trkpt lat="42.34446" lon="19.77212">
        <ele>484.16000366211</ele>
        <time>2024-09-23T14:20:10.000Z</time>
      </trkpt>
      <trkpt lat="42.34439" lon="19.77209">
        <ele>484.16000366211</ele>
        <time>2024-09-23T14:20:17.000Z</time>
      </trkpt>
      <trkpt lat="42.34428" lon="19.77208">
        <ele>485.11999511719</ele>
        <time>2024-09-23T14:20:24.000Z</time>
      </trkpt>
      <trkpt lat="42.34426" lon="19.77208">
        <ele>485.11999511719</ele>
        <time>2024-09-23T14:20:25.000Z</time>
      </trkpt>
      <trkpt lat="42.34422" lon="19.77208">
        <ele>485.11999511719</ele>
        <time>2024-09-23T14:20:26.000Z</time>
      </trkpt>
      <trkpt lat="42.34416" lon="19.77207">
        <ele>485.11999511719</ele>
        <time>2024-09-23T14:20:27.000Z</time>
      </trkpt>
      <trkpt lat="42.34411" lon="19.77206">
        <ele>485.11999511719</ele>
        <time>2024-09-23T14:20:28.000Z</time>
      </trkpt>
      <trkpt lat="42.34406" lon="19.77204">
        <ele>485.60000610352</ele>
        <time>2024-09-23T14:20:29.000Z</time>
      </trkpt>
      <trkpt lat="42.344" lon="19.77203">
        <ele>485.60000610352</ele>
        <time>2024-09-23T14:20:30.000Z</time>
      </trkpt>
      <trkpt lat="42.34395" lon="19.77202">
        <ele>485.60000610352</ele>
        <time>2024-09-23T14:20:31.000Z</time>
      </trkpt>
      <trkpt lat="42.3439" lon="19.77202">
        <ele>485.60000610352</ele>
        <time>2024-09-23T14:20:32.000Z</time>
      </trkpt>
      <trkpt lat="42.34386" lon="19.77201">
        <ele>485.60000610352</ele>
        <time>2024-09-23T14:20:33.000Z</time>
      </trkpt>
      <trkpt lat="42.34371" lon="19.77196">
        <ele>485.11999511719</ele>
        <time>2024-09-23T14:20:35.000Z</time>
      </trkpt>
      <trkpt lat="42.34366" lon="19.77194">
        <ele>485.60000610352</ele>
        <time>2024-09-23T14:20:36.000Z</time>
      </trkpt>
      <trkpt lat="42.34361" lon="19.77192">
        <ele>485.60000610352</ele>
        <time>2024-09-23T14:20:37.000Z</time>
      </trkpt>
      <trkpt lat="42.34354" lon="19.77189">
        <ele>486.07998657227</ele>
        <time>2024-09-23T14:20:38.000Z</time>
      </trkpt>
      <trkpt lat="42.34349" lon="19.77188">
        <ele>486.55999755859</ele>
        <time>2024-09-23T14:20:39.000Z</time>
      </trkpt>
      <trkpt lat="42.34343" lon="19.77186">
        <ele>487.04998779297</ele>
        <time>2024-09-23T14:20:40.000Z</time>
      </trkpt>
      <trkpt lat="42.34337" lon="19.77184">
        <ele>487.5299987793</ele>
        <time>2024-09-23T14:20:41.000Z</time>
      </trkpt>
      <trkpt lat="42.34323" lon="19.77181">
        <ele>488.48999023438</ele>
        <time>2024-09-23T14:20:43.000Z</time>
      </trkpt>
      <trkpt lat="42.34321" lon="19.77181">
        <ele>488.48999023438</ele>
        <time>2024-09-23T14:20:44.000Z</time>
      </trkpt>
      <trkpt lat="42.34317" lon="19.77181">
        <ele>488.48999023438</ele>
        <time>2024-09-23T14:20:45.000Z</time>
      </trkpt>
      <trkpt lat="42.3431" lon="19.77181">
        <ele>488.48999023438</ele>
        <time>2024-09-23T14:20:46.000Z</time>
      </trkpt>
      <trkpt lat="42.34305" lon="19.77183">
        <ele>488.9700012207</ele>
        <time>2024-09-23T14:20:47.000Z</time>
      </trkpt>
      <trkpt lat="42.34299" lon="19.77186">
        <ele>488.9700012207</ele>
        <time>2024-09-23T14:20:48.000Z</time>
      </trkpt>
      <trkpt lat="42.34294" lon="19.77188">
        <ele>489.45001220703</ele>
        <time>2024-09-23T14:20:49.000Z</time>
      </trkpt>
      <trkpt lat="42.34288" lon="19.77192">
        <ele>489.45001220703</ele>
        <time>2024-09-23T14:20:50.000Z</time>
      </trkpt>
      <trkpt lat="42.34274" lon="19.77203">
        <ele>488.9700012207</ele>
        <time>2024-09-23T14:20:52.000Z</time>
      </trkpt>
      <trkpt lat="42.34268" lon="19.77206">
        <ele>488.9700012207</ele>
        <time>2024-09-23T14:20:53.000Z</time>
      </trkpt>
      <trkpt lat="42.34261" lon="19.77207">
        <ele>488.48999023438</ele>
        <time>2024-09-23T14:20:54.000Z</time>
      </trkpt>
      <trkpt lat="42.34254" lon="19.77207">
        <ele>488.01000976562</ele>
        <time>2024-09-23T14:20:55.000Z</time>
      </trkpt>
      <trkpt lat="42.34247" lon="19.77206">
        <ele>488.01000976562</ele>
        <time>2024-09-23T14:20:56.000Z</time>
      </trkpt>
      <trkpt lat="42.34239" lon="19.77204">
        <ele>488.01000976562</ele>
        <time>2024-09-23T14:20:57.000Z</time>
      </trkpt>
      <trkpt lat="42.34225" lon="19.77197">
        <ele>487.04998779297</ele>
        <time>2024-09-23T14:20:58.000Z</time>
      </trkpt>
      <trkpt lat="42.34222" lon="19.77196">
        <ele>487.04998779297</ele>
        <time>2024-09-23T14:20:59.000Z</time>
      </trkpt>
      <trkpt lat="42.34215" lon="19.77192">
        <ele>487.04998779297</ele>
        <time>2024-09-23T14:21:00.000Z</time>
      </trkpt>
      <trkpt lat="42.34204" lon="19.77184">
        <ele>486.55999755859</ele>
        <time>2024-09-23T14:21:01.000Z</time>
      </trkpt>
      <trkpt lat="42.342" lon="19.77182">
        <ele>486.55999755859</ele>
        <time>2024-09-23T14:21:02.000Z</time>
      </trkpt>
      <trkpt lat="42.34192" lon="19.77179">
        <ele>486.55999755859</ele>
        <time>2024-09-23T14:21:03.000Z</time>
      </trkpt>
      <trkpt lat="42.34176" lon="19.77175">
        <ele>486.55999755859</ele>
        <time>2024-09-23T14:21:04.000Z</time>
      </trkpt>
      <trkpt lat="42.34174" lon="19.77174">
        <ele>486.07998657227</ele>
        <time>2024-09-23T14:21:05.000Z</time>
      </trkpt>
      <trkpt lat="42.3416" lon="19.77169">
        <ele>485.60000610352</ele>
        <time>2024-09-23T14:21:06.000Z</time>
      </trkpt>
      <trkpt lat="42.34138" lon="19.77162">
        <ele>485.11999511719</ele>
        <time>2024-09-23T14:21:08.000Z</time>
      </trkpt>
      <trkpt lat="42.34124" lon="19.77158">
        <ele>484.64001464844</ele>
        <time>2024-09-23T14:21:10.000Z</time>
      </trkpt>
      <trkpt lat="42.34115" lon="19.77156">
        <ele>484.16000366211</ele>
        <time>2024-09-23T14:21:11.000Z</time>
      </trkpt>
      <trkpt lat="42.34106" lon="19.77156">
        <ele>483.67999267578</ele>
        <time>2024-09-23T14:21:12.000Z</time>
      </trkpt>
      <trkpt lat="42.34097" lon="19.77157">
        <ele>483.20001220703</ele>
        <time>2024-09-23T14:21:13.000Z</time>
      </trkpt>
      <trkpt lat="42.34086" lon="19.77162">
        <ele>483.20001220703</ele>
        <time>2024-09-23T14:21:14.000Z</time>
      </trkpt>
      <trkpt lat="42.34077" lon="19.77167">
        <ele>482.7200012207</ele>
        <time>2024-09-23T14:21:15.000Z</time>
      </trkpt>
      <trkpt lat="42.34064" lon="19.77177">
        <ele>482.23999023438</ele>
        <time>2024-09-23T14:21:16.000Z</time>
      </trkpt>
      <trkpt lat="42.34052" lon="19.77186">
        <ele>482.23999023438</ele>
        <time>2024-09-23T14:21:17.000Z</time>
      </trkpt>
      <trkpt lat="42.34047" lon="19.77188">
        <ele>482.23999023438</ele>
        <time>2024-09-23T14:21:18.000Z</time>
      </trkpt>
      <trkpt lat="42.34036" lon="19.77194">
        <ele>481.76000976562</ele>
        <time>2024-09-23T14:21:19.000Z</time>
      </trkpt>
      <trkpt lat="42.33982" lon="19.77215">
        <ele>481.2799987793</ele>
        <time>2024-09-23T14:21:23.000Z</time>
      </trkpt>
      <trkpt lat="42.33951" lon="19.77229">
        <ele>481.76000976562</ele>
        <time>2024-09-23T14:21:26.000Z</time>
      </trkpt>
      <trkpt lat="42.33944" lon="19.77231">
        <ele>481.76000976562</ele>
        <time>2024-09-23T14:21:27.000Z</time>
      </trkpt>
      <trkpt lat="42.33936" lon="19.77233">
        <ele>482.23999023438</ele>
        <time>2024-09-23T14:21:28.000Z</time>
      </trkpt>
      <trkpt lat="42.33927" lon="19.77234">
        <ele>482.23999023438</ele>
        <time>2024-09-23T14:21:30.000Z</time>
      </trkpt>
      <trkpt lat="42.33924" lon="19.77235">
        <ele>482.23999023438</ele>
        <time>2024-09-23T14:21:36.000Z</time>
      </trkpt>
      <trkpt lat="42.33908" lon="19.77241">
        <ele>479.35000610352</ele>
        <time>2024-09-23T14:34:42.000Z</time>
      </trkpt>
      <trkpt lat="42.33905" lon="19.77241">
        <ele>479.35000610352</ele>
        <time>2024-09-23T14:34:43.000Z</time>
      </trkpt>
      <trkpt lat="42.33898" lon="19.77243">
        <ele>479.35000610352</ele>
        <time>2024-09-23T14:34:44.000Z</time>
      </trkpt>
      <trkpt lat="42.33892" lon="19.77244">
        <ele>479.35000610352</ele>
        <time>2024-09-23T14:34:45.000Z</time>
      </trkpt>
      <trkpt lat="42.3389" lon="19.77244">
        <ele>479.35000610352</ele>
        <time>2024-09-23T14:34:46.000Z</time>
      </trkpt>
      <trkpt lat="42.33881" lon="19.77246">
        <ele>479.83999633789</ele>
        <time>2024-09-23T14:34:53.000Z</time>
      </trkpt>
      <trkpt lat="42.33882" lon="19.77245">
        <ele>478.39001464844</ele>
        <time>2024-09-23T14:36:24.000Z</time>
      </trkpt>
      <trkpt lat="42.33877" lon="19.77247">
        <ele>478.86999511719</ele>
        <time>2024-09-23T14:36:25.000Z</time>
      </trkpt>
      <trkpt lat="42.33872" lon="19.77249">
        <ele>478.86999511719</ele>
        <time>2024-09-23T14:36:26.000Z</time>
      </trkpt>
      <trkpt lat="42.33867" lon="19.77251">
        <ele>478.86999511719</ele>
        <time>2024-09-23T14:36:27.000Z</time>
      </trkpt>
      <trkpt lat="42.33848" lon="19.77256">
        <ele>479.35000610352</ele>
        <time>2024-09-23T14:36:29.000Z</time>
      </trkpt>
      <trkpt lat="42.33845" lon="19.77257">
        <ele>479.35000610352</ele>
        <time>2024-09-23T14:36:30.000Z</time>
      </trkpt>
      <trkpt lat="42.33837" lon="19.77261">
        <ele>479.35000610352</ele>
        <time>2024-09-23T14:36:31.000Z</time>
      </trkpt>
      <trkpt lat="42.33829" lon="19.77266">
        <ele>479.35000610352</ele>
        <time>2024-09-23T14:36:32.000Z</time>
      </trkpt>
      <trkpt lat="42.33812" lon="19.77278">
        <ele>480.32000732422</ele>
        <time>2024-09-23T14:36:33.000Z</time>
      </trkpt>
      <trkpt lat="42.3381" lon="19.77279">
        <ele>480.32000732422</ele>
        <time>2024-09-23T14:36:34.000Z</time>
      </trkpt>
      <trkpt lat="42.33801" lon="19.77284">
        <ele>480.32000732422</ele>
        <time>2024-09-23T14:36:35.000Z</time>
      </trkpt>
      <trkpt lat="42.33788" lon="19.77288">
        <ele>480.79998779297</ele>
        <time>2024-09-23T14:36:36.000Z</time>
      </trkpt>
      <trkpt lat="42.33784" lon="19.7729">
        <ele>481.2799987793</ele>
        <time>2024-09-23T14:36:37.000Z</time>
      </trkpt>
      <trkpt lat="42.33777" lon="19.77297">
        <ele>481.2799987793</ele>
        <time>2024-09-23T14:36:38.000Z</time>
      </trkpt>
      <trkpt lat="42.3377" lon="19.77306">
        <ele>481.76000976562</ele>
        <time>2024-09-23T14:36:39.000Z</time>
      </trkpt>
      <trkpt lat="42.3376" lon="19.77322">
        <ele>481.76000976562</ele>
        <time>2024-09-23T14:36:40.000Z</time>
      </trkpt>
      <trkpt lat="42.33756" lon="19.77328">
        <ele>482.23999023438</ele>
        <time>2024-09-23T14:36:41.000Z</time>
      </trkpt>
      <trkpt lat="42.33747" lon="19.77339">
        <ele>482.23999023438</ele>
        <time>2024-09-23T14:36:42.000Z</time>
      </trkpt>
      <trkpt lat="42.33735" lon="19.7735">
        <ele>481.2799987793</ele>
        <time>2024-09-23T14:36:43.000Z</time>
      </trkpt>
      <trkpt lat="42.33707" lon="19.77377">
        <ele>477.42999267578</ele>
        <time>2024-09-23T14:36:46.000Z</time>
      </trkpt>
      <trkpt lat="42.33658" lon="19.77424">
        <ele>469.73999023438</ele>
        <time>2024-09-23T14:36:50.000Z</time>
      </trkpt>
      <trkpt lat="42.33641" lon="19.7744">
        <ele>468.29998779297</ele>
        <time>2024-09-23T14:36:52.000Z</time>
      </trkpt>
      <trkpt lat="42.33612" lon="19.77467">
        <ele>464.92999267578</ele>
        <time>2024-09-23T14:36:54.000Z</time>
      </trkpt>
      <trkpt lat="42.33589" lon="19.77487">
        <ele>463.01000976562</ele>
        <time>2024-09-23T14:36:56.000Z</time>
      </trkpt>
      <trkpt lat="42.33577" lon="19.77496">
        <ele>462.04998779297</ele>
        <time>2024-09-23T14:36:57.000Z</time>
      </trkpt>
      <trkpt lat="42.33567" lon="19.77503">
        <ele>461.57000732422</ele>
        <time>2024-09-23T14:36:58.000Z</time>
      </trkpt>
      <trkpt lat="42.33563" lon="19.77506">
        <ele>461.57000732422</ele>
        <time>2024-09-23T14:36:59.000Z</time>
      </trkpt>
      <trkpt lat="42.33534" lon="19.77521">
        <ele>460.60998535156</ele>
        <time>2024-09-23T14:37:01.000Z</time>
      </trkpt>
      <trkpt lat="42.33526" lon="19.77524">
        <ele>459.64999389648</ele>
        <time>2024-09-23T14:37:02.000Z</time>
      </trkpt>
      <trkpt lat="42.33498" lon="19.7753">
        <ele>458.20999145508</ele>
        <time>2024-09-23T14:37:04.000Z</time>
      </trkpt>
      <trkpt lat="42.33487" lon="19.77533">
        <ele>457.7200012207</ele>
        <time>2024-09-23T14:37:05.000Z</time>
      </trkpt>
      <trkpt lat="42.33473" lon="19.77534">
        <ele>456.76000976562</ele>
        <time>2024-09-23T14:37:06.000Z</time>
      </trkpt>
      <trkpt lat="42.33459" lon="19.77534">
        <ele>458.20999145508</ele>
        <time>2024-09-23T14:37:07.000Z</time>
      </trkpt>
      <trkpt lat="42.33447" lon="19.77532">
        <ele>459.64999389648</ele>
        <time>2024-09-23T14:37:08.000Z</time>
      </trkpt>
      <trkpt lat="42.33432" lon="19.77529">
        <ele>460.13000488281</ele>
        <time>2024-09-23T14:37:09.000Z</time>
      </trkpt>
      <trkpt lat="42.33418" lon="19.77525">
        <ele>462.04998779297</ele>
        <time>2024-09-23T14:37:10.000Z</time>
      </trkpt>
      <trkpt lat="42.33396" lon="19.77516">
        <ele>462.5299987793</ele>
        <time>2024-09-23T14:37:12.000Z</time>
      </trkpt>
      <trkpt lat="42.33385" lon="19.7751">
        <ele>462.5299987793</ele>
        <time>2024-09-23T14:37:13.000Z</time>
      </trkpt>
      <trkpt lat="42.33373" lon="19.77501">
        <ele>462.5299987793</ele>
        <time>2024-09-23T14:37:14.000Z</time>
      </trkpt>
      <trkpt lat="42.33348" lon="19.77489">
        <ele>460.60998535156</ele>
        <time>2024-09-23T14:37:16.000Z</time>
      </trkpt>
      <trkpt lat="42.33342" lon="19.77487">
        <ele>461.08999633789</ele>
        <time>2024-09-23T14:37:17.000Z</time>
      </trkpt>
      <trkpt lat="42.33325" lon="19.77482">
        <ele>460.13000488281</ele>
        <time>2024-09-23T14:37:18.000Z</time>
      </trkpt>
      <trkpt lat="42.33319" lon="19.77482">
        <ele>458.69000244141</ele>
        <time>2024-09-23T14:37:19.000Z</time>
      </trkpt>
      <trkpt lat="42.33308" lon="19.77482">
        <ele>457.23999023438</ele>
        <time>2024-09-23T14:37:20.000Z</time>
      </trkpt>
      <trkpt lat="42.33293" lon="19.77485">
        <ele>455.79998779297</ele>
        <time>2024-09-23T14:37:21.000Z</time>
      </trkpt>
      <trkpt lat="42.33279" lon="19.77489">
        <ele>454.35998535156</ele>
        <time>2024-09-23T14:37:22.000Z</time>
      </trkpt>
      <trkpt lat="42.33271" lon="19.77491">
        <ele>453.88000488281</ele>
        <time>2024-09-23T14:37:23.000Z</time>
      </trkpt>
      <trkpt lat="42.33259" lon="19.77492">
        <ele>452.92001342773</ele>
        <time>2024-09-23T14:37:24.000Z</time>
      </trkpt>
      <trkpt lat="42.33248" lon="19.77494">
        <ele>452.44000244141</ele>
        <time>2024-09-23T14:37:25.000Z</time>
      </trkpt>
      <trkpt lat="42.33236" lon="19.77496">
        <ele>452.44000244141</ele>
        <time>2024-09-23T14:37:26.000Z</time>
      </trkpt>
      <trkpt lat="42.33231" lon="19.77496">
        <ele>451.95999145508</ele>
        <time>2024-09-23T14:37:27.000Z</time>
      </trkpt>
      <trkpt lat="42.33221" lon="19.77497">
        <ele>451.48001098633</ele>
        <time>2024-09-23T14:37:28.000Z</time>
      </trkpt>
      <trkpt lat="42.33211" lon="19.77496">
        <ele>450.51998901367</ele>
        <time>2024-09-23T14:37:29.000Z</time>
      </trkpt>
      <trkpt lat="42.33202" lon="19.77494">
        <ele>449.54998779297</ele>
        <time>2024-09-23T14:37:30.000Z</time>
      </trkpt>
      <trkpt lat="42.33191" lon="19.7749">
        <ele>448.58999633789</ele>
        <time>2024-09-23T14:37:31.000Z</time>
      </trkpt>
      <trkpt lat="42.33178" lon="19.77485">
        <ele>448.10998535156</ele>
        <time>2024-09-23T14:37:32.000Z</time>
      </trkpt>
      <trkpt lat="42.3317" lon="19.77483">
        <ele>448.10998535156</ele>
        <time>2024-09-23T14:37:33.000Z</time>
      </trkpt>
      <trkpt lat="42.33161" lon="19.77482">
        <ele>449.54998779297</ele>
        <time>2024-09-23T14:37:34.000Z</time>
      </trkpt>
      <trkpt lat="42.33153" lon="19.77485">
        <ele>450.51998901367</ele>
        <time>2024-09-23T14:37:35.000Z</time>
      </trkpt>
      <trkpt lat="42.33142" lon="19.77492">
        <ele>451</ele>
        <time>2024-09-23T14:37:36.000Z</time>
      </trkpt>
      <trkpt lat="42.33136" lon="19.77496">
        <ele>451</ele>
        <time>2024-09-23T14:37:37.000Z</time>
      </trkpt>
      <trkpt lat="42.33114" lon="19.77516">
        <ele>451.95999145508</ele>
        <time>2024-09-23T14:37:39.000Z</time>
      </trkpt>
      <trkpt lat="42.33106" lon="19.77524">
        <ele>451.95999145508</ele>
        <time>2024-09-23T14:37:40.000Z</time>
      </trkpt>
      <trkpt lat="42.33098" lon="19.77533">
        <ele>451.95999145508</ele>
        <time>2024-09-23T14:37:41.000Z</time>
      </trkpt>
      <trkpt lat="42.33089" lon="19.7754">
        <ele>452.44000244141</ele>
        <time>2024-09-23T14:37:42.000Z</time>
      </trkpt>
      <trkpt lat="42.33078" lon="19.77545">
        <ele>452.44000244141</ele>
        <time>2024-09-23T14:37:43.000Z</time>
      </trkpt>
      <trkpt lat="42.33065" lon="19.7755">
        <ele>452.92001342773</ele>
        <time>2024-09-23T14:37:44.000Z</time>
      </trkpt>
      <trkpt lat="42.33054" lon="19.77553">
        <ele>452.92001342773</ele>
        <time>2024-09-23T14:37:45.000Z</time>
      </trkpt>
      <trkpt lat="42.33044" lon="19.77558">
        <ele>453.88000488281</ele>
        <time>2024-09-23T14:37:46.000Z</time>
      </trkpt>
      <trkpt lat="42.33036" lon="19.77565">
        <ele>454.83999633789</ele>
        <time>2024-09-23T14:37:47.000Z</time>
      </trkpt>
      <trkpt lat="42.33028" lon="19.77575">
        <ele>455.32000732422</ele>
        <time>2024-09-23T14:37:48.000Z</time>
      </trkpt>
      <trkpt lat="42.33021" lon="19.77586">
        <ele>455.79998779297</ele>
        <time>2024-09-23T14:37:49.000Z</time>
      </trkpt>
      <trkpt lat="42.33013" lon="19.77599">
        <ele>456.2799987793</ele>
        <time>2024-09-23T14:37:50.000Z</time>
      </trkpt>
      <trkpt lat="42.32999" lon="19.77622">
        <ele>457.7200012207</ele>
        <time>2024-09-23T14:37:51.000Z</time>
      </trkpt>
      <trkpt lat="42.32997" lon="19.77624">
        <ele>457.7200012207</ele>
        <time>2024-09-23T14:37:52.000Z</time>
      </trkpt>
      <trkpt lat="42.3299" lon="19.77636">
        <ele>458.69000244141</ele>
        <time>2024-09-23T14:37:53.000Z</time>
      </trkpt>
      <trkpt lat="42.32986" lon="19.77647">
        <ele>459.64999389648</ele>
        <time>2024-09-23T14:37:54.000Z</time>
      </trkpt>
      <trkpt lat="42.32979" lon="19.77666">
        <ele>460.13000488281</ele>
        <time>2024-09-23T14:37:55.000Z</time>
      </trkpt>
      <trkpt lat="42.32975" lon="19.77675">
        <ele>460.13000488281</ele>
        <time>2024-09-23T14:37:56.000Z</time>
      </trkpt>
      <trkpt lat="42.32968" lon="19.77691">
        <ele>460.13000488281</ele>
        <time>2024-09-23T14:37:57.000Z</time>
      </trkpt>
      <trkpt lat="42.32962" lon="19.77704">
        <ele>460.13000488281</ele>
        <time>2024-09-23T14:37:58.000Z</time>
      </trkpt>
      <trkpt lat="42.32954" lon="19.77718">
        <ele>460.60998535156</ele>
        <time>2024-09-23T14:37:59.000Z</time>
      </trkpt>
      <trkpt lat="42.32944" lon="19.77732">
        <ele>461.08999633789</ele>
        <time>2024-09-23T14:38:00.000Z</time>
      </trkpt>
      <trkpt lat="42.32935" lon="19.77743">
        <ele>462.04998779297</ele>
        <time>2024-09-23T14:38:01.000Z</time>
      </trkpt>
      <trkpt lat="42.32925" lon="19.77753">
        <ele>462.5299987793</ele>
        <time>2024-09-23T14:38:02.000Z</time>
      </trkpt>
      <trkpt lat="42.32903" lon="19.77775">
        <ele>465.89999389648</ele>
        <time>2024-09-23T14:38:04.000Z</time>
      </trkpt>
      <trkpt lat="42.32898" lon="19.77779">
        <ele>466.38000488281</ele>
        <time>2024-09-23T14:38:05.000Z</time>
      </trkpt>
      <trkpt lat="42.32889" lon="19.77783">
        <ele>467.33999633789</ele>
        <time>2024-09-23T14:38:06.000Z</time>
      </trkpt>
      <trkpt lat="42.32878" lon="19.77787">
        <ele>468.29998779297</ele>
        <time>2024-09-23T14:38:07.000Z</time>
      </trkpt>
      <trkpt lat="42.32868" lon="19.77792">
        <ele>469.26000976562</ele>
        <time>2024-09-23T14:38:08.000Z</time>
      </trkpt>
      <trkpt lat="42.32861" lon="19.77797">
        <ele>470.2200012207</ele>
        <time>2024-09-23T14:38:09.000Z</time>
      </trkpt>
      <trkpt lat="42.32853" lon="19.77805">
        <ele>471.66000366211</ele>
        <time>2024-09-23T14:38:10.000Z</time>
      </trkpt>
      <trkpt lat="42.32828" lon="19.77833">
        <ele>475.98999023438</ele>
        <time>2024-09-23T14:38:12.000Z</time>
      </trkpt>
      <trkpt lat="42.32816" lon="19.77847">
        <ele>477.42999267578</ele>
        <time>2024-09-23T14:38:14.000Z</time>
      </trkpt>
      <trkpt lat="42.3281" lon="19.77854">
        <ele>478.39001464844</ele>
        <time>2024-09-23T14:38:15.000Z</time>
      </trkpt>
      <trkpt lat="42.328" lon="19.77865">
        <ele>479.35000610352</ele>
        <time>2024-09-23T14:38:16.000Z</time>
      </trkpt>
      <trkpt lat="42.32791" lon="19.77874">
        <ele>480.32000732422</ele>
        <time>2024-09-23T14:38:17.000Z</time>
      </trkpt>
      <trkpt lat="42.32783" lon="19.77881">
        <ele>481.2799987793</ele>
        <time>2024-09-23T14:38:18.000Z</time>
      </trkpt>
      <trkpt lat="42.32779" lon="19.77886">
        <ele>480.79998779297</ele>
        <time>2024-09-23T14:38:19.000Z</time>
      </trkpt>
      <trkpt lat="42.32777" lon="19.77891">
        <ele>480.32000732422</ele>
        <time>2024-09-23T14:38:20.000Z</time>
      </trkpt>
      <trkpt lat="42.32777" lon="19.77898">
        <ele>480.79998779297</ele>
        <time>2024-09-23T14:38:21.000Z</time>
      </trkpt>
      <trkpt lat="42.32777" lon="19.77908">
        <ele>481.2799987793</ele>
        <time>2024-09-23T14:38:22.000Z</time>
      </trkpt>
      <trkpt lat="42.32776" lon="19.77916">
        <ele>481.2799987793</ele>
        <time>2024-09-23T14:38:23.000Z</time>
      </trkpt>
      <trkpt lat="42.32773" lon="19.77922">
        <ele>481.76000976562</ele>
        <time>2024-09-23T14:38:24.000Z</time>
      </trkpt>
      <trkpt lat="42.32768" lon="19.77928">
        <ele>482.23999023438</ele>
        <time>2024-09-23T14:38:25.000Z</time>
      </trkpt>
      <trkpt lat="42.32761" lon="19.77936">
        <ele>482.23999023438</ele>
        <time>2024-09-23T14:38:26.000Z</time>
      </trkpt>
      <trkpt lat="42.32754" lon="19.77944">
        <ele>482.23999023438</ele>
        <time>2024-09-23T14:38:27.000Z</time>
      </trkpt>
      <trkpt lat="42.32747" lon="19.7795">
        <ele>482.7200012207</ele>
        <time>2024-09-23T14:38:28.000Z</time>
      </trkpt>
      <trkpt lat="42.32739" lon="19.77954">
        <ele>482.7200012207</ele>
        <time>2024-09-23T14:38:29.000Z</time>
      </trkpt>
      <trkpt lat="42.32732" lon="19.77957">
        <ele>483.20001220703</ele>
        <time>2024-09-23T14:38:30.000Z</time>
      </trkpt>
      <trkpt lat="42.32725" lon="19.77963">
        <ele>482.7200012207</ele>
        <time>2024-09-23T14:38:31.000Z</time>
      </trkpt>
      <trkpt lat="42.32719" lon="19.77972">
        <ele>482.23999023438</ele>
        <time>2024-09-23T14:38:32.000Z</time>
      </trkpt>
      <trkpt lat="42.32713" lon="19.77985">
        <ele>482.23999023438</ele>
        <time>2024-09-23T14:38:33.000Z</time>
      </trkpt>
      <trkpt lat="42.32706" lon="19.78003">
        <ele>482.23999023438</ele>
        <time>2024-09-23T14:38:34.000Z</time>
      </trkpt>
      <trkpt lat="42.32699" lon="19.78015">
        <ele>482.23999023438</ele>
        <time>2024-09-23T14:38:35.000Z</time>
      </trkpt>
      <trkpt lat="42.32692" lon="19.78026">
        <ele>482.7200012207</ele>
        <time>2024-09-23T14:38:36.000Z</time>
      </trkpt>
      <trkpt lat="42.3268" lon="19.78038">
        <ele>482.7200012207</ele>
        <time>2024-09-23T14:38:37.000Z</time>
      </trkpt>
      <trkpt lat="42.32671" lon="19.78045">
        <ele>482.23999023438</ele>
        <time>2024-09-23T14:38:38.000Z</time>
      </trkpt>
      <trkpt lat="42.32653" lon="19.78062">
        <ele>480.79998779297</ele>
        <time>2024-09-23T14:38:39.000Z</time>
      </trkpt>
      <trkpt lat="42.32649" lon="19.78066">
        <ele>480.79998779297</ele>
        <time>2024-09-23T14:38:40.000Z</time>
      </trkpt>
      <trkpt lat="42.32636" lon="19.78075">
        <ele>480.32000732422</ele>
        <time>2024-09-23T14:38:41.000Z</time>
      </trkpt>
      <trkpt lat="42.3263" lon="19.78079">
        <ele>480.32000732422</ele>
        <time>2024-09-23T14:38:42.000Z</time>
      </trkpt>
      <trkpt lat="42.32624" lon="19.78084">
        <ele>480.32000732422</ele>
        <time>2024-09-23T14:38:43.000Z</time>
      </trkpt>
      <trkpt lat="42.32621" lon="19.78087">
        <ele>480.32000732422</ele>
        <time>2024-09-23T14:38:44.000Z</time>
      </trkpt>
      <trkpt lat="42.32618" lon="19.78093">
        <ele>480.32000732422</ele>
        <time>2024-09-23T14:38:45.000Z</time>
      </trkpt>
      <trkpt lat="42.32616" lon="19.781">
        <ele>480.32000732422</ele>
        <time>2024-09-23T14:38:46.000Z</time>
      </trkpt>
      <trkpt lat="42.32616" lon="19.78109">
        <ele>480.32000732422</ele>
        <time>2024-09-23T14:38:47.000Z</time>
      </trkpt>
      <trkpt lat="42.32617" lon="19.7812">
        <ele>480.79998779297</ele>
        <time>2024-09-23T14:38:48.000Z</time>
      </trkpt>
      <trkpt lat="42.32621" lon="19.78136">
        <ele>481.2799987793</ele>
        <time>2024-09-23T14:38:49.000Z</time>
      </trkpt>
      <trkpt lat="42.32622" lon="19.78142">
        <ele>481.2799987793</ele>
        <time>2024-09-23T14:38:50.000Z</time>
      </trkpt>
      <trkpt lat="42.32621" lon="19.78148">
        <ele>481.2799987793</ele>
        <time>2024-09-23T14:38:51.000Z</time>
      </trkpt>
      <trkpt lat="42.32618" lon="19.78154">
        <ele>481.2799987793</ele>
        <time>2024-09-23T14:38:52.000Z</time>
      </trkpt>
      <trkpt lat="42.32614" lon="19.78158">
        <ele>481.2799987793</ele>
        <time>2024-09-23T14:38:53.000Z</time>
      </trkpt>
      <trkpt lat="42.32607" lon="19.78161">
        <ele>481.2799987793</ele>
        <time>2024-09-23T14:38:54.000Z</time>
      </trkpt>
      <trkpt lat="42.326" lon="19.78164">
        <ele>481.76000976562</ele>
        <time>2024-09-23T14:38:55.000Z</time>
      </trkpt>
      <trkpt lat="42.32593" lon="19.78166">
        <ele>482.23999023438</ele>
        <time>2024-09-23T14:38:56.000Z</time>
      </trkpt>
      <trkpt lat="42.32574" lon="19.78173">
        <ele>481.76000976562</ele>
        <time>2024-09-23T14:38:58.000Z</time>
      </trkpt>
      <trkpt lat="42.32562" lon="19.78181">
        <ele>481.76000976562</ele>
        <time>2024-09-23T14:38:59.000Z</time>
      </trkpt>
      <trkpt lat="42.32559" lon="19.78183">
        <ele>481.76000976562</ele>
        <time>2024-09-23T14:39:00.000Z</time>
      </trkpt>
      <trkpt lat="42.32551" lon="19.7819">
        <ele>481.76000976562</ele>
        <time>2024-09-23T14:39:01.000Z</time>
      </trkpt>
      <trkpt lat="42.3254" lon="19.78198">
        <ele>481.76000976562</ele>
        <time>2024-09-23T14:39:02.000Z</time>
      </trkpt>
      <trkpt lat="42.32533" lon="19.78204">
        <ele>481.76000976562</ele>
        <time>2024-09-23T14:39:03.000Z</time>
      </trkpt>
      <trkpt lat="42.32519" lon="19.78218">
        <ele>481.2799987793</ele>
        <time>2024-09-23T14:39:04.000Z</time>
      </trkpt>
      <trkpt lat="42.32516" lon="19.7822">
        <ele>481.2799987793</ele>
        <time>2024-09-23T14:39:05.000Z</time>
      </trkpt>
      <trkpt lat="42.32508" lon="19.78225">
        <ele>481.2799987793</ele>
        <time>2024-09-23T14:39:06.000Z</time>
      </trkpt>
      <trkpt lat="42.32497" lon="19.78229">
        <ele>480.79998779297</ele>
        <time>2024-09-23T14:39:07.000Z</time>
      </trkpt>
      <trkpt lat="42.32486" lon="19.7823">
        <ele>480.79998779297</ele>
        <time>2024-09-23T14:39:08.000Z</time>
      </trkpt>
      <trkpt lat="42.32476" lon="19.78228">
        <ele>480.79998779297</ele>
        <time>2024-09-23T14:39:09.000Z</time>
      </trkpt>
      <trkpt lat="42.32465" lon="19.78225">
        <ele>480.79998779297</ele>
        <time>2024-09-23T14:39:10.000Z</time>
      </trkpt>
      <trkpt lat="42.32459" lon="19.78223">
        <ele>480.79998779297</ele>
        <time>2024-09-23T14:39:11.000Z</time>
      </trkpt>
      <trkpt lat="42.32453" lon="19.78223">
        <ele>480.79998779297</ele>
        <time>2024-09-23T14:39:12.000Z</time>
      </trkpt>
      <trkpt lat="42.32449" lon="19.78226">
        <ele>480.79998779297</ele>
        <time>2024-09-23T14:39:13.000Z</time>
      </trkpt>
      <trkpt lat="42.32446" lon="19.78231">
        <ele>481.2799987793</ele>
        <time>2024-09-23T14:39:14.000Z</time>
      </trkpt>
      <trkpt lat="42.32442" lon="19.78239">
        <ele>480.79998779297</ele>
        <time>2024-09-23T14:39:15.000Z</time>
      </trkpt>
      <trkpt lat="42.32438" lon="19.78244">
        <ele>480.79998779297</ele>
        <time>2024-09-23T14:39:16.000Z</time>
      </trkpt>
      <trkpt lat="42.32432" lon="19.78248">
        <ele>480.79998779297</ele>
        <time>2024-09-23T14:39:17.000Z</time>
      </trkpt>
      <trkpt lat="42.32426" lon="19.7825">
        <ele>481.2799987793</ele>
        <time>2024-09-23T14:39:18.000Z</time>
      </trkpt>
      <trkpt lat="42.32419" lon="19.78252">
        <ele>481.2799987793</ele>
        <time>2024-09-23T14:39:19.000Z</time>
      </trkpt>
      <trkpt lat="42.3241" lon="19.78251">
        <ele>481.76000976562</ele>
        <time>2024-09-23T14:39:20.000Z</time>
      </trkpt>
      <trkpt lat="42.32403" lon="19.78249">
        <ele>481.2799987793</ele>
        <time>2024-09-23T14:39:21.000Z</time>
      </trkpt>
      <trkpt lat="42.32382" lon="19.78243">
        <ele>480.32000732422</ele>
        <time>2024-09-23T14:39:22.000Z</time>
      </trkpt>
      <trkpt lat="42.32378" lon="19.78242">
        <ele>480.32000732422</ele>
        <time>2024-09-23T14:39:23.000Z</time>
      </trkpt>
      <trkpt lat="42.32371" lon="19.78241">
        <ele>479.83999633789</ele>
        <time>2024-09-23T14:39:24.000Z</time>
      </trkpt>
      <trkpt lat="42.32363" lon="19.78241">
        <ele>479.83999633789</ele>
        <time>2024-09-23T14:39:25.000Z</time>
      </trkpt>
      <trkpt lat="42.32357" lon="19.78243">
        <ele>479.35000610352</ele>
        <time>2024-09-23T14:39:26.000Z</time>
      </trkpt>
      <trkpt lat="42.32349" lon="19.78249">
        <ele>479.35000610352</ele>
        <time>2024-09-23T14:39:27.000Z</time>
      </trkpt>
      <trkpt lat="42.32342" lon="19.78257">
        <ele>479.35000610352</ele>
        <time>2024-09-23T14:39:28.000Z</time>
      </trkpt>
      <trkpt lat="42.32336" lon="19.78268">
        <ele>478.86999511719</ele>
        <time>2024-09-23T14:39:29.000Z</time>
      </trkpt>
      <trkpt lat="42.32332" lon="19.78278">
        <ele>478.39001464844</ele>
        <time>2024-09-23T14:39:30.000Z</time>
      </trkpt>
      <trkpt lat="42.32328" lon="19.78301">
        <ele>477.91000366211</ele>
        <time>2024-09-23T14:39:31.000Z</time>
      </trkpt>
      <trkpt lat="42.32327" lon="19.78305">
        <ele>477.91000366211</ele>
        <time>2024-09-23T14:39:32.000Z</time>
      </trkpt>
      <trkpt lat="42.32324" lon="19.78313">
        <ele>477.42999267578</ele>
        <time>2024-09-23T14:39:33.000Z</time>
      </trkpt>
      <trkpt lat="42.32322" lon="19.78318">
        <ele>477.42999267578</ele>
        <time>2024-09-23T14:39:34.000Z</time>
      </trkpt>
      <trkpt lat="42.32319" lon="19.78323">
        <ele>476.95001220703</ele>
        <time>2024-09-23T14:39:35.000Z</time>
      </trkpt>
      <trkpt lat="42.32314" lon="19.78326">
        <ele>476.4700012207</ele>
        <time>2024-09-23T14:39:36.000Z</time>
      </trkpt>
      <trkpt lat="42.32309" lon="19.78326">
        <ele>475.51000976562</ele>
        <time>2024-09-23T14:39:37.000Z</time>
      </trkpt>
      <trkpt lat="42.32303" lon="19.78323">
        <ele>475.0299987793</ele>
        <time>2024-09-23T14:39:38.000Z</time>
      </trkpt>
      <trkpt lat="42.32297" lon="19.78319">
        <ele>474.07000732422</ele>
        <time>2024-09-23T14:39:39.000Z</time>
      </trkpt>
      <trkpt lat="42.32286" lon="19.78311">
        <ele>473.10998535156</ele>
        <time>2024-09-23T14:39:40.000Z</time>
      </trkpt>
      <trkpt lat="42.32281" lon="19.78308">
        <ele>472.14001464844</ele>
        <time>2024-09-23T14:39:41.000Z</time>
      </trkpt>
      <trkpt lat="42.32272" lon="19.78306">
        <ele>470.2200012207</ele>
        <time>2024-09-23T14:39:42.000Z</time>
      </trkpt>
      <trkpt lat="42.32263" lon="19.78306">
        <ele>468.29998779297</ele>
        <time>2024-09-23T14:39:43.000Z</time>
      </trkpt>
      <trkpt lat="42.32252" lon="19.78309">
        <ele>466.85998535156</ele>
        <time>2024-09-23T14:39:44.000Z</time>
      </trkpt>
      <trkpt lat="42.32241" lon="19.78313">
        <ele>465.89999389648</ele>
        <time>2024-09-23T14:39:45.000Z</time>
      </trkpt>
      <trkpt lat="42.32228" lon="19.78321">
        <ele>464.45001220703</ele>
        <time>2024-09-23T14:39:46.000Z</time>
      </trkpt>
      <trkpt lat="42.32218" lon="19.78328">
        <ele>463.9700012207</ele>
        <time>2024-09-23T14:39:47.000Z</time>
      </trkpt>
      <trkpt lat="42.32174" lon="19.78359">
        <ele>462.04998779297</ele>
        <time>2024-09-23T14:39:50.000Z</time>
      </trkpt>
      <trkpt lat="42.32116" lon="19.78392">
        <ele>461.08999633789</ele>
        <time>2024-09-23T14:39:55.000Z</time>
      </trkpt>
      <trkpt lat="42.32108" lon="19.78398">
        <ele>461.08999633789</ele>
        <time>2024-09-23T14:39:56.000Z</time>
      </trkpt>
      <trkpt lat="42.32103" lon="19.78404">
        <ele>461.08999633789</ele>
        <time>2024-09-23T14:39:57.000Z</time>
      </trkpt>
      <trkpt lat="42.321" lon="19.78411">
        <ele>461.08999633789</ele>
        <time>2024-09-23T14:39:58.000Z</time>
      </trkpt>
      <trkpt lat="42.32095" lon="19.7842">
        <ele>461.08999633789</ele>
        <time>2024-09-23T14:39:59.000Z</time>
      </trkpt>
      <trkpt lat="42.32088" lon="19.78428">
        <ele>461.08999633789</ele>
        <time>2024-09-23T14:40:00.000Z</time>
      </trkpt>
      <trkpt lat="42.3208" lon="19.78435">
        <ele>461.08999633789</ele>
        <time>2024-09-23T14:40:01.000Z</time>
      </trkpt>
      <trkpt lat="42.32054" lon="19.78454">
        <ele>459.64999389648</ele>
        <time>2024-09-23T14:40:03.000Z</time>
      </trkpt>
      <trkpt lat="42.32051" lon="19.78456">
        <ele>459.17001342773</ele>
        <time>2024-09-23T14:40:04.000Z</time>
      </trkpt>
      <trkpt lat="42.32041" lon="19.78464">
        <ele>458.69000244141</ele>
        <time>2024-09-23T14:40:05.000Z</time>
      </trkpt>
      <trkpt lat="42.32021" lon="19.78476">
        <ele>458.20999145508</ele>
        <time>2024-09-23T14:40:06.000Z</time>
      </trkpt>
      <trkpt lat="42.32017" lon="19.78478">
        <ele>458.20999145508</ele>
        <time>2024-09-23T14:40:07.000Z</time>
      </trkpt>
      <trkpt lat="42.32011" lon="19.78482">
        <ele>458.20999145508</ele>
        <time>2024-09-23T14:40:08.000Z</time>
      </trkpt>
      <trkpt lat="42.32001" lon="19.78489">
        <ele>458.69000244141</ele>
        <time>2024-09-23T14:40:09.000Z</time>
      </trkpt>
      <trkpt lat="42.31993" lon="19.78494">
        <ele>458.20999145508</ele>
        <time>2024-09-23T14:40:10.000Z</time>
      </trkpt>
      <trkpt lat="42.31983" lon="19.78503">
        <ele>458.20999145508</ele>
        <time>2024-09-23T14:40:11.000Z</time>
      </trkpt>
      <trkpt lat="42.31973" lon="19.78512">
        <ele>458.20999145508</ele>
        <time>2024-09-23T14:40:12.000Z</time>
      </trkpt>
      <trkpt lat="42.31972" lon="19.78513">
        <ele>458.20999145508</ele>
        <time>2024-09-23T14:40:13.000Z</time>
      </trkpt>
      <trkpt lat="42.31963" lon="19.78524">
        <ele>458.69000244141</ele>
        <time>2024-09-23T14:40:14.000Z</time>
      </trkpt>
      <trkpt lat="42.31959" lon="19.7853">
        <ele>458.69000244141</ele>
        <time>2024-09-23T14:40:15.000Z</time>
      </trkpt>
      <trkpt lat="42.31954" lon="19.7854">
        <ele>458.69000244141</ele>
        <time>2024-09-23T14:40:16.000Z</time>
      </trkpt>
      <trkpt lat="42.31936" lon="19.78593">
        <ele>457.23999023438</ele>
        <time>2024-09-23T14:40:20.000Z</time>
      </trkpt>
      <trkpt lat="42.3193" lon="19.78609">
        <ele>456.2799987793</ele>
        <time>2024-09-23T14:40:21.000Z</time>
      </trkpt>
      <trkpt lat="42.31928" lon="19.78613">
        <ele>456.2799987793</ele>
        <time>2024-09-23T14:40:22.000Z</time>
      </trkpt>
      <trkpt lat="42.31922" lon="19.78626">
        <ele>456.2799987793</ele>
        <time>2024-09-23T14:40:23.000Z</time>
      </trkpt>
      <trkpt lat="42.31917" lon="19.78637">
        <ele>455.79998779297</ele>
        <time>2024-09-23T14:40:24.000Z</time>
      </trkpt>
      <trkpt lat="42.31912" lon="19.78649">
        <ele>455.32000732422</ele>
        <time>2024-09-23T14:40:25.000Z</time>
      </trkpt>
      <trkpt lat="42.31909" lon="19.78654">
        <ele>455.32000732422</ele>
        <time>2024-09-23T14:40:26.000Z</time>
      </trkpt>
      <trkpt lat="42.31903" lon="19.78666">
        <ele>454.83999633789</ele>
        <time>2024-09-23T14:40:27.000Z</time>
      </trkpt>
      <trkpt lat="42.31897" lon="19.78679">
        <ele>454.83999633789</ele>
        <time>2024-09-23T14:40:28.000Z</time>
      </trkpt>
      <trkpt lat="42.31876" lon="19.78721">
        <ele>451</ele>
        <time>2024-09-23T14:40:31.000Z</time>
      </trkpt>
      <trkpt lat="42.31869" lon="19.78734">
        <ele>449.07000732422</ele>
        <time>2024-09-23T14:40:33.000Z</time>
      </trkpt>
      <trkpt lat="42.31855" lon="19.78756">
        <ele>446.67001342773</ele>
        <time>2024-09-23T14:40:35.000Z</time>
      </trkpt>
      <trkpt lat="42.31847" lon="19.78767">
        <ele>445.23001098633</ele>
        <time>2024-09-23T14:40:36.000Z</time>
      </trkpt>
      <trkpt lat="42.31837" lon="19.78775">
        <ele>443.79000854492</ele>
        <time>2024-09-23T14:40:37.000Z</time>
      </trkpt>
      <trkpt lat="42.31809" lon="19.78796">
        <ele>439.45999145508</ele>
        <time>2024-09-23T14:40:40.000Z</time>
      </trkpt>
      <trkpt lat="42.31799" lon="19.78805">
        <ele>438.5</ele>
        <time>2024-09-23T14:40:41.000Z</time>
      </trkpt>
      <trkpt lat="42.31786" lon="19.78818">
        <ele>437.05999755859</ele>
        <time>2024-09-23T14:40:42.000Z</time>
      </trkpt>
      <trkpt lat="42.31775" lon="19.7883">
        <ele>435.60998535156</ele>
        <time>2024-09-23T14:40:43.000Z</time>
      </trkpt>
      <trkpt lat="42.31742" lon="19.78868">
        <ele>432.25</ele>
        <time>2024-09-23T14:40:47.000Z</time>
      </trkpt>
      <trkpt lat="42.3173" lon="19.78883">
        <ele>430.32998657227</ele>
        <time>2024-09-23T14:40:48.000Z</time>
      </trkpt>
      <trkpt lat="42.31726" lon="19.7889">
        <ele>429.85000610352</ele>
        <time>2024-09-23T14:40:49.000Z</time>
      </trkpt>
      <trkpt lat="42.3172" lon="19.78901">
        <ele>428.89001464844</ele>
        <time>2024-09-23T14:40:50.000Z</time>
      </trkpt>
      <trkpt lat="42.31716" lon="19.78912">
        <ele>428.89001464844</ele>
        <time>2024-09-23T14:40:51.000Z</time>
      </trkpt>
      <trkpt lat="42.31715" lon="19.78924">
        <ele>428.39999389648</ele>
        <time>2024-09-23T14:40:52.000Z</time>
      </trkpt>
      <trkpt lat="42.31717" lon="19.78939">
        <ele>428.89001464844</ele>
        <time>2024-09-23T14:40:53.000Z</time>
      </trkpt>
      <trkpt lat="42.31717" lon="19.7895">
        <ele>428.39999389648</ele>
        <time>2024-09-23T14:40:54.000Z</time>
      </trkpt>
      <trkpt lat="42.31715" lon="19.78961">
        <ele>427.92001342773</ele>
        <time>2024-09-23T14:40:55.000Z</time>
      </trkpt>
      <trkpt lat="42.31712" lon="19.78969">
        <ele>427.44000244141</ele>
        <time>2024-09-23T14:40:56.000Z</time>
      </trkpt>
      <trkpt lat="42.31705" lon="19.78976">
        <ele>426.95999145508</ele>
        <time>2024-09-23T14:40:57.000Z</time>
      </trkpt>
      <trkpt lat="42.31694" lon="19.78986">
        <ele>426</ele>
        <time>2024-09-23T14:40:58.000Z</time>
      </trkpt>
      <trkpt lat="42.31689" lon="19.78991">
        <ele>426</ele>
        <time>2024-09-23T14:40:59.000Z</time>
      </trkpt>
      <trkpt lat="42.31682" lon="19.79001">
        <ele>425.51998901367</ele>
        <time>2024-09-23T14:41:00.000Z</time>
      </trkpt>
      <trkpt lat="42.31677" lon="19.79012">
        <ele>425.04000854492</ele>
        <time>2024-09-23T14:41:01.000Z</time>
      </trkpt>
      <trkpt lat="42.31673" lon="19.79025">
        <ele>423.60000610352</ele>
        <time>2024-09-23T14:41:02.000Z</time>
      </trkpt>
      <trkpt lat="42.31671" lon="19.7904">
        <ele>422.64001464844</ele>
        <time>2024-09-23T14:41:03.000Z</time>
      </trkpt>
      <trkpt lat="42.31668" lon="19.79074">
        <ele>420.70999145508</ele>
        <time>2024-09-23T14:41:05.000Z</time>
      </trkpt>
      <trkpt lat="42.31667" lon="19.7909">
        <ele>419.75</ele>
        <time>2024-09-23T14:41:06.000Z</time>
      </trkpt>
      <trkpt lat="42.31667" lon="19.79112">
        <ele>418.30999755859</ele>
        <time>2024-09-23T14:41:07.000Z</time>
      </trkpt>
      <trkpt lat="42.31667" lon="19.7912">
        <ele>417.82998657227</ele>
        <time>2024-09-23T14:41:08.000Z</time>
      </trkpt>
      <trkpt lat="42.31666" lon="19.79136">
        <ele>416.39001464844</ele>
        <time>2024-09-23T14:41:09.000Z</time>
      </trkpt>
      <trkpt lat="42.31664" lon="19.79147">
        <ele>415.42999267578</ele>
        <time>2024-09-23T14:41:10.000Z</time>
      </trkpt>
      <trkpt lat="42.31659" lon="19.7916">
        <ele>414.4700012207</ele>
        <time>2024-09-23T14:41:11.000Z</time>
      </trkpt>
      <trkpt lat="42.31654" lon="19.79171">
        <ele>413.01998901367</ele>
        <time>2024-09-23T14:41:12.000Z</time>
      </trkpt>
      <trkpt lat="42.31646" lon="19.79185">
        <ele>412.05999755859</ele>
        <time>2024-09-23T14:41:13.000Z</time>
      </trkpt>
      <trkpt lat="42.31642" lon="19.79193">
        <ele>411.57998657227</ele>
        <time>2024-09-23T14:41:14.000Z</time>
      </trkpt>
      <trkpt lat="42.31639" lon="19.79202">
        <ele>410.61999511719</ele>
        <time>2024-09-23T14:41:15.000Z</time>
      </trkpt>
      <trkpt lat="42.31636" lon="19.79212">
        <ele>410.14001464844</ele>
        <time>2024-09-23T14:41:16.000Z</time>
      </trkpt>
      <trkpt lat="42.31636" lon="19.79219">
        <ele>409.66000366211</ele>
        <time>2024-09-23T14:41:17.000Z</time>
      </trkpt>
      <trkpt lat="42.31636" lon="19.79226">
        <ele>408.70001220703</ele>
        <time>2024-09-23T14:41:18.000Z</time>
      </trkpt>
      <trkpt lat="42.3163" lon="19.79235">
        <ele>406.76998901367</ele>
        <time>2024-09-23T14:41:21.000Z</time>
      </trkpt>
      <trkpt lat="42.31626" lon="19.79238">
        <ele>407.26000976562</ele>
        <time>2024-09-23T14:41:22.000Z</time>
      </trkpt>
      <trkpt lat="42.3162" lon="19.79241">
        <ele>407.73999023438</ele>
        <time>2024-09-23T14:41:23.000Z</time>
      </trkpt>
      <trkpt lat="42.31608" lon="19.79244">
        <ele>407.26000976562</ele>
        <time>2024-09-23T14:41:24.000Z</time>
      </trkpt>
      <trkpt lat="42.31606" lon="19.79244">
        <ele>407.26000976562</ele>
        <time>2024-09-23T14:41:25.000Z</time>
      </trkpt>
      <trkpt lat="42.31598" lon="19.79248">
        <ele>407.26000976562</ele>
        <time>2024-09-23T14:41:26.000Z</time>
      </trkpt>
      <trkpt lat="42.3159" lon="19.79254">
        <ele>407.26000976562</ele>
        <time>2024-09-23T14:41:27.000Z</time>
      </trkpt>
      <trkpt lat="42.3156" lon="19.79287">
        <ele>405.80999755859</ele>
        <time>2024-09-23T14:41:30.000Z</time>
      </trkpt>
      <trkpt lat="42.31543" lon="19.79307">
        <ele>404.36999511719</ele>
        <time>2024-09-23T14:41:32.000Z</time>
      </trkpt>
      <trkpt lat="42.31536" lon="19.79314">
        <ele>404.36999511719</ele>
        <time>2024-09-23T14:41:33.000Z</time>
      </trkpt>
      <trkpt lat="42.31528" lon="19.79324">
        <ele>403.41000366211</ele>
        <time>2024-09-23T14:41:34.000Z</time>
      </trkpt>
      <trkpt lat="42.31506" lon="19.79356">
        <ele>401.01000976562</ele>
        <time>2024-09-23T14:41:36.000Z</time>
      </trkpt>
      <trkpt lat="42.31501" lon="19.79363">
        <ele>401.01000976562</ele>
        <time>2024-09-23T14:41:37.000Z</time>
      </trkpt>
      <trkpt lat="42.31486" lon="19.79381">
        <ele>401.01000976562</ele>
        <time>2024-09-23T14:41:38.000Z</time>
      </trkpt>
      <trkpt lat="42.31464" lon="19.79404">
        <ele>400.04998779297</ele>
        <time>2024-09-23T14:41:40.000Z</time>
      </trkpt>
      <trkpt lat="42.31459" lon="19.7941">
        <ele>400.5299987793</ele>
        <time>2024-09-23T14:41:41.000Z</time>
      </trkpt>
      <trkpt lat="42.31438" lon="19.79434">
        <ele>400.5299987793</ele>
        <time>2024-09-23T14:41:43.000Z</time>
      </trkpt>
      <trkpt lat="42.31419" lon="19.79457">
        <ele>399.07998657227</ele>
        <time>2024-09-23T14:41:44.000Z</time>
      </trkpt>
      <trkpt lat="42.31417" lon="19.79459">
        <ele>399.07998657227</ele>
        <time>2024-09-23T14:41:45.000Z</time>
      </trkpt>
      <trkpt lat="42.31406" lon="19.79469">
        <ele>398.60000610352</ele>
        <time>2024-09-23T14:41:46.000Z</time>
      </trkpt>
      <trkpt lat="42.31392" lon="19.79478">
        <ele>398.11999511719</ele>
        <time>2024-09-23T14:41:47.000Z</time>
      </trkpt>
      <trkpt lat="42.31376" lon="19.79486">
        <ele>397.16000366211</ele>
        <time>2024-09-23T14:41:48.000Z</time>
      </trkpt>
      <trkpt lat="42.31353" lon="19.79496">
        <ele>394.76000976562</ele>
        <time>2024-09-23T14:41:50.000Z</time>
      </trkpt>
      <trkpt lat="42.31348" lon="19.79499">
        <ele>393.79998779297</ele>
        <time>2024-09-23T14:41:51.000Z</time>
      </trkpt>
      <trkpt lat="42.31339" lon="19.79506">
        <ele>392.83999633789</ele>
        <time>2024-09-23T14:41:52.000Z</time>
      </trkpt>
      <trkpt lat="42.31314" lon="19.79527">
        <ele>391.39001464844</ele>
        <time>2024-09-23T14:41:54.000Z</time>
      </trkpt>
      <trkpt lat="42.31304" lon="19.79534">
        <ele>390.91000366211</ele>
        <time>2024-09-23T14:41:55.000Z</time>
      </trkpt>
      <trkpt lat="42.31291" lon="19.79541">
        <ele>389.95001220703</ele>
        <time>2024-09-23T14:41:56.000Z</time>
      </trkpt>
      <trkpt lat="42.3127" lon="19.7955">
        <ele>388.51000976562</ele>
        <time>2024-09-23T14:41:58.000Z</time>
      </trkpt>
      <trkpt lat="42.31257" lon="19.79554">
        <ele>387.54998779297</ele>
        <time>2024-09-23T14:41:59.000Z</time>
      </trkpt>
      <trkpt lat="42.31243" lon="19.79557">
        <ele>386.58999633789</ele>
        <time>2024-09-23T14:42:00.000Z</time>
      </trkpt>
      <trkpt lat="42.31237" lon="19.79557">
        <ele>386.10998535156</ele>
        <time>2024-09-23T14:42:01.000Z</time>
      </trkpt>
      <trkpt lat="42.31219" lon="19.79558">
        <ele>385.63000488281</ele>
        <time>2024-09-23T14:42:03.000Z</time>
      </trkpt>
      <trkpt lat="42.31211" lon="19.79558">
        <ele>385.14999389648</ele>
        <time>2024-09-23T14:42:04.000Z</time>
      </trkpt>
      <trkpt lat="42.31203" lon="19.79559">
        <ele>385.14999389648</ele>
        <time>2024-09-23T14:42:05.000Z</time>
      </trkpt>
      <trkpt lat="42.312" lon="19.7956">
        <ele>385.14999389648</ele>
        <time>2024-09-23T14:42:06.000Z</time>
      </trkpt>
      <trkpt lat="42.31194" lon="19.79563">
        <ele>384.66000366211</ele>
        <time>2024-09-23T14:42:07.000Z</time>
      </trkpt>
      <trkpt lat="42.31184" lon="19.7957">
        <ele>383.2200012207</ele>
        <time>2024-09-23T14:42:08.000Z</time>
      </trkpt>
      <trkpt lat="42.31183" lon="19.7957">
        <ele>383.2200012207</ele>
        <time>2024-09-23T14:42:09.000Z</time>
      </trkpt>
      <trkpt lat="42.31177" lon="19.79572">
        <ele>382.73999023438</ele>
        <time>2024-09-23T14:42:10.000Z</time>
      </trkpt>
      <trkpt lat="42.31172" lon="19.79572">
        <ele>382.26000976562</ele>
        <time>2024-09-23T14:42:11.000Z</time>
      </trkpt>
      <trkpt lat="42.31165" lon="19.79568">
        <ele>381.29998779297</ele>
        <time>2024-09-23T14:42:12.000Z</time>
      </trkpt>
      <trkpt lat="42.31159" lon="19.79562">
        <ele>380.82000732422</ele>
        <time>2024-09-23T14:42:13.000Z</time>
      </trkpt>
      <trkpt lat="42.31153" lon="19.79556">
        <ele>380.33999633789</ele>
        <time>2024-09-23T14:42:14.000Z</time>
      </trkpt>
      <trkpt lat="42.31144" lon="19.79545">
        <ele>379.85998535156</ele>
        <time>2024-09-23T14:42:15.000Z</time>
      </trkpt>
      <trkpt lat="42.31142" lon="19.79544">
        <ele>379.38000488281</ele>
        <time>2024-09-23T14:42:16.000Z</time>
      </trkpt>
      <trkpt lat="42.31136" lon="19.79539">
        <ele>379.38000488281</ele>
        <time>2024-09-23T14:42:17.000Z</time>
      </trkpt>
      <trkpt lat="42.31128" lon="19.79533">
        <ele>379.38000488281</ele>
        <time>2024-09-23T14:42:18.000Z</time>
      </trkpt>
      <trkpt lat="42.31114" lon="19.79527">
        <ele>379.38000488281</ele>
        <time>2024-09-23T14:42:19.000Z</time>
      </trkpt>
      <trkpt lat="42.31111" lon="19.79526">
        <ele>379.38000488281</ele>
        <time>2024-09-23T14:42:20.000Z</time>
      </trkpt>
      <trkpt lat="42.31103" lon="19.79525">
        <ele>379.38000488281</ele>
        <time>2024-09-23T14:42:21.000Z</time>
      </trkpt>
      <trkpt lat="42.31095" lon="19.79525">
        <ele>379.85998535156</ele>
        <time>2024-09-23T14:42:22.000Z</time>
      </trkpt>
      <trkpt lat="42.3109" lon="19.79528">
        <ele>380.82000732422</ele>
        <time>2024-09-23T14:42:23.000Z</time>
      </trkpt>
      <trkpt lat="42.31086" lon="19.79533">
        <ele>380.82000732422</ele>
        <time>2024-09-23T14:42:24.000Z</time>
      </trkpt>
      <trkpt lat="42.31081" lon="19.79541">
        <ele>380.82000732422</ele>
        <time>2024-09-23T14:42:25.000Z</time>
      </trkpt>
      <trkpt lat="42.31074" lon="19.7955">
        <ele>380.82000732422</ele>
        <time>2024-09-23T14:42:26.000Z</time>
      </trkpt>
      <trkpt lat="42.31069" lon="19.79556">
        <ele>380.33999633789</ele>
        <time>2024-09-23T14:42:27.000Z</time>
      </trkpt>
      <trkpt lat="42.31061" lon="19.79563">
        <ele>379.85998535156</ele>
        <time>2024-09-23T14:42:28.000Z</time>
      </trkpt>
      <trkpt lat="42.31052" lon="19.79568">
        <ele>379.38000488281</ele>
        <time>2024-09-23T14:42:29.000Z</time>
      </trkpt>
      <trkpt lat="42.31043" lon="19.79571">
        <ele>378.42001342773</ele>
        <time>2024-09-23T14:42:30.000Z</time>
      </trkpt>
      <trkpt lat="42.31035" lon="19.79572">
        <ele>377.45001220703</ele>
        <time>2024-09-23T14:42:31.000Z</time>
      </trkpt>
      <trkpt lat="42.31029" lon="19.79571">
        <ele>376.9700012207</ele>
        <time>2024-09-23T14:42:32.000Z</time>
      </trkpt>
      <trkpt lat="42.31023" lon="19.79567">
        <ele>376.01000976562</ele>
        <time>2024-09-23T14:42:33.000Z</time>
      </trkpt>
      <trkpt lat="42.31019" lon="19.79562">
        <ele>375.5299987793</ele>
        <time>2024-09-23T14:42:34.000Z</time>
      </trkpt>
      <trkpt lat="42.31015" lon="19.79556">
        <ele>374.57000732422</ele>
        <time>2024-09-23T14:42:35.000Z</time>
      </trkpt>
      <trkpt lat="42.31013" lon="19.79549">
        <ele>373.60998535156</ele>
        <time>2024-09-23T14:42:36.000Z</time>
      </trkpt>
      <trkpt lat="42.31012" lon="19.79539">
        <ele>372.64999389648</ele>
        <time>2024-09-23T14:42:37.000Z</time>
      </trkpt>
      <trkpt lat="42.31012" lon="19.79531">
        <ele>372.17001342773</ele>
        <time>2024-09-23T14:42:38.000Z</time>
      </trkpt>
      <trkpt lat="42.31013" lon="19.79504">
        <ele>368.79998779297</ele>
        <time>2024-09-23T14:42:40.000Z</time>
      </trkpt>
      <trkpt lat="42.31015" lon="19.79464">
        <ele>364.95999145508</ele>
        <time>2024-09-23T14:42:44.000Z</time>
      </trkpt>
      <trkpt lat="42.31015" lon="19.79457">
        <ele>364</ele>
        <time>2024-09-23T14:42:45.000Z</time>
      </trkpt>
      <trkpt lat="42.31015" lon="19.79452">
        <ele>363.51998901367</ele>
        <time>2024-09-23T14:42:46.000Z</time>
      </trkpt>
      <trkpt lat="42.31013" lon="19.79445">
        <ele>362.54998779297</ele>
        <time>2024-09-23T14:42:47.000Z</time>
      </trkpt>
      <trkpt lat="42.31012" lon="19.79439">
        <ele>362.07000732422</ele>
        <time>2024-09-23T14:42:48.000Z</time>
      </trkpt>
      <trkpt lat="42.31009" lon="19.79433">
        <ele>361.58999633789</ele>
        <time>2024-09-23T14:42:49.000Z</time>
      </trkpt>
      <trkpt lat="42.31006" lon="19.79428">
        <ele>360.63000488281</ele>
        <time>2024-09-23T14:42:50.000Z</time>
      </trkpt>
      <trkpt lat="42.31003" lon="19.79424">
        <ele>360.14999389648</ele>
        <time>2024-09-23T14:42:51.000Z</time>
      </trkpt>
      <trkpt lat="42.30998" lon="19.79419">
        <ele>359.19000244141</ele>
        <time>2024-09-23T14:42:52.000Z</time>
      </trkpt>
      <trkpt lat="42.30987" lon="19.79409">
        <ele>357.26998901367</ele>
        <time>2024-09-23T14:42:54.000Z</time>
      </trkpt>
      <trkpt lat="42.30984" lon="19.79406">
        <ele>356.79000854492</ele>
        <time>2024-09-23T14:42:55.000Z</time>
      </trkpt>
      <trkpt lat="42.3098" lon="19.79402">
        <ele>356.30999755859</ele>
        <time>2024-09-23T14:42:56.000Z</time>
      </trkpt>
      <trkpt lat="42.30973" lon="19.79395">
        <ele>355.33999633789</ele>
        <time>2024-09-23T14:42:57.000Z</time>
      </trkpt>
      <trkpt lat="42.3097" lon="19.79392">
        <ele>354.85998535156</ele>
        <time>2024-09-23T14:42:58.000Z</time>
      </trkpt>
      <trkpt lat="42.30964" lon="19.79387">
        <ele>353.89999389648</ele>
        <time>2024-09-23T14:42:59.000Z</time>
      </trkpt>
      <trkpt lat="42.30961" lon="19.79385">
        <ele>353.42001342773</ele>
        <time>2024-09-23T14:43:00.000Z</time>
      </trkpt>
      <trkpt lat="42.30956" lon="19.79383">
        <ele>352.94000244141</ele>
        <time>2024-09-23T14:43:01.000Z</time>
      </trkpt>
      <trkpt lat="42.30949" lon="19.7938">
        <ele>352.45999145508</ele>
        <time>2024-09-23T14:43:02.000Z</time>
      </trkpt>
      <trkpt lat="42.30946" lon="19.7938">
        <ele>351.98001098633</ele>
        <time>2024-09-23T14:43:03.000Z</time>
      </trkpt>
      <trkpt lat="42.3094" lon="19.7938">
        <ele>351.98001098633</ele>
        <time>2024-09-23T14:43:04.000Z</time>
      </trkpt>
      <trkpt lat="42.30936" lon="19.7938">
        <ele>351.98001098633</ele>
        <time>2024-09-23T14:43:05.000Z</time>
      </trkpt>
      <trkpt lat="42.30931" lon="19.79382">
        <ele>351.5</ele>
        <time>2024-09-23T14:43:06.000Z</time>
      </trkpt>
      <trkpt lat="42.30928" lon="19.79383">
        <ele>351.5</ele>
        <time>2024-09-23T14:43:07.000Z</time>
      </trkpt>
      <trkpt lat="42.30919" lon="19.79389">
        <ele>351.5</ele>
        <time>2024-09-23T14:43:09.000Z</time>
      </trkpt>
      <trkpt lat="42.30917" lon="19.79391">
        <ele>351.5</ele>
        <time>2024-09-23T14:43:10.000Z</time>
      </trkpt>
      <trkpt lat="42.30914" lon="19.79395">
        <ele>351.5</ele>
        <time>2024-09-23T14:43:11.000Z</time>
      </trkpt>
      <trkpt lat="42.30911" lon="19.794">
        <ele>351.5</ele>
        <time>2024-09-23T14:43:12.000Z</time>
      </trkpt>
      <trkpt lat="42.30902" lon="19.79416">
        <ele>352.45999145508</ele>
        <time>2024-09-23T14:43:15.000Z</time>
      </trkpt>
      <trkpt lat="42.30898" lon="19.79422">
        <ele>352.45999145508</ele>
        <time>2024-09-23T14:43:16.000Z</time>
      </trkpt>
      <trkpt lat="42.30896" lon="19.79425">
        <ele>352.45999145508</ele>
        <time>2024-09-23T14:43:17.000Z</time>
      </trkpt>
      <trkpt lat="42.30893" lon="19.79429">
        <ele>351.98001098633</ele>
        <time>2024-09-23T14:43:18.000Z</time>
      </trkpt>
      <trkpt lat="42.30888" lon="19.79434">
        <ele>351.98001098633</ele>
        <time>2024-09-23T14:43:19.000Z</time>
      </trkpt>
      <trkpt lat="42.3088" lon="19.79439">
        <ele>351.98001098633</ele>
        <time>2024-09-23T14:43:20.000Z</time>
      </trkpt>
      <trkpt lat="42.30873" lon="19.79444">
        <ele>352.45999145508</ele>
        <time>2024-09-23T14:43:22.000Z</time>
      </trkpt>
      <trkpt lat="42.30863" lon="19.79451">
        <ele>352.94000244141</ele>
        <time>2024-09-23T14:43:23.000Z</time>
      </trkpt>
      <trkpt lat="42.30862" lon="19.79452">
        <ele>352.94000244141</ele>
        <time>2024-09-23T14:43:24.000Z</time>
      </trkpt>
      <trkpt lat="42.30853" lon="19.79459">
        <ele>353.42001342773</ele>
        <time>2024-09-23T14:43:26.000Z</time>
      </trkpt>
      <trkpt lat="42.30839" lon="19.79471">
        <ele>352.45999145508</ele>
        <time>2024-09-23T14:43:30.000Z</time>
      </trkpt>
      <trkpt lat="42.30835" lon="19.79474">
        <ele>352.45999145508</ele>
        <time>2024-09-23T14:43:31.000Z</time>
      </trkpt>
      <trkpt lat="42.30831" lon="19.79477">
        <ele>351.98001098633</ele>
        <time>2024-09-23T14:43:32.000Z</time>
      </trkpt>
      <trkpt lat="42.30819" lon="19.79485">
        <ele>351.98001098633</ele>
        <time>2024-09-23T14:43:39.000Z</time>
      </trkpt>
      <trkpt lat="42.30813" lon="19.7949">
        <ele>351.5</ele>
        <time>2024-09-23T14:43:45.000Z</time>
      </trkpt>
      <trkpt lat="42.30806" lon="19.79494">
        <ele>351.01998901367</ele>
        <time>2024-09-23T14:43:46.000Z</time>
      </trkpt>
      <trkpt lat="42.30804" lon="19.79495">
        <ele>351.01998901367</ele>
        <time>2024-09-23T14:43:47.000Z</time>
      </trkpt>
      <trkpt lat="42.30799" lon="19.79499">
        <ele>351.01998901367</ele>
        <time>2024-09-23T14:43:48.000Z</time>
      </trkpt>
      <trkpt lat="42.30793" lon="19.79502">
        <ele>350.54000854492</ele>
        <time>2024-09-23T14:43:49.000Z</time>
      </trkpt>
      <trkpt lat="42.30786" lon="19.79504">
        <ele>350.05999755859</ele>
        <time>2024-09-23T14:43:50.000Z</time>
      </trkpt>
      <trkpt lat="42.30778" lon="19.79505">
        <ele>349.57998657227</ele>
        <time>2024-09-23T14:43:51.000Z</time>
      </trkpt>
      <trkpt lat="42.30768" lon="19.79505">
        <ele>348.61999511719</ele>
        <time>2024-09-23T14:43:52.000Z</time>
      </trkpt>
      <trkpt lat="42.30759" lon="19.79506">
        <ele>348.13000488281</ele>
        <time>2024-09-23T14:43:53.000Z</time>
      </trkpt>
      <trkpt lat="42.30751" lon="19.79507">
        <ele>347.64999389648</ele>
        <time>2024-09-23T14:43:54.000Z</time>
      </trkpt>
      <trkpt lat="42.3074" lon="19.79512">
        <ele>347.17001342773</ele>
        <time>2024-09-23T14:43:55.000Z</time>
      </trkpt>
      <trkpt lat="42.30729" lon="19.79518">
        <ele>346.69000244141</ele>
        <time>2024-09-23T14:43:56.000Z</time>
      </trkpt>
      <trkpt lat="42.30717" lon="19.79526">
        <ele>346.69000244141</ele>
        <time>2024-09-23T14:43:57.000Z</time>
      </trkpt>
      <trkpt lat="42.30703" lon="19.79538">
        <ele>346.20999145508</ele>
        <time>2024-09-23T14:43:58.000Z</time>
      </trkpt>
      <trkpt lat="42.30699" lon="19.79542">
        <ele>345.73001098633</ele>
        <time>2024-09-23T14:43:59.000Z</time>
      </trkpt>
      <trkpt lat="42.30686" lon="19.79552">
        <ele>345.73001098633</ele>
        <time>2024-09-23T14:44:00.000Z</time>
      </trkpt>
      <trkpt lat="42.30661" lon="19.79577">
        <ele>345.73001098633</ele>
        <time>2024-09-23T14:44:03.000Z</time>
      </trkpt>
      <trkpt lat="42.30633" lon="19.79604">
        <ele>345.73001098633</ele>
        <time>2024-09-23T14:44:05.000Z</time>
      </trkpt>
      <trkpt lat="42.30626" lon="19.7961">
        <ele>346.20999145508</ele>
        <time>2024-09-23T14:44:06.000Z</time>
      </trkpt>
      <trkpt lat="42.3062" lon="19.79616">
        <ele>346.69000244141</ele>
        <time>2024-09-23T14:44:07.000Z</time>
      </trkpt>
      <trkpt lat="42.30613" lon="19.79621">
        <ele>347.17001342773</ele>
        <time>2024-09-23T14:44:08.000Z</time>
      </trkpt>
      <trkpt lat="42.30598" lon="19.7963">
        <ele>347.64999389648</ele>
        <time>2024-09-23T14:44:09.000Z</time>
      </trkpt>
      <trkpt lat="42.30578" lon="19.79642">
        <ele>348.13000488281</ele>
        <time>2024-09-23T14:44:11.000Z</time>
      </trkpt>
      <trkpt lat="42.30564" lon="19.79651">
        <ele>348.61999511719</ele>
        <time>2024-09-23T14:44:13.000Z</time>
      </trkpt>
      <trkpt lat="42.30561" lon="19.79652">
        <ele>349.10000610352</ele>
        <time>2024-09-23T14:44:14.000Z</time>
      </trkpt>
      <trkpt lat="42.30556" lon="19.79656">
        <ele>349.57998657227</ele>
        <time>2024-09-23T14:44:15.000Z</time>
      </trkpt>
      <trkpt lat="42.30548" lon="19.79661">
        <ele>349.57998657227</ele>
        <time>2024-09-23T14:44:16.000Z</time>
      </trkpt>
      <trkpt lat="42.30541" lon="19.79665">
        <ele>349.57998657227</ele>
        <time>2024-09-23T14:44:17.000Z</time>
      </trkpt>
      <trkpt lat="42.30532" lon="19.7967">
        <ele>349.57998657227</ele>
        <time>2024-09-23T14:44:18.000Z</time>
      </trkpt>
      <trkpt lat="42.30522" lon="19.79675">
        <ele>349.57998657227</ele>
        <time>2024-09-23T14:44:19.000Z</time>
      </trkpt>
      <trkpt lat="42.30517" lon="19.79677">
        <ele>349.57998657227</ele>
        <time>2024-09-23T14:44:20.000Z</time>
      </trkpt>
      <trkpt lat="42.30507" lon="19.79679">
        <ele>349.10000610352</ele>
        <time>2024-09-23T14:44:21.000Z</time>
      </trkpt>
      <trkpt lat="42.30491" lon="19.79683">
        <ele>349.10000610352</ele>
        <time>2024-09-23T14:44:22.000Z</time>
      </trkpt>
      <trkpt lat="42.30479" lon="19.79686">
        <ele>349.10000610352</ele>
        <time>2024-09-23T14:44:23.000Z</time>
      </trkpt>
      <trkpt lat="42.30456" lon="19.79695">
        <ele>349.10000610352</ele>
        <time>2024-09-23T14:44:26.000Z</time>
      </trkpt>
      <trkpt lat="42.30446" lon="19.79697">
        <ele>348.61999511719</ele>
        <time>2024-09-23T14:44:27.000Z</time>
      </trkpt>
      <trkpt lat="42.30437" lon="19.79698">
        <ele>348.61999511719</ele>
        <time>2024-09-23T14:44:28.000Z</time>
      </trkpt>
      <trkpt lat="42.30429" lon="19.79697">
        <ele>348.61999511719</ele>
        <time>2024-09-23T14:44:29.000Z</time>
      </trkpt>
      <trkpt lat="42.30422" lon="19.79697">
        <ele>349.10000610352</ele>
        <time>2024-09-23T14:44:30.000Z</time>
      </trkpt>
      <trkpt lat="42.30416" lon="19.79695">
        <ele>349.57998657227</ele>
        <time>2024-09-23T14:44:31.000Z</time>
      </trkpt>
      <trkpt lat="42.3041" lon="19.79692">
        <ele>350.05999755859</ele>
        <time>2024-09-23T14:44:32.000Z</time>
      </trkpt>
      <trkpt lat="42.30408" lon="19.79691">
        <ele>350.05999755859</ele>
        <time>2024-09-23T14:44:33.000Z</time>
      </trkpt>
      <trkpt lat="42.30401" lon="19.79687">
        <ele>349.10000610352</ele>
        <time>2024-09-23T14:44:35.000Z</time>
      </trkpt>
      <trkpt lat="42.30398" lon="19.79685">
        <ele>348.61999511719</ele>
        <time>2024-09-23T14:44:36.000Z</time>
      </trkpt>
      <trkpt lat="42.30393" lon="19.79683">
        <ele>348.61999511719</ele>
        <time>2024-09-23T14:44:37.000Z</time>
      </trkpt>
      <trkpt lat="42.30387" lon="19.79683">
        <ele>349.10000610352</ele>
        <time>2024-09-23T14:44:38.000Z</time>
      </trkpt>
      <trkpt lat="42.30383" lon="19.79684">
        <ele>349.57998657227</ele>
        <time>2024-09-23T14:44:39.000Z</time>
      </trkpt>
      <trkpt lat="42.30379" lon="19.79688">
        <ele>350.05999755859</ele>
        <time>2024-09-23T14:44:40.000Z</time>
      </trkpt>
      <trkpt lat="42.30375" lon="19.79694">
        <ele>350.54000854492</ele>
        <time>2024-09-23T14:44:41.000Z</time>
      </trkpt>
      <trkpt lat="42.30371" lon="19.79702">
        <ele>350.54000854492</ele>
        <time>2024-09-23T14:44:42.000Z</time>
      </trkpt>
      <trkpt lat="42.30364" lon="19.79711">
        <ele>351.01998901367</ele>
        <time>2024-09-23T14:44:43.000Z</time>
      </trkpt>
      <trkpt lat="42.30359" lon="19.79715">
        <ele>351.5</ele>
        <time>2024-09-23T14:44:44.000Z</time>
      </trkpt>
      <trkpt lat="42.3035" lon="19.79718">
        <ele>352.94000244141</ele>
        <time>2024-09-23T14:44:45.000Z</time>
      </trkpt>
      <trkpt lat="42.30332" lon="19.79724">
        <ele>353.42001342773</ele>
        <time>2024-09-23T14:44:47.000Z</time>
      </trkpt>
      <trkpt lat="42.30321" lon="19.79728">
        <ele>353.89999389648</ele>
        <time>2024-09-23T14:44:48.000Z</time>
      </trkpt>
      <trkpt lat="42.30313" lon="19.79733">
        <ele>353.89999389648</ele>
        <time>2024-09-23T14:44:49.000Z</time>
      </trkpt>
      <trkpt lat="42.30307" lon="19.79738">
        <ele>354.38000488281</ele>
        <time>2024-09-23T14:44:50.000Z</time>
      </trkpt>
      <trkpt lat="42.303" lon="19.79744">
        <ele>354.38000488281</ele>
        <time>2024-09-23T14:44:51.000Z</time>
      </trkpt>
      <trkpt lat="42.30294" lon="19.79748">
        <ele>354.38000488281</ele>
        <time>2024-09-23T14:44:52.000Z</time>
      </trkpt>
      <trkpt lat="42.30288" lon="19.79749">
        <ele>354.85998535156</ele>
        <time>2024-09-23T14:44:53.000Z</time>
      </trkpt>
      <trkpt lat="42.30282" lon="19.79746">
        <ele>355.33999633789</ele>
        <time>2024-09-23T14:44:54.000Z</time>
      </trkpt>
      <trkpt lat="42.30275" lon="19.7974">
        <ele>355.33999633789</ele>
        <time>2024-09-23T14:44:55.000Z</time>
      </trkpt>
      <trkpt lat="42.30268" lon="19.79733">
        <ele>355.82998657227</ele>
        <time>2024-09-23T14:44:56.000Z</time>
      </trkpt>
      <trkpt lat="42.30263" lon="19.79729">
        <ele>355.82998657227</ele>
        <time>2024-09-23T14:44:57.000Z</time>
      </trkpt>
      <trkpt lat="42.30254" lon="19.79719">
        <ele>356.79000854492</ele>
        <time>2024-09-23T14:44:58.000Z</time>
      </trkpt>
      <trkpt lat="42.30247" lon="19.79713">
        <ele>357.26998901367</ele>
        <time>2024-09-23T14:44:59.000Z</time>
      </trkpt>
      <trkpt lat="42.30241" lon="19.79709">
        <ele>357.75</ele>
        <time>2024-09-23T14:45:00.000Z</time>
      </trkpt>
      <trkpt lat="42.30234" lon="19.79706">
        <ele>358.23001098633</ele>
        <time>2024-09-23T14:45:01.000Z</time>
      </trkpt>
      <trkpt lat="42.30227" lon="19.79706">
        <ele>358.70999145508</ele>
        <time>2024-09-23T14:45:02.000Z</time>
      </trkpt>
      <trkpt lat="42.3022" lon="19.79708">
        <ele>359.19000244141</ele>
        <time>2024-09-23T14:45:03.000Z</time>
      </trkpt>
      <trkpt lat="42.30212" lon="19.79713">
        <ele>359.67001342773</ele>
        <time>2024-09-23T14:45:04.000Z</time>
      </trkpt>
      <trkpt lat="42.30206" lon="19.79714">
        <ele>360.63000488281</ele>
        <time>2024-09-23T14:45:05.000Z</time>
      </trkpt>
      <trkpt lat="42.30202" lon="19.79712">
        <ele>360.63000488281</ele>
        <time>2024-09-23T14:45:06.000Z</time>
      </trkpt>
      <trkpt lat="42.30196" lon="19.79707">
        <ele>361.10998535156</ele>
        <time>2024-09-23T14:45:07.000Z</time>
      </trkpt>
      <trkpt lat="42.30191" lon="19.79701">
        <ele>361.58999633789</ele>
        <time>2024-09-23T14:45:08.000Z</time>
      </trkpt>
      <trkpt lat="42.30185" lon="19.79697">
        <ele>361.58999633789</ele>
        <time>2024-09-23T14:45:09.000Z</time>
      </trkpt>
      <trkpt lat="42.30179" lon="19.79696">
        <ele>362.07000732422</ele>
        <time>2024-09-23T14:45:10.000Z</time>
      </trkpt>
      <trkpt lat="42.30173" lon="19.79699">
        <ele>362.07000732422</ele>
        <time>2024-09-23T14:45:11.000Z</time>
      </trkpt>
      <trkpt lat="42.30152" lon="19.79716">
        <ele>362.54998779297</ele>
        <time>2024-09-23T14:45:13.000Z</time>
      </trkpt>
      <trkpt lat="42.30143" lon="19.79724">
        <ele>363.51998901367</ele>
        <time>2024-09-23T14:45:14.000Z</time>
      </trkpt>
      <trkpt lat="42.30135" lon="19.79731">
        <ele>364.48001098633</ele>
        <time>2024-09-23T14:45:15.000Z</time>
      </trkpt>
      <trkpt lat="42.30127" lon="19.79736">
        <ele>364.95999145508</ele>
        <time>2024-09-23T14:45:16.000Z</time>
      </trkpt>
      <trkpt lat="42.3012" lon="19.79738">
        <ele>365.44000244141</ele>
        <time>2024-09-23T14:45:17.000Z</time>
      </trkpt>
      <trkpt lat="42.30111" lon="19.79737">
        <ele>366.39999389648</ele>
        <time>2024-09-23T14:45:18.000Z</time>
      </trkpt>
      <trkpt lat="42.30091" lon="19.79727">
        <ele>366.88000488281</ele>
        <time>2024-09-23T14:45:20.000Z</time>
      </trkpt>
      <trkpt lat="42.30082" lon="19.79725">
        <ele>366.88000488281</ele>
        <time>2024-09-23T14:45:21.000Z</time>
      </trkpt>
      <trkpt lat="42.30068" lon="19.79721">
        <ele>365.92001342773</ele>
        <time>2024-09-23T14:45:22.000Z</time>
      </trkpt>
      <trkpt lat="42.30055" lon="19.79717">
        <ele>365.44000244141</ele>
        <time>2024-09-23T14:45:23.000Z</time>
      </trkpt>
      <trkpt lat="42.30048" lon="19.79713">
        <ele>364.48001098633</ele>
        <time>2024-09-23T14:45:24.000Z</time>
      </trkpt>
      <trkpt lat="42.3003" lon="19.79704">
        <ele>363.51998901367</ele>
        <time>2024-09-23T14:45:25.000Z</time>
      </trkpt>
      <trkpt lat="42.30025" lon="19.79702">
        <ele>363.04000854492</ele>
        <time>2024-09-23T14:45:26.000Z</time>
      </trkpt>
      <trkpt lat="42.30012" lon="19.79697">
        <ele>362.54998779297</ele>
        <time>2024-09-23T14:45:27.000Z</time>
      </trkpt>
      <trkpt lat="42.30005" lon="19.79692">
        <ele>362.07000732422</ele>
        <time>2024-09-23T14:45:28.000Z</time>
      </trkpt>
      <trkpt lat="42.29998" lon="19.79684">
        <ele>362.07000732422</ele>
        <time>2024-09-23T14:45:29.000Z</time>
      </trkpt>
      <trkpt lat="42.29988" lon="19.7967">
        <ele>362.07000732422</ele>
        <time>2024-09-23T14:45:30.000Z</time>
      </trkpt>
      <trkpt lat="42.29984" lon="19.79665">
        <ele>362.07000732422</ele>
        <time>2024-09-23T14:45:31.000Z</time>
      </trkpt>
      <trkpt lat="42.29977" lon="19.79659">
        <ele>362.07000732422</ele>
        <time>2024-09-23T14:45:32.000Z</time>
      </trkpt>
      <trkpt lat="42.29968" lon="19.79654">
        <ele>362.07000732422</ele>
        <time>2024-09-23T14:45:33.000Z</time>
      </trkpt>
      <trkpt lat="42.29956" lon="19.79648">
        <ele>361.58999633789</ele>
        <time>2024-09-23T14:45:34.000Z</time>
      </trkpt>
      <trkpt lat="42.29953" lon="19.79647">
        <ele>361.58999633789</ele>
        <time>2024-09-23T14:45:35.000Z</time>
      </trkpt>
      <trkpt lat="42.29947" lon="19.79646">
        <ele>361.58999633789</ele>
        <time>2024-09-23T14:45:36.000Z</time>
      </trkpt>
      <trkpt lat="42.29941" lon="19.79649">
        <ele>361.58999633789</ele>
        <time>2024-09-23T14:45:37.000Z</time>
      </trkpt>
      <trkpt lat="42.29935" lon="19.79653">
        <ele>361.58999633789</ele>
        <time>2024-09-23T14:45:38.000Z</time>
      </trkpt>
      <trkpt lat="42.29929" lon="19.79657">
        <ele>361.58999633789</ele>
        <time>2024-09-23T14:45:39.000Z</time>
      </trkpt>
      <trkpt lat="42.29922" lon="19.7966">
        <ele>361.58999633789</ele>
        <time>2024-09-23T14:45:40.000Z</time>
      </trkpt>
      <trkpt lat="42.29913" lon="19.79661">
        <ele>362.07000732422</ele>
        <time>2024-09-23T14:45:41.000Z</time>
      </trkpt>
      <trkpt lat="42.29901" lon="19.7966">
        <ele>362.07000732422</ele>
        <time>2024-09-23T14:45:42.000Z</time>
      </trkpt>
      <trkpt lat="42.29887" lon="19.79658">
        <ele>362.07000732422</ele>
        <time>2024-09-23T14:45:43.000Z</time>
      </trkpt>
      <trkpt lat="42.29866" lon="19.79654">
        <ele>361.58999633789</ele>
        <time>2024-09-23T14:45:45.000Z</time>
      </trkpt>
      <trkpt lat="42.29859" lon="19.79652">
        <ele>361.58999633789</ele>
        <time>2024-09-23T14:45:46.000Z</time>
      </trkpt>
      <trkpt lat="42.29849" lon="19.79648">
        <ele>361.58999633789</ele>
        <time>2024-09-23T14:45:47.000Z</time>
      </trkpt>
      <trkpt lat="42.29838" lon="19.79642">
        <ele>362.07000732422</ele>
        <time>2024-09-23T14:45:48.000Z</time>
      </trkpt>
      <trkpt lat="42.29831" lon="19.79639">
        <ele>361.58999633789</ele>
        <time>2024-09-23T14:45:49.000Z</time>
      </trkpt>
      <trkpt lat="42.29824" lon="19.79637">
        <ele>362.07000732422</ele>
        <time>2024-09-23T14:45:50.000Z</time>
      </trkpt>
      <trkpt lat="42.29814" lon="19.79636">
        <ele>361.58999633789</ele>
        <time>2024-09-23T14:45:51.000Z</time>
      </trkpt>
      <trkpt lat="42.29799" lon="19.79633">
        <ele>361.58999633789</ele>
        <time>2024-09-23T14:45:53.000Z</time>
      </trkpt>
      <trkpt lat="42.29793" lon="19.7963">
        <ele>361.10998535156</ele>
        <time>2024-09-23T14:45:54.000Z</time>
      </trkpt>
      <trkpt lat="42.29784" lon="19.79625">
        <ele>360.63000488281</ele>
        <time>2024-09-23T14:45:55.000Z</time>
      </trkpt>
      <trkpt lat="42.29773" lon="19.79618">
        <ele>360.14999389648</ele>
        <time>2024-09-23T14:45:56.000Z</time>
      </trkpt>
      <trkpt lat="42.29762" lon="19.79615">
        <ele>358.23001098633</ele>
        <time>2024-09-23T14:45:57.000Z</time>
      </trkpt>
      <trkpt lat="42.29751" lon="19.79613">
        <ele>356.79000854492</ele>
        <time>2024-09-23T14:45:58.000Z</time>
      </trkpt>
      <trkpt lat="42.29735" lon="19.79612">
        <ele>355.82998657227</ele>
        <time>2024-09-23T14:45:59.000Z</time>
      </trkpt>
      <trkpt lat="42.29716" lon="19.79611">
        <ele>353.89999389648</ele>
        <time>2024-09-23T14:46:00.000Z</time>
      </trkpt>
      <trkpt lat="42.29686" lon="19.79606">
        <ele>352.45999145508</ele>
        <time>2024-09-23T14:46:02.000Z</time>
      </trkpt>
      <trkpt lat="42.29683" lon="19.79606">
        <ele>352.45999145508</ele>
        <time>2024-09-23T14:46:03.000Z</time>
      </trkpt>
      <trkpt lat="42.29667" lon="19.796">
        <ele>351.98001098633</ele>
        <time>2024-09-23T14:46:04.000Z</time>
      </trkpt>
      <trkpt lat="42.29664" lon="19.796">
        <ele>351.98001098633</ele>
        <time>2024-09-23T14:46:05.000Z</time>
      </trkpt>
      <trkpt lat="42.29656" lon="19.796">
        <ele>351.98001098633</ele>
        <time>2024-09-23T14:46:06.000Z</time>
      </trkpt>
      <trkpt lat="42.29648" lon="19.79603">
        <ele>351.98001098633</ele>
        <time>2024-09-23T14:46:07.000Z</time>
      </trkpt>
      <trkpt lat="42.29636" lon="19.79612">
        <ele>351.5</ele>
        <time>2024-09-23T14:46:08.000Z</time>
      </trkpt>
      <trkpt lat="42.2963" lon="19.79615">
        <ele>351.01998901367</ele>
        <time>2024-09-23T14:46:09.000Z</time>
      </trkpt>
      <trkpt lat="42.29618" lon="19.7962">
        <ele>350.54000854492</ele>
        <time>2024-09-23T14:46:10.000Z</time>
      </trkpt>
      <trkpt lat="42.29577" lon="19.79624">
        <ele>347.64999389648</ele>
        <time>2024-09-23T14:46:13.000Z</time>
      </trkpt>
      <trkpt lat="42.29568" lon="19.79624">
        <ele>347.17001342773</ele>
        <time>2024-09-23T14:46:14.000Z</time>
      </trkpt>
      <trkpt lat="42.29554" lon="19.79622">
        <ele>346.20999145508</ele>
        <time>2024-09-23T14:46:15.000Z</time>
      </trkpt>
      <trkpt lat="42.29549" lon="19.79622">
        <ele>346.20999145508</ele>
        <time>2024-09-23T14:46:16.000Z</time>
      </trkpt>
      <trkpt lat="42.29541" lon="19.79623">
        <ele>346.69000244141</ele>
        <time>2024-09-23T14:46:17.000Z</time>
      </trkpt>
      <trkpt lat="42.29534" lon="19.79627">
        <ele>346.69000244141</ele>
        <time>2024-09-23T14:46:18.000Z</time>
      </trkpt>
      <trkpt lat="42.29529" lon="19.79635">
        <ele>346.69000244141</ele>
        <time>2024-09-23T14:46:19.000Z</time>
      </trkpt>
      <trkpt lat="42.29525" lon="19.79648">
        <ele>346.69000244141</ele>
        <time>2024-09-23T14:46:20.000Z</time>
      </trkpt>
      <trkpt lat="42.29519" lon="19.79664">
        <ele>346.20999145508</ele>
        <time>2024-09-23T14:46:21.000Z</time>
      </trkpt>
      <trkpt lat="42.29514" lon="19.79679">
        <ele>345.73001098633</ele>
        <time>2024-09-23T14:46:22.000Z</time>
      </trkpt>
      <trkpt lat="42.29509" lon="19.7969">
        <ele>345.73001098633</ele>
        <time>2024-09-23T14:46:23.000Z</time>
      </trkpt>
      <trkpt lat="42.29493" lon="19.79714">
        <ele>344.76998901367</ele>
        <time>2024-09-23T14:46:25.000Z</time>
      </trkpt>
      <trkpt lat="42.2949" lon="19.79718">
        <ele>344.29000854492</ele>
        <time>2024-09-23T14:46:26.000Z</time>
      </trkpt>
      <trkpt lat="42.29487" lon="19.79722">
        <ele>343.80999755859</ele>
        <time>2024-09-23T14:46:27.000Z</time>
      </trkpt>
      <trkpt lat="42.2947" lon="19.79721">
        <ele>341.89001464844</ele>
        <time>2024-09-23T14:46:32.000Z</time>
      </trkpt>
      <trkpt lat="42.29467" lon="19.7971">
        <ele>341.89001464844</ele>
        <time>2024-09-23T14:46:35.000Z</time>
      </trkpt>
      <trkpt lat="42.29467" lon="19.79705">
        <ele>342.36999511719</ele>
        <time>2024-09-23T14:46:36.000Z</time>
      </trkpt>
      <trkpt lat="42.29467" lon="19.79697">
        <ele>342.36999511719</ele>
        <time>2024-09-23T14:46:37.000Z</time>
      </trkpt>
      <trkpt lat="42.29467" lon="19.79687">
        <ele>342.85000610352</ele>
        <time>2024-09-23T14:46:38.000Z</time>
      </trkpt>
      <trkpt lat="42.29466" lon="19.79677">
        <ele>343.32998657227</ele>
        <time>2024-09-23T14:46:39.000Z</time>
      </trkpt>
      <trkpt lat="42.29465" lon="19.79669">
        <ele>344.29000854492</ele>
        <time>2024-09-23T14:46:40.000Z</time>
      </trkpt>
      <trkpt lat="42.29462" lon="19.79661">
        <ele>344.76998901367</ele>
        <time>2024-09-23T14:46:41.000Z</time>
      </trkpt>
      <trkpt lat="42.29451" lon="19.79639">
        <ele>345.25</ele>
        <time>2024-09-23T14:46:43.000Z</time>
      </trkpt>
      <trkpt lat="42.29448" lon="19.79633">
        <ele>345.25</ele>
        <time>2024-09-23T14:46:44.000Z</time>
      </trkpt>
      <trkpt lat="42.29446" lon="19.79629">
        <ele>345.25</ele>
        <time>2024-09-23T14:46:45.000Z</time>
      </trkpt>
      <trkpt lat="42.29437" lon="19.79608">
        <ele>345.25</ele>
        <time>2024-09-23T14:46:47.000Z</time>
      </trkpt>
      <trkpt lat="42.29436" lon="19.79606">
        <ele>345.25</ele>
        <time>2024-09-23T14:46:48.000Z</time>
      </trkpt>
      <trkpt lat="42.29433" lon="19.79602">
        <ele>345.73001098633</ele>
        <time>2024-09-23T14:46:49.000Z</time>
      </trkpt>
      <trkpt lat="42.29424" lon="19.79596">
        <ele>346.69000244141</ele>
        <time>2024-09-23T14:46:51.000Z</time>
      </trkpt>
      <trkpt lat="42.29422" lon="19.79597">
        <ele>346.69000244141</ele>
        <time>2024-09-23T14:46:52.000Z</time>
      </trkpt>
      <trkpt lat="42.29416" lon="19.796">
        <ele>346.69000244141</ele>
        <time>2024-09-23T14:46:53.000Z</time>
      </trkpt>
      <trkpt lat="42.29411" lon="19.79605">
        <ele>346.20999145508</ele>
        <time>2024-09-23T14:46:54.000Z</time>
      </trkpt>
      <trkpt lat="42.29403" lon="19.79612">
        <ele>345.73001098633</ele>
        <time>2024-09-23T14:46:55.000Z</time>
      </trkpt>
      <trkpt lat="42.29388" lon="19.7962">
        <ele>344.29000854492</ele>
        <time>2024-09-23T14:46:57.000Z</time>
      </trkpt>
      <trkpt lat="42.29369" lon="19.79632">
        <ele>343.32998657227</ele>
        <time>2024-09-23T14:46:59.000Z</time>
      </trkpt>
      <trkpt lat="42.29362" lon="19.79635">
        <ele>342.85000610352</ele>
        <time>2024-09-23T14:47:00.000Z</time>
      </trkpt>
      <trkpt lat="42.29354" lon="19.79635">
        <ele>342.85000610352</ele>
        <time>2024-09-23T14:47:01.000Z</time>
      </trkpt>
      <trkpt lat="42.29345" lon="19.79632">
        <ele>342.36999511719</ele>
        <time>2024-09-23T14:47:02.000Z</time>
      </trkpt>
      <trkpt lat="42.29335" lon="19.79629">
        <ele>341.41000366211</ele>
        <time>2024-09-23T14:47:03.000Z</time>
      </trkpt>
      <trkpt lat="42.29297" lon="19.79622">
        <ele>339.48001098633</ele>
        <time>2024-09-23T14:47:07.000Z</time>
      </trkpt>
      <trkpt lat="42.29293" lon="19.79621">
        <ele>339</ele>
        <time>2024-09-23T14:47:08.000Z</time>
      </trkpt>
      <trkpt lat="42.29286" lon="19.79622">
        <ele>338.51998901367</ele>
        <time>2024-09-23T14:47:09.000Z</time>
      </trkpt>
      <trkpt lat="42.29281" lon="19.79623">
        <ele>338.04000854492</ele>
        <time>2024-09-23T14:47:10.000Z</time>
      </trkpt>
      <trkpt lat="42.29275" lon="19.79626">
        <ele>337.07998657227</ele>
        <time>2024-09-23T14:47:11.000Z</time>
      </trkpt>
      <trkpt lat="42.29269" lon="19.7963">
        <ele>336.60000610352</ele>
        <time>2024-09-23T14:47:12.000Z</time>
      </trkpt>
      <trkpt lat="42.29264" lon="19.79635">
        <ele>336.60000610352</ele>
        <time>2024-09-23T14:47:13.000Z</time>
      </trkpt>
      <trkpt lat="42.2926" lon="19.79639">
        <ele>336.60000610352</ele>
        <time>2024-09-23T14:47:14.000Z</time>
      </trkpt>
      <trkpt lat="42.29254" lon="19.79649">
        <ele>335.64001464844</ele>
        <time>2024-09-23T14:47:15.000Z</time>
      </trkpt>
      <trkpt lat="42.29253" lon="19.7965">
        <ele>335.64001464844</ele>
        <time>2024-09-23T14:47:16.000Z</time>
      </trkpt>
      <trkpt lat="42.29248" lon="19.79655">
        <ele>335.64001464844</ele>
        <time>2024-09-23T14:47:17.000Z</time>
      </trkpt>
      <trkpt lat="42.29243" lon="19.79659">
        <ele>335.16000366211</ele>
        <time>2024-09-23T14:47:18.000Z</time>
      </trkpt>
      <trkpt lat="42.29236" lon="19.79661">
        <ele>335.16000366211</ele>
        <time>2024-09-23T14:47:19.000Z</time>
      </trkpt>
      <trkpt lat="42.29229" lon="19.79661">
        <ele>335.16000366211</ele>
        <time>2024-09-23T14:47:20.000Z</time>
      </trkpt>
      <trkpt lat="42.29222" lon="19.7966">
        <ele>335.16000366211</ele>
        <time>2024-09-23T14:47:21.000Z</time>
      </trkpt>
      <trkpt lat="42.29176" lon="19.79654">
        <ele>334.20001220703</ele>
        <time>2024-09-23T14:47:26.000Z</time>
      </trkpt>
      <trkpt lat="42.29138" lon="19.79645">
        <ele>333.23001098633</ele>
        <time>2024-09-23T14:47:30.000Z</time>
      </trkpt>
      <trkpt lat="42.29128" lon="19.79643">
        <ele>333.23001098633</ele>
        <time>2024-09-23T14:47:31.000Z</time>
      </trkpt>
      <trkpt lat="42.29118" lon="19.79641">
        <ele>333.70999145508</ele>
        <time>2024-09-23T14:47:32.000Z</time>
      </trkpt>
      <trkpt lat="42.29111" lon="19.79639">
        <ele>333.23001098633</ele>
        <time>2024-09-23T14:47:33.000Z</time>
      </trkpt>
      <trkpt lat="42.29097" lon="19.79636">
        <ele>333.23001098633</ele>
        <time>2024-09-23T14:47:34.000Z</time>
      </trkpt>
      <trkpt lat="42.2909" lon="19.79635">
        <ele>333.23001098633</ele>
        <time>2024-09-23T14:47:35.000Z</time>
      </trkpt>
      <trkpt lat="42.29079" lon="19.79633">
        <ele>333.70999145508</ele>
        <time>2024-09-23T14:47:36.000Z</time>
      </trkpt>
      <trkpt lat="42.29073" lon="19.79633">
        <ele>335.16000366211</ele>
        <time>2024-09-23T14:47:37.000Z</time>
      </trkpt>
      <trkpt lat="42.29065" lon="19.79635">
        <ele>335.16000366211</ele>
        <time>2024-09-23T14:47:38.000Z</time>
      </trkpt>
      <trkpt lat="42.2905" lon="19.79641">
        <ele>334.67999267578</ele>
        <time>2024-09-23T14:47:39.000Z</time>
      </trkpt>
      <trkpt lat="42.29028" lon="19.79648">
        <ele>331.79000854492</ele>
        <time>2024-09-23T14:47:41.000Z</time>
      </trkpt>
      <trkpt lat="42.29015" lon="19.79653">
        <ele>330.35000610352</ele>
        <time>2024-09-23T14:47:42.000Z</time>
      </trkpt>
      <trkpt lat="42.29013" lon="19.79653">
        <ele>330.35000610352</ele>
        <time>2024-09-23T14:47:43.000Z</time>
      </trkpt>
      <trkpt lat="42.29001" lon="19.79656">
        <ele>329.86999511719</ele>
        <time>2024-09-23T14:47:44.000Z</time>
      </trkpt>
      <trkpt lat="42.28992" lon="19.79658">
        <ele>330.35000610352</ele>
        <time>2024-09-23T14:47:45.000Z</time>
      </trkpt>
      <trkpt lat="42.28984" lon="19.79662">
        <ele>329.86999511719</ele>
        <time>2024-09-23T14:47:46.000Z</time>
      </trkpt>
      <trkpt lat="42.28976" lon="19.79668">
        <ele>329.39001464844</ele>
        <time>2024-09-23T14:47:47.000Z</time>
      </trkpt>
      <trkpt lat="42.28949" lon="19.79691">
        <ele>328.91000366211</ele>
        <time>2024-09-23T14:47:50.000Z</time>
      </trkpt>
      <trkpt lat="42.28936" lon="19.79703">
        <ele>329.39001464844</ele>
        <time>2024-09-23T14:47:51.000Z</time>
      </trkpt>
      <trkpt lat="42.28931" lon="19.79706">
        <ele>329.39001464844</ele>
        <time>2024-09-23T14:47:52.000Z</time>
      </trkpt>
      <trkpt lat="42.28919" lon="19.79711">
        <ele>329.86999511719</ele>
        <time>2024-09-23T14:47:53.000Z</time>
      </trkpt>
      <trkpt lat="42.28901" lon="19.79713">
        <ele>330.82998657227</ele>
        <time>2024-09-23T14:47:55.000Z</time>
      </trkpt>
      <trkpt lat="42.28893" lon="19.79713">
        <ele>330.82998657227</ele>
        <time>2024-09-23T14:47:56.000Z</time>
      </trkpt>
      <trkpt lat="42.28886" lon="19.79711">
        <ele>330.82998657227</ele>
        <time>2024-09-23T14:47:57.000Z</time>
      </trkpt>
      <trkpt lat="42.28879" lon="19.79707">
        <ele>330.82998657227</ele>
        <time>2024-09-23T14:47:58.000Z</time>
      </trkpt>
      <trkpt lat="42.28872" lon="19.79705">
        <ele>329.86999511719</ele>
        <time>2024-09-23T14:47:59.000Z</time>
      </trkpt>
      <trkpt lat="42.28864" lon="19.79706">
        <ele>327.95001220703</ele>
        <time>2024-09-23T14:48:00.000Z</time>
      </trkpt>
      <trkpt lat="42.2885" lon="19.79708">
        <ele>326.5</ele>
        <time>2024-09-23T14:48:01.000Z</time>
      </trkpt>
      <trkpt lat="42.28838" lon="19.7971">
        <ele>326.01998901367</ele>
        <time>2024-09-23T14:48:02.000Z</time>
      </trkpt>
      <trkpt lat="42.28796" lon="19.79722">
        <ele>321.70001220703</ele>
        <time>2024-09-23T14:48:06.000Z</time>
      </trkpt>
      <trkpt lat="42.28791" lon="19.79724">
        <ele>321.2200012207</ele>
        <time>2024-09-23T14:48:07.000Z</time>
      </trkpt>
      <trkpt lat="42.28781" lon="19.7973">
        <ele>320.73999023438</ele>
        <time>2024-09-23T14:48:08.000Z</time>
      </trkpt>
      <trkpt lat="42.28772" lon="19.79739">
        <ele>319.7799987793</ele>
        <time>2024-09-23T14:48:09.000Z</time>
      </trkpt>
      <trkpt lat="42.28764" lon="19.79746">
        <ele>319.29998779297</ele>
        <time>2024-09-23T14:48:10.000Z</time>
      </trkpt>
      <trkpt lat="42.28758" lon="19.79748">
        <ele>318.80999755859</ele>
        <time>2024-09-23T14:48:11.000Z</time>
      </trkpt>
      <trkpt lat="42.28753" lon="19.79751">
        <ele>318.32998657227</ele>
        <time>2024-09-23T14:48:12.000Z</time>
      </trkpt>
      <trkpt lat="42.28749" lon="19.79751">
        <ele>316.89001464844</ele>
        <time>2024-09-23T14:48:13.000Z</time>
      </trkpt>
      <trkpt lat="42.28747" lon="19.79735">
        <ele>314.01000976562</ele>
        <time>2024-09-23T14:48:16.000Z</time>
      </trkpt>
      <trkpt lat="42.28748" lon="19.79735">
        <ele>314.01000976562</ele>
        <time>2024-09-23T14:48:17.000Z</time>
      </trkpt>
      <trkpt lat="42.28756" lon="19.7973">
        <ele>313.5299987793</ele>
        <time>2024-09-23T14:48:18.000Z</time>
      </trkpt>
      <trkpt lat="42.28768" lon="19.79725">
        <ele>313.5299987793</ele>
        <time>2024-09-23T14:48:19.000Z</time>
      </trkpt>
      <trkpt lat="42.28777" lon="19.7972">
        <ele>313.5299987793</ele>
        <time>2024-09-23T14:48:20.000Z</time>
      </trkpt>
      <trkpt lat="42.28788" lon="19.79714">
        <ele>313.5299987793</ele>
        <time>2024-09-23T14:48:21.000Z</time>
      </trkpt>
      <trkpt lat="42.28817" lon="19.79696">
        <ele>312.57000732422</ele>
        <time>2024-09-23T14:48:24.000Z</time>
      </trkpt>
      <trkpt lat="42.28822" lon="19.79693">
        <ele>312.57000732422</ele>
        <time>2024-09-23T14:48:25.000Z</time>
      </trkpt>
      <trkpt lat="42.28826" lon="19.79691">
        <ele>312.57000732422</ele>
        <time>2024-09-23T14:48:26.000Z</time>
      </trkpt>
      <trkpt lat="42.28833" lon="19.79666">
        <ele>311.60000610352</ele>
        <time>2024-09-23T14:48:33.000Z</time>
      </trkpt>
      <trkpt lat="42.28833" lon="19.79665">
        <ele>311.60000610352</ele>
        <time>2024-09-23T14:48:50.000Z</time>
      </trkpt>
      <trkpt lat="42.28828" lon="19.79659">
        <ele>311.11999511719</ele>
        <time>2024-09-23T14:49:42.000Z</time>
      </trkpt>
      <trkpt lat="42.28828" lon="19.79655">
        <ele>311.11999511719</ele>
        <time>2024-09-23T14:49:43.000Z</time>
      </trkpt>
      <trkpt lat="42.28828" lon="19.7964">
        <ele>311.11999511719</ele>
        <time>2024-09-23T14:49:44.000Z</time>
      </trkpt>
      <trkpt lat="42.28829" lon="19.79634">
        <ele>311.11999511719</ele>
        <time>2024-09-23T14:49:45.000Z</time>
      </trkpt>
      <trkpt lat="42.28833" lon="19.79624">
        <ele>310.64001464844</ele>
        <time>2024-09-23T14:49:46.000Z</time>
      </trkpt>
      <trkpt lat="42.28835" lon="19.79619">
        <ele>310.64001464844</ele>
        <time>2024-09-23T14:49:47.000Z</time>
      </trkpt>
      <trkpt lat="42.28841" lon="19.79613">
        <ele>310.64001464844</ele>
        <time>2024-09-23T14:49:48.000Z</time>
      </trkpt>
      <trkpt lat="42.2885" lon="19.79606">
        <ele>310.64001464844</ele>
        <time>2024-09-23T14:49:49.000Z</time>
      </trkpt>
      <trkpt lat="42.28857" lon="19.79601">
        <ele>310.64001464844</ele>
        <time>2024-09-23T14:49:50.000Z</time>
      </trkpt>
      <trkpt lat="42.28863" lon="19.79594">
        <ele>311.11999511719</ele>
        <time>2024-09-23T14:49:51.000Z</time>
      </trkpt>
      <trkpt lat="42.28867" lon="19.79586">
        <ele>311.60000610352</ele>
        <time>2024-09-23T14:49:52.000Z</time>
      </trkpt>
      <trkpt lat="42.28872" lon="19.79574">
        <ele>312.08999633789</ele>
        <time>2024-09-23T14:49:53.000Z</time>
      </trkpt>
      <trkpt lat="42.28875" lon="19.79564">
        <ele>312.57000732422</ele>
        <time>2024-09-23T14:49:54.000Z</time>
      </trkpt>
      <trkpt lat="42.28877" lon="19.7955">
        <ele>313.04998779297</ele>
        <time>2024-09-23T14:49:55.000Z</time>
      </trkpt>
      <trkpt lat="42.28879" lon="19.79517">
        <ele>314.48999023438</ele>
        <time>2024-09-23T14:49:57.000Z</time>
      </trkpt>
      <trkpt lat="42.2888" lon="19.79509">
        <ele>314.48999023438</ele>
        <time>2024-09-23T14:49:58.000Z</time>
      </trkpt>
      <trkpt lat="42.28882" lon="19.79497">
        <ele>314.9700012207</ele>
        <time>2024-09-23T14:49:59.000Z</time>
      </trkpt>
      <trkpt lat="42.28884" lon="19.79487">
        <ele>315.92999267578</ele>
        <time>2024-09-23T14:50:00.000Z</time>
      </trkpt>
      <trkpt lat="42.28886" lon="19.79479">
        <ele>316.41000366211</ele>
        <time>2024-09-23T14:50:01.000Z</time>
      </trkpt>
      <trkpt lat="42.28883" lon="19.79471">
        <ele>317.36999511719</ele>
        <time>2024-09-23T14:50:02.000Z</time>
      </trkpt>
      <trkpt lat="42.28883" lon="19.7947">
        <ele>317.36999511719</ele>
        <time>2024-09-23T14:50:03.000Z</time>
      </trkpt>
      <trkpt lat="42.28878" lon="19.79467">
        <ele>318.32998657227</ele>
        <time>2024-09-23T14:50:04.000Z</time>
      </trkpt>
      <trkpt lat="42.28872" lon="19.79466">
        <ele>319.29998779297</ele>
        <time>2024-09-23T14:50:05.000Z</time>
      </trkpt>
      <trkpt lat="42.28865" lon="19.79471">
        <ele>320.26000976562</ele>
        <time>2024-09-23T14:50:06.000Z</time>
      </trkpt>
      <trkpt lat="42.28858" lon="19.79475">
        <ele>321.70001220703</ele>
        <time>2024-09-23T14:50:07.000Z</time>
      </trkpt>
      <trkpt lat="42.28852" lon="19.79477">
        <ele>322.17999267578</ele>
        <time>2024-09-23T14:50:08.000Z</time>
      </trkpt>
      <trkpt lat="42.28839" lon="19.79485">
        <ele>323.61999511719</ele>
        <time>2024-09-23T14:50:09.000Z</time>
      </trkpt>
      <trkpt lat="42.28833" lon="19.7949">
        <ele>324.57998657227</ele>
        <time>2024-09-23T14:50:10.000Z</time>
      </trkpt>
      <trkpt lat="42.28803" lon="19.79518">
        <ele>327.4700012207</ele>
        <time>2024-09-23T14:50:13.000Z</time>
      </trkpt>
      <trkpt lat="42.28799" lon="19.7952">
        <ele>328.42999267578</ele>
        <time>2024-09-23T14:50:14.000Z</time>
      </trkpt>
      <trkpt lat="42.28793" lon="19.79523">
        <ele>328.42999267578</ele>
        <time>2024-09-23T14:50:15.000Z</time>
      </trkpt>
      <trkpt lat="42.28788" lon="19.7952">
        <ele>329.39001464844</ele>
        <time>2024-09-23T14:50:16.000Z</time>
      </trkpt>
      <trkpt lat="42.28776" lon="19.79509">
        <ele>330.35000610352</ele>
        <time>2024-09-23T14:50:17.000Z</time>
      </trkpt>
      <trkpt lat="42.28755" lon="19.7949">
        <ele>332.26998901367</ele>
        <time>2024-09-23T14:50:20.000Z</time>
      </trkpt>
      <trkpt lat="42.28749" lon="19.79486">
        <ele>332.75</ele>
        <time>2024-09-23T14:50:21.000Z</time>
      </trkpt>
      <trkpt lat="42.28746" lon="19.79485">
        <ele>333.23001098633</ele>
        <time>2024-09-23T14:50:22.000Z</time>
      </trkpt>
      <trkpt lat="42.2874" lon="19.79486">
        <ele>333.70999145508</ele>
        <time>2024-09-23T14:50:23.000Z</time>
      </trkpt>
      <trkpt lat="42.28735" lon="19.79491">
        <ele>334.67999267578</ele>
        <time>2024-09-23T14:50:24.000Z</time>
      </trkpt>
      <trkpt lat="42.28729" lon="19.79499">
        <ele>335.16000366211</ele>
        <time>2024-09-23T14:50:25.000Z</time>
      </trkpt>
      <trkpt lat="42.28724" lon="19.7951">
        <ele>335.64001464844</ele>
        <time>2024-09-23T14:50:26.000Z</time>
      </trkpt>
      <trkpt lat="42.28722" lon="19.79522">
        <ele>336.11999511719</ele>
        <time>2024-09-23T14:50:27.000Z</time>
      </trkpt>
      <trkpt lat="42.2872" lon="19.79542">
        <ele>337.55999755859</ele>
        <time>2024-09-23T14:50:28.000Z</time>
      </trkpt>
      <trkpt lat="42.28719" lon="19.7955">
        <ele>337.55999755859</ele>
        <time>2024-09-23T14:50:29.000Z</time>
      </trkpt>
      <trkpt lat="42.28717" lon="19.79557">
        <ele>338.04000854492</ele>
        <time>2024-09-23T14:50:30.000Z</time>
      </trkpt>
      <trkpt lat="42.28712" lon="19.79562">
        <ele>338.51998901367</ele>
        <time>2024-09-23T14:50:31.000Z</time>
      </trkpt>
      <trkpt lat="42.28701" lon="19.79566">
        <ele>338.51998901367</ele>
        <time>2024-09-23T14:50:32.000Z</time>
      </trkpt>
      <trkpt lat="42.28696" lon="19.79568">
        <ele>339</ele>
        <time>2024-09-23T14:50:33.000Z</time>
      </trkpt>
      <trkpt lat="42.28687" lon="19.79575">
        <ele>339.95999145508</ele>
        <time>2024-09-23T14:50:34.000Z</time>
      </trkpt>
      <trkpt lat="42.28678" lon="19.79583">
        <ele>340.92001342773</ele>
        <time>2024-09-23T14:50:35.000Z</time>
      </trkpt>
      <trkpt lat="42.28665" lon="19.79598">
        <ele>341.89001464844</ele>
        <time>2024-09-23T14:50:36.000Z</time>
      </trkpt>
      <trkpt lat="42.28658" lon="19.79605">
        <ele>342.85000610352</ele>
        <time>2024-09-23T14:50:37.000Z</time>
      </trkpt>
      <trkpt lat="42.2865" lon="19.79612">
        <ele>342.85000610352</ele>
        <time>2024-09-23T14:50:38.000Z</time>
      </trkpt>
      <trkpt lat="42.28642" lon="19.79616">
        <ele>343.32998657227</ele>
        <time>2024-09-23T14:50:39.000Z</time>
      </trkpt>
      <trkpt lat="42.28632" lon="19.79618">
        <ele>343.32998657227</ele>
        <time>2024-09-23T14:50:40.000Z</time>
      </trkpt>
      <trkpt lat="42.28621" lon="19.79617">
        <ele>343.32998657227</ele>
        <time>2024-09-23T14:50:41.000Z</time>
      </trkpt>
      <trkpt lat="42.28607" lon="19.79613">
        <ele>343.32998657227</ele>
        <time>2024-09-23T14:50:42.000Z</time>
      </trkpt>
      <trkpt lat="42.28568" lon="19.79602">
        <ele>345.25</ele>
        <time>2024-09-23T14:50:44.000Z</time>
      </trkpt>
      <trkpt lat="42.28558" lon="19.79599">
        <ele>345.73001098633</ele>
        <time>2024-09-23T14:50:45.000Z</time>
      </trkpt>
      <trkpt lat="42.28512" lon="19.79576">
        <ele>348.13000488281</ele>
        <time>2024-09-23T14:50:48.000Z</time>
      </trkpt>
      <trkpt lat="42.28496" lon="19.79568">
        <ele>350.05999755859</ele>
        <time>2024-09-23T14:50:49.000Z</time>
      </trkpt>
      <trkpt lat="42.28485" lon="19.79562">
        <ele>351.5</ele>
        <time>2024-09-23T14:50:50.000Z</time>
      </trkpt>
      <trkpt lat="42.2848" lon="19.79559">
        <ele>352.45999145508</ele>
        <time>2024-09-23T14:50:51.000Z</time>
      </trkpt>
      <trkpt lat="42.28476" lon="19.79553">
        <ele>353.89999389648</ele>
        <time>2024-09-23T14:50:52.000Z</time>
      </trkpt>
      <trkpt lat="42.2847" lon="19.79539">
        <ele>355.33999633789</ele>
        <time>2024-09-23T14:50:53.000Z</time>
      </trkpt>
      <trkpt lat="42.28465" lon="19.79525">
        <ele>357.26998901367</ele>
        <time>2024-09-23T14:50:54.000Z</time>
      </trkpt>
      <trkpt lat="42.28461" lon="19.79516">
        <ele>358.23001098633</ele>
        <time>2024-09-23T14:50:55.000Z</time>
      </trkpt>
      <trkpt lat="42.28457" lon="19.79509">
        <ele>359.19000244141</ele>
        <time>2024-09-23T14:50:56.000Z</time>
      </trkpt>
      <trkpt lat="42.28453" lon="19.79506">
        <ele>360.63000488281</ele>
        <time>2024-09-23T14:50:57.000Z</time>
      </trkpt>
      <trkpt lat="42.28449" lon="19.79505">
        <ele>361.10998535156</ele>
        <time>2024-09-23T14:50:58.000Z</time>
      </trkpt>
      <trkpt lat="42.28445" lon="19.79508">
        <ele>362.54998779297</ele>
        <time>2024-09-23T14:50:59.000Z</time>
      </trkpt>
      <trkpt lat="42.28443" lon="19.79514">
        <ele>362.54998779297</ele>
        <time>2024-09-23T14:51:00.000Z</time>
      </trkpt>
      <trkpt lat="42.28443" lon="19.79524">
        <ele>364.48001098633</ele>
        <time>2024-09-23T14:51:01.000Z</time>
      </trkpt>
      <trkpt lat="42.28444" lon="19.79541">
        <ele>364.48001098633</ele>
        <time>2024-09-23T14:51:02.000Z</time>
      </trkpt>
      <trkpt lat="42.28443" lon="19.7955">
        <ele>364.48001098633</ele>
        <time>2024-09-23T14:51:03.000Z</time>
      </trkpt>
      <trkpt lat="42.28441" lon="19.79565">
        <ele>364.95999145508</ele>
        <time>2024-09-23T14:51:04.000Z</time>
      </trkpt>
      <trkpt lat="42.28437" lon="19.79578">
        <ele>365.44000244141</ele>
        <time>2024-09-23T14:51:05.000Z</time>
      </trkpt>
      <trkpt lat="42.28431" lon="19.79587">
        <ele>365.92001342773</ele>
        <time>2024-09-23T14:51:06.000Z</time>
      </trkpt>
      <trkpt lat="42.28425" lon="19.79592">
        <ele>365.92001342773</ele>
        <time>2024-09-23T14:51:07.000Z</time>
      </trkpt>
      <trkpt lat="42.28418" lon="19.79593">
        <ele>365.44000244141</ele>
        <time>2024-09-23T14:51:08.000Z</time>
      </trkpt>
      <trkpt lat="42.28411" lon="19.79591">
        <ele>365.92001342773</ele>
        <time>2024-09-23T14:51:09.000Z</time>
      </trkpt>
      <trkpt lat="42.28405" lon="19.79585">
        <ele>365.92001342773</ele>
        <time>2024-09-23T14:51:10.000Z</time>
      </trkpt>
      <trkpt lat="42.28399" lon="19.79576">
        <ele>366.39999389648</ele>
        <time>2024-09-23T14:51:11.000Z</time>
      </trkpt>
      <trkpt lat="42.28392" lon="19.79564">
        <ele>367.35998535156</ele>
        <time>2024-09-23T14:51:12.000Z</time>
      </trkpt>
      <trkpt lat="42.28383" lon="19.79551">
        <ele>367.83999633789</ele>
        <time>2024-09-23T14:51:13.000Z</time>
      </trkpt>
      <trkpt lat="42.28367" lon="19.79535">
        <ele>368.79998779297</ele>
        <time>2024-09-23T14:51:14.000Z</time>
      </trkpt>
      <trkpt lat="42.28342" lon="19.79512">
        <ele>369.76000976562</ele>
        <time>2024-09-23T14:51:16.000Z</time>
      </trkpt>
      <trkpt lat="42.28336" lon="19.79507">
        <ele>370.23999023438</ele>
        <time>2024-09-23T14:51:17.000Z</time>
      </trkpt>
      <trkpt lat="42.2833" lon="19.79503">
        <ele>371.20999145508</ele>
        <time>2024-09-23T14:51:18.000Z</time>
      </trkpt>
      <trkpt lat="42.28323" lon="19.79502">
        <ele>371.69000244141</ele>
        <time>2024-09-23T14:51:19.000Z</time>
      </trkpt>
      <trkpt lat="42.28315" lon="19.79501">
        <ele>372.64999389648</ele>
        <time>2024-09-23T14:51:20.000Z</time>
      </trkpt>
      <trkpt lat="42.28305" lon="19.79503">
        <ele>374.57000732422</ele>
        <time>2024-09-23T14:51:21.000Z</time>
      </trkpt>
      <trkpt lat="42.28294" lon="19.79507">
        <ele>375.5299987793</ele>
        <time>2024-09-23T14:51:22.000Z</time>
      </trkpt>
      <trkpt lat="42.28282" lon="19.79511">
        <ele>376.9700012207</ele>
        <time>2024-09-23T14:51:23.000Z</time>
      </trkpt>
      <trkpt lat="42.28257" lon="19.79518">
        <ele>379.85998535156</ele>
        <time>2024-09-23T14:51:25.000Z</time>
      </trkpt>
      <trkpt lat="42.28251" lon="19.7952">
        <ele>380.82000732422</ele>
        <time>2024-09-23T14:51:26.000Z</time>
      </trkpt>
      <trkpt lat="42.28244" lon="19.79524">
        <ele>382.26000976562</ele>
        <time>2024-09-23T14:51:27.000Z</time>
      </trkpt>
      <trkpt lat="42.28237" lon="19.79527">
        <ele>381.7799987793</ele>
        <time>2024-09-23T14:51:34.000Z</time>
      </trkpt>
      <trkpt lat="42.28239" lon="19.79528">
        <ele>385.63000488281</ele>
        <time>2024-09-23T14:52:23.000Z</time>
      </trkpt>
      <trkpt lat="42.28235" lon="19.79533">
        <ele>386.10998535156</ele>
        <time>2024-09-23T14:52:25.000Z</time>
      </trkpt>
      <trkpt lat="42.28232" lon="19.79536">
        <ele>386.10998535156</ele>
        <time>2024-09-23T14:52:26.000Z</time>
      </trkpt>
      <trkpt lat="42.28227" lon="19.7954">
        <ele>386.58999633789</ele>
        <time>2024-09-23T14:52:27.000Z</time>
      </trkpt>
      <trkpt lat="42.28221" lon="19.79542">
        <ele>387.07000732422</ele>
        <time>2024-09-23T14:52:28.000Z</time>
      </trkpt>
      <trkpt lat="42.28213" lon="19.79543">
        <ele>387.54998779297</ele>
        <time>2024-09-23T14:52:29.000Z</time>
      </trkpt>
      <trkpt lat="42.28205" lon="19.79541">
        <ele>388.98999023438</ele>
        <time>2024-09-23T14:52:30.000Z</time>
      </trkpt>
      <trkpt lat="42.28196" lon="19.79537">
        <ele>389.95001220703</ele>
        <time>2024-09-23T14:52:31.000Z</time>
      </trkpt>
      <trkpt lat="42.28191" lon="19.79535">
        <ele>390.42999267578</ele>
        <time>2024-09-23T14:52:32.000Z</time>
      </trkpt>
      <trkpt lat="42.28186" lon="19.79533">
        <ele>390.91000366211</ele>
        <time>2024-09-23T14:52:33.000Z</time>
      </trkpt>
      <trkpt lat="42.28176" lon="19.79531">
        <ele>391.86999511719</ele>
        <time>2024-09-23T14:52:34.000Z</time>
      </trkpt>
      <trkpt lat="42.28154" lon="19.79534">
        <ele>394.76000976562</ele>
        <time>2024-09-23T14:52:36.000Z</time>
      </trkpt>
      <trkpt lat="42.28149" lon="19.79535">
        <ele>395.7200012207</ele>
        <time>2024-09-23T14:52:37.000Z</time>
      </trkpt>
      <trkpt lat="42.28141" lon="19.7954">
        <ele>397.16000366211</ele>
        <time>2024-09-23T14:52:38.000Z</time>
      </trkpt>
      <trkpt lat="42.28134" lon="19.79547">
        <ele>398.60000610352</ele>
        <time>2024-09-23T14:52:39.000Z</time>
      </trkpt>
      <trkpt lat="42.28126" lon="19.79557">
        <ele>399.07998657227</ele>
        <time>2024-09-23T14:52:40.000Z</time>
      </trkpt>
      <trkpt lat="42.28122" lon="19.79562">
        <ele>400.04998779297</ele>
        <time>2024-09-23T14:52:41.000Z</time>
      </trkpt>
      <trkpt lat="42.2811" lon="19.79554">
        <ele>402.92999267578</ele>
        <time>2024-09-23T14:52:46.000Z</time>
      </trkpt>
      <trkpt lat="42.28112" lon="19.79549">
        <ele>403.41000366211</ele>
        <time>2024-09-23T14:52:47.000Z</time>
      </trkpt>
      <trkpt lat="42.28115" lon="19.79542">
        <ele>403.41000366211</ele>
        <time>2024-09-23T14:52:48.000Z</time>
      </trkpt>
      <trkpt lat="42.28121" lon="19.79535">
        <ele>403.41000366211</ele>
        <time>2024-09-23T14:52:49.000Z</time>
      </trkpt>
      <trkpt lat="42.28128" lon="19.79525">
        <ele>403.89001464844</ele>
        <time>2024-09-23T14:52:50.000Z</time>
      </trkpt>
      <trkpt lat="42.28133" lon="19.79519">
        <ele>403.89001464844</ele>
        <time>2024-09-23T14:52:51.000Z</time>
      </trkpt>
      <trkpt lat="42.28136" lon="19.79509">
        <ele>404.36999511719</ele>
        <time>2024-09-23T14:52:52.000Z</time>
      </trkpt>
      <trkpt lat="42.28138" lon="19.79497">
        <ele>404.36999511719</ele>
        <time>2024-09-23T14:52:53.000Z</time>
      </trkpt>
      <trkpt lat="42.28137" lon="19.79483">
        <ele>404.85000610352</ele>
        <time>2024-09-23T14:52:54.000Z</time>
      </trkpt>
      <trkpt lat="42.28134" lon="19.79466">
        <ele>404.85000610352</ele>
        <time>2024-09-23T14:52:55.000Z</time>
      </trkpt>
      <trkpt lat="42.28129" lon="19.79447">
        <ele>404.36999511719</ele>
        <time>2024-09-23T14:52:56.000Z</time>
      </trkpt>
      <trkpt lat="42.28125" lon="19.79436">
        <ele>403.89001464844</ele>
        <time>2024-09-23T14:52:57.000Z</time>
      </trkpt>
      <trkpt lat="42.28118" lon="19.79418">
        <ele>403.41000366211</ele>
        <time>2024-09-23T14:52:58.000Z</time>
      </trkpt>
      <trkpt lat="42.28112" lon="19.79406">
        <ele>403.41000366211</ele>
        <time>2024-09-23T14:52:59.000Z</time>
      </trkpt>
      <trkpt lat="42.28104" lon="19.79393">
        <ele>403.41000366211</ele>
        <time>2024-09-23T14:53:00.000Z</time>
      </trkpt>
      <trkpt lat="42.28098" lon="19.79386">
        <ele>402.92999267578</ele>
        <time>2024-09-23T14:53:01.000Z</time>
      </trkpt>
      <trkpt lat="42.2809" lon="19.79381">
        <ele>402.45001220703</ele>
        <time>2024-09-23T14:53:02.000Z</time>
      </trkpt>
      <trkpt lat="42.28083" lon="19.79379">
        <ele>402.45001220703</ele>
        <time>2024-09-23T14:53:03.000Z</time>
      </trkpt>
      <trkpt lat="42.28077" lon="19.79382">
        <ele>401.9700012207</ele>
        <time>2024-09-23T14:53:04.000Z</time>
      </trkpt>
      <trkpt lat="42.28072" lon="19.79386">
        <ele>402.45001220703</ele>
        <time>2024-09-23T14:53:05.000Z</time>
      </trkpt>
      <trkpt lat="42.28069" lon="19.79393">
        <ele>402.45001220703</ele>
        <time>2024-09-23T14:53:06.000Z</time>
      </trkpt>
      <trkpt lat="42.28068" lon="19.79401">
        <ele>402.45001220703</ele>
        <time>2024-09-23T14:53:07.000Z</time>
      </trkpt>
      <trkpt lat="42.28069" lon="19.79411">
        <ele>402.92999267578</ele>
        <time>2024-09-23T14:53:08.000Z</time>
      </trkpt>
      <trkpt lat="42.28071" lon="19.79423">
        <ele>403.41000366211</ele>
        <time>2024-09-23T14:53:09.000Z</time>
      </trkpt>
      <trkpt lat="42.28072" lon="19.79433">
        <ele>402.92999267578</ele>
        <time>2024-09-23T14:53:10.000Z</time>
      </trkpt>
      <trkpt lat="42.2807" lon="19.79441">
        <ele>402.92999267578</ele>
        <time>2024-09-23T14:53:11.000Z</time>
      </trkpt>
      <trkpt lat="42.28064" lon="19.79449">
        <ele>402.45001220703</ele>
        <time>2024-09-23T14:53:12.000Z</time>
      </trkpt>
      <trkpt lat="42.28057" lon="19.79454">
        <ele>401.9700012207</ele>
        <time>2024-09-23T14:53:13.000Z</time>
      </trkpt>
      <trkpt lat="42.28047" lon="19.7946">
        <ele>402.45001220703</ele>
        <time>2024-09-23T14:53:14.000Z</time>
      </trkpt>
      <trkpt lat="42.2804" lon="19.79466">
        <ele>402.45001220703</ele>
        <time>2024-09-23T14:53:15.000Z</time>
      </trkpt>
      <trkpt lat="42.28032" lon="19.79474">
        <ele>402.45001220703</ele>
        <time>2024-09-23T14:53:16.000Z</time>
      </trkpt>
      <trkpt lat="42.28026" lon="19.79484">
        <ele>402.45001220703</ele>
        <time>2024-09-23T14:53:17.000Z</time>
      </trkpt>
      <trkpt lat="42.2802" lon="19.79495">
        <ele>402.45001220703</ele>
        <time>2024-09-23T14:53:18.000Z</time>
      </trkpt>
      <trkpt lat="42.28015" lon="19.79505">
        <ele>402.92999267578</ele>
        <time>2024-09-23T14:53:19.000Z</time>
      </trkpt>
      <trkpt lat="42.28006" lon="19.79512">
        <ele>402.45001220703</ele>
        <time>2024-09-23T14:53:20.000Z</time>
      </trkpt>
      <trkpt lat="42.27997" lon="19.79517">
        <ele>402.92999267578</ele>
        <time>2024-09-23T14:53:21.000Z</time>
      </trkpt>
      <trkpt lat="42.27986" lon="19.79521">
        <ele>403.41000366211</ele>
        <time>2024-09-23T14:53:22.000Z</time>
      </trkpt>
      <trkpt lat="42.27974" lon="19.79523">
        <ele>404.85000610352</ele>
        <time>2024-09-23T14:53:23.000Z</time>
      </trkpt>
      <trkpt lat="42.27967" lon="19.79522">
        <ele>405.32998657227</ele>
        <time>2024-09-23T14:53:24.000Z</time>
      </trkpt>
      <trkpt lat="42.27957" lon="19.79521">
        <ele>406.29000854492</ele>
        <time>2024-09-23T14:53:25.000Z</time>
      </trkpt>
      <trkpt lat="42.27951" lon="19.7952">
        <ele>406.76998901367</ele>
        <time>2024-09-23T14:53:26.000Z</time>
      </trkpt>
      <trkpt lat="42.27946" lon="19.79523">
        <ele>407.26000976562</ele>
        <time>2024-09-23T14:53:27.000Z</time>
      </trkpt>
      <trkpt lat="42.27936" lon="19.79533">
        <ele>409.17999267578</ele>
        <time>2024-09-23T14:53:28.000Z</time>
      </trkpt>
      <trkpt lat="42.27935" lon="19.79535">
        <ele>409.17999267578</ele>
        <time>2024-09-23T14:53:29.000Z</time>
      </trkpt>
      <trkpt lat="42.27917" lon="19.79549">
        <ele>411.10000610352</ele>
        <time>2024-09-23T14:53:31.000Z</time>
      </trkpt>
      <trkpt lat="42.2791" lon="19.79557">
        <ele>413.01998901367</ele>
        <time>2024-09-23T14:53:32.000Z</time>
      </trkpt>
      <trkpt lat="42.27905" lon="19.79566">
        <ele>414.4700012207</ele>
        <time>2024-09-23T14:53:33.000Z</time>
      </trkpt>
      <trkpt lat="42.279" lon="19.79578">
        <ele>415.91000366211</ele>
        <time>2024-09-23T14:53:34.000Z</time>
      </trkpt>
      <trkpt lat="42.27898" lon="19.79589">
        <ele>416.86999511719</ele>
        <time>2024-09-23T14:53:35.000Z</time>
      </trkpt>
      <trkpt lat="42.27897" lon="19.796">
        <ele>418.30999755859</ele>
        <time>2024-09-23T14:53:36.000Z</time>
      </trkpt>
      <trkpt lat="42.27899" lon="19.79611">
        <ele>419.26998901367</ele>
        <time>2024-09-23T14:53:37.000Z</time>
      </trkpt>
      <trkpt lat="42.27902" lon="19.79622">
        <ele>420.70999145508</ele>
        <time>2024-09-23T14:53:38.000Z</time>
      </trkpt>
      <trkpt lat="42.27904" lon="19.79632">
        <ele>421.67999267578</ele>
        <time>2024-09-23T14:53:39.000Z</time>
      </trkpt>
      <trkpt lat="42.27904" lon="19.7964">
        <ele>423.11999511719</ele>
        <time>2024-09-23T14:53:40.000Z</time>
      </trkpt>
      <trkpt lat="42.279" lon="19.79646">
        <ele>424.07998657227</ele>
        <time>2024-09-23T14:53:41.000Z</time>
      </trkpt>
      <trkpt lat="42.27898" lon="19.79648">
        <ele>424.55999755859</ele>
        <time>2024-09-23T14:53:42.000Z</time>
      </trkpt>
      <trkpt lat="42.27894" lon="19.79648">
        <ele>425.04000854492</ele>
        <time>2024-09-23T14:53:43.000Z</time>
      </trkpt>
      <trkpt lat="42.27888" lon="19.79646">
        <ele>425.51998901367</ele>
        <time>2024-09-23T14:53:44.000Z</time>
      </trkpt>
      <trkpt lat="42.27881" lon="19.79641">
        <ele>426</ele>
        <time>2024-09-23T14:53:45.000Z</time>
      </trkpt>
      <trkpt lat="42.27875" lon="19.79635">
        <ele>426.48001098633</ele>
        <time>2024-09-23T14:53:46.000Z</time>
      </trkpt>
      <trkpt lat="42.27869" lon="19.79629">
        <ele>426.95999145508</ele>
        <time>2024-09-23T14:53:47.000Z</time>
      </trkpt>
      <trkpt lat="42.27866" lon="19.79622">
        <ele>426.95999145508</ele>
        <time>2024-09-23T14:53:48.000Z</time>
      </trkpt>
      <trkpt lat="42.27864" lon="19.79614">
        <ele>426.95999145508</ele>
        <time>2024-09-23T14:53:49.000Z</time>
      </trkpt>
      <trkpt lat="42.27865" lon="19.79606">
        <ele>427.44000244141</ele>
        <time>2024-09-23T14:53:50.000Z</time>
      </trkpt>
      <trkpt lat="42.27871" lon="19.79576">
        <ele>427.92001342773</ele>
        <time>2024-09-23T14:53:52.000Z</time>
      </trkpt>
      <trkpt lat="42.27873" lon="19.79568">
        <ele>428.39999389648</ele>
        <time>2024-09-23T14:53:53.000Z</time>
      </trkpt>
      <trkpt lat="42.27873" lon="19.79555">
        <ele>429.36999511719</ele>
        <time>2024-09-23T14:53:54.000Z</time>
      </trkpt>
      <trkpt lat="42.27871" lon="19.79546">
        <ele>430.32998657227</ele>
        <time>2024-09-23T14:53:55.000Z</time>
      </trkpt>
      <trkpt lat="42.27866" lon="19.79537">
        <ele>431.29000854492</ele>
        <time>2024-09-23T14:53:56.000Z</time>
      </trkpt>
      <trkpt lat="42.2786" lon="19.79527">
        <ele>432.25</ele>
        <time>2024-09-23T14:53:57.000Z</time>
      </trkpt>
      <trkpt lat="42.27852" lon="19.79519">
        <ele>433.20999145508</ele>
        <time>2024-09-23T14:53:58.000Z</time>
      </trkpt>
      <trkpt lat="42.27842" lon="19.79509">
        <ele>434.17001342773</ele>
        <time>2024-09-23T14:53:59.000Z</time>
      </trkpt>
      <trkpt lat="42.27832" lon="19.79502">
        <ele>435.60998535156</ele>
        <time>2024-09-23T14:54:00.000Z</time>
      </trkpt>
      <trkpt lat="42.27821" lon="19.79496">
        <ele>436.57998657227</ele>
        <time>2024-09-23T14:54:01.000Z</time>
      </trkpt>
      <trkpt lat="42.27804" lon="19.79488">
        <ele>438.01998901367</ele>
        <time>2024-09-23T14:54:02.000Z</time>
      </trkpt>
      <trkpt lat="42.27796" lon="19.79484">
        <ele>438.5</ele>
        <time>2024-09-23T14:54:03.000Z</time>
      </trkpt>
      <trkpt lat="42.27787" lon="19.79476">
        <ele>439.94000244141</ele>
        <time>2024-09-23T14:54:04.000Z</time>
      </trkpt>
      <trkpt lat="42.27779" lon="19.7947">
        <ele>441.38000488281</ele>
        <time>2024-09-23T14:54:05.000Z</time>
      </trkpt>
      <trkpt lat="42.27772" lon="19.79465">
        <ele>442.33999633789</ele>
        <time>2024-09-23T14:54:06.000Z</time>
      </trkpt>
      <trkpt lat="42.27767" lon="19.79464">
        <ele>442.33999633789</ele>
        <time>2024-09-23T14:54:07.000Z</time>
      </trkpt>
      <trkpt lat="42.27763" lon="19.79466">
        <ele>443.30999755859</ele>
        <time>2024-09-23T14:54:08.000Z</time>
      </trkpt>
      <trkpt lat="42.27757" lon="19.79473">
        <ele>443.30999755859</ele>
        <time>2024-09-23T14:54:09.000Z</time>
      </trkpt>
      <trkpt lat="42.27744" lon="19.79493">
        <ele>445.70999145508</ele>
        <time>2024-09-23T14:54:11.000Z</time>
      </trkpt>
      <trkpt lat="42.27739" lon="19.795">
        <ele>446.19000244141</ele>
        <time>2024-09-23T14:54:12.000Z</time>
      </trkpt>
      <trkpt lat="42.27732" lon="19.79505">
        <ele>447.63000488281</ele>
        <time>2024-09-23T14:54:13.000Z</time>
      </trkpt>
      <trkpt lat="42.27725" lon="19.79507">
        <ele>449.07000732422</ele>
        <time>2024-09-23T14:54:14.000Z</time>
      </trkpt>
      <trkpt lat="42.27717" lon="19.79508">
        <ele>450.51998901367</ele>
        <time>2024-09-23T14:54:15.000Z</time>
      </trkpt>
      <trkpt lat="42.27708" lon="19.79505">
        <ele>451.95999145508</ele>
        <time>2024-09-23T14:54:16.000Z</time>
      </trkpt>
      <trkpt lat="42.27698" lon="19.79501">
        <ele>453.39999389648</ele>
        <time>2024-09-23T14:54:17.000Z</time>
      </trkpt>
      <trkpt lat="42.27685" lon="19.79493">
        <ele>455.32000732422</ele>
        <time>2024-09-23T14:54:18.000Z</time>
      </trkpt>
      <trkpt lat="42.27652" lon="19.79469">
        <ele>458.69000244141</ele>
        <time>2024-09-23T14:54:20.000Z</time>
      </trkpt>
      <trkpt lat="42.27645" lon="19.79465">
        <ele>459.64999389648</ele>
        <time>2024-09-23T14:54:21.000Z</time>
      </trkpt>
      <trkpt lat="42.27637" lon="19.7946">
        <ele>461.08999633789</ele>
        <time>2024-09-23T14:54:22.000Z</time>
      </trkpt>
      <trkpt lat="42.27635" lon="19.79459">
        <ele>461.57000732422</ele>
        <time>2024-09-23T14:54:23.000Z</time>
      </trkpt>
      <trkpt lat="42.27629" lon="19.79458">
        <ele>462.5299987793</ele>
        <time>2024-09-23T14:54:24.000Z</time>
      </trkpt>
      <trkpt lat="42.27623" lon="19.79462">
        <ele>464.45001220703</ele>
        <time>2024-09-23T14:54:25.000Z</time>
      </trkpt>
      <trkpt lat="42.2762" lon="19.79465">
        <ele>464.92999267578</ele>
        <time>2024-09-23T14:54:26.000Z</time>
      </trkpt>
      <trkpt lat="42.27619" lon="19.79471">
        <ele>465.42001342773</ele>
        <time>2024-09-23T14:54:27.000Z</time>
      </trkpt>
      <trkpt lat="42.27619" lon="19.79477">
        <ele>466.38000488281</ele>
        <time>2024-09-23T14:54:28.000Z</time>
      </trkpt>
      <trkpt lat="42.2762" lon="19.79487">
        <ele>467.82000732422</ele>
        <time>2024-09-23T14:54:29.000Z</time>
      </trkpt>
      <trkpt lat="42.27622" lon="19.79496">
        <ele>468.7799987793</ele>
        <time>2024-09-23T14:54:30.000Z</time>
      </trkpt>
      <trkpt lat="42.27623" lon="19.79502">
        <ele>469.26000976562</ele>
        <time>2024-09-23T14:54:31.000Z</time>
      </trkpt>
      <trkpt lat="42.27623" lon="19.79512">
        <ele>470.2200012207</ele>
        <time>2024-09-23T14:54:32.000Z</time>
      </trkpt>
      <trkpt lat="42.27623" lon="19.79524">
        <ele>471.17999267578</ele>
        <time>2024-09-23T14:54:33.000Z</time>
      </trkpt>
      <trkpt lat="42.27623" lon="19.79532">
        <ele>471.17999267578</ele>
        <time>2024-09-23T14:54:34.000Z</time>
      </trkpt>
      <trkpt lat="42.27621" lon="19.7954">
        <ele>472.14001464844</ele>
        <time>2024-09-23T14:54:35.000Z</time>
      </trkpt>
      <trkpt lat="42.27617" lon="19.79549">
        <ele>472.63000488281</ele>
        <time>2024-09-23T14:54:36.000Z</time>
      </trkpt>
      <trkpt lat="42.27613" lon="19.79558">
        <ele>474.07000732422</ele>
        <time>2024-09-23T14:54:37.000Z</time>
      </trkpt>
      <trkpt lat="42.27608" lon="19.79567">
        <ele>475.0299987793</ele>
        <time>2024-09-23T14:54:38.000Z</time>
      </trkpt>
      <trkpt lat="42.27603" lon="19.79576">
        <ele>475.98999023438</ele>
        <time>2024-09-23T14:54:39.000Z</time>
      </trkpt>
      <trkpt lat="42.27594" lon="19.79587">
        <ele>477.42999267578</ele>
        <time>2024-09-23T14:54:40.000Z</time>
      </trkpt>
      <trkpt lat="42.27586" lon="19.79594">
        <ele>478.86999511719</ele>
        <time>2024-09-23T14:54:41.000Z</time>
      </trkpt>
      <trkpt lat="42.27577" lon="19.79601">
        <ele>479.83999633789</ele>
        <time>2024-09-23T14:54:42.000Z</time>
      </trkpt>
      <trkpt lat="42.27565" lon="19.79607">
        <ele>481.2799987793</ele>
        <time>2024-09-23T14:54:43.000Z</time>
      </trkpt>
      <trkpt lat="42.27555" lon="19.7961">
        <ele>482.7200012207</ele>
        <time>2024-09-23T14:54:44.000Z</time>
      </trkpt>
      <trkpt lat="42.27535" lon="19.79615">
        <ele>484.64001464844</ele>
        <time>2024-09-23T14:54:45.000Z</time>
      </trkpt>
      <trkpt lat="42.27522" lon="19.79619">
        <ele>485.60000610352</ele>
        <time>2024-09-23T14:54:46.000Z</time>
      </trkpt>
      <trkpt lat="42.27514" lon="19.79621">
        <ele>486.55999755859</ele>
        <time>2024-09-23T14:54:47.000Z</time>
      </trkpt>
      <trkpt lat="42.27495" lon="19.79623">
        <ele>488.01000976562</ele>
        <time>2024-09-23T14:54:48.000Z</time>
      </trkpt>
      <trkpt lat="42.27484" lon="19.79624">
        <ele>489.45001220703</ele>
        <time>2024-09-23T14:54:49.000Z</time>
      </trkpt>
      <trkpt lat="42.27478" lon="19.79625">
        <ele>489.92999267578</ele>
        <time>2024-09-23T14:54:50.000Z</time>
      </trkpt>
      <trkpt lat="42.27469" lon="19.79627">
        <ele>491.85000610352</ele>
        <time>2024-09-23T14:54:51.000Z</time>
      </trkpt>
      <trkpt lat="42.27464" lon="19.79629">
        <ele>493.29000854492</ele>
        <time>2024-09-23T14:54:52.000Z</time>
      </trkpt>
      <trkpt lat="42.27461" lon="19.79632">
        <ele>495.2200012207</ele>
        <time>2024-09-23T14:54:53.000Z</time>
      </trkpt>
      <trkpt lat="42.27458" lon="19.79637">
        <ele>496.17999267578</ele>
        <time>2024-09-23T14:54:54.000Z</time>
      </trkpt>
      <trkpt lat="42.27456" lon="19.79645">
        <ele>497.14001464844</ele>
        <time>2024-09-23T14:54:55.000Z</time>
      </trkpt>
      <trkpt lat="42.27457" lon="19.79654">
        <ele>497.61999511719</ele>
        <time>2024-09-23T14:54:56.000Z</time>
      </trkpt>
      <trkpt lat="42.27458" lon="19.79668">
        <ele>498.57998657227</ele>
        <time>2024-09-23T14:54:57.000Z</time>
      </trkpt>
      <trkpt lat="42.27458" lon="19.79677">
        <ele>499.54000854492</ele>
        <time>2024-09-23T14:54:58.000Z</time>
      </trkpt>
      <trkpt lat="42.27458" lon="19.79686">
        <ele>500.5</ele>
        <time>2024-09-23T14:54:59.000Z</time>
      </trkpt>
      <trkpt lat="42.27457" lon="19.79694">
        <ele>501.45999145508</ele>
        <time>2024-09-23T14:55:00.000Z</time>
      </trkpt>
      <trkpt lat="42.27453" lon="19.79699">
        <ele>501.95001220703</ele>
        <time>2024-09-23T14:55:01.000Z</time>
      </trkpt>
      <trkpt lat="42.27449" lon="19.79703">
        <ele>501.95001220703</ele>
        <time>2024-09-23T14:55:02.000Z</time>
      </trkpt>
      <trkpt lat="42.27444" lon="19.79704">
        <ele>502.91000366211</ele>
        <time>2024-09-23T14:55:03.000Z</time>
      </trkpt>
      <trkpt lat="42.27438" lon="19.79704">
        <ele>503.39001464844</ele>
        <time>2024-09-23T14:55:04.000Z</time>
      </trkpt>
      <trkpt lat="42.27429" lon="19.79702">
        <ele>504.35000610352</ele>
        <time>2024-09-23T14:55:05.000Z</time>
      </trkpt>
      <trkpt lat="42.27423" lon="19.797">
        <ele>504.82998657227</ele>
        <time>2024-09-23T14:55:06.000Z</time>
      </trkpt>
      <trkpt lat="42.27417" lon="19.79696">
        <ele>505.30999755859</ele>
        <time>2024-09-23T14:55:07.000Z</time>
      </trkpt>
      <trkpt lat="42.27412" lon="19.79688">
        <ele>506.26998901367</ele>
        <time>2024-09-23T14:55:08.000Z</time>
      </trkpt>
      <trkpt lat="42.27408" lon="19.7968">
        <ele>507.23001098633</ele>
        <time>2024-09-23T14:55:09.000Z</time>
      </trkpt>
      <trkpt lat="42.27404" lon="19.79669">
        <ele>507.70999145508</ele>
        <time>2024-09-23T14:55:10.000Z</time>
      </trkpt>
      <trkpt lat="42.27399" lon="19.79657">
        <ele>508.67001342773</ele>
        <time>2024-09-23T14:55:11.000Z</time>
      </trkpt>
      <trkpt lat="42.27392" lon="19.79645">
        <ele>510.11999511719</ele>
        <time>2024-09-23T14:55:12.000Z</time>
      </trkpt>
      <trkpt lat="42.27385" lon="19.79633">
        <ele>511.07998657227</ele>
        <time>2024-09-23T14:55:13.000Z</time>
      </trkpt>
      <trkpt lat="42.27371" lon="19.79614">
        <ele>512.52001953125</ele>
        <time>2024-09-23T14:55:14.000Z</time>
      </trkpt>
      <trkpt lat="42.27368" lon="19.79609">
        <ele>513</ele>
        <time>2024-09-23T14:55:15.000Z</time>
      </trkpt>
      <trkpt lat="42.27359" lon="19.796">
        <ele>513.96002197266</ele>
        <time>2024-09-23T14:55:16.000Z</time>
      </trkpt>
      <trkpt lat="42.27351" lon="19.79593">
        <ele>514.91998291016</ele>
        <time>2024-09-23T14:55:17.000Z</time>
      </trkpt>
      <trkpt lat="42.27344" lon="19.79588">
        <ele>516.36999511719</ele>
        <time>2024-09-23T14:55:18.000Z</time>
      </trkpt>
      <trkpt lat="42.27339" lon="19.79588">
        <ele>516.36999511719</ele>
        <time>2024-09-23T14:55:19.000Z</time>
      </trkpt>
      <trkpt lat="42.27334" lon="19.7959">
        <ele>517.33001708984</ele>
        <time>2024-09-23T14:55:20.000Z</time>
      </trkpt>
      <trkpt lat="42.2733" lon="19.79596">
        <ele>517.80999755859</ele>
        <time>2024-09-23T14:55:21.000Z</time>
      </trkpt>
      <trkpt lat="42.27323" lon="19.79607">
        <ele>518.77001953125</ele>
        <time>2024-09-23T14:55:22.000Z</time>
      </trkpt>
      <trkpt lat="42.2732" lon="19.7961">
        <ele>519.25</ele>
        <time>2024-09-23T14:55:23.000Z</time>
      </trkpt>
      <trkpt lat="42.27315" lon="19.79614">
        <ele>520.21002197266</ele>
        <time>2024-09-23T14:55:24.000Z</time>
      </trkpt>
      <trkpt lat="42.2731" lon="19.79616">
        <ele>520.69000244141</ele>
        <time>2024-09-23T14:55:25.000Z</time>
      </trkpt>
      <trkpt lat="42.27302" lon="19.79616">
        <ele>520.69000244141</ele>
        <time>2024-09-23T14:55:26.000Z</time>
      </trkpt>
      <trkpt lat="42.27293" lon="19.79617">
        <ele>521.16998291016</ele>
        <time>2024-09-23T14:55:27.000Z</time>
      </trkpt>
      <trkpt lat="42.27284" lon="19.7962">
        <ele>521.65002441406</ele>
        <time>2024-09-23T14:55:28.000Z</time>
      </trkpt>
      <trkpt lat="42.27276" lon="19.79627">
        <ele>522.60998535156</ele>
        <time>2024-09-23T14:55:29.000Z</time>
      </trkpt>
      <trkpt lat="42.27268" lon="19.79635">
        <ele>523.09002685547</ele>
        <time>2024-09-23T14:55:30.000Z</time>
      </trkpt>
      <trkpt lat="42.27261" lon="19.79642">
        <ele>524.53997802734</ele>
        <time>2024-09-23T14:55:31.000Z</time>
      </trkpt>
      <trkpt lat="42.27253" lon="19.79647">
        <ele>525.5</ele>
        <time>2024-09-23T14:55:32.000Z</time>
      </trkpt>
      <trkpt lat="42.27247" lon="19.79648">
        <ele>526.46002197266</ele>
        <time>2024-09-23T14:55:33.000Z</time>
      </trkpt>
      <trkpt lat="42.27241" lon="19.79646">
        <ele>526.94000244141</ele>
        <time>2024-09-23T14:55:34.000Z</time>
      </trkpt>
      <trkpt lat="42.27233" lon="19.79642">
        <ele>527.90002441406</ele>
        <time>2024-09-23T14:55:35.000Z</time>
      </trkpt>
      <trkpt lat="42.27217" lon="19.79632">
        <ele>529.34002685547</ele>
        <time>2024-09-23T14:55:36.000Z</time>
      </trkpt>
      <trkpt lat="42.27211" lon="19.79628">
        <ele>529.82000732422</ele>
        <time>2024-09-23T14:55:37.000Z</time>
      </trkpt>
      <trkpt lat="42.27187" lon="19.79615">
        <ele>531.27001953125</ele>
        <time>2024-09-23T14:55:39.000Z</time>
      </trkpt>
      <trkpt lat="42.27173" lon="19.79607">
        <ele>531.75</ele>
        <time>2024-09-23T14:55:40.000Z</time>
      </trkpt>
      <trkpt lat="42.27164" lon="19.79602">
        <ele>532.22998046875</ele>
        <time>2024-09-23T14:55:41.000Z</time>
      </trkpt>
      <trkpt lat="42.27156" lon="19.79599">
        <ele>532.71002197266</ele>
        <time>2024-09-23T14:55:42.000Z</time>
      </trkpt>
      <trkpt lat="42.27149" lon="19.79598">
        <ele>533.66998291016</ele>
        <time>2024-09-23T14:55:43.000Z</time>
      </trkpt>
      <trkpt lat="42.27144" lon="19.79601">
        <ele>534.63000488281</ele>
        <time>2024-09-23T14:55:44.000Z</time>
      </trkpt>
      <trkpt lat="42.27136" lon="19.79607">
        <ele>535.59002685547</ele>
        <time>2024-09-23T14:55:45.000Z</time>
      </trkpt>
      <trkpt lat="42.27132" lon="19.79611">
        <ele>536.54998779297</ele>
        <time>2024-09-23T14:55:46.000Z</time>
      </trkpt>
      <trkpt lat="42.27126" lon="19.79599">
        <ele>537.98999023438</ele>
        <time>2024-09-23T14:55:51.000Z</time>
      </trkpt>
      <trkpt lat="42.27128" lon="19.79596">
        <ele>537.98999023438</ele>
        <time>2024-09-23T14:55:52.000Z</time>
      </trkpt>
      <trkpt lat="42.27132" lon="19.79592">
        <ele>538.47998046875</ele>
        <time>2024-09-23T14:55:53.000Z</time>
      </trkpt>
      <trkpt lat="42.27135" lon="19.79589">
        <ele>537.98999023438</ele>
        <time>2024-09-23T14:55:54.000Z</time>
      </trkpt>
      <trkpt lat="42.27139" lon="19.79586">
        <ele>537.98999023438</ele>
        <time>2024-09-23T14:55:55.000Z</time>
      </trkpt>
      <trkpt lat="42.27144" lon="19.79582">
        <ele>537.98999023438</ele>
        <time>2024-09-23T14:55:56.000Z</time>
      </trkpt>
      <trkpt lat="42.27149" lon="19.7958">
        <ele>537.51000976562</ele>
        <time>2024-09-23T14:55:57.000Z</time>
      </trkpt>
      <trkpt lat="42.27153" lon="19.79578">
        <ele>537.51000976562</ele>
        <time>2024-09-23T14:55:58.000Z</time>
      </trkpt>
      <trkpt lat="42.27158" lon="19.79578">
        <ele>537.51000976562</ele>
        <time>2024-09-23T14:55:59.000Z</time>
      </trkpt>
      <trkpt lat="42.27165" lon="19.79578">
        <ele>537.51000976562</ele>
        <time>2024-09-23T14:56:00.000Z</time>
      </trkpt>
      <trkpt lat="42.27171" lon="19.79578">
        <ele>537.51000976562</ele>
        <time>2024-09-23T14:56:01.000Z</time>
      </trkpt>
      <trkpt lat="42.27184" lon="19.7958">
        <ele>537.51000976562</ele>
        <time>2024-09-23T14:56:03.000Z</time>
      </trkpt>
      <trkpt lat="42.27192" lon="19.79581">
        <ele>537.51000976562</ele>
        <time>2024-09-23T14:56:04.000Z</time>
      </trkpt>
      <trkpt lat="42.27209" lon="19.79583">
        <ele>538.47998046875</ele>
        <time>2024-09-23T14:56:06.000Z</time>
      </trkpt>
      <trkpt lat="42.27216" lon="19.79584">
        <ele>539.44000244141</ele>
        <time>2024-09-23T14:56:07.000Z</time>
      </trkpt>
      <trkpt lat="42.27218" lon="19.79584">
        <ele>539.44000244141</ele>
        <time>2024-09-23T14:56:08.000Z</time>
      </trkpt>
      <trkpt lat="42.27223" lon="19.79584">
        <ele>540.40002441406</ele>
        <time>2024-09-23T14:56:09.000Z</time>
      </trkpt>
      <trkpt lat="42.27227" lon="19.79581">
        <ele>540.88000488281</ele>
        <time>2024-09-23T14:56:10.000Z</time>
      </trkpt>
      <trkpt lat="42.27229" lon="19.79576">
        <ele>541.35998535156</ele>
        <time>2024-09-23T14:56:11.000Z</time>
      </trkpt>
      <trkpt lat="42.27229" lon="19.79571">
        <ele>541.35998535156</ele>
        <time>2024-09-23T14:56:12.000Z</time>
      </trkpt>
      <trkpt lat="42.27227" lon="19.79565">
        <ele>541.84002685547</ele>
        <time>2024-09-23T14:56:13.000Z</time>
      </trkpt>
      <trkpt lat="42.27222" lon="19.79561">
        <ele>541.84002685547</ele>
        <time>2024-09-23T14:56:14.000Z</time>
      </trkpt>
      <trkpt lat="42.27216" lon="19.79557">
        <ele>542.32000732422</ele>
        <time>2024-09-23T14:56:15.000Z</time>
      </trkpt>
      <trkpt lat="42.27207" lon="19.79553">
        <ele>542.79998779297</ele>
        <time>2024-09-23T14:56:16.000Z</time>
      </trkpt>
      <trkpt lat="42.272" lon="19.79551">
        <ele>542.79998779297</ele>
        <time>2024-09-23T14:56:17.000Z</time>
      </trkpt>
      <trkpt lat="42.2717" lon="19.79542">
        <ele>543.76000976562</ele>
        <time>2024-09-23T14:56:19.000Z</time>
      </trkpt>
      <trkpt lat="42.27164" lon="19.7954">
        <ele>543.76000976562</ele>
        <time>2024-09-23T14:56:20.000Z</time>
      </trkpt>
      <trkpt lat="42.27156" lon="19.79537">
        <ele>544.71997070312</ele>
        <time>2024-09-23T14:56:21.000Z</time>
      </trkpt>
      <trkpt lat="42.27144" lon="19.79531">
        <ele>545.69000244141</ele>
        <time>2024-09-23T14:56:22.000Z</time>
      </trkpt>
      <trkpt lat="42.27136" lon="19.79527">
        <ele>546.65002441406</ele>
        <time>2024-09-23T14:56:23.000Z</time>
      </trkpt>
      <trkpt lat="42.27129" lon="19.79525">
        <ele>547.13000488281</ele>
        <time>2024-09-23T14:56:24.000Z</time>
      </trkpt>
      <trkpt lat="42.27123" lon="19.79524">
        <ele>547.60998535156</ele>
        <time>2024-09-23T14:56:25.000Z</time>
      </trkpt>
      <trkpt lat="42.27117" lon="19.79527">
        <ele>548.09002685547</ele>
        <time>2024-09-23T14:56:26.000Z</time>
      </trkpt>
      <trkpt lat="42.27109" lon="19.79535">
        <ele>550.01000976562</ele>
        <time>2024-09-23T14:56:27.000Z</time>
      </trkpt>
      <trkpt lat="42.27106" lon="19.79537">
        <ele>550.48999023438</ele>
        <time>2024-09-23T14:56:28.000Z</time>
      </trkpt>
      <trkpt lat="42.271" lon="19.7954">
        <ele>551.45001220703</ele>
        <time>2024-09-23T14:56:29.000Z</time>
      </trkpt>
      <trkpt lat="42.27093" lon="19.79544">
        <ele>552.40997314453</ele>
        <time>2024-09-23T14:56:30.000Z</time>
      </trkpt>
      <trkpt lat="42.27086" lon="19.79549">
        <ele>553.38000488281</ele>
        <time>2024-09-23T14:56:31.000Z</time>
      </trkpt>
      <trkpt lat="42.27079" lon="19.79553">
        <ele>554.34002685547</ele>
        <time>2024-09-23T14:56:32.000Z</time>
      </trkpt>
      <trkpt lat="42.27075" lon="19.79556">
        <ele>555.29998779297</ele>
        <time>2024-09-23T14:56:33.000Z</time>
      </trkpt>
      <trkpt lat="42.27068" lon="19.79554">
        <ele>556.26000976562</ele>
        <time>2024-09-23T14:56:34.000Z</time>
      </trkpt>
      <trkpt lat="42.27067" lon="19.79553">
        <ele>556.26000976562</ele>
        <time>2024-09-23T14:56:35.000Z</time>
      </trkpt>
      <trkpt lat="42.27064" lon="19.79547">
        <ele>557.21997070312</ele>
        <time>2024-09-23T14:56:36.000Z</time>
      </trkpt>
      <trkpt lat="42.2706" lon="19.79536">
        <ele>557.70001220703</ele>
        <time>2024-09-23T14:56:37.000Z</time>
      </trkpt>
      <trkpt lat="42.27058" lon="19.79532">
        <ele>557.70001220703</ele>
        <time>2024-09-23T14:56:38.000Z</time>
      </trkpt>
      <trkpt lat="42.27054" lon="19.79524">
        <ele>558.65997314453</ele>
        <time>2024-09-23T14:56:39.000Z</time>
      </trkpt>
      <trkpt lat="42.27051" lon="19.79521">
        <ele>559.14001464844</ele>
        <time>2024-09-23T14:56:40.000Z</time>
      </trkpt>
      <trkpt lat="42.27046" lon="19.7952">
        <ele>559.61999511719</ele>
        <time>2024-09-23T14:56:41.000Z</time>
      </trkpt>
      <trkpt lat="42.27041" lon="19.79522">
        <ele>560.10998535156</ele>
        <time>2024-09-23T14:56:42.000Z</time>
      </trkpt>
      <trkpt lat="42.27035" lon="19.79528">
        <ele>560.59002685547</ele>
        <time>2024-09-23T14:56:43.000Z</time>
      </trkpt>
      <trkpt lat="42.27029" lon="19.79535">
        <ele>561.07000732422</ele>
        <time>2024-09-23T14:56:44.000Z</time>
      </trkpt>
      <trkpt lat="42.27024" lon="19.79543">
        <ele>561.07000732422</ele>
        <time>2024-09-23T14:56:45.000Z</time>
      </trkpt>
      <trkpt lat="42.2702" lon="19.79549">
        <ele>560.59002685547</ele>
        <time>2024-09-23T14:56:46.000Z</time>
      </trkpt>
      <trkpt lat="42.27016" lon="19.79556">
        <ele>560.59002685547</ele>
        <time>2024-09-23T14:56:47.000Z</time>
      </trkpt>
      <trkpt lat="42.27013" lon="19.79563">
        <ele>560.59002685547</ele>
        <time>2024-09-23T14:56:48.000Z</time>
      </trkpt>
      <trkpt lat="42.27012" lon="19.79571">
        <ele>560.10998535156</ele>
        <time>2024-09-23T14:56:49.000Z</time>
      </trkpt>
      <trkpt lat="42.27011" lon="19.79579">
        <ele>559.61999511719</ele>
        <time>2024-09-23T14:56:50.000Z</time>
      </trkpt>
      <trkpt lat="42.27012" lon="19.79586">
        <ele>559.61999511719</ele>
        <time>2024-09-23T14:56:51.000Z</time>
      </trkpt>
      <trkpt lat="42.27014" lon="19.79595">
        <ele>559.14001464844</ele>
        <time>2024-09-23T14:56:52.000Z</time>
      </trkpt>
      <trkpt lat="42.27015" lon="19.79605">
        <ele>559.14001464844</ele>
        <time>2024-09-23T14:56:59.000Z</time>
      </trkpt>
      <trkpt lat="42.27016" lon="19.79617">
        <ele>558.17999267578</ele>
        <time>2024-09-23T14:57:11.000Z</time>
      </trkpt>
      <trkpt lat="42.27016" lon="19.79599">
        <ele>558.65997314453</ele>
        <time>2024-09-23T14:57:17.000Z</time>
      </trkpt>
      <trkpt lat="42.27014" lon="19.79591">
        <ele>558.17999267578</ele>
        <time>2024-09-23T14:57:18.000Z</time>
      </trkpt>
      <trkpt lat="42.27012" lon="19.79586">
        <ele>558.17999267578</ele>
        <time>2024-09-23T14:57:19.000Z</time>
      </trkpt>
      <trkpt lat="42.27011" lon="19.7958">
        <ele>558.65997314453</ele>
        <time>2024-09-23T14:57:20.000Z</time>
      </trkpt>
      <trkpt lat="42.27011" lon="19.79577">
        <ele>558.65997314453</ele>
        <time>2024-09-23T14:57:21.000Z</time>
      </trkpt>
      <trkpt lat="42.27011" lon="19.7957">
        <ele>558.65997314453</ele>
        <time>2024-09-23T14:57:22.000Z</time>
      </trkpt>
      <trkpt lat="42.27014" lon="19.79561">
        <ele>558.65997314453</ele>
        <time>2024-09-23T14:57:23.000Z</time>
      </trkpt>
      <trkpt lat="42.27018" lon="19.79551">
        <ele>559.14001464844</ele>
        <time>2024-09-23T14:57:24.000Z</time>
      </trkpt>
      <trkpt lat="42.27024" lon="19.79542">
        <ele>559.61999511719</ele>
        <time>2024-09-23T14:57:25.000Z</time>
      </trkpt>
      <trkpt lat="42.2703" lon="19.79534">
        <ele>559.14001464844</ele>
        <time>2024-09-23T14:57:26.000Z</time>
      </trkpt>
      <trkpt lat="42.27039" lon="19.79526">
        <ele>558.65997314453</ele>
        <time>2024-09-23T14:57:27.000Z</time>
      </trkpt>
      <trkpt lat="42.27041" lon="19.79524">
        <ele>558.65997314453</ele>
        <time>2024-09-23T14:57:28.000Z</time>
      </trkpt>
      <trkpt lat="42.27046" lon="19.79521">
        <ele>558.17999267578</ele>
        <time>2024-09-23T14:57:29.000Z</time>
      </trkpt>
      <trkpt lat="42.2705" lon="19.79521">
        <ele>558.17999267578</ele>
        <time>2024-09-23T14:57:30.000Z</time>
      </trkpt>
      <trkpt lat="42.27053" lon="19.79523">
        <ele>557.70001220703</ele>
        <time>2024-09-23T14:57:31.000Z</time>
      </trkpt>
      <trkpt lat="42.27057" lon="19.79527">
        <ele>557.21997070312</ele>
        <time>2024-09-23T14:57:32.000Z</time>
      </trkpt>
      <trkpt lat="42.27059" lon="19.79532">
        <ele>556.73999023438</ele>
        <time>2024-09-23T14:57:33.000Z</time>
      </trkpt>
      <trkpt lat="42.27061" lon="19.79541">
        <ele>556.26000976562</ele>
        <time>2024-09-23T14:57:34.000Z</time>
      </trkpt>
      <trkpt lat="42.27062" lon="19.79544">
        <ele>555.78002929688</ele>
        <time>2024-09-23T14:57:35.000Z</time>
      </trkpt>
      <trkpt lat="42.27065" lon="19.79548">
        <ele>555.78002929688</ele>
        <time>2024-09-23T14:57:36.000Z</time>
      </trkpt>
      <trkpt lat="42.27075" lon="19.79556">
        <ele>554.34002685547</ele>
        <time>2024-09-23T14:57:39.000Z</time>
      </trkpt>
      <trkpt lat="42.27077" lon="19.79556">
        <ele>553.85998535156</ele>
        <time>2024-09-23T14:57:40.000Z</time>
      </trkpt>
      <trkpt lat="42.27086" lon="19.7955">
        <ele>552.90002441406</ele>
        <time>2024-09-23T14:57:41.000Z</time>
      </trkpt>
      <trkpt lat="42.27092" lon="19.79547">
        <ele>552.40997314453</ele>
        <time>2024-09-23T14:57:42.000Z</time>
      </trkpt>
      <trkpt lat="42.27105" lon="19.79539">
        <ele>550.96997070312</ele>
        <time>2024-09-23T14:57:43.000Z</time>
      </trkpt>
      <trkpt lat="42.27111" lon="19.79535">
        <ele>550.48999023438</ele>
        <time>2024-09-23T14:57:44.000Z</time>
      </trkpt>
      <trkpt lat="42.27119" lon="19.79529">
        <ele>549.04998779297</ele>
        <time>2024-09-23T14:57:45.000Z</time>
      </trkpt>
      <trkpt lat="42.27124" lon="19.79527">
        <ele>548.09002685547</ele>
        <time>2024-09-23T14:57:46.000Z</time>
      </trkpt>
      <trkpt lat="42.27131" lon="19.79527">
        <ele>547.13000488281</ele>
        <time>2024-09-23T14:57:47.000Z</time>
      </trkpt>
      <trkpt lat="42.2714" lon="19.7953">
        <ele>546.16998291016</ele>
        <time>2024-09-23T14:57:48.000Z</time>
      </trkpt>
      <trkpt lat="42.27153" lon="19.79538">
        <ele>544.71997070312</ele>
        <time>2024-09-23T14:57:49.000Z</time>
      </trkpt>
      <trkpt lat="42.27162" lon="19.79542">
        <ele>543.76000976562</ele>
        <time>2024-09-23T14:57:50.000Z</time>
      </trkpt>
      <trkpt lat="42.27173" lon="19.79546">
        <ele>542.79998779297</ele>
        <time>2024-09-23T14:57:51.000Z</time>
      </trkpt>
      <trkpt lat="42.27205" lon="19.79554">
        <ele>540.88000488281</ele>
        <time>2024-09-23T14:57:54.000Z</time>
      </trkpt>
      <trkpt lat="42.27214" lon="19.79558">
        <ele>540.88000488281</ele>
        <time>2024-09-23T14:57:55.000Z</time>
      </trkpt>
      <trkpt lat="42.2722" lon="19.79562">
        <ele>540.40002441406</ele>
        <time>2024-09-23T14:57:56.000Z</time>
      </trkpt>
      <trkpt lat="42.27224" lon="19.79566">
        <ele>539.91998291016</ele>
        <time>2024-09-23T14:57:57.000Z</time>
      </trkpt>
      <trkpt lat="42.27227" lon="19.79571">
        <ele>539.91998291016</ele>
        <time>2024-09-23T14:57:58.000Z</time>
      </trkpt>
      <trkpt lat="42.27222" lon="19.79583">
        <ele>538.96002197266</ele>
        <time>2024-09-23T14:58:01.000Z</time>
      </trkpt>
      <trkpt lat="42.27219" lon="19.79583">
        <ele>538.47998046875</ele>
        <time>2024-09-23T14:58:02.000Z</time>
      </trkpt>
      <trkpt lat="42.27214" lon="19.79584">
        <ele>538.47998046875</ele>
        <time>2024-09-23T14:58:03.000Z</time>
      </trkpt>
      <trkpt lat="42.27206" lon="19.79583">
        <ele>537.51000976562</ele>
        <time>2024-09-23T14:58:04.000Z</time>
      </trkpt>
      <trkpt lat="42.27172" lon="19.79577">
        <ele>536.07000732422</ele>
        <time>2024-09-23T14:58:07.000Z</time>
      </trkpt>
      <trkpt lat="42.27164" lon="19.79576">
        <ele>536.07000732422</ele>
        <time>2024-09-23T14:58:08.000Z</time>
      </trkpt>
      <trkpt lat="42.2716" lon="19.79576">
        <ele>536.07000732422</ele>
        <time>2024-09-23T14:58:09.000Z</time>
      </trkpt>
      <trkpt lat="42.27155" lon="19.79576">
        <ele>535.59002685547</ele>
        <time>2024-09-23T14:58:10.000Z</time>
      </trkpt>
      <trkpt lat="42.27151" lon="19.79576">
        <ele>535.59002685547</ele>
        <time>2024-09-23T14:58:16.000Z</time>
      </trkpt>
      <trkpt lat="42.2715" lon="19.79576">
        <ele>537.51000976562</ele>
        <time>2024-09-23T14:59:03.000Z</time>
      </trkpt>
      <trkpt lat="42.2714" lon="19.79582">
        <ele>537.51000976562</ele>
        <time>2024-09-23T14:59:07.000Z</time>
      </trkpt>
      <trkpt lat="42.27138" lon="19.79584">
        <ele>537.51000976562</ele>
        <time>2024-09-23T14:59:08.000Z</time>
      </trkpt>
      <trkpt lat="42.27134" lon="19.79589">
        <ele>537.98999023438</ele>
        <time>2024-09-23T14:59:09.000Z</time>
      </trkpt>
      <trkpt lat="42.27129" lon="19.79595">
        <ele>537.98999023438</ele>
        <time>2024-09-23T14:59:10.000Z</time>
      </trkpt>
      <trkpt lat="42.27126" lon="19.796">
        <ele>537.98999023438</ele>
        <time>2024-09-23T14:59:11.000Z</time>
      </trkpt>
      <trkpt lat="42.27129" lon="19.79611">
        <ele>537.03002929688</ele>
        <time>2024-09-23T14:59:15.000Z</time>
      </trkpt>
      <trkpt lat="42.27132" lon="19.7961">
        <ele>536.54998779297</ele>
        <time>2024-09-23T14:59:16.000Z</time>
      </trkpt>
      <trkpt lat="42.27137" lon="19.79607">
        <ele>536.07000732422</ele>
        <time>2024-09-23T14:59:17.000Z</time>
      </trkpt>
      <trkpt lat="42.27142" lon="19.79602">
        <ele>535.10998535156</ele>
        <time>2024-09-23T14:59:18.000Z</time>
      </trkpt>
      <trkpt lat="42.27147" lon="19.79599">
        <ele>534.63000488281</ele>
        <time>2024-09-23T14:59:19.000Z</time>
      </trkpt>
      <trkpt lat="42.2715" lon="19.79597">
        <ele>534.15002441406</ele>
        <time>2024-09-23T14:59:20.000Z</time>
      </trkpt>
      <trkpt lat="42.27155" lon="19.79597">
        <ele>533.66998291016</ele>
        <time>2024-09-23T14:59:21.000Z</time>
      </trkpt>
      <trkpt lat="42.2716" lon="19.79599">
        <ele>533.66998291016</ele>
        <time>2024-09-23T14:59:22.000Z</time>
      </trkpt>
      <trkpt lat="42.27166" lon="19.79603">
        <ele>533.19000244141</ele>
        <time>2024-09-23T14:59:23.000Z</time>
      </trkpt>
      <trkpt lat="42.27176" lon="19.79609">
        <ele>532.22998046875</ele>
        <time>2024-09-23T14:59:24.000Z</time>
      </trkpt>
      <trkpt lat="42.27185" lon="19.79615">
        <ele>532.22998046875</ele>
        <time>2024-09-23T14:59:25.000Z</time>
      </trkpt>
      <trkpt lat="42.27211" lon="19.79632">
        <ele>530.29998779297</ele>
        <time>2024-09-23T14:59:27.000Z</time>
      </trkpt>
      <trkpt lat="42.27216" lon="19.79635">
        <ele>530.29998779297</ele>
        <time>2024-09-23T14:59:28.000Z</time>
      </trkpt>
      <trkpt lat="42.27227" lon="19.79641">
        <ele>528.85998535156</ele>
        <time>2024-09-23T14:59:29.000Z</time>
      </trkpt>
      <trkpt lat="42.27232" lon="19.79644">
        <ele>528.38000488281</ele>
        <time>2024-09-23T14:59:30.000Z</time>
      </trkpt>
      <trkpt lat="42.27239" lon="19.79647">
        <ele>527.90002441406</ele>
        <time>2024-09-23T14:59:31.000Z</time>
      </trkpt>
      <trkpt lat="42.27245" lon="19.79649">
        <ele>527.41998291016</ele>
        <time>2024-09-23T14:59:32.000Z</time>
      </trkpt>
      <trkpt lat="42.27251" lon="19.79649">
        <ele>526.46002197266</ele>
        <time>2024-09-23T14:59:33.000Z</time>
      </trkpt>
      <trkpt lat="42.27257" lon="19.79647">
        <ele>525.5</ele>
        <time>2024-09-23T14:59:34.000Z</time>
      </trkpt>
      <trkpt lat="42.27262" lon="19.79642">
        <ele>525.02001953125</ele>
        <time>2024-09-23T14:59:35.000Z</time>
      </trkpt>
      <trkpt lat="42.27271" lon="19.79634">
        <ele>523.58001708984</ele>
        <time>2024-09-23T14:59:36.000Z</time>
      </trkpt>
      <trkpt lat="42.27275" lon="19.79629">
        <ele>523.09002685547</ele>
        <time>2024-09-23T14:59:37.000Z</time>
      </trkpt>
      <trkpt lat="42.27279" lon="19.79625">
        <ele>523.09002685547</ele>
        <time>2024-09-23T14:59:38.000Z</time>
      </trkpt>
      <trkpt lat="42.27284" lon="19.79622">
        <ele>522.60998535156</ele>
        <time>2024-09-23T14:59:39.000Z</time>
      </trkpt>
      <trkpt lat="42.27288" lon="19.7962">
        <ele>522.13000488281</ele>
        <time>2024-09-23T14:59:40.000Z</time>
      </trkpt>
      <trkpt lat="42.273" lon="19.79613">
        <ele>520.69000244141</ele>
        <time>2024-09-23T14:59:47.000Z</time>
      </trkpt>
      <trkpt lat="42.27284" lon="19.79614">
        <ele>520.69000244141</ele>
        <time>2024-09-23T14:59:54.000Z</time>
      </trkpt>
      <trkpt lat="42.2728" lon="19.79618">
        <ele>521.65002441406</ele>
        <time>2024-09-23T15:00:10.000Z</time>
      </trkpt>
      <trkpt lat="42.27279" lon="19.79621">
        <ele>521.65002441406</ele>
        <time>2024-09-23T15:00:26.000Z</time>
      </trkpt>
      <trkpt lat="42.27264" lon="19.79639">
        <ele>522.13000488281</ele>
        <time>2024-09-23T15:00:33.000Z</time>
      </trkpt>
      <trkpt lat="42.27258" lon="19.79644">
        <ele>522.60998535156</ele>
        <time>2024-09-23T15:00:35.000Z</time>
      </trkpt>
      <trkpt lat="42.27256" lon="19.79645">
        <ele>523.09002685547</ele>
        <time>2024-09-23T15:00:36.000Z</time>
      </trkpt>
      <trkpt lat="42.27251" lon="19.79647">
        <ele>523.58001708984</ele>
        <time>2024-09-23T15:00:37.000Z</time>
      </trkpt>
      <trkpt lat="42.27245" lon="19.79647">
        <ele>524.53997802734</ele>
        <time>2024-09-23T15:00:38.000Z</time>
      </trkpt>
      <trkpt lat="42.27238" lon="19.79644">
        <ele>525.02001953125</ele>
        <time>2024-09-23T15:00:39.000Z</time>
      </trkpt>
      <trkpt lat="42.27233" lon="19.79641">
        <ele>525.5</ele>
        <time>2024-09-23T15:00:40.000Z</time>
      </trkpt>
      <trkpt lat="42.27218" lon="19.79632">
        <ele>527.41998291016</ele>
        <time>2024-09-23T15:00:42.000Z</time>
      </trkpt>
      <trkpt lat="42.27202" lon="19.79624">
        <ele>528.85998535156</ele>
        <time>2024-09-23T15:00:45.000Z</time>
      </trkpt>
      <trkpt lat="42.27195" lon="19.7962">
        <ele>529.34002685547</ele>
        <time>2024-09-23T15:00:46.000Z</time>
      </trkpt>
      <trkpt lat="42.27174" lon="19.79608">
        <ele>530.29998779297</ele>
        <time>2024-09-23T15:00:48.000Z</time>
      </trkpt>
      <trkpt lat="42.27172" lon="19.79606">
        <ele>530.29998779297</ele>
        <time>2024-09-23T15:00:49.000Z</time>
      </trkpt>
      <trkpt lat="42.27165" lon="19.79602">
        <ele>530.78997802734</ele>
        <time>2024-09-23T15:00:50.000Z</time>
      </trkpt>
      <trkpt lat="42.27159" lon="19.79598">
        <ele>531.27001953125</ele>
        <time>2024-09-23T15:00:51.000Z</time>
      </trkpt>
      <trkpt lat="42.27152" lon="19.79596">
        <ele>531.75</ele>
        <time>2024-09-23T15:00:52.000Z</time>
      </trkpt>
      <trkpt lat="42.27146" lon="19.79598">
        <ele>532.71002197266</ele>
        <time>2024-09-23T15:00:53.000Z</time>
      </trkpt>
      <trkpt lat="42.2714" lon="19.79602">
        <ele>533.66998291016</ele>
        <time>2024-09-23T15:00:54.000Z</time>
      </trkpt>
      <trkpt lat="42.27135" lon="19.79608">
        <ele>534.63000488281</ele>
        <time>2024-09-23T15:00:55.000Z</time>
      </trkpt>
      <trkpt lat="42.27126" lon="19.79602">
        <ele>537.03002929688</ele>
        <time>2024-09-23T15:01:00.000Z</time>
      </trkpt>
      <trkpt lat="42.27128" lon="19.79599">
        <ele>537.03002929688</ele>
        <time>2024-09-23T15:01:01.000Z</time>
      </trkpt>
      <trkpt lat="42.27133" lon="19.79593">
        <ele>537.03002929688</ele>
        <time>2024-09-23T15:01:02.000Z</time>
      </trkpt>
      <trkpt lat="42.27138" lon="19.79588">
        <ele>537.03002929688</ele>
        <time>2024-09-23T15:01:03.000Z</time>
      </trkpt>
      <trkpt lat="42.2714" lon="19.79585">
        <ele>537.51000976562</ele>
        <time>2024-09-23T15:01:04.000Z</time>
      </trkpt>
      <trkpt lat="42.27149" lon="19.7958">
        <ele>537.51000976562</ele>
        <time>2024-09-23T15:01:11.000Z</time>
      </trkpt>
      <trkpt lat="42.27157" lon="19.79578">
        <ele>537.51000976562</ele>
        <time>2024-09-23T15:03:19.000Z</time>
      </trkpt>
      <trkpt lat="42.27161" lon="19.79578">
        <ele>537.51000976562</ele>
        <time>2024-09-23T15:03:20.000Z</time>
      </trkpt>
      <trkpt lat="42.27167" lon="19.79578">
        <ele>537.98999023438</ele>
        <time>2024-09-23T15:03:21.000Z</time>
      </trkpt>
      <trkpt lat="42.27176" lon="19.79579">
        <ele>537.98999023438</ele>
        <time>2024-09-23T15:03:22.000Z</time>
      </trkpt>
      <trkpt lat="42.27188" lon="19.79579">
        <ele>537.98999023438</ele>
        <time>2024-09-23T15:03:24.000Z</time>
      </trkpt>
      <trkpt lat="42.27203" lon="19.79581">
        <ele>538.96002197266</ele>
        <time>2024-09-23T15:03:26.000Z</time>
      </trkpt>
      <trkpt lat="42.27209" lon="19.79582">
        <ele>539.44000244141</ele>
        <time>2024-09-23T15:03:27.000Z</time>
      </trkpt>
      <trkpt lat="42.27215" lon="19.79583">
        <ele>540.40002441406</ele>
        <time>2024-09-23T15:03:28.000Z</time>
      </trkpt>
      <trkpt lat="42.27222" lon="19.79583">
        <ele>541.35998535156</ele>
        <time>2024-09-23T15:03:29.000Z</time>
      </trkpt>
      <trkpt lat="42.27227" lon="19.79582">
        <ele>541.84002685547</ele>
        <time>2024-09-23T15:03:30.000Z</time>
      </trkpt>
      <trkpt lat="42.2723" lon="19.79578">
        <ele>541.84002685547</ele>
        <time>2024-09-23T15:03:31.000Z</time>
      </trkpt>
      <trkpt lat="42.27231" lon="19.79572">
        <ele>542.32000732422</ele>
        <time>2024-09-23T15:03:32.000Z</time>
      </trkpt>
      <trkpt lat="42.2723" lon="19.79566">
        <ele>542.32000732422</ele>
        <time>2024-09-23T15:03:33.000Z</time>
      </trkpt>
      <trkpt lat="42.27226" lon="19.79561">
        <ele>542.79998779297</ele>
        <time>2024-09-23T15:03:34.000Z</time>
      </trkpt>
      <trkpt lat="42.2722" lon="19.79557">
        <ele>543.28002929688</ele>
        <time>2024-09-23T15:03:35.000Z</time>
      </trkpt>
      <trkpt lat="42.27209" lon="19.79553">
        <ele>543.76000976562</ele>
        <time>2024-09-23T15:03:36.000Z</time>
      </trkpt>
      <trkpt lat="42.27201" lon="19.7955">
        <ele>544.23999023438</ele>
        <time>2024-09-23T15:03:37.000Z</time>
      </trkpt>
      <trkpt lat="42.2719" lon="19.79546">
        <ele>544.23999023438</ele>
        <time>2024-09-23T15:03:39.000Z</time>
      </trkpt>
      <trkpt lat="42.27169" lon="19.7954">
        <ele>545.20001220703</ele>
        <time>2024-09-23T15:03:41.000Z</time>
      </trkpt>
      <trkpt lat="42.27161" lon="19.79537">
        <ele>545.69000244141</ele>
        <time>2024-09-23T15:03:42.000Z</time>
      </trkpt>
      <trkpt lat="42.27154" lon="19.79533">
        <ele>546.65002441406</ele>
        <time>2024-09-23T15:03:43.000Z</time>
      </trkpt>
      <trkpt lat="42.27147" lon="19.79527">
        <ele>547.13000488281</ele>
        <time>2024-09-23T15:03:44.000Z</time>
      </trkpt>
      <trkpt lat="42.27142" lon="19.79526">
        <ele>547.60998535156</ele>
        <time>2024-09-23T15:03:47.000Z</time>
      </trkpt>
      <trkpt lat="42.27142" lon="19.79526">
        <ele>547.60998535156</ele>
        <time>2024-09-23T15:03:48.000Z</time>
      </trkpt>
      <trkpt lat="42.27158" lon="19.7954">
        <ele>546.65002441406</ele>
        <time>2024-09-23T15:03:55.000Z</time>
      </trkpt>
      <trkpt lat="42.27171" lon="19.79546">
        <ele>546.16998291016</ele>
        <time>2024-09-23T15:04:04.000Z</time>
      </trkpt>
      <trkpt lat="42.27185" lon="19.7955">
        <ele>546.16998291016</ele>
        <time>2024-09-23T15:04:37.000Z</time>
      </trkpt>
      <trkpt lat="42.27197" lon="19.79553">
        <ele>545.69000244141</ele>
        <time>2024-09-23T15:04:39.000Z</time>
      </trkpt>
      <trkpt lat="42.27199" lon="19.79554">
        <ele>545.69000244141</ele>
        <time>2024-09-23T15:04:40.000Z</time>
      </trkpt>
      <trkpt lat="42.27206" lon="19.79557">
        <ele>545.69000244141</ele>
        <time>2024-09-23T15:04:41.000Z</time>
      </trkpt>
      <trkpt lat="42.27216" lon="19.79561">
        <ele>545.20001220703</ele>
        <time>2024-09-23T15:04:42.000Z</time>
      </trkpt>
      <trkpt lat="42.27219" lon="19.79562">
        <ele>545.20001220703</ele>
        <time>2024-09-23T15:04:43.000Z</time>
      </trkpt>
      <trkpt lat="42.27223" lon="19.79564">
        <ele>544.71997070312</ele>
        <time>2024-09-23T15:04:44.000Z</time>
      </trkpt>
      <trkpt lat="42.27226" lon="19.79568">
        <ele>544.71997070312</ele>
        <time>2024-09-23T15:04:45.000Z</time>
      </trkpt>
      <trkpt lat="42.27222" lon="19.79582">
        <ele>543.28002929688</ele>
        <time>2024-09-23T15:04:49.000Z</time>
      </trkpt>
      <trkpt lat="42.27217" lon="19.79582">
        <ele>542.79998779297</ele>
        <time>2024-09-23T15:04:50.000Z</time>
      </trkpt>
      <trkpt lat="42.27207" lon="19.7958">
        <ele>541.84002685547</ele>
        <time>2024-09-23T15:04:51.000Z</time>
      </trkpt>
      <trkpt lat="42.27204" lon="19.7958">
        <ele>541.35998535156</ele>
        <time>2024-09-23T15:04:52.000Z</time>
      </trkpt>
      <trkpt lat="42.27179" lon="19.79576">
        <ele>539.91998291016</ele>
        <time>2024-09-23T15:04:55.000Z</time>
      </trkpt>
      <trkpt lat="42.27172" lon="19.79576">
        <ele>539.91998291016</ele>
        <time>2024-09-23T15:04:56.000Z</time>
      </trkpt>
      <trkpt lat="42.27164" lon="19.79576">
        <ele>539.91998291016</ele>
        <time>2024-09-23T15:04:57.000Z</time>
      </trkpt>
      <trkpt lat="42.27158" lon="19.79576">
        <ele>539.91998291016</ele>
        <time>2024-09-23T15:04:58.000Z</time>
      </trkpt>
      <trkpt lat="42.27151" lon="19.79576">
        <ele>539.44000244141</ele>
        <time>2024-09-23T15:04:59.000Z</time>
      </trkpt>
      <trkpt lat="42.27146" lon="19.79577">
        <ele>539.91998291016</ele>
        <time>2024-09-23T15:05:00.000Z</time>
      </trkpt>
      <trkpt lat="42.27136" lon="19.79585">
        <ele>540.88000488281</ele>
        <time>2024-09-23T15:05:07.000Z</time>
      </trkpt>
      <trkpt lat="42.27136" lon="19.79586">
        <ele>540.40002441406</ele>
        <time>2024-09-23T15:06:12.000Z</time>
      </trkpt>
      <trkpt lat="42.27138" lon="19.79585">
        <ele>538.47998046875</ele>
        <time>2024-09-23T15:11:43.000Z</time>
      </trkpt>
      <trkpt lat="42.27153" lon="19.79576">
        <ele>537.98999023438</ele>
        <time>2024-09-23T15:11:49.000Z</time>
      </trkpt>
      <trkpt lat="42.27157" lon="19.79575">
        <ele>537.98999023438</ele>
        <time>2024-09-23T15:11:50.000Z</time>
      </trkpt>
      <trkpt lat="42.27162" lon="19.79575">
        <ele>537.98999023438</ele>
        <time>2024-09-23T15:11:51.000Z</time>
      </trkpt>
      <trkpt lat="42.27169" lon="19.79575">
        <ele>537.98999023438</ele>
        <time>2024-09-23T15:11:52.000Z</time>
      </trkpt>
      <trkpt lat="42.27198" lon="19.79579">
        <ele>538.47998046875</ele>
        <time>2024-09-23T15:11:56.000Z</time>
      </trkpt>
      <trkpt lat="42.272" lon="19.79579">
        <ele>538.47998046875</ele>
        <time>2024-09-23T15:11:57.000Z</time>
      </trkpt>
      <trkpt lat="42.27205" lon="19.7958">
        <ele>538.96002197266</ele>
        <time>2024-09-23T15:11:58.000Z</time>
      </trkpt>
      <trkpt lat="42.27211" lon="19.79582">
        <ele>539.91998291016</ele>
        <time>2024-09-23T15:11:59.000Z</time>
      </trkpt>
      <trkpt lat="42.27218" lon="19.79583">
        <ele>540.40002441406</ele>
        <time>2024-09-23T15:12:00.000Z</time>
      </trkpt>
      <trkpt lat="42.27224" lon="19.79582">
        <ele>541.35998535156</ele>
        <time>2024-09-23T15:12:01.000Z</time>
      </trkpt>
      <trkpt lat="42.27226" lon="19.79566">
        <ele>543.28002929688</ele>
        <time>2024-09-23T15:12:05.000Z</time>
      </trkpt>
      <trkpt lat="42.27224" lon="19.79564">
        <ele>543.28002929688</ele>
        <time>2024-09-23T15:12:06.000Z</time>
      </trkpt>
      <trkpt lat="42.27217" lon="19.79559">
        <ele>543.76000976562</ele>
        <time>2024-09-23T15:12:07.000Z</time>
      </trkpt>
      <trkpt lat="42.2721" lon="19.79555">
        <ele>544.23999023438</ele>
        <time>2024-09-23T15:12:08.000Z</time>
      </trkpt>
      <trkpt lat="42.27201" lon="19.79552">
        <ele>544.23999023438</ele>
        <time>2024-09-23T15:12:09.000Z</time>
      </trkpt>
      <trkpt lat="42.27169" lon="19.79542">
        <ele>545.20001220703</ele>
        <time>2024-09-23T15:12:11.000Z</time>
      </trkpt>
      <trkpt lat="42.27167" lon="19.79542">
        <ele>545.20001220703</ele>
        <time>2024-09-23T15:12:12.000Z</time>
      </trkpt>
      <trkpt lat="42.2714" lon="19.7953">
        <ele>547.13000488281</ele>
        <time>2024-09-23T15:12:14.000Z</time>
      </trkpt>
      <trkpt lat="42.27133" lon="19.79527">
        <ele>547.60998535156</ele>
        <time>2024-09-23T15:12:15.000Z</time>
      </trkpt>
      <trkpt lat="42.27128" lon="19.79525">
        <ele>548.09002685547</ele>
        <time>2024-09-23T15:12:16.000Z</time>
      </trkpt>
      <trkpt lat="42.27122" lon="19.79526">
        <ele>548.09002685547</ele>
        <time>2024-09-23T15:12:17.000Z</time>
      </trkpt>
      <trkpt lat="42.27116" lon="19.79529">
        <ele>548.57000732422</ele>
        <time>2024-09-23T15:12:18.000Z</time>
      </trkpt>
      <trkpt lat="42.27111" lon="19.79533">
        <ele>549.53002929688</ele>
        <time>2024-09-23T15:12:19.000Z</time>
      </trkpt>
      <trkpt lat="42.27105" lon="19.79537">
        <ele>550.01000976562</ele>
        <time>2024-09-23T15:12:20.000Z</time>
      </trkpt>
      <trkpt lat="42.27099" lon="19.7954">
        <ele>551.45001220703</ele>
        <time>2024-09-23T15:12:21.000Z</time>
      </trkpt>
      <trkpt lat="42.2709" lon="19.79544">
        <ele>552.90002441406</ele>
        <time>2024-09-23T15:12:22.000Z</time>
      </trkpt>
      <trkpt lat="42.27087" lon="19.79545">
        <ele>553.38000488281</ele>
        <time>2024-09-23T15:12:23.000Z</time>
      </trkpt>
      <trkpt lat="42.27083" lon="19.79548">
        <ele>553.85998535156</ele>
        <time>2024-09-23T15:12:24.000Z</time>
      </trkpt>
      <trkpt lat="42.27079" lon="19.79552">
        <ele>554.82000732422</ele>
        <time>2024-09-23T15:12:25.000Z</time>
      </trkpt>
      <trkpt lat="42.27065" lon="19.7955">
        <ele>556.73999023438</ele>
        <time>2024-09-23T15:12:30.000Z</time>
      </trkpt>
      <trkpt lat="42.27063" lon="19.79547">
        <ele>557.21997070312</ele>
        <time>2024-09-23T15:12:31.000Z</time>
      </trkpt>
      <trkpt lat="42.2706" lon="19.79535">
        <ele>557.70001220703</ele>
        <time>2024-09-23T15:12:32.000Z</time>
      </trkpt>
      <trkpt lat="42.27059" lon="19.79532">
        <ele>558.17999267578</ele>
        <time>2024-09-23T15:12:33.000Z</time>
      </trkpt>
      <trkpt lat="42.27056" lon="19.79526">
        <ele>558.65997314453</ele>
        <time>2024-09-23T15:12:34.000Z</time>
      </trkpt>
      <trkpt lat="42.27054" lon="19.79521">
        <ele>559.14001464844</ele>
        <time>2024-09-23T15:12:35.000Z</time>
      </trkpt>
      <trkpt lat="42.27051" lon="19.79519">
        <ele>559.61999511719</ele>
        <time>2024-09-23T15:12:36.000Z</time>
      </trkpt>
      <trkpt lat="42.27047" lon="19.79519">
        <ele>560.10998535156</ele>
        <time>2024-09-23T15:12:37.000Z</time>
      </trkpt>
      <trkpt lat="42.27041" lon="19.7952">
        <ele>560.10998535156</ele>
        <time>2024-09-23T15:12:38.000Z</time>
      </trkpt>
      <trkpt lat="42.27037" lon="19.79524">
        <ele>560.59002685547</ele>
        <time>2024-09-23T15:12:39.000Z</time>
      </trkpt>
      <trkpt lat="42.27031" lon="19.79531">
        <ele>561.07000732422</ele>
        <time>2024-09-23T15:12:40.000Z</time>
      </trkpt>
      <trkpt lat="42.27021" lon="19.79547">
        <ele>561.07000732422</ele>
        <time>2024-09-23T15:12:42.000Z</time>
      </trkpt>
      <trkpt lat="42.27017" lon="19.79553">
        <ele>560.59002685547</ele>
        <time>2024-09-23T15:12:43.000Z</time>
      </trkpt>
      <trkpt lat="42.27014" lon="19.79561">
        <ele>560.59002685547</ele>
        <time>2024-09-23T15:12:44.000Z</time>
      </trkpt>
      <trkpt lat="42.27011" lon="19.79569">
        <ele>560.10998535156</ele>
        <time>2024-09-23T15:12:45.000Z</time>
      </trkpt>
      <trkpt lat="42.27011" lon="19.79579">
        <ele>559.14001464844</ele>
        <time>2024-09-23T15:12:46.000Z</time>
      </trkpt>
      <trkpt lat="42.27012" lon="19.79594">
        <ele>558.65997314453</ele>
        <time>2024-09-23T15:12:47.000Z</time>
      </trkpt>
      <trkpt lat="42.27013" lon="19.79604">
        <ele>558.17999267578</ele>
        <time>2024-09-23T15:12:48.000Z</time>
      </trkpt>
      <trkpt lat="42.27013" lon="19.7961">
        <ele>558.17999267578</ele>
        <time>2024-09-23T15:12:49.000Z</time>
      </trkpt>
      <trkpt lat="42.27011" lon="19.79619">
        <ele>557.70001220703</ele>
        <time>2024-09-23T15:12:50.000Z</time>
      </trkpt>
      <trkpt lat="42.27007" lon="19.79628">
        <ele>557.21997070312</ele>
        <time>2024-09-23T15:12:51.000Z</time>
      </trkpt>
      <trkpt lat="42.27001" lon="19.79636">
        <ele>557.21997070312</ele>
        <time>2024-09-23T15:12:52.000Z</time>
      </trkpt>
      <trkpt lat="42.26995" lon="19.79641">
        <ele>557.70001220703</ele>
        <time>2024-09-23T15:12:53.000Z</time>
      </trkpt>
      <trkpt lat="42.26989" lon="19.79644">
        <ele>558.17999267578</ele>
        <time>2024-09-23T15:12:54.000Z</time>
      </trkpt>
      <trkpt lat="42.26982" lon="19.79644">
        <ele>558.65997314453</ele>
        <time>2024-09-23T15:12:55.000Z</time>
      </trkpt>
      <trkpt lat="42.26975" lon="19.79641">
        <ele>559.14001464844</ele>
        <time>2024-09-23T15:12:56.000Z</time>
      </trkpt>
      <trkpt lat="42.26969" lon="19.79636">
        <ele>559.14001464844</ele>
        <time>2024-09-23T15:12:57.000Z</time>
      </trkpt>
      <trkpt lat="42.26955" lon="19.79623">
        <ele>560.10998535156</ele>
        <time>2024-09-23T15:12:58.000Z</time>
      </trkpt>
      <trkpt lat="42.26949" lon="19.79619">
        <ele>560.59002685547</ele>
        <time>2024-09-23T15:12:59.000Z</time>
      </trkpt>
      <trkpt lat="42.2694" lon="19.79614">
        <ele>560.59002685547</ele>
        <time>2024-09-23T15:13:00.000Z</time>
      </trkpt>
      <trkpt lat="42.2693" lon="19.79611">
        <ele>561.54998779297</ele>
        <time>2024-09-23T15:13:01.000Z</time>
      </trkpt>
      <trkpt lat="42.26909" lon="19.79609">
        <ele>562.51000976562</ele>
        <time>2024-09-23T15:13:02.000Z</time>
      </trkpt>
      <trkpt lat="42.26907" lon="19.79609">
        <ele>562.51000976562</ele>
        <time>2024-09-23T15:13:03.000Z</time>
      </trkpt>
      <trkpt lat="42.26895" lon="19.79606">
        <ele>562.98999023438</ele>
        <time>2024-09-23T15:13:04.000Z</time>
      </trkpt>
      <trkpt lat="42.26871" lon="19.79593">
        <ele>562.51000976562</ele>
        <time>2024-09-23T15:13:06.000Z</time>
      </trkpt>
      <trkpt lat="42.26848" lon="19.79581">
        <ele>561.54998779297</ele>
        <time>2024-09-23T15:13:08.000Z</time>
      </trkpt>
      <trkpt lat="42.26845" lon="19.7958">
        <ele>561.54998779297</ele>
        <time>2024-09-23T15:13:09.000Z</time>
      </trkpt>
      <trkpt lat="42.26841" lon="19.79577">
        <ele>561.07000732422</ele>
        <time>2024-09-23T15:13:10.000Z</time>
      </trkpt>
      <trkpt lat="42.26832" lon="19.79564">
        <ele>560.10998535156</ele>
        <time>2024-09-23T15:13:13.000Z</time>
      </trkpt>
      <trkpt lat="42.26831" lon="19.79562">
        <ele>559.61999511719</ele>
        <time>2024-09-23T15:13:14.000Z</time>
      </trkpt>
      <trkpt lat="42.26828" lon="19.79557">
        <ele>559.14001464844</ele>
        <time>2024-09-23T15:13:15.000Z</time>
      </trkpt>
      <trkpt lat="42.26822" lon="19.79552">
        <ele>558.65997314453</ele>
        <time>2024-09-23T15:13:16.000Z</time>
      </trkpt>
      <trkpt lat="42.26809" lon="19.79542">
        <ele>557.70001220703</ele>
        <time>2024-09-23T15:13:17.000Z</time>
      </trkpt>
      <trkpt lat="42.26802" lon="19.79536">
        <ele>557.70001220703</ele>
        <time>2024-09-23T15:13:18.000Z</time>
      </trkpt>
      <trkpt lat="42.26784" lon="19.79519">
        <ele>557.21997070312</ele>
        <time>2024-09-23T15:13:20.000Z</time>
      </trkpt>
      <trkpt lat="42.2677" lon="19.79507">
        <ele>557.70001220703</ele>
        <time>2024-09-23T15:13:21.000Z</time>
      </trkpt>
      <trkpt lat="42.26764" lon="19.79501">
        <ele>557.70001220703</ele>
        <time>2024-09-23T15:13:22.000Z</time>
      </trkpt>
      <trkpt lat="42.26761" lon="19.79497">
        <ele>557.70001220703</ele>
        <time>2024-09-23T15:13:23.000Z</time>
      </trkpt>
      <trkpt lat="42.26755" lon="19.79489">
        <ele>557.21997070312</ele>
        <time>2024-09-23T15:13:24.000Z</time>
      </trkpt>
      <trkpt lat="42.26751" lon="19.79478">
        <ele>557.21997070312</ele>
        <time>2024-09-23T15:13:25.000Z</time>
      </trkpt>
      <trkpt lat="42.26743" lon="19.79455">
        <ele>557.70001220703</ele>
        <time>2024-09-23T15:13:26.000Z</time>
      </trkpt>
      <trkpt lat="42.2673" lon="19.79422">
        <ele>558.17999267578</ele>
        <time>2024-09-23T15:13:29.000Z</time>
      </trkpt>
      <trkpt lat="42.26725" lon="19.79413">
        <ele>558.17999267578</ele>
        <time>2024-09-23T15:13:30.000Z</time>
      </trkpt>
      <trkpt lat="42.26718" lon="19.79402">
        <ele>558.65997314453</ele>
        <time>2024-09-23T15:13:31.000Z</time>
      </trkpt>
      <trkpt lat="42.2671" lon="19.79391">
        <ele>558.65997314453</ele>
        <time>2024-09-23T15:13:32.000Z</time>
      </trkpt>
      <trkpt lat="42.26699" lon="19.79379">
        <ele>559.14001464844</ele>
        <time>2024-09-23T15:13:33.000Z</time>
      </trkpt>
      <trkpt lat="42.26687" lon="19.79368">
        <ele>559.14001464844</ele>
        <time>2024-09-23T15:13:34.000Z</time>
      </trkpt>
      <trkpt lat="42.26683" lon="19.79363">
        <ele>559.61999511719</ele>
        <time>2024-09-23T15:13:35.000Z</time>
      </trkpt>
      <trkpt lat="42.26673" lon="19.79356">
        <ele>559.61999511719</ele>
        <time>2024-09-23T15:13:36.000Z</time>
      </trkpt>
      <trkpt lat="42.26662" lon="19.79351">
        <ele>559.61999511719</ele>
        <time>2024-09-23T15:13:37.000Z</time>
      </trkpt>
      <trkpt lat="42.26633" lon="19.7934">
        <ele>560.10998535156</ele>
        <time>2024-09-23T15:13:39.000Z</time>
      </trkpt>
      <trkpt lat="42.26629" lon="19.79338">
        <ele>560.10998535156</ele>
        <time>2024-09-23T15:13:40.000Z</time>
      </trkpt>
      <trkpt lat="42.26621" lon="19.79332">
        <ele>560.10998535156</ele>
        <time>2024-09-23T15:13:41.000Z</time>
      </trkpt>
      <trkpt lat="42.26614" lon="19.79326">
        <ele>560.59002685547</ele>
        <time>2024-09-23T15:13:42.000Z</time>
      </trkpt>
      <trkpt lat="42.26594" lon="19.79303">
        <ele>560.59002685547</ele>
        <time>2024-09-23T15:13:44.000Z</time>
      </trkpt>
      <trkpt lat="42.26571" lon="19.7928">
        <ele>561.54998779297</ele>
        <time>2024-09-23T15:13:46.000Z</time>
      </trkpt>
      <trkpt lat="42.26547" lon="19.79253">
        <ele>562.03002929688</ele>
        <time>2024-09-23T15:13:49.000Z</time>
      </trkpt>
      <trkpt lat="42.26538" lon="19.79244">
        <ele>562.51000976562</ele>
        <time>2024-09-23T15:13:50.000Z</time>
      </trkpt>
      <trkpt lat="42.26522" lon="19.7923">
        <ele>563.46997070312</ele>
        <time>2024-09-23T15:13:51.000Z</time>
      </trkpt>
      <trkpt lat="42.26507" lon="19.79217">
        <ele>564.42999267578</ele>
        <time>2024-09-23T15:13:53.000Z</time>
      </trkpt>
      <trkpt lat="42.26501" lon="19.79211">
        <ele>564.90997314453</ele>
        <time>2024-09-23T15:13:54.000Z</time>
      </trkpt>
      <trkpt lat="42.26495" lon="19.79203">
        <ele>565.39001464844</ele>
        <time>2024-09-23T15:13:55.000Z</time>
      </trkpt>
      <trkpt lat="42.2649" lon="19.79192">
        <ele>565.86999511719</ele>
        <time>2024-09-23T15:13:56.000Z</time>
      </trkpt>
      <trkpt lat="42.26483" lon="19.79176">
        <ele>566.34997558594</ele>
        <time>2024-09-23T15:13:57.000Z</time>
      </trkpt>
      <trkpt lat="42.2648" lon="19.79171">
        <ele>566.83001708984</ele>
        <time>2024-09-23T15:13:58.000Z</time>
      </trkpt>
      <trkpt lat="42.26474" lon="19.79162">
        <ele>566.83001708984</ele>
        <time>2024-09-23T15:13:59.000Z</time>
      </trkpt>
      <trkpt lat="42.26467" lon="19.79155">
        <ele>567.32000732422</ele>
        <time>2024-09-23T15:14:00.000Z</time>
      </trkpt>
      <trkpt lat="42.26462" lon="19.79149">
        <ele>567.79998779297</ele>
        <time>2024-09-23T15:14:01.000Z</time>
      </trkpt>
      <trkpt lat="42.26457" lon="19.79142">
        <ele>567.79998779297</ele>
        <time>2024-09-23T15:14:02.000Z</time>
      </trkpt>
      <trkpt lat="42.26455" lon="19.79135">
        <ele>567.79998779297</ele>
        <time>2024-09-23T15:14:03.000Z</time>
      </trkpt>
      <trkpt lat="42.26453" lon="19.79125">
        <ele>567.79998779297</ele>
        <time>2024-09-23T15:14:04.000Z</time>
      </trkpt>
      <trkpt lat="42.26452" lon="19.79115">
        <ele>567.79998779297</ele>
        <time>2024-09-23T15:14:05.000Z</time>
      </trkpt>
      <trkpt lat="42.26451" lon="19.79105">
        <ele>567.79998779297</ele>
        <time>2024-09-23T15:14:06.000Z</time>
      </trkpt>
      <trkpt lat="42.26451" lon="19.79096">
        <ele>567.79998779297</ele>
        <time>2024-09-23T15:14:07.000Z</time>
      </trkpt>
      <trkpt lat="42.2645" lon="19.79092">
        <ele>567.32000732422</ele>
        <time>2024-09-23T15:14:08.000Z</time>
      </trkpt>
      <trkpt lat="42.26448" lon="19.79078">
        <ele>567.32000732422</ele>
        <time>2024-09-23T15:14:15.000Z</time>
      </trkpt>
      <trkpt lat="42.26447" lon="19.79072">
        <ele>569.71997070312</ele>
        <time>2024-09-23T15:21:59.000Z</time>
      </trkpt>
      <trkpt lat="42.26445" lon="19.7907">
        <ele>569.71997070312</ele>
        <time>2024-09-23T15:22:00.000Z</time>
      </trkpt>
      <trkpt lat="42.26442" lon="19.79064">
        <ele>569.71997070312</ele>
        <time>2024-09-23T15:22:01.000Z</time>
      </trkpt>
      <trkpt lat="42.26439" lon="19.7906">
        <ele>569.71997070312</ele>
        <time>2024-09-23T15:22:02.000Z</time>
      </trkpt>
      <trkpt lat="42.26424" lon="19.79049">
        <ele>570.20001220703</ele>
        <time>2024-09-23T15:22:08.000Z</time>
      </trkpt>
      <trkpt lat="42.26424" lon="19.7905">
        <ele>570.20001220703</ele>
        <time>2024-09-23T15:22:09.000Z</time>
      </trkpt>
      <trkpt lat="42.26435" lon="19.79059">
        <ele>570.20001220703</ele>
        <time>2024-09-23T15:22:13.000Z</time>
      </trkpt>
      <trkpt lat="42.26437" lon="19.79061">
        <ele>570.20001220703</ele>
        <time>2024-09-23T15:22:14.000Z</time>
      </trkpt>
      <trkpt lat="42.2644" lon="19.79066">
        <ele>570.20001220703</ele>
        <time>2024-09-23T15:22:15.000Z</time>
      </trkpt>
      <trkpt lat="42.26443" lon="19.79071">
        <ele>570.20001220703</ele>
        <time>2024-09-23T15:22:16.000Z</time>
      </trkpt>
      <trkpt lat="42.26452" lon="19.79095">
        <ele>569.71997070312</ele>
        <time>2024-09-23T15:22:21.000Z</time>
      </trkpt>
      <trkpt lat="42.26452" lon="19.79097">
        <ele>569.71997070312</ele>
        <time>2024-09-23T15:22:22.000Z</time>
      </trkpt>
      <trkpt lat="42.26452" lon="19.79104">
        <ele>569.71997070312</ele>
        <time>2024-09-23T15:22:23.000Z</time>
      </trkpt>
      <trkpt lat="42.26453" lon="19.79119">
        <ele>569.71997070312</ele>
        <time>2024-09-23T15:22:25.000Z</time>
      </trkpt>
      <trkpt lat="42.26453" lon="19.79128">
        <ele>569.71997070312</ele>
        <time>2024-09-23T15:22:26.000Z</time>
      </trkpt>
      <trkpt lat="42.26454" lon="19.79135">
        <ele>569.71997070312</ele>
        <time>2024-09-23T15:22:27.000Z</time>
      </trkpt>
      <trkpt lat="42.26456" lon="19.7914">
        <ele>569.71997070312</ele>
        <time>2024-09-23T15:22:28.000Z</time>
      </trkpt>
      <trkpt lat="42.26458" lon="19.79147">
        <ele>569.71997070312</ele>
        <time>2024-09-23T15:22:29.000Z</time>
      </trkpt>
      <trkpt lat="42.26461" lon="19.79152">
        <ele>570.20001220703</ele>
        <time>2024-09-23T15:22:30.000Z</time>
      </trkpt>
      <trkpt lat="42.26465" lon="19.79156">
        <ele>570.20001220703</ele>
        <time>2024-09-23T15:22:31.000Z</time>
      </trkpt>
      <trkpt lat="42.26468" lon="19.79159">
        <ele>569.71997070312</ele>
        <time>2024-09-23T15:22:32.000Z</time>
      </trkpt>
      <trkpt lat="42.2648" lon="19.79174">
        <ele>569.23999023438</ele>
        <time>2024-09-23T15:22:36.000Z</time>
      </trkpt>
      <trkpt lat="42.26483" lon="19.79179">
        <ele>569.23999023438</ele>
        <time>2024-09-23T15:22:37.000Z</time>
      </trkpt>
      <trkpt lat="42.26483" lon="19.79181">
        <ele>569.23999023438</ele>
        <time>2024-09-23T15:22:38.000Z</time>
      </trkpt>
      <trkpt lat="42.26492" lon="19.79199">
        <ele>568.28002929688</ele>
        <time>2024-09-23T15:22:40.000Z</time>
      </trkpt>
      <trkpt lat="42.26494" lon="19.79203">
        <ele>568.28002929688</ele>
        <time>2024-09-23T15:22:41.000Z</time>
      </trkpt>
      <trkpt lat="42.26497" lon="19.79209">
        <ele>567.79998779297</ele>
        <time>2024-09-23T15:22:42.000Z</time>
      </trkpt>
      <trkpt lat="42.26501" lon="19.79214">
        <ele>566.83001708984</ele>
        <time>2024-09-23T15:22:43.000Z</time>
      </trkpt>
      <trkpt lat="42.26506" lon="19.7922">
        <ele>566.34997558594</ele>
        <time>2024-09-23T15:22:44.000Z</time>
      </trkpt>
      <trkpt lat="42.26512" lon="19.79225">
        <ele>565.86999511719</ele>
        <time>2024-09-23T15:22:45.000Z</time>
      </trkpt>
      <trkpt lat="42.26523" lon="19.79235">
        <ele>564.42999267578</ele>
        <time>2024-09-23T15:22:47.000Z</time>
      </trkpt>
      <trkpt lat="42.26543" lon="19.79253">
        <ele>562.98999023438</ele>
        <time>2024-09-23T15:22:51.000Z</time>
      </trkpt>
      <trkpt lat="42.26547" lon="19.79256">
        <ele>562.98999023438</ele>
        <time>2024-09-23T15:22:52.000Z</time>
      </trkpt>
      <trkpt lat="42.26552" lon="19.79263">
        <ele>562.51000976562</ele>
        <time>2024-09-23T15:22:53.000Z</time>
      </trkpt>
      <trkpt lat="42.26556" lon="19.79268">
        <ele>562.51000976562</ele>
        <time>2024-09-23T15:22:54.000Z</time>
      </trkpt>
      <trkpt lat="42.26561" lon="19.79273">
        <ele>562.03002929688</ele>
        <time>2024-09-23T15:22:59.000Z</time>
      </trkpt>
      <trkpt lat="42.26554" lon="19.79259">
        <ele>562.03002929688</ele>
        <time>2024-09-23T15:23:05.000Z</time>
      </trkpt>
      <trkpt lat="42.26553" lon="19.79258">
        <ele>562.03002929688</ele>
        <time>2024-09-23T15:23:06.000Z</time>
      </trkpt>
      <trkpt lat="42.26543" lon="19.79249">
        <ele>562.03002929688</ele>
        <time>2024-09-23T15:23:14.000Z</time>
      </trkpt>
      <trkpt lat="42.26538" lon="19.79244">
        <ele>562.51000976562</ele>
        <time>2024-09-23T15:24:24.000Z</time>
      </trkpt>
      <trkpt lat="42.26536" lon="19.79242">
        <ele>562.51000976562</ele>
        <time>2024-09-23T15:24:25.000Z</time>
      </trkpt>
      <trkpt lat="42.26532" lon="19.79238">
        <ele>562.98999023438</ele>
        <time>2024-09-23T15:24:26.000Z</time>
      </trkpt>
      <trkpt lat="42.26528" lon="19.79234">
        <ele>562.98999023438</ele>
        <time>2024-09-23T15:24:27.000Z</time>
      </trkpt>
      <trkpt lat="42.2652" lon="19.79228">
        <ele>562.98999023438</ele>
        <time>2024-09-23T15:24:28.000Z</time>
      </trkpt>
      <trkpt lat="42.26511" lon="19.79221">
        <ele>563.46997070312</ele>
        <time>2024-09-23T15:24:30.000Z</time>
      </trkpt>
      <trkpt lat="42.26505" lon="19.79215">
        <ele>563.95001220703</ele>
        <time>2024-09-23T15:24:31.000Z</time>
      </trkpt>
      <trkpt lat="42.26499" lon="19.79209">
        <ele>564.42999267578</ele>
        <time>2024-09-23T15:24:32.000Z</time>
      </trkpt>
      <trkpt lat="42.26494" lon="19.79199">
        <ele>564.90997314453</ele>
        <time>2024-09-23T15:24:33.000Z</time>
      </trkpt>
      <trkpt lat="42.26487" lon="19.79183">
        <ele>565.86999511719</ele>
        <time>2024-09-23T15:24:34.000Z</time>
      </trkpt>
      <trkpt lat="42.26483" lon="19.79176">
        <ele>566.34997558594</ele>
        <time>2024-09-23T15:24:35.000Z</time>
      </trkpt>
      <trkpt lat="42.26481" lon="19.79173">
        <ele>566.34997558594</ele>
        <time>2024-09-23T15:24:36.000Z</time>
      </trkpt>
      <trkpt lat="42.26477" lon="19.79165">
        <ele>566.83001708984</ele>
        <time>2024-09-23T15:24:37.000Z</time>
      </trkpt>
      <trkpt lat="42.26471" lon="19.79159">
        <ele>566.83001708984</ele>
        <time>2024-09-23T15:24:38.000Z</time>
      </trkpt>
      <trkpt lat="42.26465" lon="19.79153">
        <ele>567.32000732422</ele>
        <time>2024-09-23T15:24:39.000Z</time>
      </trkpt>
      <trkpt lat="42.26461" lon="19.79147">
        <ele>567.79998779297</ele>
        <time>2024-09-23T15:24:40.000Z</time>
      </trkpt>
      <trkpt lat="42.26457" lon="19.7914">
        <ele>567.32000732422</ele>
        <time>2024-09-23T15:24:41.000Z</time>
      </trkpt>
      <trkpt lat="42.26455" lon="19.79131">
        <ele>567.32000732422</ele>
        <time>2024-09-23T15:24:42.000Z</time>
      </trkpt>
      <trkpt lat="42.26453" lon="19.79108">
        <ele>567.32000732422</ele>
        <time>2024-09-23T15:24:44.000Z</time>
      </trkpt>
      <trkpt lat="42.26451" lon="19.79091">
        <ele>567.32000732422</ele>
        <time>2024-09-23T15:24:46.000Z</time>
      </trkpt>
      <trkpt lat="42.2645" lon="19.79085">
        <ele>567.32000732422</ele>
        <time>2024-09-23T15:24:47.000Z</time>
      </trkpt>
      <trkpt lat="42.26448" lon="19.79076">
        <ele>567.32000732422</ele>
        <time>2024-09-23T15:24:48.000Z</time>
      </trkpt>
      <trkpt lat="42.26444" lon="19.79067">
        <ele>567.32000732422</ele>
        <time>2024-09-23T15:24:49.000Z</time>
      </trkpt>
      <trkpt lat="42.26439" lon="19.7906">
        <ele>567.32000732422</ele>
        <time>2024-09-23T15:24:50.000Z</time>
      </trkpt>
      <trkpt lat="42.26429" lon="19.7905">
        <ele>567.79998779297</ele>
        <time>2024-09-23T15:24:51.000Z</time>
      </trkpt>
      <trkpt lat="42.26426" lon="19.79047">
        <ele>567.79998779297</ele>
        <time>2024-09-23T15:24:52.000Z</time>
      </trkpt>
      <trkpt lat="42.26421" lon="19.7904">
        <ele>567.79998779297</ele>
        <time>2024-09-23T15:24:53.000Z</time>
      </trkpt>
      <trkpt lat="42.26416" lon="19.79031">
        <ele>568.28002929688</ele>
        <time>2024-09-23T15:24:54.000Z</time>
      </trkpt>
      <trkpt lat="42.26413" lon="19.79022">
        <ele>568.28002929688</ele>
        <time>2024-09-23T15:24:55.000Z</time>
      </trkpt>
      <trkpt lat="42.26412" lon="19.79013">
        <ele>568.76000976562</ele>
        <time>2024-09-23T15:24:56.000Z</time>
      </trkpt>
      <trkpt lat="42.26412" lon="19.79004">
        <ele>568.76000976562</ele>
        <time>2024-09-23T15:24:57.000Z</time>
      </trkpt>
      <trkpt lat="42.26413" lon="19.78995">
        <ele>569.23999023438</ele>
        <time>2024-09-23T15:24:58.000Z</time>
      </trkpt>
      <trkpt lat="42.26412" lon="19.78988">
        <ele>569.71997070312</ele>
        <time>2024-09-23T15:24:59.000Z</time>
      </trkpt>
      <trkpt lat="42.2641" lon="19.78982">
        <ele>569.71997070312</ele>
        <time>2024-09-23T15:25:00.000Z</time>
      </trkpt>
      <trkpt lat="42.26406" lon="19.78977">
        <ele>570.20001220703</ele>
        <time>2024-09-23T15:25:01.000Z</time>
      </trkpt>
      <trkpt lat="42.26399" lon="19.78971">
        <ele>570.67999267578</ele>
        <time>2024-09-23T15:25:02.000Z</time>
      </trkpt>
      <trkpt lat="42.26396" lon="19.78968">
        <ele>571.15997314453</ele>
        <time>2024-09-23T15:25:03.000Z</time>
      </trkpt>
      <trkpt lat="42.26391" lon="19.78962">
        <ele>571.64001464844</ele>
        <time>2024-09-23T15:25:04.000Z</time>
      </trkpt>
      <trkpt lat="42.26385" lon="19.78945">
        <ele>573.08001708984</ele>
        <time>2024-09-23T15:25:05.000Z</time>
      </trkpt>
      <trkpt lat="42.26384" lon="19.78944">
        <ele>573.55999755859</ele>
        <time>2024-09-23T15:25:06.000Z</time>
      </trkpt>
      <trkpt lat="42.2638" lon="19.78936">
        <ele>574.53002929688</ele>
        <time>2024-09-23T15:25:07.000Z</time>
      </trkpt>
      <trkpt lat="42.26375" lon="19.78929">
        <ele>575.01000976562</ele>
        <time>2024-09-23T15:25:08.000Z</time>
      </trkpt>
      <trkpt lat="42.26369" lon="19.78924">
        <ele>575.48999023438</ele>
        <time>2024-09-23T15:25:09.000Z</time>
      </trkpt>
      <trkpt lat="42.26362" lon="19.78919">
        <ele>576.45001220703</ele>
        <time>2024-09-23T15:25:10.000Z</time>
      </trkpt>
      <trkpt lat="42.26355" lon="19.78916">
        <ele>576.92999267578</ele>
        <time>2024-09-23T15:25:11.000Z</time>
      </trkpt>
      <trkpt lat="42.26347" lon="19.78913">
        <ele>577.89001464844</ele>
        <time>2024-09-23T15:25:12.000Z</time>
      </trkpt>
      <trkpt lat="42.26341" lon="19.78909">
        <ele>577.40997314453</ele>
        <time>2024-09-23T15:25:13.000Z</time>
      </trkpt>
      <trkpt lat="42.26335" lon="19.78905">
        <ele>577.40997314453</ele>
        <time>2024-09-23T15:25:14.000Z</time>
      </trkpt>
      <trkpt lat="42.2633" lon="19.78904">
        <ele>577.89001464844</ele>
        <time>2024-09-23T15:25:15.000Z</time>
      </trkpt>
      <trkpt lat="42.26326" lon="19.78904">
        <ele>577.40997314453</ele>
        <time>2024-09-23T15:25:16.000Z</time>
      </trkpt>
      <trkpt lat="42.26322" lon="19.78907">
        <ele>576.92999267578</ele>
        <time>2024-09-23T15:25:17.000Z</time>
      </trkpt>
      <trkpt lat="42.26318" lon="19.78911">
        <ele>576.92999267578</ele>
        <time>2024-09-23T15:25:18.000Z</time>
      </trkpt>
      <trkpt lat="42.26317" lon="19.78918">
        <ele>576.92999267578</ele>
        <time>2024-09-23T15:25:19.000Z</time>
      </trkpt>
      <trkpt lat="42.26317" lon="19.78921">
        <ele>576.92999267578</ele>
        <time>2024-09-23T15:25:20.000Z</time>
      </trkpt>
      <trkpt lat="42.26319" lon="19.78928">
        <ele>576.92999267578</ele>
        <time>2024-09-23T15:25:21.000Z</time>
      </trkpt>
      <trkpt lat="42.26323" lon="19.78936">
        <ele>576.92999267578</ele>
        <time>2024-09-23T15:25:22.000Z</time>
      </trkpt>
      <trkpt lat="42.26326" lon="19.78945">
        <ele>576.92999267578</ele>
        <time>2024-09-23T15:25:23.000Z</time>
      </trkpt>
      <trkpt lat="42.26327" lon="19.78953">
        <ele>576.92999267578</ele>
        <time>2024-09-23T15:25:24.000Z</time>
      </trkpt>
      <trkpt lat="42.26327" lon="19.78962">
        <ele>576.45001220703</ele>
        <time>2024-09-23T15:25:25.000Z</time>
      </trkpt>
      <trkpt lat="42.26325" lon="19.78971">
        <ele>575.96997070312</ele>
        <time>2024-09-23T15:25:26.000Z</time>
      </trkpt>
      <trkpt lat="42.26322" lon="19.7898">
        <ele>575.96997070312</ele>
        <time>2024-09-23T15:25:27.000Z</time>
      </trkpt>
      <trkpt lat="42.26318" lon="19.78992">
        <ele>575.96997070312</ele>
        <time>2024-09-23T15:25:28.000Z</time>
      </trkpt>
      <trkpt lat="42.26314" lon="19.79002">
        <ele>575.96997070312</ele>
        <time>2024-09-23T15:25:29.000Z</time>
      </trkpt>
      <trkpt lat="42.26311" lon="19.79011">
        <ele>575.96997070312</ele>
        <time>2024-09-23T15:25:30.000Z</time>
      </trkpt>
      <trkpt lat="42.26308" lon="19.79021">
        <ele>575.96997070312</ele>
        <time>2024-09-23T15:25:31.000Z</time>
      </trkpt>
      <trkpt lat="42.26307" lon="19.79031">
        <ele>576.45001220703</ele>
        <time>2024-09-23T15:25:32.000Z</time>
      </trkpt>
      <trkpt lat="42.26307" lon="19.79047">
        <ele>577.40997314453</ele>
        <time>2024-09-23T15:25:33.000Z</time>
      </trkpt>
      <trkpt lat="42.26307" lon="19.79049">
        <ele>577.89001464844</ele>
        <time>2024-09-23T15:25:34.000Z</time>
      </trkpt>
      <trkpt lat="42.26305" lon="19.79057">
        <ele>578.84997558594</ele>
        <time>2024-09-23T15:25:35.000Z</time>
      </trkpt>
      <trkpt lat="42.26302" lon="19.79064">
        <ele>579.80999755859</ele>
        <time>2024-09-23T15:25:36.000Z</time>
      </trkpt>
      <trkpt lat="42.26297" lon="19.79069">
        <ele>580.28997802734</ele>
        <time>2024-09-23T15:25:37.000Z</time>
      </trkpt>
      <trkpt lat="42.26291" lon="19.79074">
        <ele>580.77001953125</ele>
        <time>2024-09-23T15:25:38.000Z</time>
      </trkpt>
      <trkpt lat="42.26285" lon="19.79079">
        <ele>581.25</ele>
        <time>2024-09-23T15:25:39.000Z</time>
      </trkpt>
      <trkpt lat="42.26279" lon="19.79085">
        <ele>582.21997070312</ele>
        <time>2024-09-23T15:25:40.000Z</time>
      </trkpt>
      <trkpt lat="42.26273" lon="19.79093">
        <ele>582.70001220703</ele>
        <time>2024-09-23T15:25:41.000Z</time>
      </trkpt>
      <trkpt lat="42.26267" lon="19.79102">
        <ele>583.65997314453</ele>
        <time>2024-09-23T15:25:42.000Z</time>
      </trkpt>
      <trkpt lat="42.26263" lon="19.79107">
        <ele>584.14001464844</ele>
        <time>2024-09-23T15:25:43.000Z</time>
      </trkpt>
      <trkpt lat="42.26257" lon="19.79112">
        <ele>585.09997558594</ele>
        <time>2024-09-23T15:25:44.000Z</time>
      </trkpt>
      <trkpt lat="42.2625" lon="19.79117">
        <ele>586.05999755859</ele>
        <time>2024-09-23T15:25:45.000Z</time>
      </trkpt>
      <trkpt lat="42.26244" lon="19.79123">
        <ele>586.53997802734</ele>
        <time>2024-09-23T15:25:46.000Z</time>
      </trkpt>
      <trkpt lat="42.2624" lon="19.79129">
        <ele>587.02001953125</ele>
        <time>2024-09-23T15:25:47.000Z</time>
      </trkpt>
      <trkpt lat="42.26236" lon="19.79137">
        <ele>587.5</ele>
        <time>2024-09-23T15:25:48.000Z</time>
      </trkpt>
      <trkpt lat="42.26235" lon="19.79145">
        <ele>587.97998046875</ele>
        <time>2024-09-23T15:25:49.000Z</time>
      </trkpt>
      <trkpt lat="42.26235" lon="19.79155">
        <ele>588.46002197266</ele>
        <time>2024-09-23T15:25:50.000Z</time>
      </trkpt>
      <trkpt lat="42.26237" lon="19.79164">
        <ele>588.95001220703</ele>
        <time>2024-09-23T15:25:51.000Z</time>
      </trkpt>
      <trkpt lat="42.26238" lon="19.79175">
        <ele>589.90997314453</ele>
        <time>2024-09-23T15:25:52.000Z</time>
      </trkpt>
      <trkpt lat="42.26238" lon="19.79186">
        <ele>590.39001464844</ele>
        <time>2024-09-23T15:25:53.000Z</time>
      </trkpt>
      <trkpt lat="42.26235" lon="19.79197">
        <ele>590.39001464844</ele>
        <time>2024-09-23T15:25:54.000Z</time>
      </trkpt>
      <trkpt lat="42.26229" lon="19.79216">
        <ele>592.30999755859</ele>
        <time>2024-09-23T15:25:55.000Z</time>
      </trkpt>
      <trkpt lat="42.26224" lon="19.79235">
        <ele>593.75</ele>
        <time>2024-09-23T15:25:57.000Z</time>
      </trkpt>
      <trkpt lat="42.26222" lon="19.79247">
        <ele>594.71002197266</ele>
        <time>2024-09-23T15:25:58.000Z</time>
      </trkpt>
      <trkpt lat="42.26222" lon="19.79253">
        <ele>595.19000244141</ele>
        <time>2024-09-23T15:25:59.000Z</time>
      </trkpt>
      <trkpt lat="42.26223" lon="19.79262">
        <ele>596.15002441406</ele>
        <time>2024-09-23T15:26:00.000Z</time>
      </trkpt>
      <trkpt lat="42.26225" lon="19.79271">
        <ele>596.64001464844</ele>
        <time>2024-09-23T15:26:01.000Z</time>
      </trkpt>
      <trkpt lat="42.26228" lon="19.7928">
        <ele>597.59997558594</ele>
        <time>2024-09-23T15:26:02.000Z</time>
      </trkpt>
      <trkpt lat="42.26233" lon="19.79298">
        <ele>598.55999755859</ele>
        <time>2024-09-23T15:26:03.000Z</time>
      </trkpt>
      <trkpt lat="42.26234" lon="19.79304">
        <ele>599.52001953125</ele>
        <time>2024-09-23T15:26:04.000Z</time>
      </trkpt>
      <trkpt lat="42.26236" lon="19.79314">
        <ele>600</ele>
        <time>2024-09-23T15:26:05.000Z</time>
      </trkpt>
      <trkpt lat="42.26237" lon="19.79326">
        <ele>600.47998046875</ele>
        <time>2024-09-23T15:26:06.000Z</time>
      </trkpt>
      <trkpt lat="42.26236" lon="19.79341">
        <ele>601.44000244141</ele>
        <time>2024-09-23T15:26:07.000Z</time>
      </trkpt>
      <trkpt lat="42.26236" lon="19.79352">
        <ele>601.91998291016</ele>
        <time>2024-09-23T15:26:08.000Z</time>
      </trkpt>
      <trkpt lat="42.26236" lon="19.79369">
        <ele>602.88000488281</ele>
        <time>2024-09-23T15:26:09.000Z</time>
      </trkpt>
      <trkpt lat="42.26237" lon="19.79389">
        <ele>603.84997558594</ele>
        <time>2024-09-23T15:26:11.000Z</time>
      </trkpt>
      <trkpt lat="42.26236" lon="19.79399">
        <ele>604.33001708984</ele>
        <time>2024-09-23T15:26:12.000Z</time>
      </trkpt>
      <trkpt lat="42.26234" lon="19.79407">
        <ele>605.28997802734</ele>
        <time>2024-09-23T15:26:13.000Z</time>
      </trkpt>
      <trkpt lat="42.2623" lon="19.79413">
        <ele>605.77001953125</ele>
        <time>2024-09-23T15:26:14.000Z</time>
      </trkpt>
      <trkpt lat="42.26225" lon="19.79418">
        <ele>606.72998046875</ele>
        <time>2024-09-23T15:26:15.000Z</time>
      </trkpt>
      <trkpt lat="42.2622" lon="19.79421">
        <ele>607.21002197266</ele>
        <time>2024-09-23T15:26:16.000Z</time>
      </trkpt>
      <trkpt lat="42.26216" lon="19.79425">
        <ele>608.16998291016</ele>
        <time>2024-09-23T15:26:17.000Z</time>
      </trkpt>
      <trkpt lat="42.26213" lon="19.7943">
        <ele>608.16998291016</ele>
        <time>2024-09-23T15:26:18.000Z</time>
      </trkpt>
      <trkpt lat="42.26212" lon="19.79439">
        <ele>608.65002441406</ele>
        <time>2024-09-23T15:26:19.000Z</time>
      </trkpt>
      <trkpt lat="42.26213" lon="19.79447">
        <ele>609.13000488281</ele>
        <time>2024-09-23T15:26:20.000Z</time>
      </trkpt>
      <trkpt lat="42.26212" lon="19.79458">
        <ele>609.13000488281</ele>
        <time>2024-09-23T15:26:21.000Z</time>
      </trkpt>
      <trkpt lat="42.2621" lon="19.79468">
        <ele>609.60998535156</ele>
        <time>2024-09-23T15:26:22.000Z</time>
      </trkpt>
      <trkpt lat="42.26205" lon="19.79478">
        <ele>610.09002685547</ele>
        <time>2024-09-23T15:26:23.000Z</time>
      </trkpt>
      <trkpt lat="42.26199" lon="19.79486">
        <ele>611.05999755859</ele>
        <time>2024-09-23T15:26:24.000Z</time>
      </trkpt>
      <trkpt lat="42.26188" lon="19.79499">
        <ele>612.02001953125</ele>
        <time>2024-09-23T15:26:25.000Z</time>
      </trkpt>
      <trkpt lat="42.26185" lon="19.79503">
        <ele>612.02001953125</ele>
        <time>2024-09-23T15:26:26.000Z</time>
      </trkpt>
      <trkpt lat="42.26176" lon="19.79514">
        <ele>612.97998046875</ele>
        <time>2024-09-23T15:26:27.000Z</time>
      </trkpt>
      <trkpt lat="42.26173" lon="19.79519">
        <ele>612.97998046875</ele>
        <time>2024-09-23T15:26:28.000Z</time>
      </trkpt>
      <trkpt lat="42.26169" lon="19.79528">
        <ele>613.46002197266</ele>
        <time>2024-09-23T15:26:29.000Z</time>
      </trkpt>
      <trkpt lat="42.26166" lon="19.79539">
        <ele>613.94000244141</ele>
        <time>2024-09-23T15:26:30.000Z</time>
      </trkpt>
      <trkpt lat="42.26165" lon="19.79545">
        <ele>614.41998291016</ele>
        <time>2024-09-23T15:26:31.000Z</time>
      </trkpt>
      <trkpt lat="42.26162" lon="19.79551">
        <ele>614.90002441406</ele>
        <time>2024-09-23T15:26:32.000Z</time>
      </trkpt>
      <trkpt lat="42.26151" lon="19.79548">
        <ele>616.34002685547</ele>
        <time>2024-09-23T15:26:35.000Z</time>
      </trkpt>
      <trkpt lat="42.26151" lon="19.79546">
        <ele>616.82000732422</ele>
        <time>2024-09-23T15:26:36.000Z</time>
      </trkpt>
      <trkpt lat="42.26149" lon="19.79538">
        <ele>617.29998779297</ele>
        <time>2024-09-23T15:26:37.000Z</time>
      </trkpt>
      <trkpt lat="42.26148" lon="19.79528">
        <ele>617.78002929688</ele>
        <time>2024-09-23T15:26:38.000Z</time>
      </trkpt>
      <trkpt lat="42.26149" lon="19.79516">
        <ele>618.75</ele>
        <time>2024-09-23T15:26:39.000Z</time>
      </trkpt>
      <trkpt lat="42.26149" lon="19.79508">
        <ele>619.71002197266</ele>
        <time>2024-09-23T15:26:40.000Z</time>
      </trkpt>
      <trkpt lat="42.26151" lon="19.79499">
        <ele>620.19000244141</ele>
        <time>2024-09-23T15:26:41.000Z</time>
      </trkpt>
      <trkpt lat="42.26153" lon="19.79489">
        <ele>620.66998291016</ele>
        <time>2024-09-23T15:26:42.000Z</time>
      </trkpt>
      <trkpt lat="42.26157" lon="19.79477">
        <ele>621.63000488281</ele>
        <time>2024-09-23T15:26:43.000Z</time>
      </trkpt>
      <trkpt lat="42.2616" lon="19.79469">
        <ele>622.10998535156</ele>
        <time>2024-09-23T15:26:44.000Z</time>
      </trkpt>
      <trkpt lat="42.26167" lon="19.7945">
        <ele>622.59002685547</ele>
        <time>2024-09-23T15:26:46.000Z</time>
      </trkpt>
      <trkpt lat="42.26168" lon="19.79446">
        <ele>623.07000732422</ele>
        <time>2024-09-23T15:26:47.000Z</time>
      </trkpt>
      <trkpt lat="42.26158" lon="19.79432">
        <ele>626.91998291016</ele>
        <time>2024-09-23T15:26:52.000Z</time>
      </trkpt>
      <trkpt lat="42.26155" lon="19.79435">
        <ele>627.40002441406</ele>
        <time>2024-09-23T15:26:53.000Z</time>
      </trkpt>
      <trkpt lat="42.26151" lon="19.79441">
        <ele>628.35998535156</ele>
        <time>2024-09-23T15:26:54.000Z</time>
      </trkpt>
      <trkpt lat="42.26148" lon="19.7945">
        <ele>629.32000732422</ele>
        <time>2024-09-23T15:26:55.000Z</time>
      </trkpt>
      <trkpt lat="42.26145" lon="19.79457">
        <ele>629.79998779297</ele>
        <time>2024-09-23T15:26:56.000Z</time>
      </trkpt>
      <trkpt lat="42.26136" lon="19.79475">
        <ele>631.71997070312</ele>
        <time>2024-09-23T15:26:58.000Z</time>
      </trkpt>
      <trkpt lat="42.26133" lon="19.79483">
        <ele>632.67999267578</ele>
        <time>2024-09-23T15:26:59.000Z</time>
      </trkpt>
      <trkpt lat="42.26131" lon="19.79487">
        <ele>633.16998291016</ele>
        <time>2024-09-23T15:27:00.000Z</time>
      </trkpt>
      <trkpt lat="42.2612" lon="19.79481">
        <ele>635.09002685547</ele>
        <time>2024-09-23T15:27:05.000Z</time>
      </trkpt>
      <trkpt lat="42.2612" lon="19.79479">
        <ele>635.09002685547</ele>
        <time>2024-09-23T15:27:06.000Z</time>
      </trkpt>
      <trkpt lat="42.26125" lon="19.79468">
        <ele>636.04998779297</ele>
        <time>2024-09-23T15:27:07.000Z</time>
      </trkpt>
      <trkpt lat="42.26126" lon="19.79466">
        <ele>636.04998779297</ele>
        <time>2024-09-23T15:27:08.000Z</time>
      </trkpt>
      <trkpt lat="42.26128" lon="19.79457">
        <ele>636.53002929688</ele>
        <time>2024-09-23T15:27:09.000Z</time>
      </trkpt>
      <trkpt lat="42.26128" lon="19.79447">
        <ele>636.53002929688</ele>
        <time>2024-09-23T15:27:10.000Z</time>
      </trkpt>
      <trkpt lat="42.26127" lon="19.79435">
        <ele>636.53002929688</ele>
        <time>2024-09-23T15:27:11.000Z</time>
      </trkpt>
      <trkpt lat="42.26126" lon="19.79423">
        <ele>637.01000976562</ele>
        <time>2024-09-23T15:27:12.000Z</time>
      </trkpt>
      <trkpt lat="42.26121" lon="19.79397">
        <ele>637.48999023438</ele>
        <time>2024-09-23T15:27:14.000Z</time>
      </trkpt>
      <trkpt lat="42.26121" lon="19.79393">
        <ele>637.48999023438</ele>
        <time>2024-09-23T15:27:15.000Z</time>
      </trkpt>
      <trkpt lat="42.26121" lon="19.79386">
        <ele>637.48999023438</ele>
        <time>2024-09-23T15:27:16.000Z</time>
      </trkpt>
      <trkpt lat="42.26124" lon="19.79381">
        <ele>637.96997070312</ele>
        <time>2024-09-23T15:27:17.000Z</time>
      </trkpt>
      <trkpt lat="42.26128" lon="19.79375">
        <ele>638.45001220703</ele>
        <time>2024-09-23T15:27:18.000Z</time>
      </trkpt>
      <trkpt lat="42.26133" lon="19.7937">
        <ele>639.40997314453</ele>
        <time>2024-09-23T15:27:19.000Z</time>
      </trkpt>
      <trkpt lat="42.26136" lon="19.79364">
        <ele>639.40997314453</ele>
        <time>2024-09-23T15:27:20.000Z</time>
      </trkpt>
      <trkpt lat="42.26138" lon="19.79355">
        <ele>639.89001464844</ele>
        <time>2024-09-23T15:27:21.000Z</time>
      </trkpt>
      <trkpt lat="42.26138" lon="19.79345">
        <ele>640.38000488281</ele>
        <time>2024-09-23T15:27:22.000Z</time>
      </trkpt>
      <trkpt lat="42.26136" lon="19.79321">
        <ele>641.82000732422</ele>
        <time>2024-09-23T15:27:24.000Z</time>
      </trkpt>
      <trkpt lat="42.26134" lon="19.79307">
        <ele>642.29998779297</ele>
        <time>2024-09-23T15:27:25.000Z</time>
      </trkpt>
      <trkpt lat="42.26131" lon="19.79294">
        <ele>643.26000976562</ele>
        <time>2024-09-23T15:27:26.000Z</time>
      </trkpt>
      <trkpt lat="42.26128" lon="19.79286">
        <ele>643.26000976562</ele>
        <time>2024-09-23T15:27:27.000Z</time>
      </trkpt>
      <trkpt lat="42.26127" lon="19.79277">
        <ele>643.73999023438</ele>
        <time>2024-09-23T15:27:28.000Z</time>
      </trkpt>
      <trkpt lat="42.26128" lon="19.79268">
        <ele>644.70001220703</ele>
        <time>2024-09-23T15:27:29.000Z</time>
      </trkpt>
      <trkpt lat="42.2613" lon="19.79259">
        <ele>644.70001220703</ele>
        <time>2024-09-23T15:27:30.000Z</time>
      </trkpt>
      <trkpt lat="42.26135" lon="19.79241">
        <ele>645.65997314453</ele>
        <time>2024-09-23T15:27:31.000Z</time>
      </trkpt>
      <trkpt lat="42.26137" lon="19.79234">
        <ele>645.65997314453</ele>
        <time>2024-09-23T15:27:32.000Z</time>
      </trkpt>
      <trkpt lat="42.26139" lon="19.7922">
        <ele>646.61999511719</ele>
        <time>2024-09-23T15:27:33.000Z</time>
      </trkpt>
      <trkpt lat="42.2614" lon="19.79201">
        <ele>647.59002685547</ele>
        <time>2024-09-23T15:27:34.000Z</time>
      </trkpt>
      <trkpt lat="42.2614" lon="19.79191">
        <ele>648.54998779297</ele>
        <time>2024-09-23T15:27:35.000Z</time>
      </trkpt>
      <trkpt lat="42.26139" lon="19.79176">
        <ele>649.98999023438</ele>
        <time>2024-09-23T15:27:36.000Z</time>
      </trkpt>
      <trkpt lat="42.26137" lon="19.79159">
        <ele>651.42999267578</ele>
        <time>2024-09-23T15:27:37.000Z</time>
      </trkpt>
      <trkpt lat="42.26135" lon="19.79149">
        <ele>651.90997314453</ele>
        <time>2024-09-23T15:27:38.000Z</time>
      </trkpt>
      <trkpt lat="42.26133" lon="19.79137">
        <ele>652.86999511719</ele>
        <time>2024-09-23T15:27:39.000Z</time>
      </trkpt>
      <trkpt lat="42.2613" lon="19.79125">
        <ele>653.83001708984</ele>
        <time>2024-09-23T15:27:40.000Z</time>
      </trkpt>
      <trkpt lat="42.26126" lon="19.79114">
        <ele>654.79998779297</ele>
        <time>2024-09-23T15:27:41.000Z</time>
      </trkpt>
      <trkpt lat="42.26121" lon="19.79106">
        <ele>656.23999023438</ele>
        <time>2024-09-23T15:27:42.000Z</time>
      </trkpt>
      <trkpt lat="42.26115" lon="19.791">
        <ele>657.67999267578</ele>
        <time>2024-09-23T15:27:43.000Z</time>
      </trkpt>
      <trkpt lat="42.26108" lon="19.79096">
        <ele>658.64001464844</ele>
        <time>2024-09-23T15:27:44.000Z</time>
      </trkpt>
      <trkpt lat="42.26103" lon="19.79093">
        <ele>659.11999511719</ele>
        <time>2024-09-23T15:27:45.000Z</time>
      </trkpt>
      <trkpt lat="42.26101" lon="19.79075">
        <ele>661.03997802734</ele>
        <time>2024-09-23T15:27:49.000Z</time>
      </trkpt>
      <trkpt lat="42.26105" lon="19.79069">
        <ele>660.55999755859</ele>
        <time>2024-09-23T15:27:50.000Z</time>
      </trkpt>
      <trkpt lat="42.26108" lon="19.79061">
        <ele>661.03997802734</ele>
        <time>2024-09-23T15:27:51.000Z</time>
      </trkpt>
      <trkpt lat="42.26111" lon="19.79051">
        <ele>661.03997802734</ele>
        <time>2024-09-23T15:27:52.000Z</time>
      </trkpt>
      <trkpt lat="42.26113" lon="19.79033">
        <ele>662.01000976562</ele>
        <time>2024-09-23T15:27:53.000Z</time>
      </trkpt>
      <trkpt lat="42.26114" lon="19.79031">
        <ele>662.01000976562</ele>
        <time>2024-09-23T15:27:54.000Z</time>
      </trkpt>
      <trkpt lat="42.26117" lon="19.79019">
        <ele>662.48999023438</ele>
        <time>2024-09-23T15:27:55.000Z</time>
      </trkpt>
      <trkpt lat="42.2612" lon="19.7901">
        <ele>662.96997070312</ele>
        <time>2024-09-23T15:27:56.000Z</time>
      </trkpt>
      <trkpt lat="42.26125" lon="19.79001">
        <ele>663.45001220703</ele>
        <time>2024-09-23T15:27:57.000Z</time>
      </trkpt>
      <trkpt lat="42.26128" lon="19.78994">
        <ele>664.40997314453</ele>
        <time>2024-09-23T15:27:58.000Z</time>
      </trkpt>
      <trkpt lat="42.2613" lon="19.78987">
        <ele>665.36999511719</ele>
        <time>2024-09-23T15:27:59.000Z</time>
      </trkpt>
      <trkpt lat="42.26122" lon="19.78975">
        <ele>668.25</ele>
        <time>2024-09-23T15:28:03.000Z</time>
      </trkpt>
      <trkpt lat="42.26119" lon="19.78978">
        <ele>668.72998046875</ele>
        <time>2024-09-23T15:28:04.000Z</time>
      </trkpt>
      <trkpt lat="42.26115" lon="19.78984">
        <ele>669.21997070312</ele>
        <time>2024-09-23T15:28:05.000Z</time>
      </trkpt>
      <trkpt lat="42.26111" lon="19.78994">
        <ele>670.17999267578</ele>
        <time>2024-09-23T15:28:06.000Z</time>
      </trkpt>
      <trkpt lat="42.26107" lon="19.79001">
        <ele>670.65997314453</ele>
        <time>2024-09-23T15:28:07.000Z</time>
      </trkpt>
      <trkpt lat="42.26096" lon="19.79022">
        <ele>672.58001708984</ele>
        <time>2024-09-23T15:28:09.000Z</time>
      </trkpt>
      <trkpt lat="42.26091" lon="19.79031">
        <ele>673.05999755859</ele>
        <time>2024-09-23T15:28:10.000Z</time>
      </trkpt>
      <trkpt lat="42.26085" lon="19.79039">
        <ele>674.02001953125</ele>
        <time>2024-09-23T15:28:11.000Z</time>
      </trkpt>
      <trkpt lat="42.26078" lon="19.79047">
        <ele>674.97998046875</ele>
        <time>2024-09-23T15:28:12.000Z</time>
      </trkpt>
      <trkpt lat="42.2607" lon="19.79054">
        <ele>676.41998291016</ele>
        <time>2024-09-23T15:28:13.000Z</time>
      </trkpt>
      <trkpt lat="42.2606" lon="19.79061">
        <ele>678.34997558594</ele>
        <time>2024-09-23T15:28:14.000Z</time>
      </trkpt>
      <trkpt lat="42.26053" lon="19.79066">
        <ele>679.30999755859</ele>
        <time>2024-09-23T15:28:15.000Z</time>
      </trkpt>
      <trkpt lat="42.26049" lon="19.7907">
        <ele>679.78997802734</ele>
        <time>2024-09-23T15:28:16.000Z</time>
      </trkpt>
      <trkpt lat="42.26046" lon="19.79075">
        <ele>679.78997802734</ele>
        <time>2024-09-23T15:28:17.000Z</time>
      </trkpt>
      <trkpt lat="42.26047" lon="19.79082">
        <ele>680.27001953125</ele>
        <time>2024-09-23T15:28:18.000Z</time>
      </trkpt>
      <trkpt lat="42.26049" lon="19.79089">
        <ele>681.22998046875</ele>
        <time>2024-09-23T15:28:19.000Z</time>
      </trkpt>
      <trkpt lat="42.26055" lon="19.791">
        <ele>682.19000244141</ele>
        <time>2024-09-23T15:28:20.000Z</time>
      </trkpt>
      <trkpt lat="42.26057" lon="19.79107">
        <ele>682.66998291016</ele>
        <time>2024-09-23T15:28:21.000Z</time>
      </trkpt>
      <trkpt lat="42.2606" lon="19.79116">
        <ele>683.15002441406</ele>
        <time>2024-09-23T15:28:22.000Z</time>
      </trkpt>
      <trkpt lat="42.26061" lon="19.79127">
        <ele>683.63000488281</ele>
        <time>2024-09-23T15:28:23.000Z</time>
      </trkpt>
      <trkpt lat="42.2606" lon="19.79139">
        <ele>684.59997558594</ele>
        <time>2024-09-23T15:28:24.000Z</time>
      </trkpt>
      <trkpt lat="42.26057" lon="19.79148">
        <ele>685.08001708984</ele>
        <time>2024-09-23T15:28:25.000Z</time>
      </trkpt>
      <trkpt lat="42.26053" lon="19.79158">
        <ele>685.55999755859</ele>
        <time>2024-09-23T15:28:26.000Z</time>
      </trkpt>
      <trkpt lat="42.26049" lon="19.79171">
        <ele>686.52001953125</ele>
        <time>2024-09-23T15:28:27.000Z</time>
      </trkpt>
      <trkpt lat="42.26046" lon="19.79184">
        <ele>687</ele>
        <time>2024-09-23T15:28:28.000Z</time>
      </trkpt>
      <trkpt lat="42.26045" lon="19.79193">
        <ele>687.96002197266</ele>
        <time>2024-09-23T15:28:29.000Z</time>
      </trkpt>
      <trkpt lat="42.26044" lon="19.79208">
        <ele>689.40002441406</ele>
        <time>2024-09-23T15:28:30.000Z</time>
      </trkpt>
      <trkpt lat="42.26044" lon="19.7922">
        <ele>689.88000488281</ele>
        <time>2024-09-23T15:28:31.000Z</time>
      </trkpt>
      <trkpt lat="42.26043" lon="19.79231">
        <ele>690.84002685547</ele>
        <time>2024-09-23T15:28:32.000Z</time>
      </trkpt>
      <trkpt lat="42.26042" lon="19.79247">
        <ele>691.80999755859</ele>
        <time>2024-09-23T15:28:34.000Z</time>
      </trkpt>
      <trkpt lat="42.26041" lon="19.79255">
        <ele>692.28997802734</ele>
        <time>2024-09-23T15:28:35.000Z</time>
      </trkpt>
      <trkpt lat="42.26039" lon="19.79266">
        <ele>692.77001953125</ele>
        <time>2024-09-23T15:28:42.000Z</time>
      </trkpt>
      <trkpt lat="42.26034" lon="19.79273">
        <ele>694.21002197266</ele>
        <time>2024-09-23T15:36:24.000Z</time>
      </trkpt>
      <trkpt lat="42.26032" lon="19.79276">
        <ele>694.21002197266</ele>
        <time>2024-09-23T15:36:25.000Z</time>
      </trkpt>
      <trkpt lat="42.26025" lon="19.79283">
        <ele>695.16998291016</ele>
        <time>2024-09-23T15:36:26.000Z</time>
      </trkpt>
      <trkpt lat="42.26022" lon="19.79286">
        <ele>695.65002441406</ele>
        <time>2024-09-23T15:36:27.000Z</time>
      </trkpt>
      <trkpt lat="42.26015" lon="19.79292">
        <ele>696.60998535156</ele>
        <time>2024-09-23T15:36:28.000Z</time>
      </trkpt>
      <trkpt lat="42.26011" lon="19.79294">
        <ele>697.09002685547</ele>
        <time>2024-09-23T15:36:29.000Z</time>
      </trkpt>
      <trkpt lat="42.26006" lon="19.79297">
        <ele>697.57000732422</ele>
        <time>2024-09-23T15:36:30.000Z</time>
      </trkpt>
      <trkpt lat="42.25999" lon="19.79299">
        <ele>698.04998779297</ele>
        <time>2024-09-23T15:36:31.000Z</time>
      </trkpt>
      <trkpt lat="42.25991" lon="19.79299">
        <ele>698.53002929688</ele>
        <time>2024-09-23T15:36:32.000Z</time>
      </trkpt>
      <trkpt lat="42.25982" lon="19.79298">
        <ele>699.5</ele>
        <time>2024-09-23T15:36:33.000Z</time>
      </trkpt>
      <trkpt lat="42.25971" lon="19.79296">
        <ele>700.46002197266</ele>
        <time>2024-09-23T15:36:34.000Z</time>
      </trkpt>
      <trkpt lat="42.25969" lon="19.79296">
        <ele>700.46002197266</ele>
        <time>2024-09-23T15:36:35.000Z</time>
      </trkpt>
      <trkpt lat="42.2596" lon="19.79296">
        <ele>701.41998291016</ele>
        <time>2024-09-23T15:36:36.000Z</time>
      </trkpt>
      <trkpt lat="42.25952" lon="19.79297">
        <ele>701.90002441406</ele>
        <time>2024-09-23T15:36:37.000Z</time>
      </trkpt>
      <trkpt lat="42.25945" lon="19.79299">
        <ele>702.85998535156</ele>
        <time>2024-09-23T15:36:38.000Z</time>
      </trkpt>
      <trkpt lat="42.2592" lon="19.7931">
        <ele>704.78002929688</ele>
        <time>2024-09-23T15:36:41.000Z</time>
      </trkpt>
      <trkpt lat="42.25914" lon="19.79313">
        <ele>705.26000976562</ele>
        <time>2024-09-23T15:36:42.000Z</time>
      </trkpt>
      <trkpt lat="42.2591" lon="19.79316">
        <ele>705.26000976562</ele>
        <time>2024-09-23T15:36:43.000Z</time>
      </trkpt>
      <trkpt lat="42.25905" lon="19.7932">
        <ele>705.26000976562</ele>
        <time>2024-09-23T15:36:44.000Z</time>
      </trkpt>
      <trkpt lat="42.25902" lon="19.79324">
        <ele>705.26000976562</ele>
        <time>2024-09-23T15:36:45.000Z</time>
      </trkpt>
      <trkpt lat="42.25902" lon="19.7933">
        <ele>705.26000976562</ele>
        <time>2024-09-23T15:36:46.000Z</time>
      </trkpt>
      <trkpt lat="42.25903" lon="19.7934">
        <ele>705.75</ele>
        <time>2024-09-23T15:36:47.000Z</time>
      </trkpt>
      <trkpt lat="42.25905" lon="19.79348">
        <ele>706.22998046875</ele>
        <time>2024-09-23T15:36:48.000Z</time>
      </trkpt>
      <trkpt lat="42.25906" lon="19.79359">
        <ele>706.71002197266</ele>
        <time>2024-09-23T15:36:49.000Z</time>
      </trkpt>
      <trkpt lat="42.25907" lon="19.79374">
        <ele>707.66998291016</ele>
        <time>2024-09-23T15:36:50.000Z</time>
      </trkpt>
      <trkpt lat="42.25907" lon="19.79386">
        <ele>708.15002441406</ele>
        <time>2024-09-23T15:36:51.000Z</time>
      </trkpt>
      <trkpt lat="42.25907" lon="19.7939">
        <ele>708.63000488281</ele>
        <time>2024-09-23T15:36:52.000Z</time>
      </trkpt>
      <trkpt lat="42.25907" lon="19.794">
        <ele>709.10998535156</ele>
        <time>2024-09-23T15:36:53.000Z</time>
      </trkpt>
      <trkpt lat="42.25905" lon="19.79408">
        <ele>709.59002685547</ele>
        <time>2024-09-23T15:36:54.000Z</time>
      </trkpt>
      <trkpt lat="42.25902" lon="19.7942">
        <ele>710.07000732422</ele>
        <time>2024-09-23T15:36:55.000Z</time>
      </trkpt>
      <trkpt lat="42.25893" lon="19.7944">
        <ele>711.98999023438</ele>
        <time>2024-09-23T15:36:56.000Z</time>
      </trkpt>
      <trkpt lat="42.25891" lon="19.79444">
        <ele>712.46997070312</ele>
        <time>2024-09-23T15:36:57.000Z</time>
      </trkpt>
      <trkpt lat="42.25888" lon="19.79454">
        <ele>713.44000244141</ele>
        <time>2024-09-23T15:36:58.000Z</time>
      </trkpt>
      <trkpt lat="42.25886" lon="19.79466">
        <ele>714.88000488281</ele>
        <time>2024-09-23T15:36:59.000Z</time>
      </trkpt>
      <trkpt lat="42.25884" lon="19.79484">
        <ele>716.32000732422</ele>
        <time>2024-09-23T15:37:00.000Z</time>
      </trkpt>
      <trkpt lat="42.25883" lon="19.79491">
        <ele>716.32000732422</ele>
        <time>2024-09-23T15:37:01.000Z</time>
      </trkpt>
      <trkpt lat="42.2588" lon="19.79503">
        <ele>717.28002929688</ele>
        <time>2024-09-23T15:37:02.000Z</time>
      </trkpt>
      <trkpt lat="42.25876" lon="19.79514">
        <ele>718.71997070312</ele>
        <time>2024-09-23T15:37:03.000Z</time>
      </trkpt>
      <trkpt lat="42.2587" lon="19.79524">
        <ele>719.67999267578</ele>
        <time>2024-09-23T15:37:04.000Z</time>
      </trkpt>
      <trkpt lat="42.25865" lon="19.79531">
        <ele>720.65002441406</ele>
        <time>2024-09-23T15:37:05.000Z</time>
      </trkpt>
      <trkpt lat="42.25859" lon="19.79534">
        <ele>721.13000488281</ele>
        <time>2024-09-23T15:37:06.000Z</time>
      </trkpt>
      <trkpt lat="42.25852" lon="19.79536">
        <ele>722.09002685547</ele>
        <time>2024-09-23T15:37:07.000Z</time>
      </trkpt>
      <trkpt lat="42.25845" lon="19.79535">
        <ele>723.04998779297</ele>
        <time>2024-09-23T15:37:08.000Z</time>
      </trkpt>
      <trkpt lat="42.25835" lon="19.79533">
        <ele>724.48999023438</ele>
        <time>2024-09-23T15:37:09.000Z</time>
      </trkpt>
      <trkpt lat="42.25823" lon="19.79529">
        <ele>725.92999267578</ele>
        <time>2024-09-23T15:37:10.000Z</time>
      </trkpt>
      <trkpt lat="42.25817" lon="19.79528">
        <ele>726.40997314453</ele>
        <time>2024-09-23T15:37:11.000Z</time>
      </trkpt>
      <trkpt lat="42.25812" lon="19.79527">
        <ele>726.89001464844</ele>
        <time>2024-09-23T15:37:12.000Z</time>
      </trkpt>
      <trkpt lat="42.25806" lon="19.79528">
        <ele>727.36999511719</ele>
        <time>2024-09-23T15:37:13.000Z</time>
      </trkpt>
      <trkpt lat="42.25801" lon="19.79532">
        <ele>727.36999511719</ele>
        <time>2024-09-23T15:37:14.000Z</time>
      </trkpt>
      <trkpt lat="42.258" lon="19.79534">
        <ele>727.85998535156</ele>
        <time>2024-09-23T15:37:15.000Z</time>
      </trkpt>
      <trkpt lat="42.25799" lon="19.79541">
        <ele>728.34002685547</ele>
        <time>2024-09-23T15:37:16.000Z</time>
      </trkpt>
      <trkpt lat="42.258" lon="19.79548">
        <ele>728.82000732422</ele>
        <time>2024-09-23T15:37:17.000Z</time>
      </trkpt>
      <trkpt lat="42.25804" lon="19.79556">
        <ele>729.29998779297</ele>
        <time>2024-09-23T15:37:18.000Z</time>
      </trkpt>
      <trkpt lat="42.25811" lon="19.79566">
        <ele>730.26000976562</ele>
        <time>2024-09-23T15:37:19.000Z</time>
      </trkpt>
      <trkpt lat="42.25815" lon="19.7957">
        <ele>730.73999023438</ele>
        <time>2024-09-23T15:37:20.000Z</time>
      </trkpt>
      <trkpt lat="42.25821" lon="19.7958">
        <ele>731.21997070312</ele>
        <time>2024-09-23T15:37:21.000Z</time>
      </trkpt>
      <trkpt lat="42.25825" lon="19.79587">
        <ele>731.70001220703</ele>
        <time>2024-09-23T15:37:22.000Z</time>
      </trkpt>
      <trkpt lat="42.25828" lon="19.79597">
        <ele>732.17999267578</ele>
        <time>2024-09-23T15:37:23.000Z</time>
      </trkpt>
      <trkpt lat="42.25829" lon="19.79608">
        <ele>732.65997314453</ele>
        <time>2024-09-23T15:37:24.000Z</time>
      </trkpt>
      <trkpt lat="42.25828" lon="19.79617">
        <ele>733.14001464844</ele>
        <time>2024-09-23T15:37:25.000Z</time>
      </trkpt>
      <trkpt lat="42.25826" lon="19.79626">
        <ele>733.61999511719</ele>
        <time>2024-09-23T15:37:26.000Z</time>
      </trkpt>
      <trkpt lat="42.25822" lon="19.79634">
        <ele>734.09997558594</ele>
        <time>2024-09-23T15:37:27.000Z</time>
      </trkpt>
      <trkpt lat="42.25818" lon="19.7964">
        <ele>734.09997558594</ele>
        <time>2024-09-23T15:37:28.000Z</time>
      </trkpt>
      <trkpt lat="42.25808" lon="19.79631">
        <ele>735.54998779297</ele>
        <time>2024-09-23T15:37:34.000Z</time>
      </trkpt>
      <trkpt lat="42.25809" lon="19.79624">
        <ele>736.03002929688</ele>
        <time>2024-09-23T15:37:35.000Z</time>
      </trkpt>
      <trkpt lat="42.25811" lon="19.79617">
        <ele>736.51000976562</ele>
        <time>2024-09-23T15:37:36.000Z</time>
      </trkpt>
      <trkpt lat="42.25811" lon="19.7961">
        <ele>736.98999023438</ele>
        <time>2024-09-23T15:37:37.000Z</time>
      </trkpt>
      <trkpt lat="42.2581" lon="19.79602">
        <ele>737.46997070312</ele>
        <time>2024-09-23T15:37:38.000Z</time>
      </trkpt>
      <trkpt lat="42.25806" lon="19.79593">
        <ele>737.95001220703</ele>
        <time>2024-09-23T15:37:39.000Z</time>
      </trkpt>
      <trkpt lat="42.25801" lon="19.79583">
        <ele>738.90997314453</ele>
        <time>2024-09-23T15:37:40.000Z</time>
      </trkpt>
      <trkpt lat="42.25792" lon="19.79572">
        <ele>739.86999511719</ele>
        <time>2024-09-23T15:37:41.000Z</time>
      </trkpt>
      <trkpt lat="42.25784" lon="19.79562">
        <ele>740.34997558594</ele>
        <time>2024-09-23T15:37:42.000Z</time>
      </trkpt>
      <trkpt lat="42.25783" lon="19.79561">
        <ele>740.83001708984</ele>
        <time>2024-09-23T15:37:43.000Z</time>
      </trkpt>
      <trkpt lat="42.25779" lon="19.79552">
        <ele>741.30999755859</ele>
        <time>2024-09-23T15:37:44.000Z</time>
      </trkpt>
      <trkpt lat="42.25775" lon="19.79539">
        <ele>742.28002929688</ele>
        <time>2024-09-23T15:37:45.000Z</time>
      </trkpt>
      <trkpt lat="42.25772" lon="19.7953">
        <ele>742.76000976562</ele>
        <time>2024-09-23T15:37:46.000Z</time>
      </trkpt>
      <trkpt lat="42.2577" lon="19.79521">
        <ele>743.71997070312</ele>
        <time>2024-09-23T15:37:47.000Z</time>
      </trkpt>
      <trkpt lat="42.25767" lon="19.7951">
        <ele>744.20001220703</ele>
        <time>2024-09-23T15:37:48.000Z</time>
      </trkpt>
      <trkpt lat="42.25762" lon="19.79502">
        <ele>745.15997314453</ele>
        <time>2024-09-23T15:37:49.000Z</time>
      </trkpt>
      <trkpt lat="42.25755" lon="19.79496">
        <ele>746.11999511719</ele>
        <time>2024-09-23T15:37:50.000Z</time>
      </trkpt>
      <trkpt lat="42.25745" lon="19.79486">
        <ele>747.08001708984</ele>
        <time>2024-09-23T15:37:51.000Z</time>
      </trkpt>
      <trkpt lat="42.25741" lon="19.79481">
        <ele>748.03997802734</ele>
        <time>2024-09-23T15:37:52.000Z</time>
      </trkpt>
      <trkpt lat="42.25736" lon="19.79472">
        <ele>748.52001953125</ele>
        <time>2024-09-23T15:37:53.000Z</time>
      </trkpt>
      <trkpt lat="42.25732" lon="19.79464">
        <ele>749</ele>
        <time>2024-09-23T15:37:54.000Z</time>
      </trkpt>
      <trkpt lat="42.25732" lon="19.79457">
        <ele>749.48999023438</ele>
        <time>2024-09-23T15:37:55.000Z</time>
      </trkpt>
      <trkpt lat="42.25736" lon="19.79447">
        <ele>749.48999023438</ele>
        <time>2024-09-23T15:37:56.000Z</time>
      </trkpt>
      <trkpt lat="42.25742" lon="19.79438">
        <ele>749.96997070312</ele>
        <time>2024-09-23T15:37:57.000Z</time>
      </trkpt>
      <trkpt lat="42.2576" lon="19.79417">
        <ele>751.89001464844</ele>
        <time>2024-09-23T15:37:59.000Z</time>
      </trkpt>
      <trkpt lat="42.25764" lon="19.79413">
        <ele>752.36999511719</ele>
        <time>2024-09-23T15:38:00.000Z</time>
      </trkpt>
      <trkpt lat="42.2577" lon="19.79402">
        <ele>753.33001708984</ele>
        <time>2024-09-23T15:38:01.000Z</time>
      </trkpt>
      <trkpt lat="42.25774" lon="19.79392">
        <ele>754.77001953125</ele>
        <time>2024-09-23T15:38:02.000Z</time>
      </trkpt>
      <trkpt lat="42.25776" lon="19.79379">
        <ele>755.72998046875</ele>
        <time>2024-09-23T15:38:03.000Z</time>
      </trkpt>
      <trkpt lat="42.25779" lon="19.79365">
        <ele>756.69000244141</ele>
        <time>2024-09-23T15:38:04.000Z</time>
      </trkpt>
      <trkpt lat="42.25786" lon="19.79333">
        <ele>758.61999511719</ele>
        <time>2024-09-23T15:38:06.000Z</time>
      </trkpt>
      <trkpt lat="42.25791" lon="19.79313">
        <ele>760.05999755859</ele>
        <time>2024-09-23T15:38:07.000Z</time>
      </trkpt>
      <trkpt lat="42.25794" lon="19.79296">
        <ele>761.02001953125</ele>
        <time>2024-09-23T15:38:08.000Z</time>
      </trkpt>
      <trkpt lat="42.25798" lon="19.79284">
        <ele>761.97998046875</ele>
        <time>2024-09-23T15:38:09.000Z</time>
      </trkpt>
      <trkpt lat="42.25802" lon="19.79272">
        <ele>762.46002197266</ele>
        <time>2024-09-23T15:38:10.000Z</time>
      </trkpt>
      <trkpt lat="42.25817" lon="19.7923">
        <ele>766.78997802734</ele>
        <time>2024-09-23T15:38:12.000Z</time>
      </trkpt>
      <trkpt lat="42.25833" lon="19.79179">
        <ele>773.03997802734</ele>
        <time>2024-09-23T15:38:15.000Z</time>
      </trkpt>
      <trkpt lat="42.25835" lon="19.79173">
        <ele>773.52001953125</ele>
        <time>2024-09-23T15:38:16.000Z</time>
      </trkpt>
      <trkpt lat="42.25838" lon="19.79161">
        <ele>775.44000244141</ele>
        <time>2024-09-23T15:38:17.000Z</time>
      </trkpt>
      <trkpt lat="42.25841" lon="19.79133">
        <ele>777.35998535156</ele>
        <time>2024-09-23T15:38:18.000Z</time>
      </trkpt>
      <trkpt lat="42.25842" lon="19.79128">
        <ele>777.84002685547</ele>
        <time>2024-09-23T15:38:19.000Z</time>
      </trkpt>
      <trkpt lat="42.25846" lon="19.79088">
        <ele>780.25</ele>
        <time>2024-09-23T15:38:21.000Z</time>
      </trkpt>
      <trkpt lat="42.25847" lon="19.79077">
        <ele>781.21002197266</ele>
        <time>2024-09-23T15:38:22.000Z</time>
      </trkpt>
      <trkpt lat="42.25848" lon="19.7907">
        <ele>781.69000244141</ele>
        <time>2024-09-23T15:38:23.000Z</time>
      </trkpt>
      <trkpt lat="42.25848" lon="19.79062">
        <ele>781.69000244141</ele>
        <time>2024-09-23T15:38:24.000Z</time>
      </trkpt>
      <trkpt lat="42.25846" lon="19.79055">
        <ele>782.16998291016</ele>
        <time>2024-09-23T15:38:25.000Z</time>
      </trkpt>
      <trkpt lat="42.25843" lon="19.7905">
        <ele>782.65002441406</ele>
        <time>2024-09-23T15:38:26.000Z</time>
      </trkpt>
      <trkpt lat="42.25838" lon="19.79045">
        <ele>783.13000488281</ele>
        <time>2024-09-23T15:38:27.000Z</time>
      </trkpt>
      <trkpt lat="42.25825" lon="19.79038">
        <ele>783.13000488281</ele>
        <time>2024-09-23T15:38:28.000Z</time>
      </trkpt>
      <trkpt lat="42.25821" lon="19.79036">
        <ele>783.60998535156</ele>
        <time>2024-09-23T15:38:29.000Z</time>
      </trkpt>
      <trkpt lat="42.25815" lon="19.79034">
        <ele>783.60998535156</ele>
        <time>2024-09-23T15:38:30.000Z</time>
      </trkpt>
      <trkpt lat="42.25808" lon="19.79029">
        <ele>784.57000732422</ele>
        <time>2024-09-23T15:38:31.000Z</time>
      </trkpt>
      <trkpt lat="42.25803" lon="19.79023">
        <ele>784.57000732422</ele>
        <time>2024-09-23T15:38:32.000Z</time>
      </trkpt>
      <trkpt lat="42.258" lon="19.79017">
        <ele>785.04998779297</ele>
        <time>2024-09-23T15:38:33.000Z</time>
      </trkpt>
      <trkpt lat="42.25798" lon="19.7901">
        <ele>785.04998779297</ele>
        <time>2024-09-23T15:38:34.000Z</time>
      </trkpt>
      <trkpt lat="42.25795" lon="19.78999">
        <ele>785.53002929688</ele>
        <time>2024-09-23T15:38:35.000Z</time>
      </trkpt>
      <trkpt lat="42.25794" lon="19.78993">
        <ele>786.02001953125</ele>
        <time>2024-09-23T15:38:36.000Z</time>
      </trkpt>
      <trkpt lat="42.25793" lon="19.78984">
        <ele>786.5</ele>
        <time>2024-09-23T15:38:37.000Z</time>
      </trkpt>
      <trkpt lat="42.25793" lon="19.78971">
        <ele>786.97998046875</ele>
        <time>2024-09-23T15:38:38.000Z</time>
      </trkpt>
      <trkpt lat="42.25794" lon="19.78959">
        <ele>787.94000244141</ele>
        <time>2024-09-23T15:38:39.000Z</time>
      </trkpt>
      <trkpt lat="42.25793" lon="19.78951">
        <ele>788.41998291016</ele>
        <time>2024-09-23T15:38:40.000Z</time>
      </trkpt>
      <trkpt lat="42.25792" lon="19.78942">
        <ele>789.38000488281</ele>
        <time>2024-09-23T15:38:41.000Z</time>
      </trkpt>
      <trkpt lat="42.25789" lon="19.78934">
        <ele>789.85998535156</ele>
        <time>2024-09-23T15:38:42.000Z</time>
      </trkpt>
      <trkpt lat="42.25784" lon="19.78926">
        <ele>790.82000732422</ele>
        <time>2024-09-23T15:38:43.000Z</time>
      </trkpt>
      <trkpt lat="42.25777" lon="19.7892">
        <ele>791.29998779297</ele>
        <time>2024-09-23T15:38:44.000Z</time>
      </trkpt>
      <trkpt lat="42.2577" lon="19.78915">
        <ele>792.26000976562</ele>
        <time>2024-09-23T15:38:45.000Z</time>
      </trkpt>
      <trkpt lat="42.25749" lon="19.78905">
        <ele>794.66998291016</ele>
        <time>2024-09-23T15:38:47.000Z</time>
      </trkpt>
      <trkpt lat="42.2573" lon="19.78895">
        <ele>796.59002685547</ele>
        <time>2024-09-23T15:38:49.000Z</time>
      </trkpt>
      <trkpt lat="42.25724" lon="19.78891">
        <ele>797.54998779297</ele>
        <time>2024-09-23T15:38:50.000Z</time>
      </trkpt>
      <trkpt lat="42.25722" lon="19.78889">
        <ele>797.54998779297</ele>
        <time>2024-09-23T15:38:51.000Z</time>
      </trkpt>
      <trkpt lat="42.25718" lon="19.78885">
        <ele>798.98999023438</ele>
        <time>2024-09-23T15:38:52.000Z</time>
      </trkpt>
      <trkpt lat="42.25715" lon="19.78879">
        <ele>798.98999023438</ele>
        <time>2024-09-23T15:38:53.000Z</time>
      </trkpt>
      <trkpt lat="42.25719" lon="19.78868">
        <ele>799.46997070312</ele>
        <time>2024-09-23T15:38:55.000Z</time>
      </trkpt>
      <trkpt lat="42.25721" lon="19.78865">
        <ele>799.46997070312</ele>
        <time>2024-09-23T15:38:56.000Z</time>
      </trkpt>
      <trkpt lat="42.25726" lon="19.7886">
        <ele>799.95001220703</ele>
        <time>2024-09-23T15:38:57.000Z</time>
      </trkpt>
      <trkpt lat="42.25733" lon="19.78855">
        <ele>799.95001220703</ele>
        <time>2024-09-23T15:38:58.000Z</time>
      </trkpt>
      <trkpt lat="42.25739" lon="19.78847">
        <ele>800.91998291016</ele>
        <time>2024-09-23T15:38:59.000Z</time>
      </trkpt>
      <trkpt lat="42.25745" lon="19.78837">
        <ele>801.88000488281</ele>
        <time>2024-09-23T15:39:00.000Z</time>
      </trkpt>
      <trkpt lat="42.2575" lon="19.78826">
        <ele>802.84002685547</ele>
        <time>2024-09-23T15:39:01.000Z</time>
      </trkpt>
      <trkpt lat="42.25753" lon="19.78813">
        <ele>803.79998779297</ele>
        <time>2024-09-23T15:39:02.000Z</time>
      </trkpt>
      <trkpt lat="42.25754" lon="19.788">
        <ele>804.76000976562</ele>
        <time>2024-09-23T15:39:03.000Z</time>
      </trkpt>
      <trkpt lat="42.25753" lon="19.78781">
        <ele>805.71997070312</ele>
        <time>2024-09-23T15:39:04.000Z</time>
      </trkpt>
      <trkpt lat="42.25752" lon="19.78769">
        <ele>806.20001220703</ele>
        <time>2024-09-23T15:39:05.000Z</time>
      </trkpt>
      <trkpt lat="42.25752" lon="19.78758">
        <ele>806.67999267578</ele>
        <time>2024-09-23T15:39:06.000Z</time>
      </trkpt>
      <trkpt lat="42.25752" lon="19.78749">
        <ele>807.15997314453</ele>
        <time>2024-09-23T15:39:07.000Z</time>
      </trkpt>
      <trkpt lat="42.25754" lon="19.78736">
        <ele>807.64001464844</ele>
        <time>2024-09-23T15:39:08.000Z</time>
      </trkpt>
      <trkpt lat="42.25759" lon="19.78711">
        <ele>809.57000732422</ele>
        <time>2024-09-23T15:39:10.000Z</time>
      </trkpt>
      <trkpt lat="42.25761" lon="19.78685">
        <ele>811.96997070312</ele>
        <time>2024-09-23T15:39:11.000Z</time>
      </trkpt>
      <trkpt lat="42.25762" lon="19.78678">
        <ele>812.92999267578</ele>
        <time>2024-09-23T15:39:12.000Z</time>
      </trkpt>
      <trkpt lat="42.25763" lon="19.78667">
        <ele>813.89001464844</ele>
        <time>2024-09-23T15:39:13.000Z</time>
      </trkpt>
      <trkpt lat="42.25765" lon="19.78661">
        <ele>814.36999511719</ele>
        <time>2024-09-23T15:39:14.000Z</time>
      </trkpt>
      <trkpt lat="42.25768" lon="19.78654">
        <ele>815.34002685547</ele>
        <time>2024-09-23T15:39:15.000Z</time>
      </trkpt>
      <trkpt lat="42.25774" lon="19.7864">
        <ele>816.78002929688</ele>
        <time>2024-09-23T15:39:16.000Z</time>
      </trkpt>
      <trkpt lat="42.25778" lon="19.78632">
        <ele>817.26000976562</ele>
        <time>2024-09-23T15:39:17.000Z</time>
      </trkpt>
      <trkpt lat="42.25788" lon="19.78604">
        <ele>819.17999267578</ele>
        <time>2024-09-23T15:39:19.000Z</time>
      </trkpt>
      <trkpt lat="42.25792" lon="19.78591">
        <ele>820.14001464844</ele>
        <time>2024-09-23T15:39:20.000Z</time>
      </trkpt>
      <trkpt lat="42.25796" lon="19.7858">
        <ele>821.58001708984</ele>
        <time>2024-09-23T15:39:21.000Z</time>
      </trkpt>
      <trkpt lat="42.258" lon="19.78553">
        <ele>823.51000976562</ele>
        <time>2024-09-23T15:39:22.000Z</time>
      </trkpt>
      <trkpt lat="42.258" lon="19.78548">
        <ele>823.98999023438</ele>
        <time>2024-09-23T15:39:23.000Z</time>
      </trkpt>
      <trkpt lat="42.25804" lon="19.78533">
        <ele>824.46997070312</ele>
        <time>2024-09-23T15:39:24.000Z</time>
      </trkpt>
      <trkpt lat="42.25812" lon="19.78509">
        <ele>825.90997314453</ele>
        <time>2024-09-23T15:39:25.000Z</time>
      </trkpt>
      <trkpt lat="42.25813" lon="19.78507">
        <ele>825.90997314453</ele>
        <time>2024-09-23T15:39:26.000Z</time>
      </trkpt>
      <trkpt lat="42.25825" lon="19.7847">
        <ele>829.76000976562</ele>
        <time>2024-09-23T15:39:28.000Z</time>
      </trkpt>
      <trkpt lat="42.2583" lon="19.78452">
        <ele>831.67999267578</ele>
        <time>2024-09-23T15:39:29.000Z</time>
      </trkpt>
      <trkpt lat="42.25831" lon="19.78449">
        <ele>831.67999267578</ele>
        <time>2024-09-23T15:39:30.000Z</time>
      </trkpt>
      <trkpt lat="42.25832" lon="19.78439">
        <ele>832.64001464844</ele>
        <time>2024-09-23T15:39:31.000Z</time>
      </trkpt>
      <trkpt lat="42.25832" lon="19.78429">
        <ele>833.11999511719</ele>
        <time>2024-09-23T15:39:32.000Z</time>
      </trkpt>
      <trkpt lat="42.2583" lon="19.7842">
        <ele>833.59997558594</ele>
        <time>2024-09-23T15:39:33.000Z</time>
      </trkpt>
      <trkpt lat="42.25826" lon="19.78413">
        <ele>834.08001708984</ele>
        <time>2024-09-23T15:39:34.000Z</time>
      </trkpt>
      <trkpt lat="42.25819" lon="19.78406">
        <ele>834.55999755859</ele>
        <time>2024-09-23T15:39:35.000Z</time>
      </trkpt>
      <trkpt lat="42.25808" lon="19.78397">
        <ele>835.52001953125</ele>
        <time>2024-09-23T15:39:36.000Z</time>
      </trkpt>
      <trkpt lat="42.25803" lon="19.78394">
        <ele>836</ele>
        <time>2024-09-23T15:39:37.000Z</time>
      </trkpt>
      <trkpt lat="42.25794" lon="19.78389">
        <ele>836.47998046875</ele>
        <time>2024-09-23T15:39:38.000Z</time>
      </trkpt>
      <trkpt lat="42.25788" lon="19.78388">
        <ele>836.96002197266</ele>
        <time>2024-09-23T15:39:39.000Z</time>
      </trkpt>
      <trkpt lat="42.2578" lon="19.78387">
        <ele>837.92999267578</ele>
        <time>2024-09-23T15:39:40.000Z</time>
      </trkpt>
      <trkpt lat="42.25773" lon="19.78388">
        <ele>838.89001464844</ele>
        <time>2024-09-23T15:39:41.000Z</time>
      </trkpt>
      <trkpt lat="42.25755" lon="19.78395">
        <ele>841.77001953125</ele>
        <time>2024-09-23T15:39:43.000Z</time>
      </trkpt>
      <trkpt lat="42.25749" lon="19.78398">
        <ele>842.72998046875</ele>
        <time>2024-09-23T15:39:44.000Z</time>
      </trkpt>
      <trkpt lat="42.25742" lon="19.78403">
        <ele>843.69000244141</ele>
        <time>2024-09-23T15:39:45.000Z</time>
      </trkpt>
      <trkpt lat="42.25734" lon="19.78409">
        <ele>844.65997314453</ele>
        <time>2024-09-23T15:39:46.000Z</time>
      </trkpt>
      <trkpt lat="42.25728" lon="19.78415">
        <ele>845.14001464844</ele>
        <time>2024-09-23T15:39:47.000Z</time>
      </trkpt>
      <trkpt lat="42.2572" lon="19.78424">
        <ele>846.09997558594</ele>
        <time>2024-09-23T15:39:48.000Z</time>
      </trkpt>
      <trkpt lat="42.25712" lon="19.78432">
        <ele>847.53997802734</ele>
        <time>2024-09-23T15:39:49.000Z</time>
      </trkpt>
      <trkpt lat="42.25706" lon="19.78439">
        <ele>848.5</ele>
        <time>2024-09-23T15:39:50.000Z</time>
      </trkpt>
      <trkpt lat="42.25696" lon="19.78448">
        <ele>849.94000244141</ele>
        <time>2024-09-23T15:39:51.000Z</time>
      </trkpt>
      <trkpt lat="42.25692" lon="19.78452">
        <ele>850.90002441406</ele>
        <time>2024-09-23T15:39:52.000Z</time>
      </trkpt>
      <trkpt lat="42.25679" lon="19.78463">
        <ele>852.83001708984</ele>
        <time>2024-09-23T15:39:53.000Z</time>
      </trkpt>
      <trkpt lat="42.25659" lon="19.7848">
        <ele>855.22998046875</ele>
        <time>2024-09-23T15:39:56.000Z</time>
      </trkpt>
      <trkpt lat="42.25652" lon="19.78486">
        <ele>856.19000244141</ele>
        <time>2024-09-23T15:39:57.000Z</time>
      </trkpt>
      <trkpt lat="42.25638" lon="19.78498">
        <ele>857.63000488281</ele>
        <time>2024-09-23T15:39:59.000Z</time>
      </trkpt>
      <trkpt lat="42.25631" lon="19.78502">
        <ele>858.59002685547</ele>
        <time>2024-09-23T15:40:00.000Z</time>
      </trkpt>
      <trkpt lat="42.25624" lon="19.78506">
        <ele>859.08001708984</ele>
        <time>2024-09-23T15:40:01.000Z</time>
      </trkpt>
      <trkpt lat="42.25615" lon="19.78509">
        <ele>859.08001708984</ele>
        <time>2024-09-23T15:40:02.000Z</time>
      </trkpt>
      <trkpt lat="42.25603" lon="19.78511">
        <ele>859.08001708984</ele>
        <time>2024-09-23T15:40:03.000Z</time>
      </trkpt>
      <trkpt lat="42.25601" lon="19.78512">
        <ele>859.08001708984</ele>
        <time>2024-09-23T15:40:04.000Z</time>
      </trkpt>
      <trkpt lat="42.25593" lon="19.78515">
        <ele>859.08001708984</ele>
        <time>2024-09-23T15:40:05.000Z</time>
      </trkpt>
      <trkpt lat="42.25585" lon="19.78521">
        <ele>859.55999755859</ele>
        <time>2024-09-23T15:40:06.000Z</time>
      </trkpt>
      <trkpt lat="42.25572" lon="19.78533">
        <ele>860.03997802734</ele>
        <time>2024-09-23T15:40:07.000Z</time>
      </trkpt>
      <trkpt lat="42.25545" lon="19.78558">
        <ele>862.44000244141</ele>
        <time>2024-09-23T15:40:11.000Z</time>
      </trkpt>
      <trkpt lat="42.25538" lon="19.78565">
        <ele>863.40002441406</ele>
        <time>2024-09-23T15:40:12.000Z</time>
      </trkpt>
      <trkpt lat="42.2553" lon="19.78574">
        <ele>864.84002685547</ele>
        <time>2024-09-23T15:40:13.000Z</time>
      </trkpt>
      <trkpt lat="42.25525" lon="19.78583">
        <ele>866.28997802734</ele>
        <time>2024-09-23T15:40:14.000Z</time>
      </trkpt>
      <trkpt lat="42.25519" lon="19.78594">
        <ele>867.72998046875</ele>
        <time>2024-09-23T15:40:15.000Z</time>
      </trkpt>
      <trkpt lat="42.25516" lon="19.78602">
        <ele>868.69000244141</ele>
        <time>2024-09-23T15:40:16.000Z</time>
      </trkpt>
      <trkpt lat="42.25514" lon="19.78611">
        <ele>869.65002441406</ele>
        <time>2024-09-23T15:40:17.000Z</time>
      </trkpt>
      <trkpt lat="42.25511" lon="19.78616">
        <ele>870.60998535156</ele>
        <time>2024-09-23T15:40:18.000Z</time>
      </trkpt>
      <trkpt lat="42.25508" lon="19.78619">
        <ele>871.09002685547</ele>
        <time>2024-09-23T15:40:19.000Z</time>
      </trkpt>
      <trkpt lat="42.25494" lon="19.78607">
        <ele>874.94000244141</ele>
        <time>2024-09-23T15:40:25.000Z</time>
      </trkpt>
      <trkpt lat="42.25495" lon="19.786">
        <ele>874.94000244141</ele>
        <time>2024-09-23T15:40:26.000Z</time>
      </trkpt>
      <trkpt lat="42.25496" lon="19.7859">
        <ele>875.41998291016</ele>
        <time>2024-09-23T15:40:28.000Z</time>
      </trkpt>
      <trkpt lat="42.25499" lon="19.7858">
        <ele>875.90002441406</ele>
        <time>2024-09-23T15:40:29.000Z</time>
      </trkpt>
      <trkpt lat="42.25499" lon="19.78577">
        <ele>875.90002441406</ele>
        <time>2024-09-23T15:40:30.000Z</time>
      </trkpt>
      <trkpt lat="42.25503" lon="19.78557">
        <ele>876.38000488281</ele>
        <time>2024-09-23T15:40:33.000Z</time>
      </trkpt>
      <trkpt lat="42.25504" lon="19.78551">
        <ele>876.85998535156</ele>
        <time>2024-09-23T15:40:34.000Z</time>
      </trkpt>
      <trkpt lat="42.25505" lon="19.78545">
        <ele>876.85998535156</ele>
        <time>2024-09-23T15:40:35.000Z</time>
      </trkpt>
      <trkpt lat="42.25507" lon="19.78537">
        <ele>876.85998535156</ele>
        <time>2024-09-23T15:40:36.000Z</time>
      </trkpt>
      <trkpt lat="42.25509" lon="19.78528">
        <ele>877.34002685547</ele>
        <time>2024-09-23T15:40:37.000Z</time>
      </trkpt>
      <trkpt lat="42.25511" lon="19.78522">
        <ele>877.34002685547</ele>
        <time>2024-09-23T15:40:38.000Z</time>
      </trkpt>
      <trkpt lat="42.25518" lon="19.78506">
        <ele>877.34002685547</ele>
        <time>2024-09-23T15:40:40.000Z</time>
      </trkpt>
      <trkpt lat="42.25522" lon="19.78498">
        <ele>877.82000732422</ele>
        <time>2024-09-23T15:40:41.000Z</time>
      </trkpt>
      <trkpt lat="42.25525" lon="19.78492">
        <ele>877.82000732422</ele>
        <time>2024-09-23T15:40:42.000Z</time>
      </trkpt>
      <trkpt lat="42.2553" lon="19.78484">
        <ele>877.82000732422</ele>
        <time>2024-09-23T15:40:43.000Z</time>
      </trkpt>
      <trkpt lat="42.25533" lon="19.7848">
        <ele>877.82000732422</ele>
        <time>2024-09-23T15:40:44.000Z</time>
      </trkpt>
      <trkpt lat="42.25544" lon="19.78466">
        <ele>878.29998779297</ele>
        <time>2024-09-23T15:40:46.000Z</time>
      </trkpt>
      <trkpt lat="42.25548" lon="19.78461">
        <ele>878.78002929688</ele>
        <time>2024-09-23T15:40:47.000Z</time>
      </trkpt>
      <trkpt lat="42.25554" lon="19.78454">
        <ele>879.26000976562</ele>
        <time>2024-09-23T15:40:48.000Z</time>
      </trkpt>
      <trkpt lat="42.25559" lon="19.78449">
        <ele>879.26000976562</ele>
        <time>2024-09-23T15:40:49.000Z</time>
      </trkpt>
      <trkpt lat="42.25564" lon="19.78443">
        <ele>879.26000976562</ele>
        <time>2024-09-23T15:40:50.000Z</time>
      </trkpt>
      <trkpt lat="42.25576" lon="19.78432">
        <ele>880.21997070312</ele>
        <time>2024-09-23T15:40:52.000Z</time>
      </trkpt>
      <trkpt lat="42.2558" lon="19.78428">
        <ele>880.71002197266</ele>
        <time>2024-09-23T15:40:53.000Z</time>
      </trkpt>
      <trkpt lat="42.25585" lon="19.78424">
        <ele>881.66998291016</ele>
        <time>2024-09-23T15:40:54.000Z</time>
      </trkpt>
      <trkpt lat="42.25604" lon="19.78411">
        <ele>884.07000732422</ele>
        <time>2024-09-23T15:40:57.000Z</time>
      </trkpt>
      <trkpt lat="42.25609" lon="19.78407">
        <ele>885.03002929688</ele>
        <time>2024-09-23T15:40:58.000Z</time>
      </trkpt>
      <trkpt lat="42.25615" lon="19.78399">
        <ele>885.98999023438</ele>
        <time>2024-09-23T15:40:59.000Z</time>
      </trkpt>
      <trkpt lat="42.25624" lon="19.78386">
        <ele>886.95001220703</ele>
        <time>2024-09-23T15:41:00.000Z</time>
      </trkpt>
      <trkpt lat="42.25666" lon="19.78302">
        <ele>890.79998779297</ele>
        <time>2024-09-23T15:41:06.000Z</time>
      </trkpt>
      <trkpt lat="42.25673" lon="19.78288">
        <ele>891.28002929688</ele>
        <time>2024-09-23T15:41:07.000Z</time>
      </trkpt>
      <trkpt lat="42.25675" lon="19.78284">
        <ele>891.76000976562</ele>
        <time>2024-09-23T15:41:08.000Z</time>
      </trkpt>
      <trkpt lat="42.25677" lon="19.78277">
        <ele>891.76000976562</ele>
        <time>2024-09-23T15:41:09.000Z</time>
      </trkpt>
      <trkpt lat="42.25679" lon="19.78271">
        <ele>892.23999023438</ele>
        <time>2024-09-23T15:41:10.000Z</time>
      </trkpt>
      <trkpt lat="42.25669" lon="19.78263">
        <ele>894.15997314453</ele>
        <time>2024-09-23T15:41:14.000Z</time>
      </trkpt>
      <trkpt lat="42.25667" lon="19.78266">
        <ele>894.64001464844</ele>
        <time>2024-09-23T15:41:15.000Z</time>
      </trkpt>
      <trkpt lat="42.25664" lon="19.78274">
        <ele>896.09002685547</ele>
        <time>2024-09-23T15:41:16.000Z</time>
      </trkpt>
      <trkpt lat="42.25658" lon="19.78287">
        <ele>896.57000732422</ele>
        <time>2024-09-23T15:41:17.000Z</time>
      </trkpt>
      <trkpt lat="42.25653" lon="19.78298">
        <ele>897.04998779297</ele>
        <time>2024-09-23T15:41:18.000Z</time>
      </trkpt>
      <trkpt lat="42.25647" lon="19.78307">
        <ele>897.53002929688</ele>
        <time>2024-09-23T15:41:19.000Z</time>
      </trkpt>
      <trkpt lat="42.25642" lon="19.78313">
        <ele>897.53002929688</ele>
        <time>2024-09-23T15:41:20.000Z</time>
      </trkpt>
      <trkpt lat="42.25634" lon="19.7832">
        <ele>898.01000976562</ele>
        <time>2024-09-23T15:41:21.000Z</time>
      </trkpt>
      <trkpt lat="42.25627" lon="19.78325">
        <ele>898.48999023438</ele>
        <time>2024-09-23T15:41:22.000Z</time>
      </trkpt>
      <trkpt lat="42.25617" lon="19.78329">
        <ele>899.45001220703</ele>
        <time>2024-09-23T15:41:23.000Z</time>
      </trkpt>
      <trkpt lat="42.25608" lon="19.78331">
        <ele>899.92999267578</ele>
        <time>2024-09-23T15:41:24.000Z</time>
      </trkpt>
      <trkpt lat="42.25601" lon="19.78331">
        <ele>899.92999267578</ele>
        <time>2024-09-23T15:41:25.000Z</time>
      </trkpt>
      <trkpt lat="42.25592" lon="19.78329">
        <ele>900.89001464844</ele>
        <time>2024-09-23T15:41:26.000Z</time>
      </trkpt>
      <trkpt lat="42.25556" lon="19.78318">
        <ele>901.36999511719</ele>
        <time>2024-09-23T15:41:29.000Z</time>
      </trkpt>
      <trkpt lat="42.25552" lon="19.78317">
        <ele>901.36999511719</ele>
        <time>2024-09-23T15:41:30.000Z</time>
      </trkpt>
      <trkpt lat="42.25541" lon="19.78317">
        <ele>901.84997558594</ele>
        <time>2024-09-23T15:41:31.000Z</time>
      </trkpt>
      <trkpt lat="42.25529" lon="19.78319">
        <ele>902.82000732422</ele>
        <time>2024-09-23T15:41:32.000Z</time>
      </trkpt>
      <trkpt lat="42.25517" lon="19.78322">
        <ele>903.78002929688</ele>
        <time>2024-09-23T15:41:33.000Z</time>
      </trkpt>
      <trkpt lat="42.25507" lon="19.78326">
        <ele>904.26000976562</ele>
        <time>2024-09-23T15:41:34.000Z</time>
      </trkpt>
      <trkpt lat="42.25498" lon="19.78332">
        <ele>905.70001220703</ele>
        <time>2024-09-23T15:41:35.000Z</time>
      </trkpt>
      <trkpt lat="42.2549" lon="19.78339">
        <ele>907.14001464844</ele>
        <time>2024-09-23T15:41:36.000Z</time>
      </trkpt>
      <trkpt lat="42.25484" lon="19.78347">
        <ele>908.58001708984</ele>
        <time>2024-09-23T15:41:37.000Z</time>
      </trkpt>
      <trkpt lat="42.2548" lon="19.78355">
        <ele>910.03002929688</ele>
        <time>2024-09-23T15:41:38.000Z</time>
      </trkpt>
      <trkpt lat="42.25477" lon="19.78363">
        <ele>911.46997070312</ele>
        <time>2024-09-23T15:41:39.000Z</time>
      </trkpt>
      <trkpt lat="42.25474" lon="19.78366">
        <ele>912.90997314453</ele>
        <time>2024-09-23T15:41:40.000Z</time>
      </trkpt>
      <trkpt lat="42.25462" lon="19.78355">
        <ele>917.23999023438</ele>
        <time>2024-09-23T15:41:45.000Z</time>
      </trkpt>
      <trkpt lat="42.25462" lon="19.7835">
        <ele>917.71997070312</ele>
        <time>2024-09-23T15:41:46.000Z</time>
      </trkpt>
      <trkpt lat="42.25462" lon="19.78349">
        <ele>917.71997070312</ele>
        <time>2024-09-23T15:41:47.000Z</time>
      </trkpt>
      <trkpt lat="42.25461" lon="19.78341">
        <ele>918.20001220703</ele>
        <time>2024-09-23T15:41:48.000Z</time>
      </trkpt>
      <trkpt lat="42.25461" lon="19.78337">
        <ele>918.67999267578</ele>
        <time>2024-09-23T15:41:49.000Z</time>
      </trkpt>
      <trkpt lat="42.25461" lon="19.78327">
        <ele>919.64001464844</ele>
        <time>2024-09-23T15:41:50.000Z</time>
      </trkpt>
      <trkpt lat="42.25461" lon="19.78323">
        <ele>920.11999511719</ele>
        <time>2024-09-23T15:41:51.000Z</time>
      </trkpt>
      <trkpt lat="42.25462" lon="19.78317">
        <ele>921.08001708984</ele>
        <time>2024-09-23T15:41:52.000Z</time>
      </trkpt>
      <trkpt lat="42.25464" lon="19.78309">
        <ele>921.55999755859</ele>
        <time>2024-09-23T15:41:53.000Z</time>
      </trkpt>
      <trkpt lat="42.25465" lon="19.78302">
        <ele>922.52001953125</ele>
        <time>2024-09-23T15:41:54.000Z</time>
      </trkpt>
      <trkpt lat="42.25466" lon="19.78289">
        <ele>923.96002197266</ele>
        <time>2024-09-23T15:41:55.000Z</time>
      </trkpt>
      <trkpt lat="42.25466" lon="19.78282">
        <ele>924.45001220703</ele>
        <time>2024-09-23T15:41:56.000Z</time>
      </trkpt>
      <trkpt lat="42.25466" lon="19.78278">
        <ele>924.92999267578</ele>
        <time>2024-09-23T15:41:57.000Z</time>
      </trkpt>
      <trkpt lat="42.25467" lon="19.78272">
        <ele>925.89001464844</ele>
        <time>2024-09-23T15:41:58.000Z</time>
      </trkpt>
      <trkpt lat="42.25469" lon="19.78264">
        <ele>926.36999511719</ele>
        <time>2024-09-23T15:41:59.000Z</time>
      </trkpt>
      <trkpt lat="42.25471" lon="19.78255">
        <ele>927.33001708984</ele>
        <time>2024-09-23T15:42:00.000Z</time>
      </trkpt>
      <trkpt lat="42.25471" lon="19.78252">
        <ele>927.33001708984</ele>
        <time>2024-09-23T15:42:01.000Z</time>
      </trkpt>
      <trkpt lat="42.25472" lon="19.78244">
        <ele>927.80999755859</ele>
        <time>2024-09-23T15:42:02.000Z</time>
      </trkpt>
      <trkpt lat="42.25472" lon="19.78234">
        <ele>928.28997802734</ele>
        <time>2024-09-23T15:42:03.000Z</time>
      </trkpt>
      <trkpt lat="42.2547" lon="19.78221">
        <ele>928.77001953125</ele>
        <time>2024-09-23T15:42:04.000Z</time>
      </trkpt>
      <trkpt lat="42.25466" lon="19.78208">
        <ele>930.21002197266</ele>
        <time>2024-09-23T15:42:05.000Z</time>
      </trkpt>
      <trkpt lat="42.25464" lon="19.78197">
        <ele>931.16998291016</ele>
        <time>2024-09-23T15:42:06.000Z</time>
      </trkpt>
      <trkpt lat="42.25462" lon="19.78185">
        <ele>932.14001464844</ele>
        <time>2024-09-23T15:42:07.000Z</time>
      </trkpt>
      <trkpt lat="42.2546" lon="19.78171">
        <ele>933.09997558594</ele>
        <time>2024-09-23T15:42:08.000Z</time>
      </trkpt>
      <trkpt lat="42.25459" lon="19.78143">
        <ele>935.5</ele>
        <time>2024-09-23T15:42:10.000Z</time>
      </trkpt>
      <trkpt lat="42.25458" lon="19.78132">
        <ele>935.97998046875</ele>
        <time>2024-09-23T15:42:11.000Z</time>
      </trkpt>
      <trkpt lat="42.25455" lon="19.78118">
        <ele>935.97998046875</ele>
        <time>2024-09-23T15:42:12.000Z</time>
      </trkpt>
      <trkpt lat="42.25451" lon="19.78105">
        <ele>936.46002197266</ele>
        <time>2024-09-23T15:42:13.000Z</time>
      </trkpt>
      <trkpt lat="42.25399" lon="19.77985">
        <ele>941.27001953125</ele>
        <time>2024-09-23T15:42:21.000Z</time>
      </trkpt>
      <trkpt lat="42.25368" lon="19.77907">
        <ele>941.75</ele>
        <time>2024-09-23T15:42:26.000Z</time>
      </trkpt>
      <trkpt lat="42.25359" lon="19.77886">
        <ele>941.75</ele>
        <time>2024-09-23T15:42:28.000Z</time>
      </trkpt>
      <trkpt lat="42.25355" lon="19.77876">
        <ele>941.75</ele>
        <time>2024-09-23T15:42:29.000Z</time>
      </trkpt>
      <trkpt lat="42.25351" lon="19.77861">
        <ele>941.27001953125</ele>
        <time>2024-09-23T15:42:30.000Z</time>
      </trkpt>
      <trkpt lat="42.25348" lon="19.77827">
        <ele>940.78997802734</ele>
        <time>2024-09-23T15:42:32.000Z</time>
      </trkpt>
      <trkpt lat="42.25347" lon="19.77819">
        <ele>940.78997802734</ele>
        <time>2024-09-23T15:42:33.000Z</time>
      </trkpt>
      <trkpt lat="42.25343" lon="19.77798">
        <ele>940.78997802734</ele>
        <time>2024-09-23T15:42:34.000Z</time>
      </trkpt>
      <trkpt lat="42.25336" lon="19.77772">
        <ele>940.78997802734</ele>
        <time>2024-09-23T15:42:36.000Z</time>
      </trkpt>
      <trkpt lat="42.25334" lon="19.77758">
        <ele>940.30999755859</ele>
        <time>2024-09-23T15:42:37.000Z</time>
      </trkpt>
      <trkpt lat="42.2533" lon="19.77733">
        <ele>939.83001708984</ele>
        <time>2024-09-23T15:42:39.000Z</time>
      </trkpt>
      <trkpt lat="42.25329" lon="19.77718">
        <ele>938.85998535156</ele>
        <time>2024-09-23T15:42:40.000Z</time>
      </trkpt>
      <trkpt lat="42.25329" lon="19.77702">
        <ele>938.38000488281</ele>
        <time>2024-09-23T15:42:41.000Z</time>
      </trkpt>
      <trkpt lat="42.25332" lon="19.77667">
        <ele>936.94000244141</ele>
        <time>2024-09-23T15:42:43.000Z</time>
      </trkpt>
      <trkpt lat="42.25327" lon="19.77556">
        <ele>932.14001464844</ele>
        <time>2024-09-23T15:42:49.000Z</time>
      </trkpt>
      <trkpt lat="42.25324" lon="19.77524">
        <ele>930.69000244141</ele>
        <time>2024-09-23T15:42:51.000Z</time>
      </trkpt>
      <trkpt lat="42.25323" lon="19.77516">
        <ele>930.21002197266</ele>
        <time>2024-09-23T15:42:52.000Z</time>
      </trkpt>
      <trkpt lat="42.25324" lon="19.775">
        <ele>929.72998046875</ele>
        <time>2024-09-23T15:42:53.000Z</time>
      </trkpt>
      <trkpt lat="42.25326" lon="19.7746">
        <ele>926.84997558594</ele>
        <time>2024-09-23T15:42:55.000Z</time>
      </trkpt>
      <trkpt lat="42.25325" lon="19.77373">
        <ele>921.08001708984</ele>
        <time>2024-09-23T15:43:01.000Z</time>
      </trkpt>
      <trkpt lat="42.25325" lon="19.77368">
        <ele>920.59997558594</ele>
        <time>2024-09-23T15:43:02.000Z</time>
      </trkpt>
      <trkpt lat="42.25328" lon="19.77334">
        <ele>918.20001220703</ele>
        <time>2024-09-23T15:43:04.000Z</time>
      </trkpt>
      <trkpt lat="42.25328" lon="19.77328">
        <ele>918.20001220703</ele>
        <time>2024-09-23T15:43:05.000Z</time>
      </trkpt>
      <trkpt lat="42.2533" lon="19.77314">
        <ele>917.23999023438</ele>
        <time>2024-09-23T15:43:06.000Z</time>
      </trkpt>
      <trkpt lat="42.25349" lon="19.77244">
        <ele>913.39001464844</ele>
        <time>2024-09-23T15:43:11.000Z</time>
      </trkpt>
      <trkpt lat="42.25353" lon="19.77228">
        <ele>912.42999267578</ele>
        <time>2024-09-23T15:43:12.000Z</time>
      </trkpt>
      <trkpt lat="42.25355" lon="19.77215">
        <ele>912.42999267578</ele>
        <time>2024-09-23T15:43:13.000Z</time>
      </trkpt>
      <trkpt lat="42.25357" lon="19.77199">
        <ele>911.95001220703</ele>
        <time>2024-09-23T15:43:14.000Z</time>
      </trkpt>
      <trkpt lat="42.25362" lon="19.77122">
        <ele>910.51000976562</ele>
        <time>2024-09-23T15:43:20.000Z</time>
      </trkpt>
      <trkpt lat="42.25362" lon="19.77117">
        <ele>910.03002929688</ele>
        <time>2024-09-23T15:43:21.000Z</time>
      </trkpt>
      <trkpt lat="42.25362" lon="19.77103">
        <ele>910.03002929688</ele>
        <time>2024-09-23T15:43:22.000Z</time>
      </trkpt>
      <trkpt lat="42.25359" lon="19.77068">
        <ele>909.05999755859</ele>
        <time>2024-09-23T15:43:25.000Z</time>
      </trkpt>
      <trkpt lat="42.25359" lon="19.77058">
        <ele>909.05999755859</ele>
        <time>2024-09-23T15:43:26.000Z</time>
      </trkpt>
      <trkpt lat="42.2536" lon="19.77042">
        <ele>909.05999755859</ele>
        <time>2024-09-23T15:43:27.000Z</time>
      </trkpt>
      <trkpt lat="42.25363" lon="19.77014">
        <ele>908.58001708984</ele>
        <time>2024-09-23T15:43:29.000Z</time>
      </trkpt>
      <trkpt lat="42.25365" lon="19.77">
        <ele>908.58001708984</ele>
        <time>2024-09-23T15:43:30.000Z</time>
      </trkpt>
      <trkpt lat="42.25366" lon="19.76981">
        <ele>909.05999755859</ele>
        <time>2024-09-23T15:43:32.000Z</time>
      </trkpt>
      <trkpt lat="42.25366" lon="19.76977">
        <ele>909.05999755859</ele>
        <time>2024-09-23T15:43:33.000Z</time>
      </trkpt>
      <trkpt lat="42.25368" lon="19.76961">
        <ele>908.58001708984</ele>
        <time>2024-09-23T15:43:34.000Z</time>
      </trkpt>
      <trkpt lat="42.2537" lon="19.76945">
        <ele>908.09997558594</ele>
        <time>2024-09-23T15:43:36.000Z</time>
      </trkpt>
      <trkpt lat="42.25371" lon="19.76941">
        <ele>908.09997558594</ele>
        <time>2024-09-23T15:43:37.000Z</time>
      </trkpt>
      <trkpt lat="42.25372" lon="19.76936">
        <ele>908.09997558594</ele>
        <time>2024-09-23T15:43:38.000Z</time>
      </trkpt>
      <trkpt lat="42.25375" lon="19.76922">
        <ele>908.09997558594</ele>
        <time>2024-09-23T15:43:40.000Z</time>
      </trkpt>
      <trkpt lat="42.25377" lon="19.76912">
        <ele>907.61999511719</ele>
        <time>2024-09-23T15:43:41.000Z</time>
      </trkpt>
      <trkpt lat="42.25378" lon="19.76911">
        <ele>907.61999511719</ele>
        <time>2024-09-23T15:43:42.000Z</time>
      </trkpt>
      <trkpt lat="42.25379" lon="19.76902">
        <ele>907.61999511719</ele>
        <time>2024-09-23T15:43:43.000Z</time>
      </trkpt>
      <trkpt lat="42.2538" lon="19.76892">
        <ele>907.61999511719</ele>
        <time>2024-09-23T15:43:44.000Z</time>
      </trkpt>
      <trkpt lat="42.25381" lon="19.7688">
        <ele>907.61999511719</ele>
        <time>2024-09-23T15:43:45.000Z</time>
      </trkpt>
      <trkpt lat="42.25382" lon="19.76847">
        <ele>906.65997314453</ele>
        <time>2024-09-23T15:43:47.000Z</time>
      </trkpt>
      <trkpt lat="42.25382" lon="19.76844">
        <ele>906.65997314453</ele>
        <time>2024-09-23T15:43:48.000Z</time>
      </trkpt>
      <trkpt lat="42.25382" lon="19.76832">
        <ele>906.65997314453</ele>
        <time>2024-09-23T15:43:49.000Z</time>
      </trkpt>
      <trkpt lat="42.25383" lon="19.76816">
        <ele>906.17999267578</ele>
        <time>2024-09-23T15:43:50.000Z</time>
      </trkpt>
      <trkpt lat="42.25383" lon="19.76797">
        <ele>905.70001220703</ele>
        <time>2024-09-23T15:43:51.000Z</time>
      </trkpt>
      <trkpt lat="42.25383" lon="19.76763">
        <ele>905.21997070312</ele>
        <time>2024-09-23T15:43:53.000Z</time>
      </trkpt>
      <trkpt lat="42.25383" lon="19.76741">
        <ele>904.73999023438</ele>
        <time>2024-09-23T15:43:54.000Z</time>
      </trkpt>
      <trkpt lat="42.25382" lon="19.76723">
        <ele>904.73999023438</ele>
        <time>2024-09-23T15:43:55.000Z</time>
      </trkpt>
      <trkpt lat="42.25379" lon="19.7668">
        <ele>904.26000976562</ele>
        <time>2024-09-23T15:43:58.000Z</time>
      </trkpt>
      <trkpt lat="42.25378" lon="19.7667">
        <ele>904.73999023438</ele>
        <time>2024-09-23T15:43:59.000Z</time>
      </trkpt>
      <trkpt lat="42.25376" lon="19.76657">
        <ele>904.26000976562</ele>
        <time>2024-09-23T15:44:00.000Z</time>
      </trkpt>
      <trkpt lat="42.2537" lon="19.76636">
        <ele>904.26000976562</ele>
        <time>2024-09-23T15:44:01.000Z</time>
      </trkpt>
      <trkpt lat="42.25368" lon="19.76631">
        <ele>904.26000976562</ele>
        <time>2024-09-23T15:44:02.000Z</time>
      </trkpt>
      <trkpt lat="42.25365" lon="19.76614">
        <ele>903.78002929688</ele>
        <time>2024-09-23T15:44:03.000Z</time>
      </trkpt>
      <trkpt lat="42.25363" lon="19.766">
        <ele>903.78002929688</ele>
        <time>2024-09-23T15:44:04.000Z</time>
      </trkpt>
      <trkpt lat="42.25354" lon="19.7651">
        <ele>902.33001708984</ele>
        <time>2024-09-23T15:44:09.000Z</time>
      </trkpt>
      <trkpt lat="42.25352" lon="19.76493">
        <ele>902.33001708984</ele>
        <time>2024-09-23T15:44:10.000Z</time>
      </trkpt>
      <trkpt lat="42.25351" lon="19.76485">
        <ele>902.33001708984</ele>
        <time>2024-09-23T15:44:11.000Z</time>
      </trkpt>
      <trkpt lat="42.25346" lon="19.76465">
        <ele>902.33001708984</ele>
        <time>2024-09-23T15:44:12.000Z</time>
      </trkpt>
      <trkpt lat="42.25334" lon="19.76409">
        <ele>902.82000732422</ele>
        <time>2024-09-23T15:44:15.000Z</time>
      </trkpt>
      <trkpt lat="42.25333" lon="19.76402">
        <ele>902.82000732422</ele>
        <time>2024-09-23T15:44:16.000Z</time>
      </trkpt>
      <trkpt lat="42.25332" lon="19.7639">
        <ele>903.29998779297</ele>
        <time>2024-09-23T15:44:17.000Z</time>
      </trkpt>
      <trkpt lat="42.25331" lon="19.76375">
        <ele>903.29998779297</ele>
        <time>2024-09-23T15:44:18.000Z</time>
      </trkpt>
      <trkpt lat="42.25333" lon="19.76342">
        <ele>903.29998779297</ele>
        <time>2024-09-23T15:44:20.000Z</time>
      </trkpt>
      <trkpt lat="42.25334" lon="19.76332">
        <ele>903.78002929688</ele>
        <time>2024-09-23T15:44:21.000Z</time>
      </trkpt>
      <trkpt lat="42.25337" lon="19.76321">
        <ele>903.29998779297</ele>
        <time>2024-09-23T15:44:22.000Z</time>
      </trkpt>
      <trkpt lat="42.25341" lon="19.7631">
        <ele>903.29998779297</ele>
        <time>2024-09-23T15:44:23.000Z</time>
      </trkpt>
      <trkpt lat="42.2535" lon="19.76296">
        <ele>903.78002929688</ele>
        <time>2024-09-23T15:44:24.000Z</time>
      </trkpt>
      <trkpt lat="42.25354" lon="19.76288">
        <ele>904.26000976562</ele>
        <time>2024-09-23T15:44:25.000Z</time>
      </trkpt>
      <trkpt lat="42.2536" lon="19.76276">
        <ele>904.73999023438</ele>
        <time>2024-09-23T15:44:26.000Z</time>
      </trkpt>
      <trkpt lat="42.25364" lon="19.76266">
        <ele>904.73999023438</ele>
        <time>2024-09-23T15:44:27.000Z</time>
      </trkpt>
      <trkpt lat="42.25366" lon="19.76253">
        <ele>905.21997070312</ele>
        <time>2024-09-23T15:44:28.000Z</time>
      </trkpt>
      <trkpt lat="42.25367" lon="19.76237">
        <ele>905.21997070312</ele>
        <time>2024-09-23T15:44:29.000Z</time>
      </trkpt>
      <trkpt lat="42.25366" lon="19.76179">
        <ele>906.17999267578</ele>
        <time>2024-09-23T15:44:32.000Z</time>
      </trkpt>
      <trkpt lat="42.25364" lon="19.76153">
        <ele>906.65997314453</ele>
        <time>2024-09-23T15:44:34.000Z</time>
      </trkpt>
      <trkpt lat="42.25361" lon="19.76135">
        <ele>906.65997314453</ele>
        <time>2024-09-23T15:44:35.000Z</time>
      </trkpt>
      <trkpt lat="42.25358" lon="19.76116">
        <ele>906.65997314453</ele>
        <time>2024-09-23T15:44:36.000Z</time>
      </trkpt>
      <trkpt lat="42.25356" lon="19.76102">
        <ele>906.65997314453</ele>
        <time>2024-09-23T15:44:37.000Z</time>
      </trkpt>
      <trkpt lat="42.25356" lon="19.76085">
        <ele>907.14001464844</ele>
        <time>2024-09-23T15:44:38.000Z</time>
      </trkpt>
      <trkpt lat="42.25356" lon="19.76066">
        <ele>907.61999511719</ele>
        <time>2024-09-23T15:44:39.000Z</time>
      </trkpt>
      <trkpt lat="42.25352" lon="19.76034">
        <ele>908.09997558594</ele>
        <time>2024-09-23T15:44:41.000Z</time>
      </trkpt>
      <trkpt lat="42.2535" lon="19.76017">
        <ele>908.09997558594</ele>
        <time>2024-09-23T15:44:42.000Z</time>
      </trkpt>
      <trkpt lat="42.25348" lon="19.76001">
        <ele>908.58001708984</ele>
        <time>2024-09-23T15:44:43.000Z</time>
      </trkpt>
      <trkpt lat="42.25345" lon="19.75986">
        <ele>909.05999755859</ele>
        <time>2024-09-23T15:44:44.000Z</time>
      </trkpt>
      <trkpt lat="42.25338" lon="19.75968">
        <ele>909.53997802734</ele>
        <time>2024-09-23T15:44:45.000Z</time>
      </trkpt>
      <trkpt lat="42.25317" lon="19.75914">
        <ele>910.51000976562</ele>
        <time>2024-09-23T15:44:49.000Z</time>
      </trkpt>
      <trkpt lat="42.25308" lon="19.75888">
        <ele>910.98999023438</ele>
        <time>2024-09-23T15:44:50.000Z</time>
      </trkpt>
      <trkpt lat="42.25306" lon="19.7588">
        <ele>911.46997070312</ele>
        <time>2024-09-23T15:44:51.000Z</time>
      </trkpt>
      <trkpt lat="42.25303" lon="19.75869">
        <ele>911.95001220703</ele>
        <time>2024-09-23T15:44:52.000Z</time>
      </trkpt>
      <trkpt lat="42.25301" lon="19.75855">
        <ele>912.42999267578</ele>
        <time>2024-09-23T15:44:53.000Z</time>
      </trkpt>
      <trkpt lat="42.25301" lon="19.75845">
        <ele>912.42999267578</ele>
        <time>2024-09-23T15:44:54.000Z</time>
      </trkpt>
      <trkpt lat="42.25302" lon="19.75835">
        <ele>912.90997314453</ele>
        <time>2024-09-23T15:44:55.000Z</time>
      </trkpt>
      <trkpt lat="42.25307" lon="19.75825">
        <ele>913.39001464844</ele>
        <time>2024-09-23T15:44:56.000Z</time>
      </trkpt>
      <trkpt lat="42.25313" lon="19.75814">
        <ele>913.86999511719</ele>
        <time>2024-09-23T15:44:57.000Z</time>
      </trkpt>
      <trkpt lat="42.25321" lon="19.75799">
        <ele>914.83001708984</ele>
        <time>2024-09-23T15:44:58.000Z</time>
      </trkpt>
      <trkpt lat="42.25325" lon="19.75791">
        <ele>915.30999755859</ele>
        <time>2024-09-23T15:44:59.000Z</time>
      </trkpt>
      <trkpt lat="42.25331" lon="19.75775">
        <ele>916.27001953125</ele>
        <time>2024-09-23T15:45:00.000Z</time>
      </trkpt>
      <trkpt lat="42.25334" lon="19.75759">
        <ele>917.71997070312</ele>
        <time>2024-09-23T15:45:01.000Z</time>
      </trkpt>
      <trkpt lat="42.25338" lon="19.75726">
        <ele>920.11999511719</ele>
        <time>2024-09-23T15:45:03.000Z</time>
      </trkpt>
      <trkpt lat="42.2534" lon="19.75711">
        <ele>922.03997802734</ele>
        <time>2024-09-23T15:45:04.000Z</time>
      </trkpt>
      <trkpt lat="42.25341" lon="19.75707">
        <ele>922.03997802734</ele>
        <time>2024-09-23T15:45:05.000Z</time>
      </trkpt>
      <trkpt lat="42.25344" lon="19.75697">
        <ele>923</ele>
        <time>2024-09-23T15:45:06.000Z</time>
      </trkpt>
      <trkpt lat="42.25349" lon="19.75688">
        <ele>923.96002197266</ele>
        <time>2024-09-23T15:45:07.000Z</time>
      </trkpt>
      <trkpt lat="42.25355" lon="19.75678">
        <ele>924.92999267578</ele>
        <time>2024-09-23T15:45:08.000Z</time>
      </trkpt>
      <trkpt lat="42.25364" lon="19.75667">
        <ele>925.89001464844</ele>
        <time>2024-09-23T15:45:09.000Z</time>
      </trkpt>
      <trkpt lat="42.25371" lon="19.75658">
        <ele>926.84997558594</ele>
        <time>2024-09-23T15:45:10.000Z</time>
      </trkpt>
      <trkpt lat="42.25379" lon="19.75646">
        <ele>928.28997802734</ele>
        <time>2024-09-23T15:45:11.000Z</time>
      </trkpt>
      <trkpt lat="42.25383" lon="19.7564">
        <ele>928.77001953125</ele>
        <time>2024-09-23T15:45:12.000Z</time>
      </trkpt>
      <trkpt lat="42.2539" lon="19.75631">
        <ele>929.25</ele>
        <time>2024-09-23T15:45:13.000Z</time>
      </trkpt>
      <trkpt lat="42.25393" lon="19.75627">
        <ele>929.72998046875</ele>
        <time>2024-09-23T15:45:14.000Z</time>
      </trkpt>
      <trkpt lat="42.25397" lon="19.75621">
        <ele>930.21002197266</ele>
        <time>2024-09-23T15:45:15.000Z</time>
      </trkpt>
      <trkpt lat="42.25399" lon="19.75614">
        <ele>930.69000244141</ele>
        <time>2024-09-23T15:45:16.000Z</time>
      </trkpt>
      <trkpt lat="42.25399" lon="19.75607">
        <ele>931.16998291016</ele>
        <time>2024-09-23T15:45:17.000Z</time>
      </trkpt>
      <trkpt lat="42.25397" lon="19.75598">
        <ele>931.65002441406</ele>
        <time>2024-09-23T15:45:18.000Z</time>
      </trkpt>
      <trkpt lat="42.25394" lon="19.7559">
        <ele>932.14001464844</ele>
        <time>2024-09-23T15:45:19.000Z</time>
      </trkpt>
      <trkpt lat="42.25389" lon="19.75576">
        <ele>933.09997558594</ele>
        <time>2024-09-23T15:45:20.000Z</time>
      </trkpt>
      <trkpt lat="42.25386" lon="19.75566">
        <ele>934.05999755859</ele>
        <time>2024-09-23T15:45:21.000Z</time>
      </trkpt>
      <trkpt lat="42.25382" lon="19.75555">
        <ele>934.53997802734</ele>
        <time>2024-09-23T15:45:22.000Z</time>
      </trkpt>
      <trkpt lat="42.25377" lon="19.75544">
        <ele>934.53997802734</ele>
        <time>2024-09-23T15:45:23.000Z</time>
      </trkpt>
      <trkpt lat="42.25371" lon="19.75535">
        <ele>934.53997802734</ele>
        <time>2024-09-23T15:45:24.000Z</time>
      </trkpt>
      <trkpt lat="42.25364" lon="19.75528">
        <ele>935.02001953125</ele>
        <time>2024-09-23T15:45:25.000Z</time>
      </trkpt>
      <trkpt lat="42.25352" lon="19.7552">
        <ele>935.02001953125</ele>
        <time>2024-09-23T15:45:26.000Z</time>
      </trkpt>
      <trkpt lat="42.25347" lon="19.75516">
        <ele>935.5</ele>
        <time>2024-09-23T15:45:27.000Z</time>
      </trkpt>
      <trkpt lat="42.2534" lon="19.75511">
        <ele>935.5</ele>
        <time>2024-09-23T15:45:28.000Z</time>
      </trkpt>
      <trkpt lat="42.25333" lon="19.75504">
        <ele>935.5</ele>
        <time>2024-09-23T15:45:29.000Z</time>
      </trkpt>
      <trkpt lat="42.25326" lon="19.75493">
        <ele>935.5</ele>
        <time>2024-09-23T15:45:30.000Z</time>
      </trkpt>
      <trkpt lat="42.2532" lon="19.75482">
        <ele>935.97998046875</ele>
        <time>2024-09-23T15:45:31.000Z</time>
      </trkpt>
      <trkpt lat="42.25313" lon="19.7547">
        <ele>936.46002197266</ele>
        <time>2024-09-23T15:45:32.000Z</time>
      </trkpt>
      <trkpt lat="42.25294" lon="19.75443">
        <ele>938.85998535156</ele>
        <time>2024-09-23T15:45:34.000Z</time>
      </trkpt>
      <trkpt lat="42.25291" lon="19.75438">
        <ele>939.34997558594</ele>
        <time>2024-09-23T15:45:35.000Z</time>
      </trkpt>
      <trkpt lat="42.25285" lon="19.75427">
        <ele>939.83001708984</ele>
        <time>2024-09-23T15:45:36.000Z</time>
      </trkpt>
      <trkpt lat="42.25282" lon="19.75419">
        <ele>940.30999755859</ele>
        <time>2024-09-23T15:45:37.000Z</time>
      </trkpt>
      <trkpt lat="42.25278" lon="19.75406">
        <ele>940.30999755859</ele>
        <time>2024-09-23T15:45:38.000Z</time>
      </trkpt>
      <trkpt lat="42.25273" lon="19.75394">
        <ele>940.78997802734</ele>
        <time>2024-09-23T15:45:39.000Z</time>
      </trkpt>
      <trkpt lat="42.25265" lon="19.7538">
        <ele>940.78997802734</ele>
        <time>2024-09-23T15:45:40.000Z</time>
      </trkpt>
      <trkpt lat="42.25257" lon="19.75369">
        <ele>941.27001953125</ele>
        <time>2024-09-23T15:45:41.000Z</time>
      </trkpt>
      <trkpt lat="42.25248" lon="19.75361">
        <ele>941.75</ele>
        <time>2024-09-23T15:45:42.000Z</time>
      </trkpt>
      <trkpt lat="42.25236" lon="19.75354">
        <ele>942.22998046875</ele>
        <time>2024-09-23T15:45:43.000Z</time>
      </trkpt>
      <trkpt lat="42.25228" lon="19.7535">
        <ele>942.71002197266</ele>
        <time>2024-09-23T15:45:44.000Z</time>
      </trkpt>
      <trkpt lat="42.25216" lon="19.75344">
        <ele>942.71002197266</ele>
        <time>2024-09-23T15:45:45.000Z</time>
      </trkpt>
      <trkpt lat="42.2521" lon="19.75339">
        <ele>943.19000244141</ele>
        <time>2024-09-23T15:45:46.000Z</time>
      </trkpt>
      <trkpt lat="42.25204" lon="19.75333">
        <ele>943.19000244141</ele>
        <time>2024-09-23T15:45:47.000Z</time>
      </trkpt>
      <trkpt lat="42.25201" lon="19.75324">
        <ele>943.19000244141</ele>
        <time>2024-09-23T15:45:48.000Z</time>
      </trkpt>
      <trkpt lat="42.25199" lon="19.75314">
        <ele>943.66998291016</ele>
        <time>2024-09-23T15:45:49.000Z</time>
      </trkpt>
      <trkpt lat="42.25198" lon="19.75304">
        <ele>943.66998291016</ele>
        <time>2024-09-23T15:45:50.000Z</time>
      </trkpt>
      <trkpt lat="42.25195" lon="19.75289">
        <ele>943.66998291016</ele>
        <time>2024-09-23T15:45:51.000Z</time>
      </trkpt>
      <trkpt lat="42.25178" lon="19.75233">
        <ele>945.10998535156</ele>
        <time>2024-09-23T15:45:55.000Z</time>
      </trkpt>
      <trkpt lat="42.25174" lon="19.75217">
        <ele>945.59002685547</ele>
        <time>2024-09-23T15:45:56.000Z</time>
      </trkpt>
      <trkpt lat="42.25169" lon="19.75198">
        <ele>946.07000732422</ele>
        <time>2024-09-23T15:45:57.000Z</time>
      </trkpt>
      <trkpt lat="42.25163" lon="19.75179">
        <ele>947.03997802734</ele>
        <time>2024-09-23T15:45:58.000Z</time>
      </trkpt>
      <trkpt lat="42.2516" lon="19.7517">
        <ele>947.52001953125</ele>
        <time>2024-09-23T15:45:59.000Z</time>
      </trkpt>
      <trkpt lat="42.25157" lon="19.75154">
        <ele>948.96002197266</ele>
        <time>2024-09-23T15:46:00.000Z</time>
      </trkpt>
      <trkpt lat="42.25156" lon="19.75138">
        <ele>950.40002441406</ele>
        <time>2024-09-23T15:46:01.000Z</time>
      </trkpt>
      <trkpt lat="42.25157" lon="19.75123">
        <ele>951.84002685547</ele>
        <time>2024-09-23T15:46:02.000Z</time>
      </trkpt>
      <trkpt lat="42.2516" lon="19.75109">
        <ele>953.28002929688</ele>
        <time>2024-09-23T15:46:03.000Z</time>
      </trkpt>
      <trkpt lat="42.25167" lon="19.75086">
        <ele>956.65002441406</ele>
        <time>2024-09-23T15:46:04.000Z</time>
      </trkpt>
      <trkpt lat="42.25169" lon="19.7508">
        <ele>957.60998535156</ele>
        <time>2024-09-23T15:46:05.000Z</time>
      </trkpt>
      <trkpt lat="42.25173" lon="19.75065">
        <ele>959.04998779297</ele>
        <time>2024-09-23T15:46:06.000Z</time>
      </trkpt>
      <trkpt lat="42.25174" lon="19.75049">
        <ele>960.01000976562</ele>
        <time>2024-09-23T15:46:07.000Z</time>
      </trkpt>
      <trkpt lat="42.25174" lon="19.75033">
        <ele>961.46002197266</ele>
        <time>2024-09-23T15:46:08.000Z</time>
      </trkpt>
      <trkpt lat="42.25172" lon="19.75015">
        <ele>962.90002441406</ele>
        <time>2024-09-23T15:46:09.000Z</time>
      </trkpt>
      <trkpt lat="42.25172" lon="19.75003">
        <ele>963.85998535156</ele>
        <time>2024-09-23T15:46:10.000Z</time>
      </trkpt>
      <trkpt lat="42.25173" lon="19.74988">
        <ele>965.78002929688</ele>
        <time>2024-09-23T15:46:11.000Z</time>
      </trkpt>
      <trkpt lat="42.25177" lon="19.74962">
        <ele>968.66998291016</ele>
        <time>2024-09-23T15:46:12.000Z</time>
      </trkpt>
      <trkpt lat="42.25178" lon="19.74956">
        <ele>969.15002441406</ele>
        <time>2024-09-23T15:46:13.000Z</time>
      </trkpt>
      <trkpt lat="42.25178" lon="19.74939">
        <ele>970.10998535156</ele>
        <time>2024-09-23T15:46:14.000Z</time>
      </trkpt>
      <trkpt lat="42.25177" lon="19.74922">
        <ele>971.07000732422</ele>
        <time>2024-09-23T15:46:15.000Z</time>
      </trkpt>
      <trkpt lat="42.25175" lon="19.74901">
        <ele>972.03002929688</ele>
        <time>2024-09-23T15:46:16.000Z</time>
      </trkpt>
      <trkpt lat="42.25174" lon="19.74893">
        <ele>972.03002929688</ele>
        <time>2024-09-23T15:46:17.000Z</time>
      </trkpt>
      <trkpt lat="42.2517" lon="19.74881">
        <ele>972.98999023438</ele>
        <time>2024-09-23T15:46:18.000Z</time>
      </trkpt>
      <trkpt lat="42.25166" lon="19.74868">
        <ele>973.46997070312</ele>
        <time>2024-09-23T15:46:19.000Z</time>
      </trkpt>
      <trkpt lat="42.25163" lon="19.74855">
        <ele>974.42999267578</ele>
        <time>2024-09-23T15:46:20.000Z</time>
      </trkpt>
      <trkpt lat="42.25161" lon="19.74842">
        <ele>974.42999267578</ele>
        <time>2024-09-23T15:46:21.000Z</time>
      </trkpt>
      <trkpt lat="42.25159" lon="19.74829">
        <ele>974.90997314453</ele>
        <time>2024-09-23T15:46:22.000Z</time>
      </trkpt>
      <trkpt lat="42.25158" lon="19.7482">
        <ele>974.90997314453</ele>
        <time>2024-09-23T15:46:23.000Z</time>
      </trkpt>
      <trkpt lat="42.25158" lon="19.74815">
        <ele>974.90997314453</ele>
        <time>2024-09-23T15:46:24.000Z</time>
      </trkpt>
      <trkpt lat="42.25155" lon="19.74807">
        <ele>974.90997314453</ele>
        <time>2024-09-23T15:46:25.000Z</time>
      </trkpt>
      <trkpt lat="42.25152" lon="19.74799">
        <ele>974.42999267578</ele>
        <time>2024-09-23T15:46:26.000Z</time>
      </trkpt>
      <trkpt lat="42.25147" lon="19.74794">
        <ele>974.42999267578</ele>
        <time>2024-09-23T15:46:27.000Z</time>
      </trkpt>
      <trkpt lat="42.25142" lon="19.7479">
        <ele>973.95001220703</ele>
        <time>2024-09-23T15:46:28.000Z</time>
      </trkpt>
      <trkpt lat="42.25136" lon="19.74789">
        <ele>973.46997070312</ele>
        <time>2024-09-23T15:46:29.000Z</time>
      </trkpt>
      <trkpt lat="42.2513" lon="19.7479">
        <ele>972.98999023438</ele>
        <time>2024-09-23T15:46:30.000Z</time>
      </trkpt>
      <trkpt lat="42.25125" lon="19.74794">
        <ele>972.98999023438</ele>
        <time>2024-09-23T15:46:31.000Z</time>
      </trkpt>
      <trkpt lat="42.25115" lon="19.74803">
        <ele>972.51000976562</ele>
        <time>2024-09-23T15:46:32.000Z</time>
      </trkpt>
      <trkpt lat="42.25109" lon="19.74809">
        <ele>972.51000976562</ele>
        <time>2024-09-23T15:46:33.000Z</time>
      </trkpt>
      <trkpt lat="42.25106" lon="19.74813">
        <ele>972.98999023438</ele>
        <time>2024-09-23T15:46:34.000Z</time>
      </trkpt>
      <trkpt lat="42.25103" lon="19.74816">
        <ele>972.98999023438</ele>
        <time>2024-09-23T15:46:35.000Z</time>
      </trkpt>
      <trkpt lat="42.25098" lon="19.74824">
        <ele>973.46997070312</ele>
        <time>2024-09-23T15:46:36.000Z</time>
      </trkpt>
      <trkpt lat="42.25094" lon="19.74831">
        <ele>973.95001220703</ele>
        <time>2024-09-23T15:46:37.000Z</time>
      </trkpt>
      <trkpt lat="42.25091" lon="19.74839">
        <ele>974.42999267578</ele>
        <time>2024-09-23T15:46:38.000Z</time>
      </trkpt>
      <trkpt lat="42.25088" lon="19.74848">
        <ele>974.90997314453</ele>
        <time>2024-09-23T15:46:39.000Z</time>
      </trkpt>
      <trkpt lat="42.25084" lon="19.74857">
        <ele>974.42999267578</ele>
        <time>2024-09-23T15:46:40.000Z</time>
      </trkpt>
      <trkpt lat="42.25078" lon="19.74867">
        <ele>974.90997314453</ele>
        <time>2024-09-23T15:46:41.000Z</time>
      </trkpt>
      <trkpt lat="42.25069" lon="19.74875">
        <ele>974.90997314453</ele>
        <time>2024-09-23T15:46:42.000Z</time>
      </trkpt>
      <trkpt lat="42.25059" lon="19.7488">
        <ele>975.39001464844</ele>
        <time>2024-09-23T15:46:43.000Z</time>
      </trkpt>
      <trkpt lat="42.25046" lon="19.74885">
        <ele>975.88000488281</ele>
        <time>2024-09-23T15:46:44.000Z</time>
      </trkpt>
      <trkpt lat="42.25014" lon="19.7489">
        <ele>976.84002685547</ele>
        <time>2024-09-23T15:46:46.000Z</time>
      </trkpt>
      <trkpt lat="42.25004" lon="19.74892">
        <ele>977.32000732422</ele>
        <time>2024-09-23T15:46:47.000Z</time>
      </trkpt>
      <trkpt lat="42.24993" lon="19.74896">
        <ele>977.32000732422</ele>
        <time>2024-09-23T15:46:48.000Z</time>
      </trkpt>
      <trkpt lat="42.24973" lon="19.74904">
        <ele>978.76000976562</ele>
        <time>2024-09-23T15:46:49.000Z</time>
      </trkpt>
      <trkpt lat="42.24965" lon="19.74908">
        <ele>978.76000976562</ele>
        <time>2024-09-23T15:46:50.000Z</time>
      </trkpt>
      <trkpt lat="42.24954" lon="19.74913">
        <ele>980.20001220703</ele>
        <time>2024-09-23T15:46:51.000Z</time>
      </trkpt>
      <trkpt lat="42.24946" lon="19.74915">
        <ele>980.67999267578</ele>
        <time>2024-09-23T15:46:52.000Z</time>
      </trkpt>
      <trkpt lat="42.24937" lon="19.74914">
        <ele>982.11999511719</ele>
        <time>2024-09-23T15:46:53.000Z</time>
      </trkpt>
      <trkpt lat="42.24928" lon="19.7491">
        <ele>982.59997558594</ele>
        <time>2024-09-23T15:46:54.000Z</time>
      </trkpt>
      <trkpt lat="42.24919" lon="19.74904">
        <ele>984.04998779297</ele>
        <time>2024-09-23T15:46:55.000Z</time>
      </trkpt>
      <trkpt lat="42.24906" lon="19.74894">
        <ele>985.96997070312</ele>
        <time>2024-09-23T15:46:56.000Z</time>
      </trkpt>
      <trkpt lat="42.24901" lon="19.7489">
        <ele>986.92999267578</ele>
        <time>2024-09-23T15:46:57.000Z</time>
      </trkpt>
      <trkpt lat="42.24878" lon="19.74877">
        <ele>990.29998779297</ele>
        <time>2024-09-23T15:46:59.000Z</time>
      </trkpt>
      <trkpt lat="42.24868" lon="19.74872">
        <ele>991.73999023438</ele>
        <time>2024-09-23T15:47:00.000Z</time>
      </trkpt>
      <trkpt lat="42.24861" lon="19.74866">
        <ele>993.17999267578</ele>
        <time>2024-09-23T15:47:01.000Z</time>
      </trkpt>
      <trkpt lat="42.2485" lon="19.74858">
        <ele>994.61999511719</ele>
        <time>2024-09-23T15:47:02.000Z</time>
      </trkpt>
      <trkpt lat="42.24842" lon="19.74853">
        <ele>995.09997558594</ele>
        <time>2024-09-23T15:47:03.000Z</time>
      </trkpt>
      <trkpt lat="42.24835" lon="19.74851">
        <ele>995.09997558594</ele>
        <time>2024-09-23T15:47:04.000Z</time>
      </trkpt>
      <trkpt lat="42.24828" lon="19.7485">
        <ele>995.58001708984</ele>
        <time>2024-09-23T15:47:05.000Z</time>
      </trkpt>
      <trkpt lat="42.24823" lon="19.74853">
        <ele>996.05999755859</ele>
        <time>2024-09-23T15:47:06.000Z</time>
      </trkpt>
      <trkpt lat="42.24816" lon="19.74857">
        <ele>996.53997802734</ele>
        <time>2024-09-23T15:47:07.000Z</time>
      </trkpt>
      <trkpt lat="42.24809" lon="19.74861">
        <ele>997.02001953125</ele>
        <time>2024-09-23T15:47:08.000Z</time>
      </trkpt>
      <trkpt lat="42.24803" lon="19.74862">
        <ele>997.98999023438</ele>
        <time>2024-09-23T15:47:09.000Z</time>
      </trkpt>
      <trkpt lat="42.24796" lon="19.7486">
        <ele>998.46997070312</ele>
        <time>2024-09-23T15:47:10.000Z</time>
      </trkpt>
      <trkpt lat="42.24786" lon="19.74852">
        <ele>999.42999267578</ele>
        <time>2024-09-23T15:47:11.000Z</time>
      </trkpt>
      <trkpt lat="42.24781" lon="19.74849">
        <ele>999.42999267578</ele>
        <time>2024-09-23T15:47:12.000Z</time>
      </trkpt>
      <trkpt lat="42.24771" lon="19.74843">
        <ele>1000.3900146484</ele>
        <time>2024-09-23T15:47:13.000Z</time>
      </trkpt>
      <trkpt lat="42.24761" lon="19.7484">
        <ele>1000.8699951172</ele>
        <time>2024-09-23T15:47:14.000Z</time>
      </trkpt>
      <trkpt lat="42.24753" lon="19.74839">
        <ele>1000.8699951172</ele>
        <time>2024-09-23T15:47:15.000Z</time>
      </trkpt>
      <trkpt lat="42.24742" lon="19.7484">
        <ele>1002.3099975586</ele>
        <time>2024-09-23T15:47:16.000Z</time>
      </trkpt>
      <trkpt lat="42.24739" lon="19.74841">
        <ele>1002.7899780273</ele>
        <time>2024-09-23T15:47:17.000Z</time>
      </trkpt>
      <trkpt lat="42.24734" lon="19.7484">
        <ele>1003.75</ele>
        <time>2024-09-23T15:47:18.000Z</time>
      </trkpt>
      <trkpt lat="42.24727" lon="19.74823">
        <ele>1007.1199951172</ele>
        <time>2024-09-23T15:47:24.000Z</time>
      </trkpt>
      <trkpt lat="42.24727" lon="19.74822">
        <ele>1007.1199951172</ele>
        <time>2024-09-23T15:47:25.000Z</time>
      </trkpt>
      <trkpt lat="42.24732" lon="19.7482">
        <ele>1007.5999755859</ele>
        <time>2024-09-23T15:47:26.000Z</time>
      </trkpt>
      <trkpt lat="42.24737" lon="19.74819">
        <ele>1007.5999755859</ele>
        <time>2024-09-23T15:47:27.000Z</time>
      </trkpt>
      <trkpt lat="42.24743" lon="19.7482">
        <ele>1008.0800170898</ele>
        <time>2024-09-23T15:47:28.000Z</time>
      </trkpt>
      <trkpt lat="42.24747" lon="19.7482">
        <ele>1008.5599975586</ele>
        <time>2024-09-23T15:47:29.000Z</time>
      </trkpt>
      <trkpt lat="42.24752" lon="19.7482">
        <ele>1009.0399780273</ele>
        <time>2024-09-23T15:47:30.000Z</time>
      </trkpt>
      <trkpt lat="42.24758" lon="19.74819">
        <ele>1009.5200195312</ele>
        <time>2024-09-23T15:47:31.000Z</time>
      </trkpt>
      <trkpt lat="42.24766" lon="19.7482">
        <ele>1009.5200195312</ele>
        <time>2024-09-23T15:47:32.000Z</time>
      </trkpt>
      <trkpt lat="42.24772" lon="19.74823">
        <ele>1010</ele>
        <time>2024-09-23T15:47:33.000Z</time>
      </trkpt>
      <trkpt lat="42.24777" lon="19.74825">
        <ele>1010.9600219727</ele>
        <time>2024-09-23T15:47:34.000Z</time>
      </trkpt>
      <trkpt lat="42.24785" lon="19.74812">
        <ele>1012.8900146484</ele>
        <time>2024-09-23T15:47:38.000Z</time>
      </trkpt>
      <trkpt lat="42.24785" lon="19.74811">
        <ele>1013.3699951172</ele>
        <time>2024-09-23T15:47:39.000Z</time>
      </trkpt>
      <trkpt lat="42.2478" lon="19.74807">
        <ele>1013.8499755859</ele>
        <time>2024-09-23T15:47:40.000Z</time>
      </trkpt>
      <trkpt lat="42.24769" lon="19.74803">
        <ele>1014.8099975586</ele>
        <time>2024-09-23T15:47:41.000Z</time>
      </trkpt>
      <trkpt lat="42.24764" lon="19.74801">
        <ele>1015.2899780273</ele>
        <time>2024-09-23T15:47:42.000Z</time>
      </trkpt>
      <trkpt lat="42.24753" lon="19.74796">
        <ele>1016.25</ele>
        <time>2024-09-23T15:47:43.000Z</time>
      </trkpt>
      <trkpt lat="42.24744" lon="19.74789">
        <ele>1017.2100219727</ele>
        <time>2024-09-23T15:47:44.000Z</time>
      </trkpt>
      <trkpt lat="42.24738" lon="19.74783">
        <ele>1018.1699829102</ele>
        <time>2024-09-23T15:47:45.000Z</time>
      </trkpt>
      <trkpt lat="42.24733" lon="19.74776">
        <ele>1019.1300048828</ele>
        <time>2024-09-23T15:47:46.000Z</time>
      </trkpt>
      <trkpt lat="42.24729" lon="19.74766">
        <ele>1020.5800170898</ele>
        <time>2024-09-23T15:47:47.000Z</time>
      </trkpt>
      <trkpt lat="42.24726" lon="19.74754">
        <ele>1021.5399780273</ele>
        <time>2024-09-23T15:47:48.000Z</time>
      </trkpt>
      <trkpt lat="42.24723" lon="19.74736">
        <ele>1022.5</ele>
        <time>2024-09-23T15:47:49.000Z</time>
      </trkpt>
      <trkpt lat="42.2472" lon="19.74724">
        <ele>1022.9799804688</ele>
        <time>2024-09-23T15:47:50.000Z</time>
      </trkpt>
      <trkpt lat="42.24713" lon="19.7471">
        <ele>1023.9400024414</ele>
        <time>2024-09-23T15:47:51.000Z</time>
      </trkpt>
      <trkpt lat="42.24704" lon="19.74696">
        <ele>1025.3800048828</ele>
        <time>2024-09-23T15:47:52.000Z</time>
      </trkpt>
      <trkpt lat="42.24693" lon="19.74683">
        <ele>1026.3399658203</ele>
        <time>2024-09-23T15:47:53.000Z</time>
      </trkpt>
      <trkpt lat="42.24682" lon="19.74672">
        <ele>1027.7900390625</ele>
        <time>2024-09-23T15:47:54.000Z</time>
      </trkpt>
      <trkpt lat="42.24667" lon="19.74659">
        <ele>1029.2299804688</ele>
        <time>2024-09-23T15:47:55.000Z</time>
      </trkpt>
      <trkpt lat="42.2466" lon="19.74653">
        <ele>1030.6700439453</ele>
        <time>2024-09-23T15:47:56.000Z</time>
      </trkpt>
      <trkpt lat="42.24648" lon="19.74645">
        <ele>1032.5899658203</ele>
        <time>2024-09-23T15:47:57.000Z</time>
      </trkpt>
      <trkpt lat="42.24637" lon="19.74637">
        <ele>1034.5200195312</ele>
        <time>2024-09-23T15:47:58.000Z</time>
      </trkpt>
      <trkpt lat="42.24626" lon="19.74631">
        <ele>1035</ele>
        <time>2024-09-23T15:47:59.000Z</time>
      </trkpt>
      <trkpt lat="42.24603" lon="19.7462">
        <ele>1036.4399414062</ele>
        <time>2024-09-23T15:48:00.000Z</time>
      </trkpt>
      <trkpt lat="42.24599" lon="19.74618">
        <ele>1036.9200439453</ele>
        <time>2024-09-23T15:48:01.000Z</time>
      </trkpt>
      <trkpt lat="42.24586" lon="19.74611">
        <ele>1037.8800048828</ele>
        <time>2024-09-23T15:48:02.000Z</time>
      </trkpt>
      <trkpt lat="42.24572" lon="19.74607">
        <ele>1038.8399658203</ele>
        <time>2024-09-23T15:48:03.000Z</time>
      </trkpt>
      <trkpt lat="42.24557" lon="19.74605">
        <ele>1040.2800292969</ele>
        <time>2024-09-23T15:48:04.000Z</time>
      </trkpt>
      <trkpt lat="42.24534" lon="19.74604">
        <ele>1041.7299804688</ele>
        <time>2024-09-23T15:48:06.000Z</time>
      </trkpt>
      <trkpt lat="42.24523" lon="19.74601">
        <ele>1042.6899414062</ele>
        <time>2024-09-23T15:48:07.000Z</time>
      </trkpt>
      <trkpt lat="42.2451" lon="19.74596">
        <ele>1042.6899414062</ele>
        <time>2024-09-23T15:48:08.000Z</time>
      </trkpt>
      <trkpt lat="42.24477" lon="19.74576">
        <ele>1044.6099853516</ele>
        <time>2024-09-23T15:48:10.000Z</time>
      </trkpt>
      <trkpt lat="42.2447" lon="19.74572">
        <ele>1045.0899658203</ele>
        <time>2024-09-23T15:48:11.000Z</time>
      </trkpt>
      <trkpt lat="42.24463" lon="19.74566">
        <ele>1045.5699462891</ele>
        <time>2024-09-23T15:48:12.000Z</time>
      </trkpt>
      <trkpt lat="42.24448" lon="19.74552">
        <ele>1046.0500488281</ele>
        <time>2024-09-23T15:48:13.000Z</time>
      </trkpt>
      <trkpt lat="42.24438" lon="19.74544">
        <ele>1046.5300292969</ele>
        <time>2024-09-23T15:48:14.000Z</time>
      </trkpt>
      <trkpt lat="42.24433" lon="19.7454">
        <ele>1046.5300292969</ele>
        <time>2024-09-23T15:48:15.000Z</time>
      </trkpt>
      <trkpt lat="42.24422" lon="19.74535">
        <ele>1047.0100097656</ele>
        <time>2024-09-23T15:48:16.000Z</time>
      </trkpt>
      <trkpt lat="42.24408" lon="19.74533">
        <ele>1047.4899902344</ele>
        <time>2024-09-23T15:48:17.000Z</time>
      </trkpt>
      <trkpt lat="42.24363" lon="19.74529">
        <ele>1047.0100097656</ele>
        <time>2024-09-23T15:48:20.000Z</time>
      </trkpt>
      <trkpt lat="42.24355" lon="19.74528">
        <ele>1047.0100097656</ele>
        <time>2024-09-23T15:48:21.000Z</time>
      </trkpt>
      <trkpt lat="42.24342" lon="19.74524">
        <ele>1047.0100097656</ele>
        <time>2024-09-23T15:48:22.000Z</time>
      </trkpt>
      <trkpt lat="42.24315" lon="19.74508">
        <ele>1046.0500488281</ele>
        <time>2024-09-23T15:48:24.000Z</time>
      </trkpt>
      <trkpt lat="42.24304" lon="19.74503">
        <ele>1045.5699462891</ele>
        <time>2024-09-23T15:48:25.000Z</time>
      </trkpt>
      <trkpt lat="42.2429" lon="19.74499">
        <ele>1045.5699462891</ele>
        <time>2024-09-23T15:48:26.000Z</time>
      </trkpt>
      <trkpt lat="42.24278" lon="19.74499">
        <ele>1046.0500488281</ele>
        <time>2024-09-23T15:48:27.000Z</time>
      </trkpt>
      <trkpt lat="42.24265" lon="19.745">
        <ele>1046.5300292969</ele>
        <time>2024-09-23T15:48:28.000Z</time>
      </trkpt>
      <trkpt lat="42.24255" lon="19.745">
        <ele>1046.5300292969</ele>
        <time>2024-09-23T15:48:29.000Z</time>
      </trkpt>
      <trkpt lat="42.24246" lon="19.74496">
        <ele>1046.5300292969</ele>
        <time>2024-09-23T15:48:30.000Z</time>
      </trkpt>
      <trkpt lat="42.24235" lon="19.7449">
        <ele>1047.0100097656</ele>
        <time>2024-09-23T15:48:31.000Z</time>
      </trkpt>
      <trkpt lat="42.24226" lon="19.74482">
        <ele>1048.4499511719</ele>
        <time>2024-09-23T15:48:32.000Z</time>
      </trkpt>
      <trkpt lat="42.24215" lon="19.74469">
        <ele>1049.9000244141</ele>
        <time>2024-09-23T15:48:33.000Z</time>
      </trkpt>
      <trkpt lat="42.24212" lon="19.74466">
        <ele>1050.3800048828</ele>
        <time>2024-09-23T15:48:34.000Z</time>
      </trkpt>
      <trkpt lat="42.24205" lon="19.74463">
        <ele>1051.3399658203</ele>
        <time>2024-09-23T15:48:35.000Z</time>
      </trkpt>
      <trkpt lat="42.24198" lon="19.74463">
        <ele>1051.3399658203</ele>
        <time>2024-09-23T15:48:36.000Z</time>
      </trkpt>
      <trkpt lat="42.2419" lon="19.74467">
        <ele>1051.8199462891</ele>
        <time>2024-09-23T15:48:37.000Z</time>
      </trkpt>
      <trkpt lat="42.2418" lon="19.74475">
        <ele>1052.3000488281</ele>
        <time>2024-09-23T15:48:38.000Z</time>
      </trkpt>
      <trkpt lat="42.24173" lon="19.7448">
        <ele>1053.2600097656</ele>
        <time>2024-09-23T15:48:39.000Z</time>
      </trkpt>
      <trkpt lat="42.24163" lon="19.74482">
        <ele>1053.7399902344</ele>
        <time>2024-09-23T15:48:40.000Z</time>
      </trkpt>
      <trkpt lat="42.24155" lon="19.74482">
        <ele>1054.2199707031</ele>
        <time>2024-09-23T15:48:41.000Z</time>
      </trkpt>
      <trkpt lat="42.24142" lon="19.74476">
        <ele>1055.1800537109</ele>
        <time>2024-09-23T15:48:42.000Z</time>
      </trkpt>
      <trkpt lat="42.24134" lon="19.74471">
        <ele>1055.6700439453</ele>
        <time>2024-09-23T15:48:43.000Z</time>
      </trkpt>
      <trkpt lat="42.24123" lon="19.74467">
        <ele>1056.1500244141</ele>
        <time>2024-09-23T15:48:44.000Z</time>
      </trkpt>
      <trkpt lat="42.24113" lon="19.74464">
        <ele>1056.6300048828</ele>
        <time>2024-09-23T15:48:45.000Z</time>
      </trkpt>
      <trkpt lat="42.24096" lon="19.7446">
        <ele>1057.1099853516</ele>
        <time>2024-09-23T15:48:46.000Z</time>
      </trkpt>
      <trkpt lat="42.24077" lon="19.74459">
        <ele>1059.0300292969</ele>
        <time>2024-09-23T15:48:47.000Z</time>
      </trkpt>
      <trkpt lat="42.24058" lon="19.74457">
        <ele>1060.9499511719</ele>
        <time>2024-09-23T15:48:49.000Z</time>
      </trkpt>
      <trkpt lat="42.2403" lon="19.74454">
        <ele>1062.3900146484</ele>
        <time>2024-09-23T15:48:51.000Z</time>
      </trkpt>
      <trkpt lat="42.24016" lon="19.74452">
        <ele>1063.8399658203</ele>
        <time>2024-09-23T15:48:52.000Z</time>
      </trkpt>
      <trkpt lat="42.24003" lon="19.74451">
        <ele>1064.3199462891</ele>
        <time>2024-09-23T15:48:53.000Z</time>
      </trkpt>
      <trkpt lat="42.23984" lon="19.74447">
        <ele>1066.2399902344</ele>
        <time>2024-09-23T15:48:54.000Z</time>
      </trkpt>
      <trkpt lat="42.23973" lon="19.74445">
        <ele>1067.1999511719</ele>
        <time>2024-09-23T15:48:55.000Z</time>
      </trkpt>
      <trkpt lat="42.23967" lon="19.74445">
        <ele>1067.6800537109</ele>
        <time>2024-09-23T15:48:56.000Z</time>
      </trkpt>
      <trkpt lat="42.23957" lon="19.74447">
        <ele>1069.1199951172</ele>
        <time>2024-09-23T15:48:57.000Z</time>
      </trkpt>
      <trkpt lat="42.23948" lon="19.74452">
        <ele>1069.5999755859</ele>
        <time>2024-09-23T15:48:58.000Z</time>
      </trkpt>
      <trkpt lat="42.23933" lon="19.74466">
        <ele>1070.5699462891</ele>
        <time>2024-09-23T15:48:59.000Z</time>
      </trkpt>
      <trkpt lat="42.23924" lon="19.74474">
        <ele>1071.0500488281</ele>
        <time>2024-09-23T15:49:00.000Z</time>
      </trkpt>
      <trkpt lat="42.23919" lon="19.74479">
        <ele>1071.5300292969</ele>
        <time>2024-09-23T15:49:01.000Z</time>
      </trkpt>
      <trkpt lat="42.23908" lon="19.74487">
        <ele>1072.4899902344</ele>
        <time>2024-09-23T15:49:02.000Z</time>
      </trkpt>
      <trkpt lat="42.23895" lon="19.74492">
        <ele>1073.4499511719</ele>
        <time>2024-09-23T15:49:03.000Z</time>
      </trkpt>
      <trkpt lat="42.23884" lon="19.74493">
        <ele>1074.4100341797</ele>
        <time>2024-09-23T15:49:04.000Z</time>
      </trkpt>
      <trkpt lat="42.23872" lon="19.74491">
        <ele>1075.8499755859</ele>
        <time>2024-09-23T15:49:05.000Z</time>
      </trkpt>
      <trkpt lat="42.23856" lon="19.74487">
        <ele>1077.7800292969</ele>
        <time>2024-09-23T15:49:06.000Z</time>
      </trkpt>
      <trkpt lat="42.23848" lon="19.74485">
        <ele>1078.7399902344</ele>
        <time>2024-09-23T15:49:07.000Z</time>
      </trkpt>
      <trkpt lat="42.23836" lon="19.74483">
        <ele>1080.6600341797</ele>
        <time>2024-09-23T15:49:08.000Z</time>
      </trkpt>
      <trkpt lat="42.23819" lon="19.74481">
        <ele>1082.5799560547</ele>
        <time>2024-09-23T15:49:09.000Z</time>
      </trkpt>
      <trkpt lat="42.23814" lon="19.7448">
        <ele>1083.0600585938</ele>
        <time>2024-09-23T15:49:10.000Z</time>
      </trkpt>
      <trkpt lat="42.23805" lon="19.74476">
        <ele>1084.0200195312</ele>
        <time>2024-09-23T15:49:11.000Z</time>
      </trkpt>
      <trkpt lat="42.23798" lon="19.74469">
        <ele>1084.9899902344</ele>
        <time>2024-09-23T15:49:12.000Z</time>
      </trkpt>
      <trkpt lat="42.23789" lon="19.74459">
        <ele>1085.9499511719</ele>
        <time>2024-09-23T15:49:13.000Z</time>
      </trkpt>
      <trkpt lat="42.23783" lon="19.74452">
        <ele>1085.4699707031</ele>
        <time>2024-09-23T15:49:14.000Z</time>
      </trkpt>
      <trkpt lat="42.23776" lon="19.74447">
        <ele>1086.9100341797</ele>
        <time>2024-09-23T15:49:15.000Z</time>
      </trkpt>
      <trkpt lat="42.2377" lon="19.74441">
        <ele>1087.8699951172</ele>
        <time>2024-09-23T15:49:16.000Z</time>
      </trkpt>
      <trkpt lat="42.23768" lon="19.74436">
        <ele>1088.3499755859</ele>
        <time>2024-09-23T15:49:17.000Z</time>
      </trkpt>
      <trkpt lat="42.23767" lon="19.74429">
        <ele>1088.3499755859</ele>
        <time>2024-09-23T15:49:18.000Z</time>
      </trkpt>
      <trkpt lat="42.23778" lon="19.74418">
        <ele>1089.3100585938</ele>
        <time>2024-09-23T15:49:22.000Z</time>
      </trkpt>
      <trkpt lat="42.23782" lon="19.74418">
        <ele>1089.3100585938</ele>
        <time>2024-09-23T15:49:23.000Z</time>
      </trkpt>
      <trkpt lat="42.23787" lon="19.74419">
        <ele>1089.7900390625</ele>
        <time>2024-09-23T15:49:24.000Z</time>
      </trkpt>
      <trkpt lat="42.23793" lon="19.74419">
        <ele>1090.2700195312</ele>
        <time>2024-09-23T15:49:25.000Z</time>
      </trkpt>
      <trkpt lat="42.23799" lon="19.74419">
        <ele>1091.2299804688</ele>
        <time>2024-09-23T15:49:26.000Z</time>
      </trkpt>
      <trkpt lat="42.23816" lon="19.74415">
        <ele>1092.1999511719</ele>
        <time>2024-09-23T15:49:28.000Z</time>
      </trkpt>
      <trkpt lat="42.23829" lon="19.74413">
        <ele>1093.1600341797</ele>
        <time>2024-09-23T15:49:30.000Z</time>
      </trkpt>
      <trkpt lat="42.23839" lon="19.7441">
        <ele>1093.6400146484</ele>
        <time>2024-09-23T15:49:32.000Z</time>
      </trkpt>
      <trkpt lat="42.23841" lon="19.74409">
        <ele>1093.6400146484</ele>
        <time>2024-09-23T15:49:33.000Z</time>
      </trkpt>
      <trkpt lat="42.23846" lon="19.74407">
        <ele>1094.1199951172</ele>
        <time>2024-09-23T15:49:34.000Z</time>
      </trkpt>
      <trkpt lat="42.2385" lon="19.74405">
        <ele>1094.5999755859</ele>
        <time>2024-09-23T15:49:35.000Z</time>
      </trkpt>
      <trkpt lat="42.23856" lon="19.744">
        <ele>1094.5999755859</ele>
        <time>2024-09-23T15:49:36.000Z</time>
      </trkpt>
      <trkpt lat="42.23859" lon="19.74399">
        <ele>1095.0799560547</ele>
        <time>2024-09-23T15:49:37.000Z</time>
      </trkpt>
      <trkpt lat="42.23863" lon="19.74396">
        <ele>1095.5600585938</ele>
        <time>2024-09-23T15:49:38.000Z</time>
      </trkpt>
      <trkpt lat="42.23868" lon="19.74392">
        <ele>1096.0400390625</ele>
        <time>2024-09-23T15:49:39.000Z</time>
      </trkpt>
      <trkpt lat="42.23874" lon="19.74387">
        <ele>1096.5200195312</ele>
        <time>2024-09-23T15:49:41.000Z</time>
      </trkpt>
      <trkpt lat="42.23885" lon="19.74378">
        <ele>1097.9599609375</ele>
        <time>2024-09-23T15:49:43.000Z</time>
      </trkpt>
      <trkpt lat="42.23916" lon="19.74358">
        <ele>1101.3299560547</ele>
        <time>2024-09-23T15:49:46.000Z</time>
      </trkpt>
      <trkpt lat="42.2392" lon="19.74355">
        <ele>1101.3299560547</ele>
        <time>2024-09-23T15:49:47.000Z</time>
      </trkpt>
      <trkpt lat="42.23933" lon="19.7435">
        <ele>1103.25</ele>
        <time>2024-09-23T15:49:48.000Z</time>
      </trkpt>
      <trkpt lat="42.23947" lon="19.74346">
        <ele>1105.1700439453</ele>
        <time>2024-09-23T15:49:49.000Z</time>
      </trkpt>
      <trkpt lat="42.2395" lon="19.74345">
        <ele>1105.6500244141</ele>
        <time>2024-09-23T15:49:50.000Z</time>
      </trkpt>
      <trkpt lat="42.23957" lon="19.7434">
        <ele>1106.6099853516</ele>
        <time>2024-09-23T15:49:51.000Z</time>
      </trkpt>
      <trkpt lat="42.23962" lon="19.74333">
        <ele>1107.5799560547</ele>
        <time>2024-09-23T15:49:52.000Z</time>
      </trkpt>
      <trkpt lat="42.23967" lon="19.74321">
        <ele>1108.0600585938</ele>
        <time>2024-09-23T15:49:53.000Z</time>
      </trkpt>
      <trkpt lat="42.23972" lon="19.74309">
        <ele>1109.0200195312</ele>
        <time>2024-09-23T15:49:54.000Z</time>
      </trkpt>
      <trkpt lat="42.23976" lon="19.74298">
        <ele>1109.9799804688</ele>
        <time>2024-09-23T15:49:55.000Z</time>
      </trkpt>
      <trkpt lat="42.23983" lon="19.74287">
        <ele>1111.4200439453</ele>
        <time>2024-09-23T15:49:56.000Z</time>
      </trkpt>
      <trkpt lat="42.2399" lon="19.74277">
        <ele>1112.3800048828</ele>
        <time>2024-09-23T15:49:57.000Z</time>
      </trkpt>
      <trkpt lat="42.23999" lon="19.74271">
        <ele>1113.3399658203</ele>
        <time>2024-09-23T15:49:58.000Z</time>
      </trkpt>
      <trkpt lat="42.24027" lon="19.74254">
        <ele>1116.2299804688</ele>
        <time>2024-09-23T15:50:00.000Z</time>
      </trkpt>
      <trkpt lat="42.24031" lon="19.74252">
        <ele>1116.7099609375</ele>
        <time>2024-09-23T15:50:01.000Z</time>
      </trkpt>
      <trkpt lat="42.2404" lon="19.74245">
        <ele>1117.6700439453</ele>
        <time>2024-09-23T15:50:02.000Z</time>
      </trkpt>
      <trkpt lat="42.24049" lon="19.74236">
        <ele>1118.6300048828</ele>
        <time>2024-09-23T15:50:03.000Z</time>
      </trkpt>
      <trkpt lat="42.24057" lon="19.74225">
        <ele>1120.0699462891</ele>
        <time>2024-09-23T15:50:04.000Z</time>
      </trkpt>
      <trkpt lat="42.24062" lon="19.74215">
        <ele>1122</ele>
        <time>2024-09-23T15:50:05.000Z</time>
      </trkpt>
      <trkpt lat="42.24064" lon="19.74205">
        <ele>1122.9599609375</ele>
        <time>2024-09-23T15:50:06.000Z</time>
      </trkpt>
      <trkpt lat="42.24065" lon="19.74192">
        <ele>1123.9200439453</ele>
        <time>2024-09-23T15:50:07.000Z</time>
      </trkpt>
      <trkpt lat="42.24062" lon="19.74178">
        <ele>1124.4000244141</ele>
        <time>2024-09-23T15:50:08.000Z</time>
      </trkpt>
      <trkpt lat="42.2406" lon="19.74165">
        <ele>1124.8800048828</ele>
        <time>2024-09-23T15:50:09.000Z</time>
      </trkpt>
      <trkpt lat="42.24059" lon="19.7415">
        <ele>1125.3599853516</ele>
        <time>2024-09-23T15:50:10.000Z</time>
      </trkpt>
      <trkpt lat="42.2406" lon="19.74137">
        <ele>1126.3199462891</ele>
        <time>2024-09-23T15:50:11.000Z</time>
      </trkpt>
      <trkpt lat="42.24063" lon="19.74126">
        <ele>1126.8000488281</ele>
        <time>2024-09-23T15:50:12.000Z</time>
      </trkpt>
      <trkpt lat="42.24067" lon="19.74116">
        <ele>1127.7600097656</ele>
        <time>2024-09-23T15:50:13.000Z</time>
      </trkpt>
      <trkpt lat="42.24073" lon="19.74105">
        <ele>1128.7299804688</ele>
        <time>2024-09-23T15:50:14.000Z</time>
      </trkpt>
      <trkpt lat="42.2408" lon="19.74091">
        <ele>1129.6899414062</ele>
        <time>2024-09-23T15:50:15.000Z</time>
      </trkpt>
      <trkpt lat="42.24085" lon="19.74076">
        <ele>1130.6500244141</ele>
        <time>2024-09-23T15:50:16.000Z</time>
      </trkpt>
      <trkpt lat="42.24091" lon="19.74054">
        <ele>1133.0500488281</ele>
        <time>2024-09-23T15:50:17.000Z</time>
      </trkpt>
      <trkpt lat="42.24092" lon="19.74045">
        <ele>1134.0100097656</ele>
        <time>2024-09-23T15:50:18.000Z</time>
      </trkpt>
      <trkpt lat="42.24094" lon="19.74032">
        <ele>1135.4499511719</ele>
        <time>2024-09-23T15:50:19.000Z</time>
      </trkpt>
      <trkpt lat="42.24094" lon="19.74024">
        <ele>1136.9000244141</ele>
        <time>2024-09-23T15:50:20.000Z</time>
      </trkpt>
      <trkpt lat="42.24091" lon="19.74015">
        <ele>1137.8599853516</ele>
        <time>2024-09-23T15:50:21.000Z</time>
      </trkpt>
      <trkpt lat="42.24088" lon="19.74009">
        <ele>1138.3399658203</ele>
        <time>2024-09-23T15:50:22.000Z</time>
      </trkpt>
      <trkpt lat="42.24084" lon="19.74005">
        <ele>1139.3000488281</ele>
        <time>2024-09-23T15:50:23.000Z</time>
      </trkpt>
      <trkpt lat="42.24078" lon="19.74004">
        <ele>1139.7800292969</ele>
        <time>2024-09-23T15:50:24.000Z</time>
      </trkpt>
      <trkpt lat="42.24072" lon="19.74005">
        <ele>1140.7399902344</ele>
        <time>2024-09-23T15:50:25.000Z</time>
      </trkpt>
      <trkpt lat="42.24059" lon="19.74012">
        <ele>1141.6999511719</ele>
        <time>2024-09-23T15:50:26.000Z</time>
      </trkpt>
      <trkpt lat="42.24054" lon="19.74014">
        <ele>1142.1800537109</ele>
        <time>2024-09-23T15:50:27.000Z</time>
      </trkpt>
      <trkpt lat="42.24045" lon="19.74015">
        <ele>1142.6600341797</ele>
        <time>2024-09-23T15:50:28.000Z</time>
      </trkpt>
      <trkpt lat="42.24036" lon="19.74012">
        <ele>1143.6300048828</ele>
        <time>2024-09-23T15:50:29.000Z</time>
      </trkpt>
      <trkpt lat="42.24028" lon="19.74007">
        <ele>1144.5899658203</ele>
        <time>2024-09-23T15:50:30.000Z</time>
      </trkpt>
      <trkpt lat="42.24013" lon="19.73995">
        <ele>1147.4699707031</ele>
        <time>2024-09-23T15:50:31.000Z</time>
      </trkpt>
      <trkpt lat="42.24011" lon="19.73994">
        <ele>1147.4699707031</ele>
        <time>2024-09-23T15:50:32.000Z</time>
      </trkpt>
      <trkpt lat="42.24004" lon="19.7399">
        <ele>1148.4300537109</ele>
        <time>2024-09-23T15:50:33.000Z</time>
      </trkpt>
      <trkpt lat="42.23996" lon="19.73987">
        <ele>1148.9100341797</ele>
        <time>2024-09-23T15:50:34.000Z</time>
      </trkpt>
      <trkpt lat="42.23986" lon="19.73987">
        <ele>1150.3499755859</ele>
        <time>2024-09-23T15:50:35.000Z</time>
      </trkpt>
      <trkpt lat="42.23975" lon="19.73987">
        <ele>1151.3199462891</ele>
        <time>2024-09-23T15:50:36.000Z</time>
      </trkpt>
      <trkpt lat="42.23963" lon="19.73986">
        <ele>1152.2800292969</ele>
        <time>2024-09-23T15:50:37.000Z</time>
      </trkpt>
      <trkpt lat="42.23947" lon="19.73983">
        <ele>1153.7199707031</ele>
        <time>2024-09-23T15:50:38.000Z</time>
      </trkpt>
      <trkpt lat="42.23941" lon="19.73982">
        <ele>1154.6800537109</ele>
        <time>2024-09-23T15:50:39.000Z</time>
      </trkpt>
      <trkpt lat="42.23932" lon="19.73984">
        <ele>1156.1199951172</ele>
        <time>2024-09-23T15:50:40.000Z</time>
      </trkpt>
      <trkpt lat="42.23925" lon="19.73988">
        <ele>1157.5600585938</ele>
        <time>2024-09-23T15:50:41.000Z</time>
      </trkpt>
      <trkpt lat="42.23914" lon="19.73997">
        <ele>1159.0100097656</ele>
        <time>2024-09-23T15:50:42.000Z</time>
      </trkpt>
      <trkpt lat="42.23908" lon="19.74003">
        <ele>1159.9699707031</ele>
        <time>2024-09-23T15:50:43.000Z</time>
      </trkpt>
      <trkpt lat="42.239" lon="19.74006">
        <ele>1160.9300537109</ele>
        <time>2024-09-23T15:50:44.000Z</time>
      </trkpt>
      <trkpt lat="42.23892" lon="19.74007">
        <ele>1161.4100341797</ele>
        <time>2024-09-23T15:50:45.000Z</time>
      </trkpt>
      <trkpt lat="42.23886" lon="19.74005">
        <ele>1162.8499755859</ele>
        <time>2024-09-23T15:50:46.000Z</time>
      </trkpt>
      <trkpt lat="42.23882" lon="19.74002">
        <ele>1163.3299560547</ele>
        <time>2024-09-23T15:50:47.000Z</time>
      </trkpt>
      <trkpt lat="42.23878" lon="19.73998">
        <ele>1163.8100585938</ele>
        <time>2024-09-23T15:50:48.000Z</time>
      </trkpt>
      <trkpt lat="42.23874" lon="19.73994">
        <ele>1164.7700195312</ele>
        <time>2024-09-23T15:50:49.000Z</time>
      </trkpt>
      <trkpt lat="42.23869" lon="19.7399">
        <ele>1165.7399902344</ele>
        <time>2024-09-23T15:50:50.000Z</time>
      </trkpt>
      <trkpt lat="42.23863" lon="19.73987">
        <ele>1166.2199707031</ele>
        <time>2024-09-23T15:50:51.000Z</time>
      </trkpt>
      <trkpt lat="42.23857" lon="19.73986">
        <ele>1166.2199707031</ele>
        <time>2024-09-23T15:50:52.000Z</time>
      </trkpt>
      <trkpt lat="42.23849" lon="19.73986">
        <ele>1167.1800537109</ele>
        <time>2024-09-23T15:50:53.000Z</time>
      </trkpt>
      <trkpt lat="42.23841" lon="19.73987">
        <ele>1167.6600341797</ele>
        <time>2024-09-23T15:50:54.000Z</time>
      </trkpt>
      <trkpt lat="42.23828" lon="19.73992">
        <ele>1168.1400146484</ele>
        <time>2024-09-23T15:50:55.000Z</time>
      </trkpt>
      <trkpt lat="42.23822" lon="19.73995">
        <ele>1168.1400146484</ele>
        <time>2024-09-23T15:50:56.000Z</time>
      </trkpt>
      <trkpt lat="42.23811" lon="19.74001">
        <ele>1168.6199951172</ele>
        <time>2024-09-23T15:50:57.000Z</time>
      </trkpt>
      <trkpt lat="42.23786" lon="19.74021">
        <ele>1170.0600585938</ele>
        <time>2024-09-23T15:50:59.000Z</time>
      </trkpt>
      <trkpt lat="42.23781" lon="19.74024">
        <ele>1170.5400390625</ele>
        <time>2024-09-23T15:51:00.000Z</time>
      </trkpt>
      <trkpt lat="42.23769" lon="19.74029">
        <ele>1171.0200195312</ele>
        <time>2024-09-23T15:51:01.000Z</time>
      </trkpt>
      <trkpt lat="42.23757" lon="19.74034">
        <ele>1171.5</ele>
        <time>2024-09-23T15:51:02.000Z</time>
      </trkpt>
      <trkpt lat="42.23742" lon="19.7404">
        <ele>1172.9499511719</ele>
        <time>2024-09-23T15:51:03.000Z</time>
      </trkpt>
      <trkpt lat="42.2373" lon="19.74048">
        <ele>1173.9100341797</ele>
        <time>2024-09-23T15:51:04.000Z</time>
      </trkpt>
      <trkpt lat="42.2372" lon="19.74058">
        <ele>1174.3900146484</ele>
        <time>2024-09-23T15:51:05.000Z</time>
      </trkpt>
      <trkpt lat="42.23706" lon="19.74067">
        <ele>1174.8699951172</ele>
        <time>2024-09-23T15:51:06.000Z</time>
      </trkpt>
      <trkpt lat="42.23662" lon="19.74087">
        <ele>1175.3499755859</ele>
        <time>2024-09-23T15:51:08.000Z</time>
      </trkpt>
      <trkpt lat="42.23653" lon="19.74091">
        <ele>1175.8299560547</ele>
        <time>2024-09-23T15:51:09.000Z</time>
      </trkpt>
      <trkpt lat="42.23627" lon="19.74099">
        <ele>1176.3100585938</ele>
        <time>2024-09-23T15:51:11.000Z</time>
      </trkpt>
      <trkpt lat="42.23608" lon="19.74107">
        <ele>1176.3100585938</ele>
        <time>2024-09-23T15:51:12.000Z</time>
      </trkpt>
      <trkpt lat="42.23595" lon="19.74112">
        <ele>1176.7900390625</ele>
        <time>2024-09-23T15:51:13.000Z</time>
      </trkpt>
      <trkpt lat="42.23592" lon="19.74113">
        <ele>1176.7900390625</ele>
        <time>2024-09-23T15:51:14.000Z</time>
      </trkpt>
      <trkpt lat="42.23586" lon="19.74114">
        <ele>1177.2700195312</ele>
        <time>2024-09-23T15:51:15.000Z</time>
      </trkpt>
      <trkpt lat="42.23582" lon="19.74112">
        <ele>1177.2700195312</ele>
        <time>2024-09-23T15:51:16.000Z</time>
      </trkpt>
      <trkpt lat="42.2358" lon="19.74098">
        <ele>1178.7099609375</ele>
        <time>2024-09-23T15:51:19.000Z</time>
      </trkpt>
      <trkpt lat="42.23582" lon="19.74097">
        <ele>1178.7099609375</ele>
        <time>2024-09-23T15:51:20.000Z</time>
      </trkpt>
      <trkpt lat="42.23587" lon="19.74093">
        <ele>1179.1899414062</ele>
        <time>2024-09-23T15:51:21.000Z</time>
      </trkpt>
      <trkpt lat="42.23596" lon="19.74091">
        <ele>1179.6700439453</ele>
        <time>2024-09-23T15:51:22.000Z</time>
      </trkpt>
      <trkpt lat="42.23604" lon="19.74089">
        <ele>1180.1600341797</ele>
        <time>2024-09-23T15:51:23.000Z</time>
      </trkpt>
      <trkpt lat="42.23612" lon="19.74085">
        <ele>1180.1600341797</ele>
        <time>2024-09-23T15:51:24.000Z</time>
      </trkpt>
      <trkpt lat="42.23622" lon="19.74078">
        <ele>1180.6400146484</ele>
        <time>2024-09-23T15:51:25.000Z</time>
      </trkpt>
      <trkpt lat="42.23631" lon="19.74072">
        <ele>1181.5999755859</ele>
        <time>2024-09-23T15:51:26.000Z</time>
      </trkpt>
      <trkpt lat="42.23647" lon="19.7406">
        <ele>1183.5200195312</ele>
        <time>2024-09-23T15:51:27.000Z</time>
      </trkpt>
      <trkpt lat="42.23656" lon="19.74053">
        <ele>1184.9599609375</ele>
        <time>2024-09-23T15:51:28.000Z</time>
      </trkpt>
      <trkpt lat="42.23675" lon="19.74033">
        <ele>1187.8499755859</ele>
        <time>2024-09-23T15:51:29.000Z</time>
      </trkpt>
      <trkpt lat="42.23678" lon="19.74031">
        <ele>1187.8499755859</ele>
        <time>2024-09-23T15:51:30.000Z</time>
      </trkpt>
      <trkpt lat="42.23692" lon="19.7402">
        <ele>1189.2900390625</ele>
        <time>2024-09-23T15:51:31.000Z</time>
      </trkpt>
      <trkpt lat="42.23704" lon="19.74012">
        <ele>1190.7299804688</ele>
        <time>2024-09-23T15:51:32.000Z</time>
      </trkpt>
      <trkpt lat="42.23716" lon="19.74003">
        <ele>1192.1700439453</ele>
        <time>2024-09-23T15:51:33.000Z</time>
      </trkpt>
      <trkpt lat="42.23726" lon="19.73992">
        <ele>1193.6099853516</ele>
        <time>2024-09-23T15:51:34.000Z</time>
      </trkpt>
      <trkpt lat="42.23733" lon="19.73981">
        <ele>1195.0600585938</ele>
        <time>2024-09-23T15:51:35.000Z</time>
      </trkpt>
      <trkpt lat="42.23745" lon="19.73962">
        <ele>1196.5</ele>
        <time>2024-09-23T15:51:36.000Z</time>
      </trkpt>
      <trkpt lat="42.23763" lon="19.73935">
        <ele>1198.9000244141</ele>
        <time>2024-09-23T15:51:38.000Z</time>
      </trkpt>
      <trkpt lat="42.23774" lon="19.73918">
        <ele>1200.3399658203</ele>
        <time>2024-09-23T15:51:39.000Z</time>
      </trkpt>
      <trkpt lat="42.23786" lon="19.73903">
        <ele>1201.7900390625</ele>
        <time>2024-09-23T15:51:40.000Z</time>
      </trkpt>
      <trkpt lat="42.23796" lon="19.73893">
        <ele>1202.75</ele>
        <time>2024-09-23T15:51:41.000Z</time>
      </trkpt>
      <trkpt lat="42.23808" lon="19.73884">
        <ele>1203.2299804688</ele>
        <time>2024-09-23T15:51:42.000Z</time>
      </trkpt>
      <trkpt lat="42.2382" lon="19.73876">
        <ele>1204.1899414062</ele>
        <time>2024-09-23T15:51:43.000Z</time>
      </trkpt>
      <trkpt lat="42.2383" lon="19.73872">
        <ele>1205.1500244141</ele>
        <time>2024-09-23T15:51:44.000Z</time>
      </trkpt>
      <trkpt lat="42.23835" lon="19.73869">
        <ele>1205.6300048828</ele>
        <time>2024-09-23T15:51:45.000Z</time>
      </trkpt>
      <trkpt lat="42.23838" lon="19.73864">
        <ele>1206.1099853516</ele>
        <time>2024-09-23T15:51:46.000Z</time>
      </trkpt>
      <trkpt lat="42.23834" lon="19.73856">
        <ele>1207.0699462891</ele>
        <time>2024-09-23T15:51:48.000Z</time>
      </trkpt>
      <trkpt lat="42.23832" lon="19.73855">
        <ele>1207.0699462891</ele>
        <time>2024-09-23T15:51:49.000Z</time>
      </trkpt>
      <trkpt lat="42.23826" lon="19.73855">
        <ele>1207.5500488281</ele>
        <time>2024-09-23T15:51:50.000Z</time>
      </trkpt>
      <trkpt lat="42.23819" lon="19.73858">
        <ele>1207.5500488281</ele>
        <time>2024-09-23T15:51:51.000Z</time>
      </trkpt>
      <trkpt lat="42.23808" lon="19.73864">
        <ele>1207.5500488281</ele>
        <time>2024-09-23T15:51:52.000Z</time>
      </trkpt>
      <trkpt lat="42.23799" lon="19.73868">
        <ele>1207.5500488281</ele>
        <time>2024-09-23T15:51:53.000Z</time>
      </trkpt>
      <trkpt lat="42.23787" lon="19.7387">
        <ele>1208.0300292969</ele>
        <time>2024-09-23T15:51:54.000Z</time>
      </trkpt>
      <trkpt lat="42.23773" lon="19.73873">
        <ele>1208.5100097656</ele>
        <time>2024-09-23T15:51:55.000Z</time>
      </trkpt>
      <trkpt lat="42.23759" lon="19.73879">
        <ele>1209</ele>
        <time>2024-09-23T15:51:56.000Z</time>
      </trkpt>
      <trkpt lat="42.23744" lon="19.73887">
        <ele>1209.4799804688</ele>
        <time>2024-09-23T15:51:57.000Z</time>
      </trkpt>
      <trkpt lat="42.23691" lon="19.73926">
        <ele>1212.3599853516</ele>
        <time>2024-09-23T15:52:00.000Z</time>
      </trkpt>
      <trkpt lat="42.23667" lon="19.73945">
        <ele>1214.2800292969</ele>
        <time>2024-09-23T15:52:02.000Z</time>
      </trkpt>
      <trkpt lat="42.23658" lon="19.73952">
        <ele>1215.2399902344</ele>
        <time>2024-09-23T15:52:03.000Z</time>
      </trkpt>
      <trkpt lat="42.23648" lon="19.73955">
        <ele>1215.2399902344</ele>
        <time>2024-09-23T15:52:04.000Z</time>
      </trkpt>
      <trkpt lat="42.23637" lon="19.73954">
        <ele>1215.7199707031</ele>
        <time>2024-09-23T15:52:05.000Z</time>
      </trkpt>
      <trkpt lat="42.23622" lon="19.73953">
        <ele>1215.7199707031</ele>
        <time>2024-09-23T15:52:06.000Z</time>
      </trkpt>
      <trkpt lat="42.2361" lon="19.73953">
        <ele>1216.6899414062</ele>
        <time>2024-09-23T15:52:07.000Z</time>
      </trkpt>
      <trkpt lat="42.23601" lon="19.73955">
        <ele>1218.6099853516</ele>
        <time>2024-09-23T15:52:08.000Z</time>
      </trkpt>
      <trkpt lat="42.23589" lon="19.73955">
        <ele>1220.5300292969</ele>
        <time>2024-09-23T15:52:09.000Z</time>
      </trkpt>
      <trkpt lat="42.23585" lon="19.73956">
        <ele>1221.0100097656</ele>
        <time>2024-09-23T15:52:10.000Z</time>
      </trkpt>
      <trkpt lat="42.23577" lon="19.73955">
        <ele>1221.4899902344</ele>
        <time>2024-09-23T15:52:11.000Z</time>
      </trkpt>
      <trkpt lat="42.23562" lon="19.73952">
        <ele>1221.0100097656</ele>
        <time>2024-09-23T15:52:12.000Z</time>
      </trkpt>
      <trkpt lat="42.23556" lon="19.7395">
        <ele>1220.5300292969</ele>
        <time>2024-09-23T15:52:13.000Z</time>
      </trkpt>
      <trkpt lat="42.2355" lon="19.73947">
        <ele>1220.5300292969</ele>
        <time>2024-09-23T15:52:14.000Z</time>
      </trkpt>
      <trkpt lat="42.23546" lon="19.73945">
        <ele>1220.5300292969</ele>
        <time>2024-09-23T15:52:15.000Z</time>
      </trkpt>
      <trkpt lat="42.2355" lon="19.73929">
        <ele>1217.6500244141</ele>
        <time>2024-09-23T15:52:20.000Z</time>
      </trkpt>
      <trkpt lat="42.23554" lon="19.7393">
        <ele>1217.1700439453</ele>
        <time>2024-09-23T15:52:21.000Z</time>
      </trkpt>
      <trkpt lat="42.23559" lon="19.73931">
        <ele>1217.1700439453</ele>
        <time>2024-09-23T15:52:22.000Z</time>
      </trkpt>
      <trkpt lat="42.23565" lon="19.7393">
        <ele>1216.6899414062</ele>
        <time>2024-09-23T15:52:23.000Z</time>
      </trkpt>
      <trkpt lat="42.23568" lon="19.73927">
        <ele>1216.2099609375</ele>
        <time>2024-09-23T15:52:24.000Z</time>
      </trkpt>
      <trkpt lat="42.2357" lon="19.73922">
        <ele>1215.7199707031</ele>
        <time>2024-09-23T15:52:25.000Z</time>
      </trkpt>
      <trkpt lat="42.23571" lon="19.73917">
        <ele>1215.2399902344</ele>
        <time>2024-09-23T15:52:26.000Z</time>
      </trkpt>
      <trkpt lat="42.23569" lon="19.73911">
        <ele>1214.7600097656</ele>
        <time>2024-09-23T15:52:27.000Z</time>
      </trkpt>
      <trkpt lat="42.23566" lon="19.73908">
        <ele>1214.7600097656</ele>
        <time>2024-09-23T15:52:28.000Z</time>
      </trkpt>
      <trkpt lat="42.2356" lon="19.73906">
        <ele>1214.2800292969</ele>
        <time>2024-09-23T15:52:29.000Z</time>
      </trkpt>
      <trkpt lat="42.23553" lon="19.73905">
        <ele>1214.2800292969</ele>
        <time>2024-09-23T15:52:30.000Z</time>
      </trkpt>
      <trkpt lat="42.23542" lon="19.73903">
        <ele>1213.8000488281</ele>
        <time>2024-09-23T15:52:31.000Z</time>
      </trkpt>
      <trkpt lat="42.23522" lon="19.73897">
        <ele>1212.8399658203</ele>
        <time>2024-09-23T15:52:32.000Z</time>
      </trkpt>
      <trkpt lat="42.23489" lon="19.73888">
        <ele>1209.9599609375</ele>
        <time>2024-09-23T15:52:35.000Z</time>
      </trkpt>
      <trkpt lat="42.23472" lon="19.73884">
        <ele>1209</ele>
        <time>2024-09-23T15:52:36.000Z</time>
      </trkpt>
      <trkpt lat="42.23459" lon="19.73883">
        <ele>1208.0300292969</ele>
        <time>2024-09-23T15:52:37.000Z</time>
      </trkpt>
      <trkpt lat="42.23433" lon="19.73882">
        <ele>1206.1099853516</ele>
        <time>2024-09-23T15:52:38.000Z</time>
      </trkpt>
      <trkpt lat="42.23421" lon="19.73883">
        <ele>1205.1500244141</ele>
        <time>2024-09-23T15:52:39.000Z</time>
      </trkpt>
      <trkpt lat="42.23412" lon="19.73884">
        <ele>1204.1899414062</ele>
        <time>2024-09-23T15:52:40.000Z</time>
      </trkpt>
      <trkpt lat="42.234" lon="19.73887">
        <ele>1203.2299804688</ele>
        <time>2024-09-23T15:52:41.000Z</time>
      </trkpt>
      <trkpt lat="42.23388" lon="19.7389">
        <ele>1202.2700195312</ele>
        <time>2024-09-23T15:52:42.000Z</time>
      </trkpt>
      <trkpt lat="42.23377" lon="19.73896">
        <ele>1200.8199462891</ele>
        <time>2024-09-23T15:52:43.000Z</time>
      </trkpt>
      <trkpt lat="42.23364" lon="19.73904">
        <ele>1199.8599853516</ele>
        <time>2024-09-23T15:52:44.000Z</time>
      </trkpt>
      <trkpt lat="42.23358" lon="19.73908">
        <ele>1199.3800048828</ele>
        <time>2024-09-23T15:52:45.000Z</time>
      </trkpt>
      <trkpt lat="42.23349" lon="19.73911">
        <ele>1198.4200439453</ele>
        <time>2024-09-23T15:52:46.000Z</time>
      </trkpt>
      <trkpt lat="42.2334" lon="19.73911">
        <ele>1197.9399414062</ele>
        <time>2024-09-23T15:52:47.000Z</time>
      </trkpt>
      <trkpt lat="42.23331" lon="19.73908">
        <ele>1196.9799804688</ele>
        <time>2024-09-23T15:52:48.000Z</time>
      </trkpt>
      <trkpt lat="42.2332" lon="19.73903">
        <ele>1196.0200195312</ele>
        <time>2024-09-23T15:52:49.000Z</time>
      </trkpt>
      <trkpt lat="42.2331" lon="19.73902">
        <ele>1195.5400390625</ele>
        <time>2024-09-23T15:52:50.000Z</time>
      </trkpt>
      <trkpt lat="42.233" lon="19.73904">
        <ele>1195.0600585938</ele>
        <time>2024-09-23T15:52:51.000Z</time>
      </trkpt>
      <trkpt lat="42.23286" lon="19.73908">
        <ele>1194.0899658203</ele>
        <time>2024-09-23T15:52:52.000Z</time>
      </trkpt>
      <trkpt lat="42.23275" lon="19.73914">
        <ele>1193.1300048828</ele>
        <time>2024-09-23T15:52:53.000Z</time>
      </trkpt>
      <trkpt lat="42.23255" lon="19.73925">
        <ele>1191.2099609375</ele>
        <time>2024-09-23T15:52:54.000Z</time>
      </trkpt>
      <trkpt lat="42.23218" lon="19.7395">
        <ele>1186.8800048828</ele>
        <time>2024-09-23T15:52:56.000Z</time>
      </trkpt>
      <trkpt lat="42.23204" lon="19.73958">
        <ele>1185.4399414062</ele>
        <time>2024-09-23T15:52:57.000Z</time>
      </trkpt>
      <trkpt lat="42.23194" lon="19.73963">
        <ele>1184.4799804688</ele>
        <time>2024-09-23T15:52:58.000Z</time>
      </trkpt>
      <trkpt lat="42.2319" lon="19.73965">
        <ele>1184</ele>
        <time>2024-09-23T15:52:59.000Z</time>
      </trkpt>
      <trkpt lat="42.23179" lon="19.73969">
        <ele>1183.5200195312</ele>
        <time>2024-09-23T15:53:00.000Z</time>
      </trkpt>
      <trkpt lat="42.23167" lon="19.73969">
        <ele>1182.0799560547</ele>
        <time>2024-09-23T15:53:01.000Z</time>
      </trkpt>
      <trkpt lat="42.23154" lon="19.73967">
        <ele>1180.6400146484</ele>
        <time>2024-09-23T15:53:02.000Z</time>
      </trkpt>
      <trkpt lat="42.23141" lon="19.73962">
        <ele>1179.1899414062</ele>
        <time>2024-09-23T15:53:03.000Z</time>
      </trkpt>
      <trkpt lat="42.23131" lon="19.73957">
        <ele>1177.75</ele>
        <time>2024-09-23T15:53:04.000Z</time>
      </trkpt>
      <trkpt lat="42.23124" lon="19.73952">
        <ele>1175.8299560547</ele>
        <time>2024-09-23T15:53:05.000Z</time>
      </trkpt>
      <trkpt lat="42.23118" lon="19.73945">
        <ele>1174.8699951172</ele>
        <time>2024-09-23T15:53:06.000Z</time>
      </trkpt>
      <trkpt lat="42.23111" lon="19.73935">
        <ele>1174.3900146484</ele>
        <time>2024-09-23T15:53:07.000Z</time>
      </trkpt>
      <trkpt lat="42.23109" lon="19.73927">
        <ele>1173.4300537109</ele>
        <time>2024-09-23T15:53:08.000Z</time>
      </trkpt>
      <trkpt lat="42.2311" lon="19.73917">
        <ele>1171.9799804688</ele>
        <time>2024-09-23T15:53:09.000Z</time>
      </trkpt>
      <trkpt lat="42.23111" lon="19.73906">
        <ele>1171.0200195312</ele>
        <time>2024-09-23T15:53:10.000Z</time>
      </trkpt>
      <trkpt lat="42.23104" lon="19.73886">
        <ele>1169.5799560547</ele>
        <time>2024-09-23T15:53:15.000Z</time>
      </trkpt>
      <trkpt lat="42.23102" lon="19.73884">
        <ele>1168.6199951172</ele>
        <time>2024-09-23T15:53:16.000Z</time>
      </trkpt>
      <trkpt lat="42.23095" lon="19.73879">
        <ele>1168.1400146484</ele>
        <time>2024-09-23T15:53:17.000Z</time>
      </trkpt>
      <trkpt lat="42.23089" lon="19.73874">
        <ele>1168.1400146484</ele>
        <time>2024-09-23T15:53:18.000Z</time>
      </trkpt>
      <trkpt lat="42.23066" lon="19.73854">
        <ele>1167.1800537109</ele>
        <time>2024-09-23T15:53:21.000Z</time>
      </trkpt>
      <trkpt lat="42.23061" lon="19.7385">
        <ele>1167.1800537109</ele>
        <time>2024-09-23T15:53:22.000Z</time>
      </trkpt>
      <trkpt lat="42.23055" lon="19.73841">
        <ele>1166.6999511719</ele>
        <time>2024-09-23T15:53:23.000Z</time>
      </trkpt>
      <trkpt lat="42.23048" lon="19.73831">
        <ele>1166.2199707031</ele>
        <time>2024-09-23T15:53:24.000Z</time>
      </trkpt>
      <trkpt lat="42.23042" lon="19.73821">
        <ele>1165.7399902344</ele>
        <time>2024-09-23T15:53:25.000Z</time>
      </trkpt>
      <trkpt lat="42.23035" lon="19.73808">
        <ele>1164.2900390625</ele>
        <time>2024-09-23T15:53:26.000Z</time>
      </trkpt>
      <trkpt lat="42.23031" lon="19.73801">
        <ele>1163.8100585938</ele>
        <time>2024-09-23T15:53:27.000Z</time>
      </trkpt>
      <trkpt lat="42.23029" lon="19.73794">
        <ele>1163.3299560547</ele>
        <time>2024-09-23T15:53:28.000Z</time>
      </trkpt>
      <trkpt lat="42.23027" lon="19.73786">
        <ele>1162.3699951172</ele>
        <time>2024-09-23T15:53:29.000Z</time>
      </trkpt>
      <trkpt lat="42.23026" lon="19.73781">
        <ele>1161.8900146484</ele>
        <time>2024-09-23T15:53:30.000Z</time>
      </trkpt>
      <trkpt lat="42.23027" lon="19.73775">
        <ele>1160.9300537109</ele>
        <time>2024-09-23T15:53:31.000Z</time>
      </trkpt>
      <trkpt lat="42.23034" lon="19.73769">
        <ele>1159.4899902344</ele>
        <time>2024-09-23T15:53:33.000Z</time>
      </trkpt>
      <trkpt lat="42.23039" lon="19.73768">
        <ele>1158.5300292969</ele>
        <time>2024-09-23T15:53:34.000Z</time>
      </trkpt>
      <trkpt lat="42.23044" lon="19.73768">
        <ele>1157.5600585938</ele>
        <time>2024-09-23T15:53:35.000Z</time>
      </trkpt>
      <trkpt lat="42.23065" lon="19.73771">
        <ele>1154.6800537109</ele>
        <time>2024-09-23T15:53:38.000Z</time>
      </trkpt>
      <trkpt lat="42.23068" lon="19.73772">
        <ele>1154.6800537109</ele>
        <time>2024-09-23T15:53:39.000Z</time>
      </trkpt>
      <trkpt lat="42.23073" lon="19.73772">
        <ele>1153.7199707031</ele>
        <time>2024-09-23T15:53:40.000Z</time>
      </trkpt>
      <trkpt lat="42.23076" lon="19.73773">
        <ele>1153.2399902344</ele>
        <time>2024-09-23T15:53:41.000Z</time>
      </trkpt>
      <trkpt lat="42.23081" lon="19.73776">
        <ele>1152.7600097656</ele>
        <time>2024-09-23T15:53:42.000Z</time>
      </trkpt>
      <trkpt lat="42.23087" lon="19.7378">
        <ele>1151.8000488281</ele>
        <time>2024-09-23T15:53:43.000Z</time>
      </trkpt>
      <trkpt lat="42.23092" lon="19.73785">
        <ele>1151.3199462891</ele>
        <time>2024-09-23T15:53:44.000Z</time>
      </trkpt>
      <trkpt lat="42.23101" lon="19.73795">
        <ele>1150.3499755859</ele>
        <time>2024-09-23T15:53:45.000Z</time>
      </trkpt>
      <trkpt lat="42.23106" lon="19.73801">
        <ele>1149.8699951172</ele>
        <time>2024-09-23T15:53:46.000Z</time>
      </trkpt>
      <trkpt lat="42.23111" lon="19.73807">
        <ele>1149.3900146484</ele>
        <time>2024-09-23T15:53:47.000Z</time>
      </trkpt>
      <trkpt lat="42.23116" lon="19.73811">
        <ele>1149.3900146484</ele>
        <time>2024-09-23T15:53:48.000Z</time>
      </trkpt>
      <trkpt lat="42.23121" lon="19.73813">
        <ele>1148.9100341797</ele>
        <time>2024-09-23T15:53:49.000Z</time>
      </trkpt>
      <trkpt lat="42.23126" lon="19.73812">
        <ele>1148.4300537109</ele>
        <time>2024-09-23T15:53:50.000Z</time>
      </trkpt>
      <trkpt lat="42.23131" lon="19.73809">
        <ele>1148.4300537109</ele>
        <time>2024-09-23T15:53:51.000Z</time>
      </trkpt>
      <trkpt lat="42.23138" lon="19.738">
        <ele>1147.4699707031</ele>
        <time>2024-09-23T15:53:52.000Z</time>
      </trkpt>
      <trkpt lat="42.23144" lon="19.73794">
        <ele>1146.9899902344</ele>
        <time>2024-09-23T15:53:53.000Z</time>
      </trkpt>
      <trkpt lat="42.23151" lon="19.73786">
        <ele>1146.0300292969</ele>
        <time>2024-09-23T15:53:54.000Z</time>
      </trkpt>
      <trkpt lat="42.23161" lon="19.73779">
        <ele>1145.0699462891</ele>
        <time>2024-09-23T15:53:55.000Z</time>
      </trkpt>
      <trkpt lat="42.23171" lon="19.73775">
        <ele>1143.6300048828</ele>
        <time>2024-09-23T15:53:56.000Z</time>
      </trkpt>
      <trkpt lat="42.23183" lon="19.73773">
        <ele>1142.1800537109</ele>
        <time>2024-09-23T15:53:57.000Z</time>
      </trkpt>
      <trkpt lat="42.23198" lon="19.73772">
        <ele>1140.7399902344</ele>
        <time>2024-09-23T15:53:58.000Z</time>
      </trkpt>
      <trkpt lat="42.23212" lon="19.7377">
        <ele>1139.7800292969</ele>
        <time>2024-09-23T15:53:59.000Z</time>
      </trkpt>
      <trkpt lat="42.23222" lon="19.73769">
        <ele>1138.8199462891</ele>
        <time>2024-09-23T15:54:00.000Z</time>
      </trkpt>
      <trkpt lat="42.23231" lon="19.73769">
        <ele>1137.3800048828</ele>
        <time>2024-09-23T15:54:01.000Z</time>
      </trkpt>
      <trkpt lat="42.23238" lon="19.73771">
        <ele>1136.9000244141</ele>
        <time>2024-09-23T15:54:02.000Z</time>
      </trkpt>
      <trkpt lat="42.23245" lon="19.73776">
        <ele>1135.9399414062</ele>
        <time>2024-09-23T15:54:03.000Z</time>
      </trkpt>
      <trkpt lat="42.23256" lon="19.73786">
        <ele>1134.9699707031</ele>
        <time>2024-09-23T15:54:04.000Z</time>
      </trkpt>
      <trkpt lat="42.23259" lon="19.73788">
        <ele>1134.4899902344</ele>
        <time>2024-09-23T15:54:05.000Z</time>
      </trkpt>
      <trkpt lat="42.23266" lon="19.73791">
        <ele>1134.0100097656</ele>
        <time>2024-09-23T15:54:06.000Z</time>
      </trkpt>
      <trkpt lat="42.23272" lon="19.73791">
        <ele>1133.0500488281</ele>
        <time>2024-09-23T15:54:07.000Z</time>
      </trkpt>
      <trkpt lat="42.23285" lon="19.73784">
        <ele>1131.6099853516</ele>
        <time>2024-09-23T15:54:08.000Z</time>
      </trkpt>
      <trkpt lat="42.23291" lon="19.73781">
        <ele>1131.1300048828</ele>
        <time>2024-09-23T15:54:09.000Z</time>
      </trkpt>
      <trkpt lat="42.23301" lon="19.73779">
        <ele>1130.1700439453</ele>
        <time>2024-09-23T15:54:10.000Z</time>
      </trkpt>
      <trkpt lat="42.23316" lon="19.73779">
        <ele>1128.2399902344</ele>
        <time>2024-09-23T15:54:11.000Z</time>
      </trkpt>
      <trkpt lat="42.2332" lon="19.73779">
        <ele>1127.7600097656</ele>
        <time>2024-09-23T15:54:12.000Z</time>
      </trkpt>
      <trkpt lat="42.23326" lon="19.73778">
        <ele>1127.2800292969</ele>
        <time>2024-09-23T15:54:13.000Z</time>
      </trkpt>
      <trkpt lat="42.23333" lon="19.73773">
        <ele>1126.8000488281</ele>
        <time>2024-09-23T15:54:14.000Z</time>
      </trkpt>
      <trkpt lat="42.23338" lon="19.73767">
        <ele>1126.8000488281</ele>
        <time>2024-09-23T15:54:15.000Z</time>
      </trkpt>
      <trkpt lat="42.23343" lon="19.73758">
        <ele>1126.8000488281</ele>
        <time>2024-09-23T15:54:16.000Z</time>
      </trkpt>
      <trkpt lat="42.23348" lon="19.73742">
        <ele>1125.3599853516</ele>
        <time>2024-09-23T15:54:17.000Z</time>
      </trkpt>
      <trkpt lat="42.23354" lon="19.73728">
        <ele>1123.4399414062</ele>
        <time>2024-09-23T15:54:18.000Z</time>
      </trkpt>
      <trkpt lat="42.2336" lon="19.73717">
        <ele>1122.4799804688</ele>
        <time>2024-09-23T15:54:19.000Z</time>
      </trkpt>
      <trkpt lat="42.23366" lon="19.73709">
        <ele>1121.5200195312</ele>
        <time>2024-09-23T15:54:20.000Z</time>
      </trkpt>
      <trkpt lat="42.23375" lon="19.73702">
        <ele>1120.5500488281</ele>
        <time>2024-09-23T15:54:21.000Z</time>
      </trkpt>
      <trkpt lat="42.23387" lon="19.73696">
        <ele>1119.1099853516</ele>
        <time>2024-09-23T15:54:22.000Z</time>
      </trkpt>
      <trkpt lat="42.23408" lon="19.73688">
        <ele>1115.75</ele>
        <time>2024-09-23T15:54:24.000Z</time>
      </trkpt>
      <trkpt lat="42.23418" lon="19.73681">
        <ele>1114.3100585938</ele>
        <time>2024-09-23T15:54:25.000Z</time>
      </trkpt>
      <trkpt lat="42.23427" lon="19.73673">
        <ele>1112.3800048828</ele>
        <time>2024-09-23T15:54:26.000Z</time>
      </trkpt>
      <trkpt lat="42.23437" lon="19.73662">
        <ele>1109.9799804688</ele>
        <time>2024-09-23T15:54:27.000Z</time>
      </trkpt>
      <trkpt lat="42.23444" lon="19.73656">
        <ele>1109.0200195312</ele>
        <time>2024-09-23T15:54:28.000Z</time>
      </trkpt>
      <trkpt lat="42.23452" lon="19.73649">
        <ele>1107.0999755859</ele>
        <time>2024-09-23T15:54:29.000Z</time>
      </trkpt>
      <trkpt lat="42.2346" lon="19.73642">
        <ele>1105.6500244141</ele>
        <time>2024-09-23T15:54:30.000Z</time>
      </trkpt>
      <trkpt lat="42.23466" lon="19.73632">
        <ele>1104.2099609375</ele>
        <time>2024-09-23T15:54:31.000Z</time>
      </trkpt>
      <trkpt lat="42.23473" lon="19.73618">
        <ele>1102.2900390625</ele>
        <time>2024-09-23T15:54:32.000Z</time>
      </trkpt>
      <trkpt lat="42.23478" lon="19.73608">
        <ele>1100.8499755859</ele>
        <time>2024-09-23T15:54:33.000Z</time>
      </trkpt>
      <trkpt lat="42.23487" lon="19.73597">
        <ele>1099.4000244141</ele>
        <time>2024-09-23T15:54:34.000Z</time>
      </trkpt>
      <trkpt lat="42.23502" lon="19.73583">
        <ele>1095.5600585938</ele>
        <time>2024-09-23T15:54:35.000Z</time>
      </trkpt>
      <trkpt lat="42.23512" lon="19.73573">
        <ele>1094.1199951172</ele>
        <time>2024-09-23T15:54:36.000Z</time>
      </trkpt>
      <trkpt lat="42.23521" lon="19.73564">
        <ele>1092.6800537109</ele>
        <time>2024-09-23T15:54:37.000Z</time>
      </trkpt>
      <trkpt lat="42.23527" lon="19.73557">
        <ele>1091.2299804688</ele>
        <time>2024-09-23T15:54:38.000Z</time>
      </trkpt>
      <trkpt lat="42.23537" lon="19.73544">
        <ele>1088.8299560547</ele>
        <time>2024-09-23T15:54:39.000Z</time>
      </trkpt>
      <trkpt lat="42.23546" lon="19.73534">
        <ele>1087.3900146484</ele>
        <time>2024-09-23T15:54:40.000Z</time>
      </trkpt>
      <trkpt lat="42.23584" lon="19.73503">
        <ele>1079.2199707031</ele>
        <time>2024-09-23T15:54:42.000Z</time>
      </trkpt>
      <trkpt lat="42.23593" lon="19.73496">
        <ele>1077.2900390625</ele>
        <time>2024-09-23T15:54:43.000Z</time>
      </trkpt>
      <trkpt lat="42.23598" lon="19.73493">
        <ele>1076.3299560547</ele>
        <time>2024-09-23T15:54:44.000Z</time>
      </trkpt>
      <trkpt lat="42.2361" lon="19.73487">
        <ele>1074.4100341797</ele>
        <time>2024-09-23T15:54:45.000Z</time>
      </trkpt>
      <trkpt lat="42.23621" lon="19.73484">
        <ele>1072.0100097656</ele>
        <time>2024-09-23T15:54:46.000Z</time>
      </trkpt>
      <trkpt lat="42.23631" lon="19.73483">
        <ele>1070.0799560547</ele>
        <time>2024-09-23T15:54:47.000Z</time>
      </trkpt>
      <trkpt lat="42.2364" lon="19.73485">
        <ele>1067.6800537109</ele>
        <time>2024-09-23T15:54:48.000Z</time>
      </trkpt>
      <trkpt lat="42.23649" lon="19.73491">
        <ele>1065.7600097656</ele>
        <time>2024-09-23T15:54:49.000Z</time>
      </trkpt>
      <trkpt lat="42.23657" lon="19.73496">
        <ele>1063.8399658203</ele>
        <time>2024-09-23T15:54:50.000Z</time>
      </trkpt>
      <trkpt lat="42.23664" lon="19.73499">
        <ele>1062.8699951172</ele>
        <time>2024-09-23T15:54:51.000Z</time>
      </trkpt>
      <trkpt lat="42.23672" lon="19.73498">
        <ele>1060.9499511719</ele>
        <time>2024-09-23T15:54:52.000Z</time>
      </trkpt>
      <trkpt lat="42.23679" lon="19.73493">
        <ele>1059.9899902344</ele>
        <time>2024-09-23T15:54:53.000Z</time>
      </trkpt>
      <trkpt lat="42.23684" lon="19.73485">
        <ele>1058.5500488281</ele>
        <time>2024-09-23T15:54:54.000Z</time>
      </trkpt>
      <trkpt lat="42.23687" lon="19.73475">
        <ele>1057.1099853516</ele>
        <time>2024-09-23T15:54:55.000Z</time>
      </trkpt>
      <trkpt lat="42.23687" lon="19.73464">
        <ele>1056.1500244141</ele>
        <time>2024-09-23T15:54:56.000Z</time>
      </trkpt>
      <trkpt lat="42.23686" lon="19.73451">
        <ele>1056.1500244141</ele>
        <time>2024-09-23T15:54:57.000Z</time>
      </trkpt>
      <trkpt lat="42.23683" lon="19.73431">
        <ele>1055.6700439453</ele>
        <time>2024-09-23T15:54:58.000Z</time>
      </trkpt>
      <trkpt lat="42.23684" lon="19.73394">
        <ele>1054.6999511719</ele>
        <time>2024-09-23T15:54:59.000Z</time>
      </trkpt>
      <trkpt lat="42.23685" lon="19.73365">
        <ele>1053.2600097656</ele>
        <time>2024-09-23T15:55:01.000Z</time>
      </trkpt>
      <trkpt lat="42.23686" lon="19.73353">
        <ele>1052.7800292969</ele>
        <time>2024-09-23T15:55:02.000Z</time>
      </trkpt>
      <trkpt lat="42.23689" lon="19.7332">
        <ele>1051.8199462891</ele>
        <time>2024-09-23T15:55:04.000Z</time>
      </trkpt>
      <trkpt lat="42.2369" lon="19.73313">
        <ele>1051.8199462891</ele>
        <time>2024-09-23T15:55:05.000Z</time>
      </trkpt>
      <trkpt lat="42.23692" lon="19.73303">
        <ele>1051.8199462891</ele>
        <time>2024-09-23T15:55:06.000Z</time>
      </trkpt>
      <trkpt lat="42.23695" lon="19.73294">
        <ele>1051.8199462891</ele>
        <time>2024-09-23T15:55:07.000Z</time>
      </trkpt>
      <trkpt lat="42.23699" lon="19.73286">
        <ele>1051.3399658203</ele>
        <time>2024-09-23T15:55:08.000Z</time>
      </trkpt>
      <trkpt lat="42.23704" lon="19.73279">
        <ele>1050.8599853516</ele>
        <time>2024-09-23T15:55:09.000Z</time>
      </trkpt>
      <trkpt lat="42.23709" lon="19.73271">
        <ele>1049.9000244141</ele>
        <time>2024-09-23T15:55:10.000Z</time>
      </trkpt>
      <trkpt lat="42.23713" lon="19.73266">
        <ele>1048.9399414062</ele>
        <time>2024-09-23T15:55:11.000Z</time>
      </trkpt>
      <trkpt lat="42.23717" lon="19.73261">
        <ele>1047.9699707031</ele>
        <time>2024-09-23T15:55:12.000Z</time>
      </trkpt>
      <trkpt lat="42.23722" lon="19.73257">
        <ele>1047.0100097656</ele>
        <time>2024-09-23T15:55:13.000Z</time>
      </trkpt>
      <trkpt lat="42.23729" lon="19.73251">
        <ele>1045.5699462891</ele>
        <time>2024-09-23T15:55:14.000Z</time>
      </trkpt>
      <trkpt lat="42.23737" lon="19.73245">
        <ele>1044.6099853516</ele>
        <time>2024-09-23T15:55:15.000Z</time>
      </trkpt>
      <trkpt lat="42.23742" lon="19.7324">
        <ele>1043.1700439453</ele>
        <time>2024-09-23T15:55:16.000Z</time>
      </trkpt>
      <trkpt lat="42.23745" lon="19.73237">
        <ele>1042.6899414062</ele>
        <time>2024-09-23T15:55:17.000Z</time>
      </trkpt>
      <trkpt lat="42.2375" lon="19.73231">
        <ele>1041.7299804688</ele>
        <time>2024-09-23T15:55:18.000Z</time>
      </trkpt>
      <trkpt lat="42.23754" lon="19.73224">
        <ele>1040.7600097656</ele>
        <time>2024-09-23T15:55:19.000Z</time>
      </trkpt>
      <trkpt lat="42.23762" lon="19.73208">
        <ele>1039.3199462891</ele>
        <time>2024-09-23T15:55:21.000Z</time>
      </trkpt>
      <trkpt lat="42.23764" lon="19.73203">
        <ele>1038.8399658203</ele>
        <time>2024-09-23T15:55:22.000Z</time>
      </trkpt>
      <trkpt lat="42.23768" lon="19.73197">
        <ele>1037.8800048828</ele>
        <time>2024-09-23T15:55:23.000Z</time>
      </trkpt>
      <trkpt lat="42.23773" lon="19.7319">
        <ele>1037.4000244141</ele>
        <time>2024-09-23T15:55:24.000Z</time>
      </trkpt>
      <trkpt lat="42.23777" lon="19.73184">
        <ele>1036.9200439453</ele>
        <time>2024-09-23T15:55:25.000Z</time>
      </trkpt>
      <trkpt lat="42.23781" lon="19.73176">
        <ele>1036.9200439453</ele>
        <time>2024-09-23T15:55:26.000Z</time>
      </trkpt>
      <trkpt lat="42.23783" lon="19.73169">
        <ele>1036.4399414062</ele>
        <time>2024-09-23T15:55:27.000Z</time>
      </trkpt>
      <trkpt lat="42.23786" lon="19.73162">
        <ele>1035.9599609375</ele>
        <time>2024-09-23T15:55:28.000Z</time>
      </trkpt>
      <trkpt lat="42.23789" lon="19.73153">
        <ele>1035.9599609375</ele>
        <time>2024-09-23T15:55:29.000Z</time>
      </trkpt>
      <trkpt lat="42.23791" lon="19.73143">
        <ele>1035.4799804688</ele>
        <time>2024-09-23T15:55:30.000Z</time>
      </trkpt>
      <trkpt lat="42.23794" lon="19.73131">
        <ele>1035</ele>
        <time>2024-09-23T15:55:31.000Z</time>
      </trkpt>
      <trkpt lat="42.23795" lon="19.73125">
        <ele>1034.5200195312</ele>
        <time>2024-09-23T15:55:32.000Z</time>
      </trkpt>
      <trkpt lat="42.23796" lon="19.73118">
        <ele>1034.0400390625</ele>
        <time>2024-09-23T15:55:33.000Z</time>
      </trkpt>
      <trkpt lat="42.23795" lon="19.73108">
        <ele>1033.0699462891</ele>
        <time>2024-09-23T15:55:34.000Z</time>
      </trkpt>
      <trkpt lat="42.23792" lon="19.73074">
        <ele>1030.6700439453</ele>
        <time>2024-09-23T15:55:37.000Z</time>
      </trkpt>
      <trkpt lat="42.23792" lon="19.73061">
        <ele>1029.7099609375</ele>
        <time>2024-09-23T15:55:38.000Z</time>
      </trkpt>
      <trkpt lat="42.23792" lon="19.73057">
        <ele>1029.2299804688</ele>
        <time>2024-09-23T15:55:39.000Z</time>
      </trkpt>
      <trkpt lat="42.23796" lon="19.73024">
        <ele>1027.3100585938</ele>
        <time>2024-09-23T15:55:42.000Z</time>
      </trkpt>
      <trkpt lat="42.23799" lon="19.73006">
        <ele>1025.3800048828</ele>
        <time>2024-09-23T15:55:44.000Z</time>
      </trkpt>
      <trkpt lat="42.238" lon="19.73004">
        <ele>1024.9000244141</ele>
        <time>2024-09-23T15:55:45.000Z</time>
      </trkpt>
      <trkpt lat="42.238" lon="19.72997">
        <ele>1023.9400024414</ele>
        <time>2024-09-23T15:55:46.000Z</time>
      </trkpt>
      <trkpt lat="42.238" lon="19.72989">
        <ele>1023.4600219727</ele>
        <time>2024-09-23T15:55:47.000Z</time>
      </trkpt>
      <trkpt lat="42.238" lon="19.72982">
        <ele>1022.5</ele>
        <time>2024-09-23T15:55:48.000Z</time>
      </trkpt>
      <trkpt lat="42.23801" lon="19.72976">
        <ele>1022.0200195312</ele>
        <time>2024-09-23T15:55:49.000Z</time>
      </trkpt>
      <trkpt lat="42.23802" lon="19.72969">
        <ele>1022.0200195312</ele>
        <time>2024-09-23T15:55:50.000Z</time>
      </trkpt>
      <trkpt lat="42.23805" lon="19.72965">
        <ele>1022.0200195312</ele>
        <time>2024-09-23T15:55:51.000Z</time>
      </trkpt>
      <trkpt lat="42.23808" lon="19.72961">
        <ele>1021.5399780273</ele>
        <time>2024-09-23T15:55:52.000Z</time>
      </trkpt>
      <trkpt lat="42.23812" lon="19.7296">
        <ele>1021.0599975586</ele>
        <time>2024-09-23T15:55:53.000Z</time>
      </trkpt>
      <trkpt lat="42.23823" lon="19.72957">
        <ele>1020.0999755859</ele>
        <time>2024-09-23T15:55:55.000Z</time>
      </trkpt>
      <trkpt lat="42.23839" lon="19.72954">
        <ele>1018.1699829102</ele>
        <time>2024-09-23T15:55:57.000Z</time>
      </trkpt>
      <trkpt lat="42.23843" lon="19.72953">
        <ele>1017.6900024414</ele>
        <time>2024-09-23T15:55:58.000Z</time>
      </trkpt>
      <trkpt lat="42.23853" lon="19.72952">
        <ele>1016.25</ele>
        <time>2024-09-23T15:55:59.000Z</time>
      </trkpt>
      <trkpt lat="42.23859" lon="19.72951">
        <ele>1015.7700195312</ele>
        <time>2024-09-23T15:56:00.000Z</time>
      </trkpt>
      <trkpt lat="42.23864" lon="19.7295">
        <ele>1014.8099975586</ele>
        <time>2024-09-23T15:56:01.000Z</time>
      </trkpt>
      <trkpt lat="42.23873" lon="19.72945">
        <ele>1013.8499755859</ele>
        <time>2024-09-23T15:56:02.000Z</time>
      </trkpt>
      <trkpt lat="42.23876" lon="19.72943">
        <ele>1013.8499755859</ele>
        <time>2024-09-23T15:56:03.000Z</time>
      </trkpt>
      <trkpt lat="42.2388" lon="19.72941">
        <ele>1013.3699951172</ele>
        <time>2024-09-23T15:56:04.000Z</time>
      </trkpt>
      <trkpt lat="42.23884" lon="19.72937">
        <ele>1012.8900146484</ele>
        <time>2024-09-23T15:56:05.000Z</time>
      </trkpt>
      <trkpt lat="42.23888" lon="19.72933">
        <ele>1012.4099731445</ele>
        <time>2024-09-23T15:56:06.000Z</time>
      </trkpt>
      <trkpt lat="42.23891" lon="19.72927">
        <ele>1012.4099731445</ele>
        <time>2024-09-23T15:56:07.000Z</time>
      </trkpt>
      <trkpt lat="42.23903" lon="19.72897">
        <ele>1010.9600219727</ele>
        <time>2024-09-23T15:56:14.000Z</time>
      </trkpt>
      <trkpt lat="42.23906" lon="19.7289">
        <ele>1010</ele>
        <time>2024-09-23T15:56:15.000Z</time>
      </trkpt>
      <trkpt lat="42.23908" lon="19.72884">
        <ele>1009.5200195312</ele>
        <time>2024-09-23T15:56:16.000Z</time>
      </trkpt>
      <trkpt lat="42.2391" lon="19.7288">
        <ele>1009.0399780273</ele>
        <time>2024-09-23T15:56:17.000Z</time>
      </trkpt>
      <trkpt lat="42.23913" lon="19.72875">
        <ele>1009.0399780273</ele>
        <time>2024-09-23T15:56:18.000Z</time>
      </trkpt>
      <trkpt lat="42.23916" lon="19.72871">
        <ele>1008.5599975586</ele>
        <time>2024-09-23T15:56:19.000Z</time>
      </trkpt>
      <trkpt lat="42.2392" lon="19.72868">
        <ele>1008.0800170898</ele>
        <time>2024-09-23T15:56:20.000Z</time>
      </trkpt>
      <trkpt lat="42.23929" lon="19.72863">
        <ele>1007.1199951172</ele>
        <time>2024-09-23T15:56:21.000Z</time>
      </trkpt>
      <trkpt lat="42.23934" lon="19.7286">
        <ele>1007.1199951172</ele>
        <time>2024-09-23T15:56:22.000Z</time>
      </trkpt>
      <trkpt lat="42.23942" lon="19.72855">
        <ele>1006.6400146484</ele>
        <time>2024-09-23T15:56:23.000Z</time>
      </trkpt>
      <trkpt lat="42.23953" lon="19.72846">
        <ele>1005.6799926758</ele>
        <time>2024-09-23T15:56:25.000Z</time>
      </trkpt>
      <trkpt lat="42.23957" lon="19.72844">
        <ele>1005.200012207</ele>
        <time>2024-09-23T15:56:26.000Z</time>
      </trkpt>
      <trkpt lat="42.23965" lon="19.72841">
        <ele>1004.2299804688</ele>
        <time>2024-09-23T15:56:27.000Z</time>
      </trkpt>
      <trkpt lat="42.23975" lon="19.7284">
        <ele>1003.2700195312</ele>
        <time>2024-09-23T15:56:28.000Z</time>
      </trkpt>
      <trkpt lat="42.23987" lon="19.72838">
        <ele>1002.3099975586</ele>
        <time>2024-09-23T15:56:29.000Z</time>
      </trkpt>
      <trkpt lat="42.24002" lon="19.72837">
        <ele>1001.3499755859</ele>
        <time>2024-09-23T15:56:31.000Z</time>
      </trkpt>
      <trkpt lat="42.24014" lon="19.72834">
        <ele>1000.3900146484</ele>
        <time>2024-09-23T15:56:32.000Z</time>
      </trkpt>
      <trkpt lat="42.24017" lon="19.72834">
        <ele>1000.3900146484</ele>
        <time>2024-09-23T15:56:33.000Z</time>
      </trkpt>
      <trkpt lat="42.24022" lon="19.72832">
        <ele>999.90997314453</ele>
        <time>2024-09-23T15:56:34.000Z</time>
      </trkpt>
      <trkpt lat="42.24027" lon="19.72829">
        <ele>998.95001220703</ele>
        <time>2024-09-23T15:56:35.000Z</time>
      </trkpt>
      <trkpt lat="42.24032" lon="19.72823">
        <ele>998.46997070312</ele>
        <time>2024-09-23T15:56:36.000Z</time>
      </trkpt>
      <trkpt lat="42.24038" lon="19.72816">
        <ele>998.46997070312</ele>
        <time>2024-09-23T15:56:37.000Z</time>
      </trkpt>
      <trkpt lat="42.24044" lon="19.72806">
        <ele>997.51000976562</ele>
        <time>2024-09-23T15:56:38.000Z</time>
      </trkpt>
      <trkpt lat="42.2405" lon="19.72799">
        <ele>997.02001953125</ele>
        <time>2024-09-23T15:56:39.000Z</time>
      </trkpt>
      <trkpt lat="42.24057" lon="19.72791">
        <ele>996.53997802734</ele>
        <time>2024-09-23T15:56:40.000Z</time>
      </trkpt>
      <trkpt lat="42.24066" lon="19.72778">
        <ele>996.53997802734</ele>
        <time>2024-09-23T15:56:41.000Z</time>
      </trkpt>
      <trkpt lat="42.24069" lon="19.72776">
        <ele>996.53997802734</ele>
        <time>2024-09-23T15:56:42.000Z</time>
      </trkpt>
      <trkpt lat="42.24074" lon="19.72772">
        <ele>996.53997802734</ele>
        <time>2024-09-23T15:56:43.000Z</time>
      </trkpt>
      <trkpt lat="42.24084" lon="19.72767">
        <ele>996.53997802734</ele>
        <time>2024-09-23T15:56:44.000Z</time>
      </trkpt>
      <trkpt lat="42.2409" lon="19.72764">
        <ele>996.05999755859</ele>
        <time>2024-09-23T15:56:45.000Z</time>
      </trkpt>
      <trkpt lat="42.24107" lon="19.72754">
        <ele>995.09997558594</ele>
        <time>2024-09-23T15:56:47.000Z</time>
      </trkpt>
      <trkpt lat="42.24108" lon="19.72753">
        <ele>994.61999511719</ele>
        <time>2024-09-23T15:56:48.000Z</time>
      </trkpt>
      <trkpt lat="42.24114" lon="19.72748">
        <ele>993.65997314453</ele>
        <time>2024-09-23T15:56:49.000Z</time>
      </trkpt>
      <trkpt lat="42.24119" lon="19.72742">
        <ele>993.17999267578</ele>
        <time>2024-09-23T15:56:50.000Z</time>
      </trkpt>
      <trkpt lat="42.24122" lon="19.72733">
        <ele>992.70001220703</ele>
        <time>2024-09-23T15:56:51.000Z</time>
      </trkpt>
      <trkpt lat="42.24123" lon="19.72725">
        <ele>992.21997070312</ele>
        <time>2024-09-23T15:56:52.000Z</time>
      </trkpt>
      <trkpt lat="42.24123" lon="19.72714">
        <ele>992.21997070312</ele>
        <time>2024-09-23T15:56:53.000Z</time>
      </trkpt>
      <trkpt lat="42.24122" lon="19.72707">
        <ele>992.21997070312</ele>
        <time>2024-09-23T15:56:54.000Z</time>
      </trkpt>
      <trkpt lat="42.2412" lon="19.72692">
        <ele>992.21997070312</ele>
        <time>2024-09-23T15:56:55.000Z</time>
      </trkpt>
      <trkpt lat="42.2412" lon="19.72691">
        <ele>992.21997070312</ele>
        <time>2024-09-23T15:56:56.000Z</time>
      </trkpt>
      <trkpt lat="42.2412" lon="19.72683">
        <ele>991.73999023438</ele>
        <time>2024-09-23T15:56:57.000Z</time>
      </trkpt>
      <trkpt lat="42.24122" lon="19.72676">
        <ele>992.21997070312</ele>
        <time>2024-09-23T15:56:58.000Z</time>
      </trkpt>
      <trkpt lat="42.24124" lon="19.72668">
        <ele>991.73999023438</ele>
        <time>2024-09-23T15:56:59.000Z</time>
      </trkpt>
      <trkpt lat="42.24125" lon="19.7266">
        <ele>991.26000976562</ele>
        <time>2024-09-23T15:57:00.000Z</time>
      </trkpt>
      <trkpt lat="42.24127" lon="19.72649">
        <ele>989.80999755859</ele>
        <time>2024-09-23T15:57:01.000Z</time>
      </trkpt>
      <trkpt lat="42.24129" lon="19.72634">
        <ele>989.33001708984</ele>
        <time>2024-09-23T15:57:02.000Z</time>
      </trkpt>
      <trkpt lat="42.24129" lon="19.72625">
        <ele>988.84997558594</ele>
        <time>2024-09-23T15:57:03.000Z</time>
      </trkpt>
      <trkpt lat="42.2413" lon="19.72612">
        <ele>988.36999511719</ele>
        <time>2024-09-23T15:57:04.000Z</time>
      </trkpt>
      <trkpt lat="42.2413" lon="19.72604">
        <ele>988.36999511719</ele>
        <time>2024-09-23T15:57:05.000Z</time>
      </trkpt>
      <trkpt lat="42.24132" lon="19.72593">
        <ele>987.89001464844</ele>
        <time>2024-09-23T15:57:06.000Z</time>
      </trkpt>
      <trkpt lat="42.24135" lon="19.72583">
        <ele>987.40997314453</ele>
        <time>2024-09-23T15:57:07.000Z</time>
      </trkpt>
      <trkpt lat="42.2414" lon="19.72574">
        <ele>986.92999267578</ele>
        <time>2024-09-23T15:57:08.000Z</time>
      </trkpt>
      <trkpt lat="42.24148" lon="19.72565">
        <ele>985.96997070312</ele>
        <time>2024-09-23T15:57:09.000Z</time>
      </trkpt>
      <trkpt lat="42.24153" lon="19.72559">
        <ele>985.96997070312</ele>
        <time>2024-09-23T15:57:10.000Z</time>
      </trkpt>
      <trkpt lat="42.24157" lon="19.72552">
        <ele>985.48999023438</ele>
        <time>2024-09-23T15:57:11.000Z</time>
      </trkpt>
      <trkpt lat="42.24159" lon="19.72546">
        <ele>985.48999023438</ele>
        <time>2024-09-23T15:57:12.000Z</time>
      </trkpt>
      <trkpt lat="42.24159" lon="19.72539">
        <ele>985.01000976562</ele>
        <time>2024-09-23T15:57:13.000Z</time>
      </trkpt>
      <trkpt lat="42.24157" lon="19.72532">
        <ele>984.53002929688</ele>
        <time>2024-09-23T15:57:14.000Z</time>
      </trkpt>
      <trkpt lat="42.24155" lon="19.72524">
        <ele>984.04998779297</ele>
        <time>2024-09-23T15:57:15.000Z</time>
      </trkpt>
      <trkpt lat="42.24153" lon="19.72517">
        <ele>984.04998779297</ele>
        <time>2024-09-23T15:57:16.000Z</time>
      </trkpt>
      <trkpt lat="42.24151" lon="19.72507">
        <ele>983.57000732422</ele>
        <time>2024-09-23T15:57:17.000Z</time>
      </trkpt>
      <trkpt lat="42.24149" lon="19.72497">
        <ele>983.57000732422</ele>
        <time>2024-09-23T15:57:18.000Z</time>
      </trkpt>
      <trkpt lat="42.24148" lon="19.72491">
        <ele>983.57000732422</ele>
        <time>2024-09-23T15:57:19.000Z</time>
      </trkpt>
      <trkpt lat="42.24136" lon="19.72443">
        <ele>980.20001220703</ele>
        <time>2024-09-23T15:57:23.000Z</time>
      </trkpt>
      <trkpt lat="42.24134" lon="19.72437">
        <ele>979.23999023438</ele>
        <time>2024-09-23T15:57:24.000Z</time>
      </trkpt>
      <trkpt lat="42.24131" lon="19.72424">
        <ele>978.28002929688</ele>
        <time>2024-09-23T15:57:25.000Z</time>
      </trkpt>
      <trkpt lat="42.2413" lon="19.72417">
        <ele>977.79998779297</ele>
        <time>2024-09-23T15:57:26.000Z</time>
      </trkpt>
      <trkpt lat="42.24131" lon="19.72408">
        <ele>977.79998779297</ele>
        <time>2024-09-23T15:57:27.000Z</time>
      </trkpt>
      <trkpt lat="42.24133" lon="19.724">
        <ele>977.32000732422</ele>
        <time>2024-09-23T15:57:28.000Z</time>
      </trkpt>
      <trkpt lat="42.24137" lon="19.72394">
        <ele>977.32000732422</ele>
        <time>2024-09-23T15:57:29.000Z</time>
      </trkpt>
      <trkpt lat="42.24142" lon="19.72389">
        <ele>976.84002685547</ele>
        <time>2024-09-23T15:57:30.000Z</time>
      </trkpt>
      <trkpt lat="42.24146" lon="19.72384">
        <ele>976.35998535156</ele>
        <time>2024-09-23T15:57:31.000Z</time>
      </trkpt>
      <trkpt lat="42.24149" lon="19.72378">
        <ele>975.88000488281</ele>
        <time>2024-09-23T15:57:32.000Z</time>
      </trkpt>
      <trkpt lat="42.2415" lon="19.72372">
        <ele>975.39001464844</ele>
        <time>2024-09-23T15:57:33.000Z</time>
      </trkpt>
      <trkpt lat="42.2415" lon="19.72364">
        <ele>974.42999267578</ele>
        <time>2024-09-23T15:57:34.000Z</time>
      </trkpt>
      <trkpt lat="42.24149" lon="19.72352">
        <ele>973.46997070312</ele>
        <time>2024-09-23T15:57:35.000Z</time>
      </trkpt>
      <trkpt lat="42.2415" lon="19.72344">
        <ele>972.51000976562</ele>
        <time>2024-09-23T15:57:36.000Z</time>
      </trkpt>
      <trkpt lat="42.2415" lon="19.72334">
        <ele>971.54998779297</ele>
        <time>2024-09-23T15:57:37.000Z</time>
      </trkpt>
      <trkpt lat="42.24149" lon="19.72324">
        <ele>970.59002685547</ele>
        <time>2024-09-23T15:57:38.000Z</time>
      </trkpt>
      <trkpt lat="42.24146" lon="19.72312">
        <ele>969.63000488281</ele>
        <time>2024-09-23T15:57:39.000Z</time>
      </trkpt>
      <trkpt lat="42.24145" lon="19.72303">
        <ele>969.15002441406</ele>
        <time>2024-09-23T15:57:40.000Z</time>
      </trkpt>
      <trkpt lat="42.24144" lon="19.72295">
        <ele>968.17999267578</ele>
        <time>2024-09-23T15:57:41.000Z</time>
      </trkpt>
      <trkpt lat="42.24143" lon="19.72285">
        <ele>967.21997070312</ele>
        <time>2024-09-23T15:57:42.000Z</time>
      </trkpt>
      <trkpt lat="42.24143" lon="19.72279">
        <ele>966.73999023438</ele>
        <time>2024-09-23T15:57:43.000Z</time>
      </trkpt>
      <trkpt lat="42.24144" lon="19.72273">
        <ele>966.26000976562</ele>
        <time>2024-09-23T15:57:44.000Z</time>
      </trkpt>
      <trkpt lat="42.24144" lon="19.72266">
        <ele>965.29998779297</ele>
        <time>2024-09-23T15:57:45.000Z</time>
      </trkpt>
      <trkpt lat="42.24146" lon="19.7226">
        <ele>964.34002685547</ele>
        <time>2024-09-23T15:57:46.000Z</time>
      </trkpt>
      <trkpt lat="42.2415" lon="19.72254">
        <ele>963.85998535156</ele>
        <time>2024-09-23T15:57:47.000Z</time>
      </trkpt>
      <trkpt lat="42.24152" lon="19.7225">
        <ele>963.38000488281</ele>
        <time>2024-09-23T15:57:48.000Z</time>
      </trkpt>
      <trkpt lat="42.24153" lon="19.72245">
        <ele>962.41998291016</ele>
        <time>2024-09-23T15:57:49.000Z</time>
      </trkpt>
      <trkpt lat="42.24145" lon="19.72236">
        <ele>961.94000244141</ele>
        <time>2024-09-23T15:57:52.000Z</time>
      </trkpt>
      <trkpt lat="42.2414" lon="19.72238">
        <ele>961.46002197266</ele>
        <time>2024-09-23T15:57:53.000Z</time>
      </trkpt>
      <trkpt lat="42.24135" lon="19.72241">
        <ele>960.97998046875</ele>
        <time>2024-09-23T15:57:54.000Z</time>
      </trkpt>
      <trkpt lat="42.2413" lon="19.72246">
        <ele>960.48999023438</ele>
        <time>2024-09-23T15:57:55.000Z</time>
      </trkpt>
      <trkpt lat="42.24126" lon="19.72249">
        <ele>960.48999023438</ele>
        <time>2024-09-23T15:57:56.000Z</time>
      </trkpt>
      <trkpt lat="42.2412" lon="19.7225">
        <ele>960.48999023438</ele>
        <time>2024-09-23T15:57:57.000Z</time>
      </trkpt>
      <trkpt lat="42.24115" lon="19.72249">
        <ele>960.01000976562</ele>
        <time>2024-09-23T15:57:58.000Z</time>
      </trkpt>
      <trkpt lat="42.2411" lon="19.72245">
        <ele>959.53002929688</ele>
        <time>2024-09-23T15:57:59.000Z</time>
      </trkpt>
      <trkpt lat="42.24104" lon="19.72238">
        <ele>958.57000732422</ele>
        <time>2024-09-23T15:58:00.000Z</time>
      </trkpt>
      <trkpt lat="42.241" lon="19.7223">
        <ele>957.60998535156</ele>
        <time>2024-09-23T15:58:01.000Z</time>
      </trkpt>
      <trkpt lat="42.24098" lon="19.7222">
        <ele>957.13000488281</ele>
        <time>2024-09-23T15:58:02.000Z</time>
      </trkpt>
      <trkpt lat="42.24097" lon="19.72211">
        <ele>956.65002441406</ele>
        <time>2024-09-23T15:58:03.000Z</time>
      </trkpt>
      <trkpt lat="42.24098" lon="19.72202">
        <ele>956.16998291016</ele>
        <time>2024-09-23T15:58:04.000Z</time>
      </trkpt>
      <trkpt lat="42.24101" lon="19.72196">
        <ele>955.69000244141</ele>
        <time>2024-09-23T15:58:05.000Z</time>
      </trkpt>
      <trkpt lat="42.24105" lon="19.72192">
        <ele>955.21002197266</ele>
        <time>2024-09-23T15:58:06.000Z</time>
      </trkpt>
      <trkpt lat="42.24112" lon="19.7219">
        <ele>954.72998046875</ele>
        <time>2024-09-23T15:58:07.000Z</time>
      </trkpt>
      <trkpt lat="42.24122" lon="19.72189">
        <ele>953.77001953125</ele>
        <time>2024-09-23T15:58:08.000Z</time>
      </trkpt>
      <trkpt lat="42.24126" lon="19.72188">
        <ele>952.79998779297</ele>
        <time>2024-09-23T15:58:09.000Z</time>
      </trkpt>
      <trkpt lat="42.24133" lon="19.72184">
        <ele>951.84002685547</ele>
        <time>2024-09-23T15:58:10.000Z</time>
      </trkpt>
      <trkpt lat="42.24139" lon="19.72178">
        <ele>951.35998535156</ele>
        <time>2024-09-23T15:58:11.000Z</time>
      </trkpt>
      <trkpt lat="42.24143" lon="19.72172">
        <ele>950.88000488281</ele>
        <time>2024-09-23T15:58:12.000Z</time>
      </trkpt>
      <trkpt lat="42.24146" lon="19.72165">
        <ele>950.40002441406</ele>
        <time>2024-09-23T15:58:13.000Z</time>
      </trkpt>
      <trkpt lat="42.2415" lon="19.72153">
        <ele>949.44000244141</ele>
        <time>2024-09-23T15:58:14.000Z</time>
      </trkpt>
      <trkpt lat="42.24154" lon="19.72143">
        <ele>948.47998046875</ele>
        <time>2024-09-23T15:58:15.000Z</time>
      </trkpt>
      <trkpt lat="42.24156" lon="19.7214">
        <ele>948</ele>
        <time>2024-09-23T15:58:16.000Z</time>
      </trkpt>
      <trkpt lat="42.2416" lon="19.72132">
        <ele>947.52001953125</ele>
        <time>2024-09-23T15:58:17.000Z</time>
      </trkpt>
      <trkpt lat="42.24171" lon="19.72113">
        <ele>945.10998535156</ele>
        <time>2024-09-23T15:58:19.000Z</time>
      </trkpt>
      <trkpt lat="42.24178" lon="19.72102">
        <ele>944.15002441406</ele>
        <time>2024-09-23T15:58:20.000Z</time>
      </trkpt>
      <trkpt lat="42.2418" lon="19.72098">
        <ele>943.66998291016</ele>
        <time>2024-09-23T15:58:21.000Z</time>
      </trkpt>
      <trkpt lat="42.24189" lon="19.72086">
        <ele>942.22998046875</ele>
        <time>2024-09-23T15:58:22.000Z</time>
      </trkpt>
      <trkpt lat="42.24192" lon="19.72082">
        <ele>941.75</ele>
        <time>2024-09-23T15:58:23.000Z</time>
      </trkpt>
      <trkpt lat="42.24197" lon="19.72076">
        <ele>940.78997802734</ele>
        <time>2024-09-23T15:58:24.000Z</time>
      </trkpt>
      <trkpt lat="42.24204" lon="19.72069">
        <ele>940.30999755859</ele>
        <time>2024-09-23T15:58:25.000Z</time>
      </trkpt>
      <trkpt lat="42.24211" lon="19.72061">
        <ele>939.83001708984</ele>
        <time>2024-09-23T15:58:26.000Z</time>
      </trkpt>
      <trkpt lat="42.24217" lon="19.72057">
        <ele>939.34997558594</ele>
        <time>2024-09-23T15:58:27.000Z</time>
      </trkpt>
      <trkpt lat="42.2423" lon="19.72049">
        <ele>937.90002441406</ele>
        <time>2024-09-23T15:58:29.000Z</time>
      </trkpt>
      <trkpt lat="42.2424" lon="19.7204">
        <ele>936.94000244141</ele>
        <time>2024-09-23T15:58:30.000Z</time>
      </trkpt>
      <trkpt lat="42.24248" lon="19.72034">
        <ele>935.5</ele>
        <time>2024-09-23T15:58:32.000Z</time>
      </trkpt>
      <trkpt lat="42.24256" lon="19.72028">
        <ele>934.53997802734</ele>
        <time>2024-09-23T15:58:34.000Z</time>
      </trkpt>
      <trkpt lat="42.24258" lon="19.72026">
        <ele>934.53997802734</ele>
        <time>2024-09-23T15:58:35.000Z</time>
      </trkpt>
      <trkpt lat="42.2426" lon="19.7202">
        <ele>934.05999755859</ele>
        <time>2024-09-23T15:58:36.000Z</time>
      </trkpt>
      <trkpt lat="42.24261" lon="19.72014">
        <ele>934.05999755859</ele>
        <time>2024-09-23T15:58:37.000Z</time>
      </trkpt>
      <trkpt lat="42.24263" lon="19.72005">
        <ele>933.58001708984</ele>
        <time>2024-09-23T15:58:38.000Z</time>
      </trkpt>
      <trkpt lat="42.24264" lon="19.71999">
        <ele>933.58001708984</ele>
        <time>2024-09-23T15:58:39.000Z</time>
      </trkpt>
      <trkpt lat="42.24267" lon="19.71993">
        <ele>933.58001708984</ele>
        <time>2024-09-23T15:58:40.000Z</time>
      </trkpt>
      <trkpt lat="42.24271" lon="19.71989">
        <ele>933.09997558594</ele>
        <time>2024-09-23T15:58:41.000Z</time>
      </trkpt>
      <trkpt lat="42.24275" lon="19.71986">
        <ele>932.14001464844</ele>
        <time>2024-09-23T15:58:42.000Z</time>
      </trkpt>
      <trkpt lat="42.24279" lon="19.71984">
        <ele>931.65002441406</ele>
        <time>2024-09-23T15:58:43.000Z</time>
      </trkpt>
      <trkpt lat="42.24284" lon="19.71983">
        <ele>931.16998291016</ele>
        <time>2024-09-23T15:58:44.000Z</time>
      </trkpt>
      <trkpt lat="42.2429" lon="19.71983">
        <ele>930.69000244141</ele>
        <time>2024-09-23T15:58:45.000Z</time>
      </trkpt>
      <trkpt lat="42.24299" lon="19.71984">
        <ele>929.72998046875</ele>
        <time>2024-09-23T15:58:46.000Z</time>
      </trkpt>
      <trkpt lat="42.24311" lon="19.71985">
        <ele>928.77001953125</ele>
        <time>2024-09-23T15:58:47.000Z</time>
      </trkpt>
      <trkpt lat="42.24314" lon="19.71985">
        <ele>928.28997802734</ele>
        <time>2024-09-23T15:58:48.000Z</time>
      </trkpt>
      <trkpt lat="42.24324" lon="19.71987">
        <ele>927.33001708984</ele>
        <time>2024-09-23T15:58:49.000Z</time>
      </trkpt>
      <trkpt lat="42.24334" lon="19.71989">
        <ele>926.36999511719</ele>
        <time>2024-09-23T15:58:50.000Z</time>
      </trkpt>
      <trkpt lat="42.24343" lon="19.7199">
        <ele>925.89001464844</ele>
        <time>2024-09-23T15:58:51.000Z</time>
      </trkpt>
      <trkpt lat="42.24353" lon="19.71991">
        <ele>924.92999267578</ele>
        <time>2024-09-23T15:58:52.000Z</time>
      </trkpt>
      <trkpt lat="42.24358" lon="19.71991">
        <ele>924.92999267578</ele>
        <time>2024-09-23T15:58:53.000Z</time>
      </trkpt>
      <trkpt lat="42.24364" lon="19.71987">
        <ele>923.96002197266</ele>
        <time>2024-09-23T15:58:54.000Z</time>
      </trkpt>
      <trkpt lat="42.24369" lon="19.71982">
        <ele>923.96002197266</ele>
        <time>2024-09-23T15:58:55.000Z</time>
      </trkpt>
      <trkpt lat="42.24376" lon="19.71971">
        <ele>923.96002197266</ele>
        <time>2024-09-23T15:58:56.000Z</time>
      </trkpt>
      <trkpt lat="42.24378" lon="19.71966">
        <ele>923.96002197266</ele>
        <time>2024-09-23T15:58:57.000Z</time>
      </trkpt>
      <trkpt lat="42.24381" lon="19.7196">
        <ele>923.96002197266</ele>
        <time>2024-09-23T15:58:58.000Z</time>
      </trkpt>
      <trkpt lat="42.24383" lon="19.71948">
        <ele>922.52001953125</ele>
        <time>2024-09-23T15:58:59.000Z</time>
      </trkpt>
      <trkpt lat="42.24386" lon="19.71939">
        <ele>922.03997802734</ele>
        <time>2024-09-23T15:59:00.000Z</time>
      </trkpt>
      <trkpt lat="42.24387" lon="19.71933">
        <ele>921.55999755859</ele>
        <time>2024-09-23T15:59:01.000Z</time>
      </trkpt>
      <trkpt lat="42.24389" lon="19.71924">
        <ele>921.55999755859</ele>
        <time>2024-09-23T15:59:02.000Z</time>
      </trkpt>
      <trkpt lat="42.2439" lon="19.71918">
        <ele>921.08001708984</ele>
        <time>2024-09-23T15:59:03.000Z</time>
      </trkpt>
      <trkpt lat="42.24388" lon="19.71913">
        <ele>920.11999511719</ele>
        <time>2024-09-23T15:59:04.000Z</time>
      </trkpt>
      <trkpt lat="42.24385" lon="19.7191">
        <ele>919.64001464844</ele>
        <time>2024-09-23T15:59:05.000Z</time>
      </trkpt>
      <trkpt lat="42.24376" lon="19.71914">
        <ele>918.20001220703</ele>
        <time>2024-09-23T15:59:07.000Z</time>
      </trkpt>
      <trkpt lat="42.24373" lon="19.71918">
        <ele>917.71997070312</ele>
        <time>2024-09-23T15:59:08.000Z</time>
      </trkpt>
      <trkpt lat="42.24367" lon="19.71931">
        <ele>916.75</ele>
        <time>2024-09-23T15:59:10.000Z</time>
      </trkpt>
      <trkpt lat="42.24356" lon="19.71959">
        <ele>917.23999023438</ele>
        <time>2024-09-23T15:59:16.000Z</time>
      </trkpt>
      <trkpt lat="42.24356" lon="19.7196">
        <ele>917.23999023438</ele>
        <time>2024-09-23T15:59:17.000Z</time>
      </trkpt>
      <trkpt lat="42.24353" lon="19.71963">
        <ele>917.23999023438</ele>
        <time>2024-09-23T15:59:18.000Z</time>
      </trkpt>
      <trkpt lat="42.24349" lon="19.71965">
        <ele>916.75</ele>
        <time>2024-09-23T15:59:19.000Z</time>
      </trkpt>
      <trkpt lat="42.24344" lon="19.71966">
        <ele>916.75</ele>
        <time>2024-09-23T15:59:20.000Z</time>
      </trkpt>
      <trkpt lat="42.24339" lon="19.71965">
        <ele>916.27001953125</ele>
        <time>2024-09-23T15:59:21.000Z</time>
      </trkpt>
      <trkpt lat="42.24333" lon="19.71961">
        <ele>915.78997802734</ele>
        <time>2024-09-23T15:59:22.000Z</time>
      </trkpt>
      <trkpt lat="42.24327" lon="19.71958">
        <ele>915.30999755859</ele>
        <time>2024-09-23T15:59:23.000Z</time>
      </trkpt>
      <trkpt lat="42.2432" lon="19.71954">
        <ele>915.30999755859</ele>
        <time>2024-09-23T15:59:24.000Z</time>
      </trkpt>
      <trkpt lat="42.24313" lon="19.71951">
        <ele>914.83001708984</ele>
        <time>2024-09-23T15:59:25.000Z</time>
      </trkpt>
      <trkpt lat="42.24296" lon="19.71943">
        <ele>913.86999511719</ele>
        <time>2024-09-23T15:59:27.000Z</time>
      </trkpt>
      <trkpt lat="42.24289" lon="19.71939">
        <ele>912.90997314453</ele>
        <time>2024-09-23T15:59:28.000Z</time>
      </trkpt>
      <trkpt lat="42.2428" lon="19.71935">
        <ele>911.46997070312</ele>
        <time>2024-09-23T15:59:29.000Z</time>
      </trkpt>
      <trkpt lat="42.24269" lon="19.7193">
        <ele>909.53997802734</ele>
        <time>2024-09-23T15:59:30.000Z</time>
      </trkpt>
      <trkpt lat="42.24263" lon="19.71927">
        <ele>909.05999755859</ele>
        <time>2024-09-23T15:59:31.000Z</time>
      </trkpt>
      <trkpt lat="42.24258" lon="19.71925">
        <ele>908.58001708984</ele>
        <time>2024-09-23T15:59:32.000Z</time>
      </trkpt>
      <trkpt lat="42.24253" lon="19.71922">
        <ele>907.61999511719</ele>
        <time>2024-09-23T15:59:33.000Z</time>
      </trkpt>
      <trkpt lat="42.24258" lon="19.71909">
        <ele>901.84997558594</ele>
        <time>2024-09-23T15:59:38.000Z</time>
      </trkpt>
      <trkpt lat="42.24259" lon="19.71909">
        <ele>901.36999511719</ele>
        <time>2024-09-23T15:59:39.000Z</time>
      </trkpt>
      <trkpt lat="42.24265" lon="19.71912">
        <ele>900.40997314453</ele>
        <time>2024-09-23T15:59:40.000Z</time>
      </trkpt>
      <trkpt lat="42.2427" lon="19.71914">
        <ele>898.96997070312</ele>
        <time>2024-09-23T15:59:41.000Z</time>
      </trkpt>
      <trkpt lat="42.24276" lon="19.71916">
        <ele>898.01000976562</ele>
        <time>2024-09-23T15:59:42.000Z</time>
      </trkpt>
      <trkpt lat="42.24282" lon="19.71918">
        <ele>896.57000732422</ele>
        <time>2024-09-23T15:59:43.000Z</time>
      </trkpt>
      <trkpt lat="42.24288" lon="19.71918">
        <ele>895.60998535156</ele>
        <time>2024-09-23T15:59:44.000Z</time>
      </trkpt>
      <trkpt lat="42.24294" lon="19.71916">
        <ele>894.64001464844</ele>
        <time>2024-09-23T15:59:45.000Z</time>
      </trkpt>
      <trkpt lat="42.24298" lon="19.71912">
        <ele>893.67999267578</ele>
        <time>2024-09-23T15:59:46.000Z</time>
      </trkpt>
      <trkpt lat="42.24302" lon="19.71906">
        <ele>893.20001220703</ele>
        <time>2024-09-23T15:59:47.000Z</time>
      </trkpt>
      <trkpt lat="42.24307" lon="19.71898">
        <ele>892.71997070312</ele>
        <time>2024-09-23T15:59:48.000Z</time>
      </trkpt>
      <trkpt lat="42.24309" lon="19.71893">
        <ele>892.71997070312</ele>
        <time>2024-09-23T15:59:49.000Z</time>
      </trkpt>
      <trkpt lat="42.24314" lon="19.71886">
        <ele>893.20001220703</ele>
        <time>2024-09-23T15:59:50.000Z</time>
      </trkpt>
      <trkpt lat="42.24319" lon="19.71879">
        <ele>894.15997314453</ele>
        <time>2024-09-23T15:59:51.000Z</time>
      </trkpt>
      <trkpt lat="42.24323" lon="19.71875">
        <ele>894.15997314453</ele>
        <time>2024-09-23T15:59:52.000Z</time>
      </trkpt>
      <trkpt lat="42.24327" lon="19.7187">
        <ele>894.15997314453</ele>
        <time>2024-09-23T15:59:53.000Z</time>
      </trkpt>
      <trkpt lat="42.24331" lon="19.71869">
        <ele>893.67999267578</ele>
        <time>2024-09-23T15:59:54.000Z</time>
      </trkpt>
      <trkpt lat="42.24337" lon="19.71868">
        <ele>893.67999267578</ele>
        <time>2024-09-23T15:59:55.000Z</time>
      </trkpt>
      <trkpt lat="42.24342" lon="19.71869">
        <ele>893.20001220703</ele>
        <time>2024-09-23T15:59:56.000Z</time>
      </trkpt>
      <trkpt lat="42.24347" lon="19.71869">
        <ele>892.71997070312</ele>
        <time>2024-09-23T15:59:57.000Z</time>
      </trkpt>
      <trkpt lat="42.24352" lon="19.71867">
        <ele>891.76000976562</ele>
        <time>2024-09-23T15:59:58.000Z</time>
      </trkpt>
      <trkpt lat="42.24355" lon="19.71863">
        <ele>891.28002929688</ele>
        <time>2024-09-23T15:59:59.000Z</time>
      </trkpt>
      <trkpt lat="42.24357" lon="19.71858">
        <ele>891.28002929688</ele>
        <time>2024-09-23T16:00:00.000Z</time>
      </trkpt>
      <trkpt lat="42.24356" lon="19.71852">
        <ele>890.79998779297</ele>
        <time>2024-09-23T16:00:01.000Z</time>
      </trkpt>
      <trkpt lat="42.24354" lon="19.71847">
        <ele>890.32000732422</ele>
        <time>2024-09-23T16:00:02.000Z</time>
      </trkpt>
      <trkpt lat="42.2435" lon="19.71841">
        <ele>889.84002685547</ele>
        <time>2024-09-23T16:00:03.000Z</time>
      </trkpt>
      <trkpt lat="42.24344" lon="19.71837">
        <ele>888.88000488281</ele>
        <time>2024-09-23T16:00:04.000Z</time>
      </trkpt>
      <trkpt lat="42.2434" lon="19.71832">
        <ele>887.90997314453</ele>
        <time>2024-09-23T16:00:05.000Z</time>
      </trkpt>
      <trkpt lat="42.24336" lon="19.71827">
        <ele>886.95001220703</ele>
        <time>2024-09-23T16:00:06.000Z</time>
      </trkpt>
      <trkpt lat="42.24335" lon="19.71822">
        <ele>886.46997070312</ele>
        <time>2024-09-23T16:00:07.000Z</time>
      </trkpt>
      <trkpt lat="42.2434" lon="19.71812">
        <ele>884.54998779297</ele>
        <time>2024-09-23T16:00:09.000Z</time>
      </trkpt>
      <trkpt lat="42.24343" lon="19.7181">
        <ele>883.59002685547</ele>
        <time>2024-09-23T16:00:10.000Z</time>
      </trkpt>
      <trkpt lat="42.24347" lon="19.71807">
        <ele>883.10998535156</ele>
        <time>2024-09-23T16:00:11.000Z</time>
      </trkpt>
      <trkpt lat="42.2435" lon="19.71803">
        <ele>882.63000488281</ele>
        <time>2024-09-23T16:00:12.000Z</time>
      </trkpt>
      <trkpt lat="42.24351" lon="19.71796">
        <ele>882.63000488281</ele>
        <time>2024-09-23T16:00:13.000Z</time>
      </trkpt>
      <trkpt lat="42.2435" lon="19.7179">
        <ele>882.63000488281</ele>
        <time>2024-09-23T16:00:14.000Z</time>
      </trkpt>
      <trkpt lat="42.24348" lon="19.71783">
        <ele>882.15002441406</ele>
        <time>2024-09-23T16:00:15.000Z</time>
      </trkpt>
      <trkpt lat="42.24344" lon="19.71775">
        <ele>881.66998291016</ele>
        <time>2024-09-23T16:00:16.000Z</time>
      </trkpt>
      <trkpt lat="42.2434" lon="19.71766">
        <ele>881.19000244141</ele>
        <time>2024-09-23T16:00:17.000Z</time>
      </trkpt>
      <trkpt lat="42.24337" lon="19.71754">
        <ele>880.71002197266</ele>
        <time>2024-09-23T16:00:18.000Z</time>
      </trkpt>
      <trkpt lat="42.24334" lon="19.71736">
        <ele>880.21997070312</ele>
        <time>2024-09-23T16:00:19.000Z</time>
      </trkpt>
      <trkpt lat="42.24333" lon="19.71724">
        <ele>879.73999023438</ele>
        <time>2024-09-23T16:00:20.000Z</time>
      </trkpt>
      <trkpt lat="42.24332" lon="19.71719">
        <ele>879.26000976562</ele>
        <time>2024-09-23T16:00:21.000Z</time>
      </trkpt>
      <trkpt lat="42.24333" lon="19.71708">
        <ele>878.78002929688</ele>
        <time>2024-09-23T16:00:22.000Z</time>
      </trkpt>
      <trkpt lat="42.24336" lon="19.71697">
        <ele>878.78002929688</ele>
        <time>2024-09-23T16:00:23.000Z</time>
      </trkpt>
      <trkpt lat="42.24339" lon="19.71688">
        <ele>878.78002929688</ele>
        <time>2024-09-23T16:00:24.000Z</time>
      </trkpt>
      <trkpt lat="42.24343" lon="19.71681">
        <ele>878.29998779297</ele>
        <time>2024-09-23T16:00:25.000Z</time>
      </trkpt>
      <trkpt lat="42.24348" lon="19.71676">
        <ele>877.82000732422</ele>
        <time>2024-09-23T16:00:26.000Z</time>
      </trkpt>
      <trkpt lat="42.24359" lon="19.71669">
        <ele>877.34002685547</ele>
        <time>2024-09-23T16:00:27.000Z</time>
      </trkpt>
      <trkpt lat="42.24361" lon="19.71668">
        <ele>876.85998535156</ele>
        <time>2024-09-23T16:00:28.000Z</time>
      </trkpt>
      <trkpt lat="42.24371" lon="19.71661">
        <ele>875.90002441406</ele>
        <time>2024-09-23T16:00:29.000Z</time>
      </trkpt>
      <trkpt lat="42.24374" lon="19.7166">
        <ele>875.90002441406</ele>
        <time>2024-09-23T16:00:30.000Z</time>
      </trkpt>
      <trkpt lat="42.24381" lon="19.71657">
        <ele>875.41998291016</ele>
        <time>2024-09-23T16:00:31.000Z</time>
      </trkpt>
      <trkpt lat="42.24389" lon="19.71655">
        <ele>874.94000244141</ele>
        <time>2024-09-23T16:00:32.000Z</time>
      </trkpt>
      <trkpt lat="42.24398" lon="19.71653">
        <ele>874.46002197266</ele>
        <time>2024-09-23T16:00:33.000Z</time>
      </trkpt>
      <trkpt lat="42.24407" lon="19.71652">
        <ele>873.97998046875</ele>
        <time>2024-09-23T16:00:34.000Z</time>
      </trkpt>
      <trkpt lat="42.2441" lon="19.71652">
        <ele>873.97998046875</ele>
        <time>2024-09-23T16:00:35.000Z</time>
      </trkpt>
      <trkpt lat="42.24417" lon="19.71653">
        <ele>873.5</ele>
        <time>2024-09-23T16:00:36.000Z</time>
      </trkpt>
      <trkpt lat="42.24424" lon="19.71657">
        <ele>873.5</ele>
        <time>2024-09-23T16:00:37.000Z</time>
      </trkpt>
      <trkpt lat="42.24432" lon="19.7166">
        <ele>873.5</ele>
        <time>2024-09-23T16:00:38.000Z</time>
      </trkpt>
      <trkpt lat="42.24439" lon="19.71662">
        <ele>873.01000976562</ele>
        <time>2024-09-23T16:00:39.000Z</time>
      </trkpt>
      <trkpt lat="42.24447" lon="19.71663">
        <ele>873.01000976562</ele>
        <time>2024-09-23T16:00:40.000Z</time>
      </trkpt>
      <trkpt lat="42.24454" lon="19.71661">
        <ele>873.01000976562</ele>
        <time>2024-09-23T16:00:41.000Z</time>
      </trkpt>
      <trkpt lat="42.24467" lon="19.71656">
        <ele>872.53002929688</ele>
        <time>2024-09-23T16:00:42.000Z</time>
      </trkpt>
      <trkpt lat="42.24469" lon="19.71655">
        <ele>872.53002929688</ele>
        <time>2024-09-23T16:00:43.000Z</time>
      </trkpt>
      <trkpt lat="42.24475" lon="19.71654">
        <ele>873.01000976562</ele>
        <time>2024-09-23T16:00:44.000Z</time>
      </trkpt>
      <trkpt lat="42.24481" lon="19.71656">
        <ele>873.01000976562</ele>
        <time>2024-09-23T16:00:45.000Z</time>
      </trkpt>
      <trkpt lat="42.24488" lon="19.7166">
        <ele>873.5</ele>
        <time>2024-09-23T16:00:46.000Z</time>
      </trkpt>
      <trkpt lat="42.24498" lon="19.71667">
        <ele>874.94000244141</ele>
        <time>2024-09-23T16:00:47.000Z</time>
      </trkpt>
      <trkpt lat="42.245" lon="19.71669">
        <ele>875.41998291016</ele>
        <time>2024-09-23T16:00:48.000Z</time>
      </trkpt>
      <trkpt lat="42.24503" lon="19.71672">
        <ele>875.90002441406</ele>
        <time>2024-09-23T16:00:49.000Z</time>
      </trkpt>
      <trkpt lat="42.24514" lon="19.71685">
        <ele>877.34002685547</ele>
        <time>2024-09-23T16:00:51.000Z</time>
      </trkpt>
      <trkpt lat="42.24518" lon="19.71688">
        <ele>878.29998779297</ele>
        <time>2024-09-23T16:00:52.000Z</time>
      </trkpt>
      <trkpt lat="42.24523" lon="19.7169">
        <ele>878.78002929688</ele>
        <time>2024-09-23T16:00:53.000Z</time>
      </trkpt>
      <trkpt lat="42.24527" lon="19.7169">
        <ele>879.26000976562</ele>
        <time>2024-09-23T16:00:54.000Z</time>
      </trkpt>
      <trkpt lat="42.24531" lon="19.71686">
        <ele>879.26000976562</ele>
        <time>2024-09-23T16:00:55.000Z</time>
      </trkpt>
      <trkpt lat="42.24533" lon="19.71682">
        <ele>879.26000976562</ele>
        <time>2024-09-23T16:00:56.000Z</time>
      </trkpt>
      <trkpt lat="42.24534" lon="19.71676">
        <ele>879.73999023438</ele>
        <time>2024-09-23T16:00:57.000Z</time>
      </trkpt>
      <trkpt lat="42.24533" lon="19.7167">
        <ele>879.26000976562</ele>
        <time>2024-09-23T16:00:58.000Z</time>
      </trkpt>
      <trkpt lat="42.24532" lon="19.71663">
        <ele>879.73999023438</ele>
        <time>2024-09-23T16:00:59.000Z</time>
      </trkpt>
      <trkpt lat="42.24531" lon="19.71657">
        <ele>880.21997070312</ele>
        <time>2024-09-23T16:01:00.000Z</time>
      </trkpt>
      <trkpt lat="42.24517" lon="19.71613">
        <ele>879.73999023438</ele>
        <time>2024-09-23T16:01:09.000Z</time>
      </trkpt>
      <trkpt lat="42.24516" lon="19.71611">
        <ele>879.73999023438</ele>
        <time>2024-09-23T16:01:10.000Z</time>
      </trkpt>
      <trkpt lat="42.24516" lon="19.71604">
        <ele>879.26000976562</ele>
        <time>2024-09-23T16:01:11.000Z</time>
      </trkpt>
      <trkpt lat="42.24516" lon="19.71599">
        <ele>879.26000976562</ele>
        <time>2024-09-23T16:01:12.000Z</time>
      </trkpt>
      <trkpt lat="42.24514" lon="19.71594">
        <ele>878.78002929688</ele>
        <time>2024-09-23T16:01:13.000Z</time>
      </trkpt>
      <trkpt lat="42.24513" lon="19.71589">
        <ele>877.82000732422</ele>
        <time>2024-09-23T16:01:14.000Z</time>
      </trkpt>
      <trkpt lat="42.24509" lon="19.71584">
        <ele>876.85998535156</ele>
        <time>2024-09-23T16:01:15.000Z</time>
      </trkpt>
      <trkpt lat="42.24506" lon="19.71581">
        <ele>875.90002441406</ele>
        <time>2024-09-23T16:01:16.000Z</time>
      </trkpt>
      <trkpt lat="42.24503" lon="19.71578">
        <ele>875.41998291016</ele>
        <time>2024-09-23T16:01:17.000Z</time>
      </trkpt>
      <trkpt lat="42.24498" lon="19.71574">
        <ele>874.46002197266</ele>
        <time>2024-09-23T16:01:18.000Z</time>
      </trkpt>
      <trkpt lat="42.24494" lon="19.71571">
        <ele>873.5</ele>
        <time>2024-09-23T16:01:19.000Z</time>
      </trkpt>
      <trkpt lat="42.24489" lon="19.71568">
        <ele>872.53002929688</ele>
        <time>2024-09-23T16:01:20.000Z</time>
      </trkpt>
      <trkpt lat="42.24485" lon="19.71566">
        <ele>872.53002929688</ele>
        <time>2024-09-23T16:01:21.000Z</time>
      </trkpt>
      <trkpt lat="42.2448" lon="19.71561">
        <ele>871.57000732422</ele>
        <time>2024-09-23T16:01:22.000Z</time>
      </trkpt>
      <trkpt lat="42.24476" lon="19.71556">
        <ele>871.09002685547</ele>
        <time>2024-09-23T16:01:23.000Z</time>
      </trkpt>
      <trkpt lat="42.24473" lon="19.71551">
        <ele>870.60998535156</ele>
        <time>2024-09-23T16:01:24.000Z</time>
      </trkpt>
      <trkpt lat="42.24467" lon="19.71541">
        <ele>869.65002441406</ele>
        <time>2024-09-23T16:01:25.000Z</time>
      </trkpt>
      <trkpt lat="42.24466" lon="19.7154">
        <ele>869.16998291016</ele>
        <time>2024-09-23T16:01:26.000Z</time>
      </trkpt>
      <trkpt lat="42.24463" lon="19.71532">
        <ele>868.21002197266</ele>
        <time>2024-09-23T16:01:27.000Z</time>
      </trkpt>
      <trkpt lat="42.2446" lon="19.71527">
        <ele>867.72998046875</ele>
        <time>2024-09-23T16:01:28.000Z</time>
      </trkpt>
      <trkpt lat="42.24457" lon="19.71522">
        <ele>867.25</ele>
        <time>2024-09-23T16:01:29.000Z</time>
      </trkpt>
      <trkpt lat="42.24454" lon="19.71515">
        <ele>865.79998779297</ele>
        <time>2024-09-23T16:01:30.000Z</time>
      </trkpt>
      <trkpt lat="42.24451" lon="19.71506">
        <ele>864.84002685547</ele>
        <time>2024-09-23T16:01:31.000Z</time>
      </trkpt>
      <trkpt lat="42.24449" lon="19.71498">
        <ele>863.88000488281</ele>
        <time>2024-09-23T16:01:32.000Z</time>
      </trkpt>
      <trkpt lat="42.24449" lon="19.7149">
        <ele>862.91998291016</ele>
        <time>2024-09-23T16:01:33.000Z</time>
      </trkpt>
      <trkpt lat="42.24449" lon="19.7148">
        <ele>862.44000244141</ele>
        <time>2024-09-23T16:01:34.000Z</time>
      </trkpt>
      <trkpt lat="42.24449" lon="19.71472">
        <ele>861.47998046875</ele>
        <time>2024-09-23T16:01:35.000Z</time>
      </trkpt>
      <trkpt lat="42.24447" lon="19.71463">
        <ele>861</ele>
        <time>2024-09-23T16:01:36.000Z</time>
      </trkpt>
      <trkpt lat="42.24443" lon="19.71453">
        <ele>859.55999755859</ele>
        <time>2024-09-23T16:01:37.000Z</time>
      </trkpt>
      <trkpt lat="42.24439" lon="19.71445">
        <ele>858.59002685547</ele>
        <time>2024-09-23T16:01:38.000Z</time>
      </trkpt>
      <trkpt lat="42.24436" lon="19.71435">
        <ele>857.63000488281</ele>
        <time>2024-09-23T16:01:39.000Z</time>
      </trkpt>
      <trkpt lat="42.24434" lon="19.71426">
        <ele>856.19000244141</ele>
        <time>2024-09-23T16:01:40.000Z</time>
      </trkpt>
      <trkpt lat="42.24432" lon="19.71417">
        <ele>855.22998046875</ele>
        <time>2024-09-23T16:01:41.000Z</time>
      </trkpt>
      <trkpt lat="42.24431" lon="19.71409">
        <ele>854.27001953125</ele>
        <time>2024-09-23T16:01:42.000Z</time>
      </trkpt>
      <trkpt lat="42.24431" lon="19.714">
        <ele>853.30999755859</ele>
        <time>2024-09-23T16:01:43.000Z</time>
      </trkpt>
      <trkpt lat="42.24432" lon="19.71391">
        <ele>852.83001708984</ele>
        <time>2024-09-23T16:01:44.000Z</time>
      </trkpt>
      <trkpt lat="42.24433" lon="19.71384">
        <ele>852.34997558594</ele>
        <time>2024-09-23T16:01:45.000Z</time>
      </trkpt>
      <trkpt lat="42.24432" lon="19.71375">
        <ele>852.34997558594</ele>
        <time>2024-09-23T16:01:46.000Z</time>
      </trkpt>
      <trkpt lat="42.24429" lon="19.71365">
        <ele>851.38000488281</ele>
        <time>2024-09-23T16:01:47.000Z</time>
      </trkpt>
      <trkpt lat="42.24428" lon="19.71358">
        <ele>851.38000488281</ele>
        <time>2024-09-23T16:01:48.000Z</time>
      </trkpt>
      <trkpt lat="42.24427" lon="19.71349">
        <ele>850.41998291016</ele>
        <time>2024-09-23T16:01:49.000Z</time>
      </trkpt>
      <trkpt lat="42.24428" lon="19.71339">
        <ele>849.94000244141</ele>
        <time>2024-09-23T16:01:50.000Z</time>
      </trkpt>
      <trkpt lat="42.24429" lon="19.71324">
        <ele>848.5</ele>
        <time>2024-09-23T16:01:51.000Z</time>
      </trkpt>
      <trkpt lat="42.2443" lon="19.71318">
        <ele>848.5</ele>
        <time>2024-09-23T16:01:52.000Z</time>
      </trkpt>
      <trkpt lat="42.24435" lon="19.71286">
        <ele>846.58001708984</ele>
        <time>2024-09-23T16:01:55.000Z</time>
      </trkpt>
      <trkpt lat="42.24437" lon="19.71275">
        <ele>846.09997558594</ele>
        <time>2024-09-23T16:01:56.000Z</time>
      </trkpt>
      <trkpt lat="42.24437" lon="19.71258">
        <ele>845.14001464844</ele>
        <time>2024-09-23T16:01:57.000Z</time>
      </trkpt>
      <trkpt lat="42.24437" lon="19.71253">
        <ele>845.14001464844</ele>
        <time>2024-09-23T16:01:58.000Z</time>
      </trkpt>
      <trkpt lat="42.24436" lon="19.71247">
        <ele>844.65997314453</ele>
        <time>2024-09-23T16:01:59.000Z</time>
      </trkpt>
      <trkpt lat="42.24435" lon="19.7124">
        <ele>844.17999267578</ele>
        <time>2024-09-23T16:02:00.000Z</time>
      </trkpt>
      <trkpt lat="42.24423" lon="19.71236">
        <ele>841.77001953125</ele>
        <time>2024-09-23T16:02:03.000Z</time>
      </trkpt>
      <trkpt lat="42.24423" lon="19.71237">
        <ele>841.28997802734</ele>
        <time>2024-09-23T16:02:04.000Z</time>
      </trkpt>
      <trkpt lat="42.2442" lon="19.71243">
        <ele>841.28997802734</ele>
        <time>2024-09-23T16:02:05.000Z</time>
      </trkpt>
      <trkpt lat="42.24419" lon="19.71249">
        <ele>840.80999755859</ele>
        <time>2024-09-23T16:02:06.000Z</time>
      </trkpt>
      <trkpt lat="42.24419" lon="19.71256">
        <ele>840.33001708984</ele>
        <time>2024-09-23T16:02:07.000Z</time>
      </trkpt>
      <trkpt lat="42.24419" lon="19.71264">
        <ele>839.84997558594</ele>
        <time>2024-09-23T16:02:08.000Z</time>
      </trkpt>
      <trkpt lat="42.24419" lon="19.71272">
        <ele>839.36999511719</ele>
        <time>2024-09-23T16:02:09.000Z</time>
      </trkpt>
      <trkpt lat="42.24418" lon="19.71277">
        <ele>839.36999511719</ele>
        <time>2024-09-23T16:02:10.000Z</time>
      </trkpt>
      <trkpt lat="42.24417" lon="19.71282">
        <ele>839.36999511719</ele>
        <time>2024-09-23T16:02:11.000Z</time>
      </trkpt>
      <trkpt lat="42.24415" lon="19.71287">
        <ele>838.89001464844</ele>
        <time>2024-09-23T16:02:12.000Z</time>
      </trkpt>
      <trkpt lat="42.24411" lon="19.71289">
        <ele>838.40997314453</ele>
        <time>2024-09-23T16:02:13.000Z</time>
      </trkpt>
      <trkpt lat="42.24407" lon="19.71289">
        <ele>837.92999267578</ele>
        <time>2024-09-23T16:02:14.000Z</time>
      </trkpt>
      <trkpt lat="42.24405" lon="19.71285">
        <ele>837.45001220703</ele>
        <time>2024-09-23T16:02:15.000Z</time>
      </trkpt>
      <trkpt lat="42.24403" lon="19.71278">
        <ele>836.47998046875</ele>
        <time>2024-09-23T16:02:16.000Z</time>
      </trkpt>
      <trkpt lat="42.24402" lon="19.71271">
        <ele>836</ele>
        <time>2024-09-23T16:02:17.000Z</time>
      </trkpt>
      <trkpt lat="42.24402" lon="19.71261">
        <ele>835.52001953125</ele>
        <time>2024-09-23T16:02:18.000Z</time>
      </trkpt>
      <trkpt lat="42.24402" lon="19.71245">
        <ele>835.03997802734</ele>
        <time>2024-09-23T16:02:20.000Z</time>
      </trkpt>
      <trkpt lat="42.24402" lon="19.71242">
        <ele>835.03997802734</ele>
        <time>2024-09-23T16:02:21.000Z</time>
      </trkpt>
      <trkpt lat="42.24404" lon="19.71234">
        <ele>834.55999755859</ele>
        <time>2024-09-23T16:02:22.000Z</time>
      </trkpt>
      <trkpt lat="42.24405" lon="19.71228">
        <ele>834.55999755859</ele>
        <time>2024-09-23T16:02:23.000Z</time>
      </trkpt>
      <trkpt lat="42.24408" lon="19.71222">
        <ele>834.55999755859</ele>
        <time>2024-09-23T16:02:24.000Z</time>
      </trkpt>
      <trkpt lat="42.24411" lon="19.71218">
        <ele>834.55999755859</ele>
        <time>2024-09-23T16:02:25.000Z</time>
      </trkpt>
      <trkpt lat="42.24418" lon="19.71211">
        <ele>833.59997558594</ele>
        <time>2024-09-23T16:02:26.000Z</time>
      </trkpt>
      <trkpt lat="42.24421" lon="19.71208">
        <ele>833.11999511719</ele>
        <time>2024-09-23T16:02:27.000Z</time>
      </trkpt>
      <trkpt lat="42.24424" lon="19.71202">
        <ele>832.64001464844</ele>
        <time>2024-09-23T16:02:28.000Z</time>
      </trkpt>
      <trkpt lat="42.24426" lon="19.71196">
        <ele>832.64001464844</ele>
        <time>2024-09-23T16:02:29.000Z</time>
      </trkpt>
      <trkpt lat="42.24426" lon="19.7119">
        <ele>832.15997314453</ele>
        <time>2024-09-23T16:02:30.000Z</time>
      </trkpt>
      <trkpt lat="42.24424" lon="19.71183">
        <ele>831.67999267578</ele>
        <time>2024-09-23T16:02:31.000Z</time>
      </trkpt>
      <trkpt lat="42.24423" lon="19.71174">
        <ele>831.20001220703</ele>
        <time>2024-09-23T16:02:32.000Z</time>
      </trkpt>
      <trkpt lat="42.24422" lon="19.71171">
        <ele>830.71997070312</ele>
        <time>2024-09-23T16:02:33.000Z</time>
      </trkpt>
      <trkpt lat="42.24421" lon="19.71163">
        <ele>830.23999023438</ele>
        <time>2024-09-23T16:02:34.000Z</time>
      </trkpt>
      <trkpt lat="42.24419" lon="19.71156">
        <ele>829.27001953125</ele>
        <time>2024-09-23T16:02:35.000Z</time>
      </trkpt>
      <trkpt lat="42.24416" lon="19.71148">
        <ele>828.78997802734</ele>
        <time>2024-09-23T16:02:36.000Z</time>
      </trkpt>
      <trkpt lat="42.24414" lon="19.7114">
        <ele>827.83001708984</ele>
        <time>2024-09-23T16:02:37.000Z</time>
      </trkpt>
      <trkpt lat="42.24414" lon="19.71134">
        <ele>827.34997558594</ele>
        <time>2024-09-23T16:02:38.000Z</time>
      </trkpt>
      <trkpt lat="42.24416" lon="19.71127">
        <ele>827.34997558594</ele>
        <time>2024-09-23T16:02:39.000Z</time>
      </trkpt>
      <trkpt lat="42.2442" lon="19.71121">
        <ele>826.86999511719</ele>
        <time>2024-09-23T16:02:40.000Z</time>
      </trkpt>
      <trkpt lat="42.24428" lon="19.71109">
        <ele>826.86999511719</ele>
        <time>2024-09-23T16:02:41.000Z</time>
      </trkpt>
      <trkpt lat="42.24429" lon="19.71106">
        <ele>826.86999511719</ele>
        <time>2024-09-23T16:02:42.000Z</time>
      </trkpt>
      <trkpt lat="42.24432" lon="19.71099">
        <ele>826.39001464844</ele>
        <time>2024-09-23T16:02:43.000Z</time>
      </trkpt>
      <trkpt lat="42.24435" lon="19.7109">
        <ele>825.42999267578</ele>
        <time>2024-09-23T16:02:44.000Z</time>
      </trkpt>
      <trkpt lat="42.24437" lon="19.71081">
        <ele>823.98999023438</ele>
        <time>2024-09-23T16:02:45.000Z</time>
      </trkpt>
      <trkpt lat="42.24439" lon="19.71068">
        <ele>822.54998779297</ele>
        <time>2024-09-23T16:02:46.000Z</time>
      </trkpt>
      <trkpt lat="42.24441" lon="19.71054">
        <ele>821.09997558594</ele>
        <time>2024-09-23T16:02:47.000Z</time>
      </trkpt>
      <trkpt lat="42.24442" lon="19.7105">
        <ele>821.09997558594</ele>
        <time>2024-09-23T16:02:48.000Z</time>
      </trkpt>
      <trkpt lat="42.24445" lon="19.71031">
        <ele>819.65997314453</ele>
        <time>2024-09-23T16:02:49.000Z</time>
      </trkpt>
      <trkpt lat="42.24446" lon="19.71021">
        <ele>819.17999267578</ele>
        <time>2024-09-23T16:02:50.000Z</time>
      </trkpt>
      <trkpt lat="42.24446" lon="19.71017">
        <ele>819.17999267578</ele>
        <time>2024-09-23T16:02:51.000Z</time>
      </trkpt>
      <trkpt lat="42.24446" lon="19.70992">
        <ele>817.73999023438</ele>
        <time>2024-09-23T16:02:53.000Z</time>
      </trkpt>
      <trkpt lat="42.24447" lon="19.70981">
        <ele>817.26000976562</ele>
        <time>2024-09-23T16:02:54.000Z</time>
      </trkpt>
      <trkpt lat="42.24448" lon="19.70971">
        <ele>816.29998779297</ele>
        <time>2024-09-23T16:02:55.000Z</time>
      </trkpt>
      <trkpt lat="42.24451" lon="19.70952">
        <ele>814.84997558594</ele>
        <time>2024-09-23T16:02:56.000Z</time>
      </trkpt>
      <trkpt lat="42.24452" lon="19.70948">
        <ele>814.36999511719</ele>
        <time>2024-09-23T16:02:57.000Z</time>
      </trkpt>
      <trkpt lat="42.2446" lon="19.70922">
        <ele>812.92999267578</ele>
        <time>2024-09-23T16:02:59.000Z</time>
      </trkpt>
      <trkpt lat="42.24461" lon="19.70916">
        <ele>812.45001220703</ele>
        <time>2024-09-23T16:03:00.000Z</time>
      </trkpt>
      <trkpt lat="42.24461" lon="19.70906">
        <ele>811.96997070312</ele>
        <time>2024-09-23T16:03:01.000Z</time>
      </trkpt>
      <trkpt lat="42.2446" lon="19.70896">
        <ele>811.48999023438</ele>
        <time>2024-09-23T16:03:02.000Z</time>
      </trkpt>
      <trkpt lat="42.24458" lon="19.70883">
        <ele>811.01000976562</ele>
        <time>2024-09-23T16:03:03.000Z</time>
      </trkpt>
      <trkpt lat="42.24457" lon="19.70872">
        <ele>810.53002929688</ele>
        <time>2024-09-23T16:03:04.000Z</time>
      </trkpt>
      <trkpt lat="42.24457" lon="19.70838">
        <ele>808.60998535156</ele>
        <time>2024-09-23T16:03:06.000Z</time>
      </trkpt>
      <trkpt lat="42.24456" lon="19.70835">
        <ele>808.60998535156</ele>
        <time>2024-09-23T16:03:07.000Z</time>
      </trkpt>
      <trkpt lat="42.24454" lon="19.70814">
        <ele>808.13000488281</ele>
        <time>2024-09-23T16:03:08.000Z</time>
      </trkpt>
      <trkpt lat="42.24454" lon="19.70812">
        <ele>808.13000488281</ele>
        <time>2024-09-23T16:03:09.000Z</time>
      </trkpt>
      <trkpt lat="42.24452" lon="19.70796">
        <ele>807.15997314453</ele>
        <time>2024-09-23T16:03:10.000Z</time>
      </trkpt>
      <trkpt lat="42.24451" lon="19.70793">
        <ele>807.15997314453</ele>
        <time>2024-09-23T16:03:11.000Z</time>
      </trkpt>
      <trkpt lat="42.24449" lon="19.70781">
        <ele>807.15997314453</ele>
        <time>2024-09-23T16:03:12.000Z</time>
      </trkpt>
      <trkpt lat="42.24448" lon="19.70774">
        <ele>806.67999267578</ele>
        <time>2024-09-23T16:03:13.000Z</time>
      </trkpt>
      <trkpt lat="42.24447" lon="19.70766">
        <ele>806.20001220703</ele>
        <time>2024-09-23T16:03:14.000Z</time>
      </trkpt>
      <trkpt lat="42.24445" lon="19.70758">
        <ele>806.20001220703</ele>
        <time>2024-09-23T16:03:15.000Z</time>
      </trkpt>
      <trkpt lat="42.24442" lon="19.70744">
        <ele>805.23999023438</ele>
        <time>2024-09-23T16:03:16.000Z</time>
      </trkpt>
      <trkpt lat="42.24442" lon="19.70741">
        <ele>805.23999023438</ele>
        <time>2024-09-23T16:03:17.000Z</time>
      </trkpt>
      <trkpt lat="42.2444" lon="19.70732">
        <ele>804.28002929688</ele>
        <time>2024-09-23T16:03:18.000Z</time>
      </trkpt>
      <trkpt lat="42.24439" lon="19.70721">
        <ele>803.79998779297</ele>
        <time>2024-09-23T16:03:19.000Z</time>
      </trkpt>
      <trkpt lat="42.24438" lon="19.70715">
        <ele>803.79998779297</ele>
        <time>2024-09-23T16:03:20.000Z</time>
      </trkpt>
      <trkpt lat="42.24437" lon="19.70707">
        <ele>803.32000732422</ele>
        <time>2024-09-23T16:03:21.000Z</time>
      </trkpt>
      <trkpt lat="42.24433" lon="19.70693">
        <ele>802.84002685547</ele>
        <time>2024-09-23T16:03:22.000Z</time>
      </trkpt>
      <trkpt lat="42.24432" lon="19.70688">
        <ele>802.35998535156</ele>
        <time>2024-09-23T16:03:23.000Z</time>
      </trkpt>
      <trkpt lat="42.24429" lon="19.70669">
        <ele>800.44000244141</ele>
        <time>2024-09-23T16:03:24.000Z</time>
      </trkpt>
      <trkpt lat="42.24429" lon="19.70666">
        <ele>799.95001220703</ele>
        <time>2024-09-23T16:03:25.000Z</time>
      </trkpt>
      <trkpt lat="42.24427" lon="19.70658">
        <ele>798.98999023438</ele>
        <time>2024-09-23T16:03:26.000Z</time>
      </trkpt>
      <trkpt lat="42.24424" lon="19.70642">
        <ele>798.03002929688</ele>
        <time>2024-09-23T16:03:27.000Z</time>
      </trkpt>
      <trkpt lat="42.24423" lon="19.70636">
        <ele>797.07000732422</ele>
        <time>2024-09-23T16:03:28.000Z</time>
      </trkpt>
      <trkpt lat="42.24421" lon="19.70621">
        <ele>796.10998535156</ele>
        <time>2024-09-23T16:03:29.000Z</time>
      </trkpt>
      <trkpt lat="42.2442" lon="19.70614">
        <ele>795.63000488281</ele>
        <time>2024-09-23T16:03:30.000Z</time>
      </trkpt>
      <trkpt lat="42.24419" lon="19.70607">
        <ele>795.15002441406</ele>
        <time>2024-09-23T16:03:31.000Z</time>
      </trkpt>
      <trkpt lat="42.24416" lon="19.70598">
        <ele>794.66998291016</ele>
        <time>2024-09-23T16:03:32.000Z</time>
      </trkpt>
      <trkpt lat="42.24411" lon="19.70583">
        <ele>792.26000976562</ele>
        <time>2024-09-23T16:03:33.000Z</time>
      </trkpt>
      <trkpt lat="42.24409" lon="19.70578">
        <ele>791.78002929688</ele>
        <time>2024-09-23T16:03:34.000Z</time>
      </trkpt>
      <trkpt lat="42.24404" lon="19.70565">
        <ele>789.85998535156</ele>
        <time>2024-09-23T16:03:35.000Z</time>
      </trkpt>
      <trkpt lat="42.24401" lon="19.70557">
        <ele>788.90002441406</ele>
        <time>2024-09-23T16:03:36.000Z</time>
      </trkpt>
      <trkpt lat="42.24396" lon="19.70546">
        <ele>788.41998291016</ele>
        <time>2024-09-23T16:03:37.000Z</time>
      </trkpt>
      <trkpt lat="42.24395" lon="19.70543">
        <ele>787.94000244141</ele>
        <time>2024-09-23T16:03:38.000Z</time>
      </trkpt>
      <trkpt lat="42.24391" lon="19.70532">
        <ele>786.97998046875</ele>
        <time>2024-09-23T16:03:39.000Z</time>
      </trkpt>
      <trkpt lat="42.2439" lon="19.70527">
        <ele>786.97998046875</ele>
        <time>2024-09-23T16:03:40.000Z</time>
      </trkpt>
      <trkpt lat="42.24389" lon="19.7052">
        <ele>786.02001953125</ele>
        <time>2024-09-23T16:03:41.000Z</time>
      </trkpt>
      <trkpt lat="42.2439" lon="19.70512">
        <ele>785.53002929688</ele>
        <time>2024-09-23T16:03:42.000Z</time>
      </trkpt>
      <trkpt lat="42.24392" lon="19.70506">
        <ele>785.53002929688</ele>
        <time>2024-09-23T16:03:43.000Z</time>
      </trkpt>
      <trkpt lat="42.24396" lon="19.705">
        <ele>785.04998779297</ele>
        <time>2024-09-23T16:03:44.000Z</time>
      </trkpt>
      <trkpt lat="42.24402" lon="19.70493">
        <ele>784.57000732422</ele>
        <time>2024-09-23T16:03:45.000Z</time>
      </trkpt>
      <trkpt lat="42.24408" lon="19.70487">
        <ele>784.09002685547</ele>
        <time>2024-09-23T16:03:46.000Z</time>
      </trkpt>
      <trkpt lat="42.24417" lon="19.70482">
        <ele>784.09002685547</ele>
        <time>2024-09-23T16:03:47.000Z</time>
      </trkpt>
      <trkpt lat="42.24423" lon="19.7048">
        <ele>783.60998535156</ele>
        <time>2024-09-23T16:03:48.000Z</time>
      </trkpt>
      <trkpt lat="42.2443" lon="19.70478">
        <ele>783.13000488281</ele>
        <time>2024-09-23T16:03:49.000Z</time>
      </trkpt>
      <trkpt lat="42.24439" lon="19.70476">
        <ele>783.13000488281</ele>
        <time>2024-09-23T16:03:50.000Z</time>
      </trkpt>
      <trkpt lat="42.24446" lon="19.70473">
        <ele>782.16998291016</ele>
        <time>2024-09-23T16:03:51.000Z</time>
      </trkpt>
      <trkpt lat="42.24453" lon="19.70469">
        <ele>781.69000244141</ele>
        <time>2024-09-23T16:03:52.000Z</time>
      </trkpt>
      <trkpt lat="42.2446" lon="19.70462">
        <ele>781.69000244141</ele>
        <time>2024-09-23T16:03:53.000Z</time>
      </trkpt>
      <trkpt lat="42.24466" lon="19.70454">
        <ele>781.21002197266</ele>
        <time>2024-09-23T16:03:54.000Z</time>
      </trkpt>
      <trkpt lat="42.2447" lon="19.70445">
        <ele>781.69000244141</ele>
        <time>2024-09-23T16:03:55.000Z</time>
      </trkpt>
      <trkpt lat="42.24476" lon="19.70431">
        <ele>781.69000244141</ele>
        <time>2024-09-23T16:03:56.000Z</time>
      </trkpt>
      <trkpt lat="42.24478" lon="19.70428">
        <ele>781.69000244141</ele>
        <time>2024-09-23T16:03:57.000Z</time>
      </trkpt>
      <trkpt lat="42.24484" lon="19.70419">
        <ele>781.21002197266</ele>
        <time>2024-09-23T16:03:58.000Z</time>
      </trkpt>
      <trkpt lat="42.24498" lon="19.70401">
        <ele>778.32000732422</ele>
        <time>2024-09-23T16:04:00.000Z</time>
      </trkpt>
      <trkpt lat="42.24506" lon="19.70389">
        <ele>776.88000488281</ele>
        <time>2024-09-23T16:04:01.000Z</time>
      </trkpt>
      <trkpt lat="42.24513" lon="19.70378">
        <ele>776.40002441406</ele>
        <time>2024-09-23T16:04:02.000Z</time>
      </trkpt>
      <trkpt lat="42.24522" lon="19.70358">
        <ele>774.96002197266</ele>
        <time>2024-09-23T16:04:03.000Z</time>
      </trkpt>
      <trkpt lat="42.24526" lon="19.70349">
        <ele>774</ele>
        <time>2024-09-23T16:04:04.000Z</time>
      </trkpt>
      <trkpt lat="42.2453" lon="19.70341">
        <ele>773.03997802734</ele>
        <time>2024-09-23T16:04:05.000Z</time>
      </trkpt>
      <trkpt lat="42.24535" lon="19.70333">
        <ele>772.55999755859</ele>
        <time>2024-09-23T16:04:06.000Z</time>
      </trkpt>
      <trkpt lat="42.24542" lon="19.70327">
        <ele>772.08001708984</ele>
        <time>2024-09-23T16:04:07.000Z</time>
      </trkpt>
      <trkpt lat="42.24551" lon="19.70323">
        <ele>771.10998535156</ele>
        <time>2024-09-23T16:04:08.000Z</time>
      </trkpt>
      <trkpt lat="42.2456" lon="19.7032">
        <ele>770.15002441406</ele>
        <time>2024-09-23T16:04:09.000Z</time>
      </trkpt>
      <trkpt lat="42.24571" lon="19.70319">
        <ele>768.71002197266</ele>
        <time>2024-09-23T16:04:10.000Z</time>
      </trkpt>
      <trkpt lat="42.24577" lon="19.70319">
        <ele>767.75</ele>
        <time>2024-09-23T16:04:11.000Z</time>
      </trkpt>
      <trkpt lat="42.24584" lon="19.70317">
        <ele>766.78997802734</ele>
        <time>2024-09-23T16:04:12.000Z</time>
      </trkpt>
      <trkpt lat="42.2459" lon="19.7031">
        <ele>767.27001953125</ele>
        <time>2024-09-23T16:04:13.000Z</time>
      </trkpt>
      <trkpt lat="42.24596" lon="19.70301">
        <ele>766.78997802734</ele>
        <time>2024-09-23T16:04:14.000Z</time>
      </trkpt>
      <trkpt lat="42.24602" lon="19.70289">
        <ele>765.34997558594</ele>
        <time>2024-09-23T16:04:15.000Z</time>
      </trkpt>
      <trkpt lat="42.24605" lon="19.7028">
        <ele>764.86999511719</ele>
        <time>2024-09-23T16:04:16.000Z</time>
      </trkpt>
      <trkpt lat="42.24605" lon="19.70272">
        <ele>764.39001464844</ele>
        <time>2024-09-23T16:04:17.000Z</time>
      </trkpt>
      <trkpt lat="42.24604" lon="19.70264">
        <ele>764.39001464844</ele>
        <time>2024-09-23T16:04:18.000Z</time>
      </trkpt>
      <trkpt lat="42.24599" lon="19.70256">
        <ele>763.41998291016</ele>
        <time>2024-09-23T16:04:19.000Z</time>
      </trkpt>
      <trkpt lat="42.24591" lon="19.70247">
        <ele>762.46002197266</ele>
        <time>2024-09-23T16:04:20.000Z</time>
      </trkpt>
      <trkpt lat="42.24584" lon="19.70242">
        <ele>761.5</ele>
        <time>2024-09-23T16:04:21.000Z</time>
      </trkpt>
      <trkpt lat="42.24577" lon="19.70239">
        <ele>760.53997802734</ele>
        <time>2024-09-23T16:04:22.000Z</time>
      </trkpt>
      <trkpt lat="42.24571" lon="19.70239">
        <ele>759.09997558594</ele>
        <time>2024-09-23T16:04:23.000Z</time>
      </trkpt>
      <trkpt lat="42.24568" lon="19.70243">
        <ele>758.14001464844</ele>
        <time>2024-09-23T16:04:24.000Z</time>
      </trkpt>
      <trkpt lat="42.24565" lon="19.7025">
        <ele>757.17999267578</ele>
        <time>2024-09-23T16:04:25.000Z</time>
      </trkpt>
      <trkpt lat="42.24562" lon="19.70258">
        <ele>756.21002197266</ele>
        <time>2024-09-23T16:04:26.000Z</time>
      </trkpt>
      <trkpt lat="42.24558" lon="19.70262">
        <ele>755.72998046875</ele>
        <time>2024-09-23T16:04:27.000Z</time>
      </trkpt>
      <trkpt lat="42.24553" lon="19.70262">
        <ele>754.28997802734</ele>
        <time>2024-09-23T16:04:28.000Z</time>
      </trkpt>
      <trkpt lat="42.24547" lon="19.70259">
        <ele>753.33001708984</ele>
        <time>2024-09-23T16:04:29.000Z</time>
      </trkpt>
      <trkpt lat="42.2453" lon="19.70246">
        <ele>751.40997314453</ele>
        <time>2024-09-23T16:04:31.000Z</time>
      </trkpt>
      <trkpt lat="42.24524" lon="19.7024">
        <ele>750.45001220703</ele>
        <time>2024-09-23T16:04:32.000Z</time>
      </trkpt>
      <trkpt lat="42.2452" lon="19.70233">
        <ele>749.96997070312</ele>
        <time>2024-09-23T16:04:33.000Z</time>
      </trkpt>
      <trkpt lat="42.24519" lon="19.70226">
        <ele>749.48999023438</ele>
        <time>2024-09-23T16:04:34.000Z</time>
      </trkpt>
      <trkpt lat="42.2452" lon="19.70217">
        <ele>748.03997802734</ele>
        <time>2024-09-23T16:04:35.000Z</time>
      </trkpt>
      <trkpt lat="42.24523" lon="19.70206">
        <ele>748.03997802734</ele>
        <time>2024-09-23T16:04:36.000Z</time>
      </trkpt>
      <trkpt lat="42.24527" lon="19.70195">
        <ele>748.03997802734</ele>
        <time>2024-09-23T16:04:37.000Z</time>
      </trkpt>
      <trkpt lat="42.24531" lon="19.70184">
        <ele>748.03997802734</ele>
        <time>2024-09-23T16:04:38.000Z</time>
      </trkpt>
      <trkpt lat="42.24537" lon="19.70176">
        <ele>747.55999755859</ele>
        <time>2024-09-23T16:04:39.000Z</time>
      </trkpt>
      <trkpt lat="42.24545" lon="19.70169">
        <ele>746.59997558594</ele>
        <time>2024-09-23T16:04:40.000Z</time>
      </trkpt>
      <trkpt lat="42.24554" lon="19.70163">
        <ele>745.64001464844</ele>
        <time>2024-09-23T16:04:41.000Z</time>
      </trkpt>
      <trkpt lat="42.24567" lon="19.70156">
        <ele>744.20001220703</ele>
        <time>2024-09-23T16:04:42.000Z</time>
      </trkpt>
      <trkpt lat="42.24575" lon="19.70152">
        <ele>743.23999023438</ele>
        <time>2024-09-23T16:04:43.000Z</time>
      </trkpt>
      <trkpt lat="42.2458" lon="19.70148">
        <ele>742.28002929688</ele>
        <time>2024-09-23T16:04:44.000Z</time>
      </trkpt>
      <trkpt lat="42.24586" lon="19.70143">
        <ele>740.83001708984</ele>
        <time>2024-09-23T16:04:45.000Z</time>
      </trkpt>
      <trkpt lat="42.2459" lon="19.70136">
        <ele>739.86999511719</ele>
        <time>2024-09-23T16:04:46.000Z</time>
      </trkpt>
      <trkpt lat="42.24593" lon="19.70128">
        <ele>738.90997314453</ele>
        <time>2024-09-23T16:04:47.000Z</time>
      </trkpt>
      <trkpt lat="42.24593" lon="19.70121">
        <ele>738.42999267578</ele>
        <time>2024-09-23T16:04:48.000Z</time>
      </trkpt>
      <trkpt lat="42.2459" lon="19.70112">
        <ele>737.46997070312</ele>
        <time>2024-09-23T16:04:49.000Z</time>
      </trkpt>
      <trkpt lat="42.24586" lon="19.70106">
        <ele>736.51000976562</ele>
        <time>2024-09-23T16:04:50.000Z</time>
      </trkpt>
      <trkpt lat="42.24581" lon="19.70104">
        <ele>736.03002929688</ele>
        <time>2024-09-23T16:04:51.000Z</time>
      </trkpt>
      <trkpt lat="42.24574" lon="19.70105">
        <ele>735.54998779297</ele>
        <time>2024-09-23T16:04:52.000Z</time>
      </trkpt>
      <trkpt lat="42.24566" lon="19.70107">
        <ele>734.58001708984</ele>
        <time>2024-09-23T16:04:53.000Z</time>
      </trkpt>
      <trkpt lat="42.24556" lon="19.7011">
        <ele>733.61999511719</ele>
        <time>2024-09-23T16:04:54.000Z</time>
      </trkpt>
      <trkpt lat="42.24538" lon="19.70111">
        <ele>732.65997314453</ele>
        <time>2024-09-23T16:04:55.000Z</time>
      </trkpt>
      <trkpt lat="42.24534" lon="19.70112">
        <ele>732.65997314453</ele>
        <time>2024-09-23T16:04:56.000Z</time>
      </trkpt>
      <trkpt lat="42.24523" lon="19.70113">
        <ele>732.17999267578</ele>
        <time>2024-09-23T16:04:57.000Z</time>
      </trkpt>
      <trkpt lat="42.2452" lon="19.70114">
        <ele>732.17999267578</ele>
        <time>2024-09-23T16:04:58.000Z</time>
      </trkpt>
      <trkpt lat="42.24513" lon="19.70114">
        <ele>731.70001220703</ele>
        <time>2024-09-23T16:04:59.000Z</time>
      </trkpt>
      <trkpt lat="42.24509" lon="19.70115">
        <ele>731.70001220703</ele>
        <time>2024-09-23T16:05:00.000Z</time>
      </trkpt>
      <trkpt lat="42.24487" lon="19.70127">
        <ele>730.26000976562</ele>
        <time>2024-09-23T16:05:07.000Z</time>
      </trkpt>
      <trkpt lat="42.24481" lon="19.70133">
        <ele>730.26000976562</ele>
        <time>2024-09-23T16:05:08.000Z</time>
      </trkpt>
      <trkpt lat="42.24477" lon="19.70136">
        <ele>729.78002929688</ele>
        <time>2024-09-23T16:05:09.000Z</time>
      </trkpt>
      <trkpt lat="42.24475" lon="19.70139">
        <ele>729.78002929688</ele>
        <time>2024-09-23T16:05:10.000Z</time>
      </trkpt>
      <trkpt lat="42.24471" lon="19.70141">
        <ele>729.78002929688</ele>
        <time>2024-09-23T16:05:11.000Z</time>
      </trkpt>
      <trkpt lat="42.24468" lon="19.70144">
        <ele>729.78002929688</ele>
        <time>2024-09-23T16:05:12.000Z</time>
      </trkpt>
      <trkpt lat="42.24464" lon="19.70148">
        <ele>729.78002929688</ele>
        <time>2024-09-23T16:05:13.000Z</time>
      </trkpt>
      <trkpt lat="42.24461" lon="19.70153">
        <ele>729.78002929688</ele>
        <time>2024-09-23T16:05:14.000Z</time>
      </trkpt>
      <trkpt lat="42.24459" lon="19.70157">
        <ele>729.78002929688</ele>
        <time>2024-09-23T16:05:15.000Z</time>
      </trkpt>
      <trkpt lat="42.24457" lon="19.70163">
        <ele>729.78002929688</ele>
        <time>2024-09-23T16:05:16.000Z</time>
      </trkpt>
      <trkpt lat="42.24456" lon="19.7017">
        <ele>729.29998779297</ele>
        <time>2024-09-23T16:05:17.000Z</time>
      </trkpt>
      <trkpt lat="42.24456" lon="19.70178">
        <ele>729.29998779297</ele>
        <time>2024-09-23T16:05:18.000Z</time>
      </trkpt>
      <trkpt lat="42.24457" lon="19.70186">
        <ele>728.82000732422</ele>
        <time>2024-09-23T16:05:19.000Z</time>
      </trkpt>
      <trkpt lat="42.2446" lon="19.70205">
        <ele>727.85998535156</ele>
        <time>2024-09-23T16:05:21.000Z</time>
      </trkpt>
      <trkpt lat="42.24461" lon="19.70215">
        <ele>727.36999511719</ele>
        <time>2024-09-23T16:05:22.000Z</time>
      </trkpt>
      <trkpt lat="42.24461" lon="19.70225">
        <ele>726.89001464844</ele>
        <time>2024-09-23T16:05:23.000Z</time>
      </trkpt>
      <trkpt lat="42.2446" lon="19.70234">
        <ele>726.40997314453</ele>
        <time>2024-09-23T16:05:24.000Z</time>
      </trkpt>
      <trkpt lat="42.24457" lon="19.7024">
        <ele>725.92999267578</ele>
        <time>2024-09-23T16:05:25.000Z</time>
      </trkpt>
      <trkpt lat="42.24454" lon="19.70244">
        <ele>725.92999267578</ele>
        <time>2024-09-23T16:05:26.000Z</time>
      </trkpt>
      <trkpt lat="42.2445" lon="19.70245">
        <ele>725.45001220703</ele>
        <time>2024-09-23T16:05:27.000Z</time>
      </trkpt>
      <trkpt lat="42.24446" lon="19.70244">
        <ele>724.96997070312</ele>
        <time>2024-09-23T16:05:28.000Z</time>
      </trkpt>
      <trkpt lat="42.24442" lon="19.70241">
        <ele>724.48999023438</ele>
        <time>2024-09-23T16:05:29.000Z</time>
      </trkpt>
      <trkpt lat="42.24439" lon="19.70236">
        <ele>724.01000976562</ele>
        <time>2024-09-23T16:05:30.000Z</time>
      </trkpt>
      <trkpt lat="42.24436" lon="19.70231">
        <ele>724.01000976562</ele>
        <time>2024-09-23T16:05:31.000Z</time>
      </trkpt>
      <trkpt lat="42.24433" lon="19.70227">
        <ele>724.01000976562</ele>
        <time>2024-09-23T16:05:32.000Z</time>
      </trkpt>
      <trkpt lat="42.2443" lon="19.70222">
        <ele>723.53002929688</ele>
        <time>2024-09-23T16:05:33.000Z</time>
      </trkpt>
      <trkpt lat="42.24427" lon="19.70217">
        <ele>723.53002929688</ele>
        <time>2024-09-23T16:05:34.000Z</time>
      </trkpt>
      <trkpt lat="42.24424" lon="19.70212">
        <ele>723.04998779297</ele>
        <time>2024-09-23T16:05:35.000Z</time>
      </trkpt>
      <trkpt lat="42.24421" lon="19.70206">
        <ele>723.04998779297</ele>
        <time>2024-09-23T16:05:36.000Z</time>
      </trkpt>
      <trkpt lat="42.24417" lon="19.70202">
        <ele>722.57000732422</ele>
        <time>2024-09-23T16:05:37.000Z</time>
      </trkpt>
      <trkpt lat="42.24412" lon="19.70199">
        <ele>722.57000732422</ele>
        <time>2024-09-23T16:05:38.000Z</time>
      </trkpt>
      <trkpt lat="42.24408" lon="19.70198">
        <ele>722.57000732422</ele>
        <time>2024-09-23T16:05:39.000Z</time>
      </trkpt>
      <trkpt lat="42.24403" lon="19.70197">
        <ele>722.57000732422</ele>
        <time>2024-09-23T16:05:40.000Z</time>
      </trkpt>
      <trkpt lat="42.24398" lon="19.70198">
        <ele>723.04998779297</ele>
        <time>2024-09-23T16:05:41.000Z</time>
      </trkpt>
      <trkpt lat="42.24393" lon="19.702">
        <ele>723.04998779297</ele>
        <time>2024-09-23T16:05:42.000Z</time>
      </trkpt>
      <trkpt lat="42.24387" lon="19.70205">
        <ele>722.09002685547</ele>
        <time>2024-09-23T16:05:43.000Z</time>
      </trkpt>
      <trkpt lat="42.24378" lon="19.70212">
        <ele>721.13000488281</ele>
        <time>2024-09-23T16:05:44.000Z</time>
      </trkpt>
      <trkpt lat="42.24376" lon="19.70213">
        <ele>721.13000488281</ele>
        <time>2024-09-23T16:05:45.000Z</time>
      </trkpt>
      <trkpt lat="42.24372" lon="19.70216">
        <ele>720.65002441406</ele>
        <time>2024-09-23T16:05:46.000Z</time>
      </trkpt>
      <trkpt lat="42.24365" lon="19.70219">
        <ele>720.15997314453</ele>
        <time>2024-09-23T16:05:47.000Z</time>
      </trkpt>
      <trkpt lat="42.24361" lon="19.70221">
        <ele>720.15997314453</ele>
        <time>2024-09-23T16:05:48.000Z</time>
      </trkpt>
      <trkpt lat="42.24356" lon="19.70225">
        <ele>719.67999267578</ele>
        <time>2024-09-23T16:05:49.000Z</time>
      </trkpt>
      <trkpt lat="42.24353" lon="19.70229">
        <ele>719.20001220703</ele>
        <time>2024-09-23T16:05:50.000Z</time>
      </trkpt>
      <trkpt lat="42.24349" lon="19.70235">
        <ele>718.23999023438</ele>
        <time>2024-09-23T16:05:51.000Z</time>
      </trkpt>
      <trkpt lat="42.24347" lon="19.70241">
        <ele>718.23999023438</ele>
        <time>2024-09-23T16:05:52.000Z</time>
      </trkpt>
      <trkpt lat="42.24345" lon="19.70248">
        <ele>718.23999023438</ele>
        <time>2024-09-23T16:05:53.000Z</time>
      </trkpt>
      <trkpt lat="42.24333" lon="19.70288">
        <ele>716.32000732422</ele>
        <time>2024-09-23T16:06:03.000Z</time>
      </trkpt>
      <trkpt lat="42.24331" lon="19.70291">
        <ele>716.79998779297</ele>
        <time>2024-09-23T16:06:29.000Z</time>
      </trkpt>
      <trkpt lat="42.24328" lon="19.70296">
        <ele>716.32000732422</ele>
        <time>2024-09-23T16:06:31.000Z</time>
      </trkpt>
      <trkpt lat="42.24324" lon="19.70301">
        <ele>715.84002685547</ele>
        <time>2024-09-23T16:06:32.000Z</time>
      </trkpt>
      <trkpt lat="42.24319" lon="19.70304">
        <ele>715.35998535156</ele>
        <time>2024-09-23T16:06:33.000Z</time>
      </trkpt>
      <trkpt lat="42.24313" lon="19.70306">
        <ele>715.35998535156</ele>
        <time>2024-09-23T16:06:34.000Z</time>
      </trkpt>
      <trkpt lat="42.24303" lon="19.70305">
        <ele>714.88000488281</ele>
        <time>2024-09-23T16:06:35.000Z</time>
      </trkpt>
      <trkpt lat="42.243" lon="19.70305">
        <ele>714.40002441406</ele>
        <time>2024-09-23T16:06:36.000Z</time>
      </trkpt>
      <trkpt lat="42.24293" lon="19.70307">
        <ele>713.44000244141</ele>
        <time>2024-09-23T16:06:37.000Z</time>
      </trkpt>
      <trkpt lat="42.24287" lon="19.70311">
        <ele>712.95001220703</ele>
        <time>2024-09-23T16:06:38.000Z</time>
      </trkpt>
      <trkpt lat="42.2428" lon="19.70319">
        <ele>711.98999023438</ele>
        <time>2024-09-23T16:06:39.000Z</time>
      </trkpt>
      <trkpt lat="42.24273" lon="19.70329">
        <ele>711.03002929688</ele>
        <time>2024-09-23T16:06:40.000Z</time>
      </trkpt>
      <trkpt lat="42.24264" lon="19.70347">
        <ele>709.10998535156</ele>
        <time>2024-09-23T16:06:41.000Z</time>
      </trkpt>
      <trkpt lat="42.24258" lon="19.7036">
        <ele>708.63000488281</ele>
        <time>2024-09-23T16:06:42.000Z</time>
      </trkpt>
      <trkpt lat="42.2424" lon="19.7039">
        <ele>706.71002197266</ele>
        <time>2024-09-23T16:06:44.000Z</time>
      </trkpt>
      <trkpt lat="42.24239" lon="19.70392">
        <ele>706.71002197266</ele>
        <time>2024-09-23T16:06:45.000Z</time>
      </trkpt>
      <trkpt lat="42.24234" lon="19.70402">
        <ele>706.22998046875</ele>
        <time>2024-09-23T16:06:46.000Z</time>
      </trkpt>
      <trkpt lat="42.24232" lon="19.70413">
        <ele>706.71002197266</ele>
        <time>2024-09-23T16:06:47.000Z</time>
      </trkpt>
      <trkpt lat="42.24232" lon="19.70427">
        <ele>706.22998046875</ele>
        <time>2024-09-23T16:06:48.000Z</time>
      </trkpt>
      <trkpt lat="42.24233" lon="19.70454">
        <ele>706.22998046875</ele>
        <time>2024-09-23T16:06:50.000Z</time>
      </trkpt>
      <trkpt lat="42.24232" lon="19.70465">
        <ele>706.22998046875</ele>
        <time>2024-09-23T16:06:51.000Z</time>
      </trkpt>
      <trkpt lat="42.2423" lon="19.70474">
        <ele>706.22998046875</ele>
        <time>2024-09-23T16:06:52.000Z</time>
      </trkpt>
      <trkpt lat="42.24228" lon="19.7048">
        <ele>705.75</ele>
        <time>2024-09-23T16:06:53.000Z</time>
      </trkpt>
      <trkpt lat="42.24224" lon="19.70483">
        <ele>705.26000976562</ele>
        <time>2024-09-23T16:06:54.000Z</time>
      </trkpt>
      <trkpt lat="42.24215" lon="19.70479">
        <ele>704.29998779297</ele>
        <time>2024-09-23T16:06:56.000Z</time>
      </trkpt>
      <trkpt lat="42.24214" lon="19.70477">
        <ele>703.82000732422</ele>
        <time>2024-09-23T16:06:57.000Z</time>
      </trkpt>
      <trkpt lat="42.24213" lon="19.70469">
        <ele>702.85998535156</ele>
        <time>2024-09-23T16:06:58.000Z</time>
      </trkpt>
      <trkpt lat="42.24213" lon="19.70461">
        <ele>702.38000488281</ele>
        <time>2024-09-23T16:06:59.000Z</time>
      </trkpt>
      <trkpt lat="42.24215" lon="19.70451">
        <ele>701.41998291016</ele>
        <time>2024-09-23T16:07:00.000Z</time>
      </trkpt>
      <trkpt lat="42.24216" lon="19.7044">
        <ele>699.97998046875</ele>
        <time>2024-09-23T16:07:01.000Z</time>
      </trkpt>
      <trkpt lat="42.24217" lon="19.70409">
        <ele>699.02001953125</ele>
        <time>2024-09-23T16:07:03.000Z</time>
      </trkpt>
      <trkpt lat="42.24218" lon="19.70398">
        <ele>698.53002929688</ele>
        <time>2024-09-23T16:07:04.000Z</time>
      </trkpt>
      <trkpt lat="42.2422" lon="19.70388">
        <ele>697.57000732422</ele>
        <time>2024-09-23T16:07:05.000Z</time>
      </trkpt>
      <trkpt lat="42.24225" lon="19.70378">
        <ele>697.09002685547</ele>
        <time>2024-09-23T16:07:06.000Z</time>
      </trkpt>
      <trkpt lat="42.2423" lon="19.70367">
        <ele>696.13000488281</ele>
        <time>2024-09-23T16:07:07.000Z</time>
      </trkpt>
      <trkpt lat="42.24233" lon="19.70359">
        <ele>696.13000488281</ele>
        <time>2024-09-23T16:07:08.000Z</time>
      </trkpt>
      <trkpt lat="42.24233" lon="19.70349">
        <ele>695.65002441406</ele>
        <time>2024-09-23T16:07:09.000Z</time>
      </trkpt>
      <trkpt lat="42.24233" lon="19.70339">
        <ele>695.16998291016</ele>
        <time>2024-09-23T16:07:10.000Z</time>
      </trkpt>
      <trkpt lat="42.24234" lon="19.70328">
        <ele>694.21002197266</ele>
        <time>2024-09-23T16:07:11.000Z</time>
      </trkpt>
      <trkpt lat="42.24236" lon="19.70318">
        <ele>692.77001953125</ele>
        <time>2024-09-23T16:07:12.000Z</time>
      </trkpt>
      <trkpt lat="42.2424" lon="19.70307">
        <ele>692.28997802734</ele>
        <time>2024-09-23T16:07:13.000Z</time>
      </trkpt>
      <trkpt lat="42.24246" lon="19.70296">
        <ele>691.80999755859</ele>
        <time>2024-09-23T16:07:14.000Z</time>
      </trkpt>
      <trkpt lat="42.24268" lon="19.70263">
        <ele>690.35998535156</ele>
        <time>2024-09-23T16:07:17.000Z</time>
      </trkpt>
      <trkpt lat="42.24274" lon="19.70254">
        <ele>689.40002441406</ele>
        <time>2024-09-23T16:07:18.000Z</time>
      </trkpt>
      <trkpt lat="42.2428" lon="19.70246">
        <ele>687.96002197266</ele>
        <time>2024-09-23T16:07:19.000Z</time>
      </trkpt>
      <trkpt lat="42.24289" lon="19.70235">
        <ele>687</ele>
        <time>2024-09-23T16:07:20.000Z</time>
      </trkpt>
      <trkpt lat="42.24295" lon="19.70228">
        <ele>686.03997802734</ele>
        <time>2024-09-23T16:07:21.000Z</time>
      </trkpt>
      <trkpt lat="42.24301" lon="19.70217">
        <ele>685.55999755859</ele>
        <time>2024-09-23T16:07:22.000Z</time>
      </trkpt>
      <trkpt lat="42.24306" lon="19.70206">
        <ele>685.08001708984</ele>
        <time>2024-09-23T16:07:23.000Z</time>
      </trkpt>
      <trkpt lat="42.2431" lon="19.70188">
        <ele>683.63000488281</ele>
        <time>2024-09-23T16:07:24.000Z</time>
      </trkpt>
      <trkpt lat="42.24316" lon="19.70165">
        <ele>682.66998291016</ele>
        <time>2024-09-23T16:07:25.000Z</time>
      </trkpt>
      <trkpt lat="42.24317" lon="19.70163">
        <ele>682.66998291016</ele>
        <time>2024-09-23T16:07:26.000Z</time>
      </trkpt>
      <trkpt lat="42.24321" lon="19.70151">
        <ele>682.66998291016</ele>
        <time>2024-09-23T16:07:27.000Z</time>
      </trkpt>
      <trkpt lat="42.24325" lon="19.70144">
        <ele>682.19000244141</ele>
        <time>2024-09-23T16:07:28.000Z</time>
      </trkpt>
      <trkpt lat="42.24329" lon="19.70141">
        <ele>681.22998046875</ele>
        <time>2024-09-23T16:07:29.000Z</time>
      </trkpt>
      <trkpt lat="42.24335" lon="19.7014">
        <ele>680.27001953125</ele>
        <time>2024-09-23T16:07:30.000Z</time>
      </trkpt>
      <trkpt lat="42.24341" lon="19.70139">
        <ele>679.30999755859</ele>
        <time>2024-09-23T16:07:31.000Z</time>
      </trkpt>
      <trkpt lat="42.24347" lon="19.70137">
        <ele>678.34997558594</ele>
        <time>2024-09-23T16:07:32.000Z</time>
      </trkpt>
      <trkpt lat="42.2435" lon="19.70131">
        <ele>678.34997558594</ele>
        <time>2024-09-23T16:07:33.000Z</time>
      </trkpt>
      <trkpt lat="42.24352" lon="19.70122">
        <ele>678.83001708984</ele>
        <time>2024-09-23T16:07:34.000Z</time>
      </trkpt>
      <trkpt lat="42.24354" lon="19.7011">
        <ele>678.34997558594</ele>
        <time>2024-09-23T16:07:35.000Z</time>
      </trkpt>
      <trkpt lat="42.24358" lon="19.70095">
        <ele>677.86999511719</ele>
        <time>2024-09-23T16:07:36.000Z</time>
      </trkpt>
      <trkpt lat="42.24365" lon="19.70075">
        <ele>676.90997314453</ele>
        <time>2024-09-23T16:07:37.000Z</time>
      </trkpt>
      <trkpt lat="42.24369" lon="19.70063">
        <ele>676.41998291016</ele>
        <time>2024-09-23T16:07:38.000Z</time>
      </trkpt>
      <trkpt lat="42.24374" lon="19.70044">
        <ele>675.94000244141</ele>
        <time>2024-09-23T16:07:39.000Z</time>
      </trkpt>
      <trkpt lat="42.24376" lon="19.7004">
        <ele>675.46002197266</ele>
        <time>2024-09-23T16:07:40.000Z</time>
      </trkpt>
      <trkpt lat="42.24381" lon="19.70027">
        <ele>674.97998046875</ele>
        <time>2024-09-23T16:07:41.000Z</time>
      </trkpt>
      <trkpt lat="42.24386" lon="19.70016">
        <ele>674.5</ele>
        <time>2024-09-23T16:07:42.000Z</time>
      </trkpt>
      <trkpt lat="42.24391" lon="19.70004">
        <ele>674.02001953125</ele>
        <time>2024-09-23T16:07:43.000Z</time>
      </trkpt>
      <trkpt lat="42.24396" lon="19.69994">
        <ele>673.53997802734</ele>
        <time>2024-09-23T16:07:44.000Z</time>
      </trkpt>
      <trkpt lat="42.244" lon="19.69987">
        <ele>673.05999755859</ele>
        <time>2024-09-23T16:07:45.000Z</time>
      </trkpt>
      <trkpt lat="42.24407" lon="19.69981">
        <ele>672.09997558594</ele>
        <time>2024-09-23T16:07:46.000Z</time>
      </trkpt>
      <trkpt lat="42.24421" lon="19.6997">
        <ele>669.70001220703</ele>
        <time>2024-09-23T16:07:47.000Z</time>
      </trkpt>
      <trkpt lat="42.24425" lon="19.69968">
        <ele>669.70001220703</ele>
        <time>2024-09-23T16:07:48.000Z</time>
      </trkpt>
      <trkpt lat="42.24434" lon="19.69958">
        <ele>668.72998046875</ele>
        <time>2024-09-23T16:07:49.000Z</time>
      </trkpt>
      <trkpt lat="42.24445" lon="19.69943">
        <ele>667.77001953125</ele>
        <time>2024-09-23T16:07:50.000Z</time>
      </trkpt>
      <trkpt lat="42.24448" lon="19.69939">
        <ele>667.28997802734</ele>
        <time>2024-09-23T16:07:51.000Z</time>
      </trkpt>
      <trkpt lat="42.24455" lon="19.69928">
        <ele>667.28997802734</ele>
        <time>2024-09-23T16:07:52.000Z</time>
      </trkpt>
      <trkpt lat="42.24463" lon="19.69907">
        <ele>666.33001708984</ele>
        <time>2024-09-23T16:07:53.000Z</time>
      </trkpt>
      <trkpt lat="42.24465" lon="19.69903">
        <ele>665.84997558594</ele>
        <time>2024-09-23T16:07:54.000Z</time>
      </trkpt>
      <trkpt lat="42.24469" lon="19.69894">
        <ele>665.36999511719</ele>
        <time>2024-09-23T16:07:55.000Z</time>
      </trkpt>
      <trkpt lat="42.24474" lon="19.69887">
        <ele>664.40997314453</ele>
        <time>2024-09-23T16:07:56.000Z</time>
      </trkpt>
      <trkpt lat="42.24479" lon="19.69884">
        <ele>663.92999267578</ele>
        <time>2024-09-23T16:07:57.000Z</time>
      </trkpt>
      <trkpt lat="42.24487" lon="19.69882">
        <ele>662.48999023438</ele>
        <time>2024-09-23T16:07:58.000Z</time>
      </trkpt>
      <trkpt lat="42.24494" lon="19.69883">
        <ele>661.52001953125</ele>
        <time>2024-09-23T16:07:59.000Z</time>
      </trkpt>
      <trkpt lat="42.24506" lon="19.69888">
        <ele>660.08001708984</ele>
        <time>2024-09-23T16:08:00.000Z</time>
      </trkpt>
      <trkpt lat="42.24511" lon="19.69889">
        <ele>659.59997558594</ele>
        <time>2024-09-23T16:08:01.000Z</time>
      </trkpt>
      <trkpt lat="42.24519" lon="19.69889">
        <ele>659.11999511719</ele>
        <time>2024-09-23T16:08:02.000Z</time>
      </trkpt>
      <trkpt lat="42.24526" lon="19.69887">
        <ele>658.64001464844</ele>
        <time>2024-09-23T16:08:03.000Z</time>
      </trkpt>
      <trkpt lat="42.24531" lon="19.69882">
        <ele>659.11999511719</ele>
        <time>2024-09-23T16:08:04.000Z</time>
      </trkpt>
      <trkpt lat="42.24536" lon="19.69875">
        <ele>659.11999511719</ele>
        <time>2024-09-23T16:08:05.000Z</time>
      </trkpt>
      <trkpt lat="42.24538" lon="19.69867">
        <ele>658.64001464844</ele>
        <time>2024-09-23T16:08:06.000Z</time>
      </trkpt>
      <trkpt lat="42.24539" lon="19.69857">
        <ele>658.15997314453</ele>
        <time>2024-09-23T16:08:07.000Z</time>
      </trkpt>
      <trkpt lat="42.2454" lon="19.6985">
        <ele>657.67999267578</ele>
        <time>2024-09-23T16:08:08.000Z</time>
      </trkpt>
      <trkpt lat="42.24543" lon="19.69842">
        <ele>657.67999267578</ele>
        <time>2024-09-23T16:08:09.000Z</time>
      </trkpt>
      <trkpt lat="42.24547" lon="19.69836">
        <ele>657.20001220703</ele>
        <time>2024-09-23T16:08:10.000Z</time>
      </trkpt>
      <trkpt lat="42.24553" lon="19.69833">
        <ele>656.71997070312</ele>
        <time>2024-09-23T16:08:11.000Z</time>
      </trkpt>
      <trkpt lat="42.24559" lon="19.69831">
        <ele>655.76000976562</ele>
        <time>2024-09-23T16:08:12.000Z</time>
      </trkpt>
      <trkpt lat="42.24573" lon="19.69828">
        <ele>654.30999755859</ele>
        <time>2024-09-23T16:08:14.000Z</time>
      </trkpt>
      <trkpt lat="42.24579" lon="19.69827">
        <ele>653.34997558594</ele>
        <time>2024-09-23T16:08:15.000Z</time>
      </trkpt>
      <trkpt lat="42.24582" lon="19.69823">
        <ele>652.86999511719</ele>
        <time>2024-09-23T16:08:16.000Z</time>
      </trkpt>
      <trkpt lat="42.24583" lon="19.69818">
        <ele>652.39001464844</ele>
        <time>2024-09-23T16:08:17.000Z</time>
      </trkpt>
      <trkpt lat="42.24583" lon="19.69812">
        <ele>650.95001220703</ele>
        <time>2024-09-23T16:08:18.000Z</time>
      </trkpt>
      <trkpt lat="42.2458" lon="19.69808">
        <ele>650.46997070312</ele>
        <time>2024-09-23T16:08:19.000Z</time>
      </trkpt>
      <trkpt lat="42.24575" lon="19.69807">
        <ele>649.98999023438</ele>
        <time>2024-09-23T16:08:20.000Z</time>
      </trkpt>
      <trkpt lat="42.24566" lon="19.69807">
        <ele>648.54998779297</ele>
        <time>2024-09-23T16:08:21.000Z</time>
      </trkpt>
      <trkpt lat="42.24557" lon="19.69809">
        <ele>647.59002685547</ele>
        <time>2024-09-23T16:08:22.000Z</time>
      </trkpt>
      <trkpt lat="42.24552" lon="19.6981">
        <ele>647.09997558594</ele>
        <time>2024-09-23T16:08:23.000Z</time>
      </trkpt>
      <trkpt lat="42.24545" lon="19.69813">
        <ele>646.14001464844</ele>
        <time>2024-09-23T16:08:24.000Z</time>
      </trkpt>
      <trkpt lat="42.24537" lon="19.69817">
        <ele>645.65997314453</ele>
        <time>2024-09-23T16:08:25.000Z</time>
      </trkpt>
      <trkpt lat="42.24531" lon="19.69823">
        <ele>645.17999267578</ele>
        <time>2024-09-23T16:08:26.000Z</time>
      </trkpt>
      <trkpt lat="42.24527" lon="19.69832">
        <ele>644.70001220703</ele>
        <time>2024-09-23T16:08:27.000Z</time>
      </trkpt>
      <trkpt lat="42.24524" lon="19.69842">
        <ele>644.21997070312</ele>
        <time>2024-09-23T16:08:28.000Z</time>
      </trkpt>
      <trkpt lat="42.24521" lon="19.6985">
        <ele>643.73999023438</ele>
        <time>2024-09-23T16:08:29.000Z</time>
      </trkpt>
      <trkpt lat="42.24516" lon="19.69854">
        <ele>643.73999023438</ele>
        <time>2024-09-23T16:08:30.000Z</time>
      </trkpt>
      <trkpt lat="42.24511" lon="19.69855">
        <ele>643.26000976562</ele>
        <time>2024-09-23T16:08:31.000Z</time>
      </trkpt>
      <trkpt lat="42.24505" lon="19.69854">
        <ele>643.26000976562</ele>
        <time>2024-09-23T16:08:32.000Z</time>
      </trkpt>
      <trkpt lat="42.24498" lon="19.69849">
        <ele>642.78002929688</ele>
        <time>2024-09-23T16:08:33.000Z</time>
      </trkpt>
      <trkpt lat="42.2449" lon="19.69842">
        <ele>642.29998779297</ele>
        <time>2024-09-23T16:08:34.000Z</time>
      </trkpt>
      <trkpt lat="42.24485" lon="19.69835">
        <ele>641.34002685547</ele>
        <time>2024-09-23T16:08:35.000Z</time>
      </trkpt>
      <trkpt lat="42.24479" lon="19.69826">
        <ele>640.38000488281</ele>
        <time>2024-09-23T16:08:36.000Z</time>
      </trkpt>
      <trkpt lat="42.24474" lon="19.69811">
        <ele>639.40997314453</ele>
        <time>2024-09-23T16:08:37.000Z</time>
      </trkpt>
      <trkpt lat="42.24468" lon="19.69801">
        <ele>638.45001220703</ele>
        <time>2024-09-23T16:08:38.000Z</time>
      </trkpt>
      <trkpt lat="42.24462" lon="19.6979">
        <ele>637.48999023438</ele>
        <time>2024-09-23T16:08:39.000Z</time>
      </trkpt>
      <trkpt lat="42.24456" lon="19.69783">
        <ele>636.04998779297</ele>
        <time>2024-09-23T16:08:40.000Z</time>
      </trkpt>
      <trkpt lat="42.24449" lon="19.69779">
        <ele>634.60998535156</ele>
        <time>2024-09-23T16:08:41.000Z</time>
      </trkpt>
      <trkpt lat="42.24441" lon="19.69777">
        <ele>633.16998291016</ele>
        <time>2024-09-23T16:08:42.000Z</time>
      </trkpt>
      <trkpt lat="42.24433" lon="19.6978">
        <ele>632.20001220703</ele>
        <time>2024-09-23T16:08:43.000Z</time>
      </trkpt>
      <trkpt lat="42.24425" lon="19.69786">
        <ele>630.76000976562</ele>
        <time>2024-09-23T16:08:44.000Z</time>
      </trkpt>
      <trkpt lat="42.24419" lon="19.69794">
        <ele>630.28002929688</ele>
        <time>2024-09-23T16:08:45.000Z</time>
      </trkpt>
      <trkpt lat="42.24415" lon="19.69804">
        <ele>628.84002685547</ele>
        <time>2024-09-23T16:08:46.000Z</time>
      </trkpt>
      <trkpt lat="42.24409" lon="19.69823">
        <ele>627.40002441406</ele>
        <time>2024-09-23T16:08:47.000Z</time>
      </trkpt>
      <trkpt lat="42.24408" lon="19.69825">
        <ele>627.40002441406</ele>
        <time>2024-09-23T16:08:48.000Z</time>
      </trkpt>
      <trkpt lat="42.24404" lon="19.69832">
        <ele>626.44000244141</ele>
        <time>2024-09-23T16:08:49.000Z</time>
      </trkpt>
      <trkpt lat="42.24399" lon="19.69837">
        <ele>626.44000244141</ele>
        <time>2024-09-23T16:08:50.000Z</time>
      </trkpt>
      <trkpt lat="42.24392" lon="19.6984">
        <ele>625.96002197266</ele>
        <time>2024-09-23T16:08:51.000Z</time>
      </trkpt>
      <trkpt lat="42.24366" lon="19.69841">
        <ele>624.03002929688</ele>
        <time>2024-09-23T16:08:54.000Z</time>
      </trkpt>
      <trkpt lat="42.24358" lon="19.6984">
        <ele>623.54998779297</ele>
        <time>2024-09-23T16:08:55.000Z</time>
      </trkpt>
      <trkpt lat="42.24351" lon="19.69837">
        <ele>623.07000732422</ele>
        <time>2024-09-23T16:08:56.000Z</time>
      </trkpt>
      <trkpt lat="42.24343" lon="19.6983">
        <ele>621.63000488281</ele>
        <time>2024-09-23T16:08:57.000Z</time>
      </trkpt>
      <trkpt lat="42.24339" lon="19.69826">
        <ele>621.15002441406</ele>
        <time>2024-09-23T16:08:58.000Z</time>
      </trkpt>
      <trkpt lat="42.24334" lon="19.69823">
        <ele>619.71002197266</ele>
        <time>2024-09-23T16:08:59.000Z</time>
      </trkpt>
      <trkpt lat="42.24328" lon="19.69822">
        <ele>618.75</ele>
        <time>2024-09-23T16:09:00.000Z</time>
      </trkpt>
      <trkpt lat="42.24324" lon="19.69823">
        <ele>617.78002929688</ele>
        <time>2024-09-23T16:09:01.000Z</time>
      </trkpt>
      <trkpt lat="42.24321" lon="19.69827">
        <ele>617.29998779297</ele>
        <time>2024-09-23T16:09:02.000Z</time>
      </trkpt>
      <trkpt lat="42.24319" lon="19.69835">
        <ele>616.82000732422</ele>
        <time>2024-09-23T16:09:03.000Z</time>
      </trkpt>
      <trkpt lat="42.24319" lon="19.69844">
        <ele>616.82000732422</ele>
        <time>2024-09-23T16:09:04.000Z</time>
      </trkpt>
      <trkpt lat="42.2432" lon="19.6986">
        <ele>615.85998535156</ele>
        <time>2024-09-23T16:09:05.000Z</time>
      </trkpt>
      <trkpt lat="42.2432" lon="19.69862">
        <ele>615.85998535156</ele>
        <time>2024-09-23T16:09:06.000Z</time>
      </trkpt>
      <trkpt lat="42.2432" lon="19.69871">
        <ele>615.38000488281</ele>
        <time>2024-09-23T16:09:07.000Z</time>
      </trkpt>
      <trkpt lat="42.24318" lon="19.69876">
        <ele>615.38000488281</ele>
        <time>2024-09-23T16:09:08.000Z</time>
      </trkpt>
      <trkpt lat="42.24314" lon="19.69878">
        <ele>614.90002441406</ele>
        <time>2024-09-23T16:09:09.000Z</time>
      </trkpt>
      <trkpt lat="42.24309" lon="19.69877">
        <ele>614.41998291016</ele>
        <time>2024-09-23T16:09:10.000Z</time>
      </trkpt>
      <trkpt lat="42.24304" lon="19.69875">
        <ele>613.94000244141</ele>
        <time>2024-09-23T16:09:11.000Z</time>
      </trkpt>
      <trkpt lat="42.24298" lon="19.69869">
        <ele>613.46002197266</ele>
        <time>2024-09-23T16:09:12.000Z</time>
      </trkpt>
      <trkpt lat="42.24293" lon="19.69859">
        <ele>612.5</ele>
        <time>2024-09-23T16:09:13.000Z</time>
      </trkpt>
      <trkpt lat="42.24285" lon="19.69837">
        <ele>611.05999755859</ele>
        <time>2024-09-23T16:09:14.000Z</time>
      </trkpt>
      <trkpt lat="42.24284" lon="19.69835">
        <ele>611.05999755859</ele>
        <time>2024-09-23T16:09:15.000Z</time>
      </trkpt>
      <trkpt lat="42.2428" lon="19.69823">
        <ele>609.60998535156</ele>
        <time>2024-09-23T16:09:16.000Z</time>
      </trkpt>
      <trkpt lat="42.24277" lon="19.69816">
        <ele>609.13000488281</ele>
        <time>2024-09-23T16:09:17.000Z</time>
      </trkpt>
      <trkpt lat="42.24273" lon="19.69811">
        <ele>607.69000244141</ele>
        <time>2024-09-23T16:09:18.000Z</time>
      </trkpt>
      <trkpt lat="42.24267" lon="19.69809">
        <ele>606.25</ele>
        <time>2024-09-23T16:09:19.000Z</time>
      </trkpt>
      <trkpt lat="42.24263" lon="19.69811">
        <ele>604.80999755859</ele>
        <time>2024-09-23T16:09:20.000Z</time>
      </trkpt>
      <trkpt lat="42.24258" lon="19.69815">
        <ele>603.84997558594</ele>
        <time>2024-09-23T16:09:21.000Z</time>
      </trkpt>
      <trkpt lat="42.24254" lon="19.69823">
        <ele>602.88000488281</ele>
        <time>2024-09-23T16:09:22.000Z</time>
      </trkpt>
      <trkpt lat="42.2425" lon="19.69831">
        <ele>601.91998291016</ele>
        <time>2024-09-23T16:09:23.000Z</time>
      </trkpt>
      <trkpt lat="42.24244" lon="19.6984">
        <ele>601.44000244141</ele>
        <time>2024-09-23T16:09:24.000Z</time>
      </trkpt>
      <trkpt lat="42.24238" lon="19.69848">
        <ele>600.96002197266</ele>
        <time>2024-09-23T16:09:25.000Z</time>
      </trkpt>
      <trkpt lat="42.24226" lon="19.69857">
        <ele>599.52001953125</ele>
        <time>2024-09-23T16:09:26.000Z</time>
      </trkpt>
      <trkpt lat="42.24219" lon="19.69862">
        <ele>599.03997802734</ele>
        <time>2024-09-23T16:09:27.000Z</time>
      </trkpt>
      <trkpt lat="42.24211" lon="19.69866">
        <ele>598.08001708984</ele>
        <time>2024-09-23T16:09:28.000Z</time>
      </trkpt>
      <trkpt lat="42.24206" lon="19.69869">
        <ele>597.59997558594</ele>
        <time>2024-09-23T16:09:29.000Z</time>
      </trkpt>
      <trkpt lat="42.24202" lon="19.69874">
        <ele>597.59997558594</ele>
        <time>2024-09-23T16:09:30.000Z</time>
      </trkpt>
      <trkpt lat="42.24199" lon="19.69882">
        <ele>597.11999511719</ele>
        <time>2024-09-23T16:09:31.000Z</time>
      </trkpt>
      <trkpt lat="42.24195" lon="19.69894">
        <ele>596.64001464844</ele>
        <time>2024-09-23T16:09:32.000Z</time>
      </trkpt>
      <trkpt lat="42.24187" lon="19.69916">
        <ele>595.19000244141</ele>
        <time>2024-09-23T16:09:34.000Z</time>
      </trkpt>
      <trkpt lat="42.24184" lon="19.69925">
        <ele>594.22998046875</ele>
        <time>2024-09-23T16:09:35.000Z</time>
      </trkpt>
      <trkpt lat="42.24179" lon="19.6995">
        <ele>593.27001953125</ele>
        <time>2024-09-23T16:09:36.000Z</time>
      </trkpt>
      <trkpt lat="42.24178" lon="19.69953">
        <ele>592.78997802734</ele>
        <time>2024-09-23T16:09:37.000Z</time>
      </trkpt>
      <trkpt lat="42.2417" lon="19.69981">
        <ele>591.34997558594</ele>
        <time>2024-09-23T16:09:39.000Z</time>
      </trkpt>
      <trkpt lat="42.24163" lon="19.70024">
        <ele>587.97998046875</ele>
        <time>2024-09-23T16:09:41.000Z</time>
      </trkpt>
      <trkpt lat="42.24161" lon="19.70033">
        <ele>587.02001953125</ele>
        <time>2024-09-23T16:09:42.000Z</time>
      </trkpt>
      <trkpt lat="42.24156" lon="19.70052">
        <ele>585.58001708984</ele>
        <time>2024-09-23T16:09:43.000Z</time>
      </trkpt>
      <trkpt lat="42.24154" lon="19.70058">
        <ele>585.09997558594</ele>
        <time>2024-09-23T16:09:44.000Z</time>
      </trkpt>
      <trkpt lat="42.24149" lon="19.70086">
        <ele>582.21997070312</ele>
        <time>2024-09-23T16:09:46.000Z</time>
      </trkpt>
      <trkpt lat="42.24146" lon="19.70094">
        <ele>581.72998046875</ele>
        <time>2024-09-23T16:09:47.000Z</time>
      </trkpt>
      <trkpt lat="42.24142" lon="19.70099">
        <ele>580.77001953125</ele>
        <time>2024-09-23T16:09:48.000Z</time>
      </trkpt>
      <trkpt lat="42.24135" lon="19.70103">
        <ele>580.28997802734</ele>
        <time>2024-09-23T16:09:49.000Z</time>
      </trkpt>
      <trkpt lat="42.24127" lon="19.70104">
        <ele>579.80999755859</ele>
        <time>2024-09-23T16:09:50.000Z</time>
      </trkpt>
      <trkpt lat="42.24114" lon="19.70102">
        <ele>578.84997558594</ele>
        <time>2024-09-23T16:09:51.000Z</time>
      </trkpt>
      <trkpt lat="42.24109" lon="19.70101">
        <ele>578.36999511719</ele>
        <time>2024-09-23T16:09:52.000Z</time>
      </trkpt>
      <trkpt lat="42.241" lon="19.70102">
        <ele>577.89001464844</ele>
        <time>2024-09-23T16:09:53.000Z</time>
      </trkpt>
      <trkpt lat="42.24093" lon="19.70106">
        <ele>576.92999267578</ele>
        <time>2024-09-23T16:09:54.000Z</time>
      </trkpt>
      <trkpt lat="42.24086" lon="19.70114">
        <ele>576.92999267578</ele>
        <time>2024-09-23T16:09:55.000Z</time>
      </trkpt>
      <trkpt lat="42.24079" lon="19.70125">
        <ele>576.92999267578</ele>
        <time>2024-09-23T16:09:56.000Z</time>
      </trkpt>
      <trkpt lat="42.24074" lon="19.70138">
        <ele>576.45001220703</ele>
        <time>2024-09-23T16:09:57.000Z</time>
      </trkpt>
      <trkpt lat="42.24068" lon="19.70158">
        <ele>575.48999023438</ele>
        <time>2024-09-23T16:09:58.000Z</time>
      </trkpt>
      <trkpt lat="42.24066" lon="19.70168">
        <ele>574.53002929688</ele>
        <time>2024-09-23T16:09:59.000Z</time>
      </trkpt>
      <trkpt lat="42.24064" lon="19.70184">
        <ele>573.55999755859</ele>
        <time>2024-09-23T16:10:00.000Z</time>
      </trkpt>
      <trkpt lat="42.24062" lon="19.70193">
        <ele>573.08001708984</ele>
        <time>2024-09-23T16:10:01.000Z</time>
      </trkpt>
      <trkpt lat="42.24061" lon="19.70201">
        <ele>572.11999511719</ele>
        <time>2024-09-23T16:10:02.000Z</time>
      </trkpt>
      <trkpt lat="42.24057" lon="19.70206">
        <ele>571.64001464844</ele>
        <time>2024-09-23T16:10:03.000Z</time>
      </trkpt>
      <trkpt lat="42.24053" lon="19.70209">
        <ele>571.15997314453</ele>
        <time>2024-09-23T16:10:04.000Z</time>
      </trkpt>
      <trkpt lat="42.24048" lon="19.70208">
        <ele>570.67999267578</ele>
        <time>2024-09-23T16:10:05.000Z</time>
      </trkpt>
      <trkpt lat="42.24039" lon="19.70205">
        <ele>570.20001220703</ele>
        <time>2024-09-23T16:10:06.000Z</time>
      </trkpt>
      <trkpt lat="42.2403" lon="19.702">
        <ele>569.23999023438</ele>
        <time>2024-09-23T16:10:07.000Z</time>
      </trkpt>
      <trkpt lat="42.24021" lon="19.70197">
        <ele>568.76000976562</ele>
        <time>2024-09-23T16:10:08.000Z</time>
      </trkpt>
      <trkpt lat="42.2401" lon="19.70199">
        <ele>568.76000976562</ele>
        <time>2024-09-23T16:10:09.000Z</time>
      </trkpt>
      <trkpt lat="42.24001" lon="19.70203">
        <ele>568.76000976562</ele>
        <time>2024-09-23T16:10:10.000Z</time>
      </trkpt>
      <trkpt lat="42.2399" lon="19.7021">
        <ele>568.76000976562</ele>
        <time>2024-09-23T16:10:11.000Z</time>
      </trkpt>
      <trkpt lat="42.23981" lon="19.7022">
        <ele>568.76000976562</ele>
        <time>2024-09-23T16:10:12.000Z</time>
      </trkpt>
      <trkpt lat="42.23972" lon="19.70232">
        <ele>567.79998779297</ele>
        <time>2024-09-23T16:10:13.000Z</time>
      </trkpt>
      <trkpt lat="42.23965" lon="19.70241">
        <ele>566.83001708984</ele>
        <time>2024-09-23T16:10:14.000Z</time>
      </trkpt>
      <trkpt lat="42.23951" lon="19.70256">
        <ele>565.86999511719</ele>
        <time>2024-09-23T16:10:15.000Z</time>
      </trkpt>
      <trkpt lat="42.23948" lon="19.7026">
        <ele>565.39001464844</ele>
        <time>2024-09-23T16:10:16.000Z</time>
      </trkpt>
      <trkpt lat="42.2394" lon="19.70271">
        <ele>564.90997314453</ele>
        <time>2024-09-23T16:10:17.000Z</time>
      </trkpt>
      <trkpt lat="42.23936" lon="19.7028">
        <ele>564.90997314453</ele>
        <time>2024-09-23T16:10:18.000Z</time>
      </trkpt>
      <trkpt lat="42.23932" lon="19.7029">
        <ele>563.95001220703</ele>
        <time>2024-09-23T16:10:19.000Z</time>
      </trkpt>
      <trkpt lat="42.23929" lon="19.703">
        <ele>563.95001220703</ele>
        <time>2024-09-23T16:10:20.000Z</time>
      </trkpt>
      <trkpt lat="42.23926" lon="19.70316">
        <ele>562.98999023438</ele>
        <time>2024-09-23T16:10:21.000Z</time>
      </trkpt>
      <trkpt lat="42.23924" lon="19.70327">
        <ele>561.54998779297</ele>
        <time>2024-09-23T16:10:22.000Z</time>
      </trkpt>
      <trkpt lat="42.23923" lon="19.70329">
        <ele>561.54998779297</ele>
        <time>2024-09-23T16:10:23.000Z</time>
      </trkpt>
      <trkpt lat="42.23916" lon="19.70342">
        <ele>560.10998535156</ele>
        <time>2024-09-23T16:10:26.000Z</time>
      </trkpt>
      <trkpt lat="42.23916" lon="19.70343">
        <ele>559.61999511719</ele>
        <time>2024-09-23T16:10:27.000Z</time>
      </trkpt>
      <trkpt lat="42.23911" lon="19.70343">
        <ele>559.61999511719</ele>
        <time>2024-09-23T16:10:28.000Z</time>
      </trkpt>
      <trkpt lat="42.23906" lon="19.70344">
        <ele>559.14001464844</ele>
        <time>2024-09-23T16:10:29.000Z</time>
      </trkpt>
      <trkpt lat="42.23898" lon="19.70343">
        <ele>557.70001220703</ele>
        <time>2024-09-23T16:10:30.000Z</time>
      </trkpt>
      <trkpt lat="42.2389" lon="19.7034">
        <ele>557.21997070312</ele>
        <time>2024-09-23T16:10:31.000Z</time>
      </trkpt>
      <trkpt lat="42.23882" lon="19.70336">
        <ele>556.26000976562</ele>
        <time>2024-09-23T16:10:32.000Z</time>
      </trkpt>
      <trkpt lat="42.23872" lon="19.7033">
        <ele>555.29998779297</ele>
        <time>2024-09-23T16:10:33.000Z</time>
      </trkpt>
      <trkpt lat="42.23854" lon="19.70315">
        <ele>553.38000488281</ele>
        <time>2024-09-23T16:10:35.000Z</time>
      </trkpt>
      <trkpt lat="42.23846" lon="19.7031">
        <ele>552.90002441406</ele>
        <time>2024-09-23T16:10:36.000Z</time>
      </trkpt>
      <trkpt lat="42.23838" lon="19.70307">
        <ele>551.92999267578</ele>
        <time>2024-09-23T16:10:37.000Z</time>
      </trkpt>
      <trkpt lat="42.23831" lon="19.70307">
        <ele>551.45001220703</ele>
        <time>2024-09-23T16:10:38.000Z</time>
      </trkpt>
      <trkpt lat="42.23822" lon="19.70307">
        <ele>550.48999023438</ele>
        <time>2024-09-23T16:10:39.000Z</time>
      </trkpt>
      <trkpt lat="42.23815" lon="19.70305">
        <ele>549.04998779297</ele>
        <time>2024-09-23T16:10:40.000Z</time>
      </trkpt>
      <trkpt lat="42.23809" lon="19.703">
        <ele>548.57000732422</ele>
        <time>2024-09-23T16:10:41.000Z</time>
      </trkpt>
      <trkpt lat="42.23804" lon="19.70293">
        <ele>547.60998535156</ele>
        <time>2024-09-23T16:10:42.000Z</time>
      </trkpt>
      <trkpt lat="42.23801" lon="19.70284">
        <ele>545.69000244141</ele>
        <time>2024-09-23T16:10:43.000Z</time>
      </trkpt>
      <trkpt lat="42.238" lon="19.70274">
        <ele>543.76000976562</ele>
        <time>2024-09-23T16:10:44.000Z</time>
      </trkpt>
      <trkpt lat="42.23799" lon="19.7025">
        <ele>539.44000244141</ele>
        <time>2024-09-23T16:10:46.000Z</time>
      </trkpt>
      <trkpt lat="42.23799" lon="19.70248">
        <ele>539.44000244141</ele>
        <time>2024-09-23T16:10:47.000Z</time>
      </trkpt>
      <trkpt lat="42.23799" lon="19.70241">
        <ele>537.98999023438</ele>
        <time>2024-09-23T16:10:48.000Z</time>
      </trkpt>
      <trkpt lat="42.23799" lon="19.70235">
        <ele>537.03002929688</ele>
        <time>2024-09-23T16:10:49.000Z</time>
      </trkpt>
      <trkpt lat="42.23798" lon="19.70202">
        <ele>534.15002441406</ele>
        <time>2024-09-23T16:10:57.000Z</time>
      </trkpt>
      <trkpt lat="42.23787" lon="19.70163">
        <ele>531.75</ele>
        <time>2024-09-23T16:11:07.000Z</time>
      </trkpt>
      <trkpt lat="42.2378" lon="19.70147">
        <ele>530.78997802734</ele>
        <time>2024-09-23T16:11:11.000Z</time>
      </trkpt>
      <trkpt lat="42.23779" lon="19.70143">
        <ele>530.78997802734</ele>
        <time>2024-09-23T16:11:12.000Z</time>
      </trkpt>
      <trkpt lat="42.23778" lon="19.70138">
        <ele>530.78997802734</ele>
        <time>2024-09-23T16:11:13.000Z</time>
      </trkpt>
      <trkpt lat="42.23777" lon="19.70131">
        <ele>530.78997802734</ele>
        <time>2024-09-23T16:11:14.000Z</time>
      </trkpt>
      <trkpt lat="42.23776" lon="19.70125">
        <ele>531.27001953125</ele>
        <time>2024-09-23T16:11:15.000Z</time>
      </trkpt>
      <trkpt lat="42.23776" lon="19.70118">
        <ele>530.78997802734</ele>
        <time>2024-09-23T16:11:16.000Z</time>
      </trkpt>
      <trkpt lat="42.23777" lon="19.70111">
        <ele>531.27001953125</ele>
        <time>2024-09-23T16:11:17.000Z</time>
      </trkpt>
      <trkpt lat="42.23779" lon="19.70103">
        <ele>531.27001953125</ele>
        <time>2024-09-23T16:11:18.000Z</time>
      </trkpt>
      <trkpt lat="42.23782" lon="19.70097">
        <ele>531.27001953125</ele>
        <time>2024-09-23T16:11:19.000Z</time>
      </trkpt>
      <trkpt lat="42.23785" lon="19.70092">
        <ele>531.27001953125</ele>
        <time>2024-09-23T16:11:20.000Z</time>
      </trkpt>
      <trkpt lat="42.23789" lon="19.70087">
        <ele>530.78997802734</ele>
        <time>2024-09-23T16:11:21.000Z</time>
      </trkpt>
      <trkpt lat="42.23793" lon="19.70082">
        <ele>530.29998779297</ele>
        <time>2024-09-23T16:11:22.000Z</time>
      </trkpt>
      <trkpt lat="42.23799" lon="19.7008">
        <ele>529.34002685547</ele>
        <time>2024-09-23T16:11:23.000Z</time>
      </trkpt>
      <trkpt lat="42.23805" lon="19.70079">
        <ele>528.85998535156</ele>
        <time>2024-09-23T16:11:24.000Z</time>
      </trkpt>
      <trkpt lat="42.23812" lon="19.70079">
        <ele>528.38000488281</ele>
        <time>2024-09-23T16:11:25.000Z</time>
      </trkpt>
      <trkpt lat="42.2382" lon="19.70083">
        <ele>527.41998291016</ele>
        <time>2024-09-23T16:11:26.000Z</time>
      </trkpt>
      <trkpt lat="42.23826" lon="19.70088">
        <ele>527.41998291016</ele>
        <time>2024-09-23T16:11:27.000Z</time>
      </trkpt>
      <trkpt lat="42.23837" lon="19.70099">
        <ele>525.5</ele>
        <time>2024-09-23T16:11:28.000Z</time>
      </trkpt>
      <trkpt lat="42.23842" lon="19.70103">
        <ele>525.02001953125</ele>
        <time>2024-09-23T16:11:29.000Z</time>
      </trkpt>
      <trkpt lat="42.23846" lon="19.70106">
        <ele>524.53997802734</ele>
        <time>2024-09-23T16:11:30.000Z</time>
      </trkpt>
      <trkpt lat="42.23852" lon="19.70109">
        <ele>524.05999755859</ele>
        <time>2024-09-23T16:11:31.000Z</time>
      </trkpt>
      <trkpt lat="42.23856" lon="19.7011">
        <ele>523.58001708984</ele>
        <time>2024-09-23T16:11:32.000Z</time>
      </trkpt>
      <trkpt lat="42.2386" lon="19.70107">
        <ele>523.58001708984</ele>
        <time>2024-09-23T16:11:33.000Z</time>
      </trkpt>
      <trkpt lat="42.23862" lon="19.70101">
        <ele>523.09002685547</ele>
        <time>2024-09-23T16:11:34.000Z</time>
      </trkpt>
      <trkpt lat="42.23863" lon="19.70094">
        <ele>522.13000488281</ele>
        <time>2024-09-23T16:11:35.000Z</time>
      </trkpt>
      <trkpt lat="42.23864" lon="19.70088">
        <ele>521.65002441406</ele>
        <time>2024-09-23T16:11:36.000Z</time>
      </trkpt>
      <trkpt lat="42.23867" lon="19.70082">
        <ele>521.16998291016</ele>
        <time>2024-09-23T16:11:37.000Z</time>
      </trkpt>
      <trkpt lat="42.23869" lon="19.70077">
        <ele>520.69000244141</ele>
        <time>2024-09-23T16:11:38.000Z</time>
      </trkpt>
      <trkpt lat="42.23873" lon="19.70072">
        <ele>520.69000244141</ele>
        <time>2024-09-23T16:11:39.000Z</time>
      </trkpt>
      <trkpt lat="42.23879" lon="19.70068">
        <ele>520.69000244141</ele>
        <time>2024-09-23T16:11:40.000Z</time>
      </trkpt>
      <trkpt lat="42.2389" lon="19.70064">
        <ele>519.72998046875</ele>
        <time>2024-09-23T16:11:41.000Z</time>
      </trkpt>
      <trkpt lat="42.23893" lon="19.70063">
        <ele>519.25</ele>
        <time>2024-09-23T16:11:42.000Z</time>
      </trkpt>
      <trkpt lat="42.23898" lon="19.70061">
        <ele>518.77001953125</ele>
        <time>2024-09-23T16:11:43.000Z</time>
      </trkpt>
      <trkpt lat="42.23901" lon="19.70059">
        <ele>517.80999755859</ele>
        <time>2024-09-23T16:11:44.000Z</time>
      </trkpt>
      <trkpt lat="42.23905" lon="19.70054">
        <ele>517.33001708984</ele>
        <time>2024-09-23T16:11:45.000Z</time>
      </trkpt>
      <trkpt lat="42.23906" lon="19.70048">
        <ele>516.84997558594</ele>
        <time>2024-09-23T16:11:46.000Z</time>
      </trkpt>
      <trkpt lat="42.23906" lon="19.7004">
        <ele>516.36999511719</ele>
        <time>2024-09-23T16:11:47.000Z</time>
      </trkpt>
      <trkpt lat="42.23903" lon="19.70034">
        <ele>515.88000488281</ele>
        <time>2024-09-23T16:11:48.000Z</time>
      </trkpt>
      <trkpt lat="42.23897" lon="19.70025">
        <ele>515.40002441406</ele>
        <time>2024-09-23T16:11:49.000Z</time>
      </trkpt>
      <trkpt lat="42.23894" lon="19.7002">
        <ele>514.91998291016</ele>
        <time>2024-09-23T16:11:50.000Z</time>
      </trkpt>
      <trkpt lat="42.2389" lon="19.70013">
        <ele>515.40002441406</ele>
        <time>2024-09-23T16:11:51.000Z</time>
      </trkpt>
      <trkpt lat="42.23887" lon="19.70006">
        <ele>514.91998291016</ele>
        <time>2024-09-23T16:11:52.000Z</time>
      </trkpt>
      <trkpt lat="42.23886" lon="19.69998">
        <ele>514.91998291016</ele>
        <time>2024-09-23T16:11:53.000Z</time>
      </trkpt>
      <trkpt lat="42.23886" lon="19.69988">
        <ele>514.44000244141</ele>
        <time>2024-09-23T16:11:54.000Z</time>
      </trkpt>
      <trkpt lat="42.2389" lon="19.69968">
        <ele>513</ele>
        <time>2024-09-23T16:11:55.000Z</time>
      </trkpt>
      <trkpt lat="42.23892" lon="19.6996">
        <ele>512.52001953125</ele>
        <time>2024-09-23T16:11:56.000Z</time>
      </trkpt>
      <trkpt lat="42.23894" lon="19.69948">
        <ele>512.03997802734</ele>
        <time>2024-09-23T16:11:57.000Z</time>
      </trkpt>
      <trkpt lat="42.23896" lon="19.69938">
        <ele>511.55999755859</ele>
        <time>2024-09-23T16:11:58.000Z</time>
      </trkpt>
      <trkpt lat="42.23899" lon="19.69929">
        <ele>511.07998657227</ele>
        <time>2024-09-23T16:11:59.000Z</time>
      </trkpt>
      <trkpt lat="42.23903" lon="19.69922">
        <ele>510.60000610352</ele>
        <time>2024-09-23T16:12:00.000Z</time>
      </trkpt>
      <trkpt lat="42.2391" lon="19.69917">
        <ele>510.11999511719</ele>
        <time>2024-09-23T16:12:01.000Z</time>
      </trkpt>
      <trkpt lat="42.23919" lon="19.69911">
        <ele>510.11999511719</ele>
        <time>2024-09-23T16:12:02.000Z</time>
      </trkpt>
      <trkpt lat="42.23929" lon="19.69901">
        <ele>510.11999511719</ele>
        <time>2024-09-23T16:12:03.000Z</time>
      </trkpt>
      <trkpt lat="42.23952" lon="19.69873">
        <ele>509.64001464844</ele>
        <time>2024-09-23T16:12:05.000Z</time>
      </trkpt>
      <trkpt lat="42.23956" lon="19.6987">
        <ele>509.64001464844</ele>
        <time>2024-09-23T16:12:06.000Z</time>
      </trkpt>
      <trkpt lat="42.23962" lon="19.69866">
        <ele>510.11999511719</ele>
        <time>2024-09-23T16:12:07.000Z</time>
      </trkpt>
      <trkpt lat="42.23968" lon="19.69863">
        <ele>510.60000610352</ele>
        <time>2024-09-23T16:12:08.000Z</time>
      </trkpt>
      <trkpt lat="42.23975" lon="19.69864">
        <ele>510.60000610352</ele>
        <time>2024-09-23T16:12:09.000Z</time>
      </trkpt>
      <trkpt lat="42.23982" lon="19.69868">
        <ele>511.07998657227</ele>
        <time>2024-09-23T16:12:10.000Z</time>
      </trkpt>
      <trkpt lat="42.23988" lon="19.69874">
        <ele>511.07998657227</ele>
        <time>2024-09-23T16:12:11.000Z</time>
      </trkpt>
      <trkpt lat="42.23995" lon="19.69886">
        <ele>511.07998657227</ele>
        <time>2024-09-23T16:12:12.000Z</time>
      </trkpt>
      <trkpt lat="42.24" lon="19.69891">
        <ele>510.60000610352</ele>
        <time>2024-09-23T16:12:13.000Z</time>
      </trkpt>
      <trkpt lat="42.24005" lon="19.69896">
        <ele>510.11999511719</ele>
        <time>2024-09-23T16:12:14.000Z</time>
      </trkpt>
      <trkpt lat="42.2401" lon="19.69898">
        <ele>510.11999511719</ele>
        <time>2024-09-23T16:12:15.000Z</time>
      </trkpt>
      <trkpt lat="42.24014" lon="19.69897">
        <ele>510.11999511719</ele>
        <time>2024-09-23T16:12:16.000Z</time>
      </trkpt>
      <trkpt lat="42.24018" lon="19.69892">
        <ele>510.11999511719</ele>
        <time>2024-09-23T16:12:17.000Z</time>
      </trkpt>
      <trkpt lat="42.24021" lon="19.69884">
        <ele>509.64001464844</ele>
        <time>2024-09-23T16:12:18.000Z</time>
      </trkpt>
      <trkpt lat="42.24024" lon="19.69873">
        <ele>509.16000366211</ele>
        <time>2024-09-23T16:12:19.000Z</time>
      </trkpt>
      <trkpt lat="42.24028" lon="19.69861">
        <ele>508.67001342773</ele>
        <time>2024-09-23T16:12:20.000Z</time>
      </trkpt>
      <trkpt lat="42.24034" lon="19.69851">
        <ele>507.70999145508</ele>
        <time>2024-09-23T16:12:21.000Z</time>
      </trkpt>
      <trkpt lat="42.24039" lon="19.69845">
        <ele>506.75</ele>
        <time>2024-09-23T16:12:22.000Z</time>
      </trkpt>
      <trkpt lat="42.24058" lon="19.69829">
        <ele>504.35000610352</ele>
        <time>2024-09-23T16:12:24.000Z</time>
      </trkpt>
      <trkpt lat="42.24071" lon="19.69818">
        <ele>502.42999267578</ele>
        <time>2024-09-23T16:12:25.000Z</time>
      </trkpt>
      <trkpt lat="42.24072" lon="19.69817">
        <ele>502.42999267578</ele>
        <time>2024-09-23T16:12:26.000Z</time>
      </trkpt>
      <trkpt lat="42.24078" lon="19.6981">
        <ele>501.45999145508</ele>
        <time>2024-09-23T16:12:27.000Z</time>
      </trkpt>
      <trkpt lat="42.24085" lon="19.69794">
        <ele>500.01998901367</ele>
        <time>2024-09-23T16:12:28.000Z</time>
      </trkpt>
      <trkpt lat="42.2409" lon="19.69784">
        <ele>499.05999755859</ele>
        <time>2024-09-23T16:12:29.000Z</time>
      </trkpt>
      <trkpt lat="42.24102" lon="19.69762">
        <ele>496.66000366211</ele>
        <time>2024-09-23T16:12:31.000Z</time>
      </trkpt>
      <trkpt lat="42.24105" lon="19.69756">
        <ele>496.66000366211</ele>
        <time>2024-09-23T16:12:32.000Z</time>
      </trkpt>
      <trkpt lat="42.24108" lon="19.69747">
        <ele>496.17999267578</ele>
        <time>2024-09-23T16:12:33.000Z</time>
      </trkpt>
      <trkpt lat="42.24109" lon="19.69738">
        <ele>495.2200012207</ele>
        <time>2024-09-23T16:12:34.000Z</time>
      </trkpt>
      <trkpt lat="42.24106" lon="19.69729">
        <ele>495.2200012207</ele>
        <time>2024-09-23T16:12:35.000Z</time>
      </trkpt>
      <trkpt lat="42.24096" lon="19.69709">
        <ele>493.76998901367</ele>
        <time>2024-09-23T16:12:37.000Z</time>
      </trkpt>
      <trkpt lat="42.2409" lon="19.69697">
        <ele>492.80999755859</ele>
        <time>2024-09-23T16:12:38.000Z</time>
      </trkpt>
      <trkpt lat="42.24086" lon="19.69685">
        <ele>492.32998657227</ele>
        <time>2024-09-23T16:12:39.000Z</time>
      </trkpt>
      <trkpt lat="42.24082" lon="19.69672">
        <ele>491.85000610352</ele>
        <time>2024-09-23T16:12:40.000Z</time>
      </trkpt>
      <trkpt lat="42.24079" lon="19.69657">
        <ele>491.36999511719</ele>
        <time>2024-09-23T16:12:41.000Z</time>
      </trkpt>
      <trkpt lat="42.24076" lon="19.69641">
        <ele>491.36999511719</ele>
        <time>2024-09-23T16:12:42.000Z</time>
      </trkpt>
      <trkpt lat="42.24073" lon="19.69622">
        <ele>491.85000610352</ele>
        <time>2024-09-23T16:12:43.000Z</time>
      </trkpt>
      <trkpt lat="42.24071" lon="19.69612">
        <ele>491.85000610352</ele>
        <time>2024-09-23T16:12:44.000Z</time>
      </trkpt>
      <trkpt lat="42.2407" lon="19.69605">
        <ele>491.85000610352</ele>
        <time>2024-09-23T16:12:45.000Z</time>
      </trkpt>
      <trkpt lat="42.24069" lon="19.69591">
        <ele>490.89001464844</ele>
        <time>2024-09-23T16:12:46.000Z</time>
      </trkpt>
      <trkpt lat="42.24068" lon="19.69563">
        <ele>490.41000366211</ele>
        <time>2024-09-23T16:12:48.000Z</time>
      </trkpt>
      <trkpt lat="42.24069" lon="19.69555">
        <ele>489.92999267578</ele>
        <time>2024-09-23T16:12:49.000Z</time>
      </trkpt>
      <trkpt lat="42.2407" lon="19.69544">
        <ele>489.92999267578</ele>
        <time>2024-09-23T16:12:50.000Z</time>
      </trkpt>
      <trkpt lat="42.24073" lon="19.69535">
        <ele>489.45001220703</ele>
        <time>2024-09-23T16:12:51.000Z</time>
      </trkpt>
      <trkpt lat="42.24077" lon="19.69529">
        <ele>489.45001220703</ele>
        <time>2024-09-23T16:12:52.000Z</time>
      </trkpt>
      <trkpt lat="42.24083" lon="19.69523">
        <ele>489.45001220703</ele>
        <time>2024-09-23T16:12:53.000Z</time>
      </trkpt>
      <trkpt lat="42.24096" lon="19.69512">
        <ele>489.92999267578</ele>
        <time>2024-09-23T16:12:54.000Z</time>
      </trkpt>
      <trkpt lat="42.24097" lon="19.69511">
        <ele>489.92999267578</ele>
        <time>2024-09-23T16:12:55.000Z</time>
      </trkpt>
      <trkpt lat="42.24103" lon="19.69505">
        <ele>489.45001220703</ele>
        <time>2024-09-23T16:12:56.000Z</time>
      </trkpt>
      <trkpt lat="42.24106" lon="19.69499">
        <ele>489.45001220703</ele>
        <time>2024-09-23T16:12:57.000Z</time>
      </trkpt>
      <trkpt lat="42.24108" lon="19.69493">
        <ele>489.45001220703</ele>
        <time>2024-09-23T16:12:58.000Z</time>
      </trkpt>
      <trkpt lat="42.2411" lon="19.6948">
        <ele>488.9700012207</ele>
        <time>2024-09-23T16:12:59.000Z</time>
      </trkpt>
      <trkpt lat="42.24111" lon="19.69475">
        <ele>488.9700012207</ele>
        <time>2024-09-23T16:13:00.000Z</time>
      </trkpt>
      <trkpt lat="42.24114" lon="19.69467">
        <ele>489.92999267578</ele>
        <time>2024-09-23T16:13:01.000Z</time>
      </trkpt>
      <trkpt lat="42.24118" lon="19.69461">
        <ele>490.41000366211</ele>
        <time>2024-09-23T16:13:02.000Z</time>
      </trkpt>
      <trkpt lat="42.24124" lon="19.69458">
        <ele>490.89001464844</ele>
        <time>2024-09-23T16:13:03.000Z</time>
      </trkpt>
      <trkpt lat="42.24129" lon="19.69457">
        <ele>491.36999511719</ele>
        <time>2024-09-23T16:13:04.000Z</time>
      </trkpt>
      <trkpt lat="42.24139" lon="19.69458">
        <ele>491.85000610352</ele>
        <time>2024-09-23T16:13:05.000Z</time>
      </trkpt>
      <trkpt lat="42.24146" lon="19.69459">
        <ele>491.85000610352</ele>
        <time>2024-09-23T16:13:06.000Z</time>
      </trkpt>
      <trkpt lat="42.24167" lon="19.69458">
        <ele>492.80999755859</ele>
        <time>2024-09-23T16:13:08.000Z</time>
      </trkpt>
      <trkpt lat="42.24172" lon="19.69459">
        <ele>493.29000854492</ele>
        <time>2024-09-23T16:13:09.000Z</time>
      </trkpt>
      <trkpt lat="42.24178" lon="19.69461">
        <ele>493.29000854492</ele>
        <time>2024-09-23T16:13:10.000Z</time>
      </trkpt>
      <trkpt lat="42.24181" lon="19.69466">
        <ele>493.29000854492</ele>
        <time>2024-09-23T16:13:11.000Z</time>
      </trkpt>
      <trkpt lat="42.24184" lon="19.69473">
        <ele>493.29000854492</ele>
        <time>2024-09-23T16:13:12.000Z</time>
      </trkpt>
      <trkpt lat="42.24188" lon="19.69479">
        <ele>492.80999755859</ele>
        <time>2024-09-23T16:13:13.000Z</time>
      </trkpt>
      <trkpt lat="42.24193" lon="19.69481">
        <ele>492.80999755859</ele>
        <time>2024-09-23T16:13:14.000Z</time>
      </trkpt>
      <trkpt lat="42.24198" lon="19.69478">
        <ele>493.29000854492</ele>
        <time>2024-09-23T16:13:15.000Z</time>
      </trkpt>
      <trkpt lat="42.24202" lon="19.69473">
        <ele>493.76998901367</ele>
        <time>2024-09-23T16:13:16.000Z</time>
      </trkpt>
      <trkpt lat="42.24207" lon="19.69466">
        <ele>494.26000976562</ele>
        <time>2024-09-23T16:13:17.000Z</time>
      </trkpt>
      <trkpt lat="42.24212" lon="19.6946">
        <ele>494.73999023438</ele>
        <time>2024-09-23T16:13:18.000Z</time>
      </trkpt>
      <trkpt lat="42.24221" lon="19.69453">
        <ele>494.73999023438</ele>
        <time>2024-09-23T16:13:19.000Z</time>
      </trkpt>
      <trkpt lat="42.24227" lon="19.69448">
        <ele>494.26000976562</ele>
        <time>2024-09-23T16:13:20.000Z</time>
      </trkpt>
      <trkpt lat="42.24233" lon="19.6944">
        <ele>491.85000610352</ele>
        <time>2024-09-23T16:13:21.000Z</time>
      </trkpt>
      <trkpt lat="42.24238" lon="19.69431">
        <ele>490.41000366211</ele>
        <time>2024-09-23T16:13:22.000Z</time>
      </trkpt>
      <trkpt lat="42.24242" lon="19.69421">
        <ele>489.92999267578</ele>
        <time>2024-09-23T16:13:23.000Z</time>
      </trkpt>
      <trkpt lat="42.24243" lon="19.69409">
        <ele>488.9700012207</ele>
        <time>2024-09-23T16:13:24.000Z</time>
      </trkpt>
      <trkpt lat="42.24246" lon="19.69397">
        <ele>488.01000976562</ele>
        <time>2024-09-23T16:13:25.000Z</time>
      </trkpt>
      <trkpt lat="42.24251" lon="19.69384">
        <ele>487.04998779297</ele>
        <time>2024-09-23T16:13:26.000Z</time>
      </trkpt>
      <trkpt lat="42.24262" lon="19.69362">
        <ele>485.60000610352</ele>
        <time>2024-09-23T16:13:28.000Z</time>
      </trkpt>
      <trkpt lat="42.24268" lon="19.69351">
        <ele>485.11999511719</ele>
        <time>2024-09-23T16:13:29.000Z</time>
      </trkpt>
      <trkpt lat="42.24277" lon="19.69334">
        <ele>483.67999267578</ele>
        <time>2024-09-23T16:13:30.000Z</time>
      </trkpt>
      <trkpt lat="42.24279" lon="19.6933">
        <ele>483.67999267578</ele>
        <time>2024-09-23T16:13:31.000Z</time>
      </trkpt>
      <trkpt lat="42.24282" lon="19.6932">
        <ele>483.20001220703</ele>
        <time>2024-09-23T16:13:32.000Z</time>
      </trkpt>
      <trkpt lat="42.24282" lon="19.69312">
        <ele>482.7200012207</ele>
        <time>2024-09-23T16:13:33.000Z</time>
      </trkpt>
      <trkpt lat="42.24279" lon="19.69299">
        <ele>481.76000976562</ele>
        <time>2024-09-23T16:13:34.000Z</time>
      </trkpt>
      <trkpt lat="42.24273" lon="19.69284">
        <ele>480.79998779297</ele>
        <time>2024-09-23T16:13:35.000Z</time>
      </trkpt>
      <trkpt lat="42.24271" lon="19.69276">
        <ele>480.32000732422</ele>
        <time>2024-09-23T16:13:36.000Z</time>
      </trkpt>
      <trkpt lat="42.24269" lon="19.69265">
        <ele>479.35000610352</ele>
        <time>2024-09-23T16:13:37.000Z</time>
      </trkpt>
      <trkpt lat="42.24268" lon="19.69254">
        <ele>478.39001464844</ele>
        <time>2024-09-23T16:13:38.000Z</time>
      </trkpt>
      <trkpt lat="42.2427" lon="19.69241">
        <ele>477.42999267578</ele>
        <time>2024-09-23T16:13:39.000Z</time>
      </trkpt>
      <trkpt lat="42.2428" lon="19.69211">
        <ele>476.4700012207</ele>
        <time>2024-09-23T16:13:41.000Z</time>
      </trkpt>
      <trkpt lat="42.24283" lon="19.69199">
        <ele>475.51000976562</ele>
        <time>2024-09-23T16:13:42.000Z</time>
      </trkpt>
      <trkpt lat="42.24288" lon="19.69178">
        <ele>474.07000732422</ele>
        <time>2024-09-23T16:13:43.000Z</time>
      </trkpt>
      <trkpt lat="42.24289" lon="19.69174">
        <ele>473.58999633789</ele>
        <time>2024-09-23T16:13:44.000Z</time>
      </trkpt>
      <trkpt lat="42.24292" lon="19.69165">
        <ele>472.63000488281</ele>
        <time>2024-09-23T16:13:45.000Z</time>
      </trkpt>
      <trkpt lat="42.24299" lon="19.69154">
        <ele>471.66000366211</ele>
        <time>2024-09-23T16:13:46.000Z</time>
      </trkpt>
      <trkpt lat="42.24303" lon="19.69146">
        <ele>471.66000366211</ele>
        <time>2024-09-23T16:13:47.000Z</time>
      </trkpt>
      <trkpt lat="42.24306" lon="19.69135">
        <ele>471.66000366211</ele>
        <time>2024-09-23T16:13:48.000Z</time>
      </trkpt>
      <trkpt lat="42.24309" lon="19.69124">
        <ele>471.66000366211</ele>
        <time>2024-09-23T16:13:49.000Z</time>
      </trkpt>
      <trkpt lat="42.24312" lon="19.69117">
        <ele>471.17999267578</ele>
        <time>2024-09-23T16:13:50.000Z</time>
      </trkpt>
      <trkpt lat="42.24317" lon="19.69113">
        <ele>470.70001220703</ele>
        <time>2024-09-23T16:13:51.000Z</time>
      </trkpt>
      <trkpt lat="42.24325" lon="19.6911">
        <ele>469.73999023438</ele>
        <time>2024-09-23T16:13:52.000Z</time>
      </trkpt>
      <trkpt lat="42.24333" lon="19.69109">
        <ele>468.7799987793</ele>
        <time>2024-09-23T16:13:53.000Z</time>
      </trkpt>
      <trkpt lat="42.24342" lon="19.6911">
        <ele>467.82000732422</ele>
        <time>2024-09-23T16:13:54.000Z</time>
      </trkpt>
      <trkpt lat="42.2435" lon="19.69113">
        <ele>467.33999633789</ele>
        <time>2024-09-23T16:13:55.000Z</time>
      </trkpt>
      <trkpt lat="42.24357" lon="19.69117">
        <ele>466.38000488281</ele>
        <time>2024-09-23T16:13:56.000Z</time>
      </trkpt>
      <trkpt lat="42.24367" lon="19.69123">
        <ele>465.42001342773</ele>
        <time>2024-09-23T16:13:57.000Z</time>
      </trkpt>
      <trkpt lat="42.24369" lon="19.69124">
        <ele>465.42001342773</ele>
        <time>2024-09-23T16:13:58.000Z</time>
      </trkpt>
      <trkpt lat="42.24376" lon="19.69109">
        <ele>463.01000976562</ele>
        <time>2024-09-23T16:14:03.000Z</time>
      </trkpt>
      <trkpt lat="42.24362" lon="19.69099">
        <ele>462.5299987793</ele>
        <time>2024-09-23T16:14:12.000Z</time>
      </trkpt>
      <trkpt lat="42.24348" lon="19.69094">
        <ele>461.57000732422</ele>
        <time>2024-09-23T16:14:41.000Z</time>
      </trkpt>
      <trkpt lat="42.24346" lon="19.69093">
        <ele>461.57000732422</ele>
        <time>2024-09-23T16:14:42.000Z</time>
      </trkpt>
      <trkpt lat="42.24342" lon="19.69091">
        <ele>461.08999633789</ele>
        <time>2024-09-23T16:14:43.000Z</time>
      </trkpt>
      <trkpt lat="42.24334" lon="19.69086">
        <ele>461.08999633789</ele>
        <time>2024-09-23T16:14:44.000Z</time>
      </trkpt>
      <trkpt lat="42.24331" lon="19.69085">
        <ele>461.08999633789</ele>
        <time>2024-09-23T16:14:45.000Z</time>
      </trkpt>
      <trkpt lat="42.24321" lon="19.69079">
        <ele>460.60998535156</ele>
        <time>2024-09-23T16:14:46.000Z</time>
      </trkpt>
      <trkpt lat="42.24319" lon="19.69078">
        <ele>460.60998535156</ele>
        <time>2024-09-23T16:14:47.000Z</time>
      </trkpt>
      <trkpt lat="42.24311" lon="19.69075">
        <ele>459.64999389648</ele>
        <time>2024-09-23T16:14:48.000Z</time>
      </trkpt>
      <trkpt lat="42.24308" lon="19.69074">
        <ele>459.64999389648</ele>
        <time>2024-09-23T16:14:49.000Z</time>
      </trkpt>
      <trkpt lat="42.24302" lon="19.69074">
        <ele>459.17001342773</ele>
        <time>2024-09-23T16:14:50.000Z</time>
      </trkpt>
      <trkpt lat="42.24296" lon="19.69076">
        <ele>459.17001342773</ele>
        <time>2024-09-23T16:14:51.000Z</time>
      </trkpt>
      <trkpt lat="42.2429" lon="19.69079">
        <ele>458.69000244141</ele>
        <time>2024-09-23T16:14:52.000Z</time>
      </trkpt>
      <trkpt lat="42.24284" lon="19.69086">
        <ele>458.69000244141</ele>
        <time>2024-09-23T16:14:53.000Z</time>
      </trkpt>
      <trkpt lat="42.24277" lon="19.69093">
        <ele>458.20999145508</ele>
        <time>2024-09-23T16:14:54.000Z</time>
      </trkpt>
      <trkpt lat="42.24269" lon="19.691">
        <ele>457.23999023438</ele>
        <time>2024-09-23T16:14:55.000Z</time>
      </trkpt>
      <trkpt lat="42.24262" lon="19.69106">
        <ele>456.76000976562</ele>
        <time>2024-09-23T16:14:56.000Z</time>
      </trkpt>
      <trkpt lat="42.24254" lon="19.69112">
        <ele>455.79998779297</ele>
        <time>2024-09-23T16:14:57.000Z</time>
      </trkpt>
      <trkpt lat="42.24249" lon="19.69119">
        <ele>454.83999633789</ele>
        <time>2024-09-23T16:14:58.000Z</time>
      </trkpt>
      <trkpt lat="42.24246" lon="19.69127">
        <ele>454.83999633789</ele>
        <time>2024-09-23T16:14:59.000Z</time>
      </trkpt>
      <trkpt lat="42.24246" lon="19.69136">
        <ele>454.35998535156</ele>
        <time>2024-09-23T16:15:00.000Z</time>
      </trkpt>
      <trkpt lat="42.24247" lon="19.6915">
        <ele>453.88000488281</ele>
        <time>2024-09-23T16:15:01.000Z</time>
      </trkpt>
      <trkpt lat="42.24249" lon="19.69165">
        <ele>453.39999389648</ele>
        <time>2024-09-23T16:15:02.000Z</time>
      </trkpt>
      <trkpt lat="42.2425" lon="19.69175">
        <ele>452.92001342773</ele>
        <time>2024-09-23T16:15:03.000Z</time>
      </trkpt>
      <trkpt lat="42.2425" lon="19.69187">
        <ele>452.44000244141</ele>
        <time>2024-09-23T16:15:04.000Z</time>
      </trkpt>
      <trkpt lat="42.24248" lon="19.69198">
        <ele>451.95999145508</ele>
        <time>2024-09-23T16:15:05.000Z</time>
      </trkpt>
      <trkpt lat="42.24245" lon="19.69208">
        <ele>451.95999145508</ele>
        <time>2024-09-23T16:15:06.000Z</time>
      </trkpt>
      <trkpt lat="42.2424" lon="19.69215">
        <ele>451.95999145508</ele>
        <time>2024-09-23T16:15:07.000Z</time>
      </trkpt>
      <trkpt lat="42.24233" lon="19.6922">
        <ele>451.95999145508</ele>
        <time>2024-09-23T16:15:08.000Z</time>
      </trkpt>
      <trkpt lat="42.24225" lon="19.69222">
        <ele>451.48001098633</ele>
        <time>2024-09-23T16:15:09.000Z</time>
      </trkpt>
      <trkpt lat="42.24219" lon="19.69226">
        <ele>451.48001098633</ele>
        <time>2024-09-23T16:15:10.000Z</time>
      </trkpt>
      <trkpt lat="42.24213" lon="19.69232">
        <ele>451</ele>
        <time>2024-09-23T16:15:11.000Z</time>
      </trkpt>
      <trkpt lat="42.24208" lon="19.69242">
        <ele>451</ele>
        <time>2024-09-23T16:15:12.000Z</time>
      </trkpt>
      <trkpt lat="42.24204" lon="19.69252">
        <ele>450.51998901367</ele>
        <time>2024-09-23T16:15:13.000Z</time>
      </trkpt>
      <trkpt lat="42.24198" lon="19.69263">
        <ele>450.51998901367</ele>
        <time>2024-09-23T16:15:14.000Z</time>
      </trkpt>
      <trkpt lat="42.24195" lon="19.6927">
        <ele>450.0299987793</ele>
        <time>2024-09-23T16:15:15.000Z</time>
      </trkpt>
      <trkpt lat="42.24193" lon="19.69278">
        <ele>450.0299987793</ele>
        <time>2024-09-23T16:15:16.000Z</time>
      </trkpt>
      <trkpt lat="42.24194" lon="19.69286">
        <ele>450.0299987793</ele>
        <time>2024-09-23T16:15:17.000Z</time>
      </trkpt>
      <trkpt lat="42.24197" lon="19.69295">
        <ele>449.54998779297</ele>
        <time>2024-09-23T16:15:18.000Z</time>
      </trkpt>
      <trkpt lat="42.24202" lon="19.69305">
        <ele>449.54998779297</ele>
        <time>2024-09-23T16:15:19.000Z</time>
      </trkpt>
      <trkpt lat="42.24206" lon="19.69317">
        <ele>449.54998779297</ele>
        <time>2024-09-23T16:15:20.000Z</time>
      </trkpt>
      <trkpt lat="42.2421" lon="19.69331">
        <ele>450.0299987793</ele>
        <time>2024-09-23T16:15:21.000Z</time>
      </trkpt>
      <trkpt lat="42.24211" lon="19.69344">
        <ele>450.0299987793</ele>
        <time>2024-09-23T16:15:22.000Z</time>
      </trkpt>
      <trkpt lat="42.2421" lon="19.69356">
        <ele>450.0299987793</ele>
        <time>2024-09-23T16:15:23.000Z</time>
      </trkpt>
      <trkpt lat="42.24207" lon="19.69367">
        <ele>450.0299987793</ele>
        <time>2024-09-23T16:15:24.000Z</time>
      </trkpt>
      <trkpt lat="42.24203" lon="19.69376">
        <ele>450.0299987793</ele>
        <time>2024-09-23T16:15:25.000Z</time>
      </trkpt>
      <trkpt lat="42.24194" lon="19.69386">
        <ele>450.51998901367</ele>
        <time>2024-09-23T16:15:26.000Z</time>
      </trkpt>
      <trkpt lat="42.24188" lon="19.69392">
        <ele>450.0299987793</ele>
        <time>2024-09-23T16:15:27.000Z</time>
      </trkpt>
      <trkpt lat="42.24172" lon="19.69404">
        <ele>450.0299987793</ele>
        <time>2024-09-23T16:15:28.000Z</time>
      </trkpt>
      <trkpt lat="42.2417" lon="19.69406">
        <ele>450.0299987793</ele>
        <time>2024-09-23T16:15:29.000Z</time>
      </trkpt>
      <trkpt lat="42.24161" lon="19.69413">
        <ele>450.0299987793</ele>
        <time>2024-09-23T16:15:30.000Z</time>
      </trkpt>
      <trkpt lat="42.24156" lon="19.69416">
        <ele>449.54998779297</ele>
        <time>2024-09-23T16:15:31.000Z</time>
      </trkpt>
      <trkpt lat="42.2415" lon="19.69416">
        <ele>449.07000732422</ele>
        <time>2024-09-23T16:15:32.000Z</time>
      </trkpt>
      <trkpt lat="42.24145" lon="19.69412">
        <ele>448.58999633789</ele>
        <time>2024-09-23T16:15:33.000Z</time>
      </trkpt>
      <trkpt lat="42.24139" lon="19.69406">
        <ele>448.10998535156</ele>
        <time>2024-09-23T16:15:34.000Z</time>
      </trkpt>
      <trkpt lat="42.24133" lon="19.694">
        <ele>446.67001342773</ele>
        <time>2024-09-23T16:15:35.000Z</time>
      </trkpt>
      <trkpt lat="42.24126" lon="19.69397">
        <ele>445.23001098633</ele>
        <time>2024-09-23T16:15:36.000Z</time>
      </trkpt>
      <trkpt lat="42.24108" lon="19.69395">
        <ele>441.85998535156</ele>
        <time>2024-09-23T16:15:38.000Z</time>
      </trkpt>
      <trkpt lat="42.24103" lon="19.69395">
        <ele>441.38000488281</ele>
        <time>2024-09-23T16:15:39.000Z</time>
      </trkpt>
      <trkpt lat="42.24096" lon="19.69396">
        <ele>440.42001342773</ele>
        <time>2024-09-23T16:15:40.000Z</time>
      </trkpt>
      <trkpt lat="42.24089" lon="19.69402">
        <ele>438.98001098633</ele>
        <time>2024-09-23T16:15:41.000Z</time>
      </trkpt>
      <trkpt lat="42.24081" lon="19.69413">
        <ele>437.54000854492</ele>
        <time>2024-09-23T16:15:42.000Z</time>
      </trkpt>
      <trkpt lat="42.24064" lon="19.69431">
        <ele>434.64999389648</ele>
        <time>2024-09-23T16:15:44.000Z</time>
      </trkpt>
      <trkpt lat="42.24061" lon="19.69434">
        <ele>434.17001342773</ele>
        <time>2024-09-23T16:15:45.000Z</time>
      </trkpt>
      <trkpt lat="42.24047" lon="19.69453">
        <ele>431.76998901367</ele>
        <time>2024-09-23T16:15:47.000Z</time>
      </trkpt>
      <trkpt lat="42.2404" lon="19.6946">
        <ele>430.80999755859</ele>
        <time>2024-09-23T16:15:48.000Z</time>
      </trkpt>
      <trkpt lat="42.24035" lon="19.69465">
        <ele>430.32998657227</ele>
        <time>2024-09-23T16:15:49.000Z</time>
      </trkpt>
      <trkpt lat="42.2402" lon="19.69479">
        <ele>428.89001464844</ele>
        <time>2024-09-23T16:15:51.000Z</time>
      </trkpt>
      <trkpt lat="42.24013" lon="19.69486">
        <ele>428.89001464844</ele>
        <time>2024-09-23T16:15:52.000Z</time>
      </trkpt>
      <trkpt lat="42.23986" lon="19.69513">
        <ele>428.89001464844</ele>
        <time>2024-09-23T16:16:01.000Z</time>
      </trkpt>
      <trkpt lat="42.23958" lon="19.69538">
        <ele>424.07998657227</ele>
        <time>2024-09-23T16:16:12.000Z</time>
      </trkpt>
      <trkpt lat="42.23932" lon="19.69565">
        <ele>420.70999145508</ele>
        <time>2024-09-23T16:16:22.000Z</time>
      </trkpt>
      <trkpt lat="42.23928" lon="19.69574">
        <ele>420.23001098633</ele>
        <time>2024-09-23T16:16:24.000Z</time>
      </trkpt>
      <trkpt lat="42.23926" lon="19.69578">
        <ele>419.75</ele>
        <time>2024-09-23T16:16:25.000Z</time>
      </trkpt>
      <trkpt lat="42.23922" lon="19.69586">
        <ele>418.79000854492</ele>
        <time>2024-09-23T16:16:26.000Z</time>
      </trkpt>
      <trkpt lat="42.23918" lon="19.69593">
        <ele>418.30999755859</ele>
        <time>2024-09-23T16:16:27.000Z</time>
      </trkpt>
      <trkpt lat="42.23896" lon="19.6961">
        <ele>417.35000610352</ele>
        <time>2024-09-23T16:16:34.000Z</time>
      </trkpt>
      <trkpt lat="42.23891" lon="19.69614">
        <ele>416.86999511719</ele>
        <time>2024-09-23T16:16:36.000Z</time>
      </trkpt>
      <trkpt lat="42.23889" lon="19.69616">
        <ele>416.86999511719</ele>
        <time>2024-09-23T16:16:37.000Z</time>
      </trkpt>
      <trkpt lat="42.23885" lon="19.6962">
        <ele>416.39001464844</ele>
        <time>2024-09-23T16:16:38.000Z</time>
      </trkpt>
      <trkpt lat="42.23881" lon="19.69628">
        <ele>415.91000366211</ele>
        <time>2024-09-23T16:16:39.000Z</time>
      </trkpt>
      <trkpt lat="42.23862" lon="19.69642">
        <ele>415.91000366211</ele>
        <time>2024-09-23T16:16:46.000Z</time>
      </trkpt>
      <trkpt lat="42.23855" lon="19.69642">
        <ele>415.42999267578</ele>
        <time>2024-09-23T16:16:48.000Z</time>
      </trkpt>
      <trkpt lat="42.2385" lon="19.6964">
        <ele>414.95001220703</ele>
        <time>2024-09-23T16:16:49.000Z</time>
      </trkpt>
      <trkpt lat="42.23846" lon="19.6964">
        <ele>414.95001220703</ele>
        <time>2024-09-23T16:16:50.000Z</time>
      </trkpt>
      <trkpt lat="42.23842" lon="19.69639">
        <ele>414.4700012207</ele>
        <time>2024-09-23T16:16:51.000Z</time>
      </trkpt>
      <trkpt lat="42.23818" lon="19.69642">
        <ele>413.98001098633</ele>
        <time>2024-09-23T16:16:54.000Z</time>
      </trkpt>
      <trkpt lat="42.23805" lon="19.69644">
        <ele>413.98001098633</ele>
        <time>2024-09-23T16:16:56.000Z</time>
      </trkpt>
      <trkpt lat="42.238" lon="19.69644">
        <ele>413.98001098633</ele>
        <time>2024-09-23T16:16:57.000Z</time>
      </trkpt>
      <trkpt lat="42.23795" lon="19.69646">
        <ele>413.5</ele>
        <time>2024-09-23T16:16:58.000Z</time>
      </trkpt>
      <trkpt lat="42.23788" lon="19.69649">
        <ele>413.01998901367</ele>
        <time>2024-09-23T16:16:59.000Z</time>
      </trkpt>
      <trkpt lat="42.23783" lon="19.69653">
        <ele>412.05999755859</ele>
        <time>2024-09-23T16:17:00.000Z</time>
      </trkpt>
      <trkpt lat="42.23777" lon="19.69658">
        <ele>411.57998657227</ele>
        <time>2024-09-23T16:17:01.000Z</time>
      </trkpt>
      <trkpt lat="42.2377" lon="19.69666">
        <ele>410.61999511719</ele>
        <time>2024-09-23T16:17:02.000Z</time>
      </trkpt>
      <trkpt lat="42.23766" lon="19.69672">
        <ele>410.14001464844</ele>
        <time>2024-09-23T16:17:03.000Z</time>
      </trkpt>
      <trkpt lat="42.2376" lon="19.6968">
        <ele>409.66000366211</ele>
        <time>2024-09-23T16:17:04.000Z</time>
      </trkpt>
      <trkpt lat="42.23751" lon="19.69696">
        <ele>409.17999267578</ele>
        <time>2024-09-23T16:17:06.000Z</time>
      </trkpt>
      <trkpt lat="42.23742" lon="19.69708">
        <ele>409.17999267578</ele>
        <time>2024-09-23T16:17:07.000Z</time>
      </trkpt>
      <trkpt lat="42.23738" lon="19.69716">
        <ele>408.70001220703</ele>
        <time>2024-09-23T16:17:08.000Z</time>
      </trkpt>
      <trkpt lat="42.23723" lon="19.69748">
        <ele>407.26000976562</ele>
        <time>2024-09-23T16:17:12.000Z</time>
      </trkpt>
      <trkpt lat="42.2372" lon="19.69754">
        <ele>407.26000976562</ele>
        <time>2024-09-23T16:17:13.000Z</time>
      </trkpt>
      <trkpt lat="42.23717" lon="19.69763">
        <ele>407.26000976562</ele>
        <time>2024-09-23T16:17:14.000Z</time>
      </trkpt>
      <trkpt lat="42.23715" lon="19.69771">
        <ele>407.73999023438</ele>
        <time>2024-09-23T16:17:15.000Z</time>
      </trkpt>
      <trkpt lat="42.23714" lon="19.69779">
        <ele>407.73999023438</ele>
        <time>2024-09-23T16:17:16.000Z</time>
      </trkpt>
      <trkpt lat="42.23714" lon="19.69791">
        <ele>408.2200012207</ele>
        <time>2024-09-23T16:17:17.000Z</time>
      </trkpt>
      <trkpt lat="42.23714" lon="19.69795">
        <ele>408.2200012207</ele>
        <time>2024-09-23T16:17:18.000Z</time>
      </trkpt>
      <trkpt lat="42.23714" lon="19.69802">
        <ele>408.2200012207</ele>
        <time>2024-09-23T16:17:19.000Z</time>
      </trkpt>
      <trkpt lat="42.2371" lon="19.69811">
        <ele>408.2200012207</ele>
        <time>2024-09-23T16:17:20.000Z</time>
      </trkpt>
      <trkpt lat="42.23705" lon="19.69817">
        <ele>409.17999267578</ele>
        <time>2024-09-23T16:17:21.000Z</time>
      </trkpt>
      <trkpt lat="42.23699" lon="19.69823">
        <ele>409.66000366211</ele>
        <time>2024-09-23T16:17:22.000Z</time>
      </trkpt>
      <trkpt lat="42.2369" lon="19.69831">
        <ele>410.14001464844</ele>
        <time>2024-09-23T16:17:23.000Z</time>
      </trkpt>
      <trkpt lat="42.23662" lon="19.69864">
        <ele>410.14001464844</ele>
        <time>2024-09-23T16:17:27.000Z</time>
      </trkpt>
      <trkpt lat="42.23656" lon="19.6987">
        <ele>409.66000366211</ele>
        <time>2024-09-23T16:17:28.000Z</time>
      </trkpt>
      <trkpt lat="42.23651" lon="19.69875">
        <ele>408.70001220703</ele>
        <time>2024-09-23T16:17:29.000Z</time>
      </trkpt>
      <trkpt lat="42.23644" lon="19.69878">
        <ele>407.73999023438</ele>
        <time>2024-09-23T16:17:30.000Z</time>
      </trkpt>
      <trkpt lat="42.23637" lon="19.69878">
        <ele>407.26000976562</ele>
        <time>2024-09-23T16:17:31.000Z</time>
      </trkpt>
      <trkpt lat="42.23629" lon="19.69875">
        <ele>407.26000976562</ele>
        <time>2024-09-23T16:17:32.000Z</time>
      </trkpt>
      <trkpt lat="42.2362" lon="19.69868">
        <ele>406.29000854492</ele>
        <time>2024-09-23T16:17:33.000Z</time>
      </trkpt>
      <trkpt lat="42.23607" lon="19.69855">
        <ele>405.32998657227</ele>
        <time>2024-09-23T16:17:34.000Z</time>
      </trkpt>
      <trkpt lat="42.23604" lon="19.69852">
        <ele>405.32998657227</ele>
        <time>2024-09-23T16:17:35.000Z</time>
      </trkpt>
      <trkpt lat="42.23575" lon="19.69822">
        <ele>402.45001220703</ele>
        <time>2024-09-23T16:17:38.000Z</time>
      </trkpt>
      <trkpt lat="42.2357" lon="19.69815">
        <ele>401.9700012207</ele>
        <time>2024-09-23T16:17:39.000Z</time>
      </trkpt>
      <trkpt lat="42.23564" lon="19.69806">
        <ele>401.9700012207</ele>
        <time>2024-09-23T16:17:40.000Z</time>
      </trkpt>
      <trkpt lat="42.23559" lon="19.69801">
        <ele>401.9700012207</ele>
        <time>2024-09-23T16:17:41.000Z</time>
      </trkpt>
      <trkpt lat="42.23534" lon="19.69807">
        <ele>401.9700012207</ele>
        <time>2024-09-23T16:17:49.000Z</time>
      </trkpt>
      <trkpt lat="42.23512" lon="19.69836">
        <ele>401.48999023438</ele>
        <time>2024-09-23T16:17:58.000Z</time>
      </trkpt>
      <trkpt lat="42.23505" lon="19.69852">
        <ele>401.01000976562</ele>
        <time>2024-09-23T16:18:02.000Z</time>
      </trkpt>
      <trkpt lat="42.23503" lon="19.69855">
        <ele>400.5299987793</ele>
        <time>2024-09-23T16:18:03.000Z</time>
      </trkpt>
      <trkpt lat="42.23499" lon="19.6986">
        <ele>400.04998779297</ele>
        <time>2024-09-23T16:18:04.000Z</time>
      </trkpt>
      <trkpt lat="42.23493" lon="19.69866">
        <ele>400.04998779297</ele>
        <time>2024-09-23T16:18:05.000Z</time>
      </trkpt>
      <trkpt lat="42.23489" lon="19.6987">
        <ele>399.57000732422</ele>
        <time>2024-09-23T16:18:06.000Z</time>
      </trkpt>
      <trkpt lat="42.23484" lon="19.69875">
        <ele>399.07998657227</ele>
        <time>2024-09-23T16:18:07.000Z</time>
      </trkpt>
      <trkpt lat="42.23479" lon="19.69878">
        <ele>398.60000610352</ele>
        <time>2024-09-23T16:18:08.000Z</time>
      </trkpt>
      <trkpt lat="42.23472" lon="19.6988">
        <ele>398.60000610352</ele>
        <time>2024-09-23T16:18:09.000Z</time>
      </trkpt>
      <trkpt lat="42.23466" lon="19.69881">
        <ele>398.60000610352</ele>
        <time>2024-09-23T16:18:10.000Z</time>
      </trkpt>
      <trkpt lat="42.23459" lon="19.69882">
        <ele>398.11999511719</ele>
        <time>2024-09-23T16:18:11.000Z</time>
      </trkpt>
      <trkpt lat="42.23452" lon="19.69884">
        <ele>397.16000366211</ele>
        <time>2024-09-23T16:18:12.000Z</time>
      </trkpt>
      <trkpt lat="42.23441" lon="19.69889">
        <ele>396.20001220703</ele>
        <time>2024-09-23T16:18:13.000Z</time>
      </trkpt>
      <trkpt lat="42.23438" lon="19.6989">
        <ele>396.20001220703</ele>
        <time>2024-09-23T16:18:14.000Z</time>
      </trkpt>
      <trkpt lat="42.23431" lon="19.69895">
        <ele>395.23999023438</ele>
        <time>2024-09-23T16:18:15.000Z</time>
      </trkpt>
      <trkpt lat="42.23424" lon="19.69902">
        <ele>394.76000976562</ele>
        <time>2024-09-23T16:18:16.000Z</time>
      </trkpt>
      <trkpt lat="42.23414" lon="19.69919">
        <ele>393.32000732422</ele>
        <time>2024-09-23T16:18:17.000Z</time>
      </trkpt>
      <trkpt lat="42.23413" lon="19.6992">
        <ele>392.83999633789</ele>
        <time>2024-09-23T16:18:18.000Z</time>
      </trkpt>
      <trkpt lat="42.23407" lon="19.69927">
        <ele>391.86999511719</ele>
        <time>2024-09-23T16:18:19.000Z</time>
      </trkpt>
      <trkpt lat="42.234" lon="19.69934">
        <ele>391.39001464844</ele>
        <time>2024-09-23T16:18:20.000Z</time>
      </trkpt>
      <trkpt lat="42.23392" lon="19.69939">
        <ele>390.42999267578</ele>
        <time>2024-09-23T16:18:21.000Z</time>
      </trkpt>
      <trkpt lat="42.23384" lon="19.69942">
        <ele>389.4700012207</ele>
        <time>2024-09-23T16:18:22.000Z</time>
      </trkpt>
      <trkpt lat="42.23374" lon="19.69943">
        <ele>388.51000976562</ele>
        <time>2024-09-23T16:18:23.000Z</time>
      </trkpt>
      <trkpt lat="42.23367" lon="19.69944">
        <ele>388.0299987793</ele>
        <time>2024-09-23T16:18:24.000Z</time>
      </trkpt>
      <trkpt lat="42.23359" lon="19.69945">
        <ele>387.54998779297</ele>
        <time>2024-09-23T16:18:25.000Z</time>
      </trkpt>
      <trkpt lat="42.23349" lon="19.69949">
        <ele>387.07000732422</ele>
        <time>2024-09-23T16:18:26.000Z</time>
      </trkpt>
      <trkpt lat="42.23343" lon="19.69951">
        <ele>386.58999633789</ele>
        <time>2024-09-23T16:18:27.000Z</time>
      </trkpt>
      <trkpt lat="42.23336" lon="19.6995">
        <ele>386.58999633789</ele>
        <time>2024-09-23T16:18:28.000Z</time>
      </trkpt>
      <trkpt lat="42.2333" lon="19.69947">
        <ele>386.10998535156</ele>
        <time>2024-09-23T16:18:29.000Z</time>
      </trkpt>
      <trkpt lat="42.23322" lon="19.6994">
        <ele>386.10998535156</ele>
        <time>2024-09-23T16:18:30.000Z</time>
      </trkpt>
      <trkpt lat="42.23319" lon="19.69938">
        <ele>385.63000488281</ele>
        <time>2024-09-23T16:18:31.000Z</time>
      </trkpt>
      <trkpt lat="42.23313" lon="19.69937">
        <ele>384.66000366211</ele>
        <time>2024-09-23T16:18:32.000Z</time>
      </trkpt>
      <trkpt lat="42.23306" lon="19.69939">
        <ele>384.66000366211</ele>
        <time>2024-09-23T16:18:33.000Z</time>
      </trkpt>
      <trkpt lat="42.233" lon="19.69943">
        <ele>384.17999267578</ele>
        <time>2024-09-23T16:18:34.000Z</time>
      </trkpt>
      <trkpt lat="42.23286" lon="19.69949">
        <ele>382.73999023438</ele>
        <time>2024-09-23T16:18:36.000Z</time>
      </trkpt>
      <trkpt lat="42.2328" lon="19.69952">
        <ele>381.7799987793</ele>
        <time>2024-09-23T16:18:37.000Z</time>
      </trkpt>
      <trkpt lat="42.23276" lon="19.69958">
        <ele>381.29998779297</ele>
        <time>2024-09-23T16:18:38.000Z</time>
      </trkpt>
      <trkpt lat="42.23276" lon="19.69979">
        <ele>379.85998535156</ele>
        <time>2024-09-23T16:18:43.000Z</time>
      </trkpt>
      <trkpt lat="42.23278" lon="19.69984">
        <ele>379.38000488281</ele>
        <time>2024-09-23T16:18:44.000Z</time>
      </trkpt>
      <trkpt lat="42.23283" lon="19.69994">
        <ele>379.38000488281</ele>
        <time>2024-09-23T16:18:45.000Z</time>
      </trkpt>
      <trkpt lat="42.23289" lon="19.70004">
        <ele>378.89999389648</ele>
        <time>2024-09-23T16:18:46.000Z</time>
      </trkpt>
      <trkpt lat="42.23309" lon="19.70038">
        <ele>376.48999023438</ele>
        <time>2024-09-23T16:18:49.000Z</time>
      </trkpt>
      <trkpt lat="42.2333" lon="19.70073">
        <ele>374.08999633789</ele>
        <time>2024-09-23T16:18:53.000Z</time>
      </trkpt>
      <trkpt lat="42.23337" lon="19.70086">
        <ele>373.60998535156</ele>
        <time>2024-09-23T16:18:55.000Z</time>
      </trkpt>
      <trkpt lat="42.23343" lon="19.70098">
        <ele>374.08999633789</ele>
        <time>2024-09-23T16:19:01.000Z</time>
      </trkpt>
      <trkpt lat="42.23349" lon="19.70121">
        <ele>376.48999023438</ele>
        <time>2024-09-23T16:28:04.000Z</time>
      </trkpt>
      <trkpt lat="42.23351" lon="19.70127">
        <ele>376.48999023438</ele>
        <time>2024-09-23T16:28:05.000Z</time>
      </trkpt>
      <trkpt lat="42.23353" lon="19.70134">
        <ele>376.01000976562</ele>
        <time>2024-09-23T16:28:06.000Z</time>
      </trkpt>
      <trkpt lat="42.23354" lon="19.70139">
        <ele>376.01000976562</ele>
        <time>2024-09-23T16:28:07.000Z</time>
      </trkpt>
      <trkpt lat="42.23355" lon="19.70143">
        <ele>376.01000976562</ele>
        <time>2024-09-23T16:28:08.000Z</time>
      </trkpt>
      <trkpt lat="42.23357" lon="19.70152">
        <ele>376.48999023438</ele>
        <time>2024-09-23T16:28:09.000Z</time>
      </trkpt>
      <trkpt lat="42.23361" lon="19.7018">
        <ele>375.5299987793</ele>
        <time>2024-09-23T16:28:11.000Z</time>
      </trkpt>
      <trkpt lat="42.23362" lon="19.70186">
        <ele>375.04998779297</ele>
        <time>2024-09-23T16:28:12.000Z</time>
      </trkpt>
      <trkpt lat="42.23362" lon="19.70189">
        <ele>374.57000732422</ele>
        <time>2024-09-23T16:28:13.000Z</time>
      </trkpt>
      <trkpt lat="42.23364" lon="19.70195">
        <ele>374.08999633789</ele>
        <time>2024-09-23T16:28:14.000Z</time>
      </trkpt>
      <trkpt lat="42.23385" lon="19.70225">
        <ele>371.20999145508</ele>
        <time>2024-09-23T16:28:24.000Z</time>
      </trkpt>
      <trkpt lat="42.23389" lon="19.70238">
        <ele>370.73001098633</ele>
        <time>2024-09-23T16:28:27.000Z</time>
      </trkpt>
      <trkpt lat="42.23392" lon="19.7026">
        <ele>370.23999023438</ele>
        <time>2024-09-23T16:28:30.000Z</time>
      </trkpt>
      <trkpt lat="42.23393" lon="19.70267">
        <ele>370.23999023438</ele>
        <time>2024-09-23T16:28:31.000Z</time>
      </trkpt>
      <trkpt lat="42.23395" lon="19.70281">
        <ele>369.76000976562</ele>
        <time>2024-09-23T16:28:32.000Z</time>
      </trkpt>
      <trkpt lat="42.23399" lon="19.70307">
        <ele>368.32000732422</ele>
        <time>2024-09-23T16:28:35.000Z</time>
      </trkpt>
      <trkpt lat="42.23402" lon="19.7032">
        <ele>367.35998535156</ele>
        <time>2024-09-23T16:28:36.000Z</time>
      </trkpt>
      <trkpt lat="42.23406" lon="19.70331">
        <ele>366.88000488281</ele>
        <time>2024-09-23T16:28:37.000Z</time>
      </trkpt>
      <trkpt lat="42.2341" lon="19.70341">
        <ele>366.39999389648</ele>
        <time>2024-09-23T16:28:38.000Z</time>
      </trkpt>
      <trkpt lat="42.23415" lon="19.70354">
        <ele>365.44000244141</ele>
        <time>2024-09-23T16:28:39.000Z</time>
      </trkpt>
      <trkpt lat="42.23417" lon="19.7036">
        <ele>364.95999145508</ele>
        <time>2024-09-23T16:28:40.000Z</time>
      </trkpt>
      <trkpt lat="42.23419" lon="19.70371">
        <ele>364.48001098633</ele>
        <time>2024-09-23T16:28:41.000Z</time>
      </trkpt>
      <trkpt lat="42.2342" lon="19.70387">
        <ele>363.51998901367</ele>
        <time>2024-09-23T16:28:42.000Z</time>
      </trkpt>
      <trkpt lat="42.2342" lon="19.70388">
        <ele>363.51998901367</ele>
        <time>2024-09-23T16:28:43.000Z</time>
      </trkpt>
      <trkpt lat="42.23418" lon="19.70397">
        <ele>363.04000854492</ele>
        <time>2024-09-23T16:28:44.000Z</time>
      </trkpt>
      <trkpt lat="42.23416" lon="19.70407">
        <ele>363.04000854492</ele>
        <time>2024-09-23T16:28:45.000Z</time>
      </trkpt>
      <trkpt lat="42.23414" lon="19.70414">
        <ele>363.04000854492</ele>
        <time>2024-09-23T16:28:46.000Z</time>
      </trkpt>
      <trkpt lat="42.23412" lon="19.70423">
        <ele>363.04000854492</ele>
        <time>2024-09-23T16:28:47.000Z</time>
      </trkpt>
      <trkpt lat="42.23412" lon="19.70432">
        <ele>362.54998779297</ele>
        <time>2024-09-23T16:28:48.000Z</time>
      </trkpt>
      <trkpt lat="42.23413" lon="19.70442">
        <ele>361.58999633789</ele>
        <time>2024-09-23T16:28:49.000Z</time>
      </trkpt>
      <trkpt lat="42.23414" lon="19.7045">
        <ele>361.10998535156</ele>
        <time>2024-09-23T16:28:50.000Z</time>
      </trkpt>
      <trkpt lat="42.23413" lon="19.70458">
        <ele>360.63000488281</ele>
        <time>2024-09-23T16:28:51.000Z</time>
      </trkpt>
      <trkpt lat="42.23411" lon="19.70465">
        <ele>360.14999389648</ele>
        <time>2024-09-23T16:28:52.000Z</time>
      </trkpt>
      <trkpt lat="42.23407" lon="19.70471">
        <ele>359.67001342773</ele>
        <time>2024-09-23T16:28:53.000Z</time>
      </trkpt>
      <trkpt lat="42.23402" lon="19.70474">
        <ele>359.19000244141</ele>
        <time>2024-09-23T16:28:54.000Z</time>
      </trkpt>
      <trkpt lat="42.23396" lon="19.70475">
        <ele>359.19000244141</ele>
        <time>2024-09-23T16:28:55.000Z</time>
      </trkpt>
      <trkpt lat="42.2339" lon="19.70474">
        <ele>359.19000244141</ele>
        <time>2024-09-23T16:28:56.000Z</time>
      </trkpt>
      <trkpt lat="42.23385" lon="19.7047">
        <ele>359.19000244141</ele>
        <time>2024-09-23T16:28:57.000Z</time>
      </trkpt>
      <trkpt lat="42.23381" lon="19.70464">
        <ele>359.19000244141</ele>
        <time>2024-09-23T16:28:58.000Z</time>
      </trkpt>
      <trkpt lat="42.23378" lon="19.70457">
        <ele>358.70999145508</ele>
        <time>2024-09-23T16:28:59.000Z</time>
      </trkpt>
      <trkpt lat="42.23367" lon="19.70426">
        <ele>358.23001098633</ele>
        <time>2024-09-23T16:29:02.000Z</time>
      </trkpt>
      <trkpt lat="42.23365" lon="19.7042">
        <ele>358.23001098633</ele>
        <time>2024-09-23T16:29:03.000Z</time>
      </trkpt>
      <trkpt lat="42.23363" lon="19.70411">
        <ele>359.19000244141</ele>
        <time>2024-09-23T16:29:04.000Z</time>
      </trkpt>
      <trkpt lat="42.2336" lon="19.70401">
        <ele>359.19000244141</ele>
        <time>2024-09-23T16:29:05.000Z</time>
      </trkpt>
      <trkpt lat="42.23351" lon="19.7038">
        <ele>358.70999145508</ele>
        <time>2024-09-23T16:29:07.000Z</time>
      </trkpt>
      <trkpt lat="42.23347" lon="19.70373">
        <ele>358.23001098633</ele>
        <time>2024-09-23T16:29:08.000Z</time>
      </trkpt>
      <trkpt lat="42.23344" lon="19.70366">
        <ele>357.75</ele>
        <time>2024-09-23T16:29:09.000Z</time>
      </trkpt>
      <trkpt lat="42.23338" lon="19.7036">
        <ele>357.26998901367</ele>
        <time>2024-09-23T16:29:10.000Z</time>
      </trkpt>
      <trkpt lat="42.23331" lon="19.70357">
        <ele>356.30999755859</ele>
        <time>2024-09-23T16:29:11.000Z</time>
      </trkpt>
      <trkpt lat="42.23324" lon="19.70356">
        <ele>356.30999755859</ele>
        <time>2024-09-23T16:29:12.000Z</time>
      </trkpt>
      <trkpt lat="42.23316" lon="19.70357">
        <ele>355.82998657227</ele>
        <time>2024-09-23T16:29:13.000Z</time>
      </trkpt>
      <trkpt lat="42.23309" lon="19.7036">
        <ele>355.82998657227</ele>
        <time>2024-09-23T16:29:14.000Z</time>
      </trkpt>
      <trkpt lat="42.23296" lon="19.70364">
        <ele>355.33999633789</ele>
        <time>2024-09-23T16:29:15.000Z</time>
      </trkpt>
      <trkpt lat="42.23293" lon="19.70365">
        <ele>355.33999633789</ele>
        <time>2024-09-23T16:29:16.000Z</time>
      </trkpt>
      <trkpt lat="42.23286" lon="19.70365">
        <ele>355.33999633789</ele>
        <time>2024-09-23T16:29:17.000Z</time>
      </trkpt>
      <trkpt lat="42.23279" lon="19.70361">
        <ele>355.33999633789</ele>
        <time>2024-09-23T16:29:18.000Z</time>
      </trkpt>
      <trkpt lat="42.23259" lon="19.70339">
        <ele>356.30999755859</ele>
        <time>2024-09-23T16:29:21.000Z</time>
      </trkpt>
      <trkpt lat="42.23253" lon="19.70332">
        <ele>355.82998657227</ele>
        <time>2024-09-23T16:29:22.000Z</time>
      </trkpt>
      <trkpt lat="42.23244" lon="19.70317">
        <ele>355.82998657227</ele>
        <time>2024-09-23T16:29:23.000Z</time>
      </trkpt>
      <trkpt lat="42.23242" lon="19.70313">
        <ele>355.82998657227</ele>
        <time>2024-09-23T16:29:24.000Z</time>
      </trkpt>
      <trkpt lat="42.23236" lon="19.70302">
        <ele>355.82998657227</ele>
        <time>2024-09-23T16:29:25.000Z</time>
      </trkpt>
      <trkpt lat="42.23233" lon="19.70291">
        <ele>356.30999755859</ele>
        <time>2024-09-23T16:29:26.000Z</time>
      </trkpt>
      <trkpt lat="42.23229" lon="19.70283">
        <ele>356.30999755859</ele>
        <time>2024-09-23T16:29:27.000Z</time>
      </trkpt>
      <trkpt lat="42.23227" lon="19.70272">
        <ele>356.79000854492</ele>
        <time>2024-09-23T16:29:28.000Z</time>
      </trkpt>
      <trkpt lat="42.23226" lon="19.70261">
        <ele>357.26998901367</ele>
        <time>2024-09-23T16:29:29.000Z</time>
      </trkpt>
      <trkpt lat="42.23222" lon="19.70254">
        <ele>356.79000854492</ele>
        <time>2024-09-23T16:29:30.000Z</time>
      </trkpt>
      <trkpt lat="42.23219" lon="19.70246">
        <ele>356.79000854492</ele>
        <time>2024-09-23T16:29:31.000Z</time>
      </trkpt>
      <trkpt lat="42.23211" lon="19.70236">
        <ele>356.30999755859</ele>
        <time>2024-09-23T16:29:32.000Z</time>
      </trkpt>
      <trkpt lat="42.23206" lon="19.70228">
        <ele>356.79000854492</ele>
        <time>2024-09-23T16:29:33.000Z</time>
      </trkpt>
      <trkpt lat="42.23203" lon="19.70223">
        <ele>356.79000854492</ele>
        <time>2024-09-23T16:29:34.000Z</time>
      </trkpt>
      <trkpt lat="42.23197" lon="19.70211">
        <ele>357.26998901367</ele>
        <time>2024-09-23T16:29:35.000Z</time>
      </trkpt>
      <trkpt lat="42.23194" lon="19.70199">
        <ele>357.75</ele>
        <time>2024-09-23T16:29:36.000Z</time>
      </trkpt>
      <trkpt lat="42.23192" lon="19.70192">
        <ele>357.75</ele>
        <time>2024-09-23T16:29:37.000Z</time>
      </trkpt>
      <trkpt lat="42.23186" lon="19.70181">
        <ele>356.79000854492</ele>
        <time>2024-09-23T16:29:38.000Z</time>
      </trkpt>
      <trkpt lat="42.2318" lon="19.70174">
        <ele>356.79000854492</ele>
        <time>2024-09-23T16:29:39.000Z</time>
      </trkpt>
      <trkpt lat="42.23168" lon="19.70165">
        <ele>355.82998657227</ele>
        <time>2024-09-23T16:29:40.000Z</time>
      </trkpt>
      <trkpt lat="42.23165" lon="19.70162">
        <ele>355.33999633789</ele>
        <time>2024-09-23T16:29:41.000Z</time>
      </trkpt>
      <trkpt lat="42.23158" lon="19.70154">
        <ele>355.82998657227</ele>
        <time>2024-09-23T16:29:42.000Z</time>
      </trkpt>
      <trkpt lat="42.23152" lon="19.70144">
        <ele>355.82998657227</ele>
        <time>2024-09-23T16:29:43.000Z</time>
      </trkpt>
      <trkpt lat="42.23143" lon="19.70131">
        <ele>356.30999755859</ele>
        <time>2024-09-23T16:29:44.000Z</time>
      </trkpt>
      <trkpt lat="42.23135" lon="19.70119">
        <ele>356.30999755859</ele>
        <time>2024-09-23T16:29:46.000Z</time>
      </trkpt>
      <trkpt lat="42.23129" lon="19.70111">
        <ele>356.30999755859</ele>
        <time>2024-09-23T16:29:47.000Z</time>
      </trkpt>
      <trkpt lat="42.23123" lon="19.70105">
        <ele>356.79000854492</ele>
        <time>2024-09-23T16:29:48.000Z</time>
      </trkpt>
      <trkpt lat="42.23116" lon="19.70101">
        <ele>356.30999755859</ele>
        <time>2024-09-23T16:29:49.000Z</time>
      </trkpt>
      <trkpt lat="42.2311" lon="19.70099">
        <ele>356.79000854492</ele>
        <time>2024-09-23T16:29:50.000Z</time>
      </trkpt>
      <trkpt lat="42.23105" lon="19.70101">
        <ele>356.79000854492</ele>
        <time>2024-09-23T16:29:51.000Z</time>
      </trkpt>
      <trkpt lat="42.231" lon="19.70105">
        <ele>356.79000854492</ele>
        <time>2024-09-23T16:29:52.000Z</time>
      </trkpt>
      <trkpt lat="42.23094" lon="19.70113">
        <ele>356.79000854492</ele>
        <time>2024-09-23T16:29:53.000Z</time>
      </trkpt>
      <trkpt lat="42.2309" lon="19.7012">
        <ele>356.79000854492</ele>
        <time>2024-09-23T16:29:54.000Z</time>
      </trkpt>
      <trkpt lat="42.23085" lon="19.70128">
        <ele>356.79000854492</ele>
        <time>2024-09-23T16:29:55.000Z</time>
      </trkpt>
      <trkpt lat="42.2308" lon="19.70134">
        <ele>356.79000854492</ele>
        <time>2024-09-23T16:29:56.000Z</time>
      </trkpt>
      <trkpt lat="42.23074" lon="19.7014">
        <ele>356.79000854492</ele>
        <time>2024-09-23T16:29:57.000Z</time>
      </trkpt>
      <trkpt lat="42.23066" lon="19.70145">
        <ele>356.79000854492</ele>
        <time>2024-09-23T16:29:58.000Z</time>
      </trkpt>
      <trkpt lat="42.23056" lon="19.7015">
        <ele>357.26998901367</ele>
        <time>2024-09-23T16:29:59.000Z</time>
      </trkpt>
      <trkpt lat="42.23052" lon="19.70152">
        <ele>357.75</ele>
        <time>2024-09-23T16:30:00.000Z</time>
      </trkpt>
      <trkpt lat="42.2304" lon="19.7016">
        <ele>358.70999145508</ele>
        <time>2024-09-23T16:30:01.000Z</time>
      </trkpt>
      <trkpt lat="42.23036" lon="19.70162">
        <ele>358.70999145508</ele>
        <time>2024-09-23T16:30:02.000Z</time>
      </trkpt>
      <trkpt lat="42.23028" lon="19.70166">
        <ele>359.19000244141</ele>
        <time>2024-09-23T16:30:03.000Z</time>
      </trkpt>
      <trkpt lat="42.23021" lon="19.70169">
        <ele>359.67001342773</ele>
        <time>2024-09-23T16:30:04.000Z</time>
      </trkpt>
      <trkpt lat="42.23013" lon="19.70172">
        <ele>360.14999389648</ele>
        <time>2024-09-23T16:30:05.000Z</time>
      </trkpt>
      <trkpt lat="42.23006" lon="19.70173">
        <ele>360.63000488281</ele>
        <time>2024-09-23T16:30:06.000Z</time>
      </trkpt>
      <trkpt lat="42.23" lon="19.70173">
        <ele>360.63000488281</ele>
        <time>2024-09-23T16:30:07.000Z</time>
      </trkpt>
      <trkpt lat="42.22994" lon="19.70169">
        <ele>361.10998535156</ele>
        <time>2024-09-23T16:30:08.000Z</time>
      </trkpt>
      <trkpt lat="42.22987" lon="19.7016">
        <ele>361.58999633789</ele>
        <time>2024-09-23T16:30:09.000Z</time>
      </trkpt>
      <trkpt lat="42.22985" lon="19.70157">
        <ele>362.07000732422</ele>
        <time>2024-09-23T16:30:10.000Z</time>
      </trkpt>
      <trkpt lat="42.2298" lon="19.70152">
        <ele>362.07000732422</ele>
        <time>2024-09-23T16:30:11.000Z</time>
      </trkpt>
      <trkpt lat="42.22975" lon="19.70146">
        <ele>362.54998779297</ele>
        <time>2024-09-23T16:30:12.000Z</time>
      </trkpt>
      <trkpt lat="42.22972" lon="19.7014">
        <ele>363.04000854492</ele>
        <time>2024-09-23T16:30:13.000Z</time>
      </trkpt>
      <trkpt lat="42.22969" lon="19.70134">
        <ele>363.51998901367</ele>
        <time>2024-09-23T16:30:14.000Z</time>
      </trkpt>
      <trkpt lat="42.22967" lon="19.7013">
        <ele>363.51998901367</ele>
        <time>2024-09-23T16:30:15.000Z</time>
      </trkpt>
      <trkpt lat="42.22964" lon="19.70126">
        <ele>363.51998901367</ele>
        <time>2024-09-23T16:30:16.000Z</time>
      </trkpt>
      <trkpt lat="42.2296" lon="19.70122">
        <ele>363.51998901367</ele>
        <time>2024-09-23T16:30:17.000Z</time>
      </trkpt>
      <trkpt lat="42.22955" lon="19.7012">
        <ele>364</ele>
        <time>2024-09-23T16:30:18.000Z</time>
      </trkpt>
      <trkpt lat="42.22949" lon="19.70116">
        <ele>363.51998901367</ele>
        <time>2024-09-23T16:30:19.000Z</time>
      </trkpt>
      <trkpt lat="42.22945" lon="19.70112">
        <ele>363.51998901367</ele>
        <time>2024-09-23T16:30:20.000Z</time>
      </trkpt>
      <trkpt lat="42.22939" lon="19.70105">
        <ele>363.51998901367</ele>
        <time>2024-09-23T16:30:21.000Z</time>
      </trkpt>
      <trkpt lat="42.22935" lon="19.701">
        <ele>362.54998779297</ele>
        <time>2024-09-23T16:30:22.000Z</time>
      </trkpt>
      <trkpt lat="42.22929" lon="19.70096">
        <ele>362.07000732422</ele>
        <time>2024-09-23T16:30:23.000Z</time>
      </trkpt>
      <trkpt lat="42.22922" lon="19.70094">
        <ele>361.58999633789</ele>
        <time>2024-09-23T16:30:24.000Z</time>
      </trkpt>
      <trkpt lat="42.22916" lon="19.70094">
        <ele>361.10998535156</ele>
        <time>2024-09-23T16:30:25.000Z</time>
      </trkpt>
      <trkpt lat="42.2291" lon="19.70097">
        <ele>361.10998535156</ele>
        <time>2024-09-23T16:30:26.000Z</time>
      </trkpt>
      <trkpt lat="42.22904" lon="19.70102">
        <ele>361.10998535156</ele>
        <time>2024-09-23T16:30:27.000Z</time>
      </trkpt>
      <trkpt lat="42.22899" lon="19.70109">
        <ele>360.63000488281</ele>
        <time>2024-09-23T16:30:28.000Z</time>
      </trkpt>
      <trkpt lat="42.22894" lon="19.70118">
        <ele>360.63000488281</ele>
        <time>2024-09-23T16:30:29.000Z</time>
      </trkpt>
      <trkpt lat="42.22885" lon="19.70132">
        <ele>360.63000488281</ele>
        <time>2024-09-23T16:30:30.000Z</time>
      </trkpt>
      <trkpt lat="42.2288" lon="19.70142">
        <ele>360.14999389648</ele>
        <time>2024-09-23T16:30:31.000Z</time>
      </trkpt>
      <trkpt lat="42.22876" lon="19.70148">
        <ele>360.14999389648</ele>
        <time>2024-09-23T16:30:32.000Z</time>
      </trkpt>
      <trkpt lat="42.22871" lon="19.70154">
        <ele>359.67001342773</ele>
        <time>2024-09-23T16:30:33.000Z</time>
      </trkpt>
      <trkpt lat="42.22864" lon="19.7016">
        <ele>359.67001342773</ele>
        <time>2024-09-23T16:30:34.000Z</time>
      </trkpt>
      <trkpt lat="42.22843" lon="19.70177">
        <ele>360.14999389648</ele>
        <time>2024-09-23T16:30:37.000Z</time>
      </trkpt>
      <trkpt lat="42.22818" lon="19.702">
        <ele>360.14999389648</ele>
        <time>2024-09-23T16:30:40.000Z</time>
      </trkpt>
      <trkpt lat="42.22814" lon="19.70203">
        <ele>360.14999389648</ele>
        <time>2024-09-23T16:30:41.000Z</time>
      </trkpt>
      <trkpt lat="42.22806" lon="19.70206">
        <ele>360.14999389648</ele>
        <time>2024-09-23T16:30:42.000Z</time>
      </trkpt>
      <trkpt lat="42.22797" lon="19.70209">
        <ele>360.63000488281</ele>
        <time>2024-09-23T16:30:43.000Z</time>
      </trkpt>
      <trkpt lat="42.2279" lon="19.70212">
        <ele>360.63000488281</ele>
        <time>2024-09-23T16:30:44.000Z</time>
      </trkpt>
      <trkpt lat="42.22781" lon="19.70219">
        <ele>360.14999389648</ele>
        <time>2024-09-23T16:30:45.000Z</time>
      </trkpt>
      <trkpt lat="42.22774" lon="19.70223">
        <ele>359.67001342773</ele>
        <time>2024-09-23T16:30:46.000Z</time>
      </trkpt>
      <trkpt lat="42.22766" lon="19.70225">
        <ele>359.67001342773</ele>
        <time>2024-09-23T16:30:47.000Z</time>
      </trkpt>
      <trkpt lat="42.2276" lon="19.70224">
        <ele>359.19000244141</ele>
        <time>2024-09-23T16:30:48.000Z</time>
      </trkpt>
      <trkpt lat="42.22753" lon="19.70221">
        <ele>358.70999145508</ele>
        <time>2024-09-23T16:30:49.000Z</time>
      </trkpt>
      <trkpt lat="42.22747" lon="19.70216">
        <ele>358.23001098633</ele>
        <time>2024-09-23T16:30:50.000Z</time>
      </trkpt>
      <trkpt lat="42.22741" lon="19.70209">
        <ele>358.23001098633</ele>
        <time>2024-09-23T16:30:51.000Z</time>
      </trkpt>
      <trkpt lat="42.22735" lon="19.70201">
        <ele>358.23001098633</ele>
        <time>2024-09-23T16:30:52.000Z</time>
      </trkpt>
      <trkpt lat="42.22727" lon="19.7019">
        <ele>358.23001098633</ele>
        <time>2024-09-23T16:30:53.000Z</time>
      </trkpt>
      <trkpt lat="42.22724" lon="19.70186">
        <ele>358.23001098633</ele>
        <time>2024-09-23T16:30:54.000Z</time>
      </trkpt>
      <trkpt lat="42.22719" lon="19.70176">
        <ele>358.23001098633</ele>
        <time>2024-09-23T16:30:55.000Z</time>
      </trkpt>
      <trkpt lat="42.22714" lon="19.70164">
        <ele>358.70999145508</ele>
        <time>2024-09-23T16:30:56.000Z</time>
      </trkpt>
      <trkpt lat="42.22711" lon="19.70158">
        <ele>359.19000244141</ele>
        <time>2024-09-23T16:30:57.000Z</time>
      </trkpt>
      <trkpt lat="42.22707" lon="19.70151">
        <ele>359.19000244141</ele>
        <time>2024-09-23T16:30:58.000Z</time>
      </trkpt>
      <trkpt lat="42.22702" lon="19.70147">
        <ele>360.14999389648</ele>
        <time>2024-09-23T16:30:59.000Z</time>
      </trkpt>
      <trkpt lat="42.22697" lon="19.70146">
        <ele>361.10998535156</ele>
        <time>2024-09-23T16:31:00.000Z</time>
      </trkpt>
      <trkpt lat="42.22691" lon="19.70148">
        <ele>361.58999633789</ele>
        <time>2024-09-23T16:31:01.000Z</time>
      </trkpt>
      <trkpt lat="42.22683" lon="19.70152">
        <ele>361.58999633789</ele>
        <time>2024-09-23T16:31:02.000Z</time>
      </trkpt>
      <trkpt lat="42.22678" lon="19.70154">
        <ele>361.58999633789</ele>
        <time>2024-09-23T16:31:03.000Z</time>
      </trkpt>
      <trkpt lat="42.22671" lon="19.70156">
        <ele>361.58999633789</ele>
        <time>2024-09-23T16:31:04.000Z</time>
      </trkpt>
      <trkpt lat="42.22662" lon="19.70157">
        <ele>361.58999633789</ele>
        <time>2024-09-23T16:31:05.000Z</time>
      </trkpt>
      <trkpt lat="42.22653" lon="19.70157">
        <ele>362.07000732422</ele>
        <time>2024-09-23T16:31:06.000Z</time>
      </trkpt>
      <trkpt lat="42.22645" lon="19.70157">
        <ele>361.58999633789</ele>
        <time>2024-09-23T16:31:07.000Z</time>
      </trkpt>
      <trkpt lat="42.22634" lon="19.70154">
        <ele>361.58999633789</ele>
        <time>2024-09-23T16:31:08.000Z</time>
      </trkpt>
      <trkpt lat="42.22627" lon="19.70152">
        <ele>361.58999633789</ele>
        <time>2024-09-23T16:31:09.000Z</time>
      </trkpt>
      <trkpt lat="42.22621" lon="19.70151">
        <ele>361.58999633789</ele>
        <time>2024-09-23T16:31:10.000Z</time>
      </trkpt>
      <trkpt lat="42.22615" lon="19.70153">
        <ele>361.10998535156</ele>
        <time>2024-09-23T16:31:11.000Z</time>
      </trkpt>
      <trkpt lat="42.22608" lon="19.70158">
        <ele>361.10998535156</ele>
        <time>2024-09-23T16:31:12.000Z</time>
      </trkpt>
      <trkpt lat="42.22603" lon="19.70166">
        <ele>360.63000488281</ele>
        <time>2024-09-23T16:31:13.000Z</time>
      </trkpt>
      <trkpt lat="42.22598" lon="19.70175">
        <ele>360.14999389648</ele>
        <time>2024-09-23T16:31:14.000Z</time>
      </trkpt>
      <trkpt lat="42.22595" lon="19.70185">
        <ele>359.67001342773</ele>
        <time>2024-09-23T16:31:15.000Z</time>
      </trkpt>
      <trkpt lat="42.22593" lon="19.70197">
        <ele>359.67001342773</ele>
        <time>2024-09-23T16:31:16.000Z</time>
      </trkpt>
      <trkpt lat="42.22591" lon="19.70213">
        <ele>359.19000244141</ele>
        <time>2024-09-23T16:31:17.000Z</time>
      </trkpt>
      <trkpt lat="42.22591" lon="19.70217">
        <ele>359.19000244141</ele>
        <time>2024-09-23T16:31:18.000Z</time>
      </trkpt>
      <trkpt lat="42.22588" lon="19.70226">
        <ele>358.70999145508</ele>
        <time>2024-09-23T16:31:19.000Z</time>
      </trkpt>
      <trkpt lat="42.22584" lon="19.70231">
        <ele>358.23001098633</ele>
        <time>2024-09-23T16:31:20.000Z</time>
      </trkpt>
      <trkpt lat="42.22579" lon="19.70235">
        <ele>358.23001098633</ele>
        <time>2024-09-23T16:31:21.000Z</time>
      </trkpt>
      <trkpt lat="42.22573" lon="19.70238">
        <ele>357.75</ele>
        <time>2024-09-23T16:31:22.000Z</time>
      </trkpt>
      <trkpt lat="42.22567" lon="19.70244">
        <ele>357.75</ele>
        <time>2024-09-23T16:31:23.000Z</time>
      </trkpt>
      <trkpt lat="42.22562" lon="19.70253">
        <ele>357.26998901367</ele>
        <time>2024-09-23T16:31:24.000Z</time>
      </trkpt>
      <trkpt lat="42.22551" lon="19.70275">
        <ele>356.79000854492</ele>
        <time>2024-09-23T16:31:26.000Z</time>
      </trkpt>
      <trkpt lat="42.22547" lon="19.70281">
        <ele>356.30999755859</ele>
        <time>2024-09-23T16:31:27.000Z</time>
      </trkpt>
      <trkpt lat="42.22541" lon="19.70287">
        <ele>356.30999755859</ele>
        <time>2024-09-23T16:31:28.000Z</time>
      </trkpt>
      <trkpt lat="42.22531" lon="19.70293">
        <ele>355.33999633789</ele>
        <time>2024-09-23T16:31:29.000Z</time>
      </trkpt>
      <trkpt lat="42.22526" lon="19.70295">
        <ele>355.33999633789</ele>
        <time>2024-09-23T16:31:30.000Z</time>
      </trkpt>
      <trkpt lat="42.22519" lon="19.70297">
        <ele>354.38000488281</ele>
        <time>2024-09-23T16:31:31.000Z</time>
      </trkpt>
      <trkpt lat="42.22511" lon="19.70298">
        <ele>353.42001342773</ele>
        <time>2024-09-23T16:31:32.000Z</time>
      </trkpt>
      <trkpt lat="42.22503" lon="19.70299">
        <ele>352.94000244141</ele>
        <time>2024-09-23T16:31:33.000Z</time>
      </trkpt>
      <trkpt lat="42.22494" lon="19.70302">
        <ele>351.98001098633</ele>
        <time>2024-09-23T16:31:34.000Z</time>
      </trkpt>
      <trkpt lat="42.22482" lon="19.70308">
        <ele>351.5</ele>
        <time>2024-09-23T16:31:36.000Z</time>
      </trkpt>
      <trkpt lat="42.22474" lon="19.70311">
        <ele>351.5</ele>
        <time>2024-09-23T16:31:37.000Z</time>
      </trkpt>
      <trkpt lat="42.22465" lon="19.70313">
        <ele>351.01998901367</ele>
        <time>2024-09-23T16:31:38.000Z</time>
      </trkpt>
      <trkpt lat="42.22452" lon="19.70314">
        <ele>351.01998901367</ele>
        <time>2024-09-23T16:31:40.000Z</time>
      </trkpt>
      <trkpt lat="42.22445" lon="19.70316">
        <ele>351.01998901367</ele>
        <time>2024-09-23T16:31:41.000Z</time>
      </trkpt>
      <trkpt lat="42.22438" lon="19.70318">
        <ele>350.54000854492</ele>
        <time>2024-09-23T16:31:42.000Z</time>
      </trkpt>
      <trkpt lat="42.22433" lon="19.70321">
        <ele>350.54000854492</ele>
        <time>2024-09-23T16:31:43.000Z</time>
      </trkpt>
      <trkpt lat="42.22428" lon="19.70327">
        <ele>350.54000854492</ele>
        <time>2024-09-23T16:31:44.000Z</time>
      </trkpt>
      <trkpt lat="42.22426" lon="19.70335">
        <ele>350.05999755859</ele>
        <time>2024-09-23T16:31:45.000Z</time>
      </trkpt>
      <trkpt lat="42.22426" lon="19.70343">
        <ele>350.05999755859</ele>
        <time>2024-09-23T16:31:46.000Z</time>
      </trkpt>
      <trkpt lat="42.22426" lon="19.70353">
        <ele>349.57998657227</ele>
        <time>2024-09-23T16:31:47.000Z</time>
      </trkpt>
      <trkpt lat="42.22426" lon="19.70359">
        <ele>349.57998657227</ele>
        <time>2024-09-23T16:31:48.000Z</time>
      </trkpt>
      <trkpt lat="42.22426" lon="19.70367">
        <ele>349.57998657227</ele>
        <time>2024-09-23T16:31:49.000Z</time>
      </trkpt>
      <trkpt lat="42.22423" lon="19.70373">
        <ele>349.10000610352</ele>
        <time>2024-09-23T16:31:50.000Z</time>
      </trkpt>
      <trkpt lat="42.22419" lon="19.70378">
        <ele>349.10000610352</ele>
        <time>2024-09-23T16:31:51.000Z</time>
      </trkpt>
      <trkpt lat="42.22413" lon="19.7038">
        <ele>348.61999511719</ele>
        <time>2024-09-23T16:31:52.000Z</time>
      </trkpt>
      <trkpt lat="42.22407" lon="19.7038">
        <ele>348.13000488281</ele>
        <time>2024-09-23T16:31:53.000Z</time>
      </trkpt>
      <trkpt lat="42.22402" lon="19.70378">
        <ele>347.17001342773</ele>
        <time>2024-09-23T16:31:54.000Z</time>
      </trkpt>
      <trkpt lat="42.22397" lon="19.70374">
        <ele>346.69000244141</ele>
        <time>2024-09-23T16:31:55.000Z</time>
      </trkpt>
      <trkpt lat="42.22383" lon="19.70365">
        <ele>346.69000244141</ele>
        <time>2024-09-23T16:31:57.000Z</time>
      </trkpt>
      <trkpt lat="42.22376" lon="19.70361">
        <ele>346.69000244141</ele>
        <time>2024-09-23T16:31:58.000Z</time>
      </trkpt>
      <trkpt lat="42.22369" lon="19.70359">
        <ele>347.17001342773</ele>
        <time>2024-09-23T16:31:59.000Z</time>
      </trkpt>
      <trkpt lat="42.22361" lon="19.70359">
        <ele>346.69000244141</ele>
        <time>2024-09-23T16:32:00.000Z</time>
      </trkpt>
      <trkpt lat="42.22354" lon="19.70361">
        <ele>346.69000244141</ele>
        <time>2024-09-23T16:32:01.000Z</time>
      </trkpt>
      <trkpt lat="42.22348" lon="19.70366">
        <ele>347.17001342773</ele>
        <time>2024-09-23T16:32:02.000Z</time>
      </trkpt>
      <trkpt lat="42.22343" lon="19.70373">
        <ele>347.17001342773</ele>
        <time>2024-09-23T16:32:03.000Z</time>
      </trkpt>
      <trkpt lat="42.22339" lon="19.70381">
        <ele>347.17001342773</ele>
        <time>2024-09-23T16:32:04.000Z</time>
      </trkpt>
      <trkpt lat="42.22334" lon="19.70387">
        <ele>347.17001342773</ele>
        <time>2024-09-23T16:32:05.000Z</time>
      </trkpt>
      <trkpt lat="42.22329" lon="19.7039">
        <ele>346.69000244141</ele>
        <time>2024-09-23T16:32:06.000Z</time>
      </trkpt>
      <trkpt lat="42.22322" lon="19.70389">
        <ele>346.20999145508</ele>
        <time>2024-09-23T16:32:07.000Z</time>
      </trkpt>
      <trkpt lat="42.22315" lon="19.70386">
        <ele>345.73001098633</ele>
        <time>2024-09-23T16:32:08.000Z</time>
      </trkpt>
      <trkpt lat="42.22272" lon="19.70366">
        <ele>345.25</ele>
        <time>2024-09-23T16:32:12.000Z</time>
      </trkpt>
      <trkpt lat="42.22269" lon="19.70365">
        <ele>344.76998901367</ele>
        <time>2024-09-23T16:32:13.000Z</time>
      </trkpt>
      <trkpt lat="42.2226" lon="19.70364">
        <ele>344.76998901367</ele>
        <time>2024-09-23T16:32:14.000Z</time>
      </trkpt>
      <trkpt lat="42.22253" lon="19.70364">
        <ele>344.76998901367</ele>
        <time>2024-09-23T16:32:15.000Z</time>
      </trkpt>
      <trkpt lat="42.22244" lon="19.70367">
        <ele>344.76998901367</ele>
        <time>2024-09-23T16:32:16.000Z</time>
      </trkpt>
      <trkpt lat="42.22236" lon="19.70372">
        <ele>345.25</ele>
        <time>2024-09-23T16:32:17.000Z</time>
      </trkpt>
      <trkpt lat="42.22229" lon="19.70379">
        <ele>345.25</ele>
        <time>2024-09-23T16:32:18.000Z</time>
      </trkpt>
      <trkpt lat="42.22223" lon="19.70387">
        <ele>345.25</ele>
        <time>2024-09-23T16:32:19.000Z</time>
      </trkpt>
      <trkpt lat="42.22217" lon="19.70392">
        <ele>345.25</ele>
        <time>2024-09-23T16:32:20.000Z</time>
      </trkpt>
      <trkpt lat="42.22211" lon="19.70393">
        <ele>345.25</ele>
        <time>2024-09-23T16:32:21.000Z</time>
      </trkpt>
      <trkpt lat="42.22206" lon="19.70391">
        <ele>344.76998901367</ele>
        <time>2024-09-23T16:32:22.000Z</time>
      </trkpt>
      <trkpt lat="42.22198" lon="19.70383">
        <ele>344.29000854492</ele>
        <time>2024-09-23T16:32:23.000Z</time>
      </trkpt>
      <trkpt lat="42.22195" lon="19.70379">
        <ele>344.29000854492</ele>
        <time>2024-09-23T16:32:24.000Z</time>
      </trkpt>
      <trkpt lat="42.22187" lon="19.70374">
        <ele>343.32998657227</ele>
        <time>2024-09-23T16:32:25.000Z</time>
      </trkpt>
      <trkpt lat="42.22178" lon="19.70372">
        <ele>343.32998657227</ele>
        <time>2024-09-23T16:32:26.000Z</time>
      </trkpt>
      <trkpt lat="42.22168" lon="19.7037">
        <ele>343.32998657227</ele>
        <time>2024-09-23T16:32:27.000Z</time>
      </trkpt>
      <trkpt lat="42.2216" lon="19.70368">
        <ele>343.32998657227</ele>
        <time>2024-09-23T16:32:28.000Z</time>
      </trkpt>
      <trkpt lat="42.22152" lon="19.70363">
        <ele>343.32998657227</ele>
        <time>2024-09-23T16:32:29.000Z</time>
      </trkpt>
      <trkpt lat="42.22143" lon="19.70356">
        <ele>343.32998657227</ele>
        <time>2024-09-23T16:32:30.000Z</time>
      </trkpt>
      <trkpt lat="42.22138" lon="19.70352">
        <ele>343.32998657227</ele>
        <time>2024-09-23T16:32:31.000Z</time>
      </trkpt>
      <trkpt lat="42.22132" lon="19.7035">
        <ele>343.80999755859</ele>
        <time>2024-09-23T16:32:32.000Z</time>
      </trkpt>
      <trkpt lat="42.22125" lon="19.70349">
        <ele>343.80999755859</ele>
        <time>2024-09-23T16:32:33.000Z</time>
      </trkpt>
      <trkpt lat="42.22119" lon="19.70349">
        <ele>343.80999755859</ele>
        <time>2024-09-23T16:32:34.000Z</time>
      </trkpt>
      <trkpt lat="42.22114" lon="19.70346">
        <ele>343.32998657227</ele>
        <time>2024-09-23T16:32:35.000Z</time>
      </trkpt>
      <trkpt lat="42.22107" lon="19.70341">
        <ele>342.85000610352</ele>
        <time>2024-09-23T16:32:36.000Z</time>
      </trkpt>
      <trkpt lat="42.22101" lon="19.70339">
        <ele>342.85000610352</ele>
        <time>2024-09-23T16:32:37.000Z</time>
      </trkpt>
      <trkpt lat="42.22088" lon="19.70338">
        <ele>340.44000244141</ele>
        <time>2024-09-23T16:32:38.000Z</time>
      </trkpt>
      <trkpt lat="42.22083" lon="19.70338">
        <ele>339.95999145508</ele>
        <time>2024-09-23T16:32:39.000Z</time>
      </trkpt>
      <trkpt lat="42.22077" lon="19.70337">
        <ele>339.48001098633</ele>
        <time>2024-09-23T16:32:40.000Z</time>
      </trkpt>
      <trkpt lat="42.2207" lon="19.70333">
        <ele>339</ele>
        <time>2024-09-23T16:32:41.000Z</time>
      </trkpt>
      <trkpt lat="42.22064" lon="19.70328">
        <ele>338.51998901367</ele>
        <time>2024-09-23T16:32:42.000Z</time>
      </trkpt>
      <trkpt lat="42.22059" lon="19.70325">
        <ele>338.04000854492</ele>
        <time>2024-09-23T16:32:43.000Z</time>
      </trkpt>
      <trkpt lat="42.22054" lon="19.70325">
        <ele>337.07998657227</ele>
        <time>2024-09-23T16:32:44.000Z</time>
      </trkpt>
      <trkpt lat="42.2205" lon="19.70328">
        <ele>337.07998657227</ele>
        <time>2024-09-23T16:32:45.000Z</time>
      </trkpt>
      <trkpt lat="42.22045" lon="19.70335">
        <ele>336.60000610352</ele>
        <time>2024-09-23T16:32:46.000Z</time>
      </trkpt>
      <trkpt lat="42.22041" lon="19.70344">
        <ele>336.11999511719</ele>
        <time>2024-09-23T16:32:47.000Z</time>
      </trkpt>
      <trkpt lat="42.22036" lon="19.70352">
        <ele>335.64001464844</ele>
        <time>2024-09-23T16:32:48.000Z</time>
      </trkpt>
      <trkpt lat="42.22031" lon="19.70356">
        <ele>335.64001464844</ele>
        <time>2024-09-23T16:32:49.000Z</time>
      </trkpt>
      <trkpt lat="42.22025" lon="19.70357">
        <ele>335.16000366211</ele>
        <time>2024-09-23T16:32:50.000Z</time>
      </trkpt>
      <trkpt lat="42.22019" lon="19.70355">
        <ele>335.16000366211</ele>
        <time>2024-09-23T16:32:51.000Z</time>
      </trkpt>
      <trkpt lat="42.22013" lon="19.70349">
        <ele>334.67999267578</ele>
        <time>2024-09-23T16:32:52.000Z</time>
      </trkpt>
      <trkpt lat="42.22008" lon="19.70346">
        <ele>334.20001220703</ele>
        <time>2024-09-23T16:32:53.000Z</time>
      </trkpt>
      <trkpt lat="42.22001" lon="19.70347">
        <ele>334.20001220703</ele>
        <time>2024-09-23T16:32:54.000Z</time>
      </trkpt>
      <trkpt lat="42.21994" lon="19.70351">
        <ele>334.20001220703</ele>
        <time>2024-09-23T16:32:55.000Z</time>
      </trkpt>
      <trkpt lat="42.21986" lon="19.7036">
        <ele>334.20001220703</ele>
        <time>2024-09-23T16:32:56.000Z</time>
      </trkpt>
      <trkpt lat="42.21979" lon="19.70365">
        <ele>333.70999145508</ele>
        <time>2024-09-23T16:32:57.000Z</time>
      </trkpt>
      <trkpt lat="42.21966" lon="19.70373">
        <ele>332.75</ele>
        <time>2024-09-23T16:32:58.000Z</time>
      </trkpt>
      <trkpt lat="42.21961" lon="19.70376">
        <ele>332.26998901367</ele>
        <time>2024-09-23T16:32:59.000Z</time>
      </trkpt>
      <trkpt lat="42.21955" lon="19.70383">
        <ele>331.30999755859</ele>
        <time>2024-09-23T16:33:00.000Z</time>
      </trkpt>
      <trkpt lat="42.21945" lon="19.704">
        <ele>330.35000610352</ele>
        <time>2024-09-23T16:33:01.000Z</time>
      </trkpt>
      <trkpt lat="42.21934" lon="19.70422">
        <ele>329.86999511719</ele>
        <time>2024-09-23T16:33:03.000Z</time>
      </trkpt>
      <trkpt lat="42.21931" lon="19.70427">
        <ele>329.86999511719</ele>
        <time>2024-09-23T16:33:04.000Z</time>
      </trkpt>
      <trkpt lat="42.21925" lon="19.70435">
        <ele>329.39001464844</ele>
        <time>2024-09-23T16:33:05.000Z</time>
      </trkpt>
      <trkpt lat="42.21918" lon="19.70439">
        <ele>328.91000366211</ele>
        <time>2024-09-23T16:33:06.000Z</time>
      </trkpt>
      <trkpt lat="42.2191" lon="19.70442">
        <ele>328.42999267578</ele>
        <time>2024-09-23T16:33:07.000Z</time>
      </trkpt>
      <trkpt lat="42.21903" lon="19.70442">
        <ele>327.95001220703</ele>
        <time>2024-09-23T16:33:08.000Z</time>
      </trkpt>
      <trkpt lat="42.21897" lon="19.70439">
        <ele>327.4700012207</ele>
        <time>2024-09-23T16:33:09.000Z</time>
      </trkpt>
      <trkpt lat="42.21892" lon="19.70433">
        <ele>327.4700012207</ele>
        <time>2024-09-23T16:33:10.000Z</time>
      </trkpt>
      <trkpt lat="42.21887" lon="19.70425">
        <ele>326.98999023438</ele>
        <time>2024-09-23T16:33:11.000Z</time>
      </trkpt>
      <trkpt lat="42.21882" lon="19.70419">
        <ele>326.98999023438</ele>
        <time>2024-09-23T16:33:12.000Z</time>
      </trkpt>
      <trkpt lat="42.21876" lon="19.70418">
        <ele>326.98999023438</ele>
        <time>2024-09-23T16:33:13.000Z</time>
      </trkpt>
      <trkpt lat="42.2187" lon="19.7042">
        <ele>326.98999023438</ele>
        <time>2024-09-23T16:33:14.000Z</time>
      </trkpt>
      <trkpt lat="42.21863" lon="19.70426">
        <ele>326.5</ele>
        <time>2024-09-23T16:33:15.000Z</time>
      </trkpt>
      <trkpt lat="42.21856" lon="19.70433">
        <ele>326.01998901367</ele>
        <time>2024-09-23T16:33:16.000Z</time>
      </trkpt>
      <trkpt lat="42.2185" lon="19.70442">
        <ele>325.54000854492</ele>
        <time>2024-09-23T16:33:17.000Z</time>
      </trkpt>
      <trkpt lat="42.21845" lon="19.7045">
        <ele>325.54000854492</ele>
        <time>2024-09-23T16:33:18.000Z</time>
      </trkpt>
      <trkpt lat="42.2184" lon="19.70454">
        <ele>325.54000854492</ele>
        <time>2024-09-23T16:33:19.000Z</time>
      </trkpt>
      <trkpt lat="42.21833" lon="19.70455">
        <ele>326.01998901367</ele>
        <time>2024-09-23T16:33:20.000Z</time>
      </trkpt>
      <trkpt lat="42.21822" lon="19.70451">
        <ele>326.5</ele>
        <time>2024-09-23T16:33:21.000Z</time>
      </trkpt>
      <trkpt lat="42.21816" lon="19.70449">
        <ele>326.5</ele>
        <time>2024-09-23T16:33:22.000Z</time>
      </trkpt>
      <trkpt lat="42.21809" lon="19.70442">
        <ele>326.5</ele>
        <time>2024-09-23T16:33:23.000Z</time>
      </trkpt>
      <trkpt lat="42.21803" lon="19.70434">
        <ele>326.01998901367</ele>
        <time>2024-09-23T16:33:24.000Z</time>
      </trkpt>
      <trkpt lat="42.21796" lon="19.70426">
        <ele>325.05999755859</ele>
        <time>2024-09-23T16:33:25.000Z</time>
      </trkpt>
      <trkpt lat="42.21789" lon="19.7042">
        <ele>324.57998657227</ele>
        <time>2024-09-23T16:33:26.000Z</time>
      </trkpt>
      <trkpt lat="42.21781" lon="19.70418">
        <ele>323.61999511719</ele>
        <time>2024-09-23T16:33:27.000Z</time>
      </trkpt>
      <trkpt lat="42.21772" lon="19.70419">
        <ele>323.61999511719</ele>
        <time>2024-09-23T16:33:28.000Z</time>
      </trkpt>
      <trkpt lat="42.21763" lon="19.70421">
        <ele>323.61999511719</ele>
        <time>2024-09-23T16:33:29.000Z</time>
      </trkpt>
      <trkpt lat="42.21744" lon="19.70423">
        <ele>323.61999511719</ele>
        <time>2024-09-23T16:33:31.000Z</time>
      </trkpt>
      <trkpt lat="42.21733" lon="19.70425">
        <ele>323.14001464844</ele>
        <time>2024-09-23T16:33:32.000Z</time>
      </trkpt>
      <trkpt lat="42.21723" lon="19.70426">
        <ele>323.61999511719</ele>
        <time>2024-09-23T16:33:33.000Z</time>
      </trkpt>
      <trkpt lat="42.21714" lon="19.70425">
        <ele>323.61999511719</ele>
        <time>2024-09-23T16:33:34.000Z</time>
      </trkpt>
      <trkpt lat="42.21706" lon="19.70421">
        <ele>324.10000610352</ele>
        <time>2024-09-23T16:33:35.000Z</time>
      </trkpt>
      <trkpt lat="42.21693" lon="19.70408">
        <ele>324.10000610352</ele>
        <time>2024-09-23T16:33:36.000Z</time>
      </trkpt>
      <trkpt lat="42.21691" lon="19.70406">
        <ele>324.10000610352</ele>
        <time>2024-09-23T16:33:37.000Z</time>
      </trkpt>
      <trkpt lat="42.21683" lon="19.704">
        <ele>324.10000610352</ele>
        <time>2024-09-23T16:33:38.000Z</time>
      </trkpt>
      <trkpt lat="42.21671" lon="19.70393">
        <ele>324.57998657227</ele>
        <time>2024-09-23T16:33:39.000Z</time>
      </trkpt>
      <trkpt lat="42.21662" lon="19.70388">
        <ele>324.57998657227</ele>
        <time>2024-09-23T16:33:40.000Z</time>
      </trkpt>
      <trkpt lat="42.21653" lon="19.70385">
        <ele>325.05999755859</ele>
        <time>2024-09-23T16:33:41.000Z</time>
      </trkpt>
      <trkpt lat="42.21632" lon="19.70379">
        <ele>326.5</ele>
        <time>2024-09-23T16:33:42.000Z</time>
      </trkpt>
      <trkpt lat="42.2162" lon="19.70376">
        <ele>326.98999023438</ele>
        <time>2024-09-23T16:33:43.000Z</time>
      </trkpt>
      <trkpt lat="42.21617" lon="19.70375">
        <ele>326.5</ele>
        <time>2024-09-23T16:33:44.000Z</time>
      </trkpt>
      <trkpt lat="42.21597" lon="19.7037">
        <ele>326.5</ele>
        <time>2024-09-23T16:33:45.000Z</time>
      </trkpt>
      <trkpt lat="42.2159" lon="19.70369">
        <ele>326.01998901367</ele>
        <time>2024-09-23T16:33:46.000Z</time>
      </trkpt>
      <trkpt lat="42.21577" lon="19.70366">
        <ele>326.5</ele>
        <time>2024-09-23T16:33:47.000Z</time>
      </trkpt>
      <trkpt lat="42.21573" lon="19.70366">
        <ele>326.01998901367</ele>
        <time>2024-09-23T16:33:48.000Z</time>
      </trkpt>
      <trkpt lat="42.21561" lon="19.70366">
        <ele>326.5</ele>
        <time>2024-09-23T16:33:49.000Z</time>
      </trkpt>
      <trkpt lat="42.21544" lon="19.70367">
        <ele>326.5</ele>
        <time>2024-09-23T16:33:50.000Z</time>
      </trkpt>
      <trkpt lat="42.21536" lon="19.70367">
        <ele>326.5</ele>
        <time>2024-09-23T16:33:51.000Z</time>
      </trkpt>
      <trkpt lat="42.21525" lon="19.70368">
        <ele>326.5</ele>
        <time>2024-09-23T16:33:52.000Z</time>
      </trkpt>
      <trkpt lat="42.21519" lon="19.70369">
        <ele>326.98999023438</ele>
        <time>2024-09-23T16:33:53.000Z</time>
      </trkpt>
      <trkpt lat="42.21497" lon="19.70375">
        <ele>326.98999023438</ele>
        <time>2024-09-23T16:33:55.000Z</time>
      </trkpt>
      <trkpt lat="42.21495" lon="19.70375">
        <ele>326.98999023438</ele>
        <time>2024-09-23T16:33:56.000Z</time>
      </trkpt>
      <trkpt lat="42.21481" lon="19.70376">
        <ele>326.5</ele>
        <time>2024-09-23T16:33:58.000Z</time>
      </trkpt>
      <trkpt lat="42.21475" lon="19.70376">
        <ele>326.01998901367</ele>
        <time>2024-09-23T16:33:59.000Z</time>
      </trkpt>
      <trkpt lat="42.2147" lon="19.70376">
        <ele>326.01998901367</ele>
        <time>2024-09-23T16:34:00.000Z</time>
      </trkpt>
      <trkpt lat="42.21466" lon="19.70376">
        <ele>326.01998901367</ele>
        <time>2024-09-23T16:34:01.000Z</time>
      </trkpt>
      <trkpt lat="42.21462" lon="19.70377">
        <ele>325.54000854492</ele>
        <time>2024-09-23T16:34:02.000Z</time>
      </trkpt>
      <trkpt lat="42.21458" lon="19.70377">
        <ele>325.54000854492</ele>
        <time>2024-09-23T16:34:03.000Z</time>
      </trkpt>
      <trkpt lat="42.21445" lon="19.704">
        <ele>324.10000610352</ele>
        <time>2024-09-23T16:34:08.000Z</time>
      </trkpt>
      <trkpt lat="42.21445" lon="19.70401">
        <ele>324.10000610352</ele>
        <time>2024-09-23T16:34:09.000Z</time>
      </trkpt>
      <trkpt lat="42.21445" lon="19.70409">
        <ele>323.61999511719</ele>
        <time>2024-09-23T16:34:10.000Z</time>
      </trkpt>
      <trkpt lat="42.21446" lon="19.70416">
        <ele>323.61999511719</ele>
        <time>2024-09-23T16:34:11.000Z</time>
      </trkpt>
      <trkpt lat="42.21447" lon="19.70421">
        <ele>323.14001464844</ele>
        <time>2024-09-23T16:34:12.000Z</time>
      </trkpt>
      <trkpt lat="42.21449" lon="19.70426">
        <ele>323.14001464844</ele>
        <time>2024-09-23T16:34:13.000Z</time>
      </trkpt>
      <trkpt lat="42.21453" lon="19.70439">
        <ele>322.66000366211</ele>
        <time>2024-09-23T16:34:15.000Z</time>
      </trkpt>
      <trkpt lat="42.21454" lon="19.70441">
        <ele>322.66000366211</ele>
        <time>2024-09-23T16:34:16.000Z</time>
      </trkpt>
      <trkpt lat="42.21456" lon="19.70449">
        <ele>322.66000366211</ele>
        <time>2024-09-23T16:34:17.000Z</time>
      </trkpt>
      <trkpt lat="42.21457" lon="19.70454">
        <ele>322.66000366211</ele>
        <time>2024-09-23T16:34:18.000Z</time>
      </trkpt>
      <trkpt lat="42.21459" lon="19.70461">
        <ele>322.66000366211</ele>
        <time>2024-09-23T16:34:19.000Z</time>
      </trkpt>
      <trkpt lat="42.21459" lon="19.70467">
        <ele>322.66000366211</ele>
        <time>2024-09-23T16:34:20.000Z</time>
      </trkpt>
      <trkpt lat="42.21459" lon="19.70488">
        <ele>322.66000366211</ele>
        <time>2024-09-23T16:34:24.000Z</time>
      </trkpt>
      <trkpt lat="42.21459" lon="19.70492">
        <ele>322.66000366211</ele>
        <time>2024-09-23T16:34:25.000Z</time>
      </trkpt>
      <trkpt lat="42.21458" lon="19.70498">
        <ele>322.66000366211</ele>
        <time>2024-09-23T16:34:26.000Z</time>
      </trkpt>
      <trkpt lat="42.21457" lon="19.70503">
        <ele>322.66000366211</ele>
        <time>2024-09-23T16:34:27.000Z</time>
      </trkpt>
      <trkpt lat="42.21454" lon="19.7051">
        <ele>322.66000366211</ele>
        <time>2024-09-23T16:34:28.000Z</time>
      </trkpt>
      <trkpt lat="42.21453" lon="19.70515">
        <ele>322.17999267578</ele>
        <time>2024-09-23T16:34:29.000Z</time>
      </trkpt>
      <trkpt lat="42.21452" lon="19.7052">
        <ele>322.17999267578</ele>
        <time>2024-09-23T16:34:30.000Z</time>
      </trkpt>
      <trkpt lat="42.21452" lon="19.70526">
        <ele>322.17999267578</ele>
        <time>2024-09-23T16:34:31.000Z</time>
      </trkpt>
      <trkpt lat="42.21451" lon="19.70531">
        <ele>322.17999267578</ele>
        <time>2024-09-23T16:34:32.000Z</time>
      </trkpt>
      <trkpt lat="42.21451" lon="19.70538">
        <ele>322.17999267578</ele>
        <time>2024-09-23T16:34:33.000Z</time>
      </trkpt>
      <trkpt lat="42.21452" lon="19.70548">
        <ele>322.17999267578</ele>
        <time>2024-09-23T16:34:34.000Z</time>
      </trkpt>
      <trkpt lat="42.21454" lon="19.70557">
        <ele>321.70001220703</ele>
        <time>2024-09-23T16:34:36.000Z</time>
      </trkpt>
      <trkpt lat="42.21454" lon="19.7056">
        <ele>321.70001220703</ele>
        <time>2024-09-23T16:34:37.000Z</time>
      </trkpt>
      <trkpt lat="42.21454" lon="19.70566">
        <ele>321.70001220703</ele>
        <time>2024-09-23T16:34:38.000Z</time>
      </trkpt>
      <trkpt lat="42.21452" lon="19.7057">
        <ele>321.70001220703</ele>
        <time>2024-09-23T16:34:39.000Z</time>
      </trkpt>
      <trkpt lat="42.21449" lon="19.70575">
        <ele>321.70001220703</ele>
        <time>2024-09-23T16:34:40.000Z</time>
      </trkpt>
      <trkpt lat="42.21446" lon="19.70578">
        <ele>320.73999023438</ele>
        <time>2024-09-23T16:34:41.000Z</time>
      </trkpt>
      <trkpt lat="42.21442" lon="19.7058">
        <ele>320.26000976562</ele>
        <time>2024-09-23T16:34:42.000Z</time>
      </trkpt>
      <trkpt lat="42.21436" lon="19.70581">
        <ele>320.26000976562</ele>
        <time>2024-09-23T16:34:43.000Z</time>
      </trkpt>
      <trkpt lat="42.21431" lon="19.70582">
        <ele>319.7799987793</ele>
        <time>2024-09-23T16:34:44.000Z</time>
      </trkpt>
      <trkpt lat="42.21425" lon="19.70581">
        <ele>318.80999755859</ele>
        <time>2024-09-23T16:34:45.000Z</time>
      </trkpt>
      <trkpt lat="42.21421" lon="19.70576">
        <ele>318.32998657227</ele>
        <time>2024-09-23T16:34:46.000Z</time>
      </trkpt>
      <trkpt lat="42.21418" lon="19.70568">
        <ele>318.32998657227</ele>
        <time>2024-09-23T16:34:47.000Z</time>
      </trkpt>
      <trkpt lat="42.21417" lon="19.70558">
        <ele>317.85000610352</ele>
        <time>2024-09-23T16:34:48.000Z</time>
      </trkpt>
      <trkpt lat="42.21415" lon="19.70543">
        <ele>317.36999511719</ele>
        <time>2024-09-23T16:34:49.000Z</time>
      </trkpt>
      <trkpt lat="42.21413" lon="19.70532">
        <ele>316.89001464844</ele>
        <time>2024-09-23T16:34:50.000Z</time>
      </trkpt>
      <trkpt lat="42.2141" lon="19.70519">
        <ele>316.89001464844</ele>
        <time>2024-09-23T16:34:51.000Z</time>
      </trkpt>
      <trkpt lat="42.21409" lon="19.70514">
        <ele>316.41000366211</ele>
        <time>2024-09-23T16:34:52.000Z</time>
      </trkpt>
      <trkpt lat="42.21406" lon="19.70503">
        <ele>316.41000366211</ele>
        <time>2024-09-23T16:34:53.000Z</time>
      </trkpt>
      <trkpt lat="42.21401" lon="19.70493">
        <ele>316.89001464844</ele>
        <time>2024-09-23T16:34:54.000Z</time>
      </trkpt>
      <trkpt lat="42.21395" lon="19.70485">
        <ele>316.89001464844</ele>
        <time>2024-09-23T16:34:55.000Z</time>
      </trkpt>
      <trkpt lat="42.21388" lon="19.70476">
        <ele>316.41000366211</ele>
        <time>2024-09-23T16:34:56.000Z</time>
      </trkpt>
      <trkpt lat="42.21379" lon="19.70465">
        <ele>316.41000366211</ele>
        <time>2024-09-23T16:34:57.000Z</time>
      </trkpt>
      <trkpt lat="42.21371" lon="19.70452">
        <ele>316.41000366211</ele>
        <time>2024-09-23T16:34:58.000Z</time>
      </trkpt>
      <trkpt lat="42.21354" lon="19.70415">
        <ele>315.45001220703</ele>
        <time>2024-09-23T16:35:01.000Z</time>
      </trkpt>
      <trkpt lat="42.21352" lon="19.7041">
        <ele>315.45001220703</ele>
        <time>2024-09-23T16:35:02.000Z</time>
      </trkpt>
      <trkpt lat="42.2135" lon="19.70397">
        <ele>314.9700012207</ele>
        <time>2024-09-23T16:35:03.000Z</time>
      </trkpt>
      <trkpt lat="42.21348" lon="19.70388">
        <ele>314.9700012207</ele>
        <time>2024-09-23T16:35:04.000Z</time>
      </trkpt>
      <trkpt lat="42.21346" lon="19.70379">
        <ele>314.48999023438</ele>
        <time>2024-09-23T16:35:05.000Z</time>
      </trkpt>
      <trkpt lat="42.21341" lon="19.70372">
        <ele>313.5299987793</ele>
        <time>2024-09-23T16:35:06.000Z</time>
      </trkpt>
      <trkpt lat="42.21335" lon="19.70368">
        <ele>313.04998779297</ele>
        <time>2024-09-23T16:35:07.000Z</time>
      </trkpt>
      <trkpt lat="42.21328" lon="19.70366">
        <ele>313.5299987793</ele>
        <time>2024-09-23T16:35:08.000Z</time>
      </trkpt>
      <trkpt lat="42.2132" lon="19.70368">
        <ele>313.04998779297</ele>
        <time>2024-09-23T16:35:09.000Z</time>
      </trkpt>
      <trkpt lat="42.21313" lon="19.7037">
        <ele>312.57000732422</ele>
        <time>2024-09-23T16:35:10.000Z</time>
      </trkpt>
      <trkpt lat="42.21304" lon="19.70371">
        <ele>312.57000732422</ele>
        <time>2024-09-23T16:35:11.000Z</time>
      </trkpt>
      <trkpt lat="42.21296" lon="19.70369">
        <ele>312.08999633789</ele>
        <time>2024-09-23T16:35:12.000Z</time>
      </trkpt>
      <trkpt lat="42.21289" lon="19.70365">
        <ele>312.08999633789</ele>
        <time>2024-09-23T16:35:13.000Z</time>
      </trkpt>
      <trkpt lat="42.2128" lon="19.70359">
        <ele>312.08999633789</ele>
        <time>2024-09-23T16:35:14.000Z</time>
      </trkpt>
      <trkpt lat="42.21278" lon="19.70358">
        <ele>312.08999633789</ele>
        <time>2024-09-23T16:35:15.000Z</time>
      </trkpt>
      <trkpt lat="42.21271" lon="19.70355">
        <ele>312.57000732422</ele>
        <time>2024-09-23T16:35:16.000Z</time>
      </trkpt>
      <trkpt lat="42.21264" lon="19.70354">
        <ele>312.57000732422</ele>
        <time>2024-09-23T16:35:17.000Z</time>
      </trkpt>
      <trkpt lat="42.21256" lon="19.70351">
        <ele>312.57000732422</ele>
        <time>2024-09-23T16:35:18.000Z</time>
      </trkpt>
      <trkpt lat="42.21249" lon="19.70348">
        <ele>312.08999633789</ele>
        <time>2024-09-23T16:35:19.000Z</time>
      </trkpt>
      <trkpt lat="42.21238" lon="19.70341">
        <ele>311.11999511719</ele>
        <time>2024-09-23T16:35:20.000Z</time>
      </trkpt>
      <trkpt lat="42.21234" lon="19.70339">
        <ele>311.11999511719</ele>
        <time>2024-09-23T16:35:21.000Z</time>
      </trkpt>
      <trkpt lat="42.21227" lon="19.70338">
        <ele>310.64001464844</ele>
        <time>2024-09-23T16:35:22.000Z</time>
      </trkpt>
      <trkpt lat="42.21222" lon="19.70339">
        <ele>310.16000366211</ele>
        <time>2024-09-23T16:35:23.000Z</time>
      </trkpt>
      <trkpt lat="42.21217" lon="19.70344">
        <ele>310.64001464844</ele>
        <time>2024-09-23T16:35:24.000Z</time>
      </trkpt>
      <trkpt lat="42.21214" lon="19.70352">
        <ele>310.64001464844</ele>
        <time>2024-09-23T16:35:25.000Z</time>
      </trkpt>
      <trkpt lat="42.21213" lon="19.70362">
        <ele>310.64001464844</ele>
        <time>2024-09-23T16:35:26.000Z</time>
      </trkpt>
      <trkpt lat="42.21214" lon="19.70392">
        <ele>309.20001220703</ele>
        <time>2024-09-23T16:35:28.000Z</time>
      </trkpt>
      <trkpt lat="42.21213" lon="19.70403">
        <ele>308.7200012207</ele>
        <time>2024-09-23T16:35:29.000Z</time>
      </trkpt>
      <trkpt lat="42.21209" lon="19.70471">
        <ele>309.20001220703</ele>
        <time>2024-09-23T16:35:33.000Z</time>
      </trkpt>
      <trkpt lat="42.21202" lon="19.70551">
        <ele>307.76000976562</ele>
        <time>2024-09-23T16:35:37.000Z</time>
      </trkpt>
      <trkpt lat="42.21199" lon="19.70568">
        <ele>307.76000976562</ele>
        <time>2024-09-23T16:35:38.000Z</time>
      </trkpt>
      <trkpt lat="42.21196" lon="19.70587">
        <ele>307.76000976562</ele>
        <time>2024-09-23T16:35:39.000Z</time>
      </trkpt>
      <trkpt lat="42.21195" lon="19.70594">
        <ele>307.76000976562</ele>
        <time>2024-09-23T16:35:40.000Z</time>
      </trkpt>
      <trkpt lat="42.21195" lon="19.70608">
        <ele>307.76000976562</ele>
        <time>2024-09-23T16:35:41.000Z</time>
      </trkpt>
      <trkpt lat="42.21195" lon="19.70622">
        <ele>308.23999023438</ele>
        <time>2024-09-23T16:35:42.000Z</time>
      </trkpt>
      <trkpt lat="42.21195" lon="19.70633">
        <ele>308.23999023438</ele>
        <time>2024-09-23T16:35:43.000Z</time>
      </trkpt>
      <trkpt lat="42.21193" lon="19.70644">
        <ele>308.23999023438</ele>
        <time>2024-09-23T16:35:44.000Z</time>
      </trkpt>
      <trkpt lat="42.21181" lon="19.70679">
        <ele>308.7200012207</ele>
        <time>2024-09-23T16:35:46.000Z</time>
      </trkpt>
      <trkpt lat="42.21179" lon="19.70683">
        <ele>308.7200012207</ele>
        <time>2024-09-23T16:35:47.000Z</time>
      </trkpt>
      <trkpt lat="42.21172" lon="19.70699">
        <ele>309.20001220703</ele>
        <time>2024-09-23T16:35:48.000Z</time>
      </trkpt>
      <trkpt lat="42.21167" lon="19.70709">
        <ele>309.67999267578</ele>
        <time>2024-09-23T16:35:49.000Z</time>
      </trkpt>
      <trkpt lat="42.21162" lon="19.7072">
        <ele>309.67999267578</ele>
        <time>2024-09-23T16:35:50.000Z</time>
      </trkpt>
      <trkpt lat="42.21158" lon="19.7073">
        <ele>309.67999267578</ele>
        <time>2024-09-23T16:35:51.000Z</time>
      </trkpt>
      <trkpt lat="42.21157" lon="19.70739">
        <ele>310.64001464844</ele>
        <time>2024-09-23T16:35:52.000Z</time>
      </trkpt>
      <trkpt lat="42.21158" lon="19.70747">
        <ele>311.11999511719</ele>
        <time>2024-09-23T16:35:53.000Z</time>
      </trkpt>
      <trkpt lat="42.2116" lon="19.70757">
        <ele>311.11999511719</ele>
        <time>2024-09-23T16:35:54.000Z</time>
      </trkpt>
      <trkpt lat="42.21159" lon="19.70766">
        <ele>311.11999511719</ele>
        <time>2024-09-23T16:35:55.000Z</time>
      </trkpt>
      <trkpt lat="42.21156" lon="19.70773">
        <ele>310.64001464844</ele>
        <time>2024-09-23T16:35:56.000Z</time>
      </trkpt>
      <trkpt lat="42.21152" lon="19.70779">
        <ele>311.11999511719</ele>
        <time>2024-09-23T16:35:57.000Z</time>
      </trkpt>
      <trkpt lat="42.21147" lon="19.70786">
        <ele>311.11999511719</ele>
        <time>2024-09-23T16:35:58.000Z</time>
      </trkpt>
      <trkpt lat="42.21143" lon="19.70793">
        <ele>311.60000610352</ele>
        <time>2024-09-23T16:35:59.000Z</time>
      </trkpt>
      <trkpt lat="42.21141" lon="19.70802">
        <ele>312.08999633789</ele>
        <time>2024-09-23T16:36:00.000Z</time>
      </trkpt>
      <trkpt lat="42.21141" lon="19.70812">
        <ele>312.57000732422</ele>
        <time>2024-09-23T16:36:01.000Z</time>
      </trkpt>
      <trkpt lat="42.21143" lon="19.70821">
        <ele>313.04998779297</ele>
        <time>2024-09-23T16:36:02.000Z</time>
      </trkpt>
      <trkpt lat="42.21144" lon="19.70829">
        <ele>313.04998779297</ele>
        <time>2024-09-23T16:36:03.000Z</time>
      </trkpt>
      <trkpt lat="42.21143" lon="19.70836">
        <ele>313.04998779297</ele>
        <time>2024-09-23T16:36:04.000Z</time>
      </trkpt>
      <trkpt lat="42.2114" lon="19.70842">
        <ele>313.5299987793</ele>
        <time>2024-09-23T16:36:05.000Z</time>
      </trkpt>
      <trkpt lat="42.21136" lon="19.70844">
        <ele>313.5299987793</ele>
        <time>2024-09-23T16:36:06.000Z</time>
      </trkpt>
      <trkpt lat="42.21131" lon="19.70844">
        <ele>313.5299987793</ele>
        <time>2024-09-23T16:36:07.000Z</time>
      </trkpt>
      <trkpt lat="42.2112" lon="19.7084">
        <ele>313.5299987793</ele>
        <time>2024-09-23T16:36:08.000Z</time>
      </trkpt>
      <trkpt lat="42.21115" lon="19.70838">
        <ele>313.5299987793</ele>
        <time>2024-09-23T16:36:09.000Z</time>
      </trkpt>
      <trkpt lat="42.21108" lon="19.70833">
        <ele>312.57000732422</ele>
        <time>2024-09-23T16:36:10.000Z</time>
      </trkpt>
      <trkpt lat="42.21102" lon="19.70825">
        <ele>312.08999633789</ele>
        <time>2024-09-23T16:36:11.000Z</time>
      </trkpt>
      <trkpt lat="42.21095" lon="19.70812">
        <ele>312.57000732422</ele>
        <time>2024-09-23T16:36:12.000Z</time>
      </trkpt>
      <trkpt lat="42.21091" lon="19.70807">
        <ele>313.5299987793</ele>
        <time>2024-09-23T16:36:13.000Z</time>
      </trkpt>
      <trkpt lat="42.21087" lon="19.70804">
        <ele>314.01000976562</ele>
        <time>2024-09-23T16:36:14.000Z</time>
      </trkpt>
      <trkpt lat="42.21083" lon="19.70804">
        <ele>314.9700012207</ele>
        <time>2024-09-23T16:36:15.000Z</time>
      </trkpt>
      <trkpt lat="42.21077" lon="19.70809">
        <ele>315.92999267578</ele>
        <time>2024-09-23T16:36:16.000Z</time>
      </trkpt>
      <trkpt lat="42.21071" lon="19.70813">
        <ele>315.92999267578</ele>
        <time>2024-09-23T16:36:17.000Z</time>
      </trkpt>
      <trkpt lat="42.21065" lon="19.70815">
        <ele>315.92999267578</ele>
        <time>2024-09-23T16:36:18.000Z</time>
      </trkpt>
      <trkpt lat="42.21058" lon="19.70814">
        <ele>315.92999267578</ele>
        <time>2024-09-23T16:36:19.000Z</time>
      </trkpt>
      <trkpt lat="42.21052" lon="19.70809">
        <ele>315.92999267578</ele>
        <time>2024-09-23T16:36:20.000Z</time>
      </trkpt>
      <trkpt lat="42.21041" lon="19.70797">
        <ele>315.45001220703</ele>
        <time>2024-09-23T16:36:21.000Z</time>
      </trkpt>
      <trkpt lat="42.21038" lon="19.70794">
        <ele>314.9700012207</ele>
        <time>2024-09-23T16:36:22.000Z</time>
      </trkpt>
      <trkpt lat="42.2103" lon="19.7079">
        <ele>314.48999023438</ele>
        <time>2024-09-23T16:36:23.000Z</time>
      </trkpt>
      <trkpt lat="42.21021" lon="19.70785">
        <ele>314.01000976562</ele>
        <time>2024-09-23T16:36:24.000Z</time>
      </trkpt>
      <trkpt lat="42.21014" lon="19.70778">
        <ele>313.5299987793</ele>
        <time>2024-09-23T16:36:25.000Z</time>
      </trkpt>
      <trkpt lat="42.21008" lon="19.70771">
        <ele>313.04998779297</ele>
        <time>2024-09-23T16:36:26.000Z</time>
      </trkpt>
      <trkpt lat="42.21001" lon="19.70766">
        <ele>312.57000732422</ele>
        <time>2024-09-23T16:36:27.000Z</time>
      </trkpt>
      <trkpt lat="42.20993" lon="19.70764">
        <ele>311.60000610352</ele>
        <time>2024-09-23T16:36:28.000Z</time>
      </trkpt>
      <trkpt lat="42.20983" lon="19.70766">
        <ele>312.08999633789</ele>
        <time>2024-09-23T16:36:29.000Z</time>
      </trkpt>
      <trkpt lat="42.20979" lon="19.70767">
        <ele>312.08999633789</ele>
        <time>2024-09-23T16:36:30.000Z</time>
      </trkpt>
      <trkpt lat="42.20972" lon="19.70767">
        <ele>311.60000610352</ele>
        <time>2024-09-23T16:36:31.000Z</time>
      </trkpt>
      <trkpt lat="42.20965" lon="19.70764">
        <ele>311.60000610352</ele>
        <time>2024-09-23T16:36:32.000Z</time>
      </trkpt>
      <trkpt lat="42.20959" lon="19.70757">
        <ele>312.08999633789</ele>
        <time>2024-09-23T16:36:33.000Z</time>
      </trkpt>
      <trkpt lat="42.20951" lon="19.70746">
        <ele>311.60000610352</ele>
        <time>2024-09-23T16:36:34.000Z</time>
      </trkpt>
      <trkpt lat="42.20945" lon="19.7074">
        <ele>311.60000610352</ele>
        <time>2024-09-23T16:36:35.000Z</time>
      </trkpt>
      <trkpt lat="42.20938" lon="19.70734">
        <ele>311.60000610352</ele>
        <time>2024-09-23T16:36:36.000Z</time>
      </trkpt>
      <trkpt lat="42.20926" lon="19.70724">
        <ele>311.11999511719</ele>
        <time>2024-09-23T16:36:37.000Z</time>
      </trkpt>
      <trkpt lat="42.20925" lon="19.70723">
        <ele>311.11999511719</ele>
        <time>2024-09-23T16:36:38.000Z</time>
      </trkpt>
      <trkpt lat="42.20918" lon="19.70721">
        <ele>311.11999511719</ele>
        <time>2024-09-23T16:36:39.000Z</time>
      </trkpt>
      <trkpt lat="42.20911" lon="19.70721">
        <ele>310.64001464844</ele>
        <time>2024-09-23T16:36:40.000Z</time>
      </trkpt>
      <trkpt lat="42.20905" lon="19.70723">
        <ele>310.64001464844</ele>
        <time>2024-09-23T16:36:41.000Z</time>
      </trkpt>
      <trkpt lat="42.20898" lon="19.7073">
        <ele>310.64001464844</ele>
        <time>2024-09-23T16:36:42.000Z</time>
      </trkpt>
      <trkpt lat="42.2089" lon="19.7074">
        <ele>310.64001464844</ele>
        <time>2024-09-23T16:36:43.000Z</time>
      </trkpt>
      <trkpt lat="42.20883" lon="19.70749">
        <ele>310.64001464844</ele>
        <time>2024-09-23T16:36:44.000Z</time>
      </trkpt>
      <trkpt lat="42.20868" lon="19.70772">
        <ele>310.16000366211</ele>
        <time>2024-09-23T16:36:46.000Z</time>
      </trkpt>
      <trkpt lat="42.20861" lon="19.70781">
        <ele>310.16000366211</ele>
        <time>2024-09-23T16:36:47.000Z</time>
      </trkpt>
      <trkpt lat="42.20853" lon="19.70789">
        <ele>310.16000366211</ele>
        <time>2024-09-23T16:36:48.000Z</time>
      </trkpt>
      <trkpt lat="42.20843" lon="19.70794">
        <ele>310.16000366211</ele>
        <time>2024-09-23T16:36:49.000Z</time>
      </trkpt>
      <trkpt lat="42.20833" lon="19.70798">
        <ele>310.16000366211</ele>
        <time>2024-09-23T16:36:50.000Z</time>
      </trkpt>
      <trkpt lat="42.20822" lon="19.70803">
        <ele>309.67999267578</ele>
        <time>2024-09-23T16:36:51.000Z</time>
      </trkpt>
      <trkpt lat="42.20816" lon="19.70808">
        <ele>309.67999267578</ele>
        <time>2024-09-23T16:36:52.000Z</time>
      </trkpt>
      <trkpt lat="42.20808" lon="19.70816">
        <ele>309.67999267578</ele>
        <time>2024-09-23T16:36:53.000Z</time>
      </trkpt>
      <trkpt lat="42.20802" lon="19.70826">
        <ele>310.16000366211</ele>
        <time>2024-09-23T16:36:54.000Z</time>
      </trkpt>
      <trkpt lat="42.20796" lon="19.70839">
        <ele>310.16000366211</ele>
        <time>2024-09-23T16:36:55.000Z</time>
      </trkpt>
      <trkpt lat="42.2079" lon="19.70853">
        <ele>310.64001464844</ele>
        <time>2024-09-23T16:36:56.000Z</time>
      </trkpt>
      <trkpt lat="42.20783" lon="19.70865">
        <ele>310.64001464844</ele>
        <time>2024-09-23T16:36:57.000Z</time>
      </trkpt>
      <trkpt lat="42.20777" lon="19.70873">
        <ele>310.64001464844</ele>
        <time>2024-09-23T16:36:58.000Z</time>
      </trkpt>
      <trkpt lat="42.20771" lon="19.70879">
        <ele>310.16000366211</ele>
        <time>2024-09-23T16:36:59.000Z</time>
      </trkpt>
      <trkpt lat="42.20761" lon="19.70884">
        <ele>310.64001464844</ele>
        <time>2024-09-23T16:37:00.000Z</time>
      </trkpt>
      <trkpt lat="42.20754" lon="19.70887">
        <ele>309.67999267578</ele>
        <time>2024-09-23T16:37:01.000Z</time>
      </trkpt>
      <trkpt lat="42.20746" lon="19.70892">
        <ele>308.7200012207</ele>
        <time>2024-09-23T16:37:02.000Z</time>
      </trkpt>
      <trkpt lat="42.20739" lon="19.709">
        <ele>308.7200012207</ele>
        <time>2024-09-23T16:37:03.000Z</time>
      </trkpt>
      <trkpt lat="42.20732" lon="19.7091">
        <ele>308.23999023438</ele>
        <time>2024-09-23T16:37:04.000Z</time>
      </trkpt>
      <trkpt lat="42.20725" lon="19.70916">
        <ele>308.23999023438</ele>
        <time>2024-09-23T16:37:05.000Z</time>
      </trkpt>
      <trkpt lat="42.20718" lon="19.7092">
        <ele>308.23999023438</ele>
        <time>2024-09-23T16:37:06.000Z</time>
      </trkpt>
      <trkpt lat="42.20711" lon="19.70921">
        <ele>308.7200012207</ele>
        <time>2024-09-23T16:37:07.000Z</time>
      </trkpt>
      <trkpt lat="42.20705" lon="19.7092">
        <ele>308.23999023438</ele>
        <time>2024-09-23T16:37:08.000Z</time>
      </trkpt>
      <trkpt lat="42.207" lon="19.70915">
        <ele>307.76000976562</ele>
        <time>2024-09-23T16:37:09.000Z</time>
      </trkpt>
      <trkpt lat="42.20698" lon="19.70908">
        <ele>307.76000976562</ele>
        <time>2024-09-23T16:37:10.000Z</time>
      </trkpt>
      <trkpt lat="42.20697" lon="19.70898">
        <ele>307.76000976562</ele>
        <time>2024-09-23T16:37:11.000Z</time>
      </trkpt>
      <trkpt lat="42.20698" lon="19.70885">
        <ele>307.76000976562</ele>
        <time>2024-09-23T16:37:12.000Z</time>
      </trkpt>
      <trkpt lat="42.20699" lon="19.70877">
        <ele>307.76000976562</ele>
        <time>2024-09-23T16:37:13.000Z</time>
      </trkpt>
      <trkpt lat="42.20702" lon="19.70858">
        <ele>307.2799987793</ele>
        <time>2024-09-23T16:37:14.000Z</time>
      </trkpt>
      <trkpt lat="42.20702" lon="19.70851">
        <ele>307.2799987793</ele>
        <time>2024-09-23T16:37:15.000Z</time>
      </trkpt>
      <trkpt lat="42.20701" lon="19.70837">
        <ele>306.79998779297</ele>
        <time>2024-09-23T16:37:16.000Z</time>
      </trkpt>
      <trkpt lat="42.20699" lon="19.70826">
        <ele>306.32000732422</ele>
        <time>2024-09-23T16:37:17.000Z</time>
      </trkpt>
      <trkpt lat="42.20696" lon="19.70813">
        <ele>305.83999633789</ele>
        <time>2024-09-23T16:37:18.000Z</time>
      </trkpt>
      <trkpt lat="42.20693" lon="19.70803">
        <ele>305.35998535156</ele>
        <time>2024-09-23T16:37:19.000Z</time>
      </trkpt>
      <trkpt lat="42.20687" lon="19.70792">
        <ele>305.35998535156</ele>
        <time>2024-09-23T16:37:20.000Z</time>
      </trkpt>
      <trkpt lat="42.20679" lon="19.70782">
        <ele>305.35998535156</ele>
        <time>2024-09-23T16:37:21.000Z</time>
      </trkpt>
      <trkpt lat="42.20671" lon="19.70767">
        <ele>305.35998535156</ele>
        <time>2024-09-23T16:37:22.000Z</time>
      </trkpt>
      <trkpt lat="42.20666" lon="19.70757">
        <ele>305.83999633789</ele>
        <time>2024-09-23T16:37:23.000Z</time>
      </trkpt>
      <trkpt lat="42.20653" lon="19.70728">
        <ele>305.83999633789</ele>
        <time>2024-09-23T16:37:25.000Z</time>
      </trkpt>
      <trkpt lat="42.20642" lon="19.70698">
        <ele>305.83999633789</ele>
        <time>2024-09-23T16:37:27.000Z</time>
      </trkpt>
      <trkpt lat="42.20637" lon="19.70686">
        <ele>306.32000732422</ele>
        <time>2024-09-23T16:37:28.000Z</time>
      </trkpt>
      <trkpt lat="42.20631" lon="19.70676">
        <ele>306.32000732422</ele>
        <time>2024-09-23T16:37:29.000Z</time>
      </trkpt>
      <trkpt lat="42.20625" lon="19.70669">
        <ele>306.79998779297</ele>
        <time>2024-09-23T16:37:30.000Z</time>
      </trkpt>
      <trkpt lat="42.20618" lon="19.70666">
        <ele>307.2799987793</ele>
        <time>2024-09-23T16:37:31.000Z</time>
      </trkpt>
      <trkpt lat="42.20611" lon="19.70663">
        <ele>306.79998779297</ele>
        <time>2024-09-23T16:37:32.000Z</time>
      </trkpt>
      <trkpt lat="42.20606" lon="19.70656">
        <ele>306.79998779297</ele>
        <time>2024-09-23T16:37:33.000Z</time>
      </trkpt>
      <trkpt lat="42.20602" lon="19.70646">
        <ele>306.79998779297</ele>
        <time>2024-09-23T16:37:34.000Z</time>
      </trkpt>
      <trkpt lat="42.20599" lon="19.70634">
        <ele>307.2799987793</ele>
        <time>2024-09-23T16:37:35.000Z</time>
      </trkpt>
      <trkpt lat="42.20598" lon="19.70621">
        <ele>307.2799987793</ele>
        <time>2024-09-23T16:37:36.000Z</time>
      </trkpt>
      <trkpt lat="42.20597" lon="19.70601">
        <ele>307.76000976562</ele>
        <time>2024-09-23T16:37:37.000Z</time>
      </trkpt>
      <trkpt lat="42.20597" lon="19.70592">
        <ele>307.76000976562</ele>
        <time>2024-09-23T16:37:38.000Z</time>
      </trkpt>
      <trkpt lat="42.20596" lon="19.70587">
        <ele>307.76000976562</ele>
        <time>2024-09-23T16:37:39.000Z</time>
      </trkpt>
      <trkpt lat="42.20593" lon="19.70578">
        <ele>308.23999023438</ele>
        <time>2024-09-23T16:37:40.000Z</time>
      </trkpt>
      <trkpt lat="42.20588" lon="19.70572">
        <ele>308.23999023438</ele>
        <time>2024-09-23T16:37:41.000Z</time>
      </trkpt>
      <trkpt lat="42.20583" lon="19.70569">
        <ele>308.23999023438</ele>
        <time>2024-09-23T16:37:42.000Z</time>
      </trkpt>
      <trkpt lat="42.20578" lon="19.70569">
        <ele>308.7200012207</ele>
        <time>2024-09-23T16:37:43.000Z</time>
      </trkpt>
      <trkpt lat="42.20571" lon="19.70571">
        <ele>308.7200012207</ele>
        <time>2024-09-23T16:37:44.000Z</time>
      </trkpt>
      <trkpt lat="42.20556" lon="19.70572">
        <ele>307.76000976562</ele>
        <time>2024-09-23T16:37:45.000Z</time>
      </trkpt>
      <trkpt lat="42.20554" lon="19.70572">
        <ele>307.76000976562</ele>
        <time>2024-09-23T16:37:46.000Z</time>
      </trkpt>
      <trkpt lat="42.20541" lon="19.70574">
        <ele>307.2799987793</ele>
        <time>2024-09-23T16:37:47.000Z</time>
      </trkpt>
      <trkpt lat="42.20539" lon="19.70574">
        <ele>306.79998779297</ele>
        <time>2024-09-23T16:37:48.000Z</time>
      </trkpt>
      <trkpt lat="42.20533" lon="19.70573">
        <ele>306.32000732422</ele>
        <time>2024-09-23T16:37:49.000Z</time>
      </trkpt>
      <trkpt lat="42.20528" lon="19.7057">
        <ele>305.83999633789</ele>
        <time>2024-09-23T16:37:50.000Z</time>
      </trkpt>
      <trkpt lat="42.20523" lon="19.70563">
        <ele>305.35998535156</ele>
        <time>2024-09-23T16:37:51.000Z</time>
      </trkpt>
      <trkpt lat="42.2052" lon="19.70559">
        <ele>304.88000488281</ele>
        <time>2024-09-23T16:37:52.000Z</time>
      </trkpt>
      <trkpt lat="42.20512" lon="19.70556">
        <ele>303.42999267578</ele>
        <time>2024-09-23T16:37:53.000Z</time>
      </trkpt>
      <trkpt lat="42.20503" lon="19.70554">
        <ele>302.4700012207</ele>
        <time>2024-09-23T16:37:54.000Z</time>
      </trkpt>
      <trkpt lat="42.20496" lon="19.70552">
        <ele>301.98999023438</ele>
        <time>2024-09-23T16:37:55.000Z</time>
      </trkpt>
      <trkpt lat="42.20487" lon="19.70546">
        <ele>301.0299987793</ele>
        <time>2024-09-23T16:37:56.000Z</time>
      </trkpt>
      <trkpt lat="42.20476" lon="19.70538">
        <ele>300.54998779297</ele>
        <time>2024-09-23T16:37:57.000Z</time>
      </trkpt>
      <trkpt lat="42.20471" lon="19.70534">
        <ele>300.54998779297</ele>
        <time>2024-09-23T16:37:58.000Z</time>
      </trkpt>
      <trkpt lat="42.20465" lon="19.70524">
        <ele>299.58999633789</ele>
        <time>2024-09-23T16:37:59.000Z</time>
      </trkpt>
      <trkpt lat="42.2046" lon="19.70512">
        <ele>299.10998535156</ele>
        <time>2024-09-23T16:38:00.000Z</time>
      </trkpt>
      <trkpt lat="42.20455" lon="19.70503">
        <ele>298.63000488281</ele>
        <time>2024-09-23T16:38:01.000Z</time>
      </trkpt>
      <trkpt lat="42.20451" lon="19.70496">
        <ele>298.14999389648</ele>
        <time>2024-09-23T16:38:02.000Z</time>
      </trkpt>
      <trkpt lat="42.20446" lon="19.70491">
        <ele>297.67001342773</ele>
        <time>2024-09-23T16:38:03.000Z</time>
      </trkpt>
      <trkpt lat="42.20443" lon="19.70489">
        <ele>298.14999389648</ele>
        <time>2024-09-23T16:38:04.000Z</time>
      </trkpt>
      <trkpt lat="42.20437" lon="19.7049">
        <ele>296.70001220703</ele>
        <time>2024-09-23T16:38:05.000Z</time>
      </trkpt>
      <trkpt lat="42.2043" lon="19.70493">
        <ele>295.73999023438</ele>
        <time>2024-09-23T16:38:06.000Z</time>
      </trkpt>
      <trkpt lat="42.20423" lon="19.70497">
        <ele>294.7799987793</ele>
        <time>2024-09-23T16:38:07.000Z</time>
      </trkpt>
      <trkpt lat="42.20417" lon="19.70504">
        <ele>293.82000732422</ele>
        <time>2024-09-23T16:38:08.000Z</time>
      </trkpt>
      <trkpt lat="42.20405" lon="19.70523">
        <ele>291.89999389648</ele>
        <time>2024-09-23T16:38:10.000Z</time>
      </trkpt>
      <trkpt lat="42.20395" lon="19.70535">
        <ele>290.94000244141</ele>
        <time>2024-09-23T16:38:11.000Z</time>
      </trkpt>
      <trkpt lat="42.20392" lon="19.70541">
        <ele>290.94000244141</ele>
        <time>2024-09-23T16:38:12.000Z</time>
      </trkpt>
      <trkpt lat="42.20384" lon="19.70558">
        <ele>290.45999145508</ele>
        <time>2024-09-23T16:38:13.000Z</time>
      </trkpt>
      <trkpt lat="42.20381" lon="19.70565">
        <ele>289.9700012207</ele>
        <time>2024-09-23T16:38:14.000Z</time>
      </trkpt>
      <trkpt lat="42.20375" lon="19.70574">
        <ele>289.9700012207</ele>
        <time>2024-09-23T16:38:15.000Z</time>
      </trkpt>
      <trkpt lat="42.20368" lon="19.70584">
        <ele>289.48999023438</ele>
        <time>2024-09-23T16:38:16.000Z</time>
      </trkpt>
      <trkpt lat="42.2036" lon="19.70592">
        <ele>289.01000976562</ele>
        <time>2024-09-23T16:38:17.000Z</time>
      </trkpt>
      <trkpt lat="42.20351" lon="19.70599">
        <ele>288.04998779297</ele>
        <time>2024-09-23T16:38:18.000Z</time>
      </trkpt>
      <trkpt lat="42.20334" lon="19.70609">
        <ele>287.08999633789</ele>
        <time>2024-09-23T16:38:19.000Z</time>
      </trkpt>
      <trkpt lat="42.20331" lon="19.70611">
        <ele>287.08999633789</ele>
        <time>2024-09-23T16:38:20.000Z</time>
      </trkpt>
      <trkpt lat="42.20291" lon="19.70626">
        <ele>283.25</ele>
        <time>2024-09-23T16:38:24.000Z</time>
      </trkpt>
      <trkpt lat="42.20284" lon="19.70631">
        <ele>282.2799987793</ele>
        <time>2024-09-23T16:38:25.000Z</time>
      </trkpt>
      <trkpt lat="42.20277" lon="19.70637">
        <ele>281.79998779297</ele>
        <time>2024-09-23T16:38:26.000Z</time>
      </trkpt>
      <trkpt lat="42.20272" lon="19.70642">
        <ele>280.83999633789</ele>
        <time>2024-09-23T16:38:27.000Z</time>
      </trkpt>
      <trkpt lat="42.20267" lon="19.70645">
        <ele>279.88000488281</ele>
        <time>2024-09-23T16:38:28.000Z</time>
      </trkpt>
      <trkpt lat="42.20262" lon="19.70643">
        <ele>278.92001342773</ele>
        <time>2024-09-23T16:38:29.000Z</time>
      </trkpt>
      <trkpt lat="42.20252" lon="19.70634">
        <ele>277.48001098633</ele>
        <time>2024-09-23T16:38:31.000Z</time>
      </trkpt>
      <trkpt lat="42.20249" lon="19.70631">
        <ele>277</ele>
        <time>2024-09-23T16:38:32.000Z</time>
      </trkpt>
      <trkpt lat="42.20244" lon="19.70627">
        <ele>276.51998901367</ele>
        <time>2024-09-23T16:38:33.000Z</time>
      </trkpt>
      <trkpt lat="42.20239" lon="19.70623">
        <ele>276.51998901367</ele>
        <time>2024-09-23T16:38:34.000Z</time>
      </trkpt>
      <trkpt lat="42.20233" lon="19.70621">
        <ele>276.51998901367</ele>
        <time>2024-09-23T16:38:35.000Z</time>
      </trkpt>
      <trkpt lat="42.20226" lon="19.70621">
        <ele>276.04000854492</ele>
        <time>2024-09-23T16:38:36.000Z</time>
      </trkpt>
      <trkpt lat="42.20217" lon="19.70624">
        <ele>275.07000732422</ele>
        <time>2024-09-23T16:38:37.000Z</time>
      </trkpt>
      <trkpt lat="42.20212" lon="19.70626">
        <ele>274.58999633789</ele>
        <time>2024-09-23T16:38:38.000Z</time>
      </trkpt>
      <trkpt lat="42.20206" lon="19.7063">
        <ele>274.10998535156</ele>
        <time>2024-09-23T16:38:39.000Z</time>
      </trkpt>
      <trkpt lat="42.20197" lon="19.70637">
        <ele>273.63000488281</ele>
        <time>2024-09-23T16:38:40.000Z</time>
      </trkpt>
      <trkpt lat="42.20194" lon="19.70639">
        <ele>273.14999389648</ele>
        <time>2024-09-23T16:38:41.000Z</time>
      </trkpt>
      <trkpt lat="42.20188" lon="19.70642">
        <ele>273.14999389648</ele>
        <time>2024-09-23T16:38:42.000Z</time>
      </trkpt>
      <trkpt lat="42.20181" lon="19.70642">
        <ele>272.19000244141</ele>
        <time>2024-09-23T16:38:43.000Z</time>
      </trkpt>
      <trkpt lat="42.20172" lon="19.70641">
        <ele>271.23001098633</ele>
        <time>2024-09-23T16:38:44.000Z</time>
      </trkpt>
      <trkpt lat="42.20164" lon="19.70639">
        <ele>270.75</ele>
        <time>2024-09-23T16:38:45.000Z</time>
      </trkpt>
      <trkpt lat="42.20158" lon="19.70639">
        <ele>270.26998901367</ele>
        <time>2024-09-23T16:38:46.000Z</time>
      </trkpt>
      <trkpt lat="42.20136" lon="19.70639">
        <ele>269.30999755859</ele>
        <time>2024-09-23T16:38:48.000Z</time>
      </trkpt>
      <trkpt lat="42.2013" lon="19.70639">
        <ele>268.82998657227</ele>
        <time>2024-09-23T16:38:49.000Z</time>
      </trkpt>
      <trkpt lat="42.20124" lon="19.70641">
        <ele>268.82998657227</ele>
        <time>2024-09-23T16:38:50.000Z</time>
      </trkpt>
      <trkpt lat="42.20113" lon="19.70645">
        <ele>268.35000610352</ele>
        <time>2024-09-23T16:38:51.000Z</time>
      </trkpt>
      <trkpt lat="42.2011" lon="19.70645">
        <ele>268.35000610352</ele>
        <time>2024-09-23T16:38:52.000Z</time>
      </trkpt>
      <trkpt lat="42.20103" lon="19.70645">
        <ele>267.85998535156</ele>
        <time>2024-09-23T16:38:53.000Z</time>
      </trkpt>
      <trkpt lat="42.20096" lon="19.70642">
        <ele>267.38000488281</ele>
        <time>2024-09-23T16:38:54.000Z</time>
      </trkpt>
      <trkpt lat="42.2009" lon="19.70637">
        <ele>267.38000488281</ele>
        <time>2024-09-23T16:38:55.000Z</time>
      </trkpt>
      <trkpt lat="42.20084" lon="19.7063">
        <ele>266.89999389648</ele>
        <time>2024-09-23T16:38:56.000Z</time>
      </trkpt>
      <trkpt lat="42.20078" lon="19.70622">
        <ele>266.42001342773</ele>
        <time>2024-09-23T16:38:57.000Z</time>
      </trkpt>
      <trkpt lat="42.2007" lon="19.70617">
        <ele>264.98001098633</ele>
        <time>2024-09-23T16:38:58.000Z</time>
      </trkpt>
      <trkpt lat="42.20064" lon="19.70613">
        <ele>264.5</ele>
        <time>2024-09-23T16:38:59.000Z</time>
      </trkpt>
      <trkpt lat="42.20052" lon="19.70607">
        <ele>263.05999755859</ele>
        <time>2024-09-23T16:39:00.000Z</time>
      </trkpt>
      <trkpt lat="42.20048" lon="19.70605">
        <ele>263.05999755859</ele>
        <time>2024-09-23T16:39:01.000Z</time>
      </trkpt>
      <trkpt lat="42.20041" lon="19.70603">
        <ele>263.05999755859</ele>
        <time>2024-09-23T16:39:02.000Z</time>
      </trkpt>
      <trkpt lat="42.20034" lon="19.70603">
        <ele>262.57998657227</ele>
        <time>2024-09-23T16:39:03.000Z</time>
      </trkpt>
      <trkpt lat="42.20027" lon="19.70605">
        <ele>262.57998657227</ele>
        <time>2024-09-23T16:39:04.000Z</time>
      </trkpt>
      <trkpt lat="42.20002" lon="19.70614">
        <ele>261.14001464844</ele>
        <time>2024-09-23T16:39:07.000Z</time>
      </trkpt>
      <trkpt lat="42.19993" lon="19.70618">
        <ele>260.64999389648</ele>
        <time>2024-09-23T16:39:08.000Z</time>
      </trkpt>
      <trkpt lat="42.19981" lon="19.70626">
        <ele>260.17001342773</ele>
        <time>2024-09-23T16:39:09.000Z</time>
      </trkpt>
      <trkpt lat="42.19969" lon="19.70635">
        <ele>259.20999145508</ele>
        <time>2024-09-23T16:39:11.000Z</time>
      </trkpt>
      <trkpt lat="42.19956" lon="19.70645">
        <ele>258.25</ele>
        <time>2024-09-23T16:39:12.000Z</time>
      </trkpt>
      <trkpt lat="42.1995" lon="19.70651">
        <ele>257.76998901367</ele>
        <time>2024-09-23T16:39:13.000Z</time>
      </trkpt>
      <trkpt lat="42.19937" lon="19.70663">
        <ele>256.32998657227</ele>
        <time>2024-09-23T16:39:15.000Z</time>
      </trkpt>
      <trkpt lat="42.19932" lon="19.7067">
        <ele>256.32998657227</ele>
        <time>2024-09-23T16:39:16.000Z</time>
      </trkpt>
      <trkpt lat="42.19924" lon="19.70681">
        <ele>255.85000610352</ele>
        <time>2024-09-23T16:39:17.000Z</time>
      </trkpt>
      <trkpt lat="42.19922" lon="19.70684">
        <ele>255.85000610352</ele>
        <time>2024-09-23T16:39:18.000Z</time>
      </trkpt>
      <trkpt lat="42.19916" lon="19.70687">
        <ele>255.85000610352</ele>
        <time>2024-09-23T16:39:19.000Z</time>
      </trkpt>
      <trkpt lat="42.1991" lon="19.70688">
        <ele>255.36999511719</ele>
        <time>2024-09-23T16:39:20.000Z</time>
      </trkpt>
      <trkpt lat="42.19902" lon="19.70688">
        <ele>255.36999511719</ele>
        <time>2024-09-23T16:39:21.000Z</time>
      </trkpt>
      <trkpt lat="42.19878" lon="19.70689">
        <ele>253.44000244141</ele>
        <time>2024-09-23T16:39:24.000Z</time>
      </trkpt>
      <trkpt lat="42.19871" lon="19.70689">
        <ele>252.96000671387</ele>
        <time>2024-09-23T16:39:26.000Z</time>
      </trkpt>
      <trkpt lat="42.19863" lon="19.7069">
        <ele>252.96000671387</ele>
        <time>2024-09-23T16:39:27.000Z</time>
      </trkpt>
      <trkpt lat="42.19855" lon="19.70693">
        <ele>252</ele>
        <time>2024-09-23T16:39:28.000Z</time>
      </trkpt>
      <trkpt lat="42.19849" lon="19.70697">
        <ele>251.03999328613</ele>
        <time>2024-09-23T16:39:29.000Z</time>
      </trkpt>
      <trkpt lat="42.19839" lon="19.70701">
        <ele>250.08000183105</ele>
        <time>2024-09-23T16:39:30.000Z</time>
      </trkpt>
      <trkpt lat="42.19819" lon="19.70708">
        <ele>248.63999938965</ele>
        <time>2024-09-23T16:39:32.000Z</time>
      </trkpt>
      <trkpt lat="42.19807" lon="19.70711">
        <ele>247.67999267578</ele>
        <time>2024-09-23T16:39:33.000Z</time>
      </trkpt>
      <trkpt lat="42.19769" lon="19.70718">
        <ele>245.27000427246</ele>
        <time>2024-09-23T16:39:37.000Z</time>
      </trkpt>
      <trkpt lat="42.19756" lon="19.70722">
        <ele>244.78999328613</ele>
        <time>2024-09-23T16:39:38.000Z</time>
      </trkpt>
      <trkpt lat="42.1975" lon="19.70725">
        <ele>244.78999328613</ele>
        <time>2024-09-23T16:39:39.000Z</time>
      </trkpt>
      <trkpt lat="42.19741" lon="19.70728">
        <ele>243.83000183105</ele>
        <time>2024-09-23T16:39:40.000Z</time>
      </trkpt>
      <trkpt lat="42.19731" lon="19.7073">
        <ele>243.35000610352</ele>
        <time>2024-09-23T16:39:41.000Z</time>
      </trkpt>
      <trkpt lat="42.19717" lon="19.7073">
        <ele>241.91000366211</ele>
        <time>2024-09-23T16:39:42.000Z</time>
      </trkpt>
      <trkpt lat="42.19711" lon="19.70731">
        <ele>241.42999267578</ele>
        <time>2024-09-23T16:39:43.000Z</time>
      </trkpt>
      <trkpt lat="42.19704" lon="19.70734">
        <ele>240.94999694824</ele>
        <time>2024-09-23T16:39:44.000Z</time>
      </trkpt>
      <trkpt lat="42.19695" lon="19.70738">
        <ele>240.4700012207</ele>
        <time>2024-09-23T16:39:45.000Z</time>
      </trkpt>
      <trkpt lat="42.19686" lon="19.70745">
        <ele>239.50999450684</ele>
        <time>2024-09-23T16:39:46.000Z</time>
      </trkpt>
      <trkpt lat="42.19675" lon="19.70755">
        <ele>238.53999328613</ele>
        <time>2024-09-23T16:39:47.000Z</time>
      </trkpt>
      <trkpt lat="42.19669" lon="19.70762">
        <ele>238.05999755859</ele>
        <time>2024-09-23T16:39:48.000Z</time>
      </trkpt>
      <trkpt lat="42.19662" lon="19.70773">
        <ele>237.58000183105</ele>
        <time>2024-09-23T16:39:49.000Z</time>
      </trkpt>
      <trkpt lat="42.19658" lon="19.70781">
        <ele>238.05999755859</ele>
        <time>2024-09-23T16:39:50.000Z</time>
      </trkpt>
      <trkpt lat="42.19655" lon="19.70791">
        <ele>238.05999755859</ele>
        <time>2024-09-23T16:39:51.000Z</time>
      </trkpt>
      <trkpt lat="42.19654" lon="19.70798">
        <ele>238.05999755859</ele>
        <time>2024-09-23T16:39:52.000Z</time>
      </trkpt>
      <trkpt lat="42.19653" lon="19.70808">
        <ele>238.05999755859</ele>
        <time>2024-09-23T16:39:53.000Z</time>
      </trkpt>
      <trkpt lat="42.19653" lon="19.70817">
        <ele>238.05999755859</ele>
        <time>2024-09-23T16:39:54.000Z</time>
      </trkpt>
      <trkpt lat="42.19656" lon="19.70825">
        <ele>238.53999328613</ele>
        <time>2024-09-23T16:39:55.000Z</time>
      </trkpt>
      <trkpt lat="42.1966" lon="19.70837">
        <ele>239.50999450684</ele>
        <time>2024-09-23T16:39:56.000Z</time>
      </trkpt>
      <trkpt lat="42.19662" lon="19.70841">
        <ele>239.99000549316</ele>
        <time>2024-09-23T16:39:57.000Z</time>
      </trkpt>
      <trkpt lat="42.19666" lon="19.70851">
        <ele>239.99000549316</ele>
        <time>2024-09-23T16:39:58.000Z</time>
      </trkpt>
      <trkpt lat="42.19667" lon="19.70854">
        <ele>240.4700012207</ele>
        <time>2024-09-23T16:39:59.000Z</time>
      </trkpt>
      <trkpt lat="42.19669" lon="19.70861">
        <ele>240.4700012207</ele>
        <time>2024-09-23T16:40:00.000Z</time>
      </trkpt>
      <trkpt lat="42.19674" lon="19.70875">
        <ele>241.42999267578</ele>
        <time>2024-09-23T16:40:03.000Z</time>
      </trkpt>
      <trkpt lat="42.19675" lon="19.70881">
        <ele>241.42999267578</ele>
        <time>2024-09-23T16:40:04.000Z</time>
      </trkpt>
      <trkpt lat="42.19677" lon="19.70885">
        <ele>241.91000366211</ele>
        <time>2024-09-23T16:40:05.000Z</time>
      </trkpt>
      <trkpt lat="42.1968" lon="19.70889">
        <ele>241.91000366211</ele>
        <time>2024-09-23T16:40:06.000Z</time>
      </trkpt>
      <trkpt lat="42.19683" lon="19.70893">
        <ele>241.91000366211</ele>
        <time>2024-09-23T16:40:07.000Z</time>
      </trkpt>
      <trkpt lat="42.19686" lon="19.70899">
        <ele>242.38999938965</ele>
        <time>2024-09-23T16:40:08.000Z</time>
      </trkpt>
      <trkpt lat="42.19687" lon="19.70905">
        <ele>242.38999938965</ele>
        <time>2024-09-23T16:40:09.000Z</time>
      </trkpt>
      <trkpt lat="42.19688" lon="19.70911">
        <ele>242.38999938965</ele>
        <time>2024-09-23T16:40:10.000Z</time>
      </trkpt>
      <trkpt lat="42.19687" lon="19.70917">
        <ele>242.38999938965</ele>
        <time>2024-09-23T16:40:11.000Z</time>
      </trkpt>
      <trkpt lat="42.19687" lon="19.70923">
        <ele>242.38999938965</ele>
        <time>2024-09-23T16:40:12.000Z</time>
      </trkpt>
      <trkpt lat="42.19688" lon="19.70932">
        <ele>241.91000366211</ele>
        <time>2024-09-23T16:40:13.000Z</time>
      </trkpt>
      <trkpt lat="42.19691" lon="19.70942">
        <ele>241.42999267578</ele>
        <time>2024-09-23T16:40:14.000Z</time>
      </trkpt>
      <trkpt lat="42.19693" lon="19.7095">
        <ele>241.42999267578</ele>
        <time>2024-09-23T16:40:15.000Z</time>
      </trkpt>
      <trkpt lat="42.19699" lon="19.7097">
        <ele>239.50999450684</ele>
        <time>2024-09-23T16:40:17.000Z</time>
      </trkpt>
      <trkpt lat="42.197" lon="19.70977">
        <ele>239.02000427246</ele>
        <time>2024-09-23T16:40:18.000Z</time>
      </trkpt>
      <trkpt lat="42.19701" lon="19.70985">
        <ele>238.53999328613</ele>
        <time>2024-09-23T16:40:19.000Z</time>
      </trkpt>
      <trkpt lat="42.19701" lon="19.70993">
        <ele>238.05999755859</ele>
        <time>2024-09-23T16:40:20.000Z</time>
      </trkpt>
      <trkpt lat="42.197" lon="19.71001">
        <ele>238.05999755859</ele>
        <time>2024-09-23T16:40:21.000Z</time>
      </trkpt>
      <trkpt lat="42.19699" lon="19.71007">
        <ele>238.05999755859</ele>
        <time>2024-09-23T16:40:22.000Z</time>
      </trkpt>
      <trkpt lat="42.19697" lon="19.71015">
        <ele>238.05999755859</ele>
        <time>2024-09-23T16:40:23.000Z</time>
      </trkpt>
      <trkpt lat="42.19692" lon="19.71028">
        <ele>238.53999328613</ele>
        <time>2024-09-23T16:40:24.000Z</time>
      </trkpt>
      <trkpt lat="42.19691" lon="19.71031">
        <ele>239.02000427246</ele>
        <time>2024-09-23T16:40:25.000Z</time>
      </trkpt>
      <trkpt lat="42.19689" lon="19.7104">
        <ele>239.02000427246</ele>
        <time>2024-09-23T16:40:26.000Z</time>
      </trkpt>
      <trkpt lat="42.19685" lon="19.71058">
        <ele>239.50999450684</ele>
        <time>2024-09-23T16:40:27.000Z</time>
      </trkpt>
      <trkpt lat="42.19684" lon="19.71061">
        <ele>239.50999450684</ele>
        <time>2024-09-23T16:40:28.000Z</time>
      </trkpt>
      <trkpt lat="42.19681" lon="19.7107">
        <ele>239.99000549316</ele>
        <time>2024-09-23T16:40:29.000Z</time>
      </trkpt>
      <trkpt lat="42.19677" lon="19.71078">
        <ele>239.99000549316</ele>
        <time>2024-09-23T16:40:30.000Z</time>
      </trkpt>
      <trkpt lat="42.19674" lon="19.71088">
        <ele>240.94999694824</ele>
        <time>2024-09-23T16:40:31.000Z</time>
      </trkpt>
      <trkpt lat="42.19668" lon="19.71104">
        <ele>242.86999511719</ele>
        <time>2024-09-23T16:40:32.000Z</time>
      </trkpt>
      <trkpt lat="42.19667" lon="19.71108">
        <ele>243.35000610352</ele>
        <time>2024-09-23T16:40:33.000Z</time>
      </trkpt>
      <trkpt lat="42.19662" lon="19.71119">
        <ele>244.78999328613</ele>
        <time>2024-09-23T16:40:34.000Z</time>
      </trkpt>
      <trkpt lat="42.19653" lon="19.71134">
        <ele>246.22999572754</ele>
        <time>2024-09-23T16:40:35.000Z</time>
      </trkpt>
      <trkpt lat="42.1965" lon="19.71139">
        <ele>246.7200012207</ele>
        <time>2024-09-23T16:40:36.000Z</time>
      </trkpt>
      <trkpt lat="42.19644" lon="19.71146">
        <ele>247.19999694824</ele>
        <time>2024-09-23T16:40:37.000Z</time>
      </trkpt>
      <trkpt lat="42.1964" lon="19.71152">
        <ele>247.19999694824</ele>
        <time>2024-09-23T16:40:38.000Z</time>
      </trkpt>
      <trkpt lat="42.19631" lon="19.71158">
        <ele>247.19999694824</ele>
        <time>2024-09-23T16:40:39.000Z</time>
      </trkpt>
      <trkpt lat="42.19625" lon="19.71161">
        <ele>247.67999267578</ele>
        <time>2024-09-23T16:40:40.000Z</time>
      </trkpt>
      <trkpt lat="42.19616" lon="19.71166">
        <ele>248.16000366211</ele>
        <time>2024-09-23T16:40:41.000Z</time>
      </trkpt>
      <trkpt lat="42.19603" lon="19.71173">
        <ele>249.11999511719</ele>
        <time>2024-09-23T16:40:42.000Z</time>
      </trkpt>
      <trkpt lat="42.19598" lon="19.71175">
        <ele>249.11999511719</ele>
        <time>2024-09-23T16:40:43.000Z</time>
      </trkpt>
      <trkpt lat="42.19592" lon="19.71177">
        <ele>249.60000610352</ele>
        <time>2024-09-23T16:40:44.000Z</time>
      </trkpt>
      <trkpt lat="42.19584" lon="19.71177">
        <ele>250.08000183105</ele>
        <time>2024-09-23T16:40:45.000Z</time>
      </trkpt>
      <trkpt lat="42.19577" lon="19.71175">
        <ele>250.55999755859</ele>
        <time>2024-09-23T16:40:46.000Z</time>
      </trkpt>
      <trkpt lat="42.19568" lon="19.7117">
        <ele>251.52000427246</ele>
        <time>2024-09-23T16:40:47.000Z</time>
      </trkpt>
      <trkpt lat="42.19562" lon="19.71167">
        <ele>252</ele>
        <time>2024-09-23T16:40:48.000Z</time>
      </trkpt>
      <trkpt lat="42.19554" lon="19.71165">
        <ele>252</ele>
        <time>2024-09-23T16:40:49.000Z</time>
      </trkpt>
      <trkpt lat="42.19546" lon="19.7116">
        <ele>252.96000671387</ele>
        <time>2024-09-23T16:40:50.000Z</time>
      </trkpt>
      <trkpt lat="42.19537" lon="19.71154">
        <ele>253.92999267578</ele>
        <time>2024-09-23T16:40:51.000Z</time>
      </trkpt>
      <trkpt lat="42.19535" lon="19.71152">
        <ele>253.92999267578</ele>
        <time>2024-09-23T16:40:52.000Z</time>
      </trkpt>
      <trkpt lat="42.19529" lon="19.71145">
        <ele>254.41000366211</ele>
        <time>2024-09-23T16:40:53.000Z</time>
      </trkpt>
      <trkpt lat="42.19522" lon="19.71138">
        <ele>254.88999938965</ele>
        <time>2024-09-23T16:40:54.000Z</time>
      </trkpt>
      <trkpt lat="42.19517" lon="19.71133">
        <ele>254.88999938965</ele>
        <time>2024-09-23T16:40:55.000Z</time>
      </trkpt>
      <trkpt lat="42.1951" lon="19.71127">
        <ele>254.41000366211</ele>
        <time>2024-09-23T16:40:56.000Z</time>
      </trkpt>
      <trkpt lat="42.19506" lon="19.71125">
        <ele>253.44000244141</ele>
        <time>2024-09-23T16:40:57.000Z</time>
      </trkpt>
      <trkpt lat="42.195" lon="19.71122">
        <ele>252.47999572754</ele>
        <time>2024-09-23T16:40:58.000Z</time>
      </trkpt>
      <trkpt lat="42.19493" lon="19.71121">
        <ele>252</ele>
        <time>2024-09-23T16:40:59.000Z</time>
      </trkpt>
      <trkpt lat="42.19487" lon="19.71123">
        <ele>251.52000427246</ele>
        <time>2024-09-23T16:41:00.000Z</time>
      </trkpt>
      <trkpt lat="42.19481" lon="19.71129">
        <ele>250.55999755859</ele>
        <time>2024-09-23T16:41:01.000Z</time>
      </trkpt>
      <trkpt lat="42.19476" lon="19.71136">
        <ele>250.08000183105</ele>
        <time>2024-09-23T16:41:02.000Z</time>
      </trkpt>
      <trkpt lat="42.19474" lon="19.71146">
        <ele>249.60000610352</ele>
        <time>2024-09-23T16:41:03.000Z</time>
      </trkpt>
      <trkpt lat="42.19471" lon="19.7116">
        <ele>248.63999938965</ele>
        <time>2024-09-23T16:41:04.000Z</time>
      </trkpt>
      <trkpt lat="42.1947" lon="19.71175">
        <ele>248.16000366211</ele>
        <time>2024-09-23T16:41:05.000Z</time>
      </trkpt>
      <trkpt lat="42.19463" lon="19.71258">
        <ele>242.86999511719</ele>
        <time>2024-09-23T16:41:11.000Z</time>
      </trkpt>
      <trkpt lat="42.19461" lon="19.71273">
        <ele>242.38999938965</ele>
        <time>2024-09-23T16:41:12.000Z</time>
      </trkpt>
      <trkpt lat="42.19458" lon="19.71286">
        <ele>241.91000366211</ele>
        <time>2024-09-23T16:41:13.000Z</time>
      </trkpt>
      <trkpt lat="42.19451" lon="19.71302">
        <ele>241.91000366211</ele>
        <time>2024-09-23T16:41:14.000Z</time>
      </trkpt>
      <trkpt lat="42.19444" lon="19.71316">
        <ele>241.42999267578</ele>
        <time>2024-09-23T16:41:15.000Z</time>
      </trkpt>
      <trkpt lat="42.19435" lon="19.71329">
        <ele>240.94999694824</ele>
        <time>2024-09-23T16:41:16.000Z</time>
      </trkpt>
      <trkpt lat="42.19429" lon="19.71336">
        <ele>240.94999694824</ele>
        <time>2024-09-23T16:41:17.000Z</time>
      </trkpt>
      <trkpt lat="42.19405" lon="19.71364">
        <ele>239.99000549316</ele>
        <time>2024-09-23T16:41:20.000Z</time>
      </trkpt>
      <trkpt lat="42.19396" lon="19.71372">
        <ele>239.50999450684</ele>
        <time>2024-09-23T16:41:21.000Z</time>
      </trkpt>
      <trkpt lat="42.19377" lon="19.71386">
        <ele>239.99000549316</ele>
        <time>2024-09-23T16:41:23.000Z</time>
      </trkpt>
      <trkpt lat="42.19371" lon="19.71389">
        <ele>239.99000549316</ele>
        <time>2024-09-23T16:41:24.000Z</time>
      </trkpt>
      <trkpt lat="42.19362" lon="19.71391">
        <ele>239.99000549316</ele>
        <time>2024-09-23T16:41:25.000Z</time>
      </trkpt>
      <trkpt lat="42.19353" lon="19.71391">
        <ele>239.02000427246</ele>
        <time>2024-09-23T16:41:26.000Z</time>
      </trkpt>
      <trkpt lat="42.19342" lon="19.7139">
        <ele>238.53999328613</ele>
        <time>2024-09-23T16:41:27.000Z</time>
      </trkpt>
      <trkpt lat="42.19332" lon="19.71389">
        <ele>238.05999755859</ele>
        <time>2024-09-23T16:41:28.000Z</time>
      </trkpt>
      <trkpt lat="42.1932" lon="19.71385">
        <ele>237.58000183105</ele>
        <time>2024-09-23T16:41:29.000Z</time>
      </trkpt>
      <trkpt lat="42.19308" lon="19.71381">
        <ele>237.58000183105</ele>
        <time>2024-09-23T16:41:30.000Z</time>
      </trkpt>
      <trkpt lat="42.19287" lon="19.71375">
        <ele>237.58000183105</ele>
        <time>2024-09-23T16:41:32.000Z</time>
      </trkpt>
      <trkpt lat="42.19279" lon="19.71372">
        <ele>237.58000183105</ele>
        <time>2024-09-23T16:41:33.000Z</time>
      </trkpt>
      <trkpt lat="42.19276" lon="19.7137">
        <ele>237.58000183105</ele>
        <time>2024-09-23T16:41:34.000Z</time>
      </trkpt>
      <trkpt lat="42.19267" lon="19.71364">
        <ele>237.10000610352</ele>
        <time>2024-09-23T16:41:35.000Z</time>
      </trkpt>
      <trkpt lat="42.19251" lon="19.71349">
        <ele>237.10000610352</ele>
        <time>2024-09-23T16:41:37.000Z</time>
      </trkpt>
      <trkpt lat="42.19244" lon="19.71341">
        <ele>236.61999511719</ele>
        <time>2024-09-23T16:41:38.000Z</time>
      </trkpt>
      <trkpt lat="42.19215" lon="19.71291">
        <ele>234.69999694824</ele>
        <time>2024-09-23T16:41:43.000Z</time>
      </trkpt>
      <trkpt lat="42.19213" lon="19.71288">
        <ele>234.2200012207</ele>
        <time>2024-09-23T16:41:44.000Z</time>
      </trkpt>
      <trkpt lat="42.19208" lon="19.71284">
        <ele>233.74000549316</ele>
        <time>2024-09-23T16:41:45.000Z</time>
      </trkpt>
      <trkpt lat="42.19204" lon="19.71283">
        <ele>233.25999450684</ele>
        <time>2024-09-23T16:41:46.000Z</time>
      </trkpt>
      <trkpt lat="42.19198" lon="19.71285">
        <ele>232.30000305176</ele>
        <time>2024-09-23T16:41:47.000Z</time>
      </trkpt>
      <trkpt lat="42.19193" lon="19.7129">
        <ele>231.33000183105</ele>
        <time>2024-09-23T16:41:48.000Z</time>
      </trkpt>
      <trkpt lat="42.19186" lon="19.71303">
        <ele>228.44999694824</ele>
        <time>2024-09-23T16:41:49.000Z</time>
      </trkpt>
      <trkpt lat="42.19181" lon="19.71312">
        <ele>226.5299987793</ele>
        <time>2024-09-23T16:41:51.000Z</time>
      </trkpt>
      <trkpt lat="42.19176" lon="19.7132">
        <ele>225.08999633789</ele>
        <time>2024-09-23T16:41:52.000Z</time>
      </trkpt>
      <trkpt lat="42.19171" lon="19.7133">
        <ele>224.11999511719</ele>
        <time>2024-09-23T16:41:53.000Z</time>
      </trkpt>
      <trkpt lat="42.19168" lon="19.71338">
        <ele>223.63999938965</ele>
        <time>2024-09-23T16:41:54.000Z</time>
      </trkpt>
      <trkpt lat="42.19165" lon="19.7135">
        <ele>222.67999267578</ele>
        <time>2024-09-23T16:41:55.000Z</time>
      </trkpt>
      <trkpt lat="42.19157" lon="19.71391">
        <ele>221.24000549316</ele>
        <time>2024-09-23T16:41:58.000Z</time>
      </trkpt>
      <trkpt lat="42.19154" lon="19.71405">
        <ele>220.2799987793</ele>
        <time>2024-09-23T16:41:59.000Z</time>
      </trkpt>
      <trkpt lat="42.19151" lon="19.71414">
        <ele>220.75999450684</ele>
        <time>2024-09-23T16:42:00.000Z</time>
      </trkpt>
      <trkpt lat="42.19146" lon="19.71424">
        <ele>220.2799987793</ele>
        <time>2024-09-23T16:42:01.000Z</time>
      </trkpt>
      <trkpt lat="42.19137" lon="19.7144">
        <ele>219.80000305176</ele>
        <time>2024-09-23T16:42:02.000Z</time>
      </trkpt>
      <trkpt lat="42.19135" lon="19.71445">
        <ele>219.80000305176</ele>
        <time>2024-09-23T16:42:03.000Z</time>
      </trkpt>
      <trkpt lat="42.19131" lon="19.71451">
        <ele>219.80000305176</ele>
        <time>2024-09-23T16:42:04.000Z</time>
      </trkpt>
      <trkpt lat="42.19127" lon="19.7146">
        <ele>220.2799987793</ele>
        <time>2024-09-23T16:42:05.000Z</time>
      </trkpt>
      <trkpt lat="42.19126" lon="19.71466">
        <ele>220.2799987793</ele>
        <time>2024-09-23T16:42:06.000Z</time>
      </trkpt>
      <trkpt lat="42.19124" lon="19.71473">
        <ele>219.80000305176</ele>
        <time>2024-09-23T16:42:07.000Z</time>
      </trkpt>
      <trkpt lat="42.19121" lon="19.71493">
        <ele>220.2799987793</ele>
        <time>2024-09-23T16:42:11.000Z</time>
      </trkpt>
      <trkpt lat="42.19121" lon="19.71496">
        <ele>220.2799987793</ele>
        <time>2024-09-23T16:42:12.000Z</time>
      </trkpt>
      <trkpt lat="42.19121" lon="19.71503">
        <ele>220.2799987793</ele>
        <time>2024-09-23T16:42:13.000Z</time>
      </trkpt>
      <trkpt lat="42.1912" lon="19.71511">
        <ele>220.75999450684</ele>
        <time>2024-09-23T16:42:14.000Z</time>
      </trkpt>
      <trkpt lat="42.19118" lon="19.7152">
        <ele>220.75999450684</ele>
        <time>2024-09-23T16:42:15.000Z</time>
      </trkpt>
      <trkpt lat="42.19116" lon="19.71528">
        <ele>221.24000549316</ele>
        <time>2024-09-23T16:42:16.000Z</time>
      </trkpt>
      <trkpt lat="42.19115" lon="19.71538">
        <ele>221.24000549316</ele>
        <time>2024-09-23T16:42:17.000Z</time>
      </trkpt>
      <trkpt lat="42.19116" lon="19.71552">
        <ele>222.19999694824</ele>
        <time>2024-09-23T16:42:18.000Z</time>
      </trkpt>
      <trkpt lat="42.19117" lon="19.71584">
        <ele>224.61000061035</ele>
        <time>2024-09-23T16:42:21.000Z</time>
      </trkpt>
      <trkpt lat="42.19117" lon="19.71597">
        <ele>225.57000732422</ele>
        <time>2024-09-23T16:42:22.000Z</time>
      </trkpt>
      <trkpt lat="42.19111" lon="19.71634">
        <ele>228.92999267578</ele>
        <time>2024-09-23T16:42:25.000Z</time>
      </trkpt>
      <trkpt lat="42.19109" lon="19.71644">
        <ele>229.41000366211</ele>
        <time>2024-09-23T16:42:26.000Z</time>
      </trkpt>
      <trkpt lat="42.19106" lon="19.71653">
        <ele>230.36999511719</ele>
        <time>2024-09-23T16:42:27.000Z</time>
      </trkpt>
      <trkpt lat="42.19101" lon="19.71665">
        <ele>231.33000183105</ele>
        <time>2024-09-23T16:42:28.000Z</time>
      </trkpt>
      <trkpt lat="42.19091" lon="19.71683">
        <ele>233.74000549316</ele>
        <time>2024-09-23T16:42:29.000Z</time>
      </trkpt>
      <trkpt lat="42.19088" lon="19.71687">
        <ele>233.74000549316</ele>
        <time>2024-09-23T16:42:30.000Z</time>
      </trkpt>
      <trkpt lat="42.19078" lon="19.717">
        <ele>234.69999694824</ele>
        <time>2024-09-23T16:42:31.000Z</time>
      </trkpt>
      <trkpt lat="42.19066" lon="19.71714">
        <ele>236.61999511719</ele>
        <time>2024-09-23T16:42:32.000Z</time>
      </trkpt>
      <trkpt lat="42.19059" lon="19.71723">
        <ele>238.05999755859</ele>
        <time>2024-09-23T16:42:33.000Z</time>
      </trkpt>
      <trkpt lat="42.19055" lon="19.71729">
        <ele>238.53999328613</ele>
        <time>2024-09-23T16:42:34.000Z</time>
      </trkpt>
      <trkpt lat="42.19048" lon="19.7174">
        <ele>239.99000549316</ele>
        <time>2024-09-23T16:42:35.000Z</time>
      </trkpt>
      <trkpt lat="42.19045" lon="19.71749">
        <ele>240.94999694824</ele>
        <time>2024-09-23T16:42:36.000Z</time>
      </trkpt>
      <trkpt lat="42.1904" lon="19.71756">
        <ele>242.38999938965</ele>
        <time>2024-09-23T16:42:37.000Z</time>
      </trkpt>
      <trkpt lat="42.19033" lon="19.71761">
        <ele>243.35000610352</ele>
        <time>2024-09-23T16:42:38.000Z</time>
      </trkpt>
      <trkpt lat="42.19025" lon="19.71764">
        <ele>243.35000610352</ele>
        <time>2024-09-23T16:42:39.000Z</time>
      </trkpt>
      <trkpt lat="42.19015" lon="19.71768">
        <ele>243.35000610352</ele>
        <time>2024-09-23T16:42:40.000Z</time>
      </trkpt>
      <trkpt lat="42.19004" lon="19.71772">
        <ele>244.30999755859</ele>
        <time>2024-09-23T16:42:41.000Z</time>
      </trkpt>
      <trkpt lat="42.19" lon="19.71774">
        <ele>244.78999328613</ele>
        <time>2024-09-23T16:42:42.000Z</time>
      </trkpt>
      <trkpt lat="42.18995" lon="19.71777">
        <ele>244.78999328613</ele>
        <time>2024-09-23T16:42:43.000Z</time>
      </trkpt>
      <trkpt lat="42.18992" lon="19.71783">
        <ele>245.27000427246</ele>
        <time>2024-09-23T16:42:44.000Z</time>
      </trkpt>
      <trkpt lat="42.18991" lon="19.71789">
        <ele>245.27000427246</ele>
        <time>2024-09-23T16:42:45.000Z</time>
      </trkpt>
      <trkpt lat="42.18989" lon="19.71796">
        <ele>245.75</ele>
        <time>2024-09-23T16:42:46.000Z</time>
      </trkpt>
      <trkpt lat="42.18985" lon="19.71802">
        <ele>245.75</ele>
        <time>2024-09-23T16:42:47.000Z</time>
      </trkpt>
      <trkpt lat="42.18981" lon="19.71806">
        <ele>246.22999572754</ele>
        <time>2024-09-23T16:42:48.000Z</time>
      </trkpt>
      <trkpt lat="42.18975" lon="19.71807">
        <ele>246.22999572754</ele>
        <time>2024-09-23T16:42:49.000Z</time>
      </trkpt>
      <trkpt lat="42.18969" lon="19.71805">
        <ele>246.7200012207</ele>
        <time>2024-09-23T16:42:50.000Z</time>
      </trkpt>
      <trkpt lat="42.18963" lon="19.71802">
        <ele>247.19999694824</ele>
        <time>2024-09-23T16:42:51.000Z</time>
      </trkpt>
      <trkpt lat="42.18955" lon="19.71797">
        <ele>247.67999267578</ele>
        <time>2024-09-23T16:42:52.000Z</time>
      </trkpt>
      <trkpt lat="42.18948" lon="19.71792">
        <ele>247.67999267578</ele>
        <time>2024-09-23T16:42:53.000Z</time>
      </trkpt>
      <trkpt lat="42.1894" lon="19.71784">
        <ele>248.63999938965</ele>
        <time>2024-09-23T16:42:54.000Z</time>
      </trkpt>
      <trkpt lat="42.18933" lon="19.71779">
        <ele>249.11999511719</ele>
        <time>2024-09-23T16:42:55.000Z</time>
      </trkpt>
      <trkpt lat="42.18925" lon="19.71777">
        <ele>250.08000183105</ele>
        <time>2024-09-23T16:42:56.000Z</time>
      </trkpt>
      <trkpt lat="42.18918" lon="19.71776">
        <ele>250.55999755859</ele>
        <time>2024-09-23T16:42:57.000Z</time>
      </trkpt>
      <trkpt lat="42.18909" lon="19.71776">
        <ele>250.55999755859</ele>
        <time>2024-09-23T16:42:58.000Z</time>
      </trkpt>
      <trkpt lat="42.18898" lon="19.71778">
        <ele>250.55999755859</ele>
        <time>2024-09-23T16:42:59.000Z</time>
      </trkpt>
      <trkpt lat="42.18889" lon="19.7178">
        <ele>250.08000183105</ele>
        <time>2024-09-23T16:43:00.000Z</time>
      </trkpt>
      <trkpt lat="42.1888" lon="19.7178">
        <ele>250.08000183105</ele>
        <time>2024-09-23T16:43:01.000Z</time>
      </trkpt>
      <trkpt lat="42.18872" lon="19.71778">
        <ele>250.08000183105</ele>
        <time>2024-09-23T16:43:02.000Z</time>
      </trkpt>
      <trkpt lat="42.18865" lon="19.71773">
        <ele>250.55999755859</ele>
        <time>2024-09-23T16:43:03.000Z</time>
      </trkpt>
      <trkpt lat="42.18854" lon="19.71762">
        <ele>251.52000427246</ele>
        <time>2024-09-23T16:43:04.000Z</time>
      </trkpt>
      <trkpt lat="42.1885" lon="19.71757">
        <ele>251.52000427246</ele>
        <time>2024-09-23T16:43:05.000Z</time>
      </trkpt>
      <trkpt lat="42.1884" lon="19.7175">
        <ele>252</ele>
        <time>2024-09-23T16:43:06.000Z</time>
      </trkpt>
      <trkpt lat="42.1883" lon="19.71744">
        <ele>252</ele>
        <time>2024-09-23T16:43:07.000Z</time>
      </trkpt>
      <trkpt lat="42.18824" lon="19.71739">
        <ele>252</ele>
        <time>2024-09-23T16:43:08.000Z</time>
      </trkpt>
      <trkpt lat="42.18818" lon="19.71733">
        <ele>252</ele>
        <time>2024-09-23T16:43:09.000Z</time>
      </trkpt>
      <trkpt lat="42.18813" lon="19.71724">
        <ele>251.52000427246</ele>
        <time>2024-09-23T16:43:10.000Z</time>
      </trkpt>
      <trkpt lat="42.18803" lon="19.71701">
        <ele>251.03999328613</ele>
        <time>2024-09-23T16:43:12.000Z</time>
      </trkpt>
      <trkpt lat="42.18796" lon="19.71687">
        <ele>250.55999755859</ele>
        <time>2024-09-23T16:43:13.000Z</time>
      </trkpt>
      <trkpt lat="42.18793" lon="19.71682">
        <ele>250.55999755859</ele>
        <time>2024-09-23T16:43:14.000Z</time>
      </trkpt>
      <trkpt lat="42.18787" lon="19.71676">
        <ele>250.08000183105</ele>
        <time>2024-09-23T16:43:15.000Z</time>
      </trkpt>
      <trkpt lat="42.18781" lon="19.71672">
        <ele>248.63999938965</ele>
        <time>2024-09-23T16:43:16.000Z</time>
      </trkpt>
      <trkpt lat="42.18773" lon="19.7167">
        <ele>247.19999694824</ele>
        <time>2024-09-23T16:43:17.000Z</time>
      </trkpt>
      <trkpt lat="42.18766" lon="19.71672">
        <ele>245.75</ele>
        <time>2024-09-23T16:43:18.000Z</time>
      </trkpt>
      <trkpt lat="42.18759" lon="19.71675">
        <ele>244.78999328613</ele>
        <time>2024-09-23T16:43:19.000Z</time>
      </trkpt>
      <trkpt lat="42.18752" lon="19.71682">
        <ele>244.30999755859</ele>
        <time>2024-09-23T16:43:20.000Z</time>
      </trkpt>
      <trkpt lat="42.18747" lon="19.7169">
        <ele>243.83000183105</ele>
        <time>2024-09-23T16:43:21.000Z</time>
      </trkpt>
      <trkpt lat="42.18741" lon="19.71703">
        <ele>243.35000610352</ele>
        <time>2024-09-23T16:43:22.000Z</time>
      </trkpt>
      <trkpt lat="42.18735" lon="19.71722">
        <ele>242.38999938965</ele>
        <time>2024-09-23T16:43:23.000Z</time>
      </trkpt>
      <trkpt lat="42.1873" lon="19.71745">
        <ele>241.91000366211</ele>
        <time>2024-09-23T16:43:25.000Z</time>
      </trkpt>
      <trkpt lat="42.18715" lon="19.71828">
        <ele>239.99000549316</ele>
        <time>2024-09-23T16:43:30.000Z</time>
      </trkpt>
      <trkpt lat="42.18713" lon="19.71844">
        <ele>239.50999450684</ele>
        <time>2024-09-23T16:43:31.000Z</time>
      </trkpt>
      <trkpt lat="42.18711" lon="19.71853">
        <ele>239.50999450684</ele>
        <time>2024-09-23T16:43:32.000Z</time>
      </trkpt>
      <trkpt lat="42.18708" lon="19.71867">
        <ele>239.02000427246</ele>
        <time>2024-09-23T16:43:33.000Z</time>
      </trkpt>
      <trkpt lat="42.18703" lon="19.7188">
        <ele>239.02000427246</ele>
        <time>2024-09-23T16:43:34.000Z</time>
      </trkpt>
      <trkpt lat="42.18697" lon="19.71891">
        <ele>239.02000427246</ele>
        <time>2024-09-23T16:43:35.000Z</time>
      </trkpt>
      <trkpt lat="42.18686" lon="19.71909">
        <ele>238.53999328613</ele>
        <time>2024-09-23T16:43:36.000Z</time>
      </trkpt>
      <trkpt lat="42.18683" lon="19.71914">
        <ele>238.53999328613</ele>
        <time>2024-09-23T16:43:37.000Z</time>
      </trkpt>
      <trkpt lat="42.18654" lon="19.71947">
        <ele>240.94999694824</ele>
        <time>2024-09-23T16:43:40.000Z</time>
      </trkpt>
      <trkpt lat="42.18649" lon="19.71955">
        <ele>241.42999267578</ele>
        <time>2024-09-23T16:43:41.000Z</time>
      </trkpt>
      <trkpt lat="42.18644" lon="19.71962">
        <ele>241.91000366211</ele>
        <time>2024-09-23T16:43:42.000Z</time>
      </trkpt>
      <trkpt lat="42.18639" lon="19.71971">
        <ele>241.91000366211</ele>
        <time>2024-09-23T16:43:43.000Z</time>
      </trkpt>
      <trkpt lat="42.18635" lon="19.71981">
        <ele>242.38999938965</ele>
        <time>2024-09-23T16:43:44.000Z</time>
      </trkpt>
      <trkpt lat="42.18633" lon="19.71993">
        <ele>242.38999938965</ele>
        <time>2024-09-23T16:43:45.000Z</time>
      </trkpt>
      <trkpt lat="42.18631" lon="19.72021">
        <ele>242.86999511719</ele>
        <time>2024-09-23T16:43:47.000Z</time>
      </trkpt>
      <trkpt lat="42.18632" lon="19.72034">
        <ele>243.35000610352</ele>
        <time>2024-09-23T16:43:48.000Z</time>
      </trkpt>
      <trkpt lat="42.18633" lon="19.72048">
        <ele>243.35000610352</ele>
        <time>2024-09-23T16:43:49.000Z</time>
      </trkpt>
      <trkpt lat="42.18635" lon="19.7206">
        <ele>243.35000610352</ele>
        <time>2024-09-23T16:43:50.000Z</time>
      </trkpt>
      <trkpt lat="42.18641" lon="19.72098">
        <ele>243.83000183105</ele>
        <time>2024-09-23T16:43:53.000Z</time>
      </trkpt>
      <trkpt lat="42.18641" lon="19.72103">
        <ele>243.83000183105</ele>
        <time>2024-09-23T16:43:54.000Z</time>
      </trkpt>
      <trkpt lat="42.1864" lon="19.7211">
        <ele>244.30999755859</ele>
        <time>2024-09-23T16:43:55.000Z</time>
      </trkpt>
      <trkpt lat="42.18635" lon="19.72115">
        <ele>244.78999328613</ele>
        <time>2024-09-23T16:43:56.000Z</time>
      </trkpt>
      <trkpt lat="42.18634" lon="19.72115">
        <ele>244.78999328613</ele>
        <time>2024-09-23T16:43:57.000Z</time>
      </trkpt>
      <trkpt lat="42.18629" lon="19.72115">
        <ele>244.78999328613</ele>
        <time>2024-09-23T16:43:58.000Z</time>
      </trkpt>
      <trkpt lat="42.18624" lon="19.72114">
        <ele>245.27000427246</ele>
        <time>2024-09-23T16:43:59.000Z</time>
      </trkpt>
      <trkpt lat="42.18621" lon="19.7211">
        <ele>245.27000427246</ele>
        <time>2024-09-23T16:44:00.000Z</time>
      </trkpt>
      <trkpt lat="42.18619" lon="19.72105">
        <ele>245.75</ele>
        <time>2024-09-23T16:44:01.000Z</time>
      </trkpt>
      <trkpt lat="42.18617" lon="19.72097">
        <ele>246.22999572754</ele>
        <time>2024-09-23T16:44:02.000Z</time>
      </trkpt>
      <trkpt lat="42.18615" lon="19.72082">
        <ele>246.7200012207</ele>
        <time>2024-09-23T16:44:03.000Z</time>
      </trkpt>
      <trkpt lat="42.18612" lon="19.7207">
        <ele>246.7200012207</ele>
        <time>2024-09-23T16:44:05.000Z</time>
      </trkpt>
      <trkpt lat="42.1861" lon="19.7206">
        <ele>246.7200012207</ele>
        <time>2024-09-23T16:44:06.000Z</time>
      </trkpt>
      <trkpt lat="42.18607" lon="19.72052">
        <ele>246.22999572754</ele>
        <time>2024-09-23T16:44:07.000Z</time>
      </trkpt>
      <trkpt lat="42.18603" lon="19.72044">
        <ele>245.27000427246</ele>
        <time>2024-09-23T16:44:08.000Z</time>
      </trkpt>
      <trkpt lat="42.18597" lon="19.72036">
        <ele>244.30999755859</ele>
        <time>2024-09-23T16:44:09.000Z</time>
      </trkpt>
      <trkpt lat="42.18592" lon="19.72031">
        <ele>243.83000183105</ele>
        <time>2024-09-23T16:44:10.000Z</time>
      </trkpt>
      <trkpt lat="42.18586" lon="19.7203">
        <ele>242.86999511719</ele>
        <time>2024-09-23T16:44:11.000Z</time>
      </trkpt>
      <trkpt lat="42.1858" lon="19.7203">
        <ele>242.38999938965</ele>
        <time>2024-09-23T16:44:12.000Z</time>
      </trkpt>
      <trkpt lat="42.18574" lon="19.72031">
        <ele>241.91000366211</ele>
        <time>2024-09-23T16:44:13.000Z</time>
      </trkpt>
      <trkpt lat="42.18566" lon="19.72033">
        <ele>240.94999694824</ele>
        <time>2024-09-23T16:44:14.000Z</time>
      </trkpt>
      <trkpt lat="42.18558" lon="19.72034">
        <ele>239.50999450684</ele>
        <time>2024-09-23T16:44:15.000Z</time>
      </trkpt>
      <trkpt lat="42.18548" lon="19.72032">
        <ele>238.53999328613</ele>
        <time>2024-09-23T16:44:16.000Z</time>
      </trkpt>
      <trkpt lat="42.18537" lon="19.72028">
        <ele>238.05999755859</ele>
        <time>2024-09-23T16:44:17.000Z</time>
      </trkpt>
      <trkpt lat="42.1853" lon="19.72027">
        <ele>237.10000610352</ele>
        <time>2024-09-23T16:44:18.000Z</time>
      </trkpt>
      <trkpt lat="42.18519" lon="19.72026">
        <ele>236.61999511719</ele>
        <time>2024-09-23T16:44:19.000Z</time>
      </trkpt>
      <trkpt lat="42.18507" lon="19.72026">
        <ele>236.13999938965</ele>
        <time>2024-09-23T16:44:20.000Z</time>
      </trkpt>
      <trkpt lat="42.18497" lon="19.72026">
        <ele>235.17999267578</ele>
        <time>2024-09-23T16:44:21.000Z</time>
      </trkpt>
      <trkpt lat="42.18488" lon="19.72024">
        <ele>234.2200012207</ele>
        <time>2024-09-23T16:44:22.000Z</time>
      </trkpt>
      <trkpt lat="42.18474" lon="19.7202">
        <ele>233.25999450684</ele>
        <time>2024-09-23T16:44:23.000Z</time>
      </trkpt>
      <trkpt lat="42.18467" lon="19.72017">
        <ele>232.7799987793</ele>
        <time>2024-09-23T16:44:24.000Z</time>
      </trkpt>
      <trkpt lat="42.18425" lon="19.71994">
        <ele>230.36999511719</ele>
        <time>2024-09-23T16:44:28.000Z</time>
      </trkpt>
      <trkpt lat="42.18416" lon="19.71988">
        <ele>229.88999938965</ele>
        <time>2024-09-23T16:44:29.000Z</time>
      </trkpt>
      <trkpt lat="42.18399" lon="19.71975">
        <ele>228.44999694824</ele>
        <time>2024-09-23T16:44:30.000Z</time>
      </trkpt>
      <trkpt lat="42.18397" lon="19.71973">
        <ele>228.44999694824</ele>
        <time>2024-09-23T16:44:31.000Z</time>
      </trkpt>
      <trkpt lat="42.18375" lon="19.71958">
        <ele>227.00999450684</ele>
        <time>2024-09-23T16:44:33.000Z</time>
      </trkpt>
      <trkpt lat="42.18369" lon="19.71952">
        <ele>226.5299987793</ele>
        <time>2024-09-23T16:44:34.000Z</time>
      </trkpt>
      <trkpt lat="42.18359" lon="19.71942">
        <ele>226.05000305176</ele>
        <time>2024-09-23T16:44:35.000Z</time>
      </trkpt>
      <trkpt lat="42.18351" lon="19.71933">
        <ele>225.08999633789</ele>
        <time>2024-09-23T16:44:36.000Z</time>
      </trkpt>
      <trkpt lat="42.18337" lon="19.71919">
        <ele>223.63999938965</ele>
        <time>2024-09-23T16:44:37.000Z</time>
      </trkpt>
      <trkpt lat="42.18332" lon="19.71915">
        <ele>223.16000366211</ele>
        <time>2024-09-23T16:44:38.000Z</time>
      </trkpt>
      <trkpt lat="42.18321" lon="19.71906">
        <ele>221.7200012207</ele>
        <time>2024-09-23T16:44:39.000Z</time>
      </trkpt>
      <trkpt lat="42.18307" lon="19.71895">
        <ele>219.80000305176</ele>
        <time>2024-09-23T16:44:40.000Z</time>
      </trkpt>
      <trkpt lat="42.18301" lon="19.7189">
        <ele>218.83999633789</ele>
        <time>2024-09-23T16:44:41.000Z</time>
      </trkpt>
      <trkpt lat="42.18289" lon="19.71881">
        <ele>217.88000488281</ele>
        <time>2024-09-23T16:44:42.000Z</time>
      </trkpt>
      <trkpt lat="42.18279" lon="19.71873">
        <ele>216.91000366211</ele>
        <time>2024-09-23T16:44:43.000Z</time>
      </trkpt>
      <trkpt lat="42.18268" lon="19.71865">
        <ele>215.4700012207</ele>
        <time>2024-09-23T16:44:44.000Z</time>
      </trkpt>
      <trkpt lat="42.18257" lon="19.71856">
        <ele>214.50999450684</ele>
        <time>2024-09-23T16:44:45.000Z</time>
      </trkpt>
      <trkpt lat="42.18224" lon="19.7183">
        <ele>212.58999633789</ele>
        <time>2024-09-23T16:44:48.000Z</time>
      </trkpt>
      <trkpt lat="42.18217" lon="19.71825">
        <ele>212.11000061035</ele>
        <time>2024-09-23T16:44:49.000Z</time>
      </trkpt>
      <trkpt lat="42.18208" lon="19.71822">
        <ele>212.11000061035</ele>
        <time>2024-09-23T16:44:50.000Z</time>
      </trkpt>
      <trkpt lat="42.182" lon="19.71822">
        <ele>212.11000061035</ele>
        <time>2024-09-23T16:44:51.000Z</time>
      </trkpt>
      <trkpt lat="42.18191" lon="19.71824">
        <ele>212.58999633789</ele>
        <time>2024-09-23T16:44:52.000Z</time>
      </trkpt>
      <trkpt lat="42.18184" lon="19.71831">
        <ele>212.11000061035</ele>
        <time>2024-09-23T16:44:53.000Z</time>
      </trkpt>
      <trkpt lat="42.18177" lon="19.71839">
        <ele>212.11000061035</ele>
        <time>2024-09-23T16:44:54.000Z</time>
      </trkpt>
      <trkpt lat="42.18171" lon="19.71848">
        <ele>212.11000061035</ele>
        <time>2024-09-23T16:44:55.000Z</time>
      </trkpt>
      <trkpt lat="42.18123" lon="19.71933">
        <ele>215.4700012207</ele>
        <time>2024-09-23T16:45:02.000Z</time>
      </trkpt>
      <trkpt lat="42.18121" lon="19.71937">
        <ele>215.4700012207</ele>
        <time>2024-09-23T16:45:03.000Z</time>
      </trkpt>
      <trkpt lat="42.18115" lon="19.7195">
        <ele>215.4700012207</ele>
        <time>2024-09-23T16:45:04.000Z</time>
      </trkpt>
      <trkpt lat="42.18113" lon="19.71953">
        <ele>215.94999694824</ele>
        <time>2024-09-23T16:45:05.000Z</time>
      </trkpt>
      <trkpt lat="42.18107" lon="19.71968">
        <ele>218.36000061035</ele>
        <time>2024-09-23T16:45:06.000Z</time>
      </trkpt>
      <trkpt lat="42.18105" lon="19.71973">
        <ele>218.83999633789</ele>
        <time>2024-09-23T16:45:07.000Z</time>
      </trkpt>
      <trkpt lat="42.18093" lon="19.71995">
        <ele>220.2799987793</ele>
        <time>2024-09-23T16:45:10.000Z</time>
      </trkpt>
      <trkpt lat="42.18089" lon="19.72002">
        <ele>220.75999450684</ele>
        <time>2024-09-23T16:45:11.000Z</time>
      </trkpt>
      <trkpt lat="42.18084" lon="19.72008">
        <ele>220.75999450684</ele>
        <time>2024-09-23T16:45:12.000Z</time>
      </trkpt>
      <trkpt lat="42.18079" lon="19.72012">
        <ele>219.80000305176</ele>
        <time>2024-09-23T16:45:13.000Z</time>
      </trkpt>
      <trkpt lat="42.18073" lon="19.72015">
        <ele>219.32000732422</ele>
        <time>2024-09-23T16:45:14.000Z</time>
      </trkpt>
      <trkpt lat="42.18051" lon="19.72026">
        <ele>216.42999267578</ele>
        <time>2024-09-23T16:45:17.000Z</time>
      </trkpt>
      <trkpt lat="42.18017" lon="19.72039">
        <ele>213.55000305176</ele>
        <time>2024-09-23T16:45:22.000Z</time>
      </trkpt>
      <trkpt lat="42.17971" lon="19.7205">
        <ele>212.11000061035</ele>
        <time>2024-09-23T16:45:29.000Z</time>
      </trkpt>
      <trkpt lat="42.17917" lon="19.72067">
        <ele>210.19000244141</ele>
        <time>2024-09-23T16:45:36.000Z</time>
      </trkpt>
      <trkpt lat="42.1791" lon="19.72069">
        <ele>210.66999816895</ele>
        <time>2024-09-23T16:45:37.000Z</time>
      </trkpt>
      <trkpt lat="42.17901" lon="19.72069">
        <ele>211.14999389648</ele>
        <time>2024-09-23T16:45:38.000Z</time>
      </trkpt>
      <trkpt lat="42.17887" lon="19.72067">
        <ele>211.14999389648</ele>
        <time>2024-09-23T16:45:39.000Z</time>
      </trkpt>
      <trkpt lat="42.17884" lon="19.72066">
        <ele>211.14999389648</ele>
        <time>2024-09-23T16:45:40.000Z</time>
      </trkpt>
      <trkpt lat="42.17877" lon="19.72062">
        <ele>211.14999389648</ele>
        <time>2024-09-23T16:45:41.000Z</time>
      </trkpt>
      <trkpt lat="42.17872" lon="19.72055">
        <ele>211.14999389648</ele>
        <time>2024-09-23T16:45:42.000Z</time>
      </trkpt>
      <trkpt lat="42.17863" lon="19.72036">
        <ele>211.14999389648</ele>
        <time>2024-09-23T16:45:43.000Z</time>
      </trkpt>
      <trkpt lat="42.17862" lon="19.72034">
        <ele>211.14999389648</ele>
        <time>2024-09-23T16:45:44.000Z</time>
      </trkpt>
      <trkpt lat="42.1783" lon="19.71988">
        <ele>208.74000549316</ele>
        <time>2024-09-23T16:45:49.000Z</time>
      </trkpt>
      <trkpt lat="42.1782" lon="19.71972">
        <ele>208.25999450684</ele>
        <time>2024-09-23T16:45:51.000Z</time>
      </trkpt>
      <trkpt lat="42.17815" lon="19.71963">
        <ele>208.25999450684</ele>
        <time>2024-09-23T16:45:53.000Z</time>
      </trkpt>
      <trkpt lat="42.17809" lon="19.71956">
        <ele>208.25999450684</ele>
        <time>2024-09-23T16:45:54.000Z</time>
      </trkpt>
      <trkpt lat="42.17759" lon="19.71889">
        <ele>206.82000732422</ele>
        <time>2024-09-23T16:46:01.000Z</time>
      </trkpt>
      <trkpt lat="42.17747" lon="19.7187">
        <ele>206.82000732422</ele>
        <time>2024-09-23T16:46:03.000Z</time>
      </trkpt>
      <trkpt lat="42.1774" lon="19.71863">
        <ele>206.82000732422</ele>
        <time>2024-09-23T16:46:04.000Z</time>
      </trkpt>
      <trkpt lat="42.17734" lon="19.71857">
        <ele>207.30000305176</ele>
        <time>2024-09-23T16:46:05.000Z</time>
      </trkpt>
      <trkpt lat="42.17722" lon="19.71848">
        <ele>206.82000732422</ele>
        <time>2024-09-23T16:46:06.000Z</time>
      </trkpt>
      <trkpt lat="42.17711" lon="19.71839">
        <ele>206.82000732422</ele>
        <time>2024-09-23T16:46:08.000Z</time>
      </trkpt>
      <trkpt lat="42.17707" lon="19.71836">
        <ele>206.82000732422</ele>
        <time>2024-09-23T16:46:09.000Z</time>
      </trkpt>
      <trkpt lat="42.17703" lon="19.71831">
        <ele>206.82000732422</ele>
        <time>2024-09-23T16:46:10.000Z</time>
      </trkpt>
      <trkpt lat="42.17697" lon="19.71825">
        <ele>207.30000305176</ele>
        <time>2024-09-23T16:46:11.000Z</time>
      </trkpt>
      <trkpt lat="42.17692" lon="19.71817">
        <ele>208.25999450684</ele>
        <time>2024-09-23T16:46:12.000Z</time>
      </trkpt>
      <trkpt lat="42.17685" lon="19.71808">
        <ele>209.2200012207</ele>
        <time>2024-09-23T16:46:13.000Z</time>
      </trkpt>
      <trkpt lat="42.17682" lon="19.71803">
        <ele>209.2200012207</ele>
        <time>2024-09-23T16:46:14.000Z</time>
      </trkpt>
      <trkpt lat="42.17666" lon="19.71784">
        <ele>209.2200012207</ele>
        <time>2024-09-23T16:46:17.000Z</time>
      </trkpt>
      <trkpt lat="42.17663" lon="19.71779">
        <ele>209.2200012207</ele>
        <time>2024-09-23T16:46:18.000Z</time>
      </trkpt>
      <trkpt lat="42.17659" lon="19.71772">
        <ele>209.2200012207</ele>
        <time>2024-09-23T16:46:19.000Z</time>
      </trkpt>
      <trkpt lat="42.17655" lon="19.71763">
        <ele>209.2200012207</ele>
        <time>2024-09-23T16:46:20.000Z</time>
      </trkpt>
      <trkpt lat="42.17648" lon="19.71746">
        <ele>209.69999694824</ele>
        <time>2024-09-23T16:46:27.000Z</time>
      </trkpt>
      <trkpt lat="42.1764" lon="19.71734">
        <ele>209.2200012207</ele>
        <time>2024-09-23T16:48:04.000Z</time>
      </trkpt>
      <trkpt lat="42.17623" lon="19.71709">
        <ele>209.2200012207</ele>
        <time>2024-09-23T16:48:07.000Z</time>
      </trkpt>
      <trkpt lat="42.17589" lon="19.71656">
        <ele>209.69999694824</ele>
        <time>2024-09-23T16:48:12.000Z</time>
      </trkpt>
      <trkpt lat="42.17581" lon="19.71646">
        <ele>210.19000244141</ele>
        <time>2024-09-23T16:48:13.000Z</time>
      </trkpt>
      <trkpt lat="42.17568" lon="19.71628">
        <ele>211.63000488281</ele>
        <time>2024-09-23T16:48:14.000Z</time>
      </trkpt>
      <trkpt lat="42.17564" lon="19.71623">
        <ele>212.11000061035</ele>
        <time>2024-09-23T16:48:15.000Z</time>
      </trkpt>
      <trkpt lat="42.1756" lon="19.71615">
        <ele>212.11000061035</ele>
        <time>2024-09-23T16:48:16.000Z</time>
      </trkpt>
      <trkpt lat="42.1755" lon="19.71594">
        <ele>212.58999633789</ele>
        <time>2024-09-23T16:48:17.000Z</time>
      </trkpt>
      <trkpt lat="42.17505" lon="19.71508">
        <ele>210.66999816895</ele>
        <time>2024-09-23T16:48:24.000Z</time>
      </trkpt>
      <trkpt lat="42.17484" lon="19.71464">
        <ele>209.2200012207</ele>
        <time>2024-09-23T16:48:27.000Z</time>
      </trkpt>
      <trkpt lat="42.17445" lon="19.71344">
        <ele>203.94000244141</ele>
        <time>2024-09-23T16:48:36.000Z</time>
      </trkpt>
      <trkpt lat="42.17431" lon="19.71254">
        <ele>199.61000061035</ele>
        <time>2024-09-23T16:48:41.000Z</time>
      </trkpt>
      <trkpt lat="42.17431" lon="19.71251">
        <ele>199.61000061035</ele>
        <time>2024-09-23T16:48:42.000Z</time>
      </trkpt>
      <trkpt lat="42.17427" lon="19.71238">
        <ele>199.61000061035</ele>
        <time>2024-09-23T16:48:43.000Z</time>
      </trkpt>
      <trkpt lat="42.17386" lon="19.71114">
        <ele>196.25</ele>
        <time>2024-09-23T16:48:51.000Z</time>
      </trkpt>
      <trkpt lat="42.17381" lon="19.71102">
        <ele>196.25</ele>
        <time>2024-09-23T16:48:52.000Z</time>
      </trkpt>
      <trkpt lat="42.17377" lon="19.71093">
        <ele>196.25</ele>
        <time>2024-09-23T16:48:53.000Z</time>
      </trkpt>
      <trkpt lat="42.1737" lon="19.71084">
        <ele>196.25</ele>
        <time>2024-09-23T16:48:54.000Z</time>
      </trkpt>
      <trkpt lat="42.17362" lon="19.71077">
        <ele>196.25</ele>
        <time>2024-09-23T16:48:55.000Z</time>
      </trkpt>
      <trkpt lat="42.17354" lon="19.71071">
        <ele>196.25</ele>
        <time>2024-09-23T16:48:56.000Z</time>
      </trkpt>
      <trkpt lat="42.17345" lon="19.71065">
        <ele>196.72999572754</ele>
        <time>2024-09-23T16:48:57.000Z</time>
      </trkpt>
      <trkpt lat="42.17339" lon="19.71059">
        <ele>196.25</ele>
        <time>2024-09-23T16:48:58.000Z</time>
      </trkpt>
      <trkpt lat="42.17333" lon="19.71051">
        <ele>196.25</ele>
        <time>2024-09-23T16:48:59.000Z</time>
      </trkpt>
      <trkpt lat="42.17331" lon="19.71041">
        <ele>196.25</ele>
        <time>2024-09-23T16:49:00.000Z</time>
      </trkpt>
      <trkpt lat="42.17331" lon="19.71031">
        <ele>196.72999572754</ele>
        <time>2024-09-23T16:49:01.000Z</time>
      </trkpt>
      <trkpt lat="42.17333" lon="19.71018">
        <ele>196.72999572754</ele>
        <time>2024-09-23T16:49:02.000Z</time>
      </trkpt>
      <trkpt lat="42.17335" lon="19.71008">
        <ele>196.72999572754</ele>
        <time>2024-09-23T16:49:03.000Z</time>
      </trkpt>
      <trkpt lat="42.17339" lon="19.70991">
        <ele>196.72999572754</ele>
        <time>2024-09-23T16:49:05.000Z</time>
      </trkpt>
      <trkpt lat="42.1734" lon="19.70981">
        <ele>196.25</ele>
        <time>2024-09-23T16:49:06.000Z</time>
      </trkpt>
      <trkpt lat="42.17341" lon="19.70974">
        <ele>196.25</ele>
        <time>2024-09-23T16:49:07.000Z</time>
      </trkpt>
      <trkpt lat="42.1734" lon="19.70966">
        <ele>196.25</ele>
        <time>2024-09-23T16:49:08.000Z</time>
      </trkpt>
      <trkpt lat="42.17336" lon="19.7096">
        <ele>196.25</ele>
        <time>2024-09-23T16:49:09.000Z</time>
      </trkpt>
      <trkpt lat="42.17329" lon="19.70955">
        <ele>195.77000427246</ele>
        <time>2024-09-23T16:49:10.000Z</time>
      </trkpt>
      <trkpt lat="42.17315" lon="19.70951">
        <ele>195.77000427246</ele>
        <time>2024-09-23T16:49:11.000Z</time>
      </trkpt>
      <trkpt lat="42.17294" lon="19.70944">
        <ele>195.77000427246</ele>
        <time>2024-09-23T16:49:14.000Z</time>
      </trkpt>
      <trkpt lat="42.17283" lon="19.70942">
        <ele>195.2799987793</ele>
        <time>2024-09-23T16:49:15.000Z</time>
      </trkpt>
      <trkpt lat="42.17277" lon="19.7094">
        <ele>195.2799987793</ele>
        <time>2024-09-23T16:49:16.000Z</time>
      </trkpt>
      <trkpt lat="42.17269" lon="19.70935">
        <ele>195.2799987793</ele>
        <time>2024-09-23T16:49:17.000Z</time>
      </trkpt>
      <trkpt lat="42.17261" lon="19.70929">
        <ele>194.80000305176</ele>
        <time>2024-09-23T16:49:18.000Z</time>
      </trkpt>
      <trkpt lat="42.17249" lon="19.70916">
        <ele>195.2799987793</ele>
        <time>2024-09-23T16:49:19.000Z</time>
      </trkpt>
      <trkpt lat="42.17237" lon="19.70903">
        <ele>195.2799987793</ele>
        <time>2024-09-23T16:49:21.000Z</time>
      </trkpt>
      <trkpt lat="42.17234" lon="19.709">
        <ele>195.2799987793</ele>
        <time>2024-09-23T16:49:22.000Z</time>
      </trkpt>
      <trkpt lat="42.17221" lon="19.70887">
        <ele>194.32000732422</ele>
        <time>2024-09-23T16:49:23.000Z</time>
      </trkpt>
      <trkpt lat="42.17212" lon="19.7088">
        <ele>193.83999633789</ele>
        <time>2024-09-23T16:49:25.000Z</time>
      </trkpt>
      <trkpt lat="42.17202" lon="19.70873">
        <ele>194.32000732422</ele>
        <time>2024-09-23T16:49:26.000Z</time>
      </trkpt>
      <trkpt lat="42.17195" lon="19.70866">
        <ele>194.32000732422</ele>
        <time>2024-09-23T16:49:27.000Z</time>
      </trkpt>
      <trkpt lat="42.17178" lon="19.70843">
        <ele>194.32000732422</ele>
        <time>2024-09-23T16:49:29.000Z</time>
      </trkpt>
      <trkpt lat="42.17172" lon="19.70834">
        <ele>193.83999633789</ele>
        <time>2024-09-23T16:49:30.000Z</time>
      </trkpt>
      <trkpt lat="42.17165" lon="19.70821">
        <ele>193.83999633789</ele>
        <time>2024-09-23T16:49:31.000Z</time>
      </trkpt>
      <trkpt lat="42.17159" lon="19.70807">
        <ele>194.80000305176</ele>
        <time>2024-09-23T16:49:32.000Z</time>
      </trkpt>
      <trkpt lat="42.17143" lon="19.70771">
        <ele>196.25</ele>
        <time>2024-09-23T16:49:34.000Z</time>
      </trkpt>
      <trkpt lat="42.17128" lon="19.70741">
        <ele>196.72999572754</ele>
        <time>2024-09-23T16:49:37.000Z</time>
      </trkpt>
      <trkpt lat="42.17121" lon="19.7073">
        <ele>197.21000671387</ele>
        <time>2024-09-23T16:49:38.000Z</time>
      </trkpt>
      <trkpt lat="42.17114" lon="19.70717">
        <ele>197.69000244141</ele>
        <time>2024-09-23T16:49:39.000Z</time>
      </trkpt>
      <trkpt lat="42.17104" lon="19.70703">
        <ele>197.69000244141</ele>
        <time>2024-09-23T16:49:40.000Z</time>
      </trkpt>
      <trkpt lat="42.171" lon="19.70697">
        <ele>197.69000244141</ele>
        <time>2024-09-23T16:49:41.000Z</time>
      </trkpt>
      <trkpt lat="42.17093" lon="19.70684">
        <ele>197.21000671387</ele>
        <time>2024-09-23T16:49:42.000Z</time>
      </trkpt>
      <trkpt lat="42.17089" lon="19.70675">
        <ele>196.72999572754</ele>
        <time>2024-09-23T16:49:43.000Z</time>
      </trkpt>
      <trkpt lat="42.17084" lon="19.70663">
        <ele>196.25</ele>
        <time>2024-09-23T16:49:44.000Z</time>
      </trkpt>
      <trkpt lat="42.17071" lon="19.7062">
        <ele>195.2799987793</ele>
        <time>2024-09-23T16:49:47.000Z</time>
      </trkpt>
      <trkpt lat="42.17065" lon="19.70601">
        <ele>194.80000305176</ele>
        <time>2024-09-23T16:49:48.000Z</time>
      </trkpt>
      <trkpt lat="42.17062" lon="19.7059">
        <ele>194.80000305176</ele>
        <time>2024-09-23T16:49:49.000Z</time>
      </trkpt>
      <trkpt lat="42.17059" lon="19.70574">
        <ele>194.80000305176</ele>
        <time>2024-09-23T16:49:50.000Z</time>
      </trkpt>
      <trkpt lat="42.17058" lon="19.70553">
        <ele>194.80000305176</ele>
        <time>2024-09-23T16:49:51.000Z</time>
      </trkpt>
      <trkpt lat="42.17051" lon="19.70448">
        <ele>194.80000305176</ele>
        <time>2024-09-23T16:49:56.000Z</time>
      </trkpt>
      <trkpt lat="42.1705" lon="19.70422">
        <ele>194.80000305176</ele>
        <time>2024-09-23T16:49:58.000Z</time>
      </trkpt>
      <trkpt lat="42.17049" lon="19.70403">
        <ele>195.2799987793</ele>
        <time>2024-09-23T16:49:59.000Z</time>
      </trkpt>
      <trkpt lat="42.17047" lon="19.70389">
        <ele>195.77000427246</ele>
        <time>2024-09-23T16:50:00.000Z</time>
      </trkpt>
      <trkpt lat="42.17044" lon="19.7036">
        <ele>196.72999572754</ele>
        <time>2024-09-23T16:50:02.000Z</time>
      </trkpt>
      <trkpt lat="42.17044" lon="19.70347">
        <ele>197.69000244141</ele>
        <time>2024-09-23T16:50:03.000Z</time>
      </trkpt>
      <trkpt lat="42.17045" lon="19.70332">
        <ele>198.16999816895</ele>
        <time>2024-09-23T16:50:04.000Z</time>
      </trkpt>
      <trkpt lat="42.17053" lon="19.70292">
        <ele>200.08999633789</ele>
        <time>2024-09-23T16:50:06.000Z</time>
      </trkpt>
      <trkpt lat="42.17054" lon="19.70285">
        <ele>200.57000732422</ele>
        <time>2024-09-23T16:50:07.000Z</time>
      </trkpt>
      <trkpt lat="42.17072" lon="19.70163">
        <ele>205.38000488281</ele>
        <time>2024-09-23T16:50:15.000Z</time>
      </trkpt>
      <trkpt lat="42.17075" lon="19.70138">
        <ele>206.33999633789</ele>
        <time>2024-09-23T16:50:16.000Z</time>
      </trkpt>
      <trkpt lat="42.17076" lon="19.70131">
        <ele>206.33999633789</ele>
        <time>2024-09-23T16:50:17.000Z</time>
      </trkpt>
      <trkpt lat="42.17082" lon="19.70058">
        <ele>207.7799987793</ele>
        <time>2024-09-23T16:50:22.000Z</time>
      </trkpt>
      <trkpt lat="42.17082" lon="19.70056">
        <ele>207.7799987793</ele>
        <time>2024-09-23T16:50:23.000Z</time>
      </trkpt>
      <trkpt lat="42.17086" lon="19.70043">
        <ele>208.25999450684</ele>
        <time>2024-09-23T16:50:24.000Z</time>
      </trkpt>
      <trkpt lat="42.17092" lon="19.70023">
        <ele>208.74000549316</ele>
        <time>2024-09-23T16:50:25.000Z</time>
      </trkpt>
      <trkpt lat="42.17094" lon="19.70016">
        <ele>208.74000549316</ele>
        <time>2024-09-23T16:50:26.000Z</time>
      </trkpt>
      <trkpt lat="42.17096" lon="19.70009">
        <ele>208.25999450684</ele>
        <time>2024-09-23T16:50:27.000Z</time>
      </trkpt>
      <trkpt lat="42.17097" lon="19.69998">
        <ele>207.7799987793</ele>
        <time>2024-09-23T16:50:28.000Z</time>
      </trkpt>
      <trkpt lat="42.17096" lon="19.69988">
        <ele>207.30000305176</ele>
        <time>2024-09-23T16:50:29.000Z</time>
      </trkpt>
      <trkpt lat="42.17093" lon="19.69953">
        <ele>206.33999633789</ele>
        <time>2024-09-23T16:50:32.000Z</time>
      </trkpt>
      <trkpt lat="42.17093" lon="19.6994">
        <ele>205.86000061035</ele>
        <time>2024-09-23T16:50:33.000Z</time>
      </trkpt>
      <trkpt lat="42.17094" lon="19.69927">
        <ele>205.38000488281</ele>
        <time>2024-09-23T16:50:34.000Z</time>
      </trkpt>
      <trkpt lat="42.17097" lon="19.69914">
        <ele>204.41999816895</ele>
        <time>2024-09-23T16:50:35.000Z</time>
      </trkpt>
      <trkpt lat="42.17103" lon="19.69894">
        <ele>202.97999572754</ele>
        <time>2024-09-23T16:50:36.000Z</time>
      </trkpt>
      <trkpt lat="42.17104" lon="19.69889">
        <ele>202.49000549316</ele>
        <time>2024-09-23T16:50:37.000Z</time>
      </trkpt>
      <trkpt lat="42.17107" lon="19.69873">
        <ele>202.00999450684</ele>
        <time>2024-09-23T16:50:38.000Z</time>
      </trkpt>
      <trkpt lat="42.17111" lon="19.69814">
        <ele>198.64999389648</ele>
        <time>2024-09-23T16:50:42.000Z</time>
      </trkpt>
      <trkpt lat="42.17111" lon="19.69805">
        <ele>197.69000244141</ele>
        <time>2024-09-23T16:50:43.000Z</time>
      </trkpt>
      <trkpt lat="42.1711" lon="19.69791">
        <ele>197.21000671387</ele>
        <time>2024-09-23T16:50:44.000Z</time>
      </trkpt>
      <trkpt lat="42.1711" lon="19.69774">
        <ele>195.2799987793</ele>
        <time>2024-09-23T16:50:45.000Z</time>
      </trkpt>
      <trkpt lat="42.1711" lon="19.69765">
        <ele>194.32000732422</ele>
        <time>2024-09-23T16:50:46.000Z</time>
      </trkpt>
      <trkpt lat="42.1711" lon="19.69751">
        <ele>193.36000061035</ele>
        <time>2024-09-23T16:50:47.000Z</time>
      </trkpt>
      <trkpt lat="42.17108" lon="19.69738">
        <ele>192.39999389648</ele>
        <time>2024-09-23T16:50:48.000Z</time>
      </trkpt>
      <trkpt lat="42.17104" lon="19.69725">
        <ele>191.91999816895</ele>
        <time>2024-09-23T16:50:49.000Z</time>
      </trkpt>
      <trkpt lat="42.17081" lon="19.69679">
        <ele>188.55999755859</ele>
        <time>2024-09-23T16:50:52.000Z</time>
      </trkpt>
      <trkpt lat="42.17078" lon="19.69674">
        <ele>188.08000183105</ele>
        <time>2024-09-23T16:50:53.000Z</time>
      </trkpt>
      <trkpt lat="42.17063" lon="19.69648">
        <ele>186.63000488281</ele>
        <time>2024-09-23T16:50:55.000Z</time>
      </trkpt>
      <trkpt lat="42.17044" lon="19.69619">
        <ele>184.71000671387</ele>
        <time>2024-09-23T16:50:58.000Z</time>
      </trkpt>
      <trkpt lat="42.1704" lon="19.69615">
        <ele>184.22999572754</ele>
        <time>2024-09-23T16:50:59.000Z</time>
      </trkpt>
      <trkpt lat="42.17034" lon="19.69608">
        <ele>183.75</ele>
        <time>2024-09-23T16:51:00.000Z</time>
      </trkpt>
      <trkpt lat="42.17026" lon="19.69604">
        <ele>183.27000427246</ele>
        <time>2024-09-23T16:51:01.000Z</time>
      </trkpt>
      <trkpt lat="42.17017" lon="19.696">
        <ele>182.78999328613</ele>
        <time>2024-09-23T16:51:02.000Z</time>
      </trkpt>
      <trkpt lat="42.17007" lon="19.69598">
        <ele>181.83000183105</ele>
        <time>2024-09-23T16:51:03.000Z</time>
      </trkpt>
      <trkpt lat="42.16998" lon="19.69597">
        <ele>181.35000610352</ele>
        <time>2024-09-23T16:51:04.000Z</time>
      </trkpt>
      <trkpt lat="42.16987" lon="19.69598">
        <ele>181.35000610352</ele>
        <time>2024-09-23T16:51:05.000Z</time>
      </trkpt>
      <trkpt lat="42.1695" lon="19.69604">
        <ele>179.89999389648</ele>
        <time>2024-09-23T16:51:08.000Z</time>
      </trkpt>
      <trkpt lat="42.16943" lon="19.69603">
        <ele>179.89999389648</ele>
        <time>2024-09-23T16:51:09.000Z</time>
      </trkpt>
      <trkpt lat="42.16927" lon="19.69601">
        <ele>179.41999816895</ele>
        <time>2024-09-23T16:51:10.000Z</time>
      </trkpt>
      <trkpt lat="42.1692" lon="19.69601">
        <ele>179.41999816895</ele>
        <time>2024-09-23T16:51:11.000Z</time>
      </trkpt>
      <trkpt lat="42.16908" lon="19.69602">
        <ele>179.41999816895</ele>
        <time>2024-09-23T16:51:12.000Z</time>
      </trkpt>
      <trkpt lat="42.16868" lon="19.69611">
        <ele>177.97999572754</ele>
        <time>2024-09-23T16:51:15.000Z</time>
      </trkpt>
      <trkpt lat="42.16862" lon="19.69614">
        <ele>177.5</ele>
        <time>2024-09-23T16:51:16.000Z</time>
      </trkpt>
      <trkpt lat="42.16851" lon="19.69619">
        <ele>177.02000427246</ele>
        <time>2024-09-23T16:51:17.000Z</time>
      </trkpt>
      <trkpt lat="42.16819" lon="19.69644">
        <ele>177.5</ele>
        <time>2024-09-23T16:51:20.000Z</time>
      </trkpt>
      <trkpt lat="42.16814" lon="19.69649">
        <ele>177.02000427246</ele>
        <time>2024-09-23T16:51:21.000Z</time>
      </trkpt>
      <trkpt lat="42.16806" lon="19.69659">
        <ele>177.02000427246</ele>
        <time>2024-09-23T16:51:22.000Z</time>
      </trkpt>
      <trkpt lat="42.16797" lon="19.69674">
        <ele>176.53999328613</ele>
        <time>2024-09-23T16:51:23.000Z</time>
      </trkpt>
      <trkpt lat="42.16783" lon="19.69692">
        <ele>177.02000427246</ele>
        <time>2024-09-23T16:51:24.000Z</time>
      </trkpt>
      <trkpt lat="42.1678" lon="19.69697">
        <ele>177.02000427246</ele>
        <time>2024-09-23T16:51:25.000Z</time>
      </trkpt>
      <trkpt lat="42.16758" lon="19.69729">
        <ele>179.89999389648</ele>
        <time>2024-09-23T16:51:27.000Z</time>
      </trkpt>
      <trkpt lat="42.16748" lon="19.69745">
        <ele>182.30999755859</ele>
        <time>2024-09-23T16:51:29.000Z</time>
      </trkpt>
      <trkpt lat="42.16739" lon="19.69758">
        <ele>183.75</ele>
        <time>2024-09-23T16:51:30.000Z</time>
      </trkpt>
      <trkpt lat="42.16726" lon="19.69777">
        <ele>186.63000488281</ele>
        <time>2024-09-23T16:51:32.000Z</time>
      </trkpt>
      <trkpt lat="42.16722" lon="19.69783">
        <ele>187.11000061035</ele>
        <time>2024-09-23T16:51:33.000Z</time>
      </trkpt>
      <trkpt lat="42.16714" lon="19.69793">
        <ele>188.55999755859</ele>
        <time>2024-09-23T16:51:34.000Z</time>
      </trkpt>
      <trkpt lat="42.16708" lon="19.698">
        <ele>189.03999328613</ele>
        <time>2024-09-23T16:51:35.000Z</time>
      </trkpt>
      <trkpt lat="42.16704" lon="19.69805">
        <ele>189.52000427246</ele>
        <time>2024-09-23T16:51:36.000Z</time>
      </trkpt>
      <trkpt lat="42.16697" lon="19.6981">
        <ele>190</ele>
        <time>2024-09-23T16:51:37.000Z</time>
      </trkpt>
      <trkpt lat="42.16689" lon="19.69816">
        <ele>190.96000671387</ele>
        <time>2024-09-23T16:51:38.000Z</time>
      </trkpt>
      <trkpt lat="42.16681" lon="19.69819">
        <ele>191.44000244141</ele>
        <time>2024-09-23T16:51:39.000Z</time>
      </trkpt>
      <trkpt lat="42.16673" lon="19.6982">
        <ele>192.39999389648</ele>
        <time>2024-09-23T16:51:40.000Z</time>
      </trkpt>
      <trkpt lat="42.16664" lon="19.69819">
        <ele>192.88000488281</ele>
        <time>2024-09-23T16:51:41.000Z</time>
      </trkpt>
      <trkpt lat="42.16657" lon="19.69815">
        <ele>193.36000061035</ele>
        <time>2024-09-23T16:51:42.000Z</time>
      </trkpt>
      <trkpt lat="42.16629" lon="19.69796">
        <ele>193.36000061035</ele>
        <time>2024-09-23T16:51:45.000Z</time>
      </trkpt>
      <trkpt lat="42.16626" lon="19.69794">
        <ele>193.36000061035</ele>
        <time>2024-09-23T16:51:46.000Z</time>
      </trkpt>
      <trkpt lat="42.16621" lon="19.69789">
        <ele>192.88000488281</ele>
        <time>2024-09-23T16:51:47.000Z</time>
      </trkpt>
      <trkpt lat="42.16615" lon="19.69781">
        <ele>192.39999389648</ele>
        <time>2024-09-23T16:51:48.000Z</time>
      </trkpt>
      <trkpt lat="42.16611" lon="19.69772">
        <ele>191.91999816895</ele>
        <time>2024-09-23T16:51:49.000Z</time>
      </trkpt>
      <trkpt lat="42.16608" lon="19.69761">
        <ele>190.96000671387</ele>
        <time>2024-09-23T16:51:50.000Z</time>
      </trkpt>
      <trkpt lat="42.16606" lon="19.69733">
        <ele>189.52000427246</ele>
        <time>2024-09-23T16:51:52.000Z</time>
      </trkpt>
      <trkpt lat="42.16601" lon="19.697">
        <ele>188.08000183105</ele>
        <time>2024-09-23T16:51:54.000Z</time>
      </trkpt>
      <trkpt lat="42.16599" lon="19.69693">
        <ele>187.58999633789</ele>
        <time>2024-09-23T16:51:55.000Z</time>
      </trkpt>
      <trkpt lat="42.16595" lon="19.69677">
        <ele>187.11000061035</ele>
        <time>2024-09-23T16:51:56.000Z</time>
      </trkpt>
      <trkpt lat="42.16593" lon="19.6967">
        <ele>186.63000488281</ele>
        <time>2024-09-23T16:51:57.000Z</time>
      </trkpt>
      <trkpt lat="42.16588" lon="19.69659">
        <ele>186.14999389648</ele>
        <time>2024-09-23T16:51:58.000Z</time>
      </trkpt>
      <trkpt lat="42.16558" lon="19.69609">
        <ele>183.27000427246</ele>
        <time>2024-09-23T16:52:02.000Z</time>
      </trkpt>
      <trkpt lat="42.16556" lon="19.69604">
        <ele>183.27000427246</ele>
        <time>2024-09-23T16:52:03.000Z</time>
      </trkpt>
      <trkpt lat="42.16548" lon="19.69586">
        <ele>182.78999328613</ele>
        <time>2024-09-23T16:52:04.000Z</time>
      </trkpt>
      <trkpt lat="42.16543" lon="19.69574">
        <ele>182.30999755859</ele>
        <time>2024-09-23T16:52:05.000Z</time>
      </trkpt>
      <trkpt lat="42.16536" lon="19.69559">
        <ele>182.30999755859</ele>
        <time>2024-09-23T16:52:06.000Z</time>
      </trkpt>
      <trkpt lat="42.16534" lon="19.69554">
        <ele>182.30999755859</ele>
        <time>2024-09-23T16:52:07.000Z</time>
      </trkpt>
      <trkpt lat="42.16526" lon="19.69543">
        <ele>183.27000427246</ele>
        <time>2024-09-23T16:52:08.000Z</time>
      </trkpt>
      <trkpt lat="42.16521" lon="19.69535">
        <ele>183.75</ele>
        <time>2024-09-23T16:52:09.000Z</time>
      </trkpt>
      <trkpt lat="42.16515" lon="19.69525">
        <ele>184.22999572754</ele>
        <time>2024-09-23T16:52:10.000Z</time>
      </trkpt>
      <trkpt lat="42.16501" lon="19.69495">
        <ele>184.22999572754</ele>
        <time>2024-09-23T16:52:12.000Z</time>
      </trkpt>
      <trkpt lat="42.16493" lon="19.69476">
        <ele>184.71000671387</ele>
        <time>2024-09-23T16:52:14.000Z</time>
      </trkpt>
      <trkpt lat="42.16489" lon="19.69464">
        <ele>185.19000244141</ele>
        <time>2024-09-23T16:52:15.000Z</time>
      </trkpt>
      <trkpt lat="42.16486" lon="19.69454">
        <ele>185.66999816895</ele>
        <time>2024-09-23T16:52:16.000Z</time>
      </trkpt>
      <trkpt lat="42.16484" lon="19.69445">
        <ele>186.63000488281</ele>
        <time>2024-09-23T16:52:17.000Z</time>
      </trkpt>
      <trkpt lat="42.16483" lon="19.69436">
        <ele>187.58999633789</ele>
        <time>2024-09-23T16:52:18.000Z</time>
      </trkpt>
      <trkpt lat="42.16484" lon="19.69427">
        <ele>188.55999755859</ele>
        <time>2024-09-23T16:52:19.000Z</time>
      </trkpt>
      <trkpt lat="42.16488" lon="19.69419">
        <ele>189.52000427246</ele>
        <time>2024-09-23T16:52:20.000Z</time>
      </trkpt>
      <trkpt lat="42.16493" lon="19.69413">
        <ele>190.96000671387</ele>
        <time>2024-09-23T16:52:21.000Z</time>
      </trkpt>
      <trkpt lat="42.16501" lon="19.69406">
        <ele>191.91999816895</ele>
        <time>2024-09-23T16:52:22.000Z</time>
      </trkpt>
      <trkpt lat="42.16503" lon="19.69403">
        <ele>192.39999389648</ele>
        <time>2024-09-23T16:52:23.000Z</time>
      </trkpt>
      <trkpt lat="42.16508" lon="19.69397">
        <ele>192.88000488281</ele>
        <time>2024-09-23T16:52:24.000Z</time>
      </trkpt>
      <trkpt lat="42.16512" lon="19.69389">
        <ele>193.83999633789</ele>
        <time>2024-09-23T16:52:25.000Z</time>
      </trkpt>
      <trkpt lat="42.16515" lon="19.69382">
        <ele>194.32000732422</ele>
        <time>2024-09-23T16:52:26.000Z</time>
      </trkpt>
      <trkpt lat="42.16518" lon="19.69375">
        <ele>194.80000305176</ele>
        <time>2024-09-23T16:52:27.000Z</time>
      </trkpt>
      <trkpt lat="42.1652" lon="19.69368">
        <ele>195.2799987793</ele>
        <time>2024-09-23T16:52:28.000Z</time>
      </trkpt>
      <trkpt lat="42.1653" lon="19.69328">
        <ele>196.72999572754</ele>
        <time>2024-09-23T16:52:31.000Z</time>
      </trkpt>
      <trkpt lat="42.16538" lon="19.69294">
        <ele>196.25</ele>
        <time>2024-09-23T16:52:33.000Z</time>
      </trkpt>
      <trkpt lat="42.1654" lon="19.69288">
        <ele>195.2799987793</ele>
        <time>2024-09-23T16:52:34.000Z</time>
      </trkpt>
      <trkpt lat="42.16545" lon="19.69273">
        <ele>194.80000305176</ele>
        <time>2024-09-23T16:52:35.000Z</time>
      </trkpt>
      <trkpt lat="42.16551" lon="19.69258">
        <ele>194.80000305176</ele>
        <time>2024-09-23T16:52:36.000Z</time>
      </trkpt>
      <trkpt lat="42.16558" lon="19.69239">
        <ele>194.80000305176</ele>
        <time>2024-09-23T16:52:37.000Z</time>
      </trkpt>
      <trkpt lat="42.16564" lon="19.69216">
        <ele>193.83999633789</ele>
        <time>2024-09-23T16:52:38.000Z</time>
      </trkpt>
      <trkpt lat="42.16564" lon="19.69213">
        <ele>193.83999633789</ele>
        <time>2024-09-23T16:52:39.000Z</time>
      </trkpt>
      <trkpt lat="42.16566" lon="19.69196">
        <ele>193.36000061035</ele>
        <time>2024-09-23T16:52:40.000Z</time>
      </trkpt>
      <trkpt lat="42.16567" lon="19.69166">
        <ele>190.47999572754</ele>
        <time>2024-09-23T16:52:42.000Z</time>
      </trkpt>
      <trkpt lat="42.16566" lon="19.69146">
        <ele>188.55999755859</ele>
        <time>2024-09-23T16:52:43.000Z</time>
      </trkpt>
      <trkpt lat="42.16565" lon="19.69133">
        <ele>187.58999633789</ele>
        <time>2024-09-23T16:52:44.000Z</time>
      </trkpt>
      <trkpt lat="42.16559" lon="19.69096">
        <ele>184.71000671387</ele>
        <time>2024-09-23T16:52:46.000Z</time>
      </trkpt>
      <trkpt lat="42.16552" lon="19.69063">
        <ele>182.78999328613</ele>
        <time>2024-09-23T16:52:47.000Z</time>
      </trkpt>
      <trkpt lat="42.16546" lon="19.69042">
        <ele>181.35000610352</ele>
        <time>2024-09-23T16:52:49.000Z</time>
      </trkpt>
      <trkpt lat="42.16539" lon="19.69019">
        <ele>179.89999389648</ele>
        <time>2024-09-23T16:52:50.000Z</time>
      </trkpt>
      <trkpt lat="42.16534" lon="19.69002">
        <ele>179.41999816895</ele>
        <time>2024-09-23T16:52:51.000Z</time>
      </trkpt>
      <trkpt lat="42.16533" lon="19.68997">
        <ele>178.94000244141</ele>
        <time>2024-09-23T16:52:52.000Z</time>
      </trkpt>
      <trkpt lat="42.16532" lon="19.68984">
        <ele>177.97999572754</ele>
        <time>2024-09-23T16:52:53.000Z</time>
      </trkpt>
      <trkpt lat="42.16534" lon="19.68973">
        <ele>177.97999572754</ele>
        <time>2024-09-23T16:52:54.000Z</time>
      </trkpt>
      <trkpt lat="42.16539" lon="19.68962">
        <ele>177.97999572754</ele>
        <time>2024-09-23T16:52:55.000Z</time>
      </trkpt>
      <trkpt lat="42.16548" lon="19.68947">
        <ele>177.97999572754</ele>
        <time>2024-09-23T16:52:56.000Z</time>
      </trkpt>
      <trkpt lat="42.16567" lon="19.6892">
        <ele>178.46000671387</ele>
        <time>2024-09-23T16:52:59.000Z</time>
      </trkpt>
      <trkpt lat="42.16571" lon="19.68908">
        <ele>178.94000244141</ele>
        <time>2024-09-23T16:53:00.000Z</time>
      </trkpt>
      <trkpt lat="42.16571" lon="19.68899">
        <ele>178.94000244141</ele>
        <time>2024-09-23T16:53:01.000Z</time>
      </trkpt>
      <trkpt lat="42.16567" lon="19.68889">
        <ele>178.94000244141</ele>
        <time>2024-09-23T16:53:02.000Z</time>
      </trkpt>
      <trkpt lat="42.16562" lon="19.68884">
        <ele>179.41999816895</ele>
        <time>2024-09-23T16:53:03.000Z</time>
      </trkpt>
      <trkpt lat="42.16554" lon="19.68882">
        <ele>179.41999816895</ele>
        <time>2024-09-23T16:53:04.000Z</time>
      </trkpt>
      <trkpt lat="42.16536" lon="19.68884">
        <ele>177.97999572754</ele>
        <time>2024-09-23T16:53:05.000Z</time>
      </trkpt>
      <trkpt lat="42.16521" lon="19.68884">
        <ele>177.97999572754</ele>
        <time>2024-09-23T16:53:07.000Z</time>
      </trkpt>
      <trkpt lat="42.16511" lon="19.68885">
        <ele>177.5</ele>
        <time>2024-09-23T16:53:08.000Z</time>
      </trkpt>
      <trkpt lat="42.16508" lon="19.68885">
        <ele>177.02000427246</ele>
        <time>2024-09-23T16:53:09.000Z</time>
      </trkpt>
      <trkpt lat="42.165" lon="19.68884">
        <ele>177.02000427246</ele>
        <time>2024-09-23T16:53:10.000Z</time>
      </trkpt>
      <trkpt lat="42.16493" lon="19.6888">
        <ele>176.53999328613</ele>
        <time>2024-09-23T16:53:11.000Z</time>
      </trkpt>
      <trkpt lat="42.16482" lon="19.6887">
        <ele>176.05999755859</ele>
        <time>2024-09-23T16:53:12.000Z</time>
      </trkpt>
      <trkpt lat="42.16478" lon="19.68867">
        <ele>176.05999755859</ele>
        <time>2024-09-23T16:53:13.000Z</time>
      </trkpt>
      <trkpt lat="42.16468" lon="19.68857">
        <ele>175.58000183105</ele>
        <time>2024-09-23T16:53:14.000Z</time>
      </trkpt>
      <trkpt lat="42.16455" lon="19.68842">
        <ele>175.10000610352</ele>
        <time>2024-09-23T16:53:15.000Z</time>
      </trkpt>
      <trkpt lat="42.16452" lon="19.68838">
        <ele>174.61999511719</ele>
        <time>2024-09-23T16:53:16.000Z</time>
      </trkpt>
      <trkpt lat="42.1644" lon="19.68827">
        <ele>174.13999938965</ele>
        <time>2024-09-23T16:53:17.000Z</time>
      </trkpt>
      <trkpt lat="42.16432" lon="19.68821">
        <ele>174.13999938965</ele>
        <time>2024-09-23T16:53:18.000Z</time>
      </trkpt>
      <trkpt lat="42.16423" lon="19.68814">
        <ele>173.66000366211</ele>
        <time>2024-09-23T16:53:19.000Z</time>
      </trkpt>
      <trkpt lat="42.16415" lon="19.68806">
        <ele>173.16999816895</ele>
        <time>2024-09-23T16:53:20.000Z</time>
      </trkpt>
      <trkpt lat="42.1641" lon="19.68795">
        <ele>172.69000244141</ele>
        <time>2024-09-23T16:53:21.000Z</time>
      </trkpt>
      <trkpt lat="42.16404" lon="19.68781">
        <ele>172.69000244141</ele>
        <time>2024-09-23T16:53:22.000Z</time>
      </trkpt>
      <trkpt lat="42.16398" lon="19.68769">
        <ele>172.21000671387</ele>
        <time>2024-09-23T16:53:23.000Z</time>
      </trkpt>
      <trkpt lat="42.16393" lon="19.68753">
        <ele>172.21000671387</ele>
        <time>2024-09-23T16:53:24.000Z</time>
      </trkpt>
      <trkpt lat="42.16388" lon="19.68728">
        <ele>172.69000244141</ele>
        <time>2024-09-23T16:53:25.000Z</time>
      </trkpt>
      <trkpt lat="42.16387" lon="19.68722">
        <ele>172.69000244141</ele>
        <time>2024-09-23T16:53:26.000Z</time>
      </trkpt>
      <trkpt lat="42.16386" lon="19.68702">
        <ele>172.69000244141</ele>
        <time>2024-09-23T16:53:27.000Z</time>
      </trkpt>
      <trkpt lat="42.16386" lon="19.68657">
        <ele>169.33000183105</ele>
        <time>2024-09-23T16:53:30.000Z</time>
      </trkpt>
      <trkpt lat="42.16386" lon="19.68604">
        <ele>164.52000427246</ele>
        <time>2024-09-23T16:53:32.000Z</time>
      </trkpt>
      <trkpt lat="42.16386" lon="19.686">
        <ele>164.03999328613</ele>
        <time>2024-09-23T16:53:33.000Z</time>
      </trkpt>
      <trkpt lat="42.16388" lon="19.68581">
        <ele>163.08000183105</ele>
        <time>2024-09-23T16:53:34.000Z</time>
      </trkpt>
      <trkpt lat="42.1639" lon="19.68551">
        <ele>162.11999511719</ele>
        <time>2024-09-23T16:53:35.000Z</time>
      </trkpt>
      <trkpt lat="42.1639" lon="19.68542">
        <ele>162.11999511719</ele>
        <time>2024-09-23T16:53:36.000Z</time>
      </trkpt>
      <trkpt lat="42.16389" lon="19.68526">
        <ele>161.16000366211</ele>
        <time>2024-09-23T16:53:37.000Z</time>
      </trkpt>
      <trkpt lat="42.16388" lon="19.68496">
        <ele>160.19999694824</ele>
        <time>2024-09-23T16:53:38.000Z</time>
      </trkpt>
      <trkpt lat="42.16388" lon="19.68466">
        <ele>159.7200012207</ele>
        <time>2024-09-23T16:53:40.000Z</time>
      </trkpt>
      <trkpt lat="42.16387" lon="19.68452">
        <ele>159.7200012207</ele>
        <time>2024-09-23T16:53:41.000Z</time>
      </trkpt>
      <trkpt lat="42.16385" lon="19.68435">
        <ele>159.7200012207</ele>
        <time>2024-09-23T16:53:42.000Z</time>
      </trkpt>
      <trkpt lat="42.16378" lon="19.68407">
        <ele>159.7200012207</ele>
        <time>2024-09-23T16:53:43.000Z</time>
      </trkpt>
      <trkpt lat="42.16373" lon="19.6839">
        <ele>159.7200012207</ele>
        <time>2024-09-23T16:53:44.000Z</time>
      </trkpt>
      <trkpt lat="42.16363" lon="19.68358">
        <ele>159.24000549316</ele>
        <time>2024-09-23T16:53:46.000Z</time>
      </trkpt>
      <trkpt lat="42.16357" lon="19.68341">
        <ele>158.75</ele>
        <time>2024-09-23T16:53:47.000Z</time>
      </trkpt>
      <trkpt lat="42.16351" lon="19.68316">
        <ele>158.75</ele>
        <time>2024-09-23T16:53:49.000Z</time>
      </trkpt>
      <trkpt lat="42.16346" lon="19.68294">
        <ele>159.24000549316</ele>
        <time>2024-09-23T16:53:50.000Z</time>
      </trkpt>
      <trkpt lat="42.16342" lon="19.68268">
        <ele>159.7200012207</ele>
        <time>2024-09-23T16:53:51.000Z</time>
      </trkpt>
      <trkpt lat="42.16323" lon="19.68151">
        <ele>161.16000366211</ele>
        <time>2024-09-23T16:53:58.000Z</time>
      </trkpt>
      <trkpt lat="42.16308" lon="19.68087">
        <ele>157.78999328613</ele>
        <time>2024-09-23T16:54:01.000Z</time>
      </trkpt>
      <trkpt lat="42.16307" lon="19.68079">
        <ele>157.78999328613</ele>
        <time>2024-09-23T16:54:02.000Z</time>
      </trkpt>
      <trkpt lat="42.16305" lon="19.68059">
        <ele>157.30999755859</ele>
        <time>2024-09-23T16:54:03.000Z</time>
      </trkpt>
      <trkpt lat="42.16305" lon="19.68035">
        <ele>157.30999755859</ele>
        <time>2024-09-23T16:54:04.000Z</time>
      </trkpt>
      <trkpt lat="42.16305" lon="19.68022">
        <ele>157.30999755859</ele>
        <time>2024-09-23T16:54:05.000Z</time>
      </trkpt>
      <trkpt lat="42.16291" lon="19.67836">
        <ele>156.35000610352</ele>
        <time>2024-09-23T16:54:13.000Z</time>
      </trkpt>
      <trkpt lat="42.1629" lon="19.67832">
        <ele>156.35000610352</ele>
        <time>2024-09-23T16:54:14.000Z</time>
      </trkpt>
      <trkpt lat="42.16284" lon="19.67791">
        <ele>155.86999511719</ele>
        <time>2024-09-23T16:54:16.000Z</time>
      </trkpt>
      <trkpt lat="42.16282" lon="19.67775">
        <ele>156.35000610352</ele>
        <time>2024-09-23T16:54:17.000Z</time>
      </trkpt>
      <trkpt lat="42.16279" lon="19.67759">
        <ele>156.83000183105</ele>
        <time>2024-09-23T16:54:18.000Z</time>
      </trkpt>
      <trkpt lat="42.16275" lon="19.67746">
        <ele>156.83000183105</ele>
        <time>2024-09-23T16:54:19.000Z</time>
      </trkpt>
      <trkpt lat="42.16267" lon="19.67734">
        <ele>157.30999755859</ele>
        <time>2024-09-23T16:54:20.000Z</time>
      </trkpt>
      <trkpt lat="42.16256" lon="19.67721">
        <ele>157.30999755859</ele>
        <time>2024-09-23T16:54:21.000Z</time>
      </trkpt>
      <trkpt lat="42.16244" lon="19.67711">
        <ele>156.83000183105</ele>
        <time>2024-09-23T16:54:22.000Z</time>
      </trkpt>
      <trkpt lat="42.16227" lon="19.67701">
        <ele>156.83000183105</ele>
        <time>2024-09-23T16:54:23.000Z</time>
      </trkpt>
      <trkpt lat="42.1622" lon="19.67696">
        <ele>157.30999755859</ele>
        <time>2024-09-23T16:54:24.000Z</time>
      </trkpt>
      <trkpt lat="42.16158" lon="19.67622">
        <ele>155.38999938965</ele>
        <time>2024-09-23T16:54:29.000Z</time>
      </trkpt>
      <trkpt lat="42.16147" lon="19.67608">
        <ele>155.86999511719</ele>
        <time>2024-09-23T16:54:30.000Z</time>
      </trkpt>
      <trkpt lat="42.1614" lon="19.67601">
        <ele>156.35000610352</ele>
        <time>2024-09-23T16:54:31.000Z</time>
      </trkpt>
      <trkpt lat="42.16132" lon="19.67592">
        <ele>157.78999328613</ele>
        <time>2024-09-23T16:54:32.000Z</time>
      </trkpt>
      <trkpt lat="42.1612" lon="19.67586">
        <ele>159.24000549316</ele>
        <time>2024-09-23T16:54:33.000Z</time>
      </trkpt>
      <trkpt lat="42.16108" lon="19.67581">
        <ele>160.19999694824</ele>
        <time>2024-09-23T16:54:34.000Z</time>
      </trkpt>
      <trkpt lat="42.16101" lon="19.67577">
        <ele>160.67999267578</ele>
        <time>2024-09-23T16:54:35.000Z</time>
      </trkpt>
      <trkpt lat="42.16092" lon="19.67568">
        <ele>160.19999694824</ele>
        <time>2024-09-23T16:54:36.000Z</time>
      </trkpt>
      <trkpt lat="42.16084" lon="19.67557">
        <ele>158.27000427246</ele>
        <time>2024-09-23T16:54:37.000Z</time>
      </trkpt>
      <trkpt lat="42.16079" lon="19.67547">
        <ele>157.30999755859</ele>
        <time>2024-09-23T16:54:38.000Z</time>
      </trkpt>
      <trkpt lat="42.16076" lon="19.67536">
        <ele>156.83000183105</ele>
        <time>2024-09-23T16:54:39.000Z</time>
      </trkpt>
      <trkpt lat="42.16074" lon="19.67522">
        <ele>156.35000610352</ele>
        <time>2024-09-23T16:54:40.000Z</time>
      </trkpt>
      <trkpt lat="42.16074" lon="19.67509">
        <ele>155.38999938965</ele>
        <time>2024-09-23T16:54:41.000Z</time>
      </trkpt>
      <trkpt lat="42.16072" lon="19.67489">
        <ele>154.42999267578</ele>
        <time>2024-09-23T16:54:42.000Z</time>
      </trkpt>
      <trkpt lat="42.16069" lon="19.67475">
        <ele>154.42999267578</ele>
        <time>2024-09-23T16:54:43.000Z</time>
      </trkpt>
      <trkpt lat="42.16064" lon="19.67461">
        <ele>153.94999694824</ele>
        <time>2024-09-23T16:54:44.000Z</time>
      </trkpt>
      <trkpt lat="42.16055" lon="19.6744">
        <ele>153.4700012207</ele>
        <time>2024-09-23T16:54:45.000Z</time>
      </trkpt>
      <trkpt lat="42.16052" lon="19.67431">
        <ele>153.4700012207</ele>
        <time>2024-09-23T16:54:46.000Z</time>
      </trkpt>
      <trkpt lat="42.16047" lon="19.67418">
        <ele>152.50999450684</ele>
        <time>2024-09-23T16:54:47.000Z</time>
      </trkpt>
      <trkpt lat="42.16039" lon="19.67391">
        <ele>151.53999328613</ele>
        <time>2024-09-23T16:54:49.000Z</time>
      </trkpt>
      <trkpt lat="42.16031" lon="19.67373">
        <ele>151.53999328613</ele>
        <time>2024-09-23T16:54:50.000Z</time>
      </trkpt>
      <trkpt lat="42.16027" lon="19.67365">
        <ele>151.53999328613</ele>
        <time>2024-09-23T16:54:51.000Z</time>
      </trkpt>
      <trkpt lat="42.16019" lon="19.67352">
        <ele>150.10000610352</ele>
        <time>2024-09-23T16:54:52.000Z</time>
      </trkpt>
      <trkpt lat="42.1601" lon="19.67339">
        <ele>149.13999938965</ele>
        <time>2024-09-23T16:54:53.000Z</time>
      </trkpt>
      <trkpt lat="42.15998" lon="19.67324">
        <ele>147.69999694824</ele>
        <time>2024-09-23T16:54:54.000Z</time>
      </trkpt>
      <trkpt lat="42.15988" lon="19.67313">
        <ele>147.2200012207</ele>
        <time>2024-09-23T16:54:55.000Z</time>
      </trkpt>
      <trkpt lat="42.15977" lon="19.67302">
        <ele>146.25999450684</ele>
        <time>2024-09-23T16:54:56.000Z</time>
      </trkpt>
      <trkpt lat="42.15964" lon="19.67293">
        <ele>146.74000549316</ele>
        <time>2024-09-23T16:54:57.000Z</time>
      </trkpt>
      <trkpt lat="42.15949" lon="19.67284">
        <ele>146.74000549316</ele>
        <time>2024-09-23T16:54:58.000Z</time>
      </trkpt>
      <trkpt lat="42.15923" lon="19.67272">
        <ele>146.25999450684</ele>
        <time>2024-09-23T16:55:00.000Z</time>
      </trkpt>
      <trkpt lat="42.15909" lon="19.67267">
        <ele>146.74000549316</ele>
        <time>2024-09-23T16:55:01.000Z</time>
      </trkpt>
      <trkpt lat="42.15898" lon="19.67264">
        <ele>147.2200012207</ele>
        <time>2024-09-23T16:55:02.000Z</time>
      </trkpt>
      <trkpt lat="42.15779" lon="19.67242">
        <ele>149.13999938965</ele>
        <time>2024-09-23T16:55:10.000Z</time>
      </trkpt>
      <trkpt lat="42.15764" lon="19.67238">
        <ele>149.61999511719</ele>
        <time>2024-09-23T16:55:11.000Z</time>
      </trkpt>
      <trkpt lat="42.15754" lon="19.67234">
        <ele>149.61999511719</ele>
        <time>2024-09-23T16:55:12.000Z</time>
      </trkpt>
      <trkpt lat="42.15742" lon="19.67229">
        <ele>150.10000610352</ele>
        <time>2024-09-23T16:55:13.000Z</time>
      </trkpt>
      <trkpt lat="42.1573" lon="19.6722">
        <ele>150.58000183105</ele>
        <time>2024-09-23T16:55:14.000Z</time>
      </trkpt>
      <trkpt lat="42.15722" lon="19.67212">
        <ele>151.53999328613</ele>
        <time>2024-09-23T16:55:15.000Z</time>
      </trkpt>
      <trkpt lat="42.15714" lon="19.67202">
        <ele>152.50999450684</ele>
        <time>2024-09-23T16:55:16.000Z</time>
      </trkpt>
      <trkpt lat="42.15707" lon="19.6719">
        <ele>153.94999694824</ele>
        <time>2024-09-23T16:55:17.000Z</time>
      </trkpt>
      <trkpt lat="42.157" lon="19.67175">
        <ele>155.38999938965</ele>
        <time>2024-09-23T16:55:18.000Z</time>
      </trkpt>
      <trkpt lat="42.15691" lon="19.67162">
        <ele>156.83000183105</ele>
        <time>2024-09-23T16:55:19.000Z</time>
      </trkpt>
      <trkpt lat="42.15686" lon="19.67153">
        <ele>156.83000183105</ele>
        <time>2024-09-23T16:55:20.000Z</time>
      </trkpt>
      <trkpt lat="42.15681" lon="19.6714">
        <ele>156.35000610352</ele>
        <time>2024-09-23T16:55:21.000Z</time>
      </trkpt>
      <trkpt lat="42.15672" lon="19.67125">
        <ele>155.38999938965</ele>
        <time>2024-09-23T16:55:22.000Z</time>
      </trkpt>
      <trkpt lat="42.15647" lon="19.67078">
        <ele>152.99000549316</ele>
        <time>2024-09-23T16:55:25.000Z</time>
      </trkpt>
      <trkpt lat="42.15639" lon="19.67063">
        <ele>152.0299987793</ele>
        <time>2024-09-23T16:55:26.000Z</time>
      </trkpt>
      <trkpt lat="42.15618" lon="19.67034">
        <ele>151.53999328613</ele>
        <time>2024-09-23T16:55:28.000Z</time>
      </trkpt>
      <trkpt lat="42.15596" lon="19.67002">
        <ele>150.10000610352</ele>
        <time>2024-09-23T16:55:31.000Z</time>
      </trkpt>
      <trkpt lat="42.15569" lon="19.66961">
        <ele>147.69999694824</ele>
        <time>2024-09-23T16:55:33.000Z</time>
      </trkpt>
      <trkpt lat="42.15556" lon="19.66941">
        <ele>147.2200012207</ele>
        <time>2024-09-23T16:55:35.000Z</time>
      </trkpt>
      <trkpt lat="42.15533" lon="19.66906">
        <ele>146.25999450684</ele>
        <time>2024-09-23T16:55:37.000Z</time>
      </trkpt>
      <trkpt lat="42.15525" lon="19.66896">
        <ele>145.7799987793</ele>
        <time>2024-09-23T16:55:38.000Z</time>
      </trkpt>
      <trkpt lat="42.15517" lon="19.66886">
        <ele>145.7799987793</ele>
        <time>2024-09-23T16:55:39.000Z</time>
      </trkpt>
      <trkpt lat="42.15506" lon="19.66876">
        <ele>145.7799987793</ele>
        <time>2024-09-23T16:55:40.000Z</time>
      </trkpt>
      <trkpt lat="42.15476" lon="19.66849">
        <ele>145.30000305176</ele>
        <time>2024-09-23T16:55:42.000Z</time>
      </trkpt>
      <trkpt lat="42.15474" lon="19.66847">
        <ele>145.30000305176</ele>
        <time>2024-09-23T16:55:43.000Z</time>
      </trkpt>
      <trkpt lat="42.15466" lon="19.66837">
        <ele>145.7799987793</ele>
        <time>2024-09-23T16:55:44.000Z</time>
      </trkpt>
      <trkpt lat="42.15455" lon="19.66819">
        <ele>146.25999450684</ele>
        <time>2024-09-23T16:55:45.000Z</time>
      </trkpt>
      <trkpt lat="42.15449" lon="19.6681">
        <ele>146.25999450684</ele>
        <time>2024-09-23T16:55:46.000Z</time>
      </trkpt>
      <trkpt lat="42.15435" lon="19.66792">
        <ele>146.74000549316</ele>
        <time>2024-09-23T16:55:47.000Z</time>
      </trkpt>
      <trkpt lat="42.1542" lon="19.66771">
        <ele>147.2200012207</ele>
        <time>2024-09-23T16:55:48.000Z</time>
      </trkpt>
      <trkpt lat="42.15415" lon="19.66764">
        <ele>147.2200012207</ele>
        <time>2024-09-23T16:55:49.000Z</time>
      </trkpt>
      <trkpt lat="42.15374" lon="19.66711">
        <ele>149.13999938965</ele>
        <time>2024-09-23T16:55:53.000Z</time>
      </trkpt>
      <trkpt lat="42.15363" lon="19.66696">
        <ele>150.10000610352</ele>
        <time>2024-09-23T16:55:54.000Z</time>
      </trkpt>
      <trkpt lat="42.1536" lon="19.66692">
        <ele>150.58000183105</ele>
        <time>2024-09-23T16:55:55.000Z</time>
      </trkpt>
      <trkpt lat="42.15349" lon="19.66685">
        <ele>151.53999328613</ele>
        <time>2024-09-23T16:55:56.000Z</time>
      </trkpt>
      <trkpt lat="42.1533" lon="19.66675">
        <ele>152.50999450684</ele>
        <time>2024-09-23T16:55:57.000Z</time>
      </trkpt>
      <trkpt lat="42.15326" lon="19.66672">
        <ele>152.99000549316</ele>
        <time>2024-09-23T16:55:58.000Z</time>
      </trkpt>
      <trkpt lat="42.15316" lon="19.66669">
        <ele>152.99000549316</ele>
        <time>2024-09-23T16:55:59.000Z</time>
      </trkpt>
      <trkpt lat="42.15305" lon="19.66669">
        <ele>153.94999694824</ele>
        <time>2024-09-23T16:56:00.000Z</time>
      </trkpt>
      <trkpt lat="42.15298" lon="19.66667">
        <ele>153.4700012207</ele>
        <time>2024-09-23T16:56:01.000Z</time>
      </trkpt>
      <trkpt lat="42.15291" lon="19.66662">
        <ele>153.4700012207</ele>
        <time>2024-09-23T16:56:02.000Z</time>
      </trkpt>
      <trkpt lat="42.15285" lon="19.66654">
        <ele>152.99000549316</ele>
        <time>2024-09-23T16:56:03.000Z</time>
      </trkpt>
      <trkpt lat="42.15277" lon="19.66644">
        <ele>152.0299987793</ele>
        <time>2024-09-23T16:56:04.000Z</time>
      </trkpt>
      <trkpt lat="42.15273" lon="19.66641">
        <ele>151.53999328613</ele>
        <time>2024-09-23T16:56:05.000Z</time>
      </trkpt>
      <trkpt lat="42.15266" lon="19.66635">
        <ele>151.53999328613</ele>
        <time>2024-09-23T16:56:06.000Z</time>
      </trkpt>
      <trkpt lat="42.1525" lon="19.66622">
        <ele>150.58000183105</ele>
        <time>2024-09-23T16:56:08.000Z</time>
      </trkpt>
      <trkpt lat="42.15245" lon="19.66618">
        <ele>150.10000610352</ele>
        <time>2024-09-23T16:56:09.000Z</time>
      </trkpt>
      <trkpt lat="42.15238" lon="19.66608">
        <ele>150.10000610352</ele>
        <time>2024-09-23T16:56:10.000Z</time>
      </trkpt>
      <trkpt lat="42.15225" lon="19.66588">
        <ele>149.61999511719</ele>
        <time>2024-09-23T16:56:12.000Z</time>
      </trkpt>
      <trkpt lat="42.15214" lon="19.66574">
        <ele>148.66000366211</ele>
        <time>2024-09-23T16:56:13.000Z</time>
      </trkpt>
      <trkpt lat="42.15208" lon="19.66567">
        <ele>148.17999267578</ele>
        <time>2024-09-23T16:56:14.000Z</time>
      </trkpt>
      <trkpt lat="42.15198" lon="19.66558">
        <ele>147.69999694824</ele>
        <time>2024-09-23T16:56:15.000Z</time>
      </trkpt>
      <trkpt lat="42.15175" lon="19.66539">
        <ele>145.7799987793</ele>
        <time>2024-09-23T16:56:17.000Z</time>
      </trkpt>
      <trkpt lat="42.15142" lon="19.66511">
        <ele>142.88999938965</ele>
        <time>2024-09-23T16:56:20.000Z</time>
      </trkpt>
      <trkpt lat="42.15131" lon="19.66499">
        <ele>142.41000366211</ele>
        <time>2024-09-23T16:56:21.000Z</time>
      </trkpt>
      <trkpt lat="42.15122" lon="19.66489">
        <ele>141.92999267578</ele>
        <time>2024-09-23T16:56:22.000Z</time>
      </trkpt>
      <trkpt lat="42.15115" lon="19.6648">
        <ele>141.92999267578</ele>
        <time>2024-09-23T16:56:23.000Z</time>
      </trkpt>
      <trkpt lat="42.15065" lon="19.66407">
        <ele>140.9700012207</ele>
        <time>2024-09-23T16:56:29.000Z</time>
      </trkpt>
      <trkpt lat="42.15049" lon="19.66382">
        <ele>140.49000549316</ele>
        <time>2024-09-23T16:56:30.000Z</time>
      </trkpt>
      <trkpt lat="42.15043" lon="19.66372">
        <ele>140.00999450684</ele>
        <time>2024-09-23T16:56:31.000Z</time>
      </trkpt>
      <trkpt lat="42.15034" lon="19.66359">
        <ele>139.5299987793</ele>
        <time>2024-09-23T16:56:32.000Z</time>
      </trkpt>
      <trkpt lat="42.15027" lon="19.6635">
        <ele>139.5299987793</ele>
        <time>2024-09-23T16:56:33.000Z</time>
      </trkpt>
      <trkpt lat="42.15017" lon="19.66341">
        <ele>139.5299987793</ele>
        <time>2024-09-23T16:56:34.000Z</time>
      </trkpt>
      <trkpt lat="42.15006" lon="19.66333">
        <ele>139.05000305176</ele>
        <time>2024-09-23T16:56:35.000Z</time>
      </trkpt>
      <trkpt lat="42.15" lon="19.66327">
        <ele>138.57000732422</ele>
        <time>2024-09-23T16:56:36.000Z</time>
      </trkpt>
      <trkpt lat="42.14993" lon="19.66318">
        <ele>138.08999633789</ele>
        <time>2024-09-23T16:56:37.000Z</time>
      </trkpt>
      <trkpt lat="42.14985" lon="19.66299">
        <ele>136.63999938965</ele>
        <time>2024-09-23T16:56:38.000Z</time>
      </trkpt>
      <trkpt lat="42.14943" lon="19.66204">
        <ele>131.36000061035</ele>
        <time>2024-09-23T16:56:44.000Z</time>
      </trkpt>
      <trkpt lat="42.14934" lon="19.66185">
        <ele>129.91999816895</ele>
        <time>2024-09-23T16:56:45.000Z</time>
      </trkpt>
      <trkpt lat="42.14917" lon="19.66146">
        <ele>127.98999786377</ele>
        <time>2024-09-23T16:56:48.000Z</time>
      </trkpt>
      <trkpt lat="42.14913" lon="19.66136">
        <ele>127.51000213623</ele>
        <time>2024-09-23T16:56:49.000Z</time>
      </trkpt>
      <trkpt lat="42.14909" lon="19.6612">
        <ele>127.0299987793</ele>
        <time>2024-09-23T16:56:50.000Z</time>
      </trkpt>
      <trkpt lat="42.14906" lon="19.66105">
        <ele>126.55000305176</ele>
        <time>2024-09-23T16:56:51.000Z</time>
      </trkpt>
      <trkpt lat="42.14906" lon="19.66083">
        <ele>126.55000305176</ele>
        <time>2024-09-23T16:56:52.000Z</time>
      </trkpt>
      <trkpt lat="42.14905" lon="19.66075">
        <ele>127.0299987793</ele>
        <time>2024-09-23T16:56:53.000Z</time>
      </trkpt>
      <trkpt lat="42.14903" lon="19.66062">
        <ele>127.0299987793</ele>
        <time>2024-09-23T16:56:54.000Z</time>
      </trkpt>
      <trkpt lat="42.14899" lon="19.66054">
        <ele>127.51000213623</ele>
        <time>2024-09-23T16:56:55.000Z</time>
      </trkpt>
      <trkpt lat="42.14891" lon="19.66047">
        <ele>127.98999786377</ele>
        <time>2024-09-23T16:56:56.000Z</time>
      </trkpt>
      <trkpt lat="42.14881" lon="19.66044">
        <ele>127.98999786377</ele>
        <time>2024-09-23T16:56:57.000Z</time>
      </trkpt>
      <trkpt lat="42.14869" lon="19.66042">
        <ele>128.4700012207</ele>
        <time>2024-09-23T16:56:58.000Z</time>
      </trkpt>
      <trkpt lat="42.1486" lon="19.66038">
        <ele>128.4700012207</ele>
        <time>2024-09-23T16:56:59.000Z</time>
      </trkpt>
      <trkpt lat="42.1485" lon="19.66033">
        <ele>128.94999694824</ele>
        <time>2024-09-23T16:57:00.000Z</time>
      </trkpt>
      <trkpt lat="42.14841" lon="19.66026">
        <ele>129.91999816895</ele>
        <time>2024-09-23T16:57:01.000Z</time>
      </trkpt>
      <trkpt lat="42.14834" lon="19.66018">
        <ele>130.88000488281</ele>
        <time>2024-09-23T16:57:02.000Z</time>
      </trkpt>
      <trkpt lat="42.14828" lon="19.66011">
        <ele>130.88000488281</ele>
        <time>2024-09-23T16:57:03.000Z</time>
      </trkpt>
      <trkpt lat="42.1482" lon="19.65998">
        <ele>131.36000061035</ele>
        <time>2024-09-23T16:57:04.000Z</time>
      </trkpt>
      <trkpt lat="42.14801" lon="19.65964">
        <ele>131.36000061035</ele>
        <time>2024-09-23T16:57:08.000Z</time>
      </trkpt>
      <trkpt lat="42.14795" lon="19.65953">
        <ele>130.88000488281</ele>
        <time>2024-09-23T16:57:09.000Z</time>
      </trkpt>
      <trkpt lat="42.14779" lon="19.65921">
        <ele>130.39999389648</ele>
        <time>2024-09-23T16:57:11.000Z</time>
      </trkpt>
      <trkpt lat="42.14755" lon="19.65869">
        <ele>131.83999633789</ele>
        <time>2024-09-23T16:57:16.000Z</time>
      </trkpt>
      <trkpt lat="42.14746" lon="19.65854">
        <ele>132.32000732422</ele>
        <time>2024-09-23T16:57:17.000Z</time>
      </trkpt>
      <trkpt lat="42.14732" lon="19.65829">
        <ele>132.32000732422</ele>
        <time>2024-09-23T16:57:20.000Z</time>
      </trkpt>
      <trkpt lat="42.14722" lon="19.65812">
        <ele>132.80000305176</ele>
        <time>2024-09-23T16:57:21.000Z</time>
      </trkpt>
      <trkpt lat="42.14718" lon="19.65805">
        <ele>133.2799987793</ele>
        <time>2024-09-23T16:57:22.000Z</time>
      </trkpt>
      <trkpt lat="42.14712" lon="19.65796">
        <ele>133.2799987793</ele>
        <time>2024-09-23T16:57:23.000Z</time>
      </trkpt>
      <trkpt lat="42.14705" lon="19.65787">
        <ele>133.75999450684</ele>
        <time>2024-09-23T16:57:24.000Z</time>
      </trkpt>
      <trkpt lat="42.14696" lon="19.65779">
        <ele>134.24000549316</ele>
        <time>2024-09-23T16:57:25.000Z</time>
      </trkpt>
      <trkpt lat="42.14685" lon="19.65774">
        <ele>134.7200012207</ele>
        <time>2024-09-23T16:57:26.000Z</time>
      </trkpt>
      <trkpt lat="42.14676" lon="19.65771">
        <ele>134.7200012207</ele>
        <time>2024-09-23T16:57:27.000Z</time>
      </trkpt>
      <trkpt lat="42.14662" lon="19.65766">
        <ele>134.7200012207</ele>
        <time>2024-09-23T16:57:28.000Z</time>
      </trkpt>
      <trkpt lat="42.1465" lon="19.65761">
        <ele>135.67999267578</ele>
        <time>2024-09-23T16:57:29.000Z</time>
      </trkpt>
      <trkpt lat="42.14642" lon="19.65757">
        <ele>136.16000366211</ele>
        <time>2024-09-23T16:57:30.000Z</time>
      </trkpt>
      <trkpt lat="42.14634" lon="19.65752">
        <ele>137.13000488281</ele>
        <time>2024-09-23T16:57:31.000Z</time>
      </trkpt>
      <trkpt lat="42.14619" lon="19.65741">
        <ele>138.08999633789</ele>
        <time>2024-09-23T16:57:33.000Z</time>
      </trkpt>
      <trkpt lat="42.14609" lon="19.65732">
        <ele>138.57000732422</ele>
        <time>2024-09-23T16:57:34.000Z</time>
      </trkpt>
      <trkpt lat="42.14578" lon="19.65693">
        <ele>140.9700012207</ele>
        <time>2024-09-23T16:57:38.000Z</time>
      </trkpt>
      <trkpt lat="42.14573" lon="19.65684">
        <ele>140.9700012207</ele>
        <time>2024-09-23T16:57:39.000Z</time>
      </trkpt>
      <trkpt lat="42.14567" lon="19.65666">
        <ele>140.49000549316</ele>
        <time>2024-09-23T16:57:40.000Z</time>
      </trkpt>
      <trkpt lat="42.14562" lon="19.65648">
        <ele>140.49000549316</ele>
        <time>2024-09-23T16:57:41.000Z</time>
      </trkpt>
      <trkpt lat="42.14559" lon="19.65637">
        <ele>140.00999450684</ele>
        <time>2024-09-23T16:57:42.000Z</time>
      </trkpt>
      <trkpt lat="42.14555" lon="19.65626">
        <ele>139.5299987793</ele>
        <time>2024-09-23T16:57:43.000Z</time>
      </trkpt>
      <trkpt lat="42.14546" lon="19.65605">
        <ele>139.5299987793</ele>
        <time>2024-09-23T16:57:44.000Z</time>
      </trkpt>
      <trkpt lat="42.14513" lon="19.65543">
        <ele>139.5299987793</ele>
        <time>2024-09-23T16:57:48.000Z</time>
      </trkpt>
      <trkpt lat="42.14506" lon="19.6553">
        <ele>139.5299987793</ele>
        <time>2024-09-23T16:57:49.000Z</time>
      </trkpt>
      <trkpt lat="42.14498" lon="19.65517">
        <ele>140.00999450684</ele>
        <time>2024-09-23T16:57:50.000Z</time>
      </trkpt>
      <trkpt lat="42.1448" lon="19.65493">
        <ele>140.9700012207</ele>
        <time>2024-09-23T16:57:52.000Z</time>
      </trkpt>
      <trkpt lat="42.14472" lon="19.65481">
        <ele>140.9700012207</ele>
        <time>2024-09-23T16:57:53.000Z</time>
      </trkpt>
      <trkpt lat="42.14458" lon="19.65454">
        <ele>139.05000305176</ele>
        <time>2024-09-23T16:57:54.000Z</time>
      </trkpt>
      <trkpt lat="42.14457" lon="19.65451">
        <ele>138.57000732422</ele>
        <time>2024-09-23T16:57:55.000Z</time>
      </trkpt>
      <trkpt lat="42.14449" lon="19.65438">
        <ele>137.61000061035</ele>
        <time>2024-09-23T16:57:56.000Z</time>
      </trkpt>
      <trkpt lat="42.14399" lon="19.65376">
        <ele>133.75999450684</ele>
        <time>2024-09-23T16:58:00.000Z</time>
      </trkpt>
      <trkpt lat="42.14394" lon="19.65372">
        <ele>133.2799987793</ele>
        <time>2024-09-23T16:58:01.000Z</time>
      </trkpt>
      <trkpt lat="42.14372" lon="19.65353">
        <ele>132.80000305176</ele>
        <time>2024-09-23T16:58:02.000Z</time>
      </trkpt>
      <trkpt lat="42.14369" lon="19.6535">
        <ele>132.32000732422</ele>
        <time>2024-09-23T16:58:03.000Z</time>
      </trkpt>
      <trkpt lat="42.14362" lon="19.65342">
        <ele>132.32000732422</ele>
        <time>2024-09-23T16:58:04.000Z</time>
      </trkpt>
      <trkpt lat="42.14354" lon="19.6533">
        <ele>131.83999633789</ele>
        <time>2024-09-23T16:58:05.000Z</time>
      </trkpt>
      <trkpt lat="42.14345" lon="19.65314">
        <ele>130.39999389648</ele>
        <time>2024-09-23T16:58:06.000Z</time>
      </trkpt>
      <trkpt lat="42.14335" lon="19.653">
        <ele>129.91999816895</ele>
        <time>2024-09-23T16:58:07.000Z</time>
      </trkpt>
      <trkpt lat="42.14294" lon="19.65247">
        <ele>127.0299987793</ele>
        <time>2024-09-23T16:58:11.000Z</time>
      </trkpt>
      <trkpt lat="42.1429" lon="19.65241">
        <ele>126.55000305176</ele>
        <time>2024-09-23T16:58:12.000Z</time>
      </trkpt>
      <trkpt lat="42.14284" lon="19.65229">
        <ele>126.06999969482</ele>
        <time>2024-09-23T16:58:13.000Z</time>
      </trkpt>
      <trkpt lat="42.14279" lon="19.65216">
        <ele>125.58999633789</ele>
        <time>2024-09-23T16:58:14.000Z</time>
      </trkpt>
      <trkpt lat="42.14275" lon="19.652">
        <ele>125.11000061035</ele>
        <time>2024-09-23T16:58:15.000Z</time>
      </trkpt>
      <trkpt lat="42.1427" lon="19.65183">
        <ele>124.62999725342</ele>
        <time>2024-09-23T16:58:16.000Z</time>
      </trkpt>
      <trkpt lat="42.14265" lon="19.65171">
        <ele>124.15000152588</ele>
        <time>2024-09-23T16:58:17.000Z</time>
      </trkpt>
      <trkpt lat="42.1426" lon="19.65155">
        <ele>123.66999816895</ele>
        <time>2024-09-23T16:58:18.000Z</time>
      </trkpt>
      <trkpt lat="42.14257" lon="19.65138">
        <ele>123.19000244141</ele>
        <time>2024-09-23T16:58:19.000Z</time>
      </trkpt>
      <trkpt lat="42.14255" lon="19.65121">
        <ele>122.70999908447</ele>
        <time>2024-09-23T16:58:20.000Z</time>
      </trkpt>
      <trkpt lat="42.14255" lon="19.65106">
        <ele>122.70999908447</ele>
        <time>2024-09-23T16:58:21.000Z</time>
      </trkpt>
      <trkpt lat="42.14257" lon="19.65089">
        <ele>122.2200012207</ele>
        <time>2024-09-23T16:58:22.000Z</time>
      </trkpt>
      <trkpt lat="42.14262" lon="19.65068">
        <ele>121.73999786377</ele>
        <time>2024-09-23T16:58:23.000Z</time>
      </trkpt>
      <trkpt lat="42.14267" lon="19.65051">
        <ele>120.7799987793</ele>
        <time>2024-09-23T16:58:24.000Z</time>
      </trkpt>
      <trkpt lat="42.1427" lon="19.65033">
        <ele>120.30000305176</ele>
        <time>2024-09-23T16:58:25.000Z</time>
      </trkpt>
      <trkpt lat="42.14272" lon="19.65017">
        <ele>119.33999633789</ele>
        <time>2024-09-23T16:58:26.000Z</time>
      </trkpt>
      <trkpt lat="42.14274" lon="19.64998">
        <ele>118.37999725342</ele>
        <time>2024-09-23T16:58:27.000Z</time>
      </trkpt>
      <trkpt lat="42.14274" lon="19.64978">
        <ele>117.41999816895</ele>
        <time>2024-09-23T16:58:28.000Z</time>
      </trkpt>
      <trkpt lat="42.14273" lon="19.6496">
        <ele>116.45999908447</ele>
        <time>2024-09-23T16:58:29.000Z</time>
      </trkpt>
      <trkpt lat="42.14272" lon="19.64948">
        <ele>115.98000335693</ele>
        <time>2024-09-23T16:58:30.000Z</time>
      </trkpt>
      <trkpt lat="42.14268" lon="19.64932">
        <ele>115.01000213623</ele>
        <time>2024-09-23T16:58:31.000Z</time>
      </trkpt>
      <trkpt lat="42.14262" lon="19.64911">
        <ele>113.08999633789</ele>
        <time>2024-09-23T16:58:32.000Z</time>
      </trkpt>
      <trkpt lat="42.14256" lon="19.64895">
        <ele>112.12999725342</ele>
        <time>2024-09-23T16:58:33.000Z</time>
      </trkpt>
      <trkpt lat="42.14248" lon="19.64873">
        <ele>111.16999816895</ele>
        <time>2024-09-23T16:58:34.000Z</time>
      </trkpt>
      <trkpt lat="42.14243" lon="19.64862">
        <ele>110.69000244141</ele>
        <time>2024-09-23T16:58:35.000Z</time>
      </trkpt>
      <trkpt lat="42.14237" lon="19.64848">
        <ele>110.20999908447</ele>
        <time>2024-09-23T16:58:36.000Z</time>
      </trkpt>
      <trkpt lat="42.14223" lon="19.64817">
        <ele>108.76999664307</ele>
        <time>2024-09-23T16:58:38.000Z</time>
      </trkpt>
      <trkpt lat="42.14218" lon="19.64809">
        <ele>108.76999664307</ele>
        <time>2024-09-23T16:58:39.000Z</time>
      </trkpt>
      <trkpt lat="42.1421" lon="19.64796">
        <ele>108.29000091553</ele>
        <time>2024-09-23T16:58:40.000Z</time>
      </trkpt>
      <trkpt lat="42.14195" lon="19.64773">
        <ele>107.31999969482</ele>
        <time>2024-09-23T16:58:42.000Z</time>
      </trkpt>
      <trkpt lat="42.14163" lon="19.64728">
        <ele>107.80999755859</ele>
        <time>2024-09-23T16:58:46.000Z</time>
      </trkpt>
      <trkpt lat="42.14157" lon="19.6472">
        <ele>108.76999664307</ele>
        <time>2024-09-23T16:58:47.000Z</time>
      </trkpt>
      <trkpt lat="42.14147" lon="19.64714">
        <ele>109.73000335693</ele>
        <time>2024-09-23T16:58:48.000Z</time>
      </trkpt>
      <trkpt lat="42.14125" lon="19.64706">
        <ele>111.65000152588</ele>
        <time>2024-09-23T16:58:49.000Z</time>
      </trkpt>
      <trkpt lat="42.14111" lon="19.64701">
        <ele>112.61000061035</ele>
        <time>2024-09-23T16:58:51.000Z</time>
      </trkpt>
      <trkpt lat="42.14098" lon="19.64695">
        <ele>114.05000305176</ele>
        <time>2024-09-23T16:58:52.000Z</time>
      </trkpt>
      <trkpt lat="42.14082" lon="19.64685">
        <ele>115.98000335693</ele>
        <time>2024-09-23T16:58:53.000Z</time>
      </trkpt>
      <trkpt lat="42.14078" lon="19.64683">
        <ele>116.45999908447</ele>
        <time>2024-09-23T16:58:54.000Z</time>
      </trkpt>
      <trkpt lat="42.14068" lon="19.64675">
        <ele>117.41999816895</ele>
        <time>2024-09-23T16:58:55.000Z</time>
      </trkpt>
      <trkpt lat="42.14058" lon="19.64666">
        <ele>118.86000061035</ele>
        <time>2024-09-23T16:58:56.000Z</time>
      </trkpt>
      <trkpt lat="42.1405" lon="19.64656">
        <ele>119.81999969482</ele>
        <time>2024-09-23T16:58:57.000Z</time>
      </trkpt>
      <trkpt lat="42.14042" lon="19.64647">
        <ele>121.26000213623</ele>
        <time>2024-09-23T16:58:58.000Z</time>
      </trkpt>
      <trkpt lat="42.14038" lon="19.6464">
        <ele>122.2200012207</ele>
        <time>2024-09-23T16:58:59.000Z</time>
      </trkpt>
      <trkpt lat="42.14035" lon="19.6463">
        <ele>123.19000244141</ele>
        <time>2024-09-23T16:59:00.000Z</time>
      </trkpt>
      <trkpt lat="42.14034" lon="19.6462">
        <ele>124.15000152588</ele>
        <time>2024-09-23T16:59:01.000Z</time>
      </trkpt>
      <trkpt lat="42.14035" lon="19.64608">
        <ele>125.11000061035</ele>
        <time>2024-09-23T16:59:02.000Z</time>
      </trkpt>
      <trkpt lat="42.14041" lon="19.64582">
        <ele>125.58999633789</ele>
        <time>2024-09-23T16:59:04.000Z</time>
      </trkpt>
      <trkpt lat="42.14053" lon="19.64527">
        <ele>126.06999969482</ele>
        <time>2024-09-23T16:59:07.000Z</time>
      </trkpt>
      <trkpt lat="42.14058" lon="19.64512">
        <ele>126.55000305176</ele>
        <time>2024-09-23T16:59:08.000Z</time>
      </trkpt>
      <trkpt lat="42.14065" lon="19.64492">
        <ele>127.0299987793</ele>
        <time>2024-09-23T16:59:09.000Z</time>
      </trkpt>
      <trkpt lat="42.14067" lon="19.64485">
        <ele>127.0299987793</ele>
        <time>2024-09-23T16:59:10.000Z</time>
      </trkpt>
      <trkpt lat="42.14072" lon="19.64464">
        <ele>127.51000213623</ele>
        <time>2024-09-23T16:59:11.000Z</time>
      </trkpt>
      <trkpt lat="42.14074" lon="19.64452">
        <ele>127.51000213623</ele>
        <time>2024-09-23T16:59:12.000Z</time>
      </trkpt>
      <trkpt lat="42.14076" lon="19.64436">
        <ele>127.51000213623</ele>
        <time>2024-09-23T16:59:13.000Z</time>
      </trkpt>
      <trkpt lat="42.14078" lon="19.64381">
        <ele>126.55000305176</ele>
        <time>2024-09-23T16:59:16.000Z</time>
      </trkpt>
      <trkpt lat="42.14082" lon="19.64333">
        <ele>125.11000061035</ele>
        <time>2024-09-23T16:59:19.000Z</time>
      </trkpt>
      <trkpt lat="42.14083" lon="19.64325">
        <ele>124.62999725342</ele>
        <time>2024-09-23T16:59:20.000Z</time>
      </trkpt>
      <trkpt lat="42.14085" lon="19.64315">
        <ele>124.15000152588</ele>
        <time>2024-09-23T16:59:21.000Z</time>
      </trkpt>
      <trkpt lat="42.1409" lon="19.643">
        <ele>123.19000244141</ele>
        <time>2024-09-23T16:59:22.000Z</time>
      </trkpt>
      <trkpt lat="42.14095" lon="19.6429">
        <ele>122.70999908447</ele>
        <time>2024-09-23T16:59:23.000Z</time>
      </trkpt>
      <trkpt lat="42.14108" lon="19.6426">
        <ele>119.81999969482</ele>
        <time>2024-09-23T16:59:26.000Z</time>
      </trkpt>
      <trkpt lat="42.14115" lon="19.64245">
        <ele>118.86000061035</ele>
        <time>2024-09-23T16:59:27.000Z</time>
      </trkpt>
      <trkpt lat="42.14122" lon="19.64231">
        <ele>117.90000152588</ele>
        <time>2024-09-23T16:59:28.000Z</time>
      </trkpt>
      <trkpt lat="42.14125" lon="19.64224">
        <ele>117.41999816895</ele>
        <time>2024-09-23T16:59:29.000Z</time>
      </trkpt>
      <trkpt lat="42.1413" lon="19.64209">
        <ele>115.98000335693</ele>
        <time>2024-09-23T16:59:30.000Z</time>
      </trkpt>
      <trkpt lat="42.14141" lon="19.64175">
        <ele>113.56999969482</ele>
        <time>2024-09-23T16:59:32.000Z</time>
      </trkpt>
      <trkpt lat="42.14143" lon="19.64171">
        <ele>113.56999969482</ele>
        <time>2024-09-23T16:59:33.000Z</time>
      </trkpt>
      <trkpt lat="42.14148" lon="19.6416">
        <ele>112.61000061035</ele>
        <time>2024-09-23T16:59:34.000Z</time>
      </trkpt>
      <trkpt lat="42.14169" lon="19.64112">
        <ele>108.29000091553</ele>
        <time>2024-09-23T16:59:38.000Z</time>
      </trkpt>
      <trkpt lat="42.14175" lon="19.64099">
        <ele>106.83999633789</ele>
        <time>2024-09-23T16:59:40.000Z</time>
      </trkpt>
      <trkpt lat="42.14176" lon="19.64095">
        <ele>106.36000061035</ele>
        <time>2024-09-23T16:59:41.000Z</time>
      </trkpt>
      <trkpt lat="42.14177" lon="19.64089">
        <ele>105.87999725342</ele>
        <time>2024-09-23T16:59:42.000Z</time>
      </trkpt>
      <trkpt lat="42.14178" lon="19.64084">
        <ele>104.91999816895</ele>
        <time>2024-09-23T16:59:43.000Z</time>
      </trkpt>
      <trkpt lat="42.1418" lon="19.64063">
        <ele>102.04000091553</ele>
        <time>2024-09-23T16:59:50.000Z</time>
      </trkpt>
      <trkpt lat="42.1418" lon="19.64063">
        <ele>102.04000091553</ele>
        <time>2024-09-23T17:00:08.000Z</time>
      </trkpt>
      <trkpt lat="42.14182" lon="19.64054">
        <ele>100.59999847412</ele>
        <time>2024-09-23T17:11:45.000Z</time>
      </trkpt>
      <trkpt lat="42.14182" lon="19.64049">
        <ele>100.59999847412</ele>
        <time>2024-09-23T17:11:46.000Z</time>
      </trkpt>
      <trkpt lat="42.14184" lon="19.6404">
        <ele>100.11000061035</ele>
        <time>2024-09-23T17:11:47.000Z</time>
      </trkpt>
      <trkpt lat="42.14186" lon="19.6403">
        <ele>100.11000061035</ele>
        <time>2024-09-23T17:11:48.000Z</time>
      </trkpt>
      <trkpt lat="42.14188" lon="19.6402">
        <ele>99.629997253418</ele>
        <time>2024-09-23T17:11:49.000Z</time>
      </trkpt>
      <trkpt lat="42.14188" lon="19.64007">
        <ele>99.150001525879</ele>
        <time>2024-09-23T17:11:50.000Z</time>
      </trkpt>
      <trkpt lat="42.14186" lon="19.63987">
        <ele>98.669998168945</ele>
        <time>2024-09-23T17:11:51.000Z</time>
      </trkpt>
      <trkpt lat="42.14185" lon="19.63978">
        <ele>98.190002441406</ele>
        <time>2024-09-23T17:11:52.000Z</time>
      </trkpt>
      <trkpt lat="42.14186" lon="19.63966">
        <ele>97.709999084473</ele>
        <time>2024-09-23T17:11:53.000Z</time>
      </trkpt>
      <trkpt lat="42.14188" lon="19.6395">
        <ele>97.709999084473</ele>
        <time>2024-09-23T17:11:54.000Z</time>
      </trkpt>
      <trkpt lat="42.14189" lon="19.63943">
        <ele>97.709999084473</ele>
        <time>2024-09-23T17:11:55.000Z</time>
      </trkpt>
      <trkpt lat="42.14189" lon="19.6393">
        <ele>97.709999084473</ele>
        <time>2024-09-23T17:11:56.000Z</time>
      </trkpt>
      <trkpt lat="42.14186" lon="19.63917">
        <ele>97.709999084473</ele>
        <time>2024-09-23T17:11:57.000Z</time>
      </trkpt>
      <trkpt lat="42.14181" lon="19.63904">
        <ele>97.709999084473</ele>
        <time>2024-09-23T17:11:58.000Z</time>
      </trkpt>
      <trkpt lat="42.14175" lon="19.63892">
        <ele>97.709999084473</ele>
        <time>2024-09-23T17:11:59.000Z</time>
      </trkpt>
      <trkpt lat="42.14165" lon="19.63875">
        <ele>97.709999084473</ele>
        <time>2024-09-23T17:12:00.000Z</time>
      </trkpt>
      <trkpt lat="42.1416" lon="19.63868">
        <ele>97.230003356934</ele>
        <time>2024-09-23T17:12:01.000Z</time>
      </trkpt>
      <trkpt lat="42.14146" lon="19.63851">
        <ele>97.230003356934</ele>
        <time>2024-09-23T17:12:02.000Z</time>
      </trkpt>
      <trkpt lat="42.1414" lon="19.63845">
        <ele>97.230003356934</ele>
        <time>2024-09-23T17:12:03.000Z</time>
      </trkpt>
      <trkpt lat="42.1413" lon="19.63837">
        <ele>97.230003356934</ele>
        <time>2024-09-23T17:12:04.000Z</time>
      </trkpt>
      <trkpt lat="42.1412" lon="19.63832">
        <ele>97.230003356934</ele>
        <time>2024-09-23T17:12:05.000Z</time>
      </trkpt>
      <trkpt lat="42.14109" lon="19.6383">
        <ele>97.709999084473</ele>
        <time>2024-09-23T17:12:06.000Z</time>
      </trkpt>
      <trkpt lat="42.1409" lon="19.63829">
        <ele>97.709999084473</ele>
        <time>2024-09-23T17:12:08.000Z</time>
      </trkpt>
      <trkpt lat="42.1405" lon="19.63833">
        <ele>97.709999084473</ele>
        <time>2024-09-23T17:12:11.000Z</time>
      </trkpt>
      <trkpt lat="42.14044" lon="19.63834">
        <ele>97.709999084473</ele>
        <time>2024-09-23T17:12:12.000Z</time>
      </trkpt>
      <trkpt lat="42.13996" lon="19.63843">
        <ele>98.190002441406</ele>
        <time>2024-09-23T17:12:16.000Z</time>
      </trkpt>
      <trkpt lat="42.1399" lon="19.63843">
        <ele>98.190002441406</ele>
        <time>2024-09-23T17:12:17.000Z</time>
      </trkpt>
      <trkpt lat="42.1398" lon="19.6384">
        <ele>97.709999084473</ele>
        <time>2024-09-23T17:12:18.000Z</time>
      </trkpt>
      <trkpt lat="42.1397" lon="19.63835">
        <ele>97.709999084473</ele>
        <time>2024-09-23T17:12:19.000Z</time>
      </trkpt>
      <trkpt lat="42.13962" lon="19.63829">
        <ele>97.230003356934</ele>
        <time>2024-09-23T17:12:20.000Z</time>
      </trkpt>
      <trkpt lat="42.13958" lon="19.63821">
        <ele>97.230003356934</ele>
        <time>2024-09-23T17:12:21.000Z</time>
      </trkpt>
      <trkpt lat="42.13957" lon="19.63813">
        <ele>96.269996643066</ele>
        <time>2024-09-23T17:12:22.000Z</time>
      </trkpt>
      <trkpt lat="42.13958" lon="19.63801">
        <ele>95.790000915527</ele>
        <time>2024-09-23T17:12:23.000Z</time>
      </trkpt>
      <trkpt lat="42.1396" lon="19.63786">
        <ele>95.309997558594</ele>
        <time>2024-09-23T17:12:24.000Z</time>
      </trkpt>
      <trkpt lat="42.13961" lon="19.63772">
        <ele>94.349998474121</ele>
        <time>2024-09-23T17:12:25.000Z</time>
      </trkpt>
      <trkpt lat="42.13964" lon="19.63755">
        <ele>93.870002746582</ele>
        <time>2024-09-23T17:12:26.000Z</time>
      </trkpt>
      <trkpt lat="42.13968" lon="19.6374">
        <ele>93.389999389648</ele>
        <time>2024-09-23T17:12:27.000Z</time>
      </trkpt>
      <trkpt lat="42.13974" lon="19.63726">
        <ele>92.900001525879</ele>
        <time>2024-09-23T17:12:28.000Z</time>
      </trkpt>
      <trkpt lat="42.13985" lon="19.63703">
        <ele>92.419998168945</ele>
        <time>2024-09-23T17:12:29.000Z</time>
      </trkpt>
      <trkpt lat="42.13986" lon="19.637">
        <ele>92.419998168945</ele>
        <time>2024-09-23T17:12:30.000Z</time>
      </trkpt>
      <trkpt lat="42.1399" lon="19.63687">
        <ele>91.940002441406</ele>
        <time>2024-09-23T17:12:31.000Z</time>
      </trkpt>
      <trkpt lat="42.13991" lon="19.63673">
        <ele>91.459999084473</ele>
        <time>2024-09-23T17:12:32.000Z</time>
      </trkpt>
      <trkpt lat="42.13992" lon="19.63648">
        <ele>91.459999084473</ele>
        <time>2024-09-23T17:12:33.000Z</time>
      </trkpt>
      <trkpt lat="42.13992" lon="19.63642">
        <ele>90.980003356934</ele>
        <time>2024-09-23T17:12:34.000Z</time>
      </trkpt>
      <trkpt lat="42.1399" lon="19.63628">
        <ele>90.980003356934</ele>
        <time>2024-09-23T17:12:35.000Z</time>
      </trkpt>
      <trkpt lat="42.13979" lon="19.63572">
        <ele>90.019996643066</ele>
        <time>2024-09-23T17:12:38.000Z</time>
      </trkpt>
      <trkpt lat="42.13976" lon="19.63554">
        <ele>90.5</ele>
        <time>2024-09-23T17:12:39.000Z</time>
      </trkpt>
      <trkpt lat="42.13975" lon="19.63542">
        <ele>90.980003356934</ele>
        <time>2024-09-23T17:12:40.000Z</time>
      </trkpt>
      <trkpt lat="42.13965" lon="19.63471">
        <ele>92.419998168945</ele>
        <time>2024-09-23T17:12:44.000Z</time>
      </trkpt>
      <trkpt lat="42.13963" lon="19.63461">
        <ele>92.419998168945</ele>
        <time>2024-09-23T17:12:45.000Z</time>
      </trkpt>
      <trkpt lat="42.13957" lon="19.63439">
        <ele>92.419998168945</ele>
        <time>2024-09-23T17:12:46.000Z</time>
      </trkpt>
      <trkpt lat="42.13952" lon="19.6342">
        <ele>92.419998168945</ele>
        <time>2024-09-23T17:12:47.000Z</time>
      </trkpt>
      <trkpt lat="42.13934" lon="19.63347">
        <ele>94.349998474121</ele>
        <time>2024-09-23T17:12:51.000Z</time>
      </trkpt>
      <trkpt lat="42.13931" lon="19.63336">
        <ele>94.349998474121</ele>
        <time>2024-09-23T17:12:52.000Z</time>
      </trkpt>
      <trkpt lat="42.13928" lon="19.63324">
        <ele>94.349998474121</ele>
        <time>2024-09-23T17:12:53.000Z</time>
      </trkpt>
      <trkpt lat="42.13921" lon="19.63311">
        <ele>94.349998474121</ele>
        <time>2024-09-23T17:12:54.000Z</time>
      </trkpt>
      <trkpt lat="42.13911" lon="19.63299">
        <ele>94.349998474121</ele>
        <time>2024-09-23T17:12:55.000Z</time>
      </trkpt>
      <trkpt lat="42.13865" lon="19.63256">
        <ele>94.349998474121</ele>
        <time>2024-09-23T17:12:59.000Z</time>
      </trkpt>
      <trkpt lat="42.13847" lon="19.63242">
        <ele>94.349998474121</ele>
        <time>2024-09-23T17:13:00.000Z</time>
      </trkpt>
      <trkpt lat="42.13739" lon="19.6317">
        <ele>96.269996643066</ele>
        <time>2024-09-23T17:13:09.000Z</time>
      </trkpt>
      <trkpt lat="42.13729" lon="19.63162">
        <ele>96.269996643066</ele>
        <time>2024-09-23T17:13:10.000Z</time>
      </trkpt>
      <trkpt lat="42.13719" lon="19.63152">
        <ele>96.75</ele>
        <time>2024-09-23T17:13:11.000Z</time>
      </trkpt>
      <trkpt lat="42.13709" lon="19.63139">
        <ele>97.230003356934</ele>
        <time>2024-09-23T17:13:12.000Z</time>
      </trkpt>
      <trkpt lat="42.13699" lon="19.63126">
        <ele>97.709999084473</ele>
        <time>2024-09-23T17:13:13.000Z</time>
      </trkpt>
      <trkpt lat="42.13691" lon="19.63112">
        <ele>98.190002441406</ele>
        <time>2024-09-23T17:13:14.000Z</time>
      </trkpt>
      <trkpt lat="42.1368" lon="19.63091">
        <ele>99.629997253418</ele>
        <time>2024-09-23T17:13:15.000Z</time>
      </trkpt>
      <trkpt lat="42.13675" lon="19.63083">
        <ele>100.59999847412</ele>
        <time>2024-09-23T17:13:16.000Z</time>
      </trkpt>
      <trkpt lat="42.13664" lon="19.63067">
        <ele>101.55999755859</ele>
        <time>2024-09-23T17:13:17.000Z</time>
      </trkpt>
      <trkpt lat="42.13608" lon="19.62995">
        <ele>103</ele>
        <time>2024-09-23T17:13:23.000Z</time>
      </trkpt>
      <trkpt lat="42.1359" lon="19.62976">
        <ele>102.51999664307</ele>
        <time>2024-09-23T17:13:25.000Z</time>
      </trkpt>
      <trkpt lat="42.13589" lon="19.62974">
        <ele>102.51999664307</ele>
        <time>2024-09-23T17:13:26.000Z</time>
      </trkpt>
      <trkpt lat="42.13582" lon="19.62965">
        <ele>102.51999664307</ele>
        <time>2024-09-23T17:13:27.000Z</time>
      </trkpt>
      <trkpt lat="42.13578" lon="19.62954">
        <ele>102.04000091553</ele>
        <time>2024-09-23T17:13:28.000Z</time>
      </trkpt>
      <trkpt lat="42.13575" lon="19.62941">
        <ele>102.04000091553</ele>
        <time>2024-09-23T17:13:29.000Z</time>
      </trkpt>
      <trkpt lat="42.13573" lon="19.62927">
        <ele>102.04000091553</ele>
        <time>2024-09-23T17:13:30.000Z</time>
      </trkpt>
      <trkpt lat="42.1357" lon="19.62914">
        <ele>102.04000091553</ele>
        <time>2024-09-23T17:13:31.000Z</time>
      </trkpt>
      <trkpt lat="42.13563" lon="19.62896">
        <ele>102.51999664307</ele>
        <time>2024-09-23T17:13:32.000Z</time>
      </trkpt>
      <trkpt lat="42.13558" lon="19.62883">
        <ele>102.51999664307</ele>
        <time>2024-09-23T17:13:33.000Z</time>
      </trkpt>
      <trkpt lat="42.13535" lon="19.6284">
        <ele>103.95999908447</ele>
        <time>2024-09-23T17:13:36.000Z</time>
      </trkpt>
      <trkpt lat="42.13522" lon="19.62814">
        <ele>105.87999725342</ele>
        <time>2024-09-23T17:13:38.000Z</time>
      </trkpt>
      <trkpt lat="42.13506" lon="19.62787">
        <ele>106.83999633789</ele>
        <time>2024-09-23T17:13:40.000Z</time>
      </trkpt>
      <trkpt lat="42.1348" lon="19.62752">
        <ele>107.31999969482</ele>
        <time>2024-09-23T17:13:43.000Z</time>
      </trkpt>
      <trkpt lat="42.13459" lon="19.62724">
        <ele>107.31999969482</ele>
        <time>2024-09-23T17:13:45.000Z</time>
      </trkpt>
      <trkpt lat="42.13456" lon="19.62719">
        <ele>106.83999633789</ele>
        <time>2024-09-23T17:13:46.000Z</time>
      </trkpt>
      <trkpt lat="42.13448" lon="19.62706">
        <ele>106.83999633789</ele>
        <time>2024-09-23T17:13:47.000Z</time>
      </trkpt>
      <trkpt lat="42.13403" lon="19.62618">
        <ele>106.36000061035</ele>
        <time>2024-09-23T17:13:52.000Z</time>
      </trkpt>
      <trkpt lat="42.13394" lon="19.626">
        <ele>106.83999633789</ele>
        <time>2024-09-23T17:13:53.000Z</time>
      </trkpt>
      <trkpt lat="42.13377" lon="19.62567">
        <ele>107.31999969482</ele>
        <time>2024-09-23T17:13:56.000Z</time>
      </trkpt>
      <trkpt lat="42.13318" lon="19.62487">
        <ele>106.83999633789</ele>
        <time>2024-09-23T17:14:02.000Z</time>
      </trkpt>
      <trkpt lat="42.13308" lon="19.62473">
        <ele>106.83999633789</ele>
        <time>2024-09-23T17:14:03.000Z</time>
      </trkpt>
      <trkpt lat="42.13299" lon="19.6246">
        <ele>106.83999633789</ele>
        <time>2024-09-23T17:14:04.000Z</time>
      </trkpt>
      <trkpt lat="42.13277" lon="19.62422">
        <ele>106.36000061035</ele>
        <time>2024-09-23T17:14:06.000Z</time>
      </trkpt>
      <trkpt lat="42.13272" lon="19.62415">
        <ele>106.36000061035</ele>
        <time>2024-09-23T17:14:07.000Z</time>
      </trkpt>
      <trkpt lat="42.13183" lon="19.62324">
        <ele>105.40000152588</ele>
        <time>2024-09-23T17:14:14.000Z</time>
      </trkpt>
      <trkpt lat="42.13167" lon="19.62307">
        <ele>104.91999816895</ele>
        <time>2024-09-23T17:14:16.000Z</time>
      </trkpt>
      <trkpt lat="42.13156" lon="19.62293">
        <ele>104.91999816895</ele>
        <time>2024-09-23T17:14:17.000Z</time>
      </trkpt>
      <trkpt lat="42.13146" lon="19.62277">
        <ele>104.44000244141</ele>
        <time>2024-09-23T17:14:18.000Z</time>
      </trkpt>
      <trkpt lat="42.13121" lon="19.62234">
        <ele>103.95999908447</ele>
        <time>2024-09-23T17:14:21.000Z</time>
      </trkpt>
      <trkpt lat="42.1307" lon="19.62136">
        <ele>103.95999908447</ele>
        <time>2024-09-23T17:14:27.000Z</time>
      </trkpt>
      <trkpt lat="42.13066" lon="19.62124">
        <ele>103.95999908447</ele>
        <time>2024-09-23T17:14:28.000Z</time>
      </trkpt>
      <trkpt lat="42.13063" lon="19.62109">
        <ele>103.48000335693</ele>
        <time>2024-09-23T17:14:29.000Z</time>
      </trkpt>
      <trkpt lat="42.13062" lon="19.62094">
        <ele>103.48000335693</ele>
        <time>2024-09-23T17:14:30.000Z</time>
      </trkpt>
      <trkpt lat="42.13064" lon="19.6207">
        <ele>103.95999908447</ele>
        <time>2024-09-23T17:14:31.000Z</time>
      </trkpt>
      <trkpt lat="42.13072" lon="19.61971">
        <ele>106.83999633789</ele>
        <time>2024-09-23T17:14:35.000Z</time>
      </trkpt>
      <trkpt lat="42.13072" lon="19.61914">
        <ele>108.29000091553</ele>
        <time>2024-09-23T17:14:38.000Z</time>
      </trkpt>
      <trkpt lat="42.13072" lon="19.61903">
        <ele>108.29000091553</ele>
        <time>2024-09-23T17:14:39.000Z</time>
      </trkpt>
      <trkpt lat="42.13073" lon="19.61889">
        <ele>108.29000091553</ele>
        <time>2024-09-23T17:14:40.000Z</time>
      </trkpt>
      <trkpt lat="42.13076" lon="19.61876">
        <ele>107.80999755859</ele>
        <time>2024-09-23T17:14:41.000Z</time>
      </trkpt>
      <trkpt lat="42.13082" lon="19.61866">
        <ele>107.31999969482</ele>
        <time>2024-09-23T17:14:42.000Z</time>
      </trkpt>
      <trkpt lat="42.1309" lon="19.61856">
        <ele>107.31999969482</ele>
        <time>2024-09-23T17:14:43.000Z</time>
      </trkpt>
      <trkpt lat="42.13096" lon="19.61848">
        <ele>107.31999969482</ele>
        <time>2024-09-23T17:14:44.000Z</time>
      </trkpt>
      <trkpt lat="42.13098" lon="19.61837">
        <ele>106.83999633789</ele>
        <time>2024-09-23T17:14:45.000Z</time>
      </trkpt>
      <trkpt lat="42.13097" lon="19.61823">
        <ele>105.87999725342</ele>
        <time>2024-09-23T17:14:46.000Z</time>
      </trkpt>
      <trkpt lat="42.13095" lon="19.61806">
        <ele>104.44000244141</ele>
        <time>2024-09-23T17:14:47.000Z</time>
      </trkpt>
      <trkpt lat="42.13067" lon="19.61692">
        <ele>98.190002441406</ele>
        <time>2024-09-23T17:14:53.000Z</time>
      </trkpt>
      <trkpt lat="42.13048" lon="19.61638">
        <ele>97.230003356934</ele>
        <time>2024-09-23T17:14:56.000Z</time>
      </trkpt>
      <trkpt lat="42.13045" lon="19.61629">
        <ele>97.230003356934</ele>
        <time>2024-09-23T17:14:57.000Z</time>
      </trkpt>
      <trkpt lat="42.13033" lon="19.61552">
        <ele>94.349998474121</ele>
        <time>2024-09-23T17:15:01.000Z</time>
      </trkpt>
      <trkpt lat="42.13031" lon="19.61536">
        <ele>94.349998474121</ele>
        <time>2024-09-23T17:15:02.000Z</time>
      </trkpt>
      <trkpt lat="42.1303" lon="19.61517">
        <ele>94.349998474121</ele>
        <time>2024-09-23T17:15:03.000Z</time>
      </trkpt>
      <trkpt lat="42.13031" lon="19.61491">
        <ele>95.309997558594</ele>
        <time>2024-09-23T17:15:04.000Z</time>
      </trkpt>
      <trkpt lat="42.13032" lon="19.61482">
        <ele>95.309997558594</ele>
        <time>2024-09-23T17:15:05.000Z</time>
      </trkpt>
      <trkpt lat="42.13035" lon="19.61468">
        <ele>95.790000915527</ele>
        <time>2024-09-23T17:15:06.000Z</time>
      </trkpt>
      <trkpt lat="42.13041" lon="19.61457">
        <ele>95.790000915527</ele>
        <time>2024-09-23T17:15:07.000Z</time>
      </trkpt>
      <trkpt lat="42.13049" lon="19.61449">
        <ele>95.790000915527</ele>
        <time>2024-09-23T17:15:08.000Z</time>
      </trkpt>
      <trkpt lat="42.13055" lon="19.6144">
        <ele>94.830001831055</ele>
        <time>2024-09-23T17:15:09.000Z</time>
      </trkpt>
      <trkpt lat="42.13057" lon="19.61431">
        <ele>94.830001831055</ele>
        <time>2024-09-23T17:15:10.000Z</time>
      </trkpt>
      <trkpt lat="42.13056" lon="19.61419">
        <ele>94.830001831055</ele>
        <time>2024-09-23T17:15:11.000Z</time>
      </trkpt>
      <trkpt lat="42.13052" lon="19.61397">
        <ele>94.349998474121</ele>
        <time>2024-09-23T17:15:12.000Z</time>
      </trkpt>
      <trkpt lat="42.13051" lon="19.61388">
        <ele>93.870002746582</ele>
        <time>2024-09-23T17:15:13.000Z</time>
      </trkpt>
      <trkpt lat="42.13051" lon="19.61376">
        <ele>93.389999389648</ele>
        <time>2024-09-23T17:15:14.000Z</time>
      </trkpt>
      <trkpt lat="42.13053" lon="19.61364">
        <ele>92.419998168945</ele>
        <time>2024-09-23T17:15:15.000Z</time>
      </trkpt>
      <trkpt lat="42.13061" lon="19.6134">
        <ele>90.5</ele>
        <time>2024-09-23T17:15:16.000Z</time>
      </trkpt>
      <trkpt lat="42.13064" lon="19.61331">
        <ele>90.019996643066</ele>
        <time>2024-09-23T17:15:17.000Z</time>
      </trkpt>
      <trkpt lat="42.13076" lon="19.61275">
        <ele>86.180000305176</ele>
        <time>2024-09-23T17:15:19.000Z</time>
      </trkpt>
      <trkpt lat="42.13077" lon="19.61269">
        <ele>86.180000305176</ele>
        <time>2024-09-23T17:15:20.000Z</time>
      </trkpt>
      <trkpt lat="42.13088" lon="19.6113">
        <ele>77.519996643066</ele>
        <time>2024-09-23T17:15:26.000Z</time>
      </trkpt>
      <trkpt lat="42.1308" lon="19.6101">
        <ele>75.599998474121</ele>
        <time>2024-09-23T17:15:32.000Z</time>
      </trkpt>
      <trkpt lat="42.13077" lon="19.60996">
        <ele>75.599998474121</ele>
        <time>2024-09-23T17:15:33.000Z</time>
      </trkpt>
      <trkpt lat="42.13073" lon="19.6097">
        <ele>75.120002746582</ele>
        <time>2024-09-23T17:15:34.000Z</time>
      </trkpt>
      <trkpt lat="42.13069" lon="19.60956">
        <ele>74.160003662109</ele>
        <time>2024-09-23T17:15:35.000Z</time>
      </trkpt>
      <trkpt lat="42.13063" lon="19.60936">
        <ele>74.160003662109</ele>
        <time>2024-09-23T17:15:36.000Z</time>
      </trkpt>
      <trkpt lat="42.1306" lon="19.60927">
        <ele>73.680000305176</ele>
        <time>2024-09-23T17:15:37.000Z</time>
      </trkpt>
      <trkpt lat="42.13058" lon="19.60922">
        <ele>73.680000305176</ele>
        <time>2024-09-23T17:15:38.000Z</time>
      </trkpt>
      <trkpt lat="42.13008" lon="19.60831">
        <ele>73.199996948242</ele>
        <time>2024-09-23T17:15:44.000Z</time>
      </trkpt>
      <trkpt lat="42.13005" lon="19.60826">
        <ele>73.199996948242</ele>
        <time>2024-09-23T17:15:45.000Z</time>
      </trkpt>
      <trkpt lat="42.12978" lon="19.60786">
        <ele>72.23999786377</ele>
        <time>2024-09-23T17:15:47.000Z</time>
      </trkpt>
      <trkpt lat="42.12976" lon="19.60781">
        <ele>72.23999786377</ele>
        <time>2024-09-23T17:15:48.000Z</time>
      </trkpt>
      <trkpt lat="42.12968" lon="19.60768">
        <ele>72.23999786377</ele>
        <time>2024-09-23T17:15:49.000Z</time>
      </trkpt>
      <trkpt lat="42.12943" lon="19.60718">
        <ele>74.160003662109</ele>
        <time>2024-09-23T17:15:51.000Z</time>
      </trkpt>
      <trkpt lat="42.12939" lon="19.60713">
        <ele>74.160003662109</ele>
        <time>2024-09-23T17:15:52.000Z</time>
      </trkpt>
      <trkpt lat="42.12914" lon="19.60673">
        <ele>76.559997558594</ele>
        <time>2024-09-23T17:15:54.000Z</time>
      </trkpt>
      <trkpt lat="42.12841" lon="19.60543">
        <ele>85.209999084473</ele>
        <time>2024-09-23T17:16:02.000Z</time>
      </trkpt>
      <trkpt lat="42.12831" lon="19.60521">
        <ele>87.139999389648</ele>
        <time>2024-09-23T17:16:03.000Z</time>
      </trkpt>
      <trkpt lat="42.12828" lon="19.60515">
        <ele>87.620002746582</ele>
        <time>2024-09-23T17:16:04.000Z</time>
      </trkpt>
      <trkpt lat="42.12822" lon="19.60504">
        <ele>89.059997558594</ele>
        <time>2024-09-23T17:16:05.000Z</time>
      </trkpt>
      <trkpt lat="42.12814" lon="19.60494">
        <ele>89.540000915527</ele>
        <time>2024-09-23T17:16:06.000Z</time>
      </trkpt>
      <trkpt lat="42.12733" lon="19.60426">
        <ele>90.5</ele>
        <time>2024-09-23T17:16:12.000Z</time>
      </trkpt>
      <trkpt lat="42.12719" lon="19.60418">
        <ele>90.5</ele>
        <time>2024-09-23T17:16:13.000Z</time>
      </trkpt>
      <trkpt lat="42.12627" lon="19.60375">
        <ele>88.099998474121</ele>
        <time>2024-09-23T17:16:18.000Z</time>
      </trkpt>
      <trkpt lat="42.12625" lon="19.60374">
        <ele>88.099998474121</ele>
        <time>2024-09-23T17:16:19.000Z</time>
      </trkpt>
      <trkpt lat="42.12611" lon="19.60371">
        <ele>87.620002746582</ele>
        <time>2024-09-23T17:16:20.000Z</time>
      </trkpt>
      <trkpt lat="42.12597" lon="19.60371">
        <ele>87.139999389648</ele>
        <time>2024-09-23T17:16:21.000Z</time>
      </trkpt>
      <trkpt lat="42.1258" lon="19.60371">
        <ele>86.660003662109</ele>
        <time>2024-09-23T17:16:22.000Z</time>
      </trkpt>
      <trkpt lat="42.12531" lon="19.60365">
        <ele>86.180000305176</ele>
        <time>2024-09-23T17:16:25.000Z</time>
      </trkpt>
      <trkpt lat="42.12518" lon="19.60364">
        <ele>85.690002441406</ele>
        <time>2024-09-23T17:16:26.000Z</time>
      </trkpt>
      <trkpt lat="42.12501" lon="19.60366">
        <ele>85.690002441406</ele>
        <time>2024-09-23T17:16:27.000Z</time>
      </trkpt>
      <trkpt lat="42.12487" lon="19.60369">
        <ele>85.209999084473</ele>
        <time>2024-09-23T17:16:28.000Z</time>
      </trkpt>
      <trkpt lat="42.12461" lon="19.6038">
        <ele>84.730003356934</ele>
        <time>2024-09-23T17:16:29.000Z</time>
      </trkpt>
      <trkpt lat="42.12458" lon="19.60381">
        <ele>84.730003356934</ele>
        <time>2024-09-23T17:16:30.000Z</time>
      </trkpt>
      <trkpt lat="42.12445" lon="19.60385">
        <ele>84.25</ele>
        <time>2024-09-23T17:16:31.000Z</time>
      </trkpt>
      <trkpt lat="42.12431" lon="19.60386">
        <ele>83.769996643066</ele>
        <time>2024-09-23T17:16:32.000Z</time>
      </trkpt>
      <trkpt lat="42.12417" lon="19.60384">
        <ele>83.769996643066</ele>
        <time>2024-09-23T17:16:33.000Z</time>
      </trkpt>
      <trkpt lat="42.12404" lon="19.60378">
        <ele>83.769996643066</ele>
        <time>2024-09-23T17:16:34.000Z</time>
      </trkpt>
      <trkpt lat="42.12393" lon="19.60368">
        <ele>84.25</ele>
        <time>2024-09-23T17:16:35.000Z</time>
      </trkpt>
      <trkpt lat="42.12385" lon="19.60356">
        <ele>84.730003356934</ele>
        <time>2024-09-23T17:16:36.000Z</time>
      </trkpt>
      <trkpt lat="42.12379" lon="19.6034">
        <ele>85.690002441406</ele>
        <time>2024-09-23T17:16:37.000Z</time>
      </trkpt>
      <trkpt lat="42.12373" lon="19.60322">
        <ele>86.180000305176</ele>
        <time>2024-09-23T17:16:38.000Z</time>
      </trkpt>
      <trkpt lat="42.12368" lon="19.60309">
        <ele>86.660003662109</ele>
        <time>2024-09-23T17:16:39.000Z</time>
      </trkpt>
      <trkpt lat="42.12348" lon="19.60261">
        <ele>87.620002746582</ele>
        <time>2024-09-23T17:16:41.000Z</time>
      </trkpt>
      <trkpt lat="42.12346" lon="19.60257">
        <ele>88.099998474121</ele>
        <time>2024-09-23T17:16:42.000Z</time>
      </trkpt>
      <trkpt lat="42.12342" lon="19.60244">
        <ele>88.099998474121</ele>
        <time>2024-09-23T17:16:43.000Z</time>
      </trkpt>
      <trkpt lat="42.12341" lon="19.60228">
        <ele>88.099998474121</ele>
        <time>2024-09-23T17:16:44.000Z</time>
      </trkpt>
      <trkpt lat="42.12342" lon="19.6021">
        <ele>88.580001831055</ele>
        <time>2024-09-23T17:16:45.000Z</time>
      </trkpt>
      <trkpt lat="42.12348" lon="19.60175">
        <ele>89.059997558594</ele>
        <time>2024-09-23T17:16:46.000Z</time>
      </trkpt>
      <trkpt lat="42.12376" lon="19.60013">
        <ele>87.620002746582</ele>
        <time>2024-09-23T17:16:54.000Z</time>
      </trkpt>
      <trkpt lat="42.12381" lon="19.59936">
        <ele>87.139999389648</ele>
        <time>2024-09-23T17:16:58.000Z</time>
      </trkpt>
      <trkpt lat="42.12381" lon="19.59909">
        <ele>86.660003662109</ele>
        <time>2024-09-23T17:16:59.000Z</time>
      </trkpt>
      <trkpt lat="42.1238" lon="19.59897">
        <ele>86.660003662109</ele>
        <time>2024-09-23T17:17:00.000Z</time>
      </trkpt>
      <trkpt lat="42.12377" lon="19.59876">
        <ele>86.660003662109</ele>
        <time>2024-09-23T17:17:01.000Z</time>
      </trkpt>
      <trkpt lat="42.12372" lon="19.59857">
        <ele>86.660003662109</ele>
        <time>2024-09-23T17:17:02.000Z</time>
      </trkpt>
      <trkpt lat="42.12364" lon="19.59841">
        <ele>86.660003662109</ele>
        <time>2024-09-23T17:17:03.000Z</time>
      </trkpt>
      <trkpt lat="42.12355" lon="19.59828">
        <ele>87.139999389648</ele>
        <time>2024-09-23T17:17:04.000Z</time>
      </trkpt>
      <trkpt lat="42.12345" lon="19.59818">
        <ele>86.660003662109</ele>
        <time>2024-09-23T17:17:05.000Z</time>
      </trkpt>
      <trkpt lat="42.12338" lon="19.59809">
        <ele>86.180000305176</ele>
        <time>2024-09-23T17:17:06.000Z</time>
      </trkpt>
      <trkpt lat="42.1233" lon="19.59796">
        <ele>84.730003356934</ele>
        <time>2024-09-23T17:17:07.000Z</time>
      </trkpt>
      <trkpt lat="42.12324" lon="19.59782">
        <ele>83.769996643066</ele>
        <time>2024-09-23T17:17:08.000Z</time>
      </trkpt>
      <trkpt lat="42.12321" lon="19.59767">
        <ele>82.809997558594</ele>
        <time>2024-09-23T17:17:09.000Z</time>
      </trkpt>
      <trkpt lat="42.12314" lon="19.59711">
        <ele>79.930000305176</ele>
        <time>2024-09-23T17:17:12.000Z</time>
      </trkpt>
      <trkpt lat="42.12312" lon="19.59692">
        <ele>79.449996948242</ele>
        <time>2024-09-23T17:17:13.000Z</time>
      </trkpt>
      <trkpt lat="42.12311" lon="19.59677">
        <ele>78.970001220703</ele>
        <time>2024-09-23T17:17:14.000Z</time>
      </trkpt>
      <trkpt lat="42.12313" lon="19.59662">
        <ele>78.480003356934</ele>
        <time>2024-09-23T17:17:15.000Z</time>
      </trkpt>
      <trkpt lat="42.12316" lon="19.59648">
        <ele>78</ele>
        <time>2024-09-23T17:17:16.000Z</time>
      </trkpt>
      <trkpt lat="42.12333" lon="19.59591">
        <ele>77.519996643066</ele>
        <time>2024-09-23T17:17:19.000Z</time>
      </trkpt>
      <trkpt lat="42.12338" lon="19.59573">
        <ele>77.040000915527</ele>
        <time>2024-09-23T17:17:20.000Z</time>
      </trkpt>
      <trkpt lat="42.12346" lon="19.59549">
        <ele>76.559997558594</ele>
        <time>2024-09-23T17:17:21.000Z</time>
      </trkpt>
      <trkpt lat="42.12377" lon="19.59471">
        <ele>76.559997558594</ele>
        <time>2024-09-23T17:17:25.000Z</time>
      </trkpt>
      <trkpt lat="42.12387" lon="19.59439">
        <ele>76.080001831055</ele>
        <time>2024-09-23T17:17:26.000Z</time>
      </trkpt>
      <trkpt lat="42.1239" lon="19.59432">
        <ele>76.080001831055</ele>
        <time>2024-09-23T17:17:27.000Z</time>
      </trkpt>
      <trkpt lat="42.12399" lon="19.59409">
        <ele>75.599998474121</ele>
        <time>2024-09-23T17:17:28.000Z</time>
      </trkpt>
      <trkpt lat="42.12402" lon="19.594">
        <ele>75.599998474121</ele>
        <time>2024-09-23T17:17:29.000Z</time>
      </trkpt>
      <trkpt lat="42.1241" lon="19.59373">
        <ele>75.599998474121</ele>
        <time>2024-09-23T17:17:30.000Z</time>
      </trkpt>
      <trkpt lat="42.12412" lon="19.59368">
        <ele>75.120002746582</ele>
        <time>2024-09-23T17:17:31.000Z</time>
      </trkpt>
      <trkpt lat="42.12419" lon="19.59353">
        <ele>75.120002746582</ele>
        <time>2024-09-23T17:17:32.000Z</time>
      </trkpt>
      <trkpt lat="42.12427" lon="19.59341">
        <ele>75.120002746582</ele>
        <time>2024-09-23T17:17:33.000Z</time>
      </trkpt>
      <trkpt lat="42.12437" lon="19.59331">
        <ele>75.120002746582</ele>
        <time>2024-09-23T17:17:34.000Z</time>
      </trkpt>
      <trkpt lat="42.12457" lon="19.59317">
        <ele>76.559997558594</ele>
        <time>2024-09-23T17:17:35.000Z</time>
      </trkpt>
      <trkpt lat="42.1246" lon="19.59315">
        <ele>76.559997558594</ele>
        <time>2024-09-23T17:17:36.000Z</time>
      </trkpt>
      <trkpt lat="42.12471" lon="19.5931">
        <ele>77.519996643066</ele>
        <time>2024-09-23T17:17:37.000Z</time>
      </trkpt>
      <trkpt lat="42.12493" lon="19.59306">
        <ele>78.480003356934</ele>
        <time>2024-09-23T17:17:39.000Z</time>
      </trkpt>
      <trkpt lat="42.12505" lon="19.59304">
        <ele>79.449996948242</ele>
        <time>2024-09-23T17:17:40.000Z</time>
      </trkpt>
      <trkpt lat="42.12513" lon="19.59299">
        <ele>79.449996948242</ele>
        <time>2024-09-23T17:17:41.000Z</time>
      </trkpt>
      <trkpt lat="42.12522" lon="19.59293">
        <ele>79.930000305176</ele>
        <time>2024-09-23T17:17:42.000Z</time>
      </trkpt>
      <trkpt lat="42.1253" lon="19.59285">
        <ele>79.449996948242</ele>
        <time>2024-09-23T17:17:43.000Z</time>
      </trkpt>
      <trkpt lat="42.12538" lon="19.59275">
        <ele>79.449996948242</ele>
        <time>2024-09-23T17:17:44.000Z</time>
      </trkpt>
      <trkpt lat="42.12551" lon="19.59256">
        <ele>79.449996948242</ele>
        <time>2024-09-23T17:17:45.000Z</time>
      </trkpt>
      <trkpt lat="42.12558" lon="19.59245">
        <ele>78.970001220703</ele>
        <time>2024-09-23T17:17:46.000Z</time>
      </trkpt>
      <trkpt lat="42.12563" lon="19.59237">
        <ele>78.970001220703</ele>
        <time>2024-09-23T17:17:47.000Z</time>
      </trkpt>
      <trkpt lat="42.12577" lon="19.59212">
        <ele>78.480003356934</ele>
        <time>2024-09-23T17:17:49.000Z</time>
      </trkpt>
      <trkpt lat="42.12583" lon="19.59197">
        <ele>78.480003356934</ele>
        <time>2024-09-23T17:17:50.000Z</time>
      </trkpt>
      <trkpt lat="42.12589" lon="19.59182">
        <ele>78.480003356934</ele>
        <time>2024-09-23T17:17:51.000Z</time>
      </trkpt>
      <trkpt lat="42.12602" lon="19.59132">
        <ele>78.480003356934</ele>
        <time>2024-09-23T17:17:54.000Z</time>
      </trkpt>
      <trkpt lat="42.12606" lon="19.59111">
        <ele>78.480003356934</ele>
        <time>2024-09-23T17:17:55.000Z</time>
      </trkpt>
      <trkpt lat="42.12617" lon="19.59059">
        <ele>78.480003356934</ele>
        <time>2024-09-23T17:17:58.000Z</time>
      </trkpt>
      <trkpt lat="42.12619" lon="19.59042">
        <ele>78.480003356934</ele>
        <time>2024-09-23T17:17:59.000Z</time>
      </trkpt>
      <trkpt lat="42.1262" lon="19.58987">
        <ele>78</ele>
        <time>2024-09-23T17:18:02.000Z</time>
      </trkpt>
      <trkpt lat="42.12621" lon="19.58978">
        <ele>78</ele>
        <time>2024-09-23T17:18:03.000Z</time>
      </trkpt>
      <trkpt lat="42.12625" lon="19.58966">
        <ele>77.040000915527</ele>
        <time>2024-09-23T17:18:04.000Z</time>
      </trkpt>
      <trkpt lat="42.12635" lon="19.58943">
        <ele>76.080001831055</ele>
        <time>2024-09-23T17:18:05.000Z</time>
      </trkpt>
      <trkpt lat="42.12639" lon="19.58933">
        <ele>75.599998474121</ele>
        <time>2024-09-23T17:18:06.000Z</time>
      </trkpt>
      <trkpt lat="42.12642" lon="19.58925">
        <ele>75.120002746582</ele>
        <time>2024-09-23T17:18:07.000Z</time>
      </trkpt>
      <trkpt lat="42.12646" lon="19.58909">
        <ele>74.160003662109</ele>
        <time>2024-09-23T17:18:08.000Z</time>
      </trkpt>
      <trkpt lat="42.12651" lon="19.58886">
        <ele>73.199996948242</ele>
        <time>2024-09-23T17:18:09.000Z</time>
      </trkpt>
      <trkpt lat="42.12653" lon="19.58872">
        <ele>72.720001220703</ele>
        <time>2024-09-23T17:18:10.000Z</time>
      </trkpt>
      <trkpt lat="42.12657" lon="19.58841">
        <ele>71.269996643066</ele>
        <time>2024-09-23T17:18:12.000Z</time>
      </trkpt>
      <trkpt lat="42.1266" lon="19.58825">
        <ele>70.309997558594</ele>
        <time>2024-09-23T17:18:13.000Z</time>
      </trkpt>
      <trkpt lat="42.12664" lon="19.58812">
        <ele>69.830001831055</ele>
        <time>2024-09-23T17:18:14.000Z</time>
      </trkpt>
      <trkpt lat="42.12665" lon="19.58804">
        <ele>69.349998474121</ele>
        <time>2024-09-23T17:18:15.000Z</time>
      </trkpt>
      <trkpt lat="42.12664" lon="19.58795">
        <ele>68.389999389648</ele>
        <time>2024-09-23T17:18:16.000Z</time>
      </trkpt>
      <trkpt lat="42.12661" lon="19.58786">
        <ele>67.910003662109</ele>
        <time>2024-09-23T17:18:17.000Z</time>
      </trkpt>
      <trkpt lat="42.12655" lon="19.58779">
        <ele>67.430000305176</ele>
        <time>2024-09-23T17:18:18.000Z</time>
      </trkpt>
      <trkpt lat="42.12648" lon="19.58772">
        <ele>66.949996948242</ele>
        <time>2024-09-23T17:18:19.000Z</time>
      </trkpt>
      <trkpt lat="42.12641" lon="19.58763">
        <ele>65.98999786377</ele>
        <time>2024-09-23T17:18:20.000Z</time>
      </trkpt>
      <trkpt lat="42.12638" lon="19.58754">
        <ele>65.029998779297</ele>
        <time>2024-09-23T17:18:21.000Z</time>
      </trkpt>
      <trkpt lat="42.12638" lon="19.58743">
        <ele>64.069999694824</ele>
        <time>2024-09-23T17:18:22.000Z</time>
      </trkpt>
      <trkpt lat="42.12641" lon="19.58727">
        <ele>62.139999389648</ele>
        <time>2024-09-23T17:18:23.000Z</time>
      </trkpt>
      <trkpt lat="42.12644" lon="19.58718">
        <ele>61.180000305176</ele>
        <time>2024-09-23T17:18:24.000Z</time>
      </trkpt>
      <trkpt lat="42.12649" lon="19.58707">
        <ele>60.220001220703</ele>
        <time>2024-09-23T17:18:25.000Z</time>
      </trkpt>
      <trkpt lat="42.12656" lon="19.58698">
        <ele>58.779998779297</ele>
        <time>2024-09-23T17:18:26.000Z</time>
      </trkpt>
      <trkpt lat="42.12664" lon="19.58693">
        <ele>57.819999694824</ele>
        <time>2024-09-23T17:18:27.000Z</time>
      </trkpt>
      <trkpt lat="42.12671" lon="19.5869">
        <ele>56.860000610352</ele>
        <time>2024-09-23T17:18:28.000Z</time>
      </trkpt>
      <trkpt lat="42.12677" lon="19.58687">
        <ele>56.369998931885</ele>
        <time>2024-09-23T17:18:29.000Z</time>
      </trkpt>
      <trkpt lat="42.12683" lon="19.58682">
        <ele>56.369998931885</ele>
        <time>2024-09-23T17:18:30.000Z</time>
      </trkpt>
      <trkpt lat="42.12688" lon="19.58675">
        <ele>55.889999389648</ele>
        <time>2024-09-23T17:18:31.000Z</time>
      </trkpt>
      <trkpt lat="42.12722" lon="19.58618">
        <ele>54.930000305176</ele>
        <time>2024-09-23T17:18:36.000Z</time>
      </trkpt>
      <trkpt lat="42.1273" lon="19.58606">
        <ele>55.409999847412</ele>
        <time>2024-09-23T17:18:37.000Z</time>
      </trkpt>
      <trkpt lat="42.12739" lon="19.58596">
        <ele>55.409999847412</ele>
        <time>2024-09-23T17:18:38.000Z</time>
      </trkpt>
      <trkpt lat="42.12747" lon="19.58588">
        <ele>55.409999847412</ele>
        <time>2024-09-23T17:18:39.000Z</time>
      </trkpt>
      <trkpt lat="42.12759" lon="19.58584">
        <ele>55.889999389648</ele>
        <time>2024-09-23T17:18:40.000Z</time>
      </trkpt>
      <trkpt lat="42.12783" lon="19.58577">
        <ele>56.369998931885</ele>
        <time>2024-09-23T17:18:42.000Z</time>
      </trkpt>
      <trkpt lat="42.1279" lon="19.58575">
        <ele>56.369998931885</ele>
        <time>2024-09-23T17:18:43.000Z</time>
      </trkpt>
      <trkpt lat="42.12801" lon="19.58575">
        <ele>56.860000610352</ele>
        <time>2024-09-23T17:18:44.000Z</time>
      </trkpt>
      <trkpt lat="42.12806" lon="19.58575">
        <ele>56.860000610352</ele>
        <time>2024-09-23T17:18:45.000Z</time>
      </trkpt>
      <trkpt lat="42.12814" lon="19.58576">
        <ele>57.340000152588</ele>
        <time>2024-09-23T17:18:46.000Z</time>
      </trkpt>
      <trkpt lat="42.12822" lon="19.58578">
        <ele>57.340000152588</ele>
        <time>2024-09-23T17:18:47.000Z</time>
      </trkpt>
      <trkpt lat="42.12829" lon="19.5858">
        <ele>58.299999237061</ele>
        <time>2024-09-23T17:18:48.000Z</time>
      </trkpt>
      <trkpt lat="42.12837" lon="19.58582">
        <ele>59.259998321533</ele>
        <time>2024-09-23T17:18:49.000Z</time>
      </trkpt>
      <trkpt lat="42.12841" lon="19.58583">
        <ele>58.779998779297</ele>
        <time>2024-09-23T17:18:50.000Z</time>
      </trkpt>
      <trkpt lat="42.12846" lon="19.58581">
        <ele>59.259998321533</ele>
        <time>2024-09-23T17:18:51.000Z</time>
      </trkpt>
      <trkpt lat="42.1285" lon="19.58575">
        <ele>58.779998779297</ele>
        <time>2024-09-23T17:18:52.000Z</time>
      </trkpt>
      <trkpt lat="42.12859" lon="19.5856">
        <ele>59.259998321533</ele>
        <time>2024-09-23T17:18:54.000Z</time>
      </trkpt>
      <trkpt lat="42.12862" lon="19.58553">
        <ele>59.259998321533</ele>
        <time>2024-09-23T17:18:55.000Z</time>
      </trkpt>
      <trkpt lat="42.12862" lon="19.58545">
        <ele>58.779998779297</ele>
        <time>2024-09-23T17:18:56.000Z</time>
      </trkpt>
      <trkpt lat="42.1286" lon="19.58538">
        <ele>58.299999237061</ele>
        <time>2024-09-23T17:18:57.000Z</time>
      </trkpt>
      <trkpt lat="42.12855" lon="19.5853">
        <ele>58.299999237061</ele>
        <time>2024-09-23T17:18:58.000Z</time>
      </trkpt>
      <trkpt lat="42.12849" lon="19.58523">
        <ele>58.299999237061</ele>
        <time>2024-09-23T17:18:59.000Z</time>
      </trkpt>
      <trkpt lat="42.12843" lon="19.58517">
        <ele>58.299999237061</ele>
        <time>2024-09-23T17:19:00.000Z</time>
      </trkpt>
      <trkpt lat="42.12828" lon="19.58501">
        <ele>58.299999237061</ele>
        <time>2024-09-23T17:19:02.000Z</time>
      </trkpt>
      <trkpt lat="42.1282" lon="19.58494">
        <ele>58.299999237061</ele>
        <time>2024-09-23T17:19:03.000Z</time>
      </trkpt>
      <trkpt lat="42.12811" lon="19.58487">
        <ele>58.779998779297</ele>
        <time>2024-09-23T17:19:04.000Z</time>
      </trkpt>
      <trkpt lat="42.1279" lon="19.58473">
        <ele>58.779998779297</ele>
        <time>2024-09-23T17:19:06.000Z</time>
      </trkpt>
      <trkpt lat="42.12786" lon="19.58471">
        <ele>59.259998321533</ele>
        <time>2024-09-23T17:19:07.000Z</time>
      </trkpt>
      <trkpt lat="42.12777" lon="19.58468">
        <ele>59.740001678467</ele>
        <time>2024-09-23T17:19:08.000Z</time>
      </trkpt>
      <trkpt lat="42.12766" lon="19.58468">
        <ele>60.700000762939</ele>
        <time>2024-09-23T17:19:09.000Z</time>
      </trkpt>
      <trkpt lat="42.12761" lon="19.58467">
        <ele>61.180000305176</ele>
        <time>2024-09-23T17:19:10.000Z</time>
      </trkpt>
      <trkpt lat="42.12754" lon="19.58464">
        <ele>61.180000305176</ele>
        <time>2024-09-23T17:19:11.000Z</time>
      </trkpt>
      <trkpt lat="42.12748" lon="19.58457">
        <ele>61.180000305176</ele>
        <time>2024-09-23T17:19:12.000Z</time>
      </trkpt>
      <trkpt lat="42.12742" lon="19.58449">
        <ele>61.180000305176</ele>
        <time>2024-09-23T17:19:13.000Z</time>
      </trkpt>
      <trkpt lat="42.12734" lon="19.5844">
        <ele>61.659999847412</ele>
        <time>2024-09-23T17:19:14.000Z</time>
      </trkpt>
      <trkpt lat="42.1272" lon="19.58425">
        <ele>61.659999847412</ele>
        <time>2024-09-23T17:19:15.000Z</time>
      </trkpt>
      <trkpt lat="42.12706" lon="19.5841">
        <ele>61.659999847412</ele>
        <time>2024-09-23T17:19:17.000Z</time>
      </trkpt>
      <trkpt lat="42.12696" lon="19.58398">
        <ele>61.659999847412</ele>
        <time>2024-09-23T17:19:18.000Z</time>
      </trkpt>
      <trkpt lat="42.1269" lon="19.58389">
        <ele>61.180000305176</ele>
        <time>2024-09-23T17:19:19.000Z</time>
      </trkpt>
      <trkpt lat="42.12681" lon="19.58376">
        <ele>61.180000305176</ele>
        <time>2024-09-23T17:19:20.000Z</time>
      </trkpt>
      <trkpt lat="42.12676" lon="19.58365">
        <ele>60.700000762939</ele>
        <time>2024-09-23T17:19:21.000Z</time>
      </trkpt>
      <trkpt lat="42.1267" lon="19.5835">
        <ele>60.700000762939</ele>
        <time>2024-09-23T17:19:22.000Z</time>
      </trkpt>
      <trkpt lat="42.12666" lon="19.58336">
        <ele>60.700000762939</ele>
        <time>2024-09-23T17:19:23.000Z</time>
      </trkpt>
      <trkpt lat="42.12651" lon="19.58271">
        <ele>61.180000305176</ele>
        <time>2024-09-23T17:19:27.000Z</time>
      </trkpt>
      <trkpt lat="42.1264" lon="19.58225">
        <ele>60.700000762939</ele>
        <time>2024-09-23T17:19:30.000Z</time>
      </trkpt>
      <trkpt lat="42.12635" lon="19.58208">
        <ele>60.700000762939</ele>
        <time>2024-09-23T17:19:32.000Z</time>
      </trkpt>
      <trkpt lat="42.12628" lon="19.58185">
        <ele>60.700000762939</ele>
        <time>2024-09-23T17:19:35.000Z</time>
      </trkpt>
      <trkpt lat="42.12627" lon="19.58182">
        <ele>60.700000762939</ele>
        <time>2024-09-23T17:19:36.000Z</time>
      </trkpt>
      <trkpt lat="42.1262" lon="19.58163">
        <ele>61.180000305176</ele>
        <time>2024-09-23T17:19:38.000Z</time>
      </trkpt>
      <trkpt lat="42.12619" lon="19.5816">
        <ele>61.180000305176</ele>
        <time>2024-09-23T17:19:39.000Z</time>
      </trkpt>
      <trkpt lat="42.12616" lon="19.58154">
        <ele>61.659999847412</ele>
        <time>2024-09-23T17:19:40.000Z</time>
      </trkpt>
      <trkpt lat="42.1261" lon="19.58137">
        <ele>61.659999847412</ele>
        <time>2024-09-23T17:19:41.000Z</time>
      </trkpt>
      <trkpt lat="42.12598" lon="19.58106">
        <ele>61.659999847412</ele>
        <time>2024-09-23T17:19:45.000Z</time>
      </trkpt>
      <trkpt lat="42.12591" lon="19.58086">
        <ele>61.659999847412</ele>
        <time>2024-09-23T17:19:47.000Z</time>
      </trkpt>
      <trkpt lat="42.12584" lon="19.58065">
        <ele>61.659999847412</ele>
        <time>2024-09-23T17:19:49.000Z</time>
      </trkpt>
      <trkpt lat="42.12577" lon="19.58046">
        <ele>61.180000305176</ele>
        <time>2024-09-23T17:19:51.000Z</time>
      </trkpt>
      <trkpt lat="42.12575" lon="19.58043">
        <ele>61.180000305176</ele>
        <time>2024-09-23T17:19:52.000Z</time>
      </trkpt>
      <trkpt lat="42.12572" lon="19.58036">
        <ele>61.180000305176</ele>
        <time>2024-09-23T17:19:53.000Z</time>
      </trkpt>
      <trkpt lat="42.12568" lon="19.58028">
        <ele>61.659999847412</ele>
        <time>2024-09-23T17:19:54.000Z</time>
      </trkpt>
      <trkpt lat="42.12561" lon="19.58018">
        <ele>61.659999847412</ele>
        <time>2024-09-23T17:19:55.000Z</time>
      </trkpt>
      <trkpt lat="42.12559" lon="19.58014">
        <ele>61.180000305176</ele>
        <time>2024-09-23T17:19:56.000Z</time>
      </trkpt>
      <trkpt lat="42.12551" lon="19.58004">
        <ele>60.700000762939</ele>
        <time>2024-09-23T17:19:57.000Z</time>
      </trkpt>
      <trkpt lat="42.12545" lon="19.57996">
        <ele>60.700000762939</ele>
        <time>2024-09-23T17:19:58.000Z</time>
      </trkpt>
      <trkpt lat="42.12541" lon="19.5799">
        <ele>60.220001220703</ele>
        <time>2024-09-23T17:19:59.000Z</time>
      </trkpt>
      <trkpt lat="42.12533" lon="19.57979">
        <ele>59.740001678467</ele>
        <time>2024-09-23T17:20:00.000Z</time>
      </trkpt>
      <trkpt lat="42.12523" lon="19.5796">
        <ele>59.259998321533</ele>
        <time>2024-09-23T17:20:01.000Z</time>
      </trkpt>
      <trkpt lat="42.12506" lon="19.5793">
        <ele>58.779998779297</ele>
        <time>2024-09-23T17:20:04.000Z</time>
      </trkpt>
      <trkpt lat="42.12502" lon="19.57924">
        <ele>59.259998321533</ele>
        <time>2024-09-23T17:20:05.000Z</time>
      </trkpt>
      <trkpt lat="42.12496" lon="19.57916">
        <ele>59.259998321533</ele>
        <time>2024-09-23T17:20:06.000Z</time>
      </trkpt>
      <trkpt lat="42.12487" lon="19.57906">
        <ele>59.259998321533</ele>
        <time>2024-09-23T17:20:07.000Z</time>
      </trkpt>
      <trkpt lat="42.12446" lon="19.57868">
        <ele>57.819999694824</ele>
        <time>2024-09-23T17:20:12.000Z</time>
      </trkpt>
      <trkpt lat="42.12422" lon="19.57847">
        <ele>57.819999694824</ele>
        <time>2024-09-23T17:20:15.000Z</time>
      </trkpt>
      <trkpt lat="42.12406" lon="19.57831">
        <ele>57.819999694824</ele>
        <time>2024-09-23T17:20:17.000Z</time>
      </trkpt>
      <trkpt lat="42.12395" lon="19.5782">
        <ele>58.299999237061</ele>
        <time>2024-09-23T17:20:19.000Z</time>
      </trkpt>
      <trkpt lat="42.12382" lon="19.57807">
        <ele>58.779998779297</ele>
        <time>2024-09-23T17:20:22.000Z</time>
      </trkpt>
      <trkpt lat="42.12378" lon="19.57804">
        <ele>58.779998779297</ele>
        <time>2024-09-23T17:20:23.000Z</time>
      </trkpt>
      <trkpt lat="42.12373" lon="19.57801">
        <ele>58.779998779297</ele>
        <time>2024-09-23T17:20:24.000Z</time>
      </trkpt>
      <trkpt lat="42.12363" lon="19.57799">
        <ele>58.779998779297</ele>
        <time>2024-09-23T17:20:25.000Z</time>
      </trkpt>
      <trkpt lat="42.12359" lon="19.57798">
        <ele>58.779998779297</ele>
        <time>2024-09-23T17:20:26.000Z</time>
      </trkpt>
      <trkpt lat="42.12326" lon="19.57791">
        <ele>57.819999694824</ele>
        <time>2024-09-23T17:20:29.000Z</time>
      </trkpt>
      <trkpt lat="42.12319" lon="19.57789">
        <ele>57.819999694824</ele>
        <time>2024-09-23T17:20:30.000Z</time>
      </trkpt>
      <trkpt lat="42.12308" lon="19.57786">
        <ele>57.819999694824</ele>
        <time>2024-09-23T17:20:31.000Z</time>
      </trkpt>
      <trkpt lat="42.12211" lon="19.57742">
        <ele>62.139999389648</ele>
        <time>2024-09-23T17:20:38.000Z</time>
      </trkpt>
      <trkpt lat="42.12209" lon="19.57741">
        <ele>62.139999389648</ele>
        <time>2024-09-23T17:20:39.000Z</time>
      </trkpt>
      <trkpt lat="42.12199" lon="19.57734">
        <ele>62.619998931885</ele>
        <time>2024-09-23T17:20:40.000Z</time>
      </trkpt>
      <trkpt lat="42.12124" lon="19.57668">
        <ele>64.069999694824</ele>
        <time>2024-09-23T17:20:47.000Z</time>
      </trkpt>
      <trkpt lat="42.12106" lon="19.57651">
        <ele>64.069999694824</ele>
        <time>2024-09-23T17:20:49.000Z</time>
      </trkpt>
      <trkpt lat="42.12099" lon="19.57645">
        <ele>64.550003051758</ele>
        <time>2024-09-23T17:20:50.000Z</time>
      </trkpt>
      <trkpt lat="42.12091" lon="19.57638">
        <ele>64.550003051758</ele>
        <time>2024-09-23T17:20:51.000Z</time>
      </trkpt>
      <trkpt lat="42.12085" lon="19.57633">
        <ele>64.550003051758</ele>
        <time>2024-09-23T17:20:52.000Z</time>
      </trkpt>
      <trkpt lat="42.12075" lon="19.57626">
        <ele>64.550003051758</ele>
        <time>2024-09-23T17:20:53.000Z</time>
      </trkpt>
      <trkpt lat="42.12031" lon="19.57607">
        <ele>64.550003051758</ele>
        <time>2024-09-23T17:20:58.000Z</time>
      </trkpt>
      <trkpt lat="42.12025" lon="19.57605">
        <ele>65.029998779297</ele>
        <time>2024-09-23T17:20:59.000Z</time>
      </trkpt>
      <trkpt lat="42.12019" lon="19.57604">
        <ele>65.029998779297</ele>
        <time>2024-09-23T17:21:00.000Z</time>
      </trkpt>
      <trkpt lat="42.12013" lon="19.57606">
        <ele>65.029998779297</ele>
        <time>2024-09-23T17:21:01.000Z</time>
      </trkpt>
      <trkpt lat="42.12" lon="19.57613">
        <ele>65.029998779297</ele>
        <time>2024-09-23T17:21:03.000Z</time>
      </trkpt>
      <trkpt lat="42.11992" lon="19.57616">
        <ele>65.029998779297</ele>
        <time>2024-09-23T17:21:04.000Z</time>
      </trkpt>
      <trkpt lat="42.11979" lon="19.57617">
        <ele>64.069999694824</ele>
        <time>2024-09-23T17:21:05.000Z</time>
      </trkpt>
      <trkpt lat="42.11974" lon="19.57617">
        <ele>64.069999694824</ele>
        <time>2024-09-23T17:21:06.000Z</time>
      </trkpt>
      <trkpt lat="42.11963" lon="19.57616">
        <ele>64.069999694824</ele>
        <time>2024-09-23T17:21:07.000Z</time>
      </trkpt>
      <trkpt lat="42.11929" lon="19.57607">
        <ele>64.550003051758</ele>
        <time>2024-09-23T17:21:10.000Z</time>
      </trkpt>
      <trkpt lat="42.1192" lon="19.57606">
        <ele>64.550003051758</ele>
        <time>2024-09-23T17:21:11.000Z</time>
      </trkpt>
      <trkpt lat="42.11842" lon="19.57603">
        <ele>64.069999694824</ele>
        <time>2024-09-23T17:21:17.000Z</time>
      </trkpt>
      <trkpt lat="42.11839" lon="19.57603">
        <ele>64.069999694824</ele>
        <time>2024-09-23T17:21:18.000Z</time>
      </trkpt>
      <trkpt lat="42.11827" lon="19.57601">
        <ele>64.069999694824</ele>
        <time>2024-09-23T17:21:19.000Z</time>
      </trkpt>
      <trkpt lat="42.1171" lon="19.57559">
        <ele>64.069999694824</ele>
        <time>2024-09-23T17:21:29.000Z</time>
      </trkpt>
      <trkpt lat="42.11669" lon="19.57544">
        <ele>63.580001831055</ele>
        <time>2024-09-23T17:21:33.000Z</time>
      </trkpt>
      <trkpt lat="42.11659" lon="19.57539">
        <ele>63.580001831055</ele>
        <time>2024-09-23T17:21:35.000Z</time>
      </trkpt>
      <trkpt lat="42.1165" lon="19.57534">
        <ele>63.580001831055</ele>
        <time>2024-09-23T17:21:36.000Z</time>
      </trkpt>
      <trkpt lat="42.11644" lon="19.57531">
        <ele>63.580001831055</ele>
        <time>2024-09-23T17:21:37.000Z</time>
      </trkpt>
      <trkpt lat="42.11638" lon="19.57526">
        <ele>63.580001831055</ele>
        <time>2024-09-23T17:21:38.000Z</time>
      </trkpt>
      <trkpt lat="42.11634" lon="19.57524">
        <ele>63.580001831055</ele>
        <time>2024-09-23T17:21:39.000Z</time>
      </trkpt>
      <trkpt lat="42.11627" lon="19.57517">
        <ele>63.580001831055</ele>
        <time>2024-09-23T17:21:40.000Z</time>
      </trkpt>
      <trkpt lat="42.11621" lon="19.5751">
        <ele>63.580001831055</ele>
        <time>2024-09-23T17:21:41.000Z</time>
      </trkpt>
      <trkpt lat="42.11617" lon="19.57505">
        <ele>63.580001831055</ele>
        <time>2024-09-23T17:21:42.000Z</time>
      </trkpt>
      <trkpt lat="42.11606" lon="19.57494">
        <ele>64.550003051758</ele>
        <time>2024-09-23T17:21:44.000Z</time>
      </trkpt>
      <trkpt lat="42.1159" lon="19.57476">
        <ele>65.029998779297</ele>
        <time>2024-09-23T17:21:47.000Z</time>
      </trkpt>
      <trkpt lat="42.11588" lon="19.57474">
        <ele>64.550003051758</ele>
        <time>2024-09-23T17:21:48.000Z</time>
      </trkpt>
      <trkpt lat="42.11581" lon="19.57468">
        <ele>64.550003051758</ele>
        <time>2024-09-23T17:21:49.000Z</time>
      </trkpt>
      <trkpt lat="42.11568" lon="19.57457">
        <ele>64.550003051758</ele>
        <time>2024-09-23T17:21:51.000Z</time>
      </trkpt>
      <trkpt lat="42.11558" lon="19.57448">
        <ele>64.550003051758</ele>
        <time>2024-09-23T17:21:52.000Z</time>
      </trkpt>
      <trkpt lat="42.11552" lon="19.57444">
        <ele>64.550003051758</ele>
        <time>2024-09-23T17:21:53.000Z</time>
      </trkpt>
      <trkpt lat="42.11522" lon="19.57424">
        <ele>64.069999694824</ele>
        <time>2024-09-23T17:21:57.000Z</time>
      </trkpt>
      <trkpt lat="42.11516" lon="19.57421">
        <ele>64.069999694824</ele>
        <time>2024-09-23T17:21:58.000Z</time>
      </trkpt>
      <trkpt lat="42.11509" lon="19.57419">
        <ele>63.580001831055</ele>
        <time>2024-09-23T17:21:59.000Z</time>
      </trkpt>
      <trkpt lat="42.11503" lon="19.57416">
        <ele>63.580001831055</ele>
        <time>2024-09-23T17:22:00.000Z</time>
      </trkpt>
      <trkpt lat="42.11498" lon="19.57413">
        <ele>63.580001831055</ele>
        <time>2024-09-23T17:22:01.000Z</time>
      </trkpt>
      <trkpt lat="42.11492" lon="19.57411">
        <ele>63.580001831055</ele>
        <time>2024-09-23T17:22:02.000Z</time>
      </trkpt>
      <trkpt lat="42.11489" lon="19.57409">
        <ele>63.580001831055</ele>
        <time>2024-09-23T17:22:03.000Z</time>
      </trkpt>
      <trkpt lat="42.11482" lon="19.57406">
        <ele>63.099998474121</ele>
        <time>2024-09-23T17:22:04.000Z</time>
      </trkpt>
      <trkpt lat="42.11479" lon="19.57404">
        <ele>63.099998474121</ele>
        <time>2024-09-23T17:22:05.000Z</time>
      </trkpt>
      <trkpt lat="42.11473" lon="19.57401">
        <ele>63.099998474121</ele>
        <time>2024-09-23T17:22:06.000Z</time>
      </trkpt>
      <trkpt lat="42.11468" lon="19.57399">
        <ele>63.099998474121</ele>
        <time>2024-09-23T17:22:07.000Z</time>
      </trkpt>
      <trkpt lat="42.11458" lon="19.57395">
        <ele>62.619998931885</ele>
        <time>2024-09-23T17:22:09.000Z</time>
      </trkpt>
      <trkpt lat="42.11452" lon="19.57393">
        <ele>62.139999389648</ele>
        <time>2024-09-23T17:22:10.000Z</time>
      </trkpt>
      <trkpt lat="42.11449" lon="19.5739">
        <ele>62.139999389648</ele>
        <time>2024-09-23T17:22:11.000Z</time>
      </trkpt>
      <trkpt lat="42.11425" lon="19.57381">
        <ele>64.069999694824</ele>
        <time>2024-09-23T17:22:18.000Z</time>
      </trkpt>
      <trkpt lat="42.11418" lon="19.57377">
        <ele>62.619998931885</ele>
        <time>2024-09-23T17:22:20.000Z</time>
      </trkpt>
      <trkpt lat="42.11414" lon="19.57375">
        <ele>63.099998474121</ele>
        <time>2024-09-23T17:22:21.000Z</time>
      </trkpt>
      <trkpt lat="42.11412" lon="19.57374">
        <ele>63.099998474121</ele>
        <time>2024-09-23T17:22:22.000Z</time>
      </trkpt>
      <trkpt lat="42.11406" lon="19.57371">
        <ele>63.580001831055</ele>
        <time>2024-09-23T17:22:23.000Z</time>
      </trkpt>
      <trkpt lat="42.11401" lon="19.57368">
        <ele>63.580001831055</ele>
        <time>2024-09-23T17:22:24.000Z</time>
      </trkpt>
      <trkpt lat="42.114" lon="19.57367">
        <ele>63.580001831055</ele>
        <time>2024-09-23T17:22:25.000Z</time>
      </trkpt>
      <trkpt lat="42.11396" lon="19.57365">
        <ele>63.580001831055</ele>
        <time>2024-09-23T17:22:26.000Z</time>
      </trkpt>
      <trkpt lat="42.11373" lon="19.57349">
        <ele>64.550003051758</ele>
        <time>2024-09-23T17:22:32.000Z</time>
      </trkpt>
      <trkpt lat="42.11371" lon="19.57347">
        <ele>64.550003051758</ele>
        <time>2024-09-23T17:22:33.000Z</time>
      </trkpt>
      <trkpt lat="42.11375" lon="19.57358">
        <ele>57.44921875</ele>
        <time>1970-01-01T00:00:00.000Z</time>
      </trkpt>
      <trkpt lat="42.11416" lon="19.57418">
        <ele>54.515621185303</ele>
        <time>1970-01-01T00:00:00.000Z</time>
      </trkpt>
      <trkpt lat="42.11418" lon="19.57425">
        <ele>53.953121185303</ele>
        <time>1970-01-01T00:00:00.000Z</time>
      </trkpt>
      <trkpt lat="42.1142" lon="19.57435">
        <ele>52.953121185303</ele>
        <time>1970-01-01T00:00:00.000Z</time>
      </trkpt>
      <trkpt lat="42.11418" lon="19.57601">
        <ele>55.058589935303</ele>
        <time>1970-01-01T00:00:00.000Z</time>
      </trkpt>
      <trkpt lat="42.11459" lon="19.57633">
        <ele>55.84375</ele>
        <time>1970-01-01T00:00:00.000Z</time>
      </trkpt>
      <trkpt lat="42.1153" lon="19.57732">
        <ele>60.73046875</ele>
        <time>1970-01-01T00:00:00.000Z</time>
      </trkpt>
      <trkpt lat="42.1157" lon="19.57764">
        <ele>62.226558685303</ele>
        <time>1970-01-01T00:00:00.000Z</time>
      </trkpt>
      <trkpt lat="42.116" lon="19.57804">
        <ele>62.76171875</ele>
        <time>1970-01-01T00:00:00.000Z</time>
      </trkpt>
      <trkpt lat="42.11605" lon="19.57813">
        <ele>63.445308685303</ele>
        <time>1970-01-01T00:00:00.000Z</time>
      </trkpt>
      <trkpt lat="42.11611" lon="19.57822">
        <ele>63.964839935303</ele>
        <time>1970-01-01T00:00:00.000Z</time>
      </trkpt>
      <trkpt lat="42.11615" lon="19.5783">
        <ele>64.734382629395</ele>
        <time>1970-01-01T00:00:00.000Z</time>
      </trkpt>
      <trkpt lat="42.11626" lon="19.57867">
        <ele>68.76953125</ele>
        <time>1970-01-01T00:00:00.000Z</time>
      </trkpt>
      <trkpt lat="42.11639" lon="19.57886">
        <ele>69.4453125</ele>
        <time>1970-01-01T00:00:00.000Z</time>
      </trkpt>
      <trkpt lat="42.11671" lon="19.57914">
        <ele>67.1796875</ele>
        <time>1970-01-01T00:00:00.000Z</time>
      </trkpt>
      <trkpt lat="42.11688" lon="19.57923">
        <ele>65.671882629395</ele>
        <time>1970-01-01T00:00:00.000Z</time>
      </trkpt>
      <trkpt lat="42.11701" lon="19.57935">
        <ele>65.6171875</ele>
        <time>1970-01-01T00:00:00.000Z</time>
      </trkpt>
      <trkpt lat="42.11729" lon="19.57983">
        <ele>66.69921875</ele>
        <time>1970-01-01T00:00:00.000Z</time>
      </trkpt>
      <trkpt lat="42.11738" lon="19.57989">
        <ele>65.9453125</ele>
        <time>1970-01-01T00:00:00.000Z</time>
      </trkpt>
      <trkpt lat="42.11742" lon="19.57991">
        <ele>65.484382629395</ele>
        <time>1970-01-01T00:00:00.000Z</time>
      </trkpt>
      <trkpt lat="42.11753" lon="19.57993">
        <ele>64.05859375</ele>
        <time>1970-01-01T00:00:00.000Z</time>
      </trkpt>
      <trkpt lat="42.11759" lon="19.57991">
        <ele>62.890621185303</ele>
        <time>1970-01-01T00:00:00.000Z</time>
      </trkpt>
      <trkpt lat="42.11798" lon="19.57965">
        <ele>60.035160064697</ele>
        <time>1970-01-01T00:00:00.000Z</time>
      </trkpt>
      <trkpt lat="42.11804" lon="19.57963">
        <ele>60.007808685303</ele>
        <time>1970-01-01T00:00:00.000Z</time>
      </trkpt>
      <trkpt lat="42.11873" lon="19.5797">
        <ele>62.210941314697</ele>
        <time>1970-01-01T00:00:00.000Z</time>
      </trkpt>
      <trkpt lat="42.11886" lon="19.57968">
        <ele>62.359378814697</ele>
        <time>1970-01-01T00:00:00.000Z</time>
      </trkpt>
      <trkpt lat="42.11959" lon="19.57938">
        <ele>62.328121185303</ele>
        <time>1970-01-01T00:00:00.000Z</time>
      </trkpt>
      <trkpt lat="42.11991" lon="19.57938">
        <ele>63.539058685303</ele>
        <time>1970-01-01T00:00:00.000Z</time>
      </trkpt>
      <trkpt lat="42.1204" lon="19.57918">
        <ele>63.410160064697</ele>
        <time>1970-01-01T00:00:00.000Z</time>
      </trkpt>
      <trkpt lat="42.12087" lon="19.57916">
        <ele>64.671882629395</ele>
        <time>1970-01-01T00:00:00.000Z</time>
      </trkpt>
      <trkpt lat="42.12135" lon="19.57927">
        <ele>64.4296875</ele>
        <time>1970-01-01T00:00:00.000Z</time>
      </trkpt>
      <trkpt lat="42.12158" lon="19.57944">
        <ele>65.59375</ele>
        <time>1970-01-01T00:00:00.000Z</time>
      </trkpt>
      <trkpt lat="42.12169" lon="19.57948">
        <ele>65.7109375</ele>
        <time>1970-01-01T00:00:00.000Z</time>
      </trkpt>
      <trkpt lat="42.12195" lon="19.57953">
        <ele>64.7265625</ele>
        <time>1970-01-01T00:00:00.000Z</time>
      </trkpt>
      <trkpt lat="42.12287" lon="19.58013">
        <ele>65.0234375</ele>
        <time>1970-01-01T00:00:00.000Z</time>
      </trkpt>
      <trkpt lat="42.12377" lon="19.58131">
        <ele>71.3828125</ele>
        <time>1970-01-01T00:00:00.000Z</time>
      </trkpt>
      <trkpt lat="42.12392" lon="19.58159">
        <ele>71.23046875</ele>
        <time>1970-01-01T00:00:00.000Z</time>
      </trkpt>
      <trkpt lat="42.12435" lon="19.58268">
        <ele>67.5390625</ele>
        <time>1970-01-01T00:00:00.000Z</time>
      </trkpt>
      <trkpt lat="42.12444" lon="19.58317">
        <ele>70.40625</ele>
        <time>1970-01-01T00:00:00.000Z</time>
      </trkpt>
      <trkpt lat="42.12448" lon="19.5853">
        <ele>71.109382629395</ele>
        <time>1970-01-01T00:00:00.000Z</time>
      </trkpt>
      <trkpt lat="42.12429" lon="19.58678">
        <ele>68.5390625</ele>
        <time>1970-01-01T00:00:00.000Z</time>
      </trkpt>
      <trkpt lat="42.12422" lon="19.58693">
        <ele>70.296882629395</ele>
        <time>1970-01-01T00:00:00.000Z</time>
      </trkpt>
      <trkpt lat="42.12403" lon="19.58774">
        <ele>71.703117370605</ele>
        <time>1970-01-01T00:00:00.000Z</time>
      </trkpt>
      <trkpt lat="42.12379" lon="19.59032">
        <ele>68.03515625</ele>
        <time>1970-01-01T00:00:00.000Z</time>
      </trkpt>
      <trkpt lat="42.12336" lon="19.59161">
        <ele>67.3984375</ele>
        <time>1970-01-01T00:00:00.000Z</time>
      </trkpt>
      <trkpt lat="42.12169" lon="19.59294">
        <ele>69.51953125</ele>
        <time>1970-01-01T00:00:00.000Z</time>
      </trkpt>
      <trkpt lat="42.1215" lon="19.59322">
        <ele>72.39453125</ele>
        <time>1970-01-01T00:00:00.000Z</time>
      </trkpt>
      <trkpt lat="42.12115" lon="19.5941">
        <ele>66.33203125</ele>
        <time>1970-01-01T00:00:00.000Z</time>
      </trkpt>
      <trkpt lat="42.12117" lon="19.5942">
        <ele>65.51953125</ele>
        <time>1970-01-01T00:00:00.000Z</time>
      </trkpt>
      <trkpt lat="42.12152" lon="19.59506">
        <ele>62.34375</ele>
        <time>1970-01-01T00:00:00.000Z</time>
      </trkpt>
      <trkpt lat="42.1215" lon="19.59658">
        <ele>69.875</ele>
        <time>1970-01-01T00:00:00.000Z</time>
      </trkpt>
      <trkpt lat="42.12182" lon="19.59841">
        <ele>69.2578125</ele>
        <time>1970-01-01T00:00:00.000Z</time>
      </trkpt>
      <trkpt lat="42.12173" lon="19.59905">
        <ele>70.7109375</ele>
        <time>1970-01-01T00:00:00.000Z</time>
      </trkpt>
      <trkpt lat="42.12152" lon="19.59963">
        <ele>74.00390625</ele>
        <time>1970-01-01T00:00:00.000Z</time>
      </trkpt>
      <trkpt lat="42.12143" lon="19.60032">
        <ele>75.30078125</ele>
        <time>1970-01-01T00:00:00.000Z</time>
      </trkpt>
      <trkpt lat="42.12126" lon="19.60064">
        <ele>78.125</ele>
        <time>1970-01-01T00:00:00.000Z</time>
      </trkpt>
      <trkpt lat="42.12102" lon="19.60092">
        <ele>82.91015625</ele>
        <time>1970-01-01T00:00:00.000Z</time>
      </trkpt>
      <trkpt lat="42.12006" lon="19.60251">
        <ele>101.77339935303</ele>
        <time>1970-01-01T00:00:00.000Z</time>
      </trkpt>
      <trkpt lat="42.11972" lon="19.60291">
        <ele>104.96479797363</ele>
        <time>1970-01-01T00:00:00.000Z</time>
      </trkpt>
      <trkpt lat="42.11965" lon="19.60302">
        <ele>105.25</ele>
        <time>1970-01-01T00:00:00.000Z</time>
      </trkpt>
      <trkpt lat="42.11942" lon="19.60384">
        <ele>108.25</ele>
        <time>1970-01-01T00:00:00.000Z</time>
      </trkpt>
      <trkpt lat="42.11937" lon="19.60418">
        <ele>108.58200073242</ele>
        <time>1970-01-01T00:00:00.000Z</time>
      </trkpt>
      <trkpt lat="42.11937" lon="19.60448">
        <ele>109.99610137939</ele>
        <time>1970-01-01T00:00:00.000Z</time>
      </trkpt>
      <trkpt lat="42.11939" lon="19.60465">
        <ele>111.50389862061</ele>
        <time>1970-01-01T00:00:00.000Z</time>
      </trkpt>
      <trkpt lat="42.1195" lon="19.60497">
        <ele>115.61720275879</ele>
        <time>1970-01-01T00:00:00.000Z</time>
      </trkpt>
      <trkpt lat="42.11972" lon="19.6054">
        <ele>121</ele>
        <time>1970-01-01T00:00:00.000Z</time>
      </trkpt>
      <trkpt lat="42.11987" lon="19.60558">
        <ele>123.68360137939</ele>
        <time>1970-01-01T00:00:00.000Z</time>
      </trkpt>
      <trkpt lat="42.11993" lon="19.60573">
        <ele>124.02729797363</ele>
        <time>1970-01-01T00:00:00.000Z</time>
      </trkpt>
      <trkpt lat="42.12036" lon="19.60742">
        <ele>125.73049926758</ele>
        <time>1970-01-01T00:00:00.000Z</time>
      </trkpt>
      <trkpt lat="42.12049" lon="19.60774">
        <ele>127.6875</ele>
        <time>1970-01-01T00:00:00.000Z</time>
      </trkpt>
      <trkpt lat="42.12049" lon="19.60875">
        <ele>134.80470275879</ele>
        <time>1970-01-01T00:00:00.000Z</time>
      </trkpt>
      <trkpt lat="42.12047" lon="19.60884">
        <ele>135.74609375</ele>
        <time>1970-01-01T00:00:00.000Z</time>
      </trkpt>
      <trkpt lat="42.12012" lon="19.60922">
        <ele>143.59379577637</ele>
        <time>1970-01-01T00:00:00.000Z</time>
      </trkpt>
      <trkpt lat="42.11999" lon="19.60946">
        <ele>144.51559448242</ele>
        <time>1970-01-01T00:00:00.000Z</time>
      </trkpt>
      <trkpt lat="42.11984" lon="19.60963">
        <ele>142.41799926758</ele>
        <time>1970-01-01T00:00:00.000Z</time>
      </trkpt>
      <trkpt lat="42.11933" lon="19.61055">
        <ele>142.02729797363</ele>
        <time>1970-01-01T00:00:00.000Z</time>
      </trkpt>
      <trkpt lat="42.11914" lon="19.6115">
        <ele>162.47659301758</ele>
        <time>1970-01-01T00:00:00.000Z</time>
      </trkpt>
      <trkpt lat="42.11909" lon="19.61156">
        <ele>164.11329650879</ele>
        <time>1970-01-01T00:00:00.000Z</time>
      </trkpt>
      <trkpt lat="42.11903" lon="19.61163">
        <ele>166.23440551758</ele>
        <time>1970-01-01T00:00:00.000Z</time>
      </trkpt>
      <trkpt lat="42.1189" lon="19.61167">
        <ele>169.34379577637</ele>
        <time>1970-01-01T00:00:00.000Z</time>
      </trkpt>
      <trkpt lat="42.11866" lon="19.6116">
        <ele>172.42579650879</ele>
        <time>1970-01-01T00:00:00.000Z</time>
      </trkpt>
      <trkpt lat="42.11813" lon="19.6116">
        <ele>173.01950073242</ele>
        <time>1970-01-01T00:00:00.000Z</time>
      </trkpt>
      <trkpt lat="42.11783" lon="19.61182">
        <ele>176.36720275879</ele>
        <time>1970-01-01T00:00:00.000Z</time>
      </trkpt>
      <trkpt lat="42.11755" lon="19.61188">
        <ele>178.07809448242</ele>
        <time>1970-01-01T00:00:00.000Z</time>
      </trkpt>
      <trkpt lat="42.11748" lon="19.61195">
        <ele>180.08979797363</ele>
        <time>1970-01-01T00:00:00.000Z</time>
      </trkpt>
      <trkpt lat="42.11736" lon="19.61218">
        <ele>186.1875</ele>
        <time>1970-01-01T00:00:00.000Z</time>
      </trkpt>
      <trkpt lat="42.11721" lon="19.61229">
        <ele>189.84379577637</ele>
        <time>1970-01-01T00:00:00.000Z</time>
      </trkpt>
      <trkpt lat="42.11682" lon="19.61236">
        <ele>194.76950073242</ele>
        <time>1970-01-01T00:00:00.000Z</time>
      </trkpt>
      <trkpt lat="42.11663" lon="19.61231">
        <ele>196.48049926758</ele>
        <time>1970-01-01T00:00:00.000Z</time>
      </trkpt>
      <trkpt lat="42.11648" lon="19.61238">
        <ele>200.14840698242</ele>
        <time>1970-01-01T00:00:00.000Z</time>
      </trkpt>
      <trkpt lat="42.11635" lon="19.61253">
        <ele>204.22270202637</ele>
        <time>1970-01-01T00:00:00.000Z</time>
      </trkpt>
      <trkpt lat="42.11626" lon="19.61257">
        <ele>205.48440551758</ele>
        <time>1970-01-01T00:00:00.000Z</time>
      </trkpt>
      <trkpt lat="42.11609" lon="19.61276">
        <ele>207.9375</ele>
        <time>1970-01-01T00:00:00.000Z</time>
      </trkpt>
      <trkpt lat="42.11598" lon="19.61296">
        <ele>209.27340698242</ele>
        <time>1970-01-01T00:00:00.000Z</time>
      </trkpt>
      <trkpt lat="42.11594" lon="19.613">
        <ele>210.51170349121</ele>
        <time>1970-01-01T00:00:00.000Z</time>
      </trkpt>
      <trkpt lat="42.11587" lon="19.61302">
        <ele>212.21479797363</ele>
        <time>1970-01-01T00:00:00.000Z</time>
      </trkpt>
      <trkpt lat="42.11577" lon="19.61296">
        <ele>214.71479797363</ele>
        <time>1970-01-01T00:00:00.000Z</time>
      </trkpt>
      <trkpt lat="42.11575" lon="19.61289">
        <ele>215.05079650879</ele>
        <time>1970-01-01T00:00:00.000Z</time>
      </trkpt>
      <trkpt lat="42.11575" lon="19.61283">
        <ele>214.84379577637</ele>
        <time>1970-01-01T00:00:00.000Z</time>
      </trkpt>
      <trkpt lat="42.1159" lon="19.61231">
        <ele>209.23440551758</ele>
        <time>1970-01-01T00:00:00.000Z</time>
      </trkpt>
      <trkpt lat="42.11592" lon="19.6121">
        <ele>208.45700073242</ele>
        <time>1970-01-01T00:00:00.000Z</time>
      </trkpt>
      <trkpt lat="42.116" lon="19.61186">
        <ele>206.91020202637</ele>
        <time>1970-01-01T00:00:00.000Z</time>
      </trkpt>
      <trkpt lat="42.11609" lon="19.61178">
        <ele>204.61720275879</ele>
        <time>1970-01-01T00:00:00.000Z</time>
      </trkpt>
      <trkpt lat="42.11618" lon="19.61145">
        <ele>201.60940551758</ele>
        <time>1970-01-01T00:00:00.000Z</time>
      </trkpt>
      <trkpt lat="42.11611" lon="19.6109">
        <ele>200.32029724121</ele>
        <time>1970-01-01T00:00:00.000Z</time>
      </trkpt>
      <trkpt lat="42.11598" lon="19.6106">
        <ele>201.39059448242</ele>
        <time>1970-01-01T00:00:00.000Z</time>
      </trkpt>
      <trkpt lat="42.11592" lon="19.61051">
        <ele>199.80859375</ele>
        <time>1970-01-01T00:00:00.000Z</time>
      </trkpt>
      <trkpt lat="42.11587" lon="19.61047">
        <ele>198.58200073242</ele>
        <time>1970-01-01T00:00:00.000Z</time>
      </trkpt>
      <trkpt lat="42.11579" lon="19.61045">
        <ele>197.98049926758</ele>
        <time>1970-01-01T00:00:00.000Z</time>
      </trkpt>
      <trkpt lat="42.11572" lon="19.61045">
        <ele>197.98829650879</ele>
        <time>1970-01-01T00:00:00.000Z</time>
      </trkpt>
      <trkpt lat="42.11564" lon="19.61049">
        <ele>199.21479797363</ele>
        <time>1970-01-01T00:00:00.000Z</time>
      </trkpt>
      <trkpt lat="42.11553" lon="19.61057">
        <ele>201.36329650879</ele>
        <time>1970-01-01T00:00:00.000Z</time>
      </trkpt>
      <trkpt lat="42.1154" lon="19.61088">
        <ele>206.80859375</ele>
        <time>1970-01-01T00:00:00.000Z</time>
      </trkpt>
      <trkpt lat="42.11512" lon="19.61111">
        <ele>210.73829650879</ele>
        <time>1970-01-01T00:00:00.000Z</time>
      </trkpt>
      <trkpt lat="42.11506" lon="19.61122">
        <ele>209.71090698242</ele>
        <time>1970-01-01T00:00:00.000Z</time>
      </trkpt>
      <trkpt lat="42.11506" lon="19.61128">
        <ele>210.92190551758</ele>
        <time>1970-01-01T00:00:00.000Z</time>
      </trkpt>
      <trkpt lat="42.1151" lon="19.61145">
        <ele>215.89059448242</ele>
        <time>1970-01-01T00:00:00.000Z</time>
      </trkpt>
      <trkpt lat="42.1151" lon="19.61156">
        <ele>217.01950073242</ele>
        <time>1970-01-01T00:00:00.000Z</time>
      </trkpt>
      <trkpt lat="42.11506" lon="19.61171">
        <ele>216.21479797363</ele>
        <time>1970-01-01T00:00:00.000Z</time>
      </trkpt>
      <trkpt lat="42.11499" lon="19.61184">
        <ele>213.9375</ele>
        <time>1970-01-01T00:00:00.000Z</time>
      </trkpt>
      <trkpt lat="42.11482" lon="19.61255">
        <ele>210.62890625</ele>
        <time>1970-01-01T00:00:00.000Z</time>
      </trkpt>
      <trkpt lat="42.11482" lon="19.6127">
        <ele>211.89840698242</ele>
        <time>1970-01-01T00:00:00.000Z</time>
      </trkpt>
      <trkpt lat="42.11491" lon="19.613">
        <ele>218.22270202637</ele>
        <time>1970-01-01T00:00:00.000Z</time>
      </trkpt>
      <trkpt lat="42.11491" lon="19.61306">
        <ele>218.69140625</ele>
        <time>1970-01-01T00:00:00.000Z</time>
      </trkpt>
      <trkpt lat="42.11482" lon="19.61345">
        <ele>218.48049926758</ele>
        <time>1970-01-01T00:00:00.000Z</time>
      </trkpt>
      <trkpt lat="42.1148" lon="19.61388">
        <ele>221.58200073242</ele>
        <time>1970-01-01T00:00:00.000Z</time>
      </trkpt>
      <trkpt lat="42.11495" lon="19.61459">
        <ele>238.58590698242</ele>
        <time>1970-01-01T00:00:00.000Z</time>
      </trkpt>
      <trkpt lat="42.11495" lon="19.61489">
        <ele>244.75390625</ele>
        <time>1970-01-01T00:00:00.000Z</time>
      </trkpt>
      <trkpt lat="42.11489" lon="19.61506">
        <ele>245.94529724121</ele>
        <time>1970-01-01T00:00:00.000Z</time>
      </trkpt>
      <trkpt lat="42.11461" lon="19.61542">
        <ele>241.24609375</ele>
        <time>1970-01-01T00:00:00.000Z</time>
      </trkpt>
      <trkpt lat="42.11457" lon="19.61553">
        <ele>241.45700073242</ele>
        <time>1970-01-01T00:00:00.000Z</time>
      </trkpt>
      <trkpt lat="42.11457" lon="19.61566">
        <ele>243.70700073242</ele>
        <time>1970-01-01T00:00:00.000Z</time>
      </trkpt>
      <trkpt lat="42.11461" lon="19.61587">
        <ele>249.26170349121</ele>
        <time>1970-01-01T00:00:00.000Z</time>
      </trkpt>
      <trkpt lat="42.11478" lon="19.6162">
        <ele>261.6953125</ele>
        <time>1970-01-01T00:00:00.000Z</time>
      </trkpt>
      <trkpt lat="42.11478" lon="19.6163">
        <ele>263.28118896484</ele>
        <time>1970-01-01T00:00:00.000Z</time>
      </trkpt>
      <trkpt lat="42.11472" lon="19.6165">
        <ele>262.71090698242</ele>
        <time>1970-01-01T00:00:00.000Z</time>
      </trkpt>
      <trkpt lat="42.11452" lon="19.61667">
        <ele>256.29690551758</ele>
        <time>1970-01-01T00:00:00.000Z</time>
      </trkpt>
      <trkpt lat="42.11448" lon="19.61675">
        <ele>255.21090698242</ele>
        <time>1970-01-01T00:00:00.000Z</time>
      </trkpt>
      <trkpt lat="42.11444" lon="19.61692">
        <ele>254.92579650879</ele>
        <time>1970-01-01T00:00:00.000Z</time>
      </trkpt>
      <trkpt lat="42.11448" lon="19.61675">
        <ele>255.21090698242</ele>
        <time>1970-01-01T00:00:00.000Z</time>
      </trkpt>
      <trkpt lat="42.11452" lon="19.61667">
        <ele>256.29690551758</ele>
        <time>1970-01-01T00:00:00.000Z</time>
      </trkpt>
      <trkpt lat="42.11448" lon="19.61675">
        <ele>255.21090698242</ele>
        <time>1970-01-01T00:00:00.000Z</time>
      </trkpt>
      <trkpt lat="42.11444" lon="19.61695">
        <ele>254.90229797363</ele>
        <time>1970-01-01T00:00:00.000Z</time>
      </trkpt>
      <trkpt lat="42.11444" lon="19.61701">
        <ele>255.36720275879</ele>
        <time>1970-01-01T00:00:00.000Z</time>
      </trkpt>
      <trkpt lat="42.11452" lon="19.61733">
        <ele>260.28909301758</ele>
        <time>1970-01-01T00:00:00.000Z</time>
      </trkpt>
      <trkpt lat="42.11452" lon="19.61746">
        <ele>260.35940551758</ele>
        <time>1970-01-01T00:00:00.000Z</time>
      </trkpt>
      <trkpt lat="42.11459" lon="19.61789">
        <ele>263.26168823242</ele>
        <time>1970-01-01T00:00:00.000Z</time>
      </trkpt>
      <trkpt lat="42.11457" lon="19.61806">
        <ele>262.52340698242</ele>
        <time>1970-01-01T00:00:00.000Z</time>
      </trkpt>
      <trkpt lat="42.11461" lon="19.61886">
        <ele>266.91018676758</ele>
        <time>1970-01-01T00:00:00.000Z</time>
      </trkpt>
      <trkpt lat="42.11463" lon="19.61894">
        <ele>267.78118896484</ele>
        <time>1970-01-01T00:00:00.000Z</time>
      </trkpt>
      <trkpt lat="42.11482" lon="19.61927">
        <ele>274.97268676758</ele>
        <time>1970-01-01T00:00:00.000Z</time>
      </trkpt>
      <trkpt lat="42.11487" lon="19.61937">
        <ele>276.5703125</ele>
        <time>1970-01-01T00:00:00.000Z</time>
      </trkpt>
      <trkpt lat="42.11487" lon="19.61952">
        <ele>276.5703125</ele>
        <time>1970-01-01T00:00:00.000Z</time>
      </trkpt>
      <trkpt lat="42.11484" lon="19.61959">
        <ele>275.76950073242</ele>
        <time>1970-01-01T00:00:00.000Z</time>
      </trkpt>
      <trkpt lat="42.11472" lon="19.61984">
        <ele>269.5625</ele>
        <time>1970-01-01T00:00:00.000Z</time>
      </trkpt>
      <trkpt lat="42.11472" lon="19.62004">
        <ele>267.48831176758</ele>
        <time>1970-01-01T00:00:00.000Z</time>
      </trkpt>
      <trkpt lat="42.11474" lon="19.62012">
        <ele>267.22268676758</ele>
        <time>1970-01-01T00:00:00.000Z</time>
      </trkpt>
      <trkpt lat="42.1148" lon="19.62025">
        <ele>267.64059448242</ele>
        <time>1970-01-01T00:00:00.000Z</time>
      </trkpt>
      <trkpt lat="42.11493" lon="19.62038">
        <ele>269.5078125</ele>
        <time>1970-01-01T00:00:00.000Z</time>
      </trkpt>
      <trkpt lat="42.11512" lon="19.62038">
        <ele>274.64840698242</ele>
        <time>1970-01-01T00:00:00.000Z</time>
      </trkpt>
      <trkpt lat="42.11579" lon="19.62021">
        <ele>286.20309448242</ele>
        <time>1970-01-01T00:00:00.000Z</time>
      </trkpt>
      <trkpt lat="42.11585" lon="19.62021">
        <ele>286.94918823242</ele>
        <time>1970-01-01T00:00:00.000Z</time>
      </trkpt>
      <trkpt lat="42.11615" lon="19.62034">
        <ele>290.3046875</ele>
        <time>1970-01-01T00:00:00.000Z</time>
      </trkpt>
      <trkpt lat="42.11624" lon="19.6204">
        <ele>291.92190551758</ele>
        <time>1970-01-01T00:00:00.000Z</time>
      </trkpt>
      <trkpt lat="42.11641" lon="19.62062">
        <ele>293.26168823242</ele>
        <time>1970-01-01T00:00:00.000Z</time>
      </trkpt>
      <trkpt lat="42.1166" lon="19.62102">
        <ele>289.09381103516</ele>
        <time>1970-01-01T00:00:00.000Z</time>
      </trkpt>
      <trkpt lat="42.11667" lon="19.62109">
        <ele>289.88668823242</ele>
        <time>1970-01-01T00:00:00.000Z</time>
      </trkpt>
      <trkpt lat="42.11673" lon="19.62111">
        <ele>292.03518676758</ele>
        <time>1970-01-01T00:00:00.000Z</time>
      </trkpt>
      <trkpt lat="42.11686" lon="19.62105">
        <ele>299.00390625</ele>
        <time>1970-01-01T00:00:00.000Z</time>
      </trkpt>
      <trkpt lat="42.11705" lon="19.621">
        <ele>302.3125</ele>
        <time>1970-01-01T00:00:00.000Z</time>
      </trkpt>
      <trkpt lat="42.11718" lon="19.621">
        <ele>303.58981323242</ele>
        <time>1970-01-01T00:00:00.000Z</time>
      </trkpt>
      <trkpt lat="42.11727" lon="19.62102">
        <ele>303.6796875</ele>
        <time>1970-01-01T00:00:00.000Z</time>
      </trkpt>
      <trkpt lat="42.1174" lon="19.62109">
        <ele>302.58981323242</ele>
        <time>1970-01-01T00:00:00.000Z</time>
      </trkpt>
      <trkpt lat="42.11748" lon="19.62115">
        <ele>301</ele>
        <time>1970-01-01T00:00:00.000Z</time>
      </trkpt>
      <trkpt lat="42.11776" lon="19.62148">
        <ele>292.22659301758</ele>
        <time>1970-01-01T00:00:00.000Z</time>
      </trkpt>
      <trkpt lat="42.11813" lon="19.62171">
        <ele>292.91799926758</ele>
        <time>1970-01-01T00:00:00.000Z</time>
      </trkpt>
      <trkpt lat="42.11824" lon="19.62182">
        <ele>293.5</ele>
        <time>1970-01-01T00:00:00.000Z</time>
      </trkpt>
      <trkpt lat="42.11843" lon="19.62193">
        <ele>297.02731323242</ele>
        <time>1970-01-01T00:00:00.000Z</time>
      </trkpt>
      <trkpt lat="42.11849" lon="19.62195">
        <ele>298.57418823242</ele>
        <time>1970-01-01T00:00:00.000Z</time>
      </trkpt>
      <trkpt lat="42.11856" lon="19.62199">
        <ele>298.14840698242</ele>
        <time>1970-01-01T00:00:00.000Z</time>
      </trkpt>
      <trkpt lat="42.1186" lon="19.62203">
        <ele>297.60940551758</ele>
        <time>1970-01-01T00:00:00.000Z</time>
      </trkpt>
      <trkpt lat="42.11886" lon="19.62257">
        <ele>298.5</ele>
        <time>1970-01-01T00:00:00.000Z</time>
      </trkpt>
      <trkpt lat="42.11905" lon="19.62287">
        <ele>303.54690551758</ele>
        <time>1970-01-01T00:00:00.000Z</time>
      </trkpt>
      <trkpt lat="42.11909" lon="19.623">
        <ele>305.875</ele>
        <time>1970-01-01T00:00:00.000Z</time>
      </trkpt>
      <trkpt lat="42.11907" lon="19.62345">
        <ele>305.7578125</ele>
        <time>1970-01-01T00:00:00.000Z</time>
      </trkpt>
      <trkpt lat="42.11909" lon="19.62356">
        <ele>306.51559448242</ele>
        <time>1970-01-01T00:00:00.000Z</time>
      </trkpt>
      <trkpt lat="42.11942" lon="19.62392">
        <ele>318.41799926758</ele>
        <time>1970-01-01T00:00:00.000Z</time>
      </trkpt>
      <trkpt lat="42.11946" lon="19.62401">
        <ele>318.75390625</ele>
        <time>1970-01-01T00:00:00.000Z</time>
      </trkpt>
      <trkpt lat="42.11948" lon="19.62409">
        <ele>319.05081176758</ele>
        <time>1970-01-01T00:00:00.000Z</time>
      </trkpt>
      <trkpt lat="42.11948" lon="19.62457">
        <ele>319.47659301758</ele>
        <time>1970-01-01T00:00:00.000Z</time>
      </trkpt>
      <trkpt lat="42.11944" lon="19.6248">
        <ele>318.40618896484</ele>
        <time>1970-01-01T00:00:00.000Z</time>
      </trkpt>
      <trkpt lat="42.11944" lon="19.62493">
        <ele>318.67190551758</ele>
        <time>1970-01-01T00:00:00.000Z</time>
      </trkpt>
      <trkpt lat="42.11946" lon="19.62506">
        <ele>319.6953125</ele>
        <time>1970-01-01T00:00:00.000Z</time>
      </trkpt>
      <trkpt lat="42.11959" lon="19.62529">
        <ele>325.05081176758</ele>
        <time>1970-01-01T00:00:00.000Z</time>
      </trkpt>
      <trkpt lat="42.11961" lon="19.62544">
        <ele>326.38668823242</ele>
        <time>1970-01-01T00:00:00.000Z</time>
      </trkpt>
      <trkpt lat="42.11961" lon="19.62575">
        <ele>323.07418823242</ele>
        <time>1970-01-01T00:00:00.000Z</time>
      </trkpt>
      <trkpt lat="42.11965" lon="19.62585">
        <ele>322.95309448242</ele>
        <time>1970-01-01T00:00:00.000Z</time>
      </trkpt>
      <trkpt lat="42.12025" lon="19.62665">
        <ele>339.89059448242</ele>
        <time>1970-01-01T00:00:00.000Z</time>
      </trkpt>
      <trkpt lat="42.1203" lon="19.62673">
        <ele>340.95309448242</ele>
        <time>1970-01-01T00:00:00.000Z</time>
      </trkpt>
      <trkpt lat="42.12032" lon="19.62682">
        <ele>341.65231323242</ele>
        <time>1970-01-01T00:00:00.000Z</time>
      </trkpt>
      <trkpt lat="42.12032" lon="19.62693">
        <ele>341.98440551758</ele>
        <time>1970-01-01T00:00:00.000Z</time>
      </trkpt>
      <trkpt lat="42.12027" lon="19.62723">
        <ele>341.91018676758</ele>
        <time>1970-01-01T00:00:00.000Z</time>
      </trkpt>
      <trkpt lat="42.12027" lon="19.62761">
        <ele>345.90618896484</ele>
        <time>1970-01-01T00:00:00.000Z</time>
      </trkpt>
      <trkpt lat="42.12025" lon="19.62774">
        <ele>346.58981323242</ele>
        <time>1970-01-01T00:00:00.000Z</time>
      </trkpt>
      <trkpt lat="42.12019" lon="19.62791">
        <ele>346.3125</ele>
        <time>1970-01-01T00:00:00.000Z</time>
      </trkpt>
      <trkpt lat="42.12019" lon="19.62817">
        <ele>348.19918823242</ele>
        <time>1970-01-01T00:00:00.000Z</time>
      </trkpt>
      <trkpt lat="42.12006" lon="19.6289">
        <ele>345.52731323242</ele>
        <time>1970-01-01T00:00:00.000Z</time>
      </trkpt>
      <trkpt lat="42.12006" lon="19.6292">
        <ele>348.75</ele>
        <time>1970-01-01T00:00:00.000Z</time>
      </trkpt>
      <trkpt lat="42.11999" lon="19.62941">
        <ele>348.07809448242</ele>
        <time>1970-01-01T00:00:00.000Z</time>
      </trkpt>
      <trkpt lat="42.11995" lon="19.6295">
        <ele>347.11331176758</ele>
        <time>1970-01-01T00:00:00.000Z</time>
      </trkpt>
      <trkpt lat="42.11978" lon="19.62974">
        <ele>342.39450073242</ele>
        <time>1970-01-01T00:00:00.000Z</time>
      </trkpt>
      <trkpt lat="42.11974" lon="19.62989">
        <ele>342.07809448242</ele>
        <time>1970-01-01T00:00:00.000Z</time>
      </trkpt>
      <trkpt lat="42.11972" lon="19.6301">
        <ele>343.52731323242</ele>
        <time>1970-01-01T00:00:00.000Z</time>
      </trkpt>
      <trkpt lat="42.11965" lon="19.63034">
        <ele>344.29690551758</ele>
        <time>1970-01-01T00:00:00.000Z</time>
      </trkpt>
      <trkpt lat="42.11963" lon="19.63051">
        <ele>345.92190551758</ele>
        <time>1970-01-01T00:00:00.000Z</time>
      </trkpt>
      <trkpt lat="42.11937" lon="19.63085">
        <ele>345.00390625</ele>
        <time>1970-01-01T00:00:00.000Z</time>
      </trkpt>
      <trkpt lat="42.11927" lon="19.63096">
        <ele>344.08981323242</ele>
        <time>1970-01-01T00:00:00.000Z</time>
      </trkpt>
      <trkpt lat="42.11903" lon="19.63141">
        <ele>343.58200073242</ele>
        <time>1970-01-01T00:00:00.000Z</time>
      </trkpt>
      <trkpt lat="42.11884" lon="19.63158">
        <ele>339.29690551758</ele>
        <time>1970-01-01T00:00:00.000Z</time>
      </trkpt>
      <trkpt lat="42.11879" lon="19.6316">
        <ele>338.02340698242</ele>
        <time>1970-01-01T00:00:00.000Z</time>
      </trkpt>
      <trkpt lat="42.11864" lon="19.63177">
        <ele>333.66409301758</ele>
        <time>1970-01-01T00:00:00.000Z</time>
      </trkpt>
      <trkpt lat="42.11858" lon="19.63195">
        <ele>331.73049926758</ele>
        <time>1970-01-01T00:00:00.000Z</time>
      </trkpt>
      <trkpt lat="42.11856" lon="19.63208">
        <ele>331.14450073242</ele>
        <time>1970-01-01T00:00:00.000Z</time>
      </trkpt>
      <trkpt lat="42.11856" lon="19.63229">
        <ele>332.60940551758</ele>
        <time>1970-01-01T00:00:00.000Z</time>
      </trkpt>
      <trkpt lat="42.11864" lon="19.63263">
        <ele>340.8671875</ele>
        <time>1970-01-01T00:00:00.000Z</time>
      </trkpt>
      <trkpt lat="42.11861" lon="19.63268">
        <ele>339.98049926758</ele>
        <time>1970-01-01T00:00:00.000Z</time>
      </trkpt>
      <trkpt lat="42.11864" lon="19.63272">
        <ele>341.94918823242</ele>
        <time>1970-01-01T00:00:00.000Z</time>
      </trkpt>
      <trkpt lat="42.11858" lon="19.63298">
        <ele>342.82809448242</ele>
        <time>1970-01-01T00:00:00.000Z</time>
      </trkpt>
      <trkpt lat="42.11858" lon="19.63315">
        <ele>346.36331176758</ele>
        <time>1970-01-01T00:00:00.000Z</time>
      </trkpt>
      <trkpt lat="42.11856" lon="19.63326">
        <ele>348.34381103516</ele>
        <time>1970-01-01T00:00:00.000Z</time>
      </trkpt>
      <trkpt lat="42.11851" lon="19.63336">
        <ele>349.83590698242</ele>
        <time>1970-01-01T00:00:00.000Z</time>
      </trkpt>
      <trkpt lat="42.11845" lon="19.63338">
        <ele>347.89059448242</ele>
        <time>1970-01-01T00:00:00.000Z</time>
      </trkpt>
      <trkpt lat="42.11828" lon="19.63328">
        <ele>337.78118896484</ele>
        <time>1970-01-01T00:00:00.000Z</time>
      </trkpt>
      <trkpt lat="42.11821" lon="19.6333">
        <ele>335.70700073242</ele>
        <time>1970-01-01T00:00:00.000Z</time>
      </trkpt>
      <trkpt lat="42.11817" lon="19.63336">
        <ele>335.83200073242</ele>
        <time>1970-01-01T00:00:00.000Z</time>
      </trkpt>
      <trkpt lat="42.11789" lon="19.63366">
        <ele>334.14450073242</ele>
        <time>1970-01-01T00:00:00.000Z</time>
      </trkpt>
      <trkpt lat="42.11755" lon="19.63379">
        <ele>328.18359375</ele>
        <time>1970-01-01T00:00:00.000Z</time>
      </trkpt>
      <trkpt lat="42.11746" lon="19.63388">
        <ele>329.77340698242</ele>
        <time>1970-01-01T00:00:00.000Z</time>
      </trkpt>
      <trkpt lat="42.11736" lon="19.63394">
        <ele>330.70700073242</ele>
        <time>1970-01-01T00:00:00.000Z</time>
      </trkpt>
      <trkpt lat="42.11731" lon="19.63392">
        <ele>329.05859375</ele>
        <time>1970-01-01T00:00:00.000Z</time>
      </trkpt>
      <trkpt lat="42.11714" lon="19.63392">
        <ele>326.125</ele>
        <time>1970-01-01T00:00:00.000Z</time>
      </trkpt>
      <trkpt lat="42.11701" lon="19.63396">
        <ele>325.66799926758</ele>
        <time>1970-01-01T00:00:00.000Z</time>
      </trkpt>
      <trkpt lat="42.11686" lon="19.63407">
        <ele>327.32809448242</ele>
        <time>1970-01-01T00:00:00.000Z</time>
      </trkpt>
      <trkpt lat="42.11654" lon="19.63418">
        <ele>329.01168823242</ele>
        <time>1970-01-01T00:00:00.000Z</time>
      </trkpt>
      <trkpt lat="42.11633" lon="19.63416">
        <ele>326.91799926758</ele>
        <time>1970-01-01T00:00:00.000Z</time>
      </trkpt>
      <trkpt lat="42.11628" lon="19.63414">
        <ele>326.10940551758</ele>
        <time>1970-01-01T00:00:00.000Z</time>
      </trkpt>
      <trkpt lat="42.11607" lon="19.63392">
        <ele>320.84381103516</ele>
        <time>1970-01-01T00:00:00.000Z</time>
      </trkpt>
      <trkpt lat="42.11598" lon="19.63377">
        <ele>316.40231323242</ele>
        <time>1970-01-01T00:00:00.000Z</time>
      </trkpt>
      <trkpt lat="42.11583" lon="19.6336">
        <ele>306.8203125</ele>
        <time>1970-01-01T00:00:00.000Z</time>
      </trkpt>
      <trkpt lat="42.11575" lon="19.63358">
        <ele>303.4921875</ele>
        <time>1970-01-01T00:00:00.000Z</time>
      </trkpt>
      <trkpt lat="42.11568" lon="19.63362">
        <ele>302.47659301758</ele>
        <time>1970-01-01T00:00:00.000Z</time>
      </trkpt>
      <trkpt lat="42.11564" lon="19.63368">
        <ele>302.64840698242</ele>
        <time>1970-01-01T00:00:00.000Z</time>
      </trkpt>
      <trkpt lat="42.11562" lon="19.63381">
        <ele>305.05859375</ele>
        <time>1970-01-01T00:00:00.000Z</time>
      </trkpt>
      <trkpt lat="42.11557" lon="19.63519">
        <ele>333.27340698242</ele>
        <time>1970-01-01T00:00:00.000Z</time>
      </trkpt>
      <trkpt lat="42.11553" lon="19.63527">
        <ele>334.375</ele>
        <time>1970-01-01T00:00:00.000Z</time>
      </trkpt>
      <trkpt lat="42.11545" lon="19.63527">
        <ele>332.21881103516</ele>
        <time>1970-01-01T00:00:00.000Z</time>
      </trkpt>
      <trkpt lat="42.11532" lon="19.63521">
        <ele>327.21481323242</ele>
        <time>1970-01-01T00:00:00.000Z</time>
      </trkpt>
      <trkpt lat="42.11521" lon="19.6351">
        <ele>321.40231323242</ele>
        <time>1970-01-01T00:00:00.000Z</time>
      </trkpt>
      <trkpt lat="42.11508" lon="19.63486">
        <ele>312.69918823242</ele>
        <time>1970-01-01T00:00:00.000Z</time>
      </trkpt>
      <trkpt lat="42.11499" lon="19.63478">
        <ele>309.17581176758</ele>
        <time>1970-01-01T00:00:00.000Z</time>
      </trkpt>
      <trkpt lat="42.11487" lon="19.63474">
        <ele>306.35549926758</ele>
        <time>1970-01-01T00:00:00.000Z</time>
      </trkpt>
      <trkpt lat="42.11476" lon="19.6348">
        <ele>307.26950073242</ele>
        <time>1970-01-01T00:00:00.000Z</time>
      </trkpt>
      <trkpt lat="42.11472" lon="19.63486">
        <ele>308.99609375</ele>
        <time>1970-01-01T00:00:00.000Z</time>
      </trkpt>
      <trkpt lat="42.11467" lon="19.63491">
        <ele>310.04299926758</ele>
        <time>1970-01-01T00:00:00.000Z</time>
      </trkpt>
      <trkpt lat="42.11457" lon="19.63497">
        <ele>311.3125</ele>
        <time>1970-01-01T00:00:00.000Z</time>
      </trkpt>
      <trkpt lat="42.11422" lon="19.63499">
        <ele>307.33981323242</ele>
        <time>1970-01-01T00:00:00.000Z</time>
      </trkpt>
      <trkpt lat="42.11418" lon="19.63501">
        <ele>307.14059448242</ele>
        <time>1970-01-01T00:00:00.000Z</time>
      </trkpt>
      <trkpt lat="42.11377" lon="19.63534">
        <ele>309.3125</ele>
        <time>1970-01-01T00:00:00.000Z</time>
      </trkpt>
      <trkpt lat="42.11362" lon="19.6354">
        <ele>307.94918823242</ele>
        <time>1970-01-01T00:00:00.000Z</time>
      </trkpt>
      <trkpt lat="42.11356" lon="19.63547">
        <ele>308.6796875</ele>
        <time>1970-01-01T00:00:00.000Z</time>
      </trkpt>
      <trkpt lat="42.1133" lon="19.63589">
        <ele>316.7578125</ele>
        <time>1970-01-01T00:00:00.000Z</time>
      </trkpt>
      <trkpt lat="42.11321" lon="19.636">
        <ele>318.1875</ele>
        <time>1970-01-01T00:00:00.000Z</time>
      </trkpt>
      <trkpt lat="42.11315" lon="19.63604">
        <ele>318.04690551758</ele>
        <time>1970-01-01T00:00:00.000Z</time>
      </trkpt>
      <trkpt lat="42.11289" lon="19.63596">
        <ele>309.27731323242</ele>
        <time>1970-01-01T00:00:00.000Z</time>
      </trkpt>
      <trkpt lat="42.11281" lon="19.63598">
        <ele>307.94140625</ele>
        <time>1970-01-01T00:00:00.000Z</time>
      </trkpt>
      <trkpt lat="42.11266" lon="19.63609">
        <ele>308.29690551758</ele>
        <time>1970-01-01T00:00:00.000Z</time>
      </trkpt>
      <trkpt lat="42.11259" lon="19.63611">
        <ele>309.26559448242</ele>
        <time>1970-01-01T00:00:00.000Z</time>
      </trkpt>
      <trkpt lat="42.11251" lon="19.63609">
        <ele>309.02340698242</ele>
        <time>1970-01-01T00:00:00.000Z</time>
      </trkpt>
      <trkpt lat="42.11242" lon="19.63611">
        <ele>310.0625</ele>
        <time>1970-01-01T00:00:00.000Z</time>
      </trkpt>
      <trkpt lat="42.11236" lon="19.63615">
        <ele>311.58200073242</ele>
        <time>1970-01-01T00:00:00.000Z</time>
      </trkpt>
      <trkpt lat="42.11227" lon="19.63617">
        <ele>312.54690551758</ele>
        <time>1970-01-01T00:00:00.000Z</time>
      </trkpt>
      <trkpt lat="42.11223" lon="19.63615">
        <ele>312.1328125</ele>
        <time>1970-01-01T00:00:00.000Z</time>
      </trkpt>
      <trkpt lat="42.11199" lon="19.63585">
        <ele>305.54299926758</ele>
        <time>1970-01-01T00:00:00.000Z</time>
      </trkpt>
      <trkpt lat="42.11193" lon="19.63581">
        <ele>304.92581176758</ele>
        <time>1970-01-01T00:00:00.000Z</time>
      </trkpt>
      <trkpt lat="42.11184" lon="19.63579">
        <ele>305.01168823242</ele>
        <time>1970-01-01T00:00:00.000Z</time>
      </trkpt>
      <trkpt lat="42.11171" lon="19.63568">
        <ele>301.20309448242</ele>
        <time>1970-01-01T00:00:00.000Z</time>
      </trkpt>
      <trkpt lat="42.11137" lon="19.63521">
        <ele>287.4375</ele>
        <time>1970-01-01T00:00:00.000Z</time>
      </trkpt>
      <trkpt lat="42.11109" lon="19.6351">
        <ele>285.30081176758</ele>
        <time>1970-01-01T00:00:00.000Z</time>
      </trkpt>
      <trkpt lat="42.11103" lon="19.63504">
        <ele>284.5703125</ele>
        <time>1970-01-01T00:00:00.000Z</time>
      </trkpt>
      <trkpt lat="42.11083" lon="19.63471">
        <ele>279.39840698242</ele>
        <time>1970-01-01T00:00:00.000Z</time>
      </trkpt>
      <trkpt lat="42.11077" lon="19.63454">
        <ele>278.77731323242</ele>
        <time>1970-01-01T00:00:00.000Z</time>
      </trkpt>
      <trkpt lat="42.11066" lon="19.63448">
        <ele>278.44918823242</ele>
        <time>1970-01-01T00:00:00.000Z</time>
      </trkpt>
      <trkpt lat="42.10991" lon="19.6342">
        <ele>279.96090698242</ele>
        <time>1970-01-01T00:00:00.000Z</time>
      </trkpt>
      <trkpt lat="42.10974" lon="19.63426">
        <ele>277.41409301758</ele>
        <time>1970-01-01T00:00:00.000Z</time>
      </trkpt>
      <trkpt lat="42.10965" lon="19.63426">
        <ele>276.82809448242</ele>
        <time>1970-01-01T00:00:00.000Z</time>
      </trkpt>
      <trkpt lat="42.10961" lon="19.63424">
        <ele>277.10940551758</ele>
        <time>1970-01-01T00:00:00.000Z</time>
      </trkpt>
      <trkpt lat="42.10914" lon="19.63431">
        <ele>270.35549926758</ele>
        <time>1970-01-01T00:00:00.000Z</time>
      </trkpt>
      <trkpt lat="42.10899" lon="19.63429">
        <ele>268.69918823242</ele>
        <time>1970-01-01T00:00:00.000Z</time>
      </trkpt>
      <trkpt lat="42.10888" lon="19.63422">
        <ele>268.62109375</ele>
        <time>1970-01-01T00:00:00.000Z</time>
      </trkpt>
      <trkpt lat="42.10824" lon="19.63416">
        <ele>256.3671875</ele>
        <time>1970-01-01T00:00:00.000Z</time>
      </trkpt>
      <trkpt lat="42.10798" lon="19.63399">
        <ele>252.70700073242</ele>
        <time>1970-01-01T00:00:00.000Z</time>
      </trkpt>
      <trkpt lat="42.10794" lon="19.63392">
        <ele>252.82809448242</ele>
        <time>1970-01-01T00:00:00.000Z</time>
      </trkpt>
      <trkpt lat="42.10794" lon="19.63383">
        <ele>253.49609375</ele>
        <time>1970-01-01T00:00:00.000Z</time>
      </trkpt>
      <trkpt lat="42.10798" lon="19.63375">
        <ele>253.92190551758</ele>
        <time>1970-01-01T00:00:00.000Z</time>
      </trkpt>
      <trkpt lat="42.10804" lon="19.63368">
        <ele>255.14059448242</ele>
        <time>1970-01-01T00:00:00.000Z</time>
      </trkpt>
      <trkpt lat="42.10809" lon="19.63362">
        <ele>255.80470275879</ele>
        <time>1970-01-01T00:00:00.000Z</time>
      </trkpt>
      <trkpt lat="42.10809" lon="19.63356">
        <ele>255.29690551758</ele>
        <time>1970-01-01T00:00:00.000Z</time>
      </trkpt>
      <trkpt lat="42.10806" lon="19.63341">
        <ele>253.51170349121</ele>
        <time>1970-01-01T00:00:00.000Z</time>
      </trkpt>
      <trkpt lat="42.10802" lon="19.63334">
        <ele>251.76559448242</ele>
        <time>1970-01-01T00:00:00.000Z</time>
      </trkpt>
      <trkpt lat="42.10794" lon="19.63332">
        <ele>249.12109375</ele>
        <time>1970-01-01T00:00:00.000Z</time>
      </trkpt>
      <trkpt lat="42.10772" lon="19.63336">
        <ele>243.34770202637</ele>
        <time>1970-01-01T00:00:00.000Z</time>
      </trkpt>
      <trkpt lat="42.10761" lon="19.63334">
        <ele>240.75779724121</ele>
        <time>1970-01-01T00:00:00.000Z</time>
      </trkpt>
      <trkpt lat="42.10727" lon="19.63345">
        <ele>235.13670349121</ele>
        <time>1970-01-01T00:00:00.000Z</time>
      </trkpt>
      <trkpt lat="42.10693" lon="19.63347">
        <ele>228.58590698242</ele>
        <time>1970-01-01T00:00:00.000Z</time>
      </trkpt>
      <trkpt lat="42.10686" lon="19.63343">
        <ele>227.32809448242</ele>
        <time>1970-01-01T00:00:00.000Z</time>
      </trkpt>
      <trkpt lat="42.10658" lon="19.63334">
        <ele>224.08590698242</ele>
        <time>1970-01-01T00:00:00.000Z</time>
      </trkpt>
      <trkpt lat="42.10639" lon="19.63319">
        <ele>222.82420349121</ele>
        <time>1970-01-01T00:00:00.000Z</time>
      </trkpt>
      <trkpt lat="42.10626" lon="19.63304">
        <ele>222.77729797363</ele>
        <time>1970-01-01T00:00:00.000Z</time>
      </trkpt>
      <trkpt lat="42.10598" lon="19.63293">
        <ele>219.46090698242</ele>
        <time>1970-01-01T00:00:00.000Z</time>
      </trkpt>
      <trkpt lat="42.10581" lon="19.63293">
        <ele>218.53120422363</ele>
        <time>1970-01-01T00:00:00.000Z</time>
      </trkpt>
      <trkpt lat="42.10573" lon="19.63291">
        <ele>217.89450073242</ele>
        <time>1970-01-01T00:00:00.000Z</time>
      </trkpt>
      <trkpt lat="42.10553" lon="19.63278">
        <ele>216.29299926758</ele>
        <time>1970-01-01T00:00:00.000Z</time>
      </trkpt>
      <trkpt lat="42.10482" lon="19.63268">
        <ele>214.95309448242</ele>
        <time>1970-01-01T00:00:00.000Z</time>
      </trkpt>
      <trkpt lat="42.10403" lon="19.63289">
        <ele>209.93359375</ele>
        <time>1970-01-01T00:00:00.000Z</time>
      </trkpt>
      <trkpt lat="42.10401" lon="19.63296">
        <ele>209.36329650879</ele>
        <time>1970-01-01T00:00:00.000Z</time>
      </trkpt>
      <trkpt lat="42.10382" lon="19.63293">
        <ele>207.24220275879</ele>
        <time>1970-01-01T00:00:00.000Z</time>
      </trkpt>
      <trkpt lat="42.10362" lon="19.63287">
        <ele>205.44140625</ele>
        <time>1970-01-01T00:00:00.000Z</time>
      </trkpt>
      <trkpt lat="42.10356" lon="19.63287">
        <ele>204.71479797363</ele>
        <time>1970-01-01T00:00:00.000Z</time>
      </trkpt>
      <trkpt lat="42.10345" lon="19.63289">
        <ele>204.25390625</ele>
        <time>1970-01-01T00:00:00.000Z</time>
      </trkpt>
      <trkpt lat="42.10332" lon="19.63296">
        <ele>204.12890625</ele>
        <time>1970-01-01T00:00:00.000Z</time>
      </trkpt>
      <trkpt lat="42.10324" lon="19.63296">
        <ele>204.36720275879</ele>
        <time>1970-01-01T00:00:00.000Z</time>
      </trkpt>
      <trkpt lat="42.10317" lon="19.63298">
        <ele>204.35549926758</ele>
        <time>1970-01-01T00:00:00.000Z</time>
      </trkpt>
      <trkpt lat="42.10304" lon="19.63308">
        <ele>203.08590698242</ele>
        <time>1970-01-01T00:00:00.000Z</time>
      </trkpt>
      <trkpt lat="42.10244" lon="19.63334">
        <ele>192.85159301758</ele>
        <time>1970-01-01T00:00:00.000Z</time>
      </trkpt>
      <trkpt lat="42.10229" lon="19.63326">
        <ele>192.60549926758</ele>
        <time>1970-01-01T00:00:00.000Z</time>
      </trkpt>
      <trkpt lat="42.10223" lon="19.633">
        <ele>197.48049926758</ele>
        <time>1970-01-01T00:00:00.000Z</time>
      </trkpt>
      <trkpt lat="42.10216" lon="19.63291">
        <ele>197.79299926758</ele>
        <time>1970-01-01T00:00:00.000Z</time>
      </trkpt>
      <trkpt lat="42.10208" lon="19.63283">
        <ele>197.89450073242</ele>
        <time>1970-01-01T00:00:00.000Z</time>
      </trkpt>
      <trkpt lat="42.10186" lon="19.63272">
        <ele>196.72659301758</ele>
        <time>1970-01-01T00:00:00.000Z</time>
      </trkpt>
      <trkpt lat="42.10178" lon="19.63272">
        <ele>195.45309448242</ele>
        <time>1970-01-01T00:00:00.000Z</time>
      </trkpt>
      <trkpt lat="42.10169" lon="19.63274">
        <ele>193.77729797363</ele>
        <time>1970-01-01T00:00:00.000Z</time>
      </trkpt>
      <trkpt lat="42.10163" lon="19.63278">
        <ele>192.07809448242</ele>
        <time>1970-01-01T00:00:00.000Z</time>
      </trkpt>
      <trkpt lat="42.10137" lon="19.63319">
        <ele>181.52340698242</ele>
        <time>1970-01-01T00:00:00.000Z</time>
      </trkpt>
      <trkpt lat="42.10128" lon="19.63328">
        <ele>178.73829650879</ele>
        <time>1970-01-01T00:00:00.000Z</time>
      </trkpt>
      <trkpt lat="42.10122" lon="19.63332">
        <ele>177.11720275879</ele>
        <time>1970-01-01T00:00:00.000Z</time>
      </trkpt>
      <trkpt lat="42.10103" lon="19.63332">
        <ele>175.03120422363</ele>
        <time>1970-01-01T00:00:00.000Z</time>
      </trkpt>
      <trkpt lat="42.10088" lon="19.63317">
        <ele>173.62890625</ele>
        <time>1970-01-01T00:00:00.000Z</time>
      </trkpt>
      <trkpt lat="42.10083" lon="19.63308">
        <ele>173.95309448242</ele>
        <time>1970-01-01T00:00:00.000Z</time>
      </trkpt>
      <trkpt lat="42.10079" lon="19.63283">
        <ele>175.46090698242</ele>
        <time>1970-01-01T00:00:00.000Z</time>
      </trkpt>
      <trkpt lat="42.10079" lon="19.63272">
        <ele>176.49220275879</ele>
        <time>1970-01-01T00:00:00.000Z</time>
      </trkpt>
      <trkpt lat="42.1007" lon="19.63259">
        <ele>174.84379577637</ele>
        <time>1970-01-01T00:00:00.000Z</time>
      </trkpt>
      <trkpt lat="42.10058" lon="19.63257">
        <ele>170.71879577637</ele>
        <time>1970-01-01T00:00:00.000Z</time>
      </trkpt>
      <trkpt lat="42.10045" lon="19.6325">
        <ele>167.01170349121</ele>
        <time>1970-01-01T00:00:00.000Z</time>
      </trkpt>
      <trkpt lat="42.10004" lon="19.6321">
        <ele>157.83590698242</ele>
        <time>1970-01-01T00:00:00.000Z</time>
      </trkpt>
      <trkpt lat="42.1" lon="19.63201">
        <ele>157.07809448242</ele>
        <time>1970-01-01T00:00:00.000Z</time>
      </trkpt>
      <trkpt lat="42.09997" lon="19.63188">
        <ele>157.01950073242</ele>
        <time>1970-01-01T00:00:00.000Z</time>
      </trkpt>
      <trkpt lat="42.10004" lon="19.63165">
        <ele>159.71879577637</ele>
        <time>1970-01-01T00:00:00.000Z</time>
      </trkpt>
      <trkpt lat="42.10017" lon="19.63147">
        <ele>164.09379577637</ele>
        <time>1970-01-01T00:00:00.000Z</time>
      </trkpt>
      <trkpt lat="42.10025" lon="19.6313">
        <ele>168.06640625</ele>
        <time>1970-01-01T00:00:00.000Z</time>
      </trkpt>
      <trkpt lat="42.1003" lon="19.63126">
        <ele>169.85159301758</ele>
        <time>1970-01-01T00:00:00.000Z</time>
      </trkpt>
      <trkpt lat="42.10032" lon="19.6312">
        <ele>170.98829650879</ele>
        <time>1970-01-01T00:00:00.000Z</time>
      </trkpt>
      <trkpt lat="42.10028" lon="19.63109">
        <ele>170.30470275879</ele>
        <time>1970-01-01T00:00:00.000Z</time>
      </trkpt>
      <trkpt lat="42.10006" lon="19.6309">
        <ele>166.33590698242</ele>
        <time>1970-01-01T00:00:00.000Z</time>
      </trkpt>
      <trkpt lat="42.09993" lon="19.63085">
        <ele>164.02729797363</ele>
        <time>1970-01-01T00:00:00.000Z</time>
      </trkpt>
      <trkpt lat="42.09982" lon="19.63079">
        <ele>162.61329650879</ele>
        <time>1970-01-01T00:00:00.000Z</time>
      </trkpt>
      <trkpt lat="42.09952" lon="19.63094">
        <ele>153.80079650879</ele>
        <time>1970-01-01T00:00:00.000Z</time>
      </trkpt>
      <trkpt lat="42.09942" lon="19.63094">
        <ele>151.38279724121</ele>
        <time>1970-01-01T00:00:00.000Z</time>
      </trkpt>
      <trkpt lat="42.09935" lon="19.63092">
        <ele>150.36720275879</ele>
        <time>1970-01-01T00:00:00.000Z</time>
      </trkpt>
      <trkpt lat="42.09927" lon="19.63094">
        <ele>149.07029724121</ele>
        <time>1970-01-01T00:00:00.000Z</time>
      </trkpt>
      <trkpt lat="42.09901" lon="19.63085">
        <ele>148.34770202637</ele>
        <time>1970-01-01T00:00:00.000Z</time>
      </trkpt>
      <trkpt lat="42.09863" lon="19.63114">
        <ele>138.79299926758</ele>
        <time>1970-01-01T00:00:00.000Z</time>
      </trkpt>
      <trkpt lat="42.09901" lon="19.63085">
        <ele>148.34770202637</ele>
        <time>1970-01-01T00:00:00.000Z</time>
      </trkpt>
      <trkpt lat="42.09927" lon="19.63094">
        <ele>149.07029724121</ele>
        <time>1970-01-01T00:00:00.000Z</time>
      </trkpt>
      <trkpt lat="42.09935" lon="19.63092">
        <ele>150.36720275879</ele>
        <time>1970-01-01T00:00:00.000Z</time>
      </trkpt>
      <trkpt lat="42.09942" lon="19.63094">
        <ele>151.38279724121</ele>
        <time>1970-01-01T00:00:00.000Z</time>
      </trkpt>
      <trkpt lat="42.09952" lon="19.63094">
        <ele>153.80079650879</ele>
        <time>1970-01-01T00:00:00.000Z</time>
      </trkpt>
      <trkpt lat="42.09976" lon="19.63081">
        <ele>160.99220275879</ele>
        <time>1970-01-01T00:00:00.000Z</time>
      </trkpt>
      <trkpt lat="42.09982" lon="19.63079">
        <ele>162.61329650879</ele>
        <time>1970-01-01T00:00:00.000Z</time>
      </trkpt>
      <trkpt lat="42.09952" lon="19.63094">
        <ele>153.80079650879</ele>
        <time>1970-01-01T00:00:00.000Z</time>
      </trkpt>
      <trkpt lat="42.09942" lon="19.63094">
        <ele>151.38279724121</ele>
        <time>1970-01-01T00:00:00.000Z</time>
      </trkpt>
      <trkpt lat="42.09935" lon="19.63092">
        <ele>150.36720275879</ele>
        <time>1970-01-01T00:00:00.000Z</time>
      </trkpt>
      <trkpt lat="42.09927" lon="19.63094">
        <ele>149.07029724121</ele>
        <time>1970-01-01T00:00:00.000Z</time>
      </trkpt>
      <trkpt lat="42.09901" lon="19.63085">
        <ele>148.34770202637</ele>
        <time>1970-01-01T00:00:00.000Z</time>
      </trkpt>
      <trkpt lat="42.09843" lon="19.6313">
        <ele>132.12890625</ele>
        <time>1970-01-01T00:00:00.000Z</time>
      </trkpt>
      <trkpt lat="42.09826" lon="19.6313">
        <ele>127.61329650879</ele>
        <time>1970-01-01T00:00:00.000Z</time>
      </trkpt>
      <trkpt lat="42.09798" lon="19.63102">
        <ele>126.18360137939</ele>
        <time>1970-01-01T00:00:00.000Z</time>
      </trkpt>
      <trkpt lat="42.09781" lon="19.63074">
        <ele>127.71479797363</ele>
        <time>1970-01-01T00:00:00.000Z</time>
      </trkpt>
      <trkpt lat="42.09766" lon="19.63059">
        <ele>126.89450073242</ele>
        <time>1970-01-01T00:00:00.000Z</time>
      </trkpt>
      <trkpt lat="42.09759" lon="19.63049">
        <ele>126.32420349121</ele>
        <time>1970-01-01T00:00:00.000Z</time>
      </trkpt>
      <trkpt lat="42.09755" lon="19.63047">
        <ele>125.01170349121</ele>
        <time>1970-01-01T00:00:00.000Z</time>
      </trkpt>
      <trkpt lat="42.09751" lon="19.63051">
        <ele>122.96880340576</ele>
        <time>1970-01-01T00:00:00.000Z</time>
      </trkpt>
      <trkpt lat="42.09751" lon="19.63057">
        <ele>122.09380340576</ele>
        <time>1970-01-01T00:00:00.000Z</time>
      </trkpt>
      <trkpt lat="42.09755" lon="19.6307">
        <ele>121.38279724121</ele>
        <time>1970-01-01T00:00:00.000Z</time>
      </trkpt>
      <trkpt lat="42.09764" lon="19.63081">
        <ele>121.86720275879</ele>
        <time>1970-01-01T00:00:00.000Z</time>
      </trkpt>
      <trkpt lat="42.0977" lon="19.63092">
        <ele>121.26950073242</ele>
        <time>1970-01-01T00:00:00.000Z</time>
      </trkpt>
      <trkpt lat="42.09791" lon="19.6315">
        <ele>115.59770202637</ele>
        <time>1970-01-01T00:00:00.000Z</time>
      </trkpt>
      <trkpt lat="42.09794" lon="19.63162">
        <ele>114.57029724121</ele>
        <time>1970-01-01T00:00:00.000Z</time>
      </trkpt>
      <trkpt lat="42.09794" lon="19.63169">
        <ele>113.78119659424</ele>
        <time>1970-01-01T00:00:00.000Z</time>
      </trkpt>
      <trkpt lat="42.09789" lon="19.63173">
        <ele>112.21089935303</ele>
        <time>1970-01-01T00:00:00.000Z</time>
      </trkpt>
      <trkpt lat="42.09785" lon="19.63175">
        <ele>110.91020202637</ele>
        <time>1970-01-01T00:00:00.000Z</time>
      </trkpt>
      <trkpt lat="42.09776" lon="19.63173">
        <ele>109.07420349121</ele>
        <time>1970-01-01T00:00:00.000Z</time>
      </trkpt>
      <trkpt lat="42.09671" lon="19.62995">
        <ele>102.375</ele>
        <time>1970-01-01T00:00:00.000Z</time>
      </trkpt>
      <trkpt lat="42.09669" lon="19.62976">
        <ele>103.22270202637</ele>
        <time>1970-01-01T00:00:00.000Z</time>
      </trkpt>
      <trkpt lat="42.09661" lon="19.62954">
        <ele>103.21880340576</ele>
        <time>1970-01-01T00:00:00.000Z</time>
      </trkpt>
      <trkpt lat="42.09646" lon="19.62939">
        <ele>101.22660064697</ele>
        <time>1970-01-01T00:00:00.000Z</time>
      </trkpt>
      <trkpt lat="42.09643" lon="19.62933">
        <ele>101.07420349121</ele>
        <time>1970-01-01T00:00:00.000Z</time>
      </trkpt>
      <trkpt lat="42.09641" lon="19.62918">
        <ele>101.22270202637</ele>
        <time>1970-01-01T00:00:00.000Z</time>
      </trkpt>
      <trkpt lat="42.09646" lon="19.62894">
        <ele>103.24220275879</ele>
        <time>1970-01-01T00:00:00.000Z</time>
      </trkpt>
      <trkpt lat="42.09646" lon="19.62884">
        <ele>103.14450073242</ele>
        <time>1970-01-01T00:00:00.000Z</time>
      </trkpt>
      <trkpt lat="42.09639" lon="19.62866">
        <ele>99.79296875</ele>
        <time>1970-01-01T00:00:00.000Z</time>
      </trkpt>
      <trkpt lat="42.09639" lon="19.62856">
        <ele>98.74609375</ele>
        <time>1970-01-01T00:00:00.000Z</time>
      </trkpt>
      <trkpt lat="42.09643" lon="19.62845">
        <ele>98.64453125</ele>
        <time>1970-01-01T00:00:00.000Z</time>
      </trkpt>
      <trkpt lat="42.0965" lon="19.62841">
        <ele>99.60546875</ele>
        <time>1970-01-01T00:00:00.000Z</time>
      </trkpt>
      <trkpt lat="42.09658" lon="19.62841">
        <ele>101.46479797363</ele>
        <time>1970-01-01T00:00:00.000Z</time>
      </trkpt>
      <trkpt lat="42.09663" lon="19.62843">
        <ele>102.66020202637</ele>
        <time>1970-01-01T00:00:00.000Z</time>
      </trkpt>
      <trkpt lat="42.09669" lon="19.62841">
        <ele>103.79299926758</ele>
        <time>1970-01-01T00:00:00.000Z</time>
      </trkpt>
      <trkpt lat="42.09695" lon="19.62826">
        <ele>106.15619659424</ele>
        <time>1970-01-01T00:00:00.000Z</time>
      </trkpt>
      <trkpt lat="42.09706" lon="19.62826">
        <ele>107.32420349121</ele>
        <time>1970-01-01T00:00:00.000Z</time>
      </trkpt>
      <trkpt lat="42.0974" lon="19.62845">
        <ele>115.0625</ele>
        <time>1970-01-01T00:00:00.000Z</time>
      </trkpt>
      <trkpt lat="42.09749" lon="19.62843">
        <ele>115.72270202637</ele>
        <time>1970-01-01T00:00:00.000Z</time>
      </trkpt>
      <trkpt lat="42.09749" lon="19.62828">
        <ele>112.46089935303</ele>
        <time>1970-01-01T00:00:00.000Z</time>
      </trkpt>
      <trkpt lat="42.09746" lon="19.62808">
        <ele>108.07420349121</ele>
        <time>1970-01-01T00:00:00.000Z</time>
      </trkpt>
      <trkpt lat="42.09751" lon="19.62766">
        <ele>98.80078125</ele>
        <time>1970-01-01T00:00:00.000Z</time>
      </trkpt>
      <trkpt lat="42.09764" lon="19.62744">
        <ele>94.9296875</ele>
        <time>1970-01-01T00:00:00.000Z</time>
      </trkpt>
      <trkpt lat="42.09783" lon="19.62723">
        <ele>92.69140625</ele>
        <time>1970-01-01T00:00:00.000Z</time>
      </trkpt>
      <trkpt lat="42.09798" lon="19.62714">
        <ele>94.234382629395</ele>
        <time>1970-01-01T00:00:00.000Z</time>
      </trkpt>
      <trkpt lat="42.09832" lon="19.62705">
        <ele>98.359382629395</ele>
        <time>1970-01-01T00:00:00.000Z</time>
      </trkpt>
      <trkpt lat="42.09849" lon="19.62693">
        <ele>99</ele>
        <time>1970-01-01T00:00:00.000Z</time>
      </trkpt>
      <trkpt lat="42.09871" lon="19.62682">
        <ele>97.24609375</ele>
        <time>1970-01-01T00:00:00.000Z</time>
      </trkpt>
      <trkpt lat="42.09903" lon="19.62675">
        <ele>95.5390625</ele>
        <time>1970-01-01T00:00:00.000Z</time>
      </trkpt>
      <trkpt lat="42.09874" lon="19.62681">
        <ele>97.07421875</ele>
        <time>1970-01-01T00:00:00.000Z</time>
      </trkpt>
      <trkpt lat="42.09903" lon="19.62675">
        <ele>95.5390625</ele>
        <time>1970-01-01T00:00:00.000Z</time>
      </trkpt>
      <trkpt lat="42.09845" lon="19.62665">
        <ele>95.0859375</ele>
        <time>1970-01-01T00:00:00.000Z</time>
      </trkpt>
      <trkpt lat="42.09817" lon="19.62678">
        <ele>94.05078125</ele>
        <time>1970-01-01T00:00:00.000Z</time>
      </trkpt>
      <trkpt lat="42.09783" lon="19.62705">
        <ele>91.75390625</ele>
        <time>1970-01-01T00:00:00.000Z</time>
      </trkpt>
      <trkpt lat="42.0971" lon="19.62701">
        <ele>86.546882629395</ele>
        <time>1970-01-01T00:00:00.000Z</time>
      </trkpt>
      <trkpt lat="42.09691" lon="19.62705">
        <ele>85.25</ele>
        <time>1970-01-01T00:00:00.000Z</time>
      </trkpt>
      <trkpt lat="42.09671" lon="19.62716">
        <ele>84.328117370605</ele>
        <time>1970-01-01T00:00:00.000Z</time>
      </trkpt>
      <trkpt lat="42.09628" lon="19.62757">
        <ele>87.37109375</ele>
        <time>1970-01-01T00:00:00.000Z</time>
      </trkpt>
      <trkpt lat="42.09618" lon="19.62759">
        <ele>86.68359375</ele>
        <time>1970-01-01T00:00:00.000Z</time>
      </trkpt>
      <trkpt lat="42.096" lon="19.62768">
        <ele>85.6640625</ele>
        <time>1970-01-01T00:00:00.000Z</time>
      </trkpt>
      <trkpt lat="42.0959" lon="19.62776">
        <ele>85.75390625</ele>
        <time>1970-01-01T00:00:00.000Z</time>
      </trkpt>
      <trkpt lat="42.0959" lon="19.62763">
        <ele>85.37890625</ele>
        <time>1970-01-01T00:00:00.000Z</time>
      </trkpt>
      <trkpt lat="42.09594" lon="19.62742">
        <ele>84.7578125</ele>
        <time>1970-01-01T00:00:00.000Z</time>
      </trkpt>
      <trkpt lat="42.09594" lon="19.62727">
        <ele>84.28515625</ele>
        <time>1970-01-01T00:00:00.000Z</time>
      </trkpt>
      <trkpt lat="42.09581" lon="19.62712">
        <ele>85.08984375</ele>
        <time>1970-01-01T00:00:00.000Z</time>
      </trkpt>
      <trkpt lat="42.09594" lon="19.62727">
        <ele>84.28515625</ele>
        <time>1970-01-01T00:00:00.000Z</time>
      </trkpt>
      <trkpt lat="42.09594" lon="19.62742">
        <ele>84.7578125</ele>
        <time>1970-01-01T00:00:00.000Z</time>
      </trkpt>
      <trkpt lat="42.0959" lon="19.62763">
        <ele>85.37890625</ele>
        <time>1970-01-01T00:00:00.000Z</time>
      </trkpt>
      <trkpt lat="42.0959" lon="19.62776">
        <ele>85.75390625</ele>
        <time>1970-01-01T00:00:00.000Z</time>
      </trkpt>
      <trkpt lat="42.0959" lon="19.62763">
        <ele>85.37890625</ele>
        <time>1970-01-01T00:00:00.000Z</time>
      </trkpt>
      <trkpt lat="42.09594" lon="19.62742">
        <ele>84.7578125</ele>
        <time>1970-01-01T00:00:00.000Z</time>
      </trkpt>
      <trkpt lat="42.09594" lon="19.62727">
        <ele>84.28515625</ele>
        <time>1970-01-01T00:00:00.000Z</time>
      </trkpt>
      <trkpt lat="42.09523" lon="19.62647">
        <ele>86.26953125</ele>
        <time>1970-01-01T00:00:00.000Z</time>
      </trkpt>
      <trkpt lat="42.09457" lon="19.6262">
        <ele>81.0078125</ele>
        <time>1970-01-01T00:00:00.000Z</time>
      </trkpt>
      <trkpt lat="42.0944" lon="19.62605">
        <ele>80.89453125</ele>
        <time>1970-01-01T00:00:00.000Z</time>
      </trkpt>
      <trkpt lat="42.09431" lon="19.62602">
        <ele>81.234382629395</ele>
        <time>1970-01-01T00:00:00.000Z</time>
      </trkpt>
      <trkpt lat="42.09414" lon="19.62594">
        <ele>84.39453125</ele>
        <time>1970-01-01T00:00:00.000Z</time>
      </trkpt>
      <trkpt lat="42.09405" lon="19.62585">
        <ele>86.09375</ele>
        <time>1970-01-01T00:00:00.000Z</time>
      </trkpt>
      <trkpt lat="42.09392" lon="19.62566">
        <ele>88.45703125</ele>
        <time>1970-01-01T00:00:00.000Z</time>
      </trkpt>
      <trkpt lat="42.09386" lon="19.62551">
        <ele>90.7109375</ele>
        <time>1970-01-01T00:00:00.000Z</time>
      </trkpt>
      <trkpt lat="42.09379" lon="19.62562">
        <ele>89.4765625</ele>
        <time>1970-01-01T00:00:00.000Z</time>
      </trkpt>
      <trkpt lat="42.09371" lon="19.62568">
        <ele>89.93359375</ele>
        <time>1970-01-01T00:00:00.000Z</time>
      </trkpt>
      <trkpt lat="42.09358" lon="19.62566">
        <ele>90.859382629395</ele>
        <time>1970-01-01T00:00:00.000Z</time>
      </trkpt>
      <trkpt lat="42.09347" lon="19.62562">
        <ele>90.4921875</ele>
        <time>1970-01-01T00:00:00.000Z</time>
      </trkpt>
      <trkpt lat="42.09328" lon="19.6256">
        <ele>87.46875</ele>
        <time>1970-01-01T00:00:00.000Z</time>
      </trkpt>
      <trkpt lat="42.09287" lon="19.62572">
        <ele>84.09765625</ele>
        <time>1970-01-01T00:00:00.000Z</time>
      </trkpt>
      <trkpt lat="42.09279" lon="19.62568">
        <ele>82.06640625</ele>
        <time>1970-01-01T00:00:00.000Z</time>
      </trkpt>
      <trkpt lat="42.09272" lon="19.62538">
        <ele>81.9375</ele>
        <time>1970-01-01T00:00:00.000Z</time>
      </trkpt>
      <trkpt lat="42.09195" lon="19.62437">
        <ele>88.15234375</ele>
        <time>1970-01-01T00:00:00.000Z</time>
      </trkpt>
      <trkpt lat="42.09182" lon="19.62414">
        <ele>87.71875</ele>
        <time>1970-01-01T00:00:00.000Z</time>
      </trkpt>
      <trkpt lat="42.09165" lon="19.62405">
        <ele>85.76171875</ele>
        <time>1970-01-01T00:00:00.000Z</time>
      </trkpt>
      <trkpt lat="42.09146" lon="19.62377">
        <ele>82.92578125</ele>
        <time>1970-01-01T00:00:00.000Z</time>
      </trkpt>
      <trkpt lat="42.09141" lon="19.62345">
        <ele>82.296882629395</ele>
        <time>1970-01-01T00:00:00.000Z</time>
      </trkpt>
      <trkpt lat="42.09133" lon="19.62326">
        <ele>80.91015625</ele>
        <time>1970-01-01T00:00:00.000Z</time>
      </trkpt>
      <trkpt lat="42.09135" lon="19.62313">
        <ele>81.41796875</ele>
        <time>1970-01-01T00:00:00.000Z</time>
      </trkpt>
      <trkpt lat="42.09135" lon="19.62281">
        <ele>82.14453125</ele>
        <time>1970-01-01T00:00:00.000Z</time>
      </trkpt>
      <trkpt lat="42.09139" lon="19.62261">
        <ele>83.203117370605</ele>
        <time>1970-01-01T00:00:00.000Z</time>
      </trkpt>
      <trkpt lat="42.09139" lon="19.62246">
        <ele>83.54296875</ele>
        <time>1970-01-01T00:00:00.000Z</time>
      </trkpt>
      <trkpt lat="42.09133" lon="19.62201">
        <ele>84.70703125</ele>
        <time>1970-01-01T00:00:00.000Z</time>
      </trkpt>
      <trkpt lat="42.09109" lon="19.62158">
        <ele>84.734382629395</ele>
        <time>1970-01-01T00:00:00.000Z</time>
      </trkpt>
      <trkpt lat="42.09101" lon="19.62163">
        <ele>83.69921875</ele>
        <time>1970-01-01T00:00:00.000Z</time>
      </trkpt>
      <trkpt lat="42.0909" lon="19.62178">
        <ele>82.140617370605</ele>
        <time>1970-01-01T00:00:00.000Z</time>
      </trkpt>
      <trkpt lat="42.09081" lon="19.62182">
        <ele>81.234382629395</ele>
        <time>1970-01-01T00:00:00.000Z</time>
      </trkpt>
      <trkpt lat="42.0907" lon="19.62171">
        <ele>81.046882629395</ele>
        <time>1970-01-01T00:00:00.000Z</time>
      </trkpt>
      <trkpt lat="42.0906" lon="19.62141">
        <ele>82.2421875</ele>
        <time>1970-01-01T00:00:00.000Z</time>
      </trkpt>
      <trkpt lat="42.09036" lon="19.62111">
        <ele>84.90234375</ele>
        <time>1970-01-01T00:00:00.000Z</time>
      </trkpt>
      <trkpt lat="42.09032" lon="19.62092">
        <ele>87.4296875</ele>
        <time>1970-01-01T00:00:00.000Z</time>
      </trkpt>
      <trkpt lat="42.09036" lon="19.62075">
        <ele>90.16015625</ele>
        <time>1970-01-01T00:00:00.000Z</time>
      </trkpt>
      <trkpt lat="42.09032" lon="19.62057">
        <ele>92.375</ele>
        <time>1970-01-01T00:00:00.000Z</time>
      </trkpt>
      <trkpt lat="42.09019" lon="19.62045">
        <ele>95.14453125</ele>
        <time>1970-01-01T00:00:00.000Z</time>
      </trkpt>
      <trkpt lat="42.09006" lon="19.62045">
        <ele>96.4609375</ele>
        <time>1970-01-01T00:00:00.000Z</time>
      </trkpt>
      <trkpt lat="42.08963" lon="19.62077">
        <ele>93.40625</ele>
        <time>1970-01-01T00:00:00.000Z</time>
      </trkpt>
      <trkpt lat="42.0892" lon="19.62079">
        <ele>95.28515625</ele>
        <time>1970-01-01T00:00:00.000Z</time>
      </trkpt>
      <trkpt lat="42.08903" lon="19.62085">
        <ele>94.140617370605</ele>
        <time>1970-01-01T00:00:00.000Z</time>
      </trkpt>
      <trkpt lat="42.08884" lon="19.62085">
        <ele>94.4453125</ele>
        <time>1970-01-01T00:00:00.000Z</time>
      </trkpt>
      <trkpt lat="42.08869" lon="19.62079">
        <ele>95.671882629395</ele>
        <time>1970-01-01T00:00:00.000Z</time>
      </trkpt>
      <trkpt lat="42.08856" lon="19.62068">
        <ele>97.234382629395</ele>
        <time>1970-01-01T00:00:00.000Z</time>
      </trkpt>
      <trkpt lat="42.08839" lon="19.62072">
        <ele>97.15625</ele>
        <time>1970-01-01T00:00:00.000Z</time>
      </trkpt>
      <trkpt lat="42.08822" lon="19.62081">
        <ele>97.05078125</ele>
        <time>1970-01-01T00:00:00.000Z</time>
      </trkpt>
      <trkpt lat="42.08764" lon="19.62128">
        <ele>99.046882629395</ele>
        <time>1970-01-01T00:00:00.000Z</time>
      </trkpt>
      <trkpt lat="42.08742" lon="19.62137">
        <ele>99.26171875</ele>
        <time>1970-01-01T00:00:00.000Z</time>
      </trkpt>
      <trkpt lat="42.08727" lon="19.62126">
        <ele>98.36328125</ele>
        <time>1970-01-01T00:00:00.000Z</time>
      </trkpt>
      <trkpt lat="42.08725" lon="19.62111">
        <ele>96.7890625</ele>
        <time>1970-01-01T00:00:00.000Z</time>
      </trkpt>
      <trkpt lat="42.08746" lon="19.6206">
        <ele>95.6328125</ele>
        <time>1970-01-01T00:00:00.000Z</time>
      </trkpt>
      <trkpt lat="42.08811" lon="19.61976">
        <ele>98.13671875</ele>
        <time>1970-01-01T00:00:00.000Z</time>
      </trkpt>
      <trkpt lat="42.08824" lon="19.61879">
        <ele>91.28125</ele>
        <time>1970-01-01T00:00:00.000Z</time>
      </trkpt>
      <trkpt lat="42.08858" lon="19.61849">
        <ele>93.71484375</ele>
        <time>1970-01-01T00:00:00.000Z</time>
      </trkpt>
      <trkpt lat="42.08888" lon="19.61839">
        <ele>97.3046875</ele>
        <time>1970-01-01T00:00:00.000Z</time>
      </trkpt>
      <trkpt lat="42.08942" lon="19.61785">
        <ele>95.43359375</ele>
        <time>1970-01-01T00:00:00.000Z</time>
      </trkpt>
      <trkpt lat="42.08976" lon="19.61761">
        <ele>95.4140625</ele>
        <time>1970-01-01T00:00:00.000Z</time>
      </trkpt>
      <trkpt lat="42.08976" lon="19.61751">
        <ele>93.94140625</ele>
        <time>1970-01-01T00:00:00.000Z</time>
      </trkpt>
      <trkpt lat="42.08963" lon="19.61751">
        <ele>93.05078125</ele>
        <time>1970-01-01T00:00:00.000Z</time>
      </trkpt>
      <trkpt lat="42.08955" lon="19.61746">
        <ele>91.9375</ele>
        <time>1970-01-01T00:00:00.000Z</time>
      </trkpt>
      <trkpt lat="42.08946" lon="19.61744">
        <ele>91.12109375</ele>
        <time>1970-01-01T00:00:00.000Z</time>
      </trkpt>
      <trkpt lat="42.08925" lon="19.61733">
        <ele>89.49609375</ele>
        <time>1970-01-01T00:00:00.000Z</time>
      </trkpt>
      <trkpt lat="42.08905" lon="19.61716">
        <ele>91.2890625</ele>
        <time>1970-01-01T00:00:00.000Z</time>
      </trkpt>
      <trkpt lat="42.08899" lon="19.61714">
        <ele>92.390617370605</ele>
        <time>1970-01-01T00:00:00.000Z</time>
      </trkpt>
      <trkpt lat="42.08847" lon="19.61725">
        <ele>91.48828125</ele>
        <time>1970-01-01T00:00:00.000Z</time>
      </trkpt>
      <trkpt lat="42.08841" lon="19.61725">
        <ele>91.23828125</ele>
        <time>1970-01-01T00:00:00.000Z</time>
      </trkpt>
      <trkpt lat="42.08798" lon="19.61738">
        <ele>87.84765625</ele>
        <time>1970-01-01T00:00:00.000Z</time>
      </trkpt>
      <trkpt lat="42.08774" lon="19.61736">
        <ele>87.05078125</ele>
        <time>1970-01-01T00:00:00.000Z</time>
      </trkpt>
      <trkpt lat="42.08761" lon="19.6174">
        <ele>85.5703125</ele>
        <time>1970-01-01T00:00:00.000Z</time>
      </trkpt>
      <trkpt lat="42.08755" lon="19.61744">
        <ele>84.48828125</ele>
        <time>1970-01-01T00:00:00.000Z</time>
      </trkpt>
      <trkpt lat="42.08736" lon="19.61748">
        <ele>82.6328125</ele>
        <time>1970-01-01T00:00:00.000Z</time>
      </trkpt>
      <trkpt lat="42.08725" lon="19.61744">
        <ele>82.38671875</ele>
        <time>1970-01-01T00:00:00.000Z</time>
      </trkpt>
      <trkpt lat="42.08721" lon="19.6174">
        <ele>82.51953125</ele>
        <time>1970-01-01T00:00:00.000Z</time>
      </trkpt>
      <trkpt lat="42.08716" lon="19.61733">
        <ele>82.8125</ele>
        <time>1970-01-01T00:00:00.000Z</time>
      </trkpt>
      <trkpt lat="42.08701" lon="19.61671">
        <ele>87.4609375</ele>
        <time>1970-01-01T00:00:00.000Z</time>
      </trkpt>
      <trkpt lat="42.08697" lon="19.61663">
        <ele>87.2734375</ele>
        <time>1970-01-01T00:00:00.000Z</time>
      </trkpt>
      <trkpt lat="42.08695" lon="19.61656">
        <ele>87.29296875</ele>
        <time>1970-01-01T00:00:00.000Z</time>
      </trkpt>
      <trkpt lat="42.08695" lon="19.6165">
        <ele>87.82421875</ele>
        <time>1970-01-01T00:00:00.000Z</time>
      </trkpt>
      <trkpt lat="42.08693" lon="19.61635">
        <ele>88.1015625</ele>
        <time>1970-01-01T00:00:00.000Z</time>
      </trkpt>
      <trkpt lat="42.08676" lon="19.61583">
        <ele>88.26953125</ele>
        <time>1970-01-01T00:00:00.000Z</time>
      </trkpt>
      <trkpt lat="42.08671" lon="19.61579">
        <ele>89.625</ele>
        <time>1970-01-01T00:00:00.000Z</time>
      </trkpt>
      <trkpt lat="42.08667" lon="19.61577">
        <ele>91.0390625</ele>
        <time>1970-01-01T00:00:00.000Z</time>
      </trkpt>
      <trkpt lat="42.08663" lon="19.61583">
        <ele>92.86328125</ele>
        <time>1970-01-01T00:00:00.000Z</time>
      </trkpt>
      <trkpt lat="42.08661" lon="19.61613">
        <ele>95.21875</ele>
        <time>1970-01-01T00:00:00.000Z</time>
      </trkpt>
      <trkpt lat="42.08652" lon="19.61645">
        <ele>99.60546875</ele>
        <time>1970-01-01T00:00:00.000Z</time>
      </trkpt>
      <trkpt lat="42.08648" lon="19.61712">
        <ele>96.30859375</ele>
        <time>1970-01-01T00:00:00.000Z</time>
      </trkpt>
      <trkpt lat="42.08646" lon="19.61721">
        <ele>96.48046875</ele>
        <time>1970-01-01T00:00:00.000Z</time>
      </trkpt>
      <trkpt lat="42.08643" lon="19.61774">
        <ele>89.89453125</ele>
        <time>1970-01-01T00:00:00.000Z</time>
      </trkpt>
      <trkpt lat="42.08633" lon="19.61791">
        <ele>90.22265625</ele>
        <time>1970-01-01T00:00:00.000Z</time>
      </trkpt>
      <trkpt lat="42.08618" lon="19.61804">
        <ele>91.61328125</ele>
        <time>1970-01-01T00:00:00.000Z</time>
      </trkpt>
      <trkpt lat="42.08609" lon="19.61806">
        <ele>93.26171875</ele>
        <time>1970-01-01T00:00:00.000Z</time>
      </trkpt>
      <trkpt lat="42.08603" lon="19.61811">
        <ele>94.09375</ele>
        <time>1970-01-01T00:00:00.000Z</time>
      </trkpt>
      <trkpt lat="42.08577" lon="19.61849">
        <ele>88.48046875</ele>
        <time>1970-01-01T00:00:00.000Z</time>
      </trkpt>
      <trkpt lat="42.0854" lon="19.61871">
        <ele>83.3203125</ele>
        <time>1970-01-01T00:00:00.000Z</time>
      </trkpt>
      <trkpt lat="42.08534" lon="19.61873">
        <ele>82.5703125</ele>
        <time>1970-01-01T00:00:00.000Z</time>
      </trkpt>
      <trkpt lat="42.08528" lon="19.61873">
        <ele>82.32421875</ele>
        <time>1970-01-01T00:00:00.000Z</time>
      </trkpt>
      <trkpt lat="42.08521" lon="19.61871">
        <ele>82.640617370605</ele>
        <time>1970-01-01T00:00:00.000Z</time>
      </trkpt>
      <trkpt lat="42.08515" lon="19.61866">
        <ele>83.33984375</ele>
        <time>1970-01-01T00:00:00.000Z</time>
      </trkpt>
      <trkpt lat="42.08506" lon="19.61854">
        <ele>85.87109375</ele>
        <time>1970-01-01T00:00:00.000Z</time>
      </trkpt>
      <trkpt lat="42.08495" lon="19.61843">
        <ele>87.4296875</ele>
        <time>1970-01-01T00:00:00.000Z</time>
      </trkpt>
      <trkpt lat="42.0848" lon="19.61841">
        <ele>86.328117370605</ele>
        <time>1970-01-01T00:00:00.000Z</time>
      </trkpt>
      <trkpt lat="42.08476" lon="19.61839">
        <ele>86.33984375</ele>
        <time>1970-01-01T00:00:00.000Z</time>
      </trkpt>
      <trkpt lat="42.0847" lon="19.61826">
        <ele>88.38671875</ele>
        <time>1970-01-01T00:00:00.000Z</time>
      </trkpt>
      <trkpt lat="42.08465" lon="19.618">
        <ele>93.52734375</ele>
        <time>1970-01-01T00:00:00.000Z</time>
      </trkpt>
      <trkpt lat="42.08461" lon="19.61791">
        <ele>95.17578125</ele>
        <time>1970-01-01T00:00:00.000Z</time>
      </trkpt>
      <trkpt lat="42.08457" lon="19.61787">
        <ele>95.69140625</ele>
        <time>1970-01-01T00:00:00.000Z</time>
      </trkpt>
      <trkpt lat="42.08446" lon="19.61787">
        <ele>94.14453125</ele>
        <time>1970-01-01T00:00:00.000Z</time>
      </trkpt>
      <trkpt lat="42.08429" lon="19.61791">
        <ele>90.29296875</ele>
        <time>1970-01-01T00:00:00.000Z</time>
      </trkpt>
      <trkpt lat="42.08416" lon="19.61791">
        <ele>87.984382629395</ele>
        <time>1970-01-01T00:00:00.000Z</time>
      </trkpt>
      <trkpt lat="42.08407" lon="19.61787">
        <ele>87.3671875</ele>
        <time>1970-01-01T00:00:00.000Z</time>
      </trkpt>
      <trkpt lat="42.08369" lon="19.61725">
        <ele>89.375</ele>
        <time>1970-01-01T00:00:00.000Z</time>
      </trkpt>
      <trkpt lat="42.08354" lon="19.61708">
        <ele>86.8828125</ele>
        <time>1970-01-01T00:00:00.000Z</time>
      </trkpt>
      <trkpt lat="42.08347" lon="19.61703">
        <ele>86.82421875</ele>
        <time>1970-01-01T00:00:00.000Z</time>
      </trkpt>
      <trkpt lat="42.08337" lon="19.61701">
        <ele>86.80078125</ele>
        <time>1970-01-01T00:00:00.000Z</time>
      </trkpt>
      <trkpt lat="42.08332" lon="19.61699">
        <ele>86.953117370605</ele>
        <time>1970-01-01T00:00:00.000Z</time>
      </trkpt>
      <trkpt lat="42.0833" lon="19.6169">
        <ele>87.94140625</ele>
        <time>1970-01-01T00:00:00.000Z</time>
      </trkpt>
      <trkpt lat="42.0833" lon="19.61678">
        <ele>89.5</ele>
        <time>1970-01-01T00:00:00.000Z</time>
      </trkpt>
      <trkpt lat="42.08326" lon="19.61667">
        <ele>90.77734375</ele>
        <time>1970-01-01T00:00:00.000Z</time>
      </trkpt>
      <trkpt lat="42.08319" lon="19.61673">
        <ele>89.9296875</ele>
        <time>1970-01-01T00:00:00.000Z</time>
      </trkpt>
      <trkpt lat="42.08311" lon="19.61693">
        <ele>87.30859375</ele>
        <time>1970-01-01T00:00:00.000Z</time>
      </trkpt>
      <trkpt lat="42.08302" lon="19.61703">
        <ele>85.671882629395</ele>
        <time>1970-01-01T00:00:00.000Z</time>
      </trkpt>
      <trkpt lat="42.08283" lon="19.61712">
        <ele>83.90234375</ele>
        <time>1970-01-01T00:00:00.000Z</time>
      </trkpt>
      <trkpt lat="42.08262" lon="19.6171">
        <ele>84.26171875</ele>
        <time>1970-01-01T00:00:00.000Z</time>
      </trkpt>
      <trkpt lat="42.08257" lon="19.61705">
        <ele>85.16015625</ele>
        <time>1970-01-01T00:00:00.000Z</time>
      </trkpt>
      <trkpt lat="42.08247" lon="19.6169">
        <ele>88</ele>
        <time>1970-01-01T00:00:00.000Z</time>
      </trkpt>
      <trkpt lat="42.0824" lon="19.61695">
        <ele>87.6953125</ele>
        <time>1970-01-01T00:00:00.000Z</time>
      </trkpt>
      <trkpt lat="42.08234" lon="19.61701">
        <ele>87.09375</ele>
        <time>1970-01-01T00:00:00.000Z</time>
      </trkpt>
      <trkpt lat="42.08225" lon="19.61703">
        <ele>87.25390625</ele>
        <time>1970-01-01T00:00:00.000Z</time>
      </trkpt>
      <trkpt lat="42.08219" lon="19.61703">
        <ele>87.60546875</ele>
        <time>1970-01-01T00:00:00.000Z</time>
      </trkpt>
      <trkpt lat="42.08219" lon="19.61744">
        <ele>81.82421875</ele>
        <time>1970-01-01T00:00:00.000Z</time>
      </trkpt>
      <trkpt lat="42.08214" lon="19.61746">
        <ele>81.73046875</ele>
        <time>1970-01-01T00:00:00.000Z</time>
      </trkpt>
      <trkpt lat="42.08206" lon="19.61744">
        <ele>82.47265625</ele>
        <time>1970-01-01T00:00:00.000Z</time>
      </trkpt>
      <trkpt lat="42.08199" lon="19.61736">
        <ele>84.0859375</ele>
        <time>1970-01-01T00:00:00.000Z</time>
      </trkpt>
      <trkpt lat="42.08195" lon="19.6171">
        <ele>88.03125</ele>
        <time>1970-01-01T00:00:00.000Z</time>
      </trkpt>
      <trkpt lat="42.08189" lon="19.6169">
        <ele>90.9609375</ele>
        <time>1970-01-01T00:00:00.000Z</time>
      </trkpt>
      <trkpt lat="42.08182" lon="19.61688">
        <ele>91.26171875</ele>
        <time>1970-01-01T00:00:00.000Z</time>
      </trkpt>
      <trkpt lat="42.08174" lon="19.61703">
        <ele>88.921882629395</ele>
        <time>1970-01-01T00:00:00.000Z</time>
      </trkpt>
      <trkpt lat="42.08163" lon="19.61716">
        <ele>86.6484375</ele>
        <time>1970-01-01T00:00:00.000Z</time>
      </trkpt>
      <trkpt lat="42.08159" lon="19.61718">
        <ele>86.13671875</ele>
        <time>1970-01-01T00:00:00.000Z</time>
      </trkpt>
      <trkpt lat="42.08144" lon="19.6171">
        <ele>86.78515625</ele>
        <time>1970-01-01T00:00:00.000Z</time>
      </trkpt>
      <trkpt lat="42.08128" lon="19.61697">
        <ele>88.29296875</ele>
        <time>1970-01-01T00:00:00.000Z</time>
      </trkpt>
      <trkpt lat="42.08122" lon="19.61695">
        <ele>88.4375</ele>
        <time>1970-01-01T00:00:00.000Z</time>
      </trkpt>
      <trkpt lat="42.08101" lon="19.61697">
        <ele>87.16015625</ele>
        <time>1970-01-01T00:00:00.000Z</time>
      </trkpt>
      <trkpt lat="42.08094" lon="19.61708">
        <ele>84.54296875</ele>
        <time>1970-01-01T00:00:00.000Z</time>
      </trkpt>
      <trkpt lat="42.08086" lon="19.61712">
        <ele>82.90234375</ele>
        <time>1970-01-01T00:00:00.000Z</time>
      </trkpt>
      <trkpt lat="42.08056" lon="19.6171">
        <ele>80.01171875</ele>
        <time>1970-01-01T00:00:00.000Z</time>
      </trkpt>
      <trkpt lat="42.08051" lon="19.61708">
        <ele>79.82421875</ele>
        <time>1970-01-01T00:00:00.000Z</time>
      </trkpt>
      <trkpt lat="42.08041" lon="19.61708">
        <ele>78.64453125</ele>
        <time>1970-01-01T00:00:00.000Z</time>
      </trkpt>
      <trkpt lat="42.08015" lon="19.61695">
        <ele>77.58984375</ele>
        <time>1970-01-01T00:00:00.000Z</time>
      </trkpt>
      <trkpt lat="42.07995" lon="19.61663">
        <ele>79.56640625</ele>
        <time>1970-01-01T00:00:00.000Z</time>
      </trkpt>
      <trkpt lat="42.07983" lon="19.61626">
        <ele>80.8046875</ele>
        <time>1970-01-01T00:00:00.000Z</time>
      </trkpt>
      <trkpt lat="42.07976" lon="19.61585">
        <ele>82.68359375</ele>
        <time>1970-01-01T00:00:00.000Z</time>
      </trkpt>
      <trkpt lat="42.0798" lon="19.61577">
        <ele>84.078117370605</ele>
        <time>1970-01-01T00:00:00.000Z</time>
      </trkpt>
      <trkpt lat="42.07978" lon="19.61562">
        <ele>84.65625</ele>
        <time>1970-01-01T00:00:00.000Z</time>
      </trkpt>
      <trkpt lat="42.07946" lon="19.61523">
        <ele>80.57421875</ele>
        <time>1970-01-01T00:00:00.000Z</time>
      </trkpt>
      <trkpt lat="42.07918" lon="19.61442">
        <ele>80.33203125</ele>
        <time>1970-01-01T00:00:00.000Z</time>
      </trkpt>
      <trkpt lat="42.07916" lon="19.61422">
        <ele>79.95703125</ele>
        <time>1970-01-01T00:00:00.000Z</time>
      </trkpt>
      <trkpt lat="42.07916" lon="19.61407">
        <ele>79.9140625</ele>
        <time>1970-01-01T00:00:00.000Z</time>
      </trkpt>
      <trkpt lat="42.07925" lon="19.61349">
        <ele>80.796882629395</ele>
        <time>1970-01-01T00:00:00.000Z</time>
      </trkpt>
      <trkpt lat="42.07931" lon="19.61334">
        <ele>81.59375</ele>
        <time>1970-01-01T00:00:00.000Z</time>
      </trkpt>
      <trkpt lat="42.07935" lon="19.6133">
        <ele>82.1796875</ele>
        <time>1970-01-01T00:00:00.000Z</time>
      </trkpt>
      <trkpt lat="42.0794" lon="19.61324">
        <ele>83.35546875</ele>
        <time>1970-01-01T00:00:00.000Z</time>
      </trkpt>
      <trkpt lat="42.07942" lon="19.61317">
        <ele>83.953117370605</ele>
        <time>1970-01-01T00:00:00.000Z</time>
      </trkpt>
      <trkpt lat="42.07933" lon="19.61289">
        <ele>80.85546875</ele>
        <time>1970-01-01T00:00:00.000Z</time>
      </trkpt>
      <trkpt lat="42.07933" lon="19.61257">
        <ele>79.390617370605</ele>
        <time>1970-01-01T00:00:00.000Z</time>
      </trkpt>
      <trkpt lat="42.07938" lon="19.61242">
        <ele>79.34375</ele>
        <time>1970-01-01T00:00:00.000Z</time>
      </trkpt>
      <trkpt lat="42.07942" lon="19.61233">
        <ele>80.0859375</ele>
        <time>1970-01-01T00:00:00.000Z</time>
      </trkpt>
      <trkpt lat="42.07957" lon="19.61191">
        <ele>81.0234375</ele>
        <time>1970-01-01T00:00:00.000Z</time>
      </trkpt>
      <trkpt lat="42.07965" lon="19.61182">
        <ele>82.32421875</ele>
        <time>1970-01-01T00:00:00.000Z</time>
      </trkpt>
      <trkpt lat="42.0798" lon="19.6116">
        <ele>83.6640625</ele>
        <time>1970-01-01T00:00:00.000Z</time>
      </trkpt>
      <trkpt lat="42.07985" lon="19.61145">
        <ele>83.0390625</ele>
        <time>1970-01-01T00:00:00.000Z</time>
      </trkpt>
      <trkpt lat="42.07991" lon="19.61139">
        <ele>83.62109375</ele>
        <time>1970-01-01T00:00:00.000Z</time>
      </trkpt>
      <trkpt lat="42.08004" lon="19.61118">
        <ele>85.33984375</ele>
        <time>1970-01-01T00:00:00.000Z</time>
      </trkpt>
      <trkpt lat="42.0801" lon="19.61113">
        <ele>86.15234375</ele>
        <time>1970-01-01T00:00:00.000Z</time>
      </trkpt>
      <trkpt lat="42.08017" lon="19.61111">
        <ele>86.98828125</ele>
        <time>1970-01-01T00:00:00.000Z</time>
      </trkpt>
      <trkpt lat="42.08023" lon="19.61105">
        <ele>87.390617370605</ele>
        <time>1970-01-01T00:00:00.000Z</time>
      </trkpt>
      <trkpt lat="42.08034" lon="19.61098">
        <ele>88.1640625</ele>
        <time>1970-01-01T00:00:00.000Z</time>
      </trkpt>
      <trkpt lat="42.08043" lon="19.61098">
        <ele>89.09375</ele>
        <time>1970-01-01T00:00:00.000Z</time>
      </trkpt>
      <trkpt lat="42.08073" lon="19.61111">
        <ele>93.109382629395</ele>
        <time>1970-01-01T00:00:00.000Z</time>
      </trkpt>
      <trkpt lat="42.08092" lon="19.61109">
        <ele>95.0703125</ele>
        <time>1970-01-01T00:00:00.000Z</time>
      </trkpt>
      <trkpt lat="42.08083" lon="19.611">
        <ele>93.625</ele>
        <time>1970-01-01T00:00:00.000Z</time>
      </trkpt>
      <trkpt lat="42.08073" lon="19.61085">
        <ele>91.56640625</ele>
        <time>1970-01-01T00:00:00.000Z</time>
      </trkpt>
      <trkpt lat="42.08073" lon="19.61075">
        <ele>90.921882629395</ele>
        <time>1970-01-01T00:00:00.000Z</time>
      </trkpt>
      <trkpt lat="42.08075" lon="19.61066">
        <ele>90.63671875</ele>
        <time>1970-01-01T00:00:00.000Z</time>
      </trkpt>
      <trkpt lat="42.08075" lon="19.61057">
        <ele>90.12109375</ele>
        <time>1970-01-01T00:00:00.000Z</time>
      </trkpt>
      <trkpt lat="42.08071" lon="19.61053">
        <ele>89.80078125</ele>
        <time>1970-01-01T00:00:00.000Z</time>
      </trkpt>
      <trkpt lat="42.08064" lon="19.61053">
        <ele>89.10546875</ele>
        <time>1970-01-01T00:00:00.000Z</time>
      </trkpt>
      <trkpt lat="42.08058" lon="19.61057">
        <ele>88.265617370605</ele>
        <time>1970-01-01T00:00:00.000Z</time>
      </trkpt>
      <trkpt lat="42.08051" lon="19.6106">
        <ele>87.69921875</ele>
        <time>1970-01-01T00:00:00.000Z</time>
      </trkpt>
      <trkpt lat="42.08045" lon="19.6106">
        <ele>87.00390625</ele>
        <time>1970-01-01T00:00:00.000Z</time>
      </trkpt>
      <trkpt lat="42.08036" lon="19.61057">
        <ele>85.94921875</ele>
        <time>1970-01-01T00:00:00.000Z</time>
      </trkpt>
      <trkpt lat="42.08017" lon="19.61047">
        <ele>84.98046875</ele>
        <time>1970-01-01T00:00:00.000Z</time>
      </trkpt>
      <trkpt lat="42.08006" lon="19.61047">
        <ele>84.4140625</ele>
        <time>1970-01-01T00:00:00.000Z</time>
      </trkpt>
      <trkpt lat="42.07995" lon="19.61038">
        <ele>84.859382629395</ele>
        <time>1970-01-01T00:00:00.000Z</time>
      </trkpt>
      <trkpt lat="42.07985" lon="19.61">
        <ele>88.56640625</ele>
        <time>1970-01-01T00:00:00.000Z</time>
      </trkpt>
      <trkpt lat="42.07972" lon="19.60991">
        <ele>88.43359375</ele>
        <time>1970-01-01T00:00:00.000Z</time>
      </trkpt>
      <trkpt lat="42.07968" lon="19.60969">
        <ele>90.33984375</ele>
        <time>1970-01-01T00:00:00.000Z</time>
      </trkpt>
      <trkpt lat="42.07953" lon="19.60922">
        <ele>94.63671875</ele>
        <time>1970-01-01T00:00:00.000Z</time>
      </trkpt>
      <trkpt lat="42.0792" lon="19.60854">
        <ele>100.01560211182</ele>
        <time>1970-01-01T00:00:00.000Z</time>
      </trkpt>
      <trkpt lat="42.07918" lon="19.60845">
        <ele>100.52729797363</ele>
        <time>1970-01-01T00:00:00.000Z</time>
      </trkpt>
      <trkpt lat="42.07918" lon="19.60819">
        <ele>101.80079650879</ele>
        <time>1970-01-01T00:00:00.000Z</time>
      </trkpt>
      <trkpt lat="42.07923" lon="19.60806">
        <ele>102.78520202637</ele>
        <time>1970-01-01T00:00:00.000Z</time>
      </trkpt>
      <trkpt lat="42.07938" lon="19.60783">
        <ele>103.47660064697</ele>
        <time>1970-01-01T00:00:00.000Z</time>
      </trkpt>
      <trkpt lat="42.07953" lon="19.60776">
        <ele>106.5</ele>
        <time>1970-01-01T00:00:00.000Z</time>
      </trkpt>
      <trkpt lat="42.07957" lon="19.60772">
        <ele>107.31639862061</ele>
        <time>1970-01-01T00:00:00.000Z</time>
      </trkpt>
      <trkpt lat="42.07959" lon="19.60766">
        <ele>107.61720275879</ele>
        <time>1970-01-01T00:00:00.000Z</time>
      </trkpt>
      <trkpt lat="42.07957" lon="19.60759">
        <ele>106.96479797363</ele>
        <time>1970-01-01T00:00:00.000Z</time>
      </trkpt>
      <trkpt lat="42.07953" lon="19.60753">
        <ele>105.82029724121</ele>
        <time>1970-01-01T00:00:00.000Z</time>
      </trkpt>
      <trkpt lat="42.07903" lon="19.60744">
        <ele>96.6953125</ele>
        <time>1970-01-01T00:00:00.000Z</time>
      </trkpt>
      <trkpt lat="42.07886" lon="19.60731">
        <ele>92.8359375</ele>
        <time>1970-01-01T00:00:00.000Z</time>
      </trkpt>
      <trkpt lat="42.07882" lon="19.60729">
        <ele>91.89453125</ele>
        <time>1970-01-01T00:00:00.000Z</time>
      </trkpt>
      <trkpt lat="42.07873" lon="19.60727">
        <ele>90.1875</ele>
        <time>1970-01-01T00:00:00.000Z</time>
      </trkpt>
      <trkpt lat="42.07854" lon="19.60716">
        <ele>86.72265625</ele>
        <time>1970-01-01T00:00:00.000Z</time>
      </trkpt>
      <trkpt lat="42.07847" lon="19.60695">
        <ele>88.06640625</ele>
        <time>1970-01-01T00:00:00.000Z</time>
      </trkpt>
      <trkpt lat="42.07845" lon="19.60676">
        <ele>89.62109375</ele>
        <time>1970-01-01T00:00:00.000Z</time>
      </trkpt>
      <trkpt lat="42.07843" lon="19.60669">
        <ele>89.96875</ele>
        <time>1970-01-01T00:00:00.000Z</time>
      </trkpt>
      <trkpt lat="42.07837" lon="19.60661">
        <ele>89.97265625</ele>
        <time>1970-01-01T00:00:00.000Z</time>
      </trkpt>
      <trkpt lat="42.07804" lon="19.60645">
        <ele>87.1484375</ele>
        <time>1970-01-01T00:00:00.000Z</time>
      </trkpt>
      <trkpt lat="42.07796" lon="19.60645">
        <ele>86.046882629395</ele>
        <time>1970-01-01T00:00:00.000Z</time>
      </trkpt>
      <trkpt lat="42.07785" lon="19.60643">
        <ele>84.79296875</ele>
        <time>1970-01-01T00:00:00.000Z</time>
      </trkpt>
      <trkpt lat="42.07781" lon="19.60641">
        <ele>84.35546875</ele>
        <time>1970-01-01T00:00:00.000Z</time>
      </trkpt>
      <trkpt lat="42.0774" lon="19.60637">
        <ele>83.328117370605</ele>
        <time>1970-01-01T00:00:00.000Z</time>
      </trkpt>
      <trkpt lat="42.07723" lon="19.6063">
        <ele>84.08984375</ele>
        <time>1970-01-01T00:00:00.000Z</time>
      </trkpt>
      <trkpt lat="42.07652" lon="19.60577">
        <ele>81.125</ele>
        <time>1970-01-01T00:00:00.000Z</time>
      </trkpt>
      <trkpt lat="42.07637" lon="19.60551">
        <ele>80.453117370605</ele>
        <time>1970-01-01T00:00:00.000Z</time>
      </trkpt>
      <trkpt lat="42.07626" lon="19.60523">
        <ele>81.1171875</ele>
        <time>1970-01-01T00:00:00.000Z</time>
      </trkpt>
      <trkpt lat="42.07624" lon="19.60512">
        <ele>81.53125</ele>
        <time>1970-01-01T00:00:00.000Z</time>
      </trkpt>
      <trkpt lat="42.07618" lon="19.60504">
        <ele>81.01953125</ele>
        <time>1970-01-01T00:00:00.000Z</time>
      </trkpt>
      <trkpt lat="42.07611" lon="19.60502">
        <ele>80.03125</ele>
        <time>1970-01-01T00:00:00.000Z</time>
      </trkpt>
      <trkpt lat="42.07603" lon="19.60506">
        <ele>78.3671875</ele>
        <time>1970-01-01T00:00:00.000Z</time>
      </trkpt>
      <trkpt lat="42.07586" lon="19.60519">
        <ele>77.20703125</ele>
        <time>1970-01-01T00:00:00.000Z</time>
      </trkpt>
      <trkpt lat="42.07571" lon="19.60538">
        <ele>76.34375</ele>
        <time>1970-01-01T00:00:00.000Z</time>
      </trkpt>
      <trkpt lat="42.07556" lon="19.60551">
        <ele>76.03125</ele>
        <time>1970-01-01T00:00:00.000Z</time>
      </trkpt>
      <trkpt lat="42.07506" lon="19.6062">
        <ele>75.40234375</ele>
        <time>1970-01-01T00:00:00.000Z</time>
      </trkpt>
      <trkpt lat="42.07468" lon="19.60652">
        <ele>74.140617370605</ele>
        <time>1970-01-01T00:00:00.000Z</time>
      </trkpt>
      <trkpt lat="42.07397" lon="19.60691">
        <ele>78.69921875</ele>
        <time>1970-01-01T00:00:00.000Z</time>
      </trkpt>
      <trkpt lat="42.07386" lon="19.60701">
        <ele>80.70703125</ele>
        <time>1970-01-01T00:00:00.000Z</time>
      </trkpt>
      <trkpt lat="42.0738" lon="19.6071">
        <ele>82.19921875</ele>
        <time>1970-01-01T00:00:00.000Z</time>
      </trkpt>
      <trkpt lat="42.07373" lon="19.60714">
        <ele>83.42578125</ele>
        <time>1970-01-01T00:00:00.000Z</time>
      </trkpt>
      <trkpt lat="42.07335" lon="19.60757">
        <ele>86.98046875</ele>
        <time>1970-01-01T00:00:00.000Z</time>
      </trkpt>
      <trkpt lat="42.07324" lon="19.60774">
        <ele>87.65625</ele>
        <time>1970-01-01T00:00:00.000Z</time>
      </trkpt>
      <trkpt lat="42.07324" lon="19.60787">
        <ele>87.9921875</ele>
        <time>1970-01-01T00:00:00.000Z</time>
      </trkpt>
      <trkpt lat="42.0733" lon="19.60813">
        <ele>87.8046875</ele>
        <time>1970-01-01T00:00:00.000Z</time>
      </trkpt>
      <trkpt lat="42.0733" lon="19.60819">
        <ele>87.6953125</ele>
        <time>1970-01-01T00:00:00.000Z</time>
      </trkpt>
      <trkpt lat="42.07326" lon="19.60826">
        <ele>87.88671875</ele>
        <time>1970-01-01T00:00:00.000Z</time>
      </trkpt>
      <trkpt lat="42.07307" lon="19.60841">
        <ele>88.72265625</ele>
        <time>1970-01-01T00:00:00.000Z</time>
      </trkpt>
      <trkpt lat="42.07292" lon="19.60847">
        <ele>89.31640625</ele>
        <time>1970-01-01T00:00:00.000Z</time>
      </trkpt>
      <trkpt lat="42.07281" lon="19.60845">
        <ele>90.0078125</ele>
        <time>1970-01-01T00:00:00.000Z</time>
      </trkpt>
      <trkpt lat="42.07277" lon="19.60843">
        <ele>90.36328125</ele>
        <time>1970-01-01T00:00:00.000Z</time>
      </trkpt>
      <trkpt lat="42.07274" lon="19.60862">
        <ele>89.390617370605</ele>
        <time>1970-01-01T00:00:00.000Z</time>
      </trkpt>
      <trkpt lat="42.07275" lon="19.60895">
        <ele>87.38671875</ele>
        <time>1970-01-01T00:00:00.000Z</time>
      </trkpt>
      <trkpt lat="42.07274" lon="19.60862">
        <ele>89.390617370605</ele>
        <time>1970-01-01T00:00:00.000Z</time>
      </trkpt>
      <trkpt lat="42.07277" lon="19.60843">
        <ele>90.36328125</ele>
        <time>1970-01-01T00:00:00.000Z</time>
      </trkpt>
      <trkpt lat="42.07272" lon="19.60836">
        <ele>90.984382629395</ele>
        <time>1970-01-01T00:00:00.000Z</time>
      </trkpt>
      <trkpt lat="42.0727" lon="19.60828">
        <ele>91.62890625</ele>
        <time>1970-01-01T00:00:00.000Z</time>
      </trkpt>
      <trkpt lat="42.0727" lon="19.60804">
        <ele>92.875</ele>
        <time>1970-01-01T00:00:00.000Z</time>
      </trkpt>
      <trkpt lat="42.07253" lon="19.60708">
        <ele>86.6484375</ele>
        <time>1970-01-01T00:00:00.000Z</time>
      </trkpt>
      <trkpt lat="42.07242" lon="19.60684">
        <ele>85.23046875</ele>
        <time>1970-01-01T00:00:00.000Z</time>
      </trkpt>
      <trkpt lat="42.07232" lon="19.60673">
        <ele>85.66015625</ele>
        <time>1970-01-01T00:00:00.000Z</time>
      </trkpt>
      <trkpt lat="42.07225" lon="19.60663">
        <ele>85.125</ele>
        <time>1970-01-01T00:00:00.000Z</time>
      </trkpt>
      <trkpt lat="42.07221" lon="19.60648">
        <ele>83.3671875</ele>
        <time>1970-01-01T00:00:00.000Z</time>
      </trkpt>
      <trkpt lat="42.07202" lon="19.60628">
        <ele>83.71875</ele>
        <time>1970-01-01T00:00:00.000Z</time>
      </trkpt>
      <trkpt lat="42.07178" lon="19.6057">
        <ele>78.83984375</ele>
        <time>1970-01-01T00:00:00.000Z</time>
      </trkpt>
      <trkpt lat="42.07163" lon="19.60551">
        <ele>78.98046875</ele>
        <time>1970-01-01T00:00:00.000Z</time>
      </trkpt>
      <trkpt lat="42.07154" lon="19.60536">
        <ele>78.2109375</ele>
        <time>1970-01-01T00:00:00.000Z</time>
      </trkpt>
      <trkpt lat="42.07144" lon="19.60525">
        <ele>78.08203125</ele>
        <time>1970-01-01T00:00:00.000Z</time>
      </trkpt>
      <trkpt lat="42.07129" lon="19.60519">
        <ele>79.0859375</ele>
        <time>1970-01-01T00:00:00.000Z</time>
      </trkpt>
      <trkpt lat="42.07107" lon="19.605">
        <ele>76.796882629395</ele>
        <time>1970-01-01T00:00:00.000Z</time>
      </trkpt>
      <trkpt lat="42.07084" lon="19.60461">
        <ele>69.46484375</ele>
        <time>1970-01-01T00:00:00.000Z</time>
      </trkpt>
      <trkpt lat="42.07053" lon="19.60424">
        <ele>66.63671875</ele>
        <time>1970-01-01T00:00:00.000Z</time>
      </trkpt>
      <trkpt lat="42.07045" lon="19.60409">
        <ele>64.68359375</ele>
        <time>1970-01-01T00:00:00.000Z</time>
      </trkpt>
      <trkpt lat="42.07032" lon="19.60394">
        <ele>62.26953125</ele>
        <time>1970-01-01T00:00:00.000Z</time>
      </trkpt>
      <trkpt lat="42.07008" lon="19.60388">
        <ele>62.664058685303</ele>
        <time>1970-01-01T00:00:00.000Z</time>
      </trkpt>
      <trkpt lat="42.06998" lon="19.60388">
        <ele>64.19140625</ele>
        <time>1970-01-01T00:00:00.000Z</time>
      </trkpt>
      <trkpt lat="42.06985" lon="19.60392">
        <ele>66.83203125</ele>
        <time>1970-01-01T00:00:00.000Z</time>
      </trkpt>
      <trkpt lat="42.06976" lon="19.6039">
        <ele>67.60546875</ele>
        <time>1970-01-01T00:00:00.000Z</time>
      </trkpt>
      <trkpt lat="42.06963" lon="19.60379">
        <ele>68.23828125</ele>
        <time>1970-01-01T00:00:00.000Z</time>
      </trkpt>
      <trkpt lat="42.0695" lon="19.60375">
        <ele>69.3671875</ele>
        <time>1970-01-01T00:00:00.000Z</time>
      </trkpt>
      <trkpt lat="42.06927" lon="19.60356">
        <ele>68.109382629395</ele>
        <time>1970-01-01T00:00:00.000Z</time>
      </trkpt>
      <trkpt lat="42.0692" lon="19.60343">
        <ele>66.17578125</ele>
        <time>1970-01-01T00:00:00.000Z</time>
      </trkpt>
      <trkpt lat="42.06908" lon="19.60304">
        <ele>60.67578125</ele>
        <time>1970-01-01T00:00:00.000Z</time>
      </trkpt>
      <trkpt lat="42.06901" lon="19.60296">
        <ele>60.726558685303</ele>
        <time>1970-01-01T00:00:00.000Z</time>
      </trkpt>
      <trkpt lat="42.0689" lon="19.60294">
        <ele>60.554691314697</ele>
        <time>1970-01-01T00:00:00.000Z</time>
      </trkpt>
      <trkpt lat="42.06869" lon="19.603">
        <ele>60.16796875</ele>
        <time>1970-01-01T00:00:00.000Z</time>
      </trkpt>
      <trkpt lat="42.06862" lon="19.603">
        <ele>60.070308685303</ele>
        <time>1970-01-01T00:00:00.000Z</time>
      </trkpt>
      <trkpt lat="42.06856" lon="19.60298">
        <ele>59.94921875</ele>
        <time>1970-01-01T00:00:00.000Z</time>
      </trkpt>
      <trkpt lat="42.06772" lon="19.60221">
        <ele>59.984378814697</ele>
        <time>1970-01-01T00:00:00.000Z</time>
      </trkpt>
      <trkpt lat="42.06732" lon="19.60206">
        <ele>57.214839935303</ele>
        <time>1970-01-01T00:00:00.000Z</time>
      </trkpt>
      <trkpt lat="42.06648" lon="19.60203">
        <ele>51.839839935303</ele>
        <time>1970-01-01T00:00:00.000Z</time>
      </trkpt>
      <trkpt lat="42.06624" lon="19.60197">
        <ele>50.40625</ele>
        <time>1970-01-01T00:00:00.000Z</time>
      </trkpt>
      <trkpt lat="42.06581" lon="19.6021">
        <ele>50.07421875</ele>
        <time>1970-01-01T00:00:00.000Z</time>
      </trkpt>
      <trkpt lat="42.06571" lon="19.6021">
        <ele>50.253910064697</ele>
        <time>1970-01-01T00:00:00.000Z</time>
      </trkpt>
      <trkpt lat="42.06547" lon="19.60201">
        <ele>50.16796875</ele>
        <time>1970-01-01T00:00:00.000Z</time>
      </trkpt>
      <trkpt lat="42.06541" lon="19.60197">
        <ele>49.984378814697</ele>
        <time>1970-01-01T00:00:00.000Z</time>
      </trkpt>
      <trkpt lat="42.06498" lon="19.60193">
        <ele>49.26171875</ele>
        <time>1970-01-01T00:00:00.000Z</time>
      </trkpt>
      <trkpt lat="42.06481" lon="19.60186">
        <ele>48.523441314697</ele>
        <time>1970-01-01T00:00:00.000Z</time>
      </trkpt>
      <trkpt lat="42.06433" lon="19.60152">
        <ele>47.191410064697</ele>
        <time>1970-01-01T00:00:00.000Z</time>
      </trkpt>
      <trkpt lat="42.06423" lon="19.60141">
        <ele>47.195308685303</ele>
        <time>1970-01-01T00:00:00.000Z</time>
      </trkpt>
      <trkpt lat="42.0642" lon="19.60135">
        <ele>47.21875</ele>
        <time>1970-01-01T00:00:00.000Z</time>
      </trkpt>
      <trkpt lat="42.06418" lon="19.60122">
        <ele>47.29296875</ele>
        <time>1970-01-01T00:00:00.000Z</time>
      </trkpt>
      <trkpt lat="42.06373" lon="19.60012">
        <ele>46.710941314697</ele>
        <time>1970-01-01T00:00:00.000Z</time>
      </trkpt>
      <trkpt lat="42.0632" lon="19.59806">
        <ele>45.535160064697</ele>
        <time>1970-01-01T00:00:00.000Z</time>
      </trkpt>
      <trkpt lat="42.06305" lon="19.59779">
        <ele>44.335941314697</ele>
        <time>1970-01-01T00:00:00.000Z</time>
      </trkpt>
      <trkpt lat="42.06251" lon="19.59534">
        <ele>43.88671875</ele>
        <time>1970-01-01T00:00:00.000Z</time>
      </trkpt>
      <trkpt lat="42.06247" lon="19.59493">
        <ele>42.69921875</ele>
        <time>1970-01-01T00:00:00.000Z</time>
      </trkpt>
      <trkpt lat="42.06247" lon="19.59394">
        <ele>39.73046875</ele>
        <time>1970-01-01T00:00:00.000Z</time>
      </trkpt>
      <trkpt lat="42.06187" lon="19.5894">
        <ele>34.86328125</ele>
        <time>1970-01-01T00:00:00.000Z</time>
      </trkpt>
      <trkpt lat="42.06187" lon="19.58822">
        <ele>33.90625</ele>
        <time>1970-01-01T00:00:00.000Z</time>
      </trkpt>
      <trkpt lat="42.06182" lon="19.58787">
        <ele>35.070308685303</ele>
        <time>1970-01-01T00:00:00.000Z</time>
      </trkpt>
      <trkpt lat="42.06152" lon="19.58697">
        <ele>34.79296875</ele>
        <time>1970-01-01T00:00:00.000Z</time>
      </trkpt>
      <trkpt lat="42.06152" lon="19.58656">
        <ele>35.28125</ele>
        <time>1970-01-01T00:00:00.000Z</time>
      </trkpt>
      <trkpt lat="42.06157" lon="19.58626">
        <ele>35.804691314697</ele>
        <time>1970-01-01T00:00:00.000Z</time>
      </trkpt>
      <trkpt lat="42.06157" lon="19.58598">
        <ele>35.839839935303</ele>
        <time>1970-01-01T00:00:00.000Z</time>
      </trkpt>
      <trkpt lat="42.0615" lon="19.58581">
        <ele>35.5625</ele>
        <time>1970-01-01T00:00:00.000Z</time>
      </trkpt>
      <trkpt lat="42.06111" lon="19.58523">
        <ele>34.671878814697</ele>
        <time>1970-01-01T00:00:00.000Z</time>
      </trkpt>
      <trkpt lat="42.06107" lon="19.58519">
        <ele>34.570308685303</ele>
        <time>1970-01-01T00:00:00.000Z</time>
      </trkpt>
      <trkpt lat="42.06079" lon="19.58506">
        <ele>33.484378814697</ele>
        <time>1970-01-01T00:00:00.000Z</time>
      </trkpt>
      <trkpt lat="42.06069" lon="19.58498">
        <ele>33.1875</ele>
        <time>1970-01-01T00:00:00.000Z</time>
      </trkpt>
      <trkpt lat="42.06058" lon="19.58485">
        <ele>33.054691314697</ele>
        <time>1970-01-01T00:00:00.000Z</time>
      </trkpt>
      <trkpt lat="42.06054" lon="19.58476">
        <ele>33.11328125</ele>
        <time>1970-01-01T00:00:00.000Z</time>
      </trkpt>
      <trkpt lat="42.06006" lon="19.58435">
        <ele>31.484380722046</ele>
        <time>1970-01-01T00:00:00.000Z</time>
      </trkpt>
      <trkpt lat="42.05987" lon="19.5841">
        <ele>30.789060592651</ele>
        <time>1970-01-01T00:00:00.000Z</time>
      </trkpt>
      <trkpt lat="42.05972" lon="19.58371">
        <ele>30.648439407349</ele>
        <time>1970-01-01T00:00:00.000Z</time>
      </trkpt>
      <trkpt lat="42.05968" lon="19.58313">
        <ele>31.859380722046</ele>
        <time>1970-01-01T00:00:00.000Z</time>
      </trkpt>
      <trkpt lat="42.05938" lon="19.58156">
        <ele>37.875</ele>
        <time>1970-01-01T00:00:00.000Z</time>
      </trkpt>
      <trkpt lat="42.05925" lon="19.58133">
        <ele>38.45703125</ele>
        <time>1970-01-01T00:00:00.000Z</time>
      </trkpt>
      <trkpt lat="42.05858" lon="19.5809">
        <ele>33.05078125</ele>
        <time>1970-01-01T00:00:00.000Z</time>
      </trkpt>
      <trkpt lat="42.05852" lon="19.58081">
        <ele>32.66796875</ele>
        <time>1970-01-01T00:00:00.000Z</time>
      </trkpt>
      <trkpt lat="42.05637" lon="19.57575">
        <ele>32.390621185303</ele>
        <time>1970-01-01T00:00:00.000Z</time>
      </trkpt>
      <trkpt lat="42.05627" lon="19.57532">
        <ele>32.85546875</ele>
        <time>1970-01-01T00:00:00.000Z</time>
      </trkpt>
      <trkpt lat="42.0562" lon="19.57483">
        <ele>34.398441314697</ele>
        <time>1970-01-01T00:00:00.000Z</time>
      </trkpt>
      <trkpt lat="42.05622" lon="19.57446">
        <ele>35.335941314697</ele>
        <time>1970-01-01T00:00:00.000Z</time>
      </trkpt>
      <trkpt lat="42.05627" lon="19.57425">
        <ele>36.367191314697</ele>
        <time>1970-01-01T00:00:00.000Z</time>
      </trkpt>
      <trkpt lat="42.05627" lon="19.57414">
        <ele>36.445308685303</ele>
        <time>1970-01-01T00:00:00.000Z</time>
      </trkpt>
      <trkpt lat="42.05624" lon="19.57401">
        <ele>36.015621185303</ele>
        <time>1970-01-01T00:00:00.000Z</time>
      </trkpt>
      <trkpt lat="42.05624" lon="19.57377">
        <ele>36.117191314697</ele>
        <time>1970-01-01T00:00:00.000Z</time>
      </trkpt>
      <trkpt lat="42.05631" lon="19.57317">
        <ele>37.734378814697</ele>
        <time>1970-01-01T00:00:00.000Z</time>
      </trkpt>
      <trkpt lat="42.05631" lon="19.57277">
        <ele>36.289058685303</ele>
        <time>1970-01-01T00:00:00.000Z</time>
      </trkpt>
      <trkpt lat="42.05629" lon="19.57266">
        <ele>35.398441314697</ele>
        <time>1970-01-01T00:00:00.000Z</time>
      </trkpt>
      <trkpt lat="42.05622" lon="19.57247">
        <ele>33.476558685303</ele>
        <time>1970-01-01T00:00:00.000Z</time>
      </trkpt>
      <trkpt lat="42.05569" lon="19.57193">
        <ele>30.214839935303</ele>
        <time>1970-01-01T00:00:00.000Z</time>
      </trkpt>
      <trkpt lat="42.05556" lon="19.57174">
        <ele>30.832029342651</ele>
        <time>1970-01-01T00:00:00.000Z</time>
      </trkpt>
      <trkpt lat="42.05554" lon="19.57167">
        <ele>31.058589935303</ele>
        <time>1970-01-01T00:00:00.000Z</time>
      </trkpt>
      <trkpt lat="42.05554" lon="19.57135">
        <ele>31.964839935303</ele>
        <time>1970-01-01T00:00:00.000Z</time>
      </trkpt>
      <trkpt lat="42.05547" lon="19.57118">
        <ele>32.492191314697</ele>
        <time>1970-01-01T00:00:00.000Z</time>
      </trkpt>
      <trkpt lat="42.05541" lon="19.57111">
        <ele>32.710941314697</ele>
        <time>1970-01-01T00:00:00.000Z</time>
      </trkpt>
      <trkpt lat="42.05511" lon="19.5709">
        <ele>32.55078125</ele>
        <time>1970-01-01T00:00:00.000Z</time>
      </trkpt>
      <trkpt lat="42.05504" lon="19.57081">
        <ele>32.253910064697</ele>
        <time>1970-01-01T00:00:00.000Z</time>
      </trkpt>
      <trkpt lat="42.05483" lon="19.57064">
        <ele>31.199220657349</ele>
        <time>1970-01-01T00:00:00.000Z</time>
      </trkpt>
      <trkpt lat="42.05433" lon="19.57041">
        <ele>29.40625</ele>
        <time>1970-01-01T00:00:00.000Z</time>
      </trkpt>
      <trkpt lat="42.05416" lon="19.57036">
        <ele>28.738279342651</ele>
        <time>1970-01-01T00:00:00.000Z</time>
      </trkpt>
      <trkpt lat="42.05367" lon="19.57036">
        <ele>26.367189407349</ele>
        <time>1970-01-01T00:00:00.000Z</time>
      </trkpt>
      <trkpt lat="42.05039" lon="19.5686">
        <ele>18.46875</ele>
        <time>1970-01-01T00:00:00.000Z</time>
      </trkpt>
      <trkpt lat="42.04987" lon="19.5682">
        <ele>20.363279342651</ele>
        <time>1970-01-01T00:00:00.000Z</time>
      </trkpt>
      <trkpt lat="42.04852" lon="19.56764">
        <ele>17.097660064697</ele>
        <time>1970-01-01T00:00:00.000Z</time>
      </trkpt>
      <trkpt lat="42.04843" lon="19.56764">
        <ele>16.886720657349</ele>
        <time>1970-01-01T00:00:00.000Z</time>
        <extensions>
          <visugpx:TrkExtension xmlns:visugpx="https://www.visugpx.com/editgpx/">
            <visugpx:node>1</visugpx:node>
            </visugpx:TrkExtension>
        </extensions>
      </trkpt>
    </trkseg>
  </trk>
</gpx>